<?xml version="1.0" encoding="UTF-8" standalone="no" ?>
<gpx xmlns="http://www.topografix.com/GPX/1/1" xmlns:xsi="http://www.w3.org/2001/XMLSchema-instance" xsi:schemaLocation="http://www.topografix.com/GPX/1/1 http://www.topografix.com/GPX/1/1/gpx.xsd" version="1.1" creator="VisuGPX - https://www.visugpx.com">
  <metadata>
    <name>Dévoluy étape 5</name>
    <desc><![CDATA[La première moitié du traçé est une alternance de singles et de pistes rendues inroulables par les pluies de la nuit et parfois le labourage de tracteurs... De pré fontaine jusqu'au col de Matacharre il vaut mieux prendre la piste, ça doit être roulable. Depuis le col de Matacharre, balcons et singles très beaux et roulables jusqu'à la fin du traçé.]]></desc>
  </metadata>
  <trk>
    <name><![CDATA[J 5 col de matacharre et de conode]]></name>
    <extensions>
      <line xmlns="http://www.topografix.com/GPX/gpx_style/0/2">
        <color>0000FF</color>
        <width>4</width>
      </line>
    </extensions>
    <trkseg>
      <trkpt lat="44.63938" lon="5.84723">
        <ele>1223.2</ele>
        <time>2023-05-19T07:12:06Z</time>
      </trkpt>
      <trkpt lat="44.63938" lon="5.84723">
        <ele>1243</ele>
        <time>2023-05-19T07:12:07Z</time>
      </trkpt>
      <trkpt lat="44.63938" lon="5.84723">
        <ele>1244.4</ele>
        <time>2023-05-19T07:12:08Z</time>
      </trkpt>
      <trkpt lat="44.63938" lon="5.84723">
        <ele>1245.8</ele>
        <time>2023-05-19T07:12:09Z</time>
      </trkpt>
      <trkpt lat="44.63938" lon="5.84723">
        <ele>1245.8</ele>
        <time>2023-05-19T07:12:14Z</time>
      </trkpt>
      <trkpt lat="44.63939" lon="5.84723">
        <ele>1245.6</ele>
        <time>2023-05-19T07:12:25Z</time>
      </trkpt>
      <trkpt lat="44.63938" lon="5.84724">
        <ele>1245.6</ele>
        <time>2023-05-19T07:12:38Z</time>
      </trkpt>
      <trkpt lat="44.63938" lon="5.84724">
        <ele>1245.2</ele>
        <time>2023-05-19T07:12:54Z</time>
      </trkpt>
      <trkpt lat="44.63938" lon="5.84724">
        <ele>1245</ele>
        <time>2023-05-19T07:12:56Z</time>
      </trkpt>
      <trkpt lat="44.63938" lon="5.84724">
        <ele>1244.8</ele>
        <time>2023-05-19T07:12:57Z</time>
      </trkpt>
      <trkpt lat="44.6394" lon="5.84723">
        <ele>1245</ele>
        <time>2023-05-19T07:12:59Z</time>
      </trkpt>
      <trkpt lat="44.63942" lon="5.84723">
        <ele>1245</ele>
        <time>2023-05-19T07:13:00Z</time>
      </trkpt>
      <trkpt lat="44.63956" lon="5.84723">
        <ele>1244.8</ele>
        <time>2023-05-19T07:13:05Z</time>
      </trkpt>
      <trkpt lat="44.63963" lon="5.8472">
        <ele>1244.8</ele>
        <time>2023-05-19T07:13:07Z</time>
      </trkpt>
      <trkpt lat="44.63965" lon="5.84715">
        <ele>1244.8</ele>
        <time>2023-05-19T07:13:08Z</time>
      </trkpt>
      <trkpt lat="44.63966" lon="5.84709">
        <ele>1244.8</ele>
        <time>2023-05-19T07:13:09Z</time>
      </trkpt>
      <trkpt lat="44.63966" lon="5.84705">
        <ele>1244.8</ele>
        <time>2023-05-19T07:13:10Z</time>
      </trkpt>
      <trkpt lat="44.63965" lon="5.84701">
        <ele>1244.6</ele>
        <time>2023-05-19T07:13:11Z</time>
      </trkpt>
      <trkpt lat="44.63964" lon="5.84699">
        <ele>1244.4</ele>
        <time>2023-05-19T07:13:12Z</time>
      </trkpt>
      <trkpt lat="44.63963" lon="5.84697">
        <ele>1244.4</ele>
        <time>2023-05-19T07:13:13Z</time>
      </trkpt>
      <trkpt lat="44.63964" lon="5.84694">
        <ele>1244.2</ele>
        <time>2023-05-19T07:13:14Z</time>
      </trkpt>
      <trkpt lat="44.63964" lon="5.84692">
        <ele>1244</ele>
        <time>2023-05-19T07:13:15Z</time>
      </trkpt>
      <trkpt lat="44.63964" lon="5.84691">
        <ele>1244</ele>
        <time>2023-05-19T07:13:16Z</time>
      </trkpt>
      <trkpt lat="44.63964" lon="5.8469">
        <ele>1243.8</ele>
        <time>2023-05-19T07:13:17Z</time>
      </trkpt>
      <trkpt lat="44.63964" lon="5.84689">
        <ele>1243.6</ele>
        <time>2023-05-19T07:13:18Z</time>
      </trkpt>
      <trkpt lat="44.63965" lon="5.84689">
        <ele>1243.4</ele>
        <time>2023-05-19T07:13:19Z</time>
      </trkpt>
      <trkpt lat="44.63966" lon="5.84689">
        <ele>1243.2</ele>
        <time>2023-05-19T07:13:20Z</time>
      </trkpt>
      <trkpt lat="44.63966" lon="5.8469">
        <ele>1243</ele>
        <time>2023-05-19T07:13:21Z</time>
      </trkpt>
      <trkpt lat="44.63967" lon="5.8469">
        <ele>1242.8</ele>
        <time>2023-05-19T07:13:22Z</time>
      </trkpt>
      <trkpt lat="44.63966" lon="5.84692">
        <ele>1242.6</ele>
        <time>2023-05-19T07:13:23Z</time>
      </trkpt>
      <trkpt lat="44.63966" lon="5.84693">
        <ele>1242.4</ele>
        <time>2023-05-19T07:13:24Z</time>
      </trkpt>
      <trkpt lat="44.63966" lon="5.84694">
        <ele>1242.2</ele>
        <time>2023-05-19T07:13:25Z</time>
      </trkpt>
      <trkpt lat="44.63966" lon="5.84695">
        <ele>1241.8</ele>
        <time>2023-05-19T07:13:29Z</time>
      </trkpt>
      <trkpt lat="44.63965" lon="5.84695">
        <ele>1241.8</ele>
        <time>2023-05-19T07:13:30Z</time>
      </trkpt>
      <trkpt lat="44.63964" lon="5.84697">
        <ele>1241.8</ele>
        <time>2023-05-19T07:13:31Z</time>
      </trkpt>
      <trkpt lat="44.63963" lon="5.84704">
        <ele>1241.6</ele>
        <time>2023-05-19T07:13:34Z</time>
      </trkpt>
      <trkpt lat="44.63964" lon="5.8471">
        <ele>1241.4</ele>
        <time>2023-05-19T07:13:36Z</time>
      </trkpt>
      <trkpt lat="44.63963" lon="5.84716">
        <ele>1241.4</ele>
        <time>2023-05-19T07:13:38Z</time>
      </trkpt>
      <trkpt lat="44.63961" lon="5.84718">
        <ele>1241.4</ele>
        <time>2023-05-19T07:13:39Z</time>
      </trkpt>
      <trkpt lat="44.63953" lon="5.84721">
        <ele>1241.6</ele>
        <time>2023-05-19T07:13:42Z</time>
      </trkpt>
      <trkpt lat="44.63951" lon="5.84721">
        <ele>1241.6</ele>
        <time>2023-05-19T07:13:43Z</time>
      </trkpt>
      <trkpt lat="44.6394" lon="5.84726">
        <ele>1242.6</ele>
        <time>2023-05-19T07:13:48Z</time>
      </trkpt>
      <trkpt lat="44.63938" lon="5.84727">
        <ele>1242.6</ele>
        <time>2023-05-19T07:13:49Z</time>
      </trkpt>
      <trkpt lat="44.63936" lon="5.84727">
        <ele>1243</ele>
        <time>2023-05-19T07:13:50Z</time>
      </trkpt>
      <trkpt lat="44.63936" lon="5.84727">
        <ele>1243.6</ele>
        <time>2023-05-19T07:13:51Z</time>
      </trkpt>
      <trkpt lat="44.63935" lon="5.84728">
        <ele>1243.8</ele>
        <time>2023-05-19T07:13:52Z</time>
      </trkpt>
      <trkpt lat="44.63935" lon="5.84728">
        <ele>1244.4</ele>
        <time>2023-05-19T07:13:53Z</time>
      </trkpt>
      <trkpt lat="44.63936" lon="5.84729">
        <ele>1245.2</ele>
        <time>2023-05-19T07:14:02Z</time>
      </trkpt>
      <trkpt lat="44.63936" lon="5.84728">
        <ele>1245.2</ele>
        <time>2023-05-19T07:14:03Z</time>
      </trkpt>
      <trkpt lat="44.63937" lon="5.84728">
        <ele>1245.2</ele>
        <time>2023-05-19T07:14:04Z</time>
      </trkpt>
      <trkpt lat="44.6394" lon="5.84727">
        <ele>1245.2</ele>
        <time>2023-05-19T07:14:05Z</time>
      </trkpt>
      <trkpt lat="44.63942" lon="5.84726">
        <ele>1245.2</ele>
        <time>2023-05-19T07:14:06Z</time>
      </trkpt>
      <trkpt lat="44.63945" lon="5.84725">
        <ele>1245.2</ele>
        <time>2023-05-19T07:14:07Z</time>
      </trkpt>
      <trkpt lat="44.63948" lon="5.84724">
        <ele>1245.2</ele>
        <time>2023-05-19T07:14:08Z</time>
      </trkpt>
      <trkpt lat="44.63952" lon="5.84724">
        <ele>1245.2</ele>
        <time>2023-05-19T07:14:09Z</time>
      </trkpt>
      <trkpt lat="44.63955" lon="5.84723">
        <ele>1245.2</ele>
        <time>2023-05-19T07:14:10Z</time>
      </trkpt>
      <trkpt lat="44.63959" lon="5.84722">
        <ele>1245.2</ele>
        <time>2023-05-19T07:14:11Z</time>
      </trkpt>
      <trkpt lat="44.63962" lon="5.84719">
        <ele>1245.2</ele>
        <time>2023-05-19T07:14:12Z</time>
      </trkpt>
      <trkpt lat="44.63964" lon="5.84715">
        <ele>1245.2</ele>
        <time>2023-05-19T07:14:13Z</time>
      </trkpt>
      <trkpt lat="44.63965" lon="5.8471">
        <ele>1245.2</ele>
        <time>2023-05-19T07:14:14Z</time>
      </trkpt>
      <trkpt lat="44.63965" lon="5.84705">
        <ele>1245</ele>
        <time>2023-05-19T07:14:15Z</time>
      </trkpt>
      <trkpt lat="44.63959" lon="5.84699">
        <ele>1244.8</ele>
        <time>2023-05-19T07:14:17Z</time>
      </trkpt>
      <trkpt lat="44.63951" lon="5.84699">
        <ele>1244.2</ele>
        <time>2023-05-19T07:14:19Z</time>
      </trkpt>
      <trkpt lat="44.63949" lon="5.847">
        <ele>1243.8</ele>
        <time>2023-05-19T07:14:20Z</time>
      </trkpt>
      <trkpt lat="44.63946" lon="5.84702">
        <ele>1243.6</ele>
        <time>2023-05-19T07:14:21Z</time>
      </trkpt>
      <trkpt lat="44.63943" lon="5.84703">
        <ele>1243</ele>
        <time>2023-05-19T07:14:22Z</time>
      </trkpt>
      <trkpt lat="44.63941" lon="5.84704">
        <ele>1242.8</ele>
        <time>2023-05-19T07:14:23Z</time>
      </trkpt>
      <trkpt lat="44.63938" lon="5.84706">
        <ele>1242.2</ele>
        <time>2023-05-19T07:14:24Z</time>
      </trkpt>
      <trkpt lat="44.63935" lon="5.84707">
        <ele>1241.8</ele>
        <time>2023-05-19T07:14:25Z</time>
      </trkpt>
      <trkpt lat="44.63926" lon="5.84712">
        <ele>1241</ele>
        <time>2023-05-19T07:14:28Z</time>
      </trkpt>
      <trkpt lat="44.63923" lon="5.84713">
        <ele>1240.6</ele>
        <time>2023-05-19T07:14:29Z</time>
      </trkpt>
      <trkpt lat="44.63921" lon="5.84715">
        <ele>1240.6</ele>
        <time>2023-05-19T07:14:30Z</time>
      </trkpt>
      <trkpt lat="44.63915" lon="5.84719">
        <ele>1240.2</ele>
        <time>2023-05-19T07:14:32Z</time>
      </trkpt>
      <trkpt lat="44.63913" lon="5.8472">
        <ele>1239.8</ele>
        <time>2023-05-19T07:14:33Z</time>
      </trkpt>
      <trkpt lat="44.63912" lon="5.84721">
        <ele>1239.6</ele>
        <time>2023-05-19T07:14:34Z</time>
      </trkpt>
      <trkpt lat="44.63911" lon="5.84721">
        <ele>1239.4</ele>
        <time>2023-05-19T07:14:35Z</time>
      </trkpt>
      <trkpt lat="44.6391" lon="5.84722">
        <ele>1239.2</ele>
        <time>2023-05-19T07:14:36Z</time>
      </trkpt>
      <trkpt lat="44.63909" lon="5.84722">
        <ele>1239.2</ele>
        <time>2023-05-19T07:14:37Z</time>
      </trkpt>
      <trkpt lat="44.63909" lon="5.84723">
        <ele>1239.2</ele>
        <time>2023-05-19T07:14:39Z</time>
      </trkpt>
      <trkpt lat="44.63909" lon="5.84723">
        <ele>1238.4</ele>
        <time>2023-05-19T07:14:43Z</time>
      </trkpt>
      <trkpt lat="44.63907" lon="5.84723">
        <ele>1238</ele>
        <time>2023-05-19T07:14:48Z</time>
      </trkpt>
      <trkpt lat="44.63905" lon="5.84724">
        <ele>1238</ele>
        <time>2023-05-19T07:14:50Z</time>
      </trkpt>
      <trkpt lat="44.63903" lon="5.84725">
        <ele>1238</ele>
        <time>2023-05-19T07:14:51Z</time>
      </trkpt>
      <trkpt lat="44.63892" lon="5.84725">
        <ele>1237.8</ele>
        <time>2023-05-19T07:14:55Z</time>
      </trkpt>
      <trkpt lat="44.63888" lon="5.84725">
        <ele>1237.8</ele>
        <time>2023-05-19T07:14:56Z</time>
      </trkpt>
      <trkpt lat="44.63873" lon="5.84729">
        <ele>1237.6</ele>
        <time>2023-05-19T07:15:00Z</time>
      </trkpt>
      <trkpt lat="44.63866" lon="5.84734">
        <ele>1237.2</ele>
        <time>2023-05-19T07:15:02Z</time>
      </trkpt>
      <trkpt lat="44.63851" lon="5.84747">
        <ele>1236.6</ele>
        <time>2023-05-19T07:15:06Z</time>
      </trkpt>
      <trkpt lat="44.63848" lon="5.8475">
        <ele>1236.2</ele>
        <time>2023-05-19T07:15:07Z</time>
      </trkpt>
      <trkpt lat="44.63845" lon="5.84754">
        <ele>1236</ele>
        <time>2023-05-19T07:15:08Z</time>
      </trkpt>
      <trkpt lat="44.63843" lon="5.84758">
        <ele>1235.4</ele>
        <time>2023-05-19T07:15:09Z</time>
      </trkpt>
      <trkpt lat="44.63843" lon="5.84767">
        <ele>1235.2</ele>
        <time>2023-05-19T07:15:10Z</time>
      </trkpt>
      <trkpt lat="44.63844" lon="5.84777">
        <ele>1234.8</ele>
        <time>2023-05-19T07:15:11Z</time>
      </trkpt>
      <trkpt lat="44.63847" lon="5.84785">
        <ele>1234.4</ele>
        <time>2023-05-19T07:15:12Z</time>
      </trkpt>
      <trkpt lat="44.6385" lon="5.84791">
        <ele>1234</ele>
        <time>2023-05-19T07:15:13Z</time>
      </trkpt>
      <trkpt lat="44.63853" lon="5.84797">
        <ele>1233.4</ele>
        <time>2023-05-19T07:15:14Z</time>
      </trkpt>
      <trkpt lat="44.63854" lon="5.84801">
        <ele>1233</ele>
        <time>2023-05-19T07:15:15Z</time>
      </trkpt>
      <trkpt lat="44.63855" lon="5.84805">
        <ele>1232.6</ele>
        <time>2023-05-19T07:15:16Z</time>
      </trkpt>
      <trkpt lat="44.63856" lon="5.84808">
        <ele>1232.4</ele>
        <time>2023-05-19T07:15:17Z</time>
      </trkpt>
      <trkpt lat="44.63857" lon="5.8481">
        <ele>1232.2</ele>
        <time>2023-05-19T07:15:18Z</time>
      </trkpt>
      <trkpt lat="44.63858" lon="5.84812">
        <ele>1232</ele>
        <time>2023-05-19T07:15:19Z</time>
      </trkpt>
      <trkpt lat="44.63858" lon="5.84814">
        <ele>1232</ele>
        <time>2023-05-19T07:15:20Z</time>
      </trkpt>
      <trkpt lat="44.63859" lon="5.84819">
        <ele>1231.8</ele>
        <time>2023-05-19T07:15:21Z</time>
      </trkpt>
      <trkpt lat="44.63859" lon="5.84821">
        <ele>1231.8</ele>
        <time>2023-05-19T07:15:22Z</time>
      </trkpt>
      <trkpt lat="44.6386" lon="5.84823">
        <ele>1231.8</ele>
        <time>2023-05-19T07:15:23Z</time>
      </trkpt>
      <trkpt lat="44.63861" lon="5.84824">
        <ele>1231.8</ele>
        <time>2023-05-19T07:15:24Z</time>
      </trkpt>
      <trkpt lat="44.63861" lon="5.84826">
        <ele>1231.8</ele>
        <time>2023-05-19T07:15:25Z</time>
      </trkpt>
      <trkpt lat="44.63862" lon="5.84828">
        <ele>1232</ele>
        <time>2023-05-19T07:15:26Z</time>
      </trkpt>
      <trkpt lat="44.63862" lon="5.8483">
        <ele>1232.2</ele>
        <time>2023-05-19T07:15:27Z</time>
      </trkpt>
      <trkpt lat="44.63863" lon="5.84832">
        <ele>1232.2</ele>
        <time>2023-05-19T07:15:28Z</time>
      </trkpt>
      <trkpt lat="44.63864" lon="5.84835">
        <ele>1232.2</ele>
        <time>2023-05-19T07:15:29Z</time>
      </trkpt>
      <trkpt lat="44.63864" lon="5.84837">
        <ele>1232.2</ele>
        <time>2023-05-19T07:15:30Z</time>
      </trkpt>
      <trkpt lat="44.63865" lon="5.84839">
        <ele>1232.2</ele>
        <time>2023-05-19T07:15:31Z</time>
      </trkpt>
      <trkpt lat="44.63865" lon="5.84839">
        <ele>1232.4</ele>
        <time>2023-05-19T07:15:32Z</time>
      </trkpt>
      <trkpt lat="44.63865" lon="5.84842">
        <ele>1232.4</ele>
        <time>2023-05-19T07:15:33Z</time>
      </trkpt>
      <trkpt lat="44.63867" lon="5.8485">
        <ele>1232.6</ele>
        <time>2023-05-19T07:15:37Z</time>
      </trkpt>
      <trkpt lat="44.63867" lon="5.84852">
        <ele>1232.8</ele>
        <time>2023-05-19T07:15:38Z</time>
      </trkpt>
      <trkpt lat="44.63868" lon="5.84854">
        <ele>1233</ele>
        <time>2023-05-19T07:15:39Z</time>
      </trkpt>
      <trkpt lat="44.63868" lon="5.84855">
        <ele>1233.2</ele>
        <time>2023-05-19T07:15:40Z</time>
      </trkpt>
      <trkpt lat="44.63868" lon="5.84855">
        <ele>1233.2</ele>
        <time>2023-05-19T07:15:41Z</time>
      </trkpt>
      <trkpt lat="44.6387" lon="5.84861">
        <ele>1233.4</ele>
        <time>2023-05-19T07:15:44Z</time>
      </trkpt>
      <trkpt lat="44.63871" lon="5.84861">
        <ele>1233.4</ele>
        <time>2023-05-19T07:15:45Z</time>
      </trkpt>
      <trkpt lat="44.63871" lon="5.84861">
        <ele>1233.4</ele>
        <time>2023-05-19T07:16:06Z</time>
      </trkpt>
      <trkpt lat="44.63871" lon="5.84861">
        <ele>1233.6</ele>
        <time>2023-05-19T07:16:13Z</time>
      </trkpt>
      <trkpt lat="44.63871" lon="5.84863">
        <ele>1233.8</ele>
        <time>2023-05-19T07:16:15Z</time>
      </trkpt>
      <trkpt lat="44.63871" lon="5.84864">
        <ele>1233.8</ele>
        <time>2023-05-19T07:16:16Z</time>
      </trkpt>
      <trkpt lat="44.63871" lon="5.84864">
        <ele>1233.8</ele>
        <time>2023-05-19T07:16:17Z</time>
      </trkpt>
      <trkpt lat="44.63871" lon="5.84864">
        <ele>1234</ele>
        <time>2023-05-19T07:16:20Z</time>
      </trkpt>
      <trkpt lat="44.63871" lon="5.84865">
        <ele>1233.4</ele>
        <time>2023-05-19T07:16:35Z</time>
      </trkpt>
      <trkpt lat="44.6387" lon="5.84867">
        <ele>1232.6</ele>
        <time>2023-05-19T07:17:15Z</time>
      </trkpt>
      <trkpt lat="44.63871" lon="5.84869">
        <ele>1233</ele>
        <time>2023-05-19T07:18:01Z</time>
      </trkpt>
      <trkpt lat="44.63871" lon="5.84869">
        <ele>1232.6</ele>
        <time>2023-05-19T07:18:14Z</time>
      </trkpt>
      <trkpt lat="44.63871" lon="5.84869">
        <ele>1232.6</ele>
        <time>2023-05-19T07:18:31Z</time>
      </trkpt>
      <trkpt lat="44.63876" lon="5.84872">
        <ele>1232.8</ele>
        <time>2023-05-19T07:18:34Z</time>
      </trkpt>
      <trkpt lat="44.63882" lon="5.84877">
        <ele>1232.8</ele>
        <time>2023-05-19T07:18:38Z</time>
      </trkpt>
      <trkpt lat="44.63884" lon="5.84878">
        <ele>1232.8</ele>
        <time>2023-05-19T07:18:39Z</time>
      </trkpt>
      <trkpt lat="44.63887" lon="5.84881">
        <ele>1232.8</ele>
        <time>2023-05-19T07:18:41Z</time>
      </trkpt>
      <trkpt lat="44.63892" lon="5.84891">
        <ele>1232.8</ele>
        <time>2023-05-19T07:18:46Z</time>
      </trkpt>
      <trkpt lat="44.63891" lon="5.84897">
        <ele>1232.8</ele>
        <time>2023-05-19T07:18:48Z</time>
      </trkpt>
      <trkpt lat="44.6389" lon="5.849">
        <ele>1232.8</ele>
        <time>2023-05-19T07:18:49Z</time>
      </trkpt>
      <trkpt lat="44.63887" lon="5.84905">
        <ele>1232.8</ele>
        <time>2023-05-19T07:18:51Z</time>
      </trkpt>
      <trkpt lat="44.63885" lon="5.84907">
        <ele>1232.8</ele>
        <time>2023-05-19T07:18:52Z</time>
      </trkpt>
      <trkpt lat="44.63883" lon="5.84908">
        <ele>1233</ele>
        <time>2023-05-19T07:18:53Z</time>
      </trkpt>
      <trkpt lat="44.6388" lon="5.8491">
        <ele>1233</ele>
        <time>2023-05-19T07:18:54Z</time>
      </trkpt>
      <trkpt lat="44.63878" lon="5.84911">
        <ele>1233</ele>
        <time>2023-05-19T07:18:55Z</time>
      </trkpt>
      <trkpt lat="44.63872" lon="5.84913">
        <ele>1233.2</ele>
        <time>2023-05-19T07:18:58Z</time>
      </trkpt>
      <trkpt lat="44.63868" lon="5.84913">
        <ele>1233.6</ele>
        <time>2023-05-19T07:19:00Z</time>
      </trkpt>
      <trkpt lat="44.63866" lon="5.84913">
        <ele>1233.8</ele>
        <time>2023-05-19T07:19:01Z</time>
      </trkpt>
      <trkpt lat="44.63864" lon="5.84913">
        <ele>1234</ele>
        <time>2023-05-19T07:19:02Z</time>
      </trkpt>
      <trkpt lat="44.63861" lon="5.84914">
        <ele>1234.4</ele>
        <time>2023-05-19T07:19:04Z</time>
      </trkpt>
      <trkpt lat="44.63859" lon="5.84914">
        <ele>1234.6</ele>
        <time>2023-05-19T07:19:05Z</time>
      </trkpt>
      <trkpt lat="44.63857" lon="5.84914">
        <ele>1235.2</ele>
        <time>2023-05-19T07:19:06Z</time>
      </trkpt>
      <trkpt lat="44.63855" lon="5.84914">
        <ele>1235.4</ele>
        <time>2023-05-19T07:19:07Z</time>
      </trkpt>
      <trkpt lat="44.63852" lon="5.84915">
        <ele>1235.6</ele>
        <time>2023-05-19T07:19:08Z</time>
      </trkpt>
      <trkpt lat="44.63848" lon="5.84916">
        <ele>1236.2</ele>
        <time>2023-05-19T07:19:10Z</time>
      </trkpt>
      <trkpt lat="44.63845" lon="5.84917">
        <ele>1236.6</ele>
        <time>2023-05-19T07:19:12Z</time>
      </trkpt>
      <trkpt lat="44.63843" lon="5.84918">
        <ele>1237</ele>
        <time>2023-05-19T07:19:13Z</time>
      </trkpt>
      <trkpt lat="44.63841" lon="5.84919">
        <ele>1237.2</ele>
        <time>2023-05-19T07:19:14Z</time>
      </trkpt>
      <trkpt lat="44.63838" lon="5.84921">
        <ele>1237.4</ele>
        <time>2023-05-19T07:19:15Z</time>
      </trkpt>
      <trkpt lat="44.63836" lon="5.84922">
        <ele>1237.6</ele>
        <time>2023-05-19T07:19:16Z</time>
      </trkpt>
      <trkpt lat="44.63833" lon="5.84923">
        <ele>1237.6</ele>
        <time>2023-05-19T07:19:17Z</time>
      </trkpt>
      <trkpt lat="44.6383" lon="5.84925">
        <ele>1237.6</ele>
        <time>2023-05-19T07:19:18Z</time>
      </trkpt>
      <trkpt lat="44.63826" lon="5.84927">
        <ele>1237.6</ele>
        <time>2023-05-19T07:19:19Z</time>
      </trkpt>
      <trkpt lat="44.63822" lon="5.84928">
        <ele>1237.6</ele>
        <time>2023-05-19T07:19:20Z</time>
      </trkpt>
      <trkpt lat="44.63819" lon="5.84929">
        <ele>1237.6</ele>
        <time>2023-05-19T07:19:21Z</time>
      </trkpt>
      <trkpt lat="44.63815" lon="5.84931">
        <ele>1237.6</ele>
        <time>2023-05-19T07:19:22Z</time>
      </trkpt>
      <trkpt lat="44.63812" lon="5.84935">
        <ele>1237.4</ele>
        <time>2023-05-19T07:19:23Z</time>
      </trkpt>
      <trkpt lat="44.63809" lon="5.84939">
        <ele>1237.2</ele>
        <time>2023-05-19T07:19:24Z</time>
      </trkpt>
      <trkpt lat="44.63806" lon="5.84945">
        <ele>1237.2</ele>
        <time>2023-05-19T07:19:25Z</time>
      </trkpt>
      <trkpt lat="44.63804" lon="5.84951">
        <ele>1236.6</ele>
        <time>2023-05-19T07:19:26Z</time>
      </trkpt>
      <trkpt lat="44.63802" lon="5.84958">
        <ele>1236.4</ele>
        <time>2023-05-19T07:19:27Z</time>
      </trkpt>
      <trkpt lat="44.63802" lon="5.84963">
        <ele>1236</ele>
        <time>2023-05-19T07:19:28Z</time>
      </trkpt>
      <trkpt lat="44.63802" lon="5.84966">
        <ele>1235.8</ele>
        <time>2023-05-19T07:19:29Z</time>
      </trkpt>
      <trkpt lat="44.63802" lon="5.84968">
        <ele>1235.4</ele>
        <time>2023-05-19T07:19:30Z</time>
      </trkpt>
      <trkpt lat="44.63802" lon="5.8497">
        <ele>1235.2</ele>
        <time>2023-05-19T07:19:31Z</time>
      </trkpt>
      <trkpt lat="44.63802" lon="5.84972">
        <ele>1235</ele>
        <time>2023-05-19T07:19:32Z</time>
      </trkpt>
      <trkpt lat="44.63802" lon="5.84974">
        <ele>1235</ele>
        <time>2023-05-19T07:19:33Z</time>
      </trkpt>
      <trkpt lat="44.63802" lon="5.84976">
        <ele>1235</ele>
        <time>2023-05-19T07:19:34Z</time>
      </trkpt>
      <trkpt lat="44.63801" lon="5.8498">
        <ele>1235</ele>
        <time>2023-05-19T07:19:36Z</time>
      </trkpt>
      <trkpt lat="44.638" lon="5.84981">
        <ele>1235</ele>
        <time>2023-05-19T07:19:37Z</time>
      </trkpt>
      <trkpt lat="44.638" lon="5.84983">
        <ele>1235</ele>
        <time>2023-05-19T07:19:38Z</time>
      </trkpt>
      <trkpt lat="44.63799" lon="5.84985">
        <ele>1235.4</ele>
        <time>2023-05-19T07:19:39Z</time>
      </trkpt>
      <trkpt lat="44.63798" lon="5.84987">
        <ele>1235.8</ele>
        <time>2023-05-19T07:19:40Z</time>
      </trkpt>
      <trkpt lat="44.63798" lon="5.84989">
        <ele>1235.8</ele>
        <time>2023-05-19T07:19:41Z</time>
      </trkpt>
      <trkpt lat="44.63797" lon="5.84994">
        <ele>1236.6</ele>
        <time>2023-05-19T07:19:44Z</time>
      </trkpt>
      <trkpt lat="44.63796" lon="5.84998">
        <ele>1236.8</ele>
        <time>2023-05-19T07:19:46Z</time>
      </trkpt>
      <trkpt lat="44.63795" lon="5.85002">
        <ele>1237.2</ele>
        <time>2023-05-19T07:19:48Z</time>
      </trkpt>
      <trkpt lat="44.63795" lon="5.85004">
        <ele>1237.6</ele>
        <time>2023-05-19T07:19:49Z</time>
      </trkpt>
      <trkpt lat="44.63795" lon="5.85006">
        <ele>1237.8</ele>
        <time>2023-05-19T07:19:50Z</time>
      </trkpt>
      <trkpt lat="44.63794" lon="5.85009">
        <ele>1238</ele>
        <time>2023-05-19T07:19:52Z</time>
      </trkpt>
      <trkpt lat="44.63793" lon="5.85011">
        <ele>1238.4</ele>
        <time>2023-05-19T07:19:53Z</time>
      </trkpt>
      <trkpt lat="44.63793" lon="5.85012">
        <ele>1238.6</ele>
        <time>2023-05-19T07:19:54Z</time>
      </trkpt>
      <trkpt lat="44.63793" lon="5.85014">
        <ele>1239</ele>
        <time>2023-05-19T07:19:55Z</time>
      </trkpt>
      <trkpt lat="44.63791" lon="5.85018">
        <ele>1239.6</ele>
        <time>2023-05-19T07:19:57Z</time>
      </trkpt>
      <trkpt lat="44.63791" lon="5.8502">
        <ele>1239.8</ele>
        <time>2023-05-19T07:19:58Z</time>
      </trkpt>
      <trkpt lat="44.6379" lon="5.85022">
        <ele>1240</ele>
        <time>2023-05-19T07:19:59Z</time>
      </trkpt>
      <trkpt lat="44.6379" lon="5.85024">
        <ele>1240.2</ele>
        <time>2023-05-19T07:20:00Z</time>
      </trkpt>
      <trkpt lat="44.6379" lon="5.85026">
        <ele>1240.2</ele>
        <time>2023-05-19T07:20:01Z</time>
      </trkpt>
      <trkpt lat="44.6379" lon="5.85028">
        <ele>1240.4</ele>
        <time>2023-05-19T07:20:02Z</time>
      </trkpt>
      <trkpt lat="44.63789" lon="5.8503">
        <ele>1240.4</ele>
        <time>2023-05-19T07:20:03Z</time>
      </trkpt>
      <trkpt lat="44.63789" lon="5.85032">
        <ele>1240.6</ele>
        <time>2023-05-19T07:20:04Z</time>
      </trkpt>
      <trkpt lat="44.63788" lon="5.85034">
        <ele>1240.6</ele>
        <time>2023-05-19T07:20:05Z</time>
      </trkpt>
      <trkpt lat="44.63788" lon="5.85036">
        <ele>1240.8</ele>
        <time>2023-05-19T07:20:06Z</time>
      </trkpt>
      <trkpt lat="44.63787" lon="5.85038">
        <ele>1241.2</ele>
        <time>2023-05-19T07:20:07Z</time>
      </trkpt>
      <trkpt lat="44.63786" lon="5.8504">
        <ele>1241.2</ele>
        <time>2023-05-19T07:20:08Z</time>
      </trkpt>
      <trkpt lat="44.63785" lon="5.85042">
        <ele>1241.6</ele>
        <time>2023-05-19T07:20:09Z</time>
      </trkpt>
      <trkpt lat="44.63785" lon="5.85044">
        <ele>1241.6</ele>
        <time>2023-05-19T07:20:10Z</time>
      </trkpt>
      <trkpt lat="44.63784" lon="5.85046">
        <ele>1241.8</ele>
        <time>2023-05-19T07:20:11Z</time>
      </trkpt>
      <trkpt lat="44.63783" lon="5.85048">
        <ele>1241.8</ele>
        <time>2023-05-19T07:20:12Z</time>
      </trkpt>
      <trkpt lat="44.63782" lon="5.8505">
        <ele>1241.8</ele>
        <time>2023-05-19T07:20:13Z</time>
      </trkpt>
      <trkpt lat="44.63781" lon="5.85051">
        <ele>1242</ele>
        <time>2023-05-19T07:20:14Z</time>
      </trkpt>
      <trkpt lat="44.6378" lon="5.85053">
        <ele>1242.4</ele>
        <time>2023-05-19T07:20:15Z</time>
      </trkpt>
      <trkpt lat="44.63779" lon="5.85055">
        <ele>1242.4</ele>
        <time>2023-05-19T07:20:16Z</time>
      </trkpt>
      <trkpt lat="44.63779" lon="5.85057">
        <ele>1242.6</ele>
        <time>2023-05-19T07:20:17Z</time>
      </trkpt>
      <trkpt lat="44.63778" lon="5.85058">
        <ele>1243</ele>
        <time>2023-05-19T07:20:18Z</time>
      </trkpt>
      <trkpt lat="44.63777" lon="5.8506">
        <ele>1243</ele>
        <time>2023-05-19T07:20:19Z</time>
      </trkpt>
      <trkpt lat="44.63776" lon="5.85061">
        <ele>1243.2</ele>
        <time>2023-05-19T07:20:20Z</time>
      </trkpt>
      <trkpt lat="44.63776" lon="5.85062">
        <ele>1243.4</ele>
        <time>2023-05-19T07:20:21Z</time>
      </trkpt>
      <trkpt lat="44.63775" lon="5.85064">
        <ele>1243.6</ele>
        <time>2023-05-19T07:20:22Z</time>
      </trkpt>
      <trkpt lat="44.63775" lon="5.85066">
        <ele>1243.6</ele>
        <time>2023-05-19T07:20:23Z</time>
      </trkpt>
      <trkpt lat="44.63774" lon="5.85068">
        <ele>1243.8</ele>
        <time>2023-05-19T07:20:24Z</time>
      </trkpt>
      <trkpt lat="44.63774" lon="5.8507">
        <ele>1243.8</ele>
        <time>2023-05-19T07:20:25Z</time>
      </trkpt>
      <trkpt lat="44.63773" lon="5.85072">
        <ele>1243.8</ele>
        <time>2023-05-19T07:20:26Z</time>
      </trkpt>
      <trkpt lat="44.63773" lon="5.85074">
        <ele>1244</ele>
        <time>2023-05-19T07:20:27Z</time>
      </trkpt>
      <trkpt lat="44.63772" lon="5.85077">
        <ele>1244.2</ele>
        <time>2023-05-19T07:20:28Z</time>
      </trkpt>
      <trkpt lat="44.63771" lon="5.8508">
        <ele>1244.4</ele>
        <time>2023-05-19T07:20:29Z</time>
      </trkpt>
      <trkpt lat="44.63771" lon="5.85082">
        <ele>1244.4</ele>
        <time>2023-05-19T07:20:30Z</time>
      </trkpt>
      <trkpt lat="44.6377" lon="5.85085">
        <ele>1244.6</ele>
        <time>2023-05-19T07:20:31Z</time>
      </trkpt>
      <trkpt lat="44.63769" lon="5.85087">
        <ele>1244.8</ele>
        <time>2023-05-19T07:20:32Z</time>
      </trkpt>
      <trkpt lat="44.63768" lon="5.8509">
        <ele>1245</ele>
        <time>2023-05-19T07:20:33Z</time>
      </trkpt>
      <trkpt lat="44.63767" lon="5.85092">
        <ele>1245</ele>
        <time>2023-05-19T07:20:34Z</time>
      </trkpt>
      <trkpt lat="44.63766" lon="5.85093">
        <ele>1245</ele>
        <time>2023-05-19T07:20:35Z</time>
      </trkpt>
      <trkpt lat="44.63765" lon="5.85095">
        <ele>1245.2</ele>
        <time>2023-05-19T07:20:36Z</time>
      </trkpt>
      <trkpt lat="44.63764" lon="5.85097">
        <ele>1245.2</ele>
        <time>2023-05-19T07:20:37Z</time>
      </trkpt>
      <trkpt lat="44.63764" lon="5.85098">
        <ele>1245.4</ele>
        <time>2023-05-19T07:20:38Z</time>
      </trkpt>
      <trkpt lat="44.63763" lon="5.851">
        <ele>1245.4</ele>
        <time>2023-05-19T07:20:39Z</time>
      </trkpt>
      <trkpt lat="44.63762" lon="5.85101">
        <ele>1245.6</ele>
        <time>2023-05-19T07:20:40Z</time>
      </trkpt>
      <trkpt lat="44.63761" lon="5.85103">
        <ele>1245.8</ele>
        <time>2023-05-19T07:20:41Z</time>
      </trkpt>
      <trkpt lat="44.63761" lon="5.85104">
        <ele>1246</ele>
        <time>2023-05-19T07:20:42Z</time>
      </trkpt>
      <trkpt lat="44.6376" lon="5.85106">
        <ele>1246.2</ele>
        <time>2023-05-19T07:20:43Z</time>
      </trkpt>
      <trkpt lat="44.63759" lon="5.85109">
        <ele>1246.4</ele>
        <time>2023-05-19T07:20:44Z</time>
      </trkpt>
      <trkpt lat="44.63758" lon="5.85111">
        <ele>1246.6</ele>
        <time>2023-05-19T07:20:45Z</time>
      </trkpt>
      <trkpt lat="44.63757" lon="5.85114">
        <ele>1246.6</ele>
        <time>2023-05-19T07:20:46Z</time>
      </trkpt>
      <trkpt lat="44.63756" lon="5.85117">
        <ele>1246.8</ele>
        <time>2023-05-19T07:20:47Z</time>
      </trkpt>
      <trkpt lat="44.63754" lon="5.8512">
        <ele>1247</ele>
        <time>2023-05-19T07:20:48Z</time>
      </trkpt>
      <trkpt lat="44.63753" lon="5.85122">
        <ele>1247.2</ele>
        <time>2023-05-19T07:20:49Z</time>
      </trkpt>
      <trkpt lat="44.63752" lon="5.85124">
        <ele>1247.6</ele>
        <time>2023-05-19T07:20:50Z</time>
      </trkpt>
      <trkpt lat="44.63751" lon="5.85126">
        <ele>1247.6</ele>
        <time>2023-05-19T07:20:51Z</time>
      </trkpt>
      <trkpt lat="44.63749" lon="5.85129">
        <ele>1247.8</ele>
        <time>2023-05-19T07:20:52Z</time>
      </trkpt>
      <trkpt lat="44.63748" lon="5.8513">
        <ele>1248</ele>
        <time>2023-05-19T07:20:53Z</time>
      </trkpt>
      <trkpt lat="44.63746" lon="5.85132">
        <ele>1248.2</ele>
        <time>2023-05-19T07:20:54Z</time>
      </trkpt>
      <trkpt lat="44.63744" lon="5.85134">
        <ele>1248.4</ele>
        <time>2023-05-19T07:20:55Z</time>
      </trkpt>
      <trkpt lat="44.63743" lon="5.85136">
        <ele>1248.8</ele>
        <time>2023-05-19T07:20:56Z</time>
      </trkpt>
      <trkpt lat="44.63741" lon="5.85138">
        <ele>1249</ele>
        <time>2023-05-19T07:20:57Z</time>
      </trkpt>
      <trkpt lat="44.6374" lon="5.8514">
        <ele>1249</ele>
        <time>2023-05-19T07:20:58Z</time>
      </trkpt>
      <trkpt lat="44.63737" lon="5.85141">
        <ele>1249.2</ele>
        <time>2023-05-19T07:20:59Z</time>
      </trkpt>
      <trkpt lat="44.63735" lon="5.85141">
        <ele>1249.2</ele>
        <time>2023-05-19T07:21:00Z</time>
      </trkpt>
      <trkpt lat="44.63733" lon="5.85142">
        <ele>1249.2</ele>
        <time>2023-05-19T07:21:01Z</time>
      </trkpt>
      <trkpt lat="44.63731" lon="5.85143">
        <ele>1249.2</ele>
        <time>2023-05-19T07:21:02Z</time>
      </trkpt>
      <trkpt lat="44.63729" lon="5.85144">
        <ele>1249.2</ele>
        <time>2023-05-19T07:21:03Z</time>
      </trkpt>
      <trkpt lat="44.63727" lon="5.85146">
        <ele>1249.4</ele>
        <time>2023-05-19T07:21:04Z</time>
      </trkpt>
      <trkpt lat="44.63725" lon="5.85148">
        <ele>1249.4</ele>
        <time>2023-05-19T07:21:05Z</time>
      </trkpt>
      <trkpt lat="44.63723" lon="5.85149">
        <ele>1249.4</ele>
        <time>2023-05-19T07:21:06Z</time>
      </trkpt>
      <trkpt lat="44.63721" lon="5.85152">
        <ele>1249.4</ele>
        <time>2023-05-19T07:21:07Z</time>
      </trkpt>
      <trkpt lat="44.63719" lon="5.85154">
        <ele>1249.4</ele>
        <time>2023-05-19T07:21:08Z</time>
      </trkpt>
      <trkpt lat="44.63717" lon="5.85156">
        <ele>1249.4</ele>
        <time>2023-05-19T07:21:09Z</time>
      </trkpt>
      <trkpt lat="44.63716" lon="5.85158">
        <ele>1249.4</ele>
        <time>2023-05-19T07:21:10Z</time>
      </trkpt>
      <trkpt lat="44.63715" lon="5.85159">
        <ele>1249.4</ele>
        <time>2023-05-19T07:21:11Z</time>
      </trkpt>
      <trkpt lat="44.63713" lon="5.85162">
        <ele>1249.6</ele>
        <time>2023-05-19T07:21:12Z</time>
      </trkpt>
      <trkpt lat="44.63711" lon="5.85164">
        <ele>1249.4</ele>
        <time>2023-05-19T07:21:13Z</time>
      </trkpt>
      <trkpt lat="44.6371" lon="5.85167">
        <ele>1249.8</ele>
        <time>2023-05-19T07:21:14Z</time>
      </trkpt>
      <trkpt lat="44.63709" lon="5.85169">
        <ele>1249.6</ele>
        <time>2023-05-19T07:21:15Z</time>
      </trkpt>
      <trkpt lat="44.63707" lon="5.85171">
        <ele>1249.8</ele>
        <time>2023-05-19T07:21:16Z</time>
      </trkpt>
      <trkpt lat="44.63705" lon="5.85173">
        <ele>1249.8</ele>
        <time>2023-05-19T07:21:17Z</time>
      </trkpt>
      <trkpt lat="44.63704" lon="5.85174">
        <ele>1249.8</ele>
        <time>2023-05-19T07:21:18Z</time>
      </trkpt>
      <trkpt lat="44.63702" lon="5.85176">
        <ele>1250</ele>
        <time>2023-05-19T07:21:19Z</time>
      </trkpt>
      <trkpt lat="44.63701" lon="5.85177">
        <ele>1250</ele>
        <time>2023-05-19T07:21:20Z</time>
      </trkpt>
      <trkpt lat="44.63699" lon="5.85179">
        <ele>1250.2</ele>
        <time>2023-05-19T07:21:21Z</time>
      </trkpt>
      <trkpt lat="44.63698" lon="5.85181">
        <ele>1250.2</ele>
        <time>2023-05-19T07:21:22Z</time>
      </trkpt>
      <trkpt lat="44.63696" lon="5.85182">
        <ele>1250.4</ele>
        <time>2023-05-19T07:21:23Z</time>
      </trkpt>
      <trkpt lat="44.63696" lon="5.85183">
        <ele>1250.4</ele>
        <time>2023-05-19T07:21:24Z</time>
      </trkpt>
      <trkpt lat="44.63694" lon="5.85184">
        <ele>1250.6</ele>
        <time>2023-05-19T07:21:25Z</time>
      </trkpt>
      <trkpt lat="44.63692" lon="5.85185">
        <ele>1250.6</ele>
        <time>2023-05-19T07:21:26Z</time>
      </trkpt>
      <trkpt lat="44.63686" lon="5.8519">
        <ele>1251.2</ele>
        <time>2023-05-19T07:21:30Z</time>
      </trkpt>
      <trkpt lat="44.63682" lon="5.85195">
        <ele>1251.6</ele>
        <time>2023-05-19T07:21:33Z</time>
      </trkpt>
      <trkpt lat="44.63681" lon="5.85197">
        <ele>1251.8</ele>
        <time>2023-05-19T07:21:34Z</time>
      </trkpt>
      <trkpt lat="44.63679" lon="5.85198">
        <ele>1251.8</ele>
        <time>2023-05-19T07:21:35Z</time>
      </trkpt>
      <trkpt lat="44.63676" lon="5.85202">
        <ele>1252.2</ele>
        <time>2023-05-19T07:21:37Z</time>
      </trkpt>
      <trkpt lat="44.63674" lon="5.85203">
        <ele>1252.2</ele>
        <time>2023-05-19T07:21:38Z</time>
      </trkpt>
      <trkpt lat="44.63672" lon="5.85204">
        <ele>1252.2</ele>
        <time>2023-05-19T07:21:39Z</time>
      </trkpt>
      <trkpt lat="44.63666" lon="5.85208">
        <ele>1252.6</ele>
        <time>2023-05-19T07:21:42Z</time>
      </trkpt>
      <trkpt lat="44.63663" lon="5.85208">
        <ele>1252.8</ele>
        <time>2023-05-19T07:21:43Z</time>
      </trkpt>
      <trkpt lat="44.63661" lon="5.85209">
        <ele>1253</ele>
        <time>2023-05-19T07:21:44Z</time>
      </trkpt>
      <trkpt lat="44.63659" lon="5.8521">
        <ele>1253.2</ele>
        <time>2023-05-19T07:21:45Z</time>
      </trkpt>
      <trkpt lat="44.63657" lon="5.8521">
        <ele>1253.2</ele>
        <time>2023-05-19T07:21:46Z</time>
      </trkpt>
      <trkpt lat="44.63655" lon="5.85211">
        <ele>1253.4</ele>
        <time>2023-05-19T07:21:47Z</time>
      </trkpt>
      <trkpt lat="44.63654" lon="5.85213">
        <ele>1253.6</ele>
        <time>2023-05-19T07:21:48Z</time>
      </trkpt>
      <trkpt lat="44.63652" lon="5.85215">
        <ele>1253.8</ele>
        <time>2023-05-19T07:21:49Z</time>
      </trkpt>
      <trkpt lat="44.6365" lon="5.85217">
        <ele>1253.8</ele>
        <time>2023-05-19T07:21:50Z</time>
      </trkpt>
      <trkpt lat="44.63648" lon="5.85219">
        <ele>1254</ele>
        <time>2023-05-19T07:21:51Z</time>
      </trkpt>
      <trkpt lat="44.63646" lon="5.8522">
        <ele>1254</ele>
        <time>2023-05-19T07:21:52Z</time>
      </trkpt>
      <trkpt lat="44.63645" lon="5.85222">
        <ele>1254.2</ele>
        <time>2023-05-19T07:21:53Z</time>
      </trkpt>
      <trkpt lat="44.63643" lon="5.85223">
        <ele>1254.4</ele>
        <time>2023-05-19T07:21:54Z</time>
      </trkpt>
      <trkpt lat="44.63641" lon="5.85225">
        <ele>1254.6</ele>
        <time>2023-05-19T07:21:55Z</time>
      </trkpt>
      <trkpt lat="44.63639" lon="5.85226">
        <ele>1254.6</ele>
        <time>2023-05-19T07:21:56Z</time>
      </trkpt>
      <trkpt lat="44.63638" lon="5.85228">
        <ele>1254.8</ele>
        <time>2023-05-19T07:21:57Z</time>
      </trkpt>
      <trkpt lat="44.63636" lon="5.85229">
        <ele>1254.8</ele>
        <time>2023-05-19T07:21:58Z</time>
      </trkpt>
      <trkpt lat="44.63635" lon="5.85231">
        <ele>1254.8</ele>
        <time>2023-05-19T07:21:59Z</time>
      </trkpt>
      <trkpt lat="44.63633" lon="5.85233">
        <ele>1255</ele>
        <time>2023-05-19T07:22:00Z</time>
      </trkpt>
      <trkpt lat="44.63632" lon="5.85234">
        <ele>1255.2</ele>
        <time>2023-05-19T07:22:01Z</time>
      </trkpt>
      <trkpt lat="44.63631" lon="5.85236">
        <ele>1255.2</ele>
        <time>2023-05-19T07:22:02Z</time>
      </trkpt>
      <trkpt lat="44.6363" lon="5.85238">
        <ele>1255.4</ele>
        <time>2023-05-19T07:22:03Z</time>
      </trkpt>
      <trkpt lat="44.63628" lon="5.8524">
        <ele>1255.4</ele>
        <time>2023-05-19T07:22:04Z</time>
      </trkpt>
      <trkpt lat="44.63626" lon="5.85241">
        <ele>1255.4</ele>
        <time>2023-05-19T07:22:05Z</time>
      </trkpt>
      <trkpt lat="44.63625" lon="5.85242">
        <ele>1255.8</ele>
        <time>2023-05-19T07:22:06Z</time>
      </trkpt>
      <trkpt lat="44.63623" lon="5.85244">
        <ele>1256</ele>
        <time>2023-05-19T07:22:07Z</time>
      </trkpt>
      <trkpt lat="44.63622" lon="5.85246">
        <ele>1256.2</ele>
        <time>2023-05-19T07:22:08Z</time>
      </trkpt>
      <trkpt lat="44.63621" lon="5.85247">
        <ele>1256.2</ele>
        <time>2023-05-19T07:22:09Z</time>
      </trkpt>
      <trkpt lat="44.63619" lon="5.85249">
        <ele>1256.4</ele>
        <time>2023-05-19T07:22:10Z</time>
      </trkpt>
      <trkpt lat="44.63618" lon="5.8525">
        <ele>1256.6</ele>
        <time>2023-05-19T07:22:11Z</time>
      </trkpt>
      <trkpt lat="44.63616" lon="5.85251">
        <ele>1256.8</ele>
        <time>2023-05-19T07:22:12Z</time>
      </trkpt>
      <trkpt lat="44.63615" lon="5.85253">
        <ele>1256.8</ele>
        <time>2023-05-19T07:22:13Z</time>
      </trkpt>
      <trkpt lat="44.63614" lon="5.85254">
        <ele>1257</ele>
        <time>2023-05-19T07:22:14Z</time>
      </trkpt>
      <trkpt lat="44.63612" lon="5.85255">
        <ele>1257</ele>
        <time>2023-05-19T07:22:15Z</time>
      </trkpt>
      <trkpt lat="44.63611" lon="5.85257">
        <ele>1257.2</ele>
        <time>2023-05-19T07:22:16Z</time>
      </trkpt>
      <trkpt lat="44.63609" lon="5.85258">
        <ele>1257.4</ele>
        <time>2023-05-19T07:22:17Z</time>
      </trkpt>
      <trkpt lat="44.63608" lon="5.85259">
        <ele>1257.6</ele>
        <time>2023-05-19T07:22:18Z</time>
      </trkpt>
      <trkpt lat="44.63606" lon="5.8526">
        <ele>1258</ele>
        <time>2023-05-19T07:22:19Z</time>
      </trkpt>
      <trkpt lat="44.63604" lon="5.85262">
        <ele>1258.2</ele>
        <time>2023-05-19T07:22:20Z</time>
      </trkpt>
      <trkpt lat="44.63602" lon="5.85263">
        <ele>1258.4</ele>
        <time>2023-05-19T07:22:21Z</time>
      </trkpt>
      <trkpt lat="44.636" lon="5.85264">
        <ele>1258.6</ele>
        <time>2023-05-19T07:22:22Z</time>
      </trkpt>
      <trkpt lat="44.63598" lon="5.85264">
        <ele>1258.6</ele>
        <time>2023-05-19T07:22:23Z</time>
      </trkpt>
      <trkpt lat="44.63596" lon="5.85264">
        <ele>1259</ele>
        <time>2023-05-19T07:22:24Z</time>
      </trkpt>
      <trkpt lat="44.63594" lon="5.85264">
        <ele>1259.2</ele>
        <time>2023-05-19T07:22:25Z</time>
      </trkpt>
      <trkpt lat="44.63592" lon="5.85265">
        <ele>1259.6</ele>
        <time>2023-05-19T07:22:26Z</time>
      </trkpt>
      <trkpt lat="44.63591" lon="5.85265">
        <ele>1259.6</ele>
        <time>2023-05-19T07:22:27Z</time>
      </trkpt>
      <trkpt lat="44.63589" lon="5.85265">
        <ele>1259.8</ele>
        <time>2023-05-19T07:22:28Z</time>
      </trkpt>
      <trkpt lat="44.63587" lon="5.85264">
        <ele>1260</ele>
        <time>2023-05-19T07:22:29Z</time>
      </trkpt>
      <trkpt lat="44.63586" lon="5.85264">
        <ele>1260.2</ele>
        <time>2023-05-19T07:22:30Z</time>
      </trkpt>
      <trkpt lat="44.63584" lon="5.85264">
        <ele>1260.4</ele>
        <time>2023-05-19T07:22:31Z</time>
      </trkpt>
      <trkpt lat="44.63582" lon="5.85264">
        <ele>1260.4</ele>
        <time>2023-05-19T07:22:32Z</time>
      </trkpt>
      <trkpt lat="44.6358" lon="5.85264">
        <ele>1260.6</ele>
        <time>2023-05-19T07:22:33Z</time>
      </trkpt>
      <trkpt lat="44.63578" lon="5.85264">
        <ele>1260.8</ele>
        <time>2023-05-19T07:22:34Z</time>
      </trkpt>
      <trkpt lat="44.63576" lon="5.85264">
        <ele>1260.8</ele>
        <time>2023-05-19T07:22:35Z</time>
      </trkpt>
      <trkpt lat="44.63575" lon="5.85264">
        <ele>1261</ele>
        <time>2023-05-19T07:22:36Z</time>
      </trkpt>
      <trkpt lat="44.63573" lon="5.85263">
        <ele>1261.4</ele>
        <time>2023-05-19T07:22:37Z</time>
      </trkpt>
      <trkpt lat="44.63571" lon="5.85263">
        <ele>1261.6</ele>
        <time>2023-05-19T07:22:38Z</time>
      </trkpt>
      <trkpt lat="44.6357" lon="5.85262">
        <ele>1261.6</ele>
        <time>2023-05-19T07:22:39Z</time>
      </trkpt>
      <trkpt lat="44.63568" lon="5.85263">
        <ele>1261.8</ele>
        <time>2023-05-19T07:22:40Z</time>
      </trkpt>
      <trkpt lat="44.63566" lon="5.85263">
        <ele>1261.8</ele>
        <time>2023-05-19T07:22:41Z</time>
      </trkpt>
      <trkpt lat="44.63564" lon="5.85262">
        <ele>1262.2</ele>
        <time>2023-05-19T07:22:42Z</time>
      </trkpt>
      <trkpt lat="44.63563" lon="5.85262">
        <ele>1262</ele>
        <time>2023-05-19T07:22:43Z</time>
      </trkpt>
      <trkpt lat="44.63561" lon="5.85262">
        <ele>1262.4</ele>
        <time>2023-05-19T07:22:44Z</time>
      </trkpt>
      <trkpt lat="44.6356" lon="5.85261">
        <ele>1262.6</ele>
        <time>2023-05-19T07:22:45Z</time>
      </trkpt>
      <trkpt lat="44.63558" lon="5.8526">
        <ele>1262.6</ele>
        <time>2023-05-19T07:22:46Z</time>
      </trkpt>
      <trkpt lat="44.63557" lon="5.85259">
        <ele>1262.8</ele>
        <time>2023-05-19T07:22:47Z</time>
      </trkpt>
      <trkpt lat="44.63555" lon="5.85259">
        <ele>1263</ele>
        <time>2023-05-19T07:22:48Z</time>
      </trkpt>
      <trkpt lat="44.63554" lon="5.85259">
        <ele>1263.2</ele>
        <time>2023-05-19T07:22:49Z</time>
      </trkpt>
      <trkpt lat="44.63552" lon="5.85258">
        <ele>1263.4</ele>
        <time>2023-05-19T07:22:50Z</time>
      </trkpt>
      <trkpt lat="44.6355" lon="5.85258">
        <ele>1263.6</ele>
        <time>2023-05-19T07:22:51Z</time>
      </trkpt>
      <trkpt lat="44.63548" lon="5.85257">
        <ele>1263.6</ele>
        <time>2023-05-19T07:22:52Z</time>
      </trkpt>
      <trkpt lat="44.63546" lon="5.85256">
        <ele>1263.8</ele>
        <time>2023-05-19T07:22:53Z</time>
      </trkpt>
      <trkpt lat="44.63545" lon="5.85257">
        <ele>1263.8</ele>
        <time>2023-05-19T07:22:54Z</time>
      </trkpt>
      <trkpt lat="44.63543" lon="5.85257">
        <ele>1264</ele>
        <time>2023-05-19T07:22:55Z</time>
      </trkpt>
      <trkpt lat="44.63542" lon="5.85256">
        <ele>1264.2</ele>
        <time>2023-05-19T07:22:56Z</time>
      </trkpt>
      <trkpt lat="44.6354" lon="5.85256">
        <ele>1264.4</ele>
        <time>2023-05-19T07:22:57Z</time>
      </trkpt>
      <trkpt lat="44.63539" lon="5.85256">
        <ele>1264.6</ele>
        <time>2023-05-19T07:22:58Z</time>
      </trkpt>
      <trkpt lat="44.63538" lon="5.85257">
        <ele>1264.8</ele>
        <time>2023-05-19T07:22:59Z</time>
      </trkpt>
      <trkpt lat="44.63536" lon="5.85257">
        <ele>1265</ele>
        <time>2023-05-19T07:23:00Z</time>
      </trkpt>
      <trkpt lat="44.63534" lon="5.85257">
        <ele>1265</ele>
        <time>2023-05-19T07:23:01Z</time>
      </trkpt>
      <trkpt lat="44.63532" lon="5.85257">
        <ele>1265.2</ele>
        <time>2023-05-19T07:23:02Z</time>
      </trkpt>
      <trkpt lat="44.6353" lon="5.85257">
        <ele>1265.2</ele>
        <time>2023-05-19T07:23:03Z</time>
      </trkpt>
      <trkpt lat="44.63528" lon="5.85256">
        <ele>1265.4</ele>
        <time>2023-05-19T07:23:04Z</time>
      </trkpt>
      <trkpt lat="44.63527" lon="5.85256">
        <ele>1265.6</ele>
        <time>2023-05-19T07:23:05Z</time>
      </trkpt>
      <trkpt lat="44.63525" lon="5.85256">
        <ele>1265.8</ele>
        <time>2023-05-19T07:23:06Z</time>
      </trkpt>
      <trkpt lat="44.63524" lon="5.85256">
        <ele>1265.8</ele>
        <time>2023-05-19T07:23:07Z</time>
      </trkpt>
      <trkpt lat="44.63523" lon="5.85256">
        <ele>1266</ele>
        <time>2023-05-19T07:23:08Z</time>
      </trkpt>
      <trkpt lat="44.63521" lon="5.85257">
        <ele>1266.2</ele>
        <time>2023-05-19T07:23:09Z</time>
      </trkpt>
      <trkpt lat="44.6352" lon="5.85257">
        <ele>1266.4</ele>
        <time>2023-05-19T07:23:10Z</time>
      </trkpt>
      <trkpt lat="44.63518" lon="5.85257">
        <ele>1266.4</ele>
        <time>2023-05-19T07:23:11Z</time>
      </trkpt>
      <trkpt lat="44.63516" lon="5.85257">
        <ele>1266.4</ele>
        <time>2023-05-19T07:23:12Z</time>
      </trkpt>
      <trkpt lat="44.63515" lon="5.85258">
        <ele>1266.6</ele>
        <time>2023-05-19T07:23:13Z</time>
      </trkpt>
      <trkpt lat="44.63513" lon="5.85258">
        <ele>1266.6</ele>
        <time>2023-05-19T07:23:14Z</time>
      </trkpt>
      <trkpt lat="44.63511" lon="5.85258">
        <ele>1266.6</ele>
        <time>2023-05-19T07:23:15Z</time>
      </trkpt>
      <trkpt lat="44.6351" lon="5.85258">
        <ele>1266.8</ele>
        <time>2023-05-19T07:23:16Z</time>
      </trkpt>
      <trkpt lat="44.63508" lon="5.85259">
        <ele>1266.8</ele>
        <time>2023-05-19T07:23:17Z</time>
      </trkpt>
      <trkpt lat="44.63507" lon="5.85259">
        <ele>1266.8</ele>
        <time>2023-05-19T07:23:18Z</time>
      </trkpt>
      <trkpt lat="44.63505" lon="5.85259">
        <ele>1266.8</ele>
        <time>2023-05-19T07:23:19Z</time>
      </trkpt>
      <trkpt lat="44.63504" lon="5.8526">
        <ele>1267</ele>
        <time>2023-05-19T07:23:20Z</time>
      </trkpt>
      <trkpt lat="44.63502" lon="5.8526">
        <ele>1267</ele>
        <time>2023-05-19T07:23:21Z</time>
      </trkpt>
      <trkpt lat="44.63501" lon="5.85261">
        <ele>1267.2</ele>
        <time>2023-05-19T07:23:22Z</time>
      </trkpt>
      <trkpt lat="44.63499" lon="5.85261">
        <ele>1267.4</ele>
        <time>2023-05-19T07:23:23Z</time>
      </trkpt>
      <trkpt lat="44.63497" lon="5.85262">
        <ele>1267.4</ele>
        <time>2023-05-19T07:23:24Z</time>
      </trkpt>
      <trkpt lat="44.63496" lon="5.85262">
        <ele>1267.8</ele>
        <time>2023-05-19T07:23:25Z</time>
      </trkpt>
      <trkpt lat="44.63495" lon="5.85263">
        <ele>1267.8</ele>
        <time>2023-05-19T07:23:26Z</time>
      </trkpt>
      <trkpt lat="44.63493" lon="5.85263">
        <ele>1268.4</ele>
        <time>2023-05-19T07:23:27Z</time>
      </trkpt>
      <trkpt lat="44.63492" lon="5.85263">
        <ele>1268.4</ele>
        <time>2023-05-19T07:23:28Z</time>
      </trkpt>
      <trkpt lat="44.6349" lon="5.85263">
        <ele>1268.6</ele>
        <time>2023-05-19T07:23:29Z</time>
      </trkpt>
      <trkpt lat="44.63489" lon="5.85263">
        <ele>1268.6</ele>
        <time>2023-05-19T07:23:30Z</time>
      </trkpt>
      <trkpt lat="44.63487" lon="5.85264">
        <ele>1268.8</ele>
        <time>2023-05-19T07:23:31Z</time>
      </trkpt>
      <trkpt lat="44.63485" lon="5.85264">
        <ele>1269.2</ele>
        <time>2023-05-19T07:23:32Z</time>
      </trkpt>
      <trkpt lat="44.63483" lon="5.85265">
        <ele>1269.4</ele>
        <time>2023-05-19T07:23:33Z</time>
      </trkpt>
      <trkpt lat="44.63481" lon="5.85266">
        <ele>1269.6</ele>
        <time>2023-05-19T07:23:34Z</time>
      </trkpt>
      <trkpt lat="44.6348" lon="5.85267">
        <ele>1269.6</ele>
        <time>2023-05-19T07:23:35Z</time>
      </trkpt>
      <trkpt lat="44.63479" lon="5.85267">
        <ele>1269.8</ele>
        <time>2023-05-19T07:23:36Z</time>
      </trkpt>
      <trkpt lat="44.63477" lon="5.85269">
        <ele>1270</ele>
        <time>2023-05-19T07:23:37Z</time>
      </trkpt>
      <trkpt lat="44.63475" lon="5.8527">
        <ele>1270.2</ele>
        <time>2023-05-19T07:23:38Z</time>
      </trkpt>
      <trkpt lat="44.63474" lon="5.85271">
        <ele>1270.4</ele>
        <time>2023-05-19T07:23:39Z</time>
      </trkpt>
      <trkpt lat="44.63472" lon="5.85272">
        <ele>1270.6</ele>
        <time>2023-05-19T07:23:40Z</time>
      </trkpt>
      <trkpt lat="44.63471" lon="5.85273">
        <ele>1270.8</ele>
        <time>2023-05-19T07:23:41Z</time>
      </trkpt>
      <trkpt lat="44.6347" lon="5.85275">
        <ele>1270.8</ele>
        <time>2023-05-19T07:23:42Z</time>
      </trkpt>
      <trkpt lat="44.63468" lon="5.85276">
        <ele>1271</ele>
        <time>2023-05-19T07:23:43Z</time>
      </trkpt>
      <trkpt lat="44.63467" lon="5.85278">
        <ele>1271</ele>
        <time>2023-05-19T07:23:44Z</time>
      </trkpt>
      <trkpt lat="44.63465" lon="5.85279">
        <ele>1271.2</ele>
        <time>2023-05-19T07:23:45Z</time>
      </trkpt>
      <trkpt lat="44.63463" lon="5.85281">
        <ele>1271.2</ele>
        <time>2023-05-19T07:23:46Z</time>
      </trkpt>
      <trkpt lat="44.63462" lon="5.85284">
        <ele>1271.2</ele>
        <time>2023-05-19T07:23:47Z</time>
      </trkpt>
      <trkpt lat="44.6346" lon="5.85285">
        <ele>1271.4</ele>
        <time>2023-05-19T07:23:48Z</time>
      </trkpt>
      <trkpt lat="44.63459" lon="5.85287">
        <ele>1271.4</ele>
        <time>2023-05-19T07:23:49Z</time>
      </trkpt>
      <trkpt lat="44.63457" lon="5.85288">
        <ele>1271.8</ele>
        <time>2023-05-19T07:23:50Z</time>
      </trkpt>
      <trkpt lat="44.63456" lon="5.8529">
        <ele>1271.8</ele>
        <time>2023-05-19T07:23:51Z</time>
      </trkpt>
      <trkpt lat="44.63454" lon="5.85291">
        <ele>1272</ele>
        <time>2023-05-19T07:23:52Z</time>
      </trkpt>
      <trkpt lat="44.63452" lon="5.85293">
        <ele>1272</ele>
        <time>2023-05-19T07:23:53Z</time>
      </trkpt>
      <trkpt lat="44.63451" lon="5.85295">
        <ele>1272.2</ele>
        <time>2023-05-19T07:23:54Z</time>
      </trkpt>
      <trkpt lat="44.63449" lon="5.85297">
        <ele>1272.4</ele>
        <time>2023-05-19T07:23:55Z</time>
      </trkpt>
      <trkpt lat="44.63447" lon="5.85299">
        <ele>1272.6</ele>
        <time>2023-05-19T07:23:56Z</time>
      </trkpt>
      <trkpt lat="44.63444" lon="5.85301">
        <ele>1272.6</ele>
        <time>2023-05-19T07:23:57Z</time>
      </trkpt>
      <trkpt lat="44.63442" lon="5.85303">
        <ele>1272.8</ele>
        <time>2023-05-19T07:23:58Z</time>
      </trkpt>
      <trkpt lat="44.6344" lon="5.85305">
        <ele>1272.8</ele>
        <time>2023-05-19T07:23:59Z</time>
      </trkpt>
      <trkpt lat="44.63438" lon="5.85307">
        <ele>1272.8</ele>
        <time>2023-05-19T07:24:00Z</time>
      </trkpt>
      <trkpt lat="44.63436" lon="5.85309">
        <ele>1273</ele>
        <time>2023-05-19T07:24:01Z</time>
      </trkpt>
      <trkpt lat="44.63434" lon="5.85311">
        <ele>1273</ele>
        <time>2023-05-19T07:24:02Z</time>
      </trkpt>
      <trkpt lat="44.63432" lon="5.85313">
        <ele>1273.2</ele>
        <time>2023-05-19T07:24:03Z</time>
      </trkpt>
      <trkpt lat="44.6343" lon="5.85315">
        <ele>1273.2</ele>
        <time>2023-05-19T07:24:04Z</time>
      </trkpt>
      <trkpt lat="44.63428" lon="5.85317">
        <ele>1273.4</ele>
        <time>2023-05-19T07:24:05Z</time>
      </trkpt>
      <trkpt lat="44.63425" lon="5.8532">
        <ele>1273.4</ele>
        <time>2023-05-19T07:24:06Z</time>
      </trkpt>
      <trkpt lat="44.63422" lon="5.85322">
        <ele>1273.4</ele>
        <time>2023-05-19T07:24:07Z</time>
      </trkpt>
      <trkpt lat="44.6342" lon="5.85325">
        <ele>1273.6</ele>
        <time>2023-05-19T07:24:08Z</time>
      </trkpt>
      <trkpt lat="44.63417" lon="5.85327">
        <ele>1273.6</ele>
        <time>2023-05-19T07:24:09Z</time>
      </trkpt>
      <trkpt lat="44.63415" lon="5.85329">
        <ele>1273.6</ele>
        <time>2023-05-19T07:24:10Z</time>
      </trkpt>
      <trkpt lat="44.63414" lon="5.85331">
        <ele>1273.6</ele>
        <time>2023-05-19T07:24:11Z</time>
      </trkpt>
      <trkpt lat="44.63412" lon="5.85333">
        <ele>1273.6</ele>
        <time>2023-05-19T07:24:12Z</time>
      </trkpt>
      <trkpt lat="44.6341" lon="5.85334">
        <ele>1273.6</ele>
        <time>2023-05-19T07:24:13Z</time>
      </trkpt>
      <trkpt lat="44.63408" lon="5.85336">
        <ele>1273.6</ele>
        <time>2023-05-19T07:24:14Z</time>
      </trkpt>
      <trkpt lat="44.63406" lon="5.85338">
        <ele>1273.6</ele>
        <time>2023-05-19T07:24:15Z</time>
      </trkpt>
      <trkpt lat="44.63404" lon="5.85341">
        <ele>1273.8</ele>
        <time>2023-05-19T07:24:16Z</time>
      </trkpt>
      <trkpt lat="44.63392" lon="5.85358">
        <ele>1273.6</ele>
        <time>2023-05-19T07:24:22Z</time>
      </trkpt>
      <trkpt lat="44.63379" lon="5.85371">
        <ele>1273.2</ele>
        <time>2023-05-19T07:24:28Z</time>
      </trkpt>
      <trkpt lat="44.63376" lon="5.85373">
        <ele>1273.2</ele>
        <time>2023-05-19T07:24:29Z</time>
      </trkpt>
      <trkpt lat="44.63374" lon="5.85375">
        <ele>1273.2</ele>
        <time>2023-05-19T07:24:30Z</time>
      </trkpt>
      <trkpt lat="44.63372" lon="5.85376">
        <ele>1273.2</ele>
        <time>2023-05-19T07:24:31Z</time>
      </trkpt>
      <trkpt lat="44.63369" lon="5.85377">
        <ele>1273.2</ele>
        <time>2023-05-19T07:24:32Z</time>
      </trkpt>
      <trkpt lat="44.63367" lon="5.85378">
        <ele>1273.2</ele>
        <time>2023-05-19T07:24:33Z</time>
      </trkpt>
      <trkpt lat="44.63365" lon="5.85379">
        <ele>1273.2</ele>
        <time>2023-05-19T07:24:34Z</time>
      </trkpt>
      <trkpt lat="44.63363" lon="5.85381">
        <ele>1273.4</ele>
        <time>2023-05-19T07:24:35Z</time>
      </trkpt>
      <trkpt lat="44.63359" lon="5.85383">
        <ele>1273.4</ele>
        <time>2023-05-19T07:24:37Z</time>
      </trkpt>
      <trkpt lat="44.63357" lon="5.85384">
        <ele>1273.4</ele>
        <time>2023-05-19T07:24:38Z</time>
      </trkpt>
      <trkpt lat="44.63355" lon="5.85386">
        <ele>1273.6</ele>
        <time>2023-05-19T07:24:39Z</time>
      </trkpt>
      <trkpt lat="44.63352" lon="5.85387">
        <ele>1273.6</ele>
        <time>2023-05-19T07:24:40Z</time>
      </trkpt>
      <trkpt lat="44.6335" lon="5.85388">
        <ele>1273.6</ele>
        <time>2023-05-19T07:24:41Z</time>
      </trkpt>
      <trkpt lat="44.63348" lon="5.85388">
        <ele>1273.6</ele>
        <time>2023-05-19T07:24:42Z</time>
      </trkpt>
      <trkpt lat="44.63346" lon="5.85389">
        <ele>1273.6</ele>
        <time>2023-05-19T07:24:43Z</time>
      </trkpt>
      <trkpt lat="44.63344" lon="5.8539">
        <ele>1273.4</ele>
        <time>2023-05-19T07:24:44Z</time>
      </trkpt>
      <trkpt lat="44.63342" lon="5.85391">
        <ele>1273.4</ele>
        <time>2023-05-19T07:24:45Z</time>
      </trkpt>
      <trkpt lat="44.63341" lon="5.85392">
        <ele>1273.4</ele>
        <time>2023-05-19T07:24:46Z</time>
      </trkpt>
      <trkpt lat="44.63341" lon="5.85393">
        <ele>1273.4</ele>
        <time>2023-05-19T07:24:47Z</time>
      </trkpt>
      <trkpt lat="44.63341" lon="5.85393">
        <ele>1273.2</ele>
        <time>2023-05-19T07:24:48Z</time>
      </trkpt>
      <trkpt lat="44.63341" lon="5.85393">
        <ele>1272.4</ele>
        <time>2023-05-19T07:24:54Z</time>
      </trkpt>
      <trkpt lat="44.63339" lon="5.85394">
        <ele>1272.2</ele>
        <time>2023-05-19T07:24:57Z</time>
      </trkpt>
      <trkpt lat="44.63338" lon="5.85397">
        <ele>1272.2</ele>
        <time>2023-05-19T07:24:59Z</time>
      </trkpt>
      <trkpt lat="44.63339" lon="5.85399">
        <ele>1272.2</ele>
        <time>2023-05-19T07:25:00Z</time>
      </trkpt>
      <trkpt lat="44.63338" lon="5.85401">
        <ele>1272.2</ele>
        <time>2023-05-19T07:25:01Z</time>
      </trkpt>
      <trkpt lat="44.63338" lon="5.85403">
        <ele>1272.2</ele>
        <time>2023-05-19T07:25:02Z</time>
      </trkpt>
      <trkpt lat="44.63335" lon="5.85407">
        <ele>1272.4</ele>
        <time>2023-05-19T07:25:04Z</time>
      </trkpt>
      <trkpt lat="44.63333" lon="5.85408">
        <ele>1272.4</ele>
        <time>2023-05-19T07:25:05Z</time>
      </trkpt>
      <trkpt lat="44.63331" lon="5.85409">
        <ele>1272.4</ele>
        <time>2023-05-19T07:25:06Z</time>
      </trkpt>
      <trkpt lat="44.6333" lon="5.8541">
        <ele>1272.6</ele>
        <time>2023-05-19T07:25:07Z</time>
      </trkpt>
      <trkpt lat="44.63325" lon="5.85415">
        <ele>1273.8</ele>
        <time>2023-05-19T07:25:12Z</time>
      </trkpt>
      <trkpt lat="44.63324" lon="5.85416">
        <ele>1274.6</ele>
        <time>2023-05-19T07:25:13Z</time>
      </trkpt>
      <trkpt lat="44.63322" lon="5.85417">
        <ele>1274.8</ele>
        <time>2023-05-19T07:25:14Z</time>
      </trkpt>
      <trkpt lat="44.63321" lon="5.85418">
        <ele>1275</ele>
        <time>2023-05-19T07:25:15Z</time>
      </trkpt>
      <trkpt lat="44.6332" lon="5.85419">
        <ele>1275</ele>
        <time>2023-05-19T07:25:16Z</time>
      </trkpt>
      <trkpt lat="44.63319" lon="5.85421">
        <ele>1275.2</ele>
        <time>2023-05-19T07:25:17Z</time>
      </trkpt>
      <trkpt lat="44.63314" lon="5.85425">
        <ele>1275.6</ele>
        <time>2023-05-19T07:25:21Z</time>
      </trkpt>
      <trkpt lat="44.63312" lon="5.85426">
        <ele>1275.6</ele>
        <time>2023-05-19T07:25:22Z</time>
      </trkpt>
      <trkpt lat="44.63311" lon="5.85427">
        <ele>1275.8</ele>
        <time>2023-05-19T07:25:23Z</time>
      </trkpt>
      <trkpt lat="44.6331" lon="5.85427">
        <ele>1276</ele>
        <time>2023-05-19T07:25:24Z</time>
      </trkpt>
      <trkpt lat="44.63309" lon="5.85429">
        <ele>1276</ele>
        <time>2023-05-19T07:25:25Z</time>
      </trkpt>
      <trkpt lat="44.63308" lon="5.85429">
        <ele>1276.2</ele>
        <time>2023-05-19T07:25:26Z</time>
      </trkpt>
      <trkpt lat="44.63308" lon="5.85429">
        <ele>1276.2</ele>
        <time>2023-05-19T07:25:27Z</time>
      </trkpt>
      <trkpt lat="44.63306" lon="5.8543">
        <ele>1276.4</ele>
        <time>2023-05-19T07:25:29Z</time>
      </trkpt>
      <trkpt lat="44.63306" lon="5.85431">
        <ele>1276.6</ele>
        <time>2023-05-19T07:25:30Z</time>
      </trkpt>
      <trkpt lat="44.63305" lon="5.85431">
        <ele>1276.6</ele>
        <time>2023-05-19T07:25:31Z</time>
      </trkpt>
      <trkpt lat="44.63303" lon="5.85432">
        <ele>1276.6</ele>
        <time>2023-05-19T07:25:32Z</time>
      </trkpt>
      <trkpt lat="44.63302" lon="5.85433">
        <ele>1276.8</ele>
        <time>2023-05-19T07:25:33Z</time>
      </trkpt>
      <trkpt lat="44.633" lon="5.85434">
        <ele>1276.8</ele>
        <time>2023-05-19T07:25:34Z</time>
      </trkpt>
      <trkpt lat="44.63299" lon="5.85436">
        <ele>1277</ele>
        <time>2023-05-19T07:25:35Z</time>
      </trkpt>
      <trkpt lat="44.63298" lon="5.85437">
        <ele>1277</ele>
        <time>2023-05-19T07:25:36Z</time>
      </trkpt>
      <trkpt lat="44.63297" lon="5.85438">
        <ele>1277.2</ele>
        <time>2023-05-19T07:25:37Z</time>
      </trkpt>
      <trkpt lat="44.63295" lon="5.85439">
        <ele>1277.2</ele>
        <time>2023-05-19T07:25:38Z</time>
      </trkpt>
      <trkpt lat="44.63294" lon="5.8544">
        <ele>1277.4</ele>
        <time>2023-05-19T07:25:39Z</time>
      </trkpt>
      <trkpt lat="44.63293" lon="5.85441">
        <ele>1277.6</ele>
        <time>2023-05-19T07:25:40Z</time>
      </trkpt>
      <trkpt lat="44.63292" lon="5.85442">
        <ele>1277.6</ele>
        <time>2023-05-19T07:25:41Z</time>
      </trkpt>
      <trkpt lat="44.63291" lon="5.85443">
        <ele>1277.6</ele>
        <time>2023-05-19T07:25:42Z</time>
      </trkpt>
      <trkpt lat="44.6329" lon="5.85445">
        <ele>1277.8</ele>
        <time>2023-05-19T07:25:43Z</time>
      </trkpt>
      <trkpt lat="44.63289" lon="5.85447">
        <ele>1278</ele>
        <time>2023-05-19T07:25:44Z</time>
      </trkpt>
      <trkpt lat="44.63288" lon="5.85448">
        <ele>1278</ele>
        <time>2023-05-19T07:25:45Z</time>
      </trkpt>
      <trkpt lat="44.63287" lon="5.8545">
        <ele>1278.2</ele>
        <time>2023-05-19T07:25:46Z</time>
      </trkpt>
      <trkpt lat="44.63285" lon="5.85452">
        <ele>1278.2</ele>
        <time>2023-05-19T07:25:47Z</time>
      </trkpt>
      <trkpt lat="44.63284" lon="5.85454">
        <ele>1278.2</ele>
        <time>2023-05-19T07:25:48Z</time>
      </trkpt>
      <trkpt lat="44.63283" lon="5.85456">
        <ele>1278.6</ele>
        <time>2023-05-19T07:25:49Z</time>
      </trkpt>
      <trkpt lat="44.63283" lon="5.85458">
        <ele>1278.6</ele>
        <time>2023-05-19T07:25:50Z</time>
      </trkpt>
      <trkpt lat="44.63281" lon="5.8546">
        <ele>1279</ele>
        <time>2023-05-19T07:25:51Z</time>
      </trkpt>
      <trkpt lat="44.6328" lon="5.85462">
        <ele>1279</ele>
        <time>2023-05-19T07:25:52Z</time>
      </trkpt>
      <trkpt lat="44.63279" lon="5.85464">
        <ele>1279.2</ele>
        <time>2023-05-19T07:25:53Z</time>
      </trkpt>
      <trkpt lat="44.63278" lon="5.85466">
        <ele>1279.2</ele>
        <time>2023-05-19T07:25:54Z</time>
      </trkpt>
      <trkpt lat="44.63277" lon="5.85468">
        <ele>1279.4</ele>
        <time>2023-05-19T07:25:55Z</time>
      </trkpt>
      <trkpt lat="44.63276" lon="5.8547">
        <ele>1279.4</ele>
        <time>2023-05-19T07:25:56Z</time>
      </trkpt>
      <trkpt lat="44.63275" lon="5.85472">
        <ele>1279.6</ele>
        <time>2023-05-19T07:25:57Z</time>
      </trkpt>
      <trkpt lat="44.63274" lon="5.85474">
        <ele>1279.8</ele>
        <time>2023-05-19T07:25:58Z</time>
      </trkpt>
      <trkpt lat="44.63273" lon="5.85476">
        <ele>1279.8</ele>
        <time>2023-05-19T07:25:59Z</time>
      </trkpt>
      <trkpt lat="44.63272" lon="5.85478">
        <ele>1280</ele>
        <time>2023-05-19T07:26:00Z</time>
      </trkpt>
      <trkpt lat="44.63271" lon="5.85479">
        <ele>1280</ele>
        <time>2023-05-19T07:26:01Z</time>
      </trkpt>
      <trkpt lat="44.6327" lon="5.85481">
        <ele>1280.4</ele>
        <time>2023-05-19T07:26:02Z</time>
      </trkpt>
      <trkpt lat="44.63269" lon="5.85482">
        <ele>1280.6</ele>
        <time>2023-05-19T07:26:03Z</time>
      </trkpt>
      <trkpt lat="44.63269" lon="5.85482">
        <ele>1280.8</ele>
        <time>2023-05-19T07:26:04Z</time>
      </trkpt>
      <trkpt lat="44.63269" lon="5.85482">
        <ele>1281.2</ele>
        <time>2023-05-19T07:26:07Z</time>
      </trkpt>
      <trkpt lat="44.63269" lon="5.85483">
        <ele>1281.4</ele>
        <time>2023-05-19T07:26:17Z</time>
      </trkpt>
      <trkpt lat="44.6327" lon="5.85483">
        <ele>1281.4</ele>
        <time>2023-05-19T07:26:49Z</time>
      </trkpt>
      <trkpt lat="44.63269" lon="5.85483">
        <ele>1279.8</ele>
        <time>2023-05-19T07:27:23Z</time>
      </trkpt>
      <trkpt lat="44.63269" lon="5.85483">
        <ele>1279.6</ele>
        <time>2023-05-19T07:27:31Z</time>
      </trkpt>
      <trkpt lat="44.63269" lon="5.85485">
        <ele>1280</ele>
        <time>2023-05-19T07:28:07Z</time>
      </trkpt>
      <trkpt lat="44.6327" lon="5.85486">
        <ele>1280.4</ele>
        <time>2023-05-19T07:28:33Z</time>
      </trkpt>
      <trkpt lat="44.63266" lon="5.85493">
        <ele>1280.6</ele>
        <time>2023-05-19T07:28:44Z</time>
      </trkpt>
      <trkpt lat="44.63263" lon="5.85496">
        <ele>1280.8</ele>
        <time>2023-05-19T07:28:46Z</time>
      </trkpt>
      <trkpt lat="44.63262" lon="5.85497">
        <ele>1281</ele>
        <time>2023-05-19T07:28:47Z</time>
      </trkpt>
      <trkpt lat="44.63259" lon="5.85501">
        <ele>1281.4</ele>
        <time>2023-05-19T07:28:50Z</time>
      </trkpt>
      <trkpt lat="44.63258" lon="5.85501">
        <ele>1281.8</ele>
        <time>2023-05-19T07:28:51Z</time>
      </trkpt>
      <trkpt lat="44.63256" lon="5.85503">
        <ele>1282</ele>
        <time>2023-05-19T07:28:52Z</time>
      </trkpt>
      <trkpt lat="44.63252" lon="5.85506">
        <ele>1282.4</ele>
        <time>2023-05-19T07:28:55Z</time>
      </trkpt>
      <trkpt lat="44.63249" lon="5.85511">
        <ele>1282.4</ele>
        <time>2023-05-19T07:28:58Z</time>
      </trkpt>
      <trkpt lat="44.63248" lon="5.85513">
        <ele>1282.4</ele>
        <time>2023-05-19T07:28:59Z</time>
      </trkpt>
      <trkpt lat="44.63247" lon="5.85515">
        <ele>1282.6</ele>
        <time>2023-05-19T07:29:00Z</time>
      </trkpt>
      <trkpt lat="44.63243" lon="5.8552">
        <ele>1283</ele>
        <time>2023-05-19T07:29:04Z</time>
      </trkpt>
      <trkpt lat="44.63241" lon="5.85522">
        <ele>1283.2</ele>
        <time>2023-05-19T07:29:05Z</time>
      </trkpt>
      <trkpt lat="44.63238" lon="5.85527">
        <ele>1283.6</ele>
        <time>2023-05-19T07:29:08Z</time>
      </trkpt>
      <trkpt lat="44.63235" lon="5.85533">
        <ele>1284.4</ele>
        <time>2023-05-19T07:29:11Z</time>
      </trkpt>
      <trkpt lat="44.63234" lon="5.85534">
        <ele>1284.4</ele>
        <time>2023-05-19T07:29:12Z</time>
      </trkpt>
      <trkpt lat="44.63233" lon="5.85535">
        <ele>1284.8</ele>
        <time>2023-05-19T07:29:13Z</time>
      </trkpt>
      <trkpt lat="44.63232" lon="5.85537">
        <ele>1285</ele>
        <time>2023-05-19T07:29:14Z</time>
      </trkpt>
      <trkpt lat="44.63231" lon="5.85538">
        <ele>1285.2</ele>
        <time>2023-05-19T07:29:15Z</time>
      </trkpt>
      <trkpt lat="44.63229" lon="5.8554">
        <ele>1285.4</ele>
        <time>2023-05-19T07:29:16Z</time>
      </trkpt>
      <trkpt lat="44.63228" lon="5.85542">
        <ele>1285.4</ele>
        <time>2023-05-19T07:29:17Z</time>
      </trkpt>
      <trkpt lat="44.63227" lon="5.85543">
        <ele>1285.6</ele>
        <time>2023-05-19T07:29:18Z</time>
      </trkpt>
      <trkpt lat="44.63226" lon="5.85545">
        <ele>1285.6</ele>
        <time>2023-05-19T07:29:19Z</time>
      </trkpt>
      <trkpt lat="44.63225" lon="5.85547">
        <ele>1285.8</ele>
        <time>2023-05-19T07:29:20Z</time>
      </trkpt>
      <trkpt lat="44.63224" lon="5.85549">
        <ele>1285.8</ele>
        <time>2023-05-19T07:29:21Z</time>
      </trkpt>
      <trkpt lat="44.63223" lon="5.85551">
        <ele>1286</ele>
        <time>2023-05-19T07:29:22Z</time>
      </trkpt>
      <trkpt lat="44.63222" lon="5.85553">
        <ele>1286</ele>
        <time>2023-05-19T07:29:23Z</time>
      </trkpt>
      <trkpt lat="44.63221" lon="5.85555">
        <ele>1286.2</ele>
        <time>2023-05-19T07:29:24Z</time>
      </trkpt>
      <trkpt lat="44.6322" lon="5.85556">
        <ele>1286.2</ele>
        <time>2023-05-19T07:29:25Z</time>
      </trkpt>
      <trkpt lat="44.63219" lon="5.85559">
        <ele>1286.2</ele>
        <time>2023-05-19T07:29:26Z</time>
      </trkpt>
      <trkpt lat="44.63218" lon="5.8556">
        <ele>1286.4</ele>
        <time>2023-05-19T07:29:27Z</time>
      </trkpt>
      <trkpt lat="44.63217" lon="5.85562">
        <ele>1286.6</ele>
        <time>2023-05-19T07:29:28Z</time>
      </trkpt>
      <trkpt lat="44.63216" lon="5.85563">
        <ele>1286.6</ele>
        <time>2023-05-19T07:29:29Z</time>
      </trkpt>
      <trkpt lat="44.63215" lon="5.85565">
        <ele>1286.6</ele>
        <time>2023-05-19T07:29:30Z</time>
      </trkpt>
      <trkpt lat="44.63213" lon="5.85567">
        <ele>1286.8</ele>
        <time>2023-05-19T07:29:31Z</time>
      </trkpt>
      <trkpt lat="44.63212" lon="5.85568">
        <ele>1287.2</ele>
        <time>2023-05-19T07:29:32Z</time>
      </trkpt>
      <trkpt lat="44.63211" lon="5.8557">
        <ele>1287.4</ele>
        <time>2023-05-19T07:29:33Z</time>
      </trkpt>
      <trkpt lat="44.63209" lon="5.85571">
        <ele>1287.6</ele>
        <time>2023-05-19T07:29:34Z</time>
      </trkpt>
      <trkpt lat="44.63208" lon="5.85572">
        <ele>1287.8</ele>
        <time>2023-05-19T07:29:35Z</time>
      </trkpt>
      <trkpt lat="44.63207" lon="5.85573">
        <ele>1288</ele>
        <time>2023-05-19T07:29:36Z</time>
      </trkpt>
      <trkpt lat="44.63206" lon="5.85574">
        <ele>1288.2</ele>
        <time>2023-05-19T07:29:37Z</time>
      </trkpt>
      <trkpt lat="44.63204" lon="5.85575">
        <ele>1288.4</ele>
        <time>2023-05-19T07:29:38Z</time>
      </trkpt>
      <trkpt lat="44.63203" lon="5.85576">
        <ele>1288.6</ele>
        <time>2023-05-19T07:29:39Z</time>
      </trkpt>
      <trkpt lat="44.63202" lon="5.85576">
        <ele>1288.8</ele>
        <time>2023-05-19T07:29:40Z</time>
      </trkpt>
      <trkpt lat="44.63201" lon="5.85577">
        <ele>1288.8</ele>
        <time>2023-05-19T07:29:41Z</time>
      </trkpt>
      <trkpt lat="44.63199" lon="5.85578">
        <ele>1289</ele>
        <time>2023-05-19T07:29:42Z</time>
      </trkpt>
      <trkpt lat="44.63198" lon="5.85579">
        <ele>1289.2</ele>
        <time>2023-05-19T07:29:43Z</time>
      </trkpt>
      <trkpt lat="44.63196" lon="5.8558">
        <ele>1289.2</ele>
        <time>2023-05-19T07:29:44Z</time>
      </trkpt>
      <trkpt lat="44.63195" lon="5.85581">
        <ele>1289.4</ele>
        <time>2023-05-19T07:29:45Z</time>
      </trkpt>
      <trkpt lat="44.63193" lon="5.85582">
        <ele>1289.6</ele>
        <time>2023-05-19T07:29:46Z</time>
      </trkpt>
      <trkpt lat="44.63192" lon="5.85582">
        <ele>1289.8</ele>
        <time>2023-05-19T07:29:47Z</time>
      </trkpt>
      <trkpt lat="44.6319" lon="5.85583">
        <ele>1289.8</ele>
        <time>2023-05-19T07:29:48Z</time>
      </trkpt>
      <trkpt lat="44.63189" lon="5.85584">
        <ele>1290</ele>
        <time>2023-05-19T07:29:49Z</time>
      </trkpt>
      <trkpt lat="44.63187" lon="5.85585">
        <ele>1290.2</ele>
        <time>2023-05-19T07:29:50Z</time>
      </trkpt>
      <trkpt lat="44.63186" lon="5.85587">
        <ele>1290.2</ele>
        <time>2023-05-19T07:29:51Z</time>
      </trkpt>
      <trkpt lat="44.63184" lon="5.85588">
        <ele>1290.4</ele>
        <time>2023-05-19T07:29:52Z</time>
      </trkpt>
      <trkpt lat="44.63183" lon="5.85589">
        <ele>1290.6</ele>
        <time>2023-05-19T07:29:53Z</time>
      </trkpt>
      <trkpt lat="44.63182" lon="5.85591">
        <ele>1290.8</ele>
        <time>2023-05-19T07:29:54Z</time>
      </trkpt>
      <trkpt lat="44.6318" lon="5.85592">
        <ele>1290.8</ele>
        <time>2023-05-19T07:29:55Z</time>
      </trkpt>
      <trkpt lat="44.63179" lon="5.85593">
        <ele>1291.2</ele>
        <time>2023-05-19T07:29:56Z</time>
      </trkpt>
      <trkpt lat="44.63178" lon="5.85594">
        <ele>1291.4</ele>
        <time>2023-05-19T07:29:57Z</time>
      </trkpt>
      <trkpt lat="44.63176" lon="5.85595">
        <ele>1291.6</ele>
        <time>2023-05-19T07:29:58Z</time>
      </trkpt>
      <trkpt lat="44.63175" lon="5.85596">
        <ele>1292</ele>
        <time>2023-05-19T07:29:59Z</time>
      </trkpt>
      <trkpt lat="44.63174" lon="5.85597">
        <ele>1292</ele>
        <time>2023-05-19T07:30:00Z</time>
      </trkpt>
      <trkpt lat="44.63172" lon="5.85599">
        <ele>1292.2</ele>
        <time>2023-05-19T07:30:01Z</time>
      </trkpt>
      <trkpt lat="44.63171" lon="5.856">
        <ele>1292.4</ele>
        <time>2023-05-19T07:30:02Z</time>
      </trkpt>
      <trkpt lat="44.6317" lon="5.85601">
        <ele>1292.6</ele>
        <time>2023-05-19T07:30:03Z</time>
      </trkpt>
      <trkpt lat="44.63169" lon="5.85602">
        <ele>1292.6</ele>
        <time>2023-05-19T07:30:04Z</time>
      </trkpt>
      <trkpt lat="44.63167" lon="5.85603">
        <ele>1292.8</ele>
        <time>2023-05-19T07:30:05Z</time>
      </trkpt>
      <trkpt lat="44.63166" lon="5.85604">
        <ele>1293</ele>
        <time>2023-05-19T07:30:06Z</time>
      </trkpt>
      <trkpt lat="44.63165" lon="5.85605">
        <ele>1293.4</ele>
        <time>2023-05-19T07:30:07Z</time>
      </trkpt>
      <trkpt lat="44.63164" lon="5.85606">
        <ele>1293.6</ele>
        <time>2023-05-19T07:30:08Z</time>
      </trkpt>
      <trkpt lat="44.63162" lon="5.85607">
        <ele>1293.6</ele>
        <time>2023-05-19T07:30:09Z</time>
      </trkpt>
      <trkpt lat="44.63161" lon="5.85608">
        <ele>1293.8</ele>
        <time>2023-05-19T07:30:10Z</time>
      </trkpt>
      <trkpt lat="44.6316" lon="5.8561">
        <ele>1293.8</ele>
        <time>2023-05-19T07:30:11Z</time>
      </trkpt>
      <trkpt lat="44.63159" lon="5.85611">
        <ele>1294</ele>
        <time>2023-05-19T07:30:12Z</time>
      </trkpt>
      <trkpt lat="44.63157" lon="5.85612">
        <ele>1294</ele>
        <time>2023-05-19T07:30:13Z</time>
      </trkpt>
      <trkpt lat="44.63156" lon="5.85614">
        <ele>1294</ele>
        <time>2023-05-19T07:30:14Z</time>
      </trkpt>
      <trkpt lat="44.63154" lon="5.85615">
        <ele>1294.2</ele>
        <time>2023-05-19T07:30:15Z</time>
      </trkpt>
      <trkpt lat="44.63153" lon="5.85616">
        <ele>1294.2</ele>
        <time>2023-05-19T07:30:16Z</time>
      </trkpt>
      <trkpt lat="44.63152" lon="5.85617">
        <ele>1294.4</ele>
        <time>2023-05-19T07:30:17Z</time>
      </trkpt>
      <trkpt lat="44.6315" lon="5.85619">
        <ele>1294.4</ele>
        <time>2023-05-19T07:30:18Z</time>
      </trkpt>
      <trkpt lat="44.63149" lon="5.8562">
        <ele>1294.6</ele>
        <time>2023-05-19T07:30:19Z</time>
      </trkpt>
      <trkpt lat="44.63148" lon="5.85621">
        <ele>1294.6</ele>
        <time>2023-05-19T07:30:20Z</time>
      </trkpt>
      <trkpt lat="44.63147" lon="5.85622">
        <ele>1294.8</ele>
        <time>2023-05-19T07:30:21Z</time>
      </trkpt>
      <trkpt lat="44.63146" lon="5.85624">
        <ele>1295.2</ele>
        <time>2023-05-19T07:30:22Z</time>
      </trkpt>
      <trkpt lat="44.63144" lon="5.85626">
        <ele>1295.4</ele>
        <time>2023-05-19T07:30:23Z</time>
      </trkpt>
      <trkpt lat="44.63143" lon="5.85627">
        <ele>1295.4</ele>
        <time>2023-05-19T07:30:24Z</time>
      </trkpt>
      <trkpt lat="44.63142" lon="5.85629">
        <ele>1295.8</ele>
        <time>2023-05-19T07:30:25Z</time>
      </trkpt>
      <trkpt lat="44.63141" lon="5.8563">
        <ele>1296.2</ele>
        <time>2023-05-19T07:30:26Z</time>
      </trkpt>
      <trkpt lat="44.63139" lon="5.85632">
        <ele>1296.4</ele>
        <time>2023-05-19T07:30:27Z</time>
      </trkpt>
      <trkpt lat="44.63138" lon="5.85634">
        <ele>1296.6</ele>
        <time>2023-05-19T07:30:28Z</time>
      </trkpt>
      <trkpt lat="44.63137" lon="5.85637">
        <ele>1296.6</ele>
        <time>2023-05-19T07:30:29Z</time>
      </trkpt>
      <trkpt lat="44.63136" lon="5.85639">
        <ele>1297</ele>
        <time>2023-05-19T07:30:30Z</time>
      </trkpt>
      <trkpt lat="44.63135" lon="5.85641">
        <ele>1297</ele>
        <time>2023-05-19T07:30:31Z</time>
      </trkpt>
      <trkpt lat="44.63134" lon="5.85643">
        <ele>1297.2</ele>
        <time>2023-05-19T07:30:32Z</time>
      </trkpt>
      <trkpt lat="44.63133" lon="5.85645">
        <ele>1297.4</ele>
        <time>2023-05-19T07:30:33Z</time>
      </trkpt>
      <trkpt lat="44.63132" lon="5.85647">
        <ele>1297.6</ele>
        <time>2023-05-19T07:30:34Z</time>
      </trkpt>
      <trkpt lat="44.6313" lon="5.85649">
        <ele>1297.8</ele>
        <time>2023-05-19T07:30:35Z</time>
      </trkpt>
      <trkpt lat="44.63129" lon="5.85651">
        <ele>1297.8</ele>
        <time>2023-05-19T07:30:36Z</time>
      </trkpt>
      <trkpt lat="44.63129" lon="5.85653">
        <ele>1298</ele>
        <time>2023-05-19T07:30:37Z</time>
      </trkpt>
      <trkpt lat="44.63127" lon="5.85656">
        <ele>1298</ele>
        <time>2023-05-19T07:30:38Z</time>
      </trkpt>
      <trkpt lat="44.63126" lon="5.85658">
        <ele>1298.4</ele>
        <time>2023-05-19T07:30:39Z</time>
      </trkpt>
      <trkpt lat="44.63125" lon="5.8566">
        <ele>1298.6</ele>
        <time>2023-05-19T07:30:40Z</time>
      </trkpt>
      <trkpt lat="44.63124" lon="5.85662">
        <ele>1298.8</ele>
        <time>2023-05-19T07:30:41Z</time>
      </trkpt>
      <trkpt lat="44.63122" lon="5.85664">
        <ele>1299</ele>
        <time>2023-05-19T07:30:42Z</time>
      </trkpt>
      <trkpt lat="44.63121" lon="5.85666">
        <ele>1299</ele>
        <time>2023-05-19T07:30:43Z</time>
      </trkpt>
      <trkpt lat="44.6312" lon="5.85668">
        <ele>1299.2</ele>
        <time>2023-05-19T07:30:44Z</time>
      </trkpt>
      <trkpt lat="44.63118" lon="5.85669">
        <ele>1299.4</ele>
        <time>2023-05-19T07:30:45Z</time>
      </trkpt>
      <trkpt lat="44.63117" lon="5.8567">
        <ele>1299.8</ele>
        <time>2023-05-19T07:30:46Z</time>
      </trkpt>
      <trkpt lat="44.63115" lon="5.85671">
        <ele>1299.8</ele>
        <time>2023-05-19T07:30:47Z</time>
      </trkpt>
      <trkpt lat="44.63114" lon="5.85672">
        <ele>1300</ele>
        <time>2023-05-19T07:30:48Z</time>
      </trkpt>
      <trkpt lat="44.63112" lon="5.85672">
        <ele>1300.2</ele>
        <time>2023-05-19T07:30:49Z</time>
      </trkpt>
      <trkpt lat="44.63111" lon="5.85673">
        <ele>1300.4</ele>
        <time>2023-05-19T07:30:50Z</time>
      </trkpt>
      <trkpt lat="44.63109" lon="5.85673">
        <ele>1300.4</ele>
        <time>2023-05-19T07:30:51Z</time>
      </trkpt>
      <trkpt lat="44.63107" lon="5.85673">
        <ele>1300.6</ele>
        <time>2023-05-19T07:30:52Z</time>
      </trkpt>
      <trkpt lat="44.63105" lon="5.85673">
        <ele>1300.8</ele>
        <time>2023-05-19T07:30:53Z</time>
      </trkpt>
      <trkpt lat="44.63104" lon="5.85673">
        <ele>1301</ele>
        <time>2023-05-19T07:30:54Z</time>
      </trkpt>
      <trkpt lat="44.63102" lon="5.85673">
        <ele>1301.2</ele>
        <time>2023-05-19T07:30:55Z</time>
      </trkpt>
      <trkpt lat="44.631" lon="5.85673">
        <ele>1301.4</ele>
        <time>2023-05-19T07:30:56Z</time>
      </trkpt>
      <trkpt lat="44.63099" lon="5.85673">
        <ele>1301.6</ele>
        <time>2023-05-19T07:30:57Z</time>
      </trkpt>
      <trkpt lat="44.63097" lon="5.85672">
        <ele>1301.6</ele>
        <time>2023-05-19T07:30:58Z</time>
      </trkpt>
      <trkpt lat="44.63096" lon="5.85671">
        <ele>1301.8</ele>
        <time>2023-05-19T07:30:59Z</time>
      </trkpt>
      <trkpt lat="44.63094" lon="5.8567">
        <ele>1301.8</ele>
        <time>2023-05-19T07:31:00Z</time>
      </trkpt>
      <trkpt lat="44.63093" lon="5.8567">
        <ele>1302</ele>
        <time>2023-05-19T07:31:01Z</time>
      </trkpt>
      <trkpt lat="44.63091" lon="5.85669">
        <ele>1302.2</ele>
        <time>2023-05-19T07:31:02Z</time>
      </trkpt>
      <trkpt lat="44.6309" lon="5.85669">
        <ele>1302.4</ele>
        <time>2023-05-19T07:31:03Z</time>
      </trkpt>
      <trkpt lat="44.63089" lon="5.85668">
        <ele>1302.8</ele>
        <time>2023-05-19T07:31:04Z</time>
      </trkpt>
      <trkpt lat="44.63087" lon="5.85668">
        <ele>1303</ele>
        <time>2023-05-19T07:31:05Z</time>
      </trkpt>
      <trkpt lat="44.63086" lon="5.85668">
        <ele>1303</ele>
        <time>2023-05-19T07:31:06Z</time>
      </trkpt>
      <trkpt lat="44.63084" lon="5.85668">
        <ele>1303.2</ele>
        <time>2023-05-19T07:31:07Z</time>
      </trkpt>
      <trkpt lat="44.63082" lon="5.85668">
        <ele>1303.4</ele>
        <time>2023-05-19T07:31:08Z</time>
      </trkpt>
      <trkpt lat="44.6308" lon="5.85668">
        <ele>1303.4</ele>
        <time>2023-05-19T07:31:09Z</time>
      </trkpt>
      <trkpt lat="44.63078" lon="5.85669">
        <ele>1303.6</ele>
        <time>2023-05-19T07:31:10Z</time>
      </trkpt>
      <trkpt lat="44.63076" lon="5.85669">
        <ele>1304</ele>
        <time>2023-05-19T07:31:11Z</time>
      </trkpt>
      <trkpt lat="44.63075" lon="5.8567">
        <ele>1304</ele>
        <time>2023-05-19T07:31:12Z</time>
      </trkpt>
      <trkpt lat="44.63073" lon="5.85672">
        <ele>1304.2</ele>
        <time>2023-05-19T07:31:13Z</time>
      </trkpt>
      <trkpt lat="44.63071" lon="5.85673">
        <ele>1304.2</ele>
        <time>2023-05-19T07:31:14Z</time>
      </trkpt>
      <trkpt lat="44.6307" lon="5.85675">
        <ele>1304.2</ele>
        <time>2023-05-19T07:31:15Z</time>
      </trkpt>
      <trkpt lat="44.63068" lon="5.85676">
        <ele>1304.4</ele>
        <time>2023-05-19T07:31:16Z</time>
      </trkpt>
      <trkpt lat="44.63066" lon="5.85678">
        <ele>1304.4</ele>
        <time>2023-05-19T07:31:17Z</time>
      </trkpt>
      <trkpt lat="44.63065" lon="5.85679">
        <ele>1304.4</ele>
        <time>2023-05-19T07:31:18Z</time>
      </trkpt>
      <trkpt lat="44.63064" lon="5.8568">
        <ele>1304.4</ele>
        <time>2023-05-19T07:31:19Z</time>
      </trkpt>
      <trkpt lat="44.63062" lon="5.85681">
        <ele>1304.4</ele>
        <time>2023-05-19T07:31:20Z</time>
      </trkpt>
      <trkpt lat="44.63061" lon="5.85682">
        <ele>1304.6</ele>
        <time>2023-05-19T07:31:21Z</time>
      </trkpt>
      <trkpt lat="44.6306" lon="5.85683">
        <ele>1304.6</ele>
        <time>2023-05-19T07:31:22Z</time>
      </trkpt>
      <trkpt lat="44.63058" lon="5.85684">
        <ele>1304.6</ele>
        <time>2023-05-19T07:31:23Z</time>
      </trkpt>
      <trkpt lat="44.63057" lon="5.85685">
        <ele>1304.6</ele>
        <time>2023-05-19T07:31:24Z</time>
      </trkpt>
      <trkpt lat="44.63056" lon="5.85685">
        <ele>1304.8</ele>
        <time>2023-05-19T07:31:25Z</time>
      </trkpt>
      <trkpt lat="44.63054" lon="5.85686">
        <ele>1304.8</ele>
        <time>2023-05-19T07:31:26Z</time>
      </trkpt>
      <trkpt lat="44.63052" lon="5.85687">
        <ele>1304.8</ele>
        <time>2023-05-19T07:31:27Z</time>
      </trkpt>
      <trkpt lat="44.63051" lon="5.85687">
        <ele>1305</ele>
        <time>2023-05-19T07:31:28Z</time>
      </trkpt>
      <trkpt lat="44.63049" lon="5.85687">
        <ele>1305.2</ele>
        <time>2023-05-19T07:31:29Z</time>
      </trkpt>
      <trkpt lat="44.63048" lon="5.85688">
        <ele>1305.4</ele>
        <time>2023-05-19T07:31:30Z</time>
      </trkpt>
      <trkpt lat="44.63047" lon="5.85689">
        <ele>1305.6</ele>
        <time>2023-05-19T07:31:31Z</time>
      </trkpt>
      <trkpt lat="44.63045" lon="5.85689">
        <ele>1305.6</ele>
        <time>2023-05-19T07:31:32Z</time>
      </trkpt>
      <trkpt lat="44.63042" lon="5.85691">
        <ele>1305.8</ele>
        <time>2023-05-19T07:31:34Z</time>
      </trkpt>
      <trkpt lat="44.6304" lon="5.85691">
        <ele>1306</ele>
        <time>2023-05-19T07:31:35Z</time>
      </trkpt>
      <trkpt lat="44.63038" lon="5.85693">
        <ele>1306.4</ele>
        <time>2023-05-19T07:31:37Z</time>
      </trkpt>
      <trkpt lat="44.63036" lon="5.85694">
        <ele>1306.6</ele>
        <time>2023-05-19T07:31:38Z</time>
      </trkpt>
      <trkpt lat="44.63035" lon="5.85694">
        <ele>1306.6</ele>
        <time>2023-05-19T07:31:39Z</time>
      </trkpt>
      <trkpt lat="44.63032" lon="5.85695">
        <ele>1306.8</ele>
        <time>2023-05-19T07:31:41Z</time>
      </trkpt>
      <trkpt lat="44.6303" lon="5.85695">
        <ele>1307</ele>
        <time>2023-05-19T07:31:42Z</time>
      </trkpt>
      <trkpt lat="44.63029" lon="5.85696">
        <ele>1307.2</ele>
        <time>2023-05-19T07:31:43Z</time>
      </trkpt>
      <trkpt lat="44.63027" lon="5.85696">
        <ele>1307.4</ele>
        <time>2023-05-19T07:31:44Z</time>
      </trkpt>
      <trkpt lat="44.63026" lon="5.85697">
        <ele>1307.4</ele>
        <time>2023-05-19T07:31:45Z</time>
      </trkpt>
      <trkpt lat="44.63025" lon="5.85697">
        <ele>1307.6</ele>
        <time>2023-05-19T07:31:46Z</time>
      </trkpt>
      <trkpt lat="44.63023" lon="5.85698">
        <ele>1307.6</ele>
        <time>2023-05-19T07:31:47Z</time>
      </trkpt>
      <trkpt lat="44.63022" lon="5.85698">
        <ele>1307.8</ele>
        <time>2023-05-19T07:31:48Z</time>
      </trkpt>
      <trkpt lat="44.6302" lon="5.85699">
        <ele>1307.8</ele>
        <time>2023-05-19T07:31:49Z</time>
      </trkpt>
      <trkpt lat="44.63019" lon="5.85699">
        <ele>1308</ele>
        <time>2023-05-19T07:31:50Z</time>
      </trkpt>
      <trkpt lat="44.63018" lon="5.85699">
        <ele>1308.2</ele>
        <time>2023-05-19T07:31:51Z</time>
      </trkpt>
      <trkpt lat="44.63016" lon="5.85699">
        <ele>1308.4</ele>
        <time>2023-05-19T07:31:52Z</time>
      </trkpt>
      <trkpt lat="44.63014" lon="5.85699">
        <ele>1308.6</ele>
        <time>2023-05-19T07:31:53Z</time>
      </trkpt>
      <trkpt lat="44.63013" lon="5.85699">
        <ele>1308.6</ele>
        <time>2023-05-19T07:31:54Z</time>
      </trkpt>
      <trkpt lat="44.63012" lon="5.85699">
        <ele>1308.8</ele>
        <time>2023-05-19T07:31:55Z</time>
      </trkpt>
      <trkpt lat="44.6301" lon="5.857">
        <ele>1308.8</ele>
        <time>2023-05-19T07:31:56Z</time>
      </trkpt>
      <trkpt lat="44.63008" lon="5.857">
        <ele>1308.8</ele>
        <time>2023-05-19T07:31:57Z</time>
      </trkpt>
      <trkpt lat="44.63007" lon="5.85701">
        <ele>1309.2</ele>
        <time>2023-05-19T07:31:58Z</time>
      </trkpt>
      <trkpt lat="44.63005" lon="5.85701">
        <ele>1309.2</ele>
        <time>2023-05-19T07:31:59Z</time>
      </trkpt>
      <trkpt lat="44.63003" lon="5.85701">
        <ele>1309.4</ele>
        <time>2023-05-19T07:32:00Z</time>
      </trkpt>
      <trkpt lat="44.63002" lon="5.85701">
        <ele>1309.4</ele>
        <time>2023-05-19T07:32:01Z</time>
      </trkpt>
      <trkpt lat="44.63" lon="5.85701">
        <ele>1309.8</ele>
        <time>2023-05-19T07:32:02Z</time>
      </trkpt>
      <trkpt lat="44.62999" lon="5.85701">
        <ele>1309.8</ele>
        <time>2023-05-19T07:32:03Z</time>
      </trkpt>
      <trkpt lat="44.62998" lon="5.85701">
        <ele>1310</ele>
        <time>2023-05-19T07:32:04Z</time>
      </trkpt>
      <trkpt lat="44.62996" lon="5.85701">
        <ele>1310</ele>
        <time>2023-05-19T07:32:05Z</time>
      </trkpt>
      <trkpt lat="44.62995" lon="5.85701">
        <ele>1310.2</ele>
        <time>2023-05-19T07:32:06Z</time>
      </trkpt>
      <trkpt lat="44.62993" lon="5.85702">
        <ele>1310.4</ele>
        <time>2023-05-19T07:32:07Z</time>
      </trkpt>
      <trkpt lat="44.62992" lon="5.85703">
        <ele>1310.4</ele>
        <time>2023-05-19T07:32:08Z</time>
      </trkpt>
      <trkpt lat="44.6299" lon="5.85704">
        <ele>1310.6</ele>
        <time>2023-05-19T07:32:09Z</time>
      </trkpt>
      <trkpt lat="44.62988" lon="5.85704">
        <ele>1310.8</ele>
        <time>2023-05-19T07:32:10Z</time>
      </trkpt>
      <trkpt lat="44.62986" lon="5.85705">
        <ele>1310.8</ele>
        <time>2023-05-19T07:32:11Z</time>
      </trkpt>
      <trkpt lat="44.62985" lon="5.85705">
        <ele>1311</ele>
        <time>2023-05-19T07:32:12Z</time>
      </trkpt>
      <trkpt lat="44.62983" lon="5.85706">
        <ele>1311.2</ele>
        <time>2023-05-19T07:32:13Z</time>
      </trkpt>
      <trkpt lat="44.62982" lon="5.85707">
        <ele>1311.4</ele>
        <time>2023-05-19T07:32:14Z</time>
      </trkpt>
      <trkpt lat="44.6298" lon="5.85708">
        <ele>1311.4</ele>
        <time>2023-05-19T07:32:15Z</time>
      </trkpt>
      <trkpt lat="44.62978" lon="5.85709">
        <ele>1311.6</ele>
        <time>2023-05-19T07:32:16Z</time>
      </trkpt>
      <trkpt lat="44.62977" lon="5.8571">
        <ele>1311.8</ele>
        <time>2023-05-19T07:32:17Z</time>
      </trkpt>
      <trkpt lat="44.62975" lon="5.85711">
        <ele>1312</ele>
        <time>2023-05-19T07:32:18Z</time>
      </trkpt>
      <trkpt lat="44.62974" lon="5.85712">
        <ele>1312</ele>
        <time>2023-05-19T07:32:19Z</time>
      </trkpt>
      <trkpt lat="44.62972" lon="5.85714">
        <ele>1312.2</ele>
        <time>2023-05-19T07:32:20Z</time>
      </trkpt>
      <trkpt lat="44.62971" lon="5.85715">
        <ele>1312.4</ele>
        <time>2023-05-19T07:32:21Z</time>
      </trkpt>
      <trkpt lat="44.6297" lon="5.85717">
        <ele>1312.4</ele>
        <time>2023-05-19T07:32:22Z</time>
      </trkpt>
      <trkpt lat="44.62969" lon="5.85718">
        <ele>1312.6</ele>
        <time>2023-05-19T07:32:23Z</time>
      </trkpt>
      <trkpt lat="44.62967" lon="5.8572">
        <ele>1312.6</ele>
        <time>2023-05-19T07:32:24Z</time>
      </trkpt>
      <trkpt lat="44.62966" lon="5.85721">
        <ele>1313.2</ele>
        <time>2023-05-19T07:32:25Z</time>
      </trkpt>
      <trkpt lat="44.62965" lon="5.85723">
        <ele>1313.2</ele>
        <time>2023-05-19T07:32:26Z</time>
      </trkpt>
      <trkpt lat="44.62963" lon="5.85725">
        <ele>1313.4</ele>
        <time>2023-05-19T07:32:27Z</time>
      </trkpt>
      <trkpt lat="44.62963" lon="5.85726">
        <ele>1313.4</ele>
        <time>2023-05-19T07:32:28Z</time>
      </trkpt>
      <trkpt lat="44.62961" lon="5.85727">
        <ele>1313.8</ele>
        <time>2023-05-19T07:32:29Z</time>
      </trkpt>
      <trkpt lat="44.6296" lon="5.85729">
        <ele>1313.8</ele>
        <time>2023-05-19T07:32:30Z</time>
      </trkpt>
      <trkpt lat="44.62959" lon="5.85731">
        <ele>1314</ele>
        <time>2023-05-19T07:32:31Z</time>
      </trkpt>
      <trkpt lat="44.62958" lon="5.85733">
        <ele>1314.2</ele>
        <time>2023-05-19T07:32:32Z</time>
      </trkpt>
      <trkpt lat="44.62957" lon="5.85734">
        <ele>1314.4</ele>
        <time>2023-05-19T07:32:33Z</time>
      </trkpt>
      <trkpt lat="44.62956" lon="5.85735">
        <ele>1315</ele>
        <time>2023-05-19T07:32:34Z</time>
      </trkpt>
      <trkpt lat="44.62955" lon="5.85736">
        <ele>1315.2</ele>
        <time>2023-05-19T07:32:35Z</time>
      </trkpt>
      <trkpt lat="44.62954" lon="5.85738">
        <ele>1315.4</ele>
        <time>2023-05-19T07:32:36Z</time>
      </trkpt>
      <trkpt lat="44.62952" lon="5.8574">
        <ele>1315.4</ele>
        <time>2023-05-19T07:32:37Z</time>
      </trkpt>
      <trkpt lat="44.62952" lon="5.85742">
        <ele>1315.4</ele>
        <time>2023-05-19T07:32:38Z</time>
      </trkpt>
      <trkpt lat="44.62951" lon="5.85743">
        <ele>1315.4</ele>
        <time>2023-05-19T07:32:39Z</time>
      </trkpt>
      <trkpt lat="44.6295" lon="5.85745">
        <ele>1315.6</ele>
        <time>2023-05-19T07:32:40Z</time>
      </trkpt>
      <trkpt lat="44.62949" lon="5.85746">
        <ele>1315.6</ele>
        <time>2023-05-19T07:32:41Z</time>
      </trkpt>
      <trkpt lat="44.62947" lon="5.85748">
        <ele>1315.8</ele>
        <time>2023-05-19T07:32:42Z</time>
      </trkpt>
      <trkpt lat="44.62946" lon="5.85749">
        <ele>1316</ele>
        <time>2023-05-19T07:32:43Z</time>
      </trkpt>
      <trkpt lat="44.62945" lon="5.85751">
        <ele>1316</ele>
        <time>2023-05-19T07:32:44Z</time>
      </trkpt>
      <trkpt lat="44.62944" lon="5.85753">
        <ele>1316</ele>
        <time>2023-05-19T07:32:45Z</time>
      </trkpt>
      <trkpt lat="44.62943" lon="5.85754">
        <ele>1316.4</ele>
        <time>2023-05-19T07:32:46Z</time>
      </trkpt>
      <trkpt lat="44.62942" lon="5.85756">
        <ele>1316.4</ele>
        <time>2023-05-19T07:32:47Z</time>
      </trkpt>
      <trkpt lat="44.62941" lon="5.85757">
        <ele>1316.6</ele>
        <time>2023-05-19T07:32:48Z</time>
      </trkpt>
      <trkpt lat="44.6294" lon="5.85758">
        <ele>1316.8</ele>
        <time>2023-05-19T07:32:49Z</time>
      </trkpt>
      <trkpt lat="44.62938" lon="5.85759">
        <ele>1316.8</ele>
        <time>2023-05-19T07:32:50Z</time>
      </trkpt>
      <trkpt lat="44.62937" lon="5.8576">
        <ele>1317</ele>
        <time>2023-05-19T07:32:51Z</time>
      </trkpt>
      <trkpt lat="44.62936" lon="5.85761">
        <ele>1317.2</ele>
        <time>2023-05-19T07:32:52Z</time>
      </trkpt>
      <trkpt lat="44.62935" lon="5.85763">
        <ele>1317.4</ele>
        <time>2023-05-19T07:32:53Z</time>
      </trkpt>
      <trkpt lat="44.62934" lon="5.85764">
        <ele>1317.4</ele>
        <time>2023-05-19T07:32:54Z</time>
      </trkpt>
      <trkpt lat="44.62933" lon="5.85766">
        <ele>1317.6</ele>
        <time>2023-05-19T07:32:55Z</time>
      </trkpt>
      <trkpt lat="44.62931" lon="5.85767">
        <ele>1317.6</ele>
        <time>2023-05-19T07:32:56Z</time>
      </trkpt>
      <trkpt lat="44.6293" lon="5.85769">
        <ele>1317.8</ele>
        <time>2023-05-19T07:32:57Z</time>
      </trkpt>
      <trkpt lat="44.62929" lon="5.85771">
        <ele>1317.8</ele>
        <time>2023-05-19T07:32:58Z</time>
      </trkpt>
      <trkpt lat="44.62928" lon="5.85773">
        <ele>1317.8</ele>
        <time>2023-05-19T07:32:59Z</time>
      </trkpt>
      <trkpt lat="44.62927" lon="5.85775">
        <ele>1318</ele>
        <time>2023-05-19T07:33:00Z</time>
      </trkpt>
      <trkpt lat="44.62926" lon="5.85777">
        <ele>1318.2</ele>
        <time>2023-05-19T07:33:01Z</time>
      </trkpt>
      <trkpt lat="44.62925" lon="5.85779">
        <ele>1318.2</ele>
        <time>2023-05-19T07:33:02Z</time>
      </trkpt>
      <trkpt lat="44.62924" lon="5.85781">
        <ele>1318.4</ele>
        <time>2023-05-19T07:33:03Z</time>
      </trkpt>
      <trkpt lat="44.62923" lon="5.85782">
        <ele>1318.6</ele>
        <time>2023-05-19T07:33:04Z</time>
      </trkpt>
      <trkpt lat="44.62922" lon="5.85784">
        <ele>1318.6</ele>
        <time>2023-05-19T07:33:05Z</time>
      </trkpt>
      <trkpt lat="44.62921" lon="5.85786">
        <ele>1318.6</ele>
        <time>2023-05-19T07:33:06Z</time>
      </trkpt>
      <trkpt lat="44.62921" lon="5.85788">
        <ele>1318.8</ele>
        <time>2023-05-19T07:33:07Z</time>
      </trkpt>
      <trkpt lat="44.6292" lon="5.8579">
        <ele>1318.8</ele>
        <time>2023-05-19T07:33:08Z</time>
      </trkpt>
      <trkpt lat="44.62919" lon="5.85792">
        <ele>1319</ele>
        <time>2023-05-19T07:33:09Z</time>
      </trkpt>
      <trkpt lat="44.62918" lon="5.85794">
        <ele>1319</ele>
        <time>2023-05-19T07:33:10Z</time>
      </trkpt>
      <trkpt lat="44.62917" lon="5.85796">
        <ele>1319.4</ele>
        <time>2023-05-19T07:33:11Z</time>
      </trkpt>
      <trkpt lat="44.62916" lon="5.85798">
        <ele>1319.4</ele>
        <time>2023-05-19T07:33:12Z</time>
      </trkpt>
      <trkpt lat="44.62916" lon="5.858">
        <ele>1319.4</ele>
        <time>2023-05-19T07:33:13Z</time>
      </trkpt>
      <trkpt lat="44.62915" lon="5.85802">
        <ele>1319.4</ele>
        <time>2023-05-19T07:33:14Z</time>
      </trkpt>
      <trkpt lat="44.62914" lon="5.85804">
        <ele>1319.6</ele>
        <time>2023-05-19T07:33:15Z</time>
      </trkpt>
      <trkpt lat="44.62914" lon="5.85806">
        <ele>1319.6</ele>
        <time>2023-05-19T07:33:16Z</time>
      </trkpt>
      <trkpt lat="44.62913" lon="5.85808">
        <ele>1320</ele>
        <time>2023-05-19T07:33:17Z</time>
      </trkpt>
      <trkpt lat="44.62912" lon="5.8581">
        <ele>1320</ele>
        <time>2023-05-19T07:33:18Z</time>
      </trkpt>
      <trkpt lat="44.62911" lon="5.85812">
        <ele>1320.2</ele>
        <time>2023-05-19T07:33:19Z</time>
      </trkpt>
      <trkpt lat="44.6291" lon="5.85814">
        <ele>1320.2</ele>
        <time>2023-05-19T07:33:20Z</time>
      </trkpt>
      <trkpt lat="44.6291" lon="5.85816">
        <ele>1320.4</ele>
        <time>2023-05-19T07:33:21Z</time>
      </trkpt>
      <trkpt lat="44.62909" lon="5.85818">
        <ele>1320.6</ele>
        <time>2023-05-19T07:33:22Z</time>
      </trkpt>
      <trkpt lat="44.62909" lon="5.85819">
        <ele>1320.6</ele>
        <time>2023-05-19T07:33:23Z</time>
      </trkpt>
      <trkpt lat="44.62908" lon="5.85821">
        <ele>1320.6</ele>
        <time>2023-05-19T07:33:24Z</time>
      </trkpt>
      <trkpt lat="44.62907" lon="5.85823">
        <ele>1320.8</ele>
        <time>2023-05-19T07:33:25Z</time>
      </trkpt>
      <trkpt lat="44.62907" lon="5.85825">
        <ele>1321</ele>
        <time>2023-05-19T07:33:26Z</time>
      </trkpt>
      <trkpt lat="44.62906" lon="5.85826">
        <ele>1321</ele>
        <time>2023-05-19T07:33:27Z</time>
      </trkpt>
      <trkpt lat="44.62905" lon="5.85828">
        <ele>1321</ele>
        <time>2023-05-19T07:33:28Z</time>
      </trkpt>
      <trkpt lat="44.62904" lon="5.8583">
        <ele>1321</ele>
        <time>2023-05-19T07:33:29Z</time>
      </trkpt>
      <trkpt lat="44.62903" lon="5.85831">
        <ele>1321.4</ele>
        <time>2023-05-19T07:33:30Z</time>
      </trkpt>
      <trkpt lat="44.62902" lon="5.85833">
        <ele>1321.4</ele>
        <time>2023-05-19T07:33:31Z</time>
      </trkpt>
      <trkpt lat="44.629" lon="5.85835">
        <ele>1321.6</ele>
        <time>2023-05-19T07:33:32Z</time>
      </trkpt>
      <trkpt lat="44.62899" lon="5.85836">
        <ele>1321.8</ele>
        <time>2023-05-19T07:33:33Z</time>
      </trkpt>
      <trkpt lat="44.62898" lon="5.85837">
        <ele>1322</ele>
        <time>2023-05-19T07:33:34Z</time>
      </trkpt>
      <trkpt lat="44.62897" lon="5.85839">
        <ele>1322.6</ele>
        <time>2023-05-19T07:33:35Z</time>
      </trkpt>
      <trkpt lat="44.62896" lon="5.8584">
        <ele>1323</ele>
        <time>2023-05-19T07:33:36Z</time>
      </trkpt>
      <trkpt lat="44.62895" lon="5.85841">
        <ele>1323.2</ele>
        <time>2023-05-19T07:33:37Z</time>
      </trkpt>
      <trkpt lat="44.62893" lon="5.85841">
        <ele>1323.4</ele>
        <time>2023-05-19T07:33:38Z</time>
      </trkpt>
      <trkpt lat="44.62892" lon="5.85843">
        <ele>1323.6</ele>
        <time>2023-05-19T07:33:39Z</time>
      </trkpt>
      <trkpt lat="44.62891" lon="5.85844">
        <ele>1323.6</ele>
        <time>2023-05-19T07:33:40Z</time>
      </trkpt>
      <trkpt lat="44.6289" lon="5.85846">
        <ele>1323.8</ele>
        <time>2023-05-19T07:33:41Z</time>
      </trkpt>
      <trkpt lat="44.62889" lon="5.85847">
        <ele>1324</ele>
        <time>2023-05-19T07:33:42Z</time>
      </trkpt>
      <trkpt lat="44.62888" lon="5.85849">
        <ele>1324.2</ele>
        <time>2023-05-19T07:33:43Z</time>
      </trkpt>
      <trkpt lat="44.62887" lon="5.8585">
        <ele>1324.4</ele>
        <time>2023-05-19T07:33:44Z</time>
      </trkpt>
      <trkpt lat="44.62886" lon="5.85851">
        <ele>1324.4</ele>
        <time>2023-05-19T07:33:45Z</time>
      </trkpt>
      <trkpt lat="44.62884" lon="5.85852">
        <ele>1324.6</ele>
        <time>2023-05-19T07:33:46Z</time>
      </trkpt>
      <trkpt lat="44.62883" lon="5.85853">
        <ele>1324.6</ele>
        <time>2023-05-19T07:33:47Z</time>
      </trkpt>
      <trkpt lat="44.62882" lon="5.85855">
        <ele>1324.8</ele>
        <time>2023-05-19T07:33:48Z</time>
      </trkpt>
      <trkpt lat="44.62881" lon="5.85856">
        <ele>1324.8</ele>
        <time>2023-05-19T07:33:49Z</time>
      </trkpt>
      <trkpt lat="44.6288" lon="5.85858">
        <ele>1325</ele>
        <time>2023-05-19T07:33:50Z</time>
      </trkpt>
      <trkpt lat="44.62879" lon="5.8586">
        <ele>1325</ele>
        <time>2023-05-19T07:33:51Z</time>
      </trkpt>
      <trkpt lat="44.62878" lon="5.85861">
        <ele>1325.2</ele>
        <time>2023-05-19T07:33:52Z</time>
      </trkpt>
      <trkpt lat="44.62877" lon="5.85862">
        <ele>1325.2</ele>
        <time>2023-05-19T07:33:53Z</time>
      </trkpt>
      <trkpt lat="44.62875" lon="5.85864">
        <ele>1325.4</ele>
        <time>2023-05-19T07:33:54Z</time>
      </trkpt>
      <trkpt lat="44.62874" lon="5.85865">
        <ele>1325.8</ele>
        <time>2023-05-19T07:33:55Z</time>
      </trkpt>
      <trkpt lat="44.62873" lon="5.85867">
        <ele>1325.8</ele>
        <time>2023-05-19T07:33:56Z</time>
      </trkpt>
      <trkpt lat="44.62873" lon="5.85869">
        <ele>1326</ele>
        <time>2023-05-19T07:33:57Z</time>
      </trkpt>
      <trkpt lat="44.62872" lon="5.85871">
        <ele>1326</ele>
        <time>2023-05-19T07:33:58Z</time>
      </trkpt>
      <trkpt lat="44.62871" lon="5.85873">
        <ele>1326.2</ele>
        <time>2023-05-19T07:33:59Z</time>
      </trkpt>
      <trkpt lat="44.62871" lon="5.85874">
        <ele>1326.4</ele>
        <time>2023-05-19T07:34:00Z</time>
      </trkpt>
      <trkpt lat="44.6287" lon="5.85875">
        <ele>1326.6</ele>
        <time>2023-05-19T07:34:01Z</time>
      </trkpt>
      <trkpt lat="44.6287" lon="5.85877">
        <ele>1326.6</ele>
        <time>2023-05-19T07:34:02Z</time>
      </trkpt>
      <trkpt lat="44.62869" lon="5.85878">
        <ele>1327</ele>
        <time>2023-05-19T07:34:03Z</time>
      </trkpt>
      <trkpt lat="44.62868" lon="5.85879">
        <ele>1327.2</ele>
        <time>2023-05-19T07:34:04Z</time>
      </trkpt>
      <trkpt lat="44.62867" lon="5.8588">
        <ele>1327.4</ele>
        <time>2023-05-19T07:34:05Z</time>
      </trkpt>
      <trkpt lat="44.62866" lon="5.85881">
        <ele>1327.6</ele>
        <time>2023-05-19T07:34:06Z</time>
      </trkpt>
      <trkpt lat="44.62865" lon="5.85883">
        <ele>1327.6</ele>
        <time>2023-05-19T07:34:07Z</time>
      </trkpt>
      <trkpt lat="44.62864" lon="5.85884">
        <ele>1327.8</ele>
        <time>2023-05-19T07:34:08Z</time>
      </trkpt>
      <trkpt lat="44.62862" lon="5.85886">
        <ele>1327.8</ele>
        <time>2023-05-19T07:34:09Z</time>
      </trkpt>
      <trkpt lat="44.62861" lon="5.85888">
        <ele>1327.8</ele>
        <time>2023-05-19T07:34:10Z</time>
      </trkpt>
      <trkpt lat="44.6286" lon="5.8589">
        <ele>1328</ele>
        <time>2023-05-19T07:34:11Z</time>
      </trkpt>
      <trkpt lat="44.62859" lon="5.85892">
        <ele>1328.6</ele>
        <time>2023-05-19T07:34:12Z</time>
      </trkpt>
      <trkpt lat="44.62858" lon="5.85894">
        <ele>1328.8</ele>
        <time>2023-05-19T07:34:13Z</time>
      </trkpt>
      <trkpt lat="44.62857" lon="5.85895">
        <ele>1328.8</ele>
        <time>2023-05-19T07:34:14Z</time>
      </trkpt>
      <trkpt lat="44.62856" lon="5.85897">
        <ele>1329</ele>
        <time>2023-05-19T07:34:15Z</time>
      </trkpt>
      <trkpt lat="44.62855" lon="5.85898">
        <ele>1329</ele>
        <time>2023-05-19T07:34:16Z</time>
      </trkpt>
      <trkpt lat="44.62853" lon="5.85899">
        <ele>1329.2</ele>
        <time>2023-05-19T07:34:17Z</time>
      </trkpt>
      <trkpt lat="44.62852" lon="5.85901">
        <ele>1329.2</ele>
        <time>2023-05-19T07:34:18Z</time>
      </trkpt>
      <trkpt lat="44.62852" lon="5.85902">
        <ele>1329.2</ele>
        <time>2023-05-19T07:34:19Z</time>
      </trkpt>
      <trkpt lat="44.6285" lon="5.85904">
        <ele>1329.2</ele>
        <time>2023-05-19T07:34:20Z</time>
      </trkpt>
      <trkpt lat="44.62849" lon="5.85906">
        <ele>1329.4</ele>
        <time>2023-05-19T07:34:21Z</time>
      </trkpt>
      <trkpt lat="44.62848" lon="5.85907">
        <ele>1329.6</ele>
        <time>2023-05-19T07:34:22Z</time>
      </trkpt>
      <trkpt lat="44.62847" lon="5.8591">
        <ele>1329.6</ele>
        <time>2023-05-19T07:34:23Z</time>
      </trkpt>
      <trkpt lat="44.62846" lon="5.85912">
        <ele>1329.8</ele>
        <time>2023-05-19T07:34:24Z</time>
      </trkpt>
      <trkpt lat="44.62844" lon="5.85915">
        <ele>1330</ele>
        <time>2023-05-19T07:34:25Z</time>
      </trkpt>
      <trkpt lat="44.62843" lon="5.85917">
        <ele>1330.2</ele>
        <time>2023-05-19T07:34:26Z</time>
      </trkpt>
      <trkpt lat="44.62842" lon="5.85919">
        <ele>1330.2</ele>
        <time>2023-05-19T07:34:27Z</time>
      </trkpt>
      <trkpt lat="44.62841" lon="5.85921">
        <ele>1330.4</ele>
        <time>2023-05-19T07:34:28Z</time>
      </trkpt>
      <trkpt lat="44.62839" lon="5.85923">
        <ele>1330.6</ele>
        <time>2023-05-19T07:34:29Z</time>
      </trkpt>
      <trkpt lat="44.62838" lon="5.85925">
        <ele>1330.8</ele>
        <time>2023-05-19T07:34:30Z</time>
      </trkpt>
      <trkpt lat="44.62837" lon="5.85928">
        <ele>1330.8</ele>
        <time>2023-05-19T07:34:31Z</time>
      </trkpt>
      <trkpt lat="44.62836" lon="5.8593">
        <ele>1331</ele>
        <time>2023-05-19T07:34:32Z</time>
      </trkpt>
      <trkpt lat="44.62836" lon="5.85933">
        <ele>1331.4</ele>
        <time>2023-05-19T07:34:33Z</time>
      </trkpt>
      <trkpt lat="44.62835" lon="5.85934">
        <ele>1331.4</ele>
        <time>2023-05-19T07:34:34Z</time>
      </trkpt>
      <trkpt lat="44.62834" lon="5.85935">
        <ele>1331.6</ele>
        <time>2023-05-19T07:34:35Z</time>
      </trkpt>
      <trkpt lat="44.62832" lon="5.85937">
        <ele>1331.8</ele>
        <time>2023-05-19T07:34:36Z</time>
      </trkpt>
      <trkpt lat="44.62831" lon="5.85939">
        <ele>1332</ele>
        <time>2023-05-19T07:34:37Z</time>
      </trkpt>
      <trkpt lat="44.6283" lon="5.85941">
        <ele>1332</ele>
        <time>2023-05-19T07:34:38Z</time>
      </trkpt>
      <trkpt lat="44.6283" lon="5.85943">
        <ele>1332.2</ele>
        <time>2023-05-19T07:34:39Z</time>
      </trkpt>
      <trkpt lat="44.62829" lon="5.85945">
        <ele>1332.4</ele>
        <time>2023-05-19T07:34:40Z</time>
      </trkpt>
      <trkpt lat="44.6283" lon="5.85947">
        <ele>1332.6</ele>
        <time>2023-05-19T07:34:41Z</time>
      </trkpt>
      <trkpt lat="44.6283" lon="5.85949">
        <ele>1332.6</ele>
        <time>2023-05-19T07:34:42Z</time>
      </trkpt>
      <trkpt lat="44.62831" lon="5.85951">
        <ele>1332.6</ele>
        <time>2023-05-19T07:34:43Z</time>
      </trkpt>
      <trkpt lat="44.62832" lon="5.85953">
        <ele>1332.6</ele>
        <time>2023-05-19T07:34:44Z</time>
      </trkpt>
      <trkpt lat="44.62834" lon="5.85954">
        <ele>1332.6</ele>
        <time>2023-05-19T07:34:45Z</time>
      </trkpt>
      <trkpt lat="44.62835" lon="5.85955">
        <ele>1332.8</ele>
        <time>2023-05-19T07:34:46Z</time>
      </trkpt>
      <trkpt lat="44.62836" lon="5.85955">
        <ele>1332.8</ele>
        <time>2023-05-19T07:34:47Z</time>
      </trkpt>
      <trkpt lat="44.62838" lon="5.85955">
        <ele>1332.8</ele>
        <time>2023-05-19T07:34:48Z</time>
      </trkpt>
      <trkpt lat="44.6284" lon="5.85955">
        <ele>1333</ele>
        <time>2023-05-19T07:34:49Z</time>
      </trkpt>
      <trkpt lat="44.62842" lon="5.85954">
        <ele>1333</ele>
        <time>2023-05-19T07:34:50Z</time>
      </trkpt>
      <trkpt lat="44.62843" lon="5.85952">
        <ele>1333</ele>
        <time>2023-05-19T07:34:51Z</time>
      </trkpt>
      <trkpt lat="44.62844" lon="5.8595">
        <ele>1333.2</ele>
        <time>2023-05-19T07:34:52Z</time>
      </trkpt>
      <trkpt lat="44.62845" lon="5.85948">
        <ele>1333.4</ele>
        <time>2023-05-19T07:34:53Z</time>
      </trkpt>
      <trkpt lat="44.62846" lon="5.85947">
        <ele>1333.4</ele>
        <time>2023-05-19T07:34:54Z</time>
      </trkpt>
      <trkpt lat="44.62848" lon="5.85946">
        <ele>1333.6</ele>
        <time>2023-05-19T07:34:55Z</time>
      </trkpt>
      <trkpt lat="44.6285" lon="5.85945">
        <ele>1333.6</ele>
        <time>2023-05-19T07:34:56Z</time>
      </trkpt>
      <trkpt lat="44.62851" lon="5.85944">
        <ele>1333.6</ele>
        <time>2023-05-19T07:34:57Z</time>
      </trkpt>
      <trkpt lat="44.62852" lon="5.85943">
        <ele>1333.8</ele>
        <time>2023-05-19T07:34:58Z</time>
      </trkpt>
      <trkpt lat="44.62854" lon="5.85942">
        <ele>1333.8</ele>
        <time>2023-05-19T07:34:59Z</time>
      </trkpt>
      <trkpt lat="44.62855" lon="5.85941">
        <ele>1334</ele>
        <time>2023-05-19T07:35:00Z</time>
      </trkpt>
      <trkpt lat="44.62857" lon="5.8594">
        <ele>1334</ele>
        <time>2023-05-19T07:35:01Z</time>
      </trkpt>
      <trkpt lat="44.62858" lon="5.85939">
        <ele>1334.2</ele>
        <time>2023-05-19T07:35:02Z</time>
      </trkpt>
      <trkpt lat="44.62859" lon="5.85939">
        <ele>1334.4</ele>
        <time>2023-05-19T07:35:03Z</time>
      </trkpt>
      <trkpt lat="44.62861" lon="5.85938">
        <ele>1334.6</ele>
        <time>2023-05-19T07:35:04Z</time>
      </trkpt>
      <trkpt lat="44.62862" lon="5.85938">
        <ele>1334.8</ele>
        <time>2023-05-19T07:35:05Z</time>
      </trkpt>
      <trkpt lat="44.62863" lon="5.85938">
        <ele>1334.8</ele>
        <time>2023-05-19T07:35:06Z</time>
      </trkpt>
      <trkpt lat="44.62864" lon="5.85938">
        <ele>1335</ele>
        <time>2023-05-19T07:35:07Z</time>
      </trkpt>
      <trkpt lat="44.62866" lon="5.85938">
        <ele>1335</ele>
        <time>2023-05-19T07:35:08Z</time>
      </trkpt>
      <trkpt lat="44.62867" lon="5.85938">
        <ele>1335.4</ele>
        <time>2023-05-19T07:35:09Z</time>
      </trkpt>
      <trkpt lat="44.62867" lon="5.85937">
        <ele>1335.6</ele>
        <time>2023-05-19T07:35:10Z</time>
      </trkpt>
      <trkpt lat="44.62869" lon="5.85936">
        <ele>1336</ele>
        <time>2023-05-19T07:35:11Z</time>
      </trkpt>
      <trkpt lat="44.62871" lon="5.85936">
        <ele>1336</ele>
        <time>2023-05-19T07:35:12Z</time>
      </trkpt>
      <trkpt lat="44.62873" lon="5.85935">
        <ele>1336.2</ele>
        <time>2023-05-19T07:35:13Z</time>
      </trkpt>
      <trkpt lat="44.62874" lon="5.85935">
        <ele>1336.2</ele>
        <time>2023-05-19T07:35:14Z</time>
      </trkpt>
      <trkpt lat="44.62876" lon="5.85934">
        <ele>1336.6</ele>
        <time>2023-05-19T07:35:15Z</time>
      </trkpt>
      <trkpt lat="44.62877" lon="5.85934">
        <ele>1336.6</ele>
        <time>2023-05-19T07:35:16Z</time>
      </trkpt>
      <trkpt lat="44.62878" lon="5.85934">
        <ele>1336.8</ele>
        <time>2023-05-19T07:35:17Z</time>
      </trkpt>
      <trkpt lat="44.62879" lon="5.85933">
        <ele>1337</ele>
        <time>2023-05-19T07:35:18Z</time>
      </trkpt>
      <trkpt lat="44.62881" lon="5.85933">
        <ele>1337</ele>
        <time>2023-05-19T07:35:19Z</time>
      </trkpt>
      <trkpt lat="44.62882" lon="5.85933">
        <ele>1337.2</ele>
        <time>2023-05-19T07:35:20Z</time>
      </trkpt>
      <trkpt lat="44.62883" lon="5.85932">
        <ele>1337.2</ele>
        <time>2023-05-19T07:35:21Z</time>
      </trkpt>
      <trkpt lat="44.62885" lon="5.85931">
        <ele>1337.4</ele>
        <time>2023-05-19T07:35:22Z</time>
      </trkpt>
      <trkpt lat="44.62886" lon="5.85929">
        <ele>1337.6</ele>
        <time>2023-05-19T07:35:23Z</time>
      </trkpt>
      <trkpt lat="44.62888" lon="5.85928">
        <ele>1337.8</ele>
        <time>2023-05-19T07:35:24Z</time>
      </trkpt>
      <trkpt lat="44.62889" lon="5.85927">
        <ele>1338.2</ele>
        <time>2023-05-19T07:35:25Z</time>
      </trkpt>
      <trkpt lat="44.6289" lon="5.85927">
        <ele>1338.2</ele>
        <time>2023-05-19T07:35:26Z</time>
      </trkpt>
      <trkpt lat="44.62892" lon="5.85926">
        <ele>1338.4</ele>
        <time>2023-05-19T07:35:27Z</time>
      </trkpt>
      <trkpt lat="44.62894" lon="5.85925">
        <ele>1338.6</ele>
        <time>2023-05-19T07:35:28Z</time>
      </trkpt>
      <trkpt lat="44.62895" lon="5.85924">
        <ele>1339</ele>
        <time>2023-05-19T07:35:29Z</time>
      </trkpt>
      <trkpt lat="44.62896" lon="5.85922">
        <ele>1339</ele>
        <time>2023-05-19T07:35:30Z</time>
      </trkpt>
      <trkpt lat="44.62898" lon="5.8592">
        <ele>1339.2</ele>
        <time>2023-05-19T07:35:31Z</time>
      </trkpt>
      <trkpt lat="44.62899" lon="5.85919">
        <ele>1339.4</ele>
        <time>2023-05-19T07:35:32Z</time>
      </trkpt>
      <trkpt lat="44.629" lon="5.85918">
        <ele>1339.6</ele>
        <time>2023-05-19T07:35:33Z</time>
      </trkpt>
      <trkpt lat="44.62901" lon="5.85917">
        <ele>1339.8</ele>
        <time>2023-05-19T07:35:34Z</time>
      </trkpt>
      <trkpt lat="44.62902" lon="5.85915">
        <ele>1339.8</ele>
        <time>2023-05-19T07:35:35Z</time>
      </trkpt>
      <trkpt lat="44.62904" lon="5.85914">
        <ele>1340.2</ele>
        <time>2023-05-19T07:35:36Z</time>
      </trkpt>
      <trkpt lat="44.62905" lon="5.85913">
        <ele>1340.2</ele>
        <time>2023-05-19T07:35:37Z</time>
      </trkpt>
      <trkpt lat="44.62905" lon="5.85911">
        <ele>1340.4</ele>
        <time>2023-05-19T07:35:38Z</time>
      </trkpt>
      <trkpt lat="44.62906" lon="5.8591">
        <ele>1340.4</ele>
        <time>2023-05-19T07:35:39Z</time>
      </trkpt>
      <trkpt lat="44.62907" lon="5.85908">
        <ele>1340.4</ele>
        <time>2023-05-19T07:35:40Z</time>
      </trkpt>
      <trkpt lat="44.62909" lon="5.85906">
        <ele>1340.6</ele>
        <time>2023-05-19T07:35:41Z</time>
      </trkpt>
      <trkpt lat="44.6291" lon="5.85905">
        <ele>1340.8</ele>
        <time>2023-05-19T07:35:42Z</time>
      </trkpt>
      <trkpt lat="44.6291" lon="5.85903">
        <ele>1341</ele>
        <time>2023-05-19T07:35:43Z</time>
      </trkpt>
      <trkpt lat="44.62911" lon="5.85902">
        <ele>1341.4</ele>
        <time>2023-05-19T07:35:44Z</time>
      </trkpt>
      <trkpt lat="44.62912" lon="5.85901">
        <ele>1341.6</ele>
        <time>2023-05-19T07:35:45Z</time>
      </trkpt>
      <trkpt lat="44.62913" lon="5.85899">
        <ele>1341.8</ele>
        <time>2023-05-19T07:35:46Z</time>
      </trkpt>
      <trkpt lat="44.62914" lon="5.85898">
        <ele>1342</ele>
        <time>2023-05-19T07:35:47Z</time>
      </trkpt>
      <trkpt lat="44.62915" lon="5.85897">
        <ele>1342</ele>
        <time>2023-05-19T07:35:48Z</time>
      </trkpt>
      <trkpt lat="44.62916" lon="5.85896">
        <ele>1342.2</ele>
        <time>2023-05-19T07:35:49Z</time>
      </trkpt>
      <trkpt lat="44.62917" lon="5.85895">
        <ele>1342.4</ele>
        <time>2023-05-19T07:35:50Z</time>
      </trkpt>
      <trkpt lat="44.62918" lon="5.85894">
        <ele>1342.4</ele>
        <time>2023-05-19T07:35:51Z</time>
      </trkpt>
      <trkpt lat="44.62919" lon="5.85894">
        <ele>1342.6</ele>
        <time>2023-05-19T07:35:52Z</time>
      </trkpt>
      <trkpt lat="44.62921" lon="5.85893">
        <ele>1342.8</ele>
        <time>2023-05-19T07:35:53Z</time>
      </trkpt>
      <trkpt lat="44.62921" lon="5.85892">
        <ele>1342.8</ele>
        <time>2023-05-19T07:35:54Z</time>
      </trkpt>
      <trkpt lat="44.62922" lon="5.85891">
        <ele>1343</ele>
        <time>2023-05-19T07:35:55Z</time>
      </trkpt>
      <trkpt lat="44.62923" lon="5.8589">
        <ele>1343</ele>
        <time>2023-05-19T07:35:56Z</time>
      </trkpt>
      <trkpt lat="44.62925" lon="5.8589">
        <ele>1343</ele>
        <time>2023-05-19T07:35:57Z</time>
      </trkpt>
      <trkpt lat="44.62926" lon="5.85889">
        <ele>1343</ele>
        <time>2023-05-19T07:35:58Z</time>
      </trkpt>
      <trkpt lat="44.62928" lon="5.85889">
        <ele>1343</ele>
        <time>2023-05-19T07:35:59Z</time>
      </trkpt>
      <trkpt lat="44.6293" lon="5.85889">
        <ele>1343.2</ele>
        <time>2023-05-19T07:36:00Z</time>
      </trkpt>
      <trkpt lat="44.62931" lon="5.85889">
        <ele>1343.2</ele>
        <time>2023-05-19T07:36:01Z</time>
      </trkpt>
      <trkpt lat="44.62933" lon="5.85889">
        <ele>1343.2</ele>
        <time>2023-05-19T07:36:02Z</time>
      </trkpt>
      <trkpt lat="44.62934" lon="5.85888">
        <ele>1343.2</ele>
        <time>2023-05-19T07:36:03Z</time>
      </trkpt>
      <trkpt lat="44.62936" lon="5.85888">
        <ele>1343.4</ele>
        <time>2023-05-19T07:36:04Z</time>
      </trkpt>
      <trkpt lat="44.62937" lon="5.85888">
        <ele>1343.4</ele>
        <time>2023-05-19T07:36:05Z</time>
      </trkpt>
      <trkpt lat="44.62939" lon="5.85887">
        <ele>1343.6</ele>
        <time>2023-05-19T07:36:06Z</time>
      </trkpt>
      <trkpt lat="44.62941" lon="5.85887">
        <ele>1343.8</ele>
        <time>2023-05-19T07:36:07Z</time>
      </trkpt>
      <trkpt lat="44.62943" lon="5.85887">
        <ele>1343.8</ele>
        <time>2023-05-19T07:36:08Z</time>
      </trkpt>
      <trkpt lat="44.62945" lon="5.85886">
        <ele>1343.8</ele>
        <time>2023-05-19T07:36:09Z</time>
      </trkpt>
      <trkpt lat="44.62946" lon="5.85885">
        <ele>1344</ele>
        <time>2023-05-19T07:36:10Z</time>
      </trkpt>
      <trkpt lat="44.62948" lon="5.85884">
        <ele>1344</ele>
        <time>2023-05-19T07:36:11Z</time>
      </trkpt>
      <trkpt lat="44.62949" lon="5.85883">
        <ele>1344.2</ele>
        <time>2023-05-19T07:36:12Z</time>
      </trkpt>
      <trkpt lat="44.6295" lon="5.8588">
        <ele>1344.2</ele>
        <time>2023-05-19T07:36:13Z</time>
      </trkpt>
      <trkpt lat="44.62951" lon="5.85878">
        <ele>1344.2</ele>
        <time>2023-05-19T07:36:14Z</time>
      </trkpt>
      <trkpt lat="44.62952" lon="5.85876">
        <ele>1344.4</ele>
        <time>2023-05-19T07:36:15Z</time>
      </trkpt>
      <trkpt lat="44.62954" lon="5.85869">
        <ele>1344.6</ele>
        <time>2023-05-19T07:36:18Z</time>
      </trkpt>
      <trkpt lat="44.62956" lon="5.85866">
        <ele>1344.8</ele>
        <time>2023-05-19T07:36:20Z</time>
      </trkpt>
      <trkpt lat="44.62962" lon="5.85854">
        <ele>1345.6</ele>
        <time>2023-05-19T07:36:26Z</time>
      </trkpt>
      <trkpt lat="44.62962" lon="5.85853">
        <ele>1345.6</ele>
        <time>2023-05-19T07:36:27Z</time>
      </trkpt>
      <trkpt lat="44.62963" lon="5.85851">
        <ele>1345.8</ele>
        <time>2023-05-19T07:36:28Z</time>
      </trkpt>
      <trkpt lat="44.62964" lon="5.8585">
        <ele>1345.8</ele>
        <time>2023-05-19T07:36:29Z</time>
      </trkpt>
      <trkpt lat="44.62965" lon="5.85849">
        <ele>1345.8</ele>
        <time>2023-05-19T07:36:30Z</time>
      </trkpt>
      <trkpt lat="44.62968" lon="5.85846">
        <ele>1346</ele>
        <time>2023-05-19T07:36:32Z</time>
      </trkpt>
      <trkpt lat="44.62975" lon="5.85841">
        <ele>1346.6</ele>
        <time>2023-05-19T07:36:37Z</time>
      </trkpt>
      <trkpt lat="44.62978" lon="5.8584">
        <ele>1347</ele>
        <time>2023-05-19T07:36:39Z</time>
      </trkpt>
      <trkpt lat="44.62981" lon="5.85839">
        <ele>1347.2</ele>
        <time>2023-05-19T07:36:41Z</time>
      </trkpt>
      <trkpt lat="44.62985" lon="5.85837">
        <ele>1347.6</ele>
        <time>2023-05-19T07:36:44Z</time>
      </trkpt>
      <trkpt lat="44.62987" lon="5.85836">
        <ele>1347.8</ele>
        <time>2023-05-19T07:36:45Z</time>
      </trkpt>
      <trkpt lat="44.62989" lon="5.85835">
        <ele>1347.8</ele>
        <time>2023-05-19T07:36:46Z</time>
      </trkpt>
      <trkpt lat="44.6299" lon="5.85834">
        <ele>1348</ele>
        <time>2023-05-19T07:36:47Z</time>
      </trkpt>
      <trkpt lat="44.62991" lon="5.85833">
        <ele>1348.2</ele>
        <time>2023-05-19T07:36:48Z</time>
      </trkpt>
      <trkpt lat="44.62993" lon="5.85832">
        <ele>1348.2</ele>
        <time>2023-05-19T07:36:49Z</time>
      </trkpt>
      <trkpt lat="44.62994" lon="5.85831">
        <ele>1348.6</ele>
        <time>2023-05-19T07:36:50Z</time>
      </trkpt>
      <trkpt lat="44.62995" lon="5.85829">
        <ele>1348.6</ele>
        <time>2023-05-19T07:36:51Z</time>
      </trkpt>
      <trkpt lat="44.62996" lon="5.85828">
        <ele>1348.8</ele>
        <time>2023-05-19T07:36:52Z</time>
      </trkpt>
      <trkpt lat="44.62997" lon="5.85827">
        <ele>1348.8</ele>
        <time>2023-05-19T07:36:53Z</time>
      </trkpt>
      <trkpt lat="44.62999" lon="5.85826">
        <ele>1349</ele>
        <time>2023-05-19T07:36:54Z</time>
      </trkpt>
      <trkpt lat="44.63" lon="5.85825">
        <ele>1349.2</ele>
        <time>2023-05-19T07:36:55Z</time>
      </trkpt>
      <trkpt lat="44.63002" lon="5.85824">
        <ele>1349.2</ele>
        <time>2023-05-19T07:36:56Z</time>
      </trkpt>
      <trkpt lat="44.63003" lon="5.85823">
        <ele>1349.4</ele>
        <time>2023-05-19T07:36:57Z</time>
      </trkpt>
      <trkpt lat="44.63004" lon="5.85823">
        <ele>1349.4</ele>
        <time>2023-05-19T07:36:58Z</time>
      </trkpt>
      <trkpt lat="44.63005" lon="5.85822">
        <ele>1349.6</ele>
        <time>2023-05-19T07:36:59Z</time>
      </trkpt>
      <trkpt lat="44.63006" lon="5.85821">
        <ele>1349.6</ele>
        <time>2023-05-19T07:37:00Z</time>
      </trkpt>
      <trkpt lat="44.63008" lon="5.85821">
        <ele>1349.6</ele>
        <time>2023-05-19T07:37:01Z</time>
      </trkpt>
      <trkpt lat="44.63009" lon="5.85822">
        <ele>1349.6</ele>
        <time>2023-05-19T07:37:02Z</time>
      </trkpt>
      <trkpt lat="44.6301" lon="5.85823">
        <ele>1349.6</ele>
        <time>2023-05-19T07:37:03Z</time>
      </trkpt>
      <trkpt lat="44.63012" lon="5.85824">
        <ele>1349.6</ele>
        <time>2023-05-19T07:37:04Z</time>
      </trkpt>
      <trkpt lat="44.63013" lon="5.85826">
        <ele>1349.8</ele>
        <time>2023-05-19T07:37:05Z</time>
      </trkpt>
      <trkpt lat="44.63014" lon="5.85828">
        <ele>1349.8</ele>
        <time>2023-05-19T07:37:06Z</time>
      </trkpt>
      <trkpt lat="44.63014" lon="5.8583">
        <ele>1349.8</ele>
        <time>2023-05-19T07:37:07Z</time>
      </trkpt>
      <trkpt lat="44.63014" lon="5.85833">
        <ele>1349.8</ele>
        <time>2023-05-19T07:37:08Z</time>
      </trkpt>
      <trkpt lat="44.63014" lon="5.85836">
        <ele>1349.8</ele>
        <time>2023-05-19T07:37:09Z</time>
      </trkpt>
      <trkpt lat="44.63013" lon="5.85838">
        <ele>1350</ele>
        <time>2023-05-19T07:37:10Z</time>
      </trkpt>
      <trkpt lat="44.63011" lon="5.85843">
        <ele>1350</ele>
        <time>2023-05-19T07:37:12Z</time>
      </trkpt>
      <trkpt lat="44.63009" lon="5.85845">
        <ele>1350.2</ele>
        <time>2023-05-19T07:37:13Z</time>
      </trkpt>
      <trkpt lat="44.63008" lon="5.85847">
        <ele>1350.2</ele>
        <time>2023-05-19T07:37:14Z</time>
      </trkpt>
      <trkpt lat="44.63005" lon="5.85849">
        <ele>1350.2</ele>
        <time>2023-05-19T07:37:16Z</time>
      </trkpt>
      <trkpt lat="44.63002" lon="5.85851">
        <ele>1350.4</ele>
        <time>2023-05-19T07:37:18Z</time>
      </trkpt>
      <trkpt lat="44.62999" lon="5.85853">
        <ele>1350.4</ele>
        <time>2023-05-19T07:37:20Z</time>
      </trkpt>
      <trkpt lat="44.62998" lon="5.85855">
        <ele>1350.4</ele>
        <time>2023-05-19T07:37:21Z</time>
      </trkpt>
      <trkpt lat="44.62996" lon="5.85856">
        <ele>1350.4</ele>
        <time>2023-05-19T07:37:22Z</time>
      </trkpt>
      <trkpt lat="44.62995" lon="5.85857">
        <ele>1350.6</ele>
        <time>2023-05-19T07:37:23Z</time>
      </trkpt>
      <trkpt lat="44.62994" lon="5.85858">
        <ele>1350.6</ele>
        <time>2023-05-19T07:37:24Z</time>
      </trkpt>
      <trkpt lat="44.62993" lon="5.8586">
        <ele>1350.6</ele>
        <time>2023-05-19T07:37:25Z</time>
      </trkpt>
      <trkpt lat="44.6299" lon="5.85867">
        <ele>1350.8</ele>
        <time>2023-05-19T07:37:28Z</time>
      </trkpt>
      <trkpt lat="44.6299" lon="5.85869">
        <ele>1351</ele>
        <time>2023-05-19T07:37:29Z</time>
      </trkpt>
      <trkpt lat="44.6299" lon="5.85871">
        <ele>1351</ele>
        <time>2023-05-19T07:37:30Z</time>
      </trkpt>
      <trkpt lat="44.6299" lon="5.85873">
        <ele>1351.4</ele>
        <time>2023-05-19T07:37:31Z</time>
      </trkpt>
      <trkpt lat="44.6299" lon="5.85876">
        <ele>1351.4</ele>
        <time>2023-05-19T07:37:32Z</time>
      </trkpt>
      <trkpt lat="44.6299" lon="5.8588">
        <ele>1351.8</ele>
        <time>2023-05-19T07:37:34Z</time>
      </trkpt>
      <trkpt lat="44.62993" lon="5.85891">
        <ele>1352.6</ele>
        <time>2023-05-19T07:37:39Z</time>
      </trkpt>
      <trkpt lat="44.62994" lon="5.85895">
        <ele>1352.8</ele>
        <time>2023-05-19T07:37:41Z</time>
      </trkpt>
      <trkpt lat="44.62998" lon="5.85904">
        <ele>1353.6</ele>
        <time>2023-05-19T07:37:46Z</time>
      </trkpt>
      <trkpt lat="44.62999" lon="5.85906">
        <ele>1353.8</ele>
        <time>2023-05-19T07:37:47Z</time>
      </trkpt>
      <trkpt lat="44.63" lon="5.85908">
        <ele>1353.8</ele>
        <time>2023-05-19T07:37:48Z</time>
      </trkpt>
      <trkpt lat="44.63001" lon="5.85909">
        <ele>1354</ele>
        <time>2023-05-19T07:37:49Z</time>
      </trkpt>
      <trkpt lat="44.63001" lon="5.85911">
        <ele>1354</ele>
        <time>2023-05-19T07:37:50Z</time>
      </trkpt>
      <trkpt lat="44.63002" lon="5.85913">
        <ele>1354</ele>
        <time>2023-05-19T07:37:51Z</time>
      </trkpt>
      <trkpt lat="44.63002" lon="5.85915">
        <ele>1354</ele>
        <time>2023-05-19T07:37:52Z</time>
      </trkpt>
      <trkpt lat="44.63003" lon="5.85917">
        <ele>1354.4</ele>
        <time>2023-05-19T07:37:53Z</time>
      </trkpt>
      <trkpt lat="44.63004" lon="5.85918">
        <ele>1354.6</ele>
        <time>2023-05-19T07:37:54Z</time>
      </trkpt>
      <trkpt lat="44.63005" lon="5.8592">
        <ele>1354.8</ele>
        <time>2023-05-19T07:37:55Z</time>
      </trkpt>
      <trkpt lat="44.63005" lon="5.85922">
        <ele>1355</ele>
        <time>2023-05-19T07:37:56Z</time>
      </trkpt>
      <trkpt lat="44.63006" lon="5.85924">
        <ele>1355</ele>
        <time>2023-05-19T07:37:57Z</time>
      </trkpt>
      <trkpt lat="44.63007" lon="5.85926">
        <ele>1355.2</ele>
        <time>2023-05-19T07:37:58Z</time>
      </trkpt>
      <trkpt lat="44.63008" lon="5.85928">
        <ele>1355.4</ele>
        <time>2023-05-19T07:37:59Z</time>
      </trkpt>
      <trkpt lat="44.63008" lon="5.85929">
        <ele>1355.4</ele>
        <time>2023-05-19T07:38:00Z</time>
      </trkpt>
      <trkpt lat="44.63009" lon="5.85931">
        <ele>1355.6</ele>
        <time>2023-05-19T07:38:01Z</time>
      </trkpt>
      <trkpt lat="44.63009" lon="5.85933">
        <ele>1355.6</ele>
        <time>2023-05-19T07:38:02Z</time>
      </trkpt>
      <trkpt lat="44.6301" lon="5.85935">
        <ele>1355.6</ele>
        <time>2023-05-19T07:38:03Z</time>
      </trkpt>
      <trkpt lat="44.6301" lon="5.85937">
        <ele>1355.8</ele>
        <time>2023-05-19T07:38:04Z</time>
      </trkpt>
      <trkpt lat="44.6301" lon="5.85939">
        <ele>1355.8</ele>
        <time>2023-05-19T07:38:05Z</time>
      </trkpt>
      <trkpt lat="44.6301" lon="5.85941">
        <ele>1356</ele>
        <time>2023-05-19T07:38:06Z</time>
      </trkpt>
      <trkpt lat="44.63011" lon="5.85943">
        <ele>1356</ele>
        <time>2023-05-19T07:38:07Z</time>
      </trkpt>
      <trkpt lat="44.63011" lon="5.85946">
        <ele>1356</ele>
        <time>2023-05-19T07:38:08Z</time>
      </trkpt>
      <trkpt lat="44.63012" lon="5.85948">
        <ele>1356.4</ele>
        <time>2023-05-19T07:38:09Z</time>
      </trkpt>
      <trkpt lat="44.63013" lon="5.8595">
        <ele>1356.4</ele>
        <time>2023-05-19T07:38:10Z</time>
      </trkpt>
      <trkpt lat="44.63013" lon="5.85952">
        <ele>1356.6</ele>
        <time>2023-05-19T07:38:11Z</time>
      </trkpt>
      <trkpt lat="44.63014" lon="5.85953">
        <ele>1356.6</ele>
        <time>2023-05-19T07:38:12Z</time>
      </trkpt>
      <trkpt lat="44.63014" lon="5.85955">
        <ele>1356.8</ele>
        <time>2023-05-19T07:38:13Z</time>
      </trkpt>
      <trkpt lat="44.63015" lon="5.85958">
        <ele>1356.8</ele>
        <time>2023-05-19T07:38:14Z</time>
      </trkpt>
      <trkpt lat="44.63015" lon="5.85959">
        <ele>1357.2</ele>
        <time>2023-05-19T07:38:15Z</time>
      </trkpt>
      <trkpt lat="44.63015" lon="5.85961">
        <ele>1357.4</ele>
        <time>2023-05-19T07:38:16Z</time>
      </trkpt>
      <trkpt lat="44.63016" lon="5.85963">
        <ele>1357.4</ele>
        <time>2023-05-19T07:38:17Z</time>
      </trkpt>
      <trkpt lat="44.63016" lon="5.85965">
        <ele>1357.6</ele>
        <time>2023-05-19T07:38:18Z</time>
      </trkpt>
      <trkpt lat="44.63016" lon="5.85967">
        <ele>1357.8</ele>
        <time>2023-05-19T07:38:19Z</time>
      </trkpt>
      <trkpt lat="44.63017" lon="5.85969">
        <ele>1358</ele>
        <time>2023-05-19T07:38:20Z</time>
      </trkpt>
      <trkpt lat="44.63017" lon="5.85972">
        <ele>1358</ele>
        <time>2023-05-19T07:38:21Z</time>
      </trkpt>
      <trkpt lat="44.63017" lon="5.85974">
        <ele>1358.4</ele>
        <time>2023-05-19T07:38:22Z</time>
      </trkpt>
      <trkpt lat="44.63016" lon="5.85976">
        <ele>1358.4</ele>
        <time>2023-05-19T07:38:23Z</time>
      </trkpt>
      <trkpt lat="44.63016" lon="5.85978">
        <ele>1358.4</ele>
        <time>2023-05-19T07:38:24Z</time>
      </trkpt>
      <trkpt lat="44.63015" lon="5.8598">
        <ele>1358.6</ele>
        <time>2023-05-19T07:38:25Z</time>
      </trkpt>
      <trkpt lat="44.63015" lon="5.85982">
        <ele>1358.8</ele>
        <time>2023-05-19T07:38:26Z</time>
      </trkpt>
      <trkpt lat="44.63014" lon="5.85984">
        <ele>1359</ele>
        <time>2023-05-19T07:38:27Z</time>
      </trkpt>
      <trkpt lat="44.63014" lon="5.85986">
        <ele>1359</ele>
        <time>2023-05-19T07:38:28Z</time>
      </trkpt>
      <trkpt lat="44.63013" lon="5.85987">
        <ele>1359.4</ele>
        <time>2023-05-19T07:38:29Z</time>
      </trkpt>
      <trkpt lat="44.63012" lon="5.85989">
        <ele>1359.4</ele>
        <time>2023-05-19T07:38:30Z</time>
      </trkpt>
      <trkpt lat="44.63011" lon="5.85991">
        <ele>1359.6</ele>
        <time>2023-05-19T07:38:31Z</time>
      </trkpt>
      <trkpt lat="44.63009" lon="5.85992">
        <ele>1359.6</ele>
        <time>2023-05-19T07:38:32Z</time>
      </trkpt>
      <trkpt lat="44.63008" lon="5.85993">
        <ele>1359.6</ele>
        <time>2023-05-19T07:38:33Z</time>
      </trkpt>
      <trkpt lat="44.63006" lon="5.85994">
        <ele>1359.8</ele>
        <time>2023-05-19T07:38:34Z</time>
      </trkpt>
      <trkpt lat="44.63004" lon="5.85994">
        <ele>1359.8</ele>
        <time>2023-05-19T07:38:35Z</time>
      </trkpt>
      <trkpt lat="44.63002" lon="5.85994">
        <ele>1359.8</ele>
        <time>2023-05-19T07:38:36Z</time>
      </trkpt>
      <trkpt lat="44.63" lon="5.85994">
        <ele>1360</ele>
        <time>2023-05-19T07:38:37Z</time>
      </trkpt>
      <trkpt lat="44.62998" lon="5.85994">
        <ele>1360</ele>
        <time>2023-05-19T07:38:38Z</time>
      </trkpt>
      <trkpt lat="44.62996" lon="5.85993">
        <ele>1359.8</ele>
        <time>2023-05-19T07:38:39Z</time>
      </trkpt>
      <trkpt lat="44.62994" lon="5.85993">
        <ele>1359.8</ele>
        <time>2023-05-19T07:38:40Z</time>
      </trkpt>
      <trkpt lat="44.62992" lon="5.85992">
        <ele>1359.8</ele>
        <time>2023-05-19T07:38:41Z</time>
      </trkpt>
      <trkpt lat="44.62991" lon="5.85991">
        <ele>1360</ele>
        <time>2023-05-19T07:38:42Z</time>
      </trkpt>
      <trkpt lat="44.62989" lon="5.8599">
        <ele>1360</ele>
        <time>2023-05-19T07:38:43Z</time>
      </trkpt>
      <trkpt lat="44.62987" lon="5.8599">
        <ele>1360</ele>
        <time>2023-05-19T07:38:44Z</time>
      </trkpt>
      <trkpt lat="44.62985" lon="5.85989">
        <ele>1360</ele>
        <time>2023-05-19T07:38:45Z</time>
      </trkpt>
      <trkpt lat="44.62973" lon="5.85989">
        <ele>1360</ele>
        <time>2023-05-19T07:38:51Z</time>
      </trkpt>
      <trkpt lat="44.62972" lon="5.85989">
        <ele>1360</ele>
        <time>2023-05-19T07:38:52Z</time>
      </trkpt>
      <trkpt lat="44.62967" lon="5.8599">
        <ele>1360.6</ele>
        <time>2023-05-19T07:38:55Z</time>
      </trkpt>
      <trkpt lat="44.62965" lon="5.85991">
        <ele>1360.8</ele>
        <time>2023-05-19T07:38:56Z</time>
      </trkpt>
      <trkpt lat="44.62963" lon="5.85992">
        <ele>1361</ele>
        <time>2023-05-19T07:38:57Z</time>
      </trkpt>
      <trkpt lat="44.62962" lon="5.85992">
        <ele>1361</ele>
        <time>2023-05-19T07:38:58Z</time>
      </trkpt>
      <trkpt lat="44.6296" lon="5.85993">
        <ele>1361</ele>
        <time>2023-05-19T07:38:59Z</time>
      </trkpt>
      <trkpt lat="44.62959" lon="5.85993">
        <ele>1361.2</ele>
        <time>2023-05-19T07:39:00Z</time>
      </trkpt>
      <trkpt lat="44.62957" lon="5.85993">
        <ele>1361.2</ele>
        <time>2023-05-19T07:39:01Z</time>
      </trkpt>
      <trkpt lat="44.62955" lon="5.85994">
        <ele>1361.4</ele>
        <time>2023-05-19T07:39:02Z</time>
      </trkpt>
      <trkpt lat="44.62954" lon="5.85994">
        <ele>1361.6</ele>
        <time>2023-05-19T07:39:03Z</time>
      </trkpt>
      <trkpt lat="44.62952" lon="5.85995">
        <ele>1361.8</ele>
        <time>2023-05-19T07:39:04Z</time>
      </trkpt>
      <trkpt lat="44.62947" lon="5.85996">
        <ele>1362.2</ele>
        <time>2023-05-19T07:39:07Z</time>
      </trkpt>
      <trkpt lat="44.62946" lon="5.85996">
        <ele>1362.2</ele>
        <time>2023-05-19T07:39:08Z</time>
      </trkpt>
      <trkpt lat="44.62944" lon="5.85996">
        <ele>1362.4</ele>
        <time>2023-05-19T07:39:09Z</time>
      </trkpt>
      <trkpt lat="44.62939" lon="5.85996">
        <ele>1362.8</ele>
        <time>2023-05-19T07:39:12Z</time>
      </trkpt>
      <trkpt lat="44.62937" lon="5.85997">
        <ele>1363</ele>
        <time>2023-05-19T07:39:13Z</time>
      </trkpt>
      <trkpt lat="44.62935" lon="5.85998">
        <ele>1363.2</ele>
        <time>2023-05-19T07:39:14Z</time>
      </trkpt>
      <trkpt lat="44.62933" lon="5.85999">
        <ele>1363.4</ele>
        <time>2023-05-19T07:39:15Z</time>
      </trkpt>
      <trkpt lat="44.62932" lon="5.85999">
        <ele>1363.6</ele>
        <time>2023-05-19T07:39:16Z</time>
      </trkpt>
      <trkpt lat="44.6293" lon="5.86">
        <ele>1363.8</ele>
        <time>2023-05-19T07:39:17Z</time>
      </trkpt>
      <trkpt lat="44.62928" lon="5.86001">
        <ele>1364.2</ele>
        <time>2023-05-19T07:39:18Z</time>
      </trkpt>
      <trkpt lat="44.62926" lon="5.86003">
        <ele>1364.4</ele>
        <time>2023-05-19T07:39:19Z</time>
      </trkpt>
      <trkpt lat="44.62925" lon="5.86004">
        <ele>1364.4</ele>
        <time>2023-05-19T07:39:20Z</time>
      </trkpt>
      <trkpt lat="44.62924" lon="5.86007">
        <ele>1364.6</ele>
        <time>2023-05-19T07:39:21Z</time>
      </trkpt>
      <trkpt lat="44.62923" lon="5.86009">
        <ele>1364.6</ele>
        <time>2023-05-19T07:39:22Z</time>
      </trkpt>
      <trkpt lat="44.62922" lon="5.86011">
        <ele>1364.8</ele>
        <time>2023-05-19T07:39:23Z</time>
      </trkpt>
      <trkpt lat="44.6292" lon="5.86013">
        <ele>1364.8</ele>
        <time>2023-05-19T07:39:24Z</time>
      </trkpt>
      <trkpt lat="44.62919" lon="5.86015">
        <ele>1365</ele>
        <time>2023-05-19T07:39:25Z</time>
      </trkpt>
      <trkpt lat="44.62918" lon="5.86017">
        <ele>1365</ele>
        <time>2023-05-19T07:39:26Z</time>
      </trkpt>
      <trkpt lat="44.62917" lon="5.86019">
        <ele>1365.2</ele>
        <time>2023-05-19T07:39:27Z</time>
      </trkpt>
      <trkpt lat="44.62916" lon="5.86021">
        <ele>1365.2</ele>
        <time>2023-05-19T07:39:28Z</time>
      </trkpt>
      <trkpt lat="44.62915" lon="5.86023">
        <ele>1365.4</ele>
        <time>2023-05-19T07:39:29Z</time>
      </trkpt>
      <trkpt lat="44.62914" lon="5.86024">
        <ele>1365.4</ele>
        <time>2023-05-19T07:39:30Z</time>
      </trkpt>
      <trkpt lat="44.62914" lon="5.86025">
        <ele>1365.6</ele>
        <time>2023-05-19T07:39:31Z</time>
      </trkpt>
      <trkpt lat="44.62913" lon="5.86026">
        <ele>1365.6</ele>
        <time>2023-05-19T07:39:32Z</time>
      </trkpt>
      <trkpt lat="44.62912" lon="5.86028">
        <ele>1365.8</ele>
        <time>2023-05-19T07:39:33Z</time>
      </trkpt>
      <trkpt lat="44.62911" lon="5.86029">
        <ele>1365.8</ele>
        <time>2023-05-19T07:39:34Z</time>
      </trkpt>
      <trkpt lat="44.6291" lon="5.86031">
        <ele>1366</ele>
        <time>2023-05-19T07:39:35Z</time>
      </trkpt>
      <trkpt lat="44.62909" lon="5.86032">
        <ele>1366.4</ele>
        <time>2023-05-19T07:39:36Z</time>
      </trkpt>
      <trkpt lat="44.62908" lon="5.86033">
        <ele>1366.6</ele>
        <time>2023-05-19T07:39:37Z</time>
      </trkpt>
      <trkpt lat="44.62906" lon="5.86035">
        <ele>1366.8</ele>
        <time>2023-05-19T07:39:38Z</time>
      </trkpt>
      <trkpt lat="44.62905" lon="5.86036">
        <ele>1366.8</ele>
        <time>2023-05-19T07:39:39Z</time>
      </trkpt>
      <trkpt lat="44.62905" lon="5.86037">
        <ele>1367</ele>
        <time>2023-05-19T07:39:40Z</time>
      </trkpt>
      <trkpt lat="44.62905" lon="5.86038">
        <ele>1367</ele>
        <time>2023-05-19T07:39:41Z</time>
      </trkpt>
      <trkpt lat="44.62904" lon="5.86039">
        <ele>1367.2</ele>
        <time>2023-05-19T07:39:42Z</time>
      </trkpt>
      <trkpt lat="44.62903" lon="5.86041">
        <ele>1367.4</ele>
        <time>2023-05-19T07:39:43Z</time>
      </trkpt>
      <trkpt lat="44.62902" lon="5.86042">
        <ele>1367.4</ele>
        <time>2023-05-19T07:39:44Z</time>
      </trkpt>
      <trkpt lat="44.62901" lon="5.86044">
        <ele>1367.6</ele>
        <time>2023-05-19T07:39:45Z</time>
      </trkpt>
      <trkpt lat="44.62899" lon="5.86046">
        <ele>1368</ele>
        <time>2023-05-19T07:39:46Z</time>
      </trkpt>
      <trkpt lat="44.62898" lon="5.86047">
        <ele>1368.2</ele>
        <time>2023-05-19T07:39:47Z</time>
      </trkpt>
      <trkpt lat="44.62897" lon="5.86048">
        <ele>1368.2</ele>
        <time>2023-05-19T07:39:48Z</time>
      </trkpt>
      <trkpt lat="44.62897" lon="5.86049">
        <ele>1368.4</ele>
        <time>2023-05-19T07:39:49Z</time>
      </trkpt>
      <trkpt lat="44.62896" lon="5.8605">
        <ele>1368.6</ele>
        <time>2023-05-19T07:39:50Z</time>
      </trkpt>
      <trkpt lat="44.62895" lon="5.86051">
        <ele>1368.8</ele>
        <time>2023-05-19T07:39:51Z</time>
      </trkpt>
      <trkpt lat="44.62895" lon="5.86052">
        <ele>1369</ele>
        <time>2023-05-19T07:39:52Z</time>
      </trkpt>
      <trkpt lat="44.62893" lon="5.86053">
        <ele>1369</ele>
        <time>2023-05-19T07:39:53Z</time>
      </trkpt>
      <trkpt lat="44.62892" lon="5.86054">
        <ele>1369.4</ele>
        <time>2023-05-19T07:39:54Z</time>
      </trkpt>
      <trkpt lat="44.62891" lon="5.86055">
        <ele>1369.6</ele>
        <time>2023-05-19T07:39:55Z</time>
      </trkpt>
      <trkpt lat="44.6289" lon="5.86056">
        <ele>1369.6</ele>
        <time>2023-05-19T07:39:56Z</time>
      </trkpt>
      <trkpt lat="44.62888" lon="5.86057">
        <ele>1369.8</ele>
        <time>2023-05-19T07:39:57Z</time>
      </trkpt>
      <trkpt lat="44.62887" lon="5.86059">
        <ele>1369.8</ele>
        <time>2023-05-19T07:39:58Z</time>
      </trkpt>
      <trkpt lat="44.62885" lon="5.8606">
        <ele>1370</ele>
        <time>2023-05-19T07:39:59Z</time>
      </trkpt>
      <trkpt lat="44.62884" lon="5.86062">
        <ele>1370</ele>
        <time>2023-05-19T07:40:00Z</time>
      </trkpt>
      <trkpt lat="44.62883" lon="5.86064">
        <ele>1370.2</ele>
        <time>2023-05-19T07:40:01Z</time>
      </trkpt>
      <trkpt lat="44.62882" lon="5.86066">
        <ele>1370.2</ele>
        <time>2023-05-19T07:40:02Z</time>
      </trkpt>
      <trkpt lat="44.62882" lon="5.86068">
        <ele>1370.2</ele>
        <time>2023-05-19T07:40:03Z</time>
      </trkpt>
      <trkpt lat="44.62882" lon="5.86069">
        <ele>1370.4</ele>
        <time>2023-05-19T07:40:04Z</time>
      </trkpt>
      <trkpt lat="44.62881" lon="5.86072">
        <ele>1370.4</ele>
        <time>2023-05-19T07:40:05Z</time>
      </trkpt>
      <trkpt lat="44.6288" lon="5.86074">
        <ele>1370.4</ele>
        <time>2023-05-19T07:40:06Z</time>
      </trkpt>
      <trkpt lat="44.6288" lon="5.86075">
        <ele>1370.4</ele>
        <time>2023-05-19T07:40:07Z</time>
      </trkpt>
      <trkpt lat="44.6288" lon="5.86077">
        <ele>1370.4</ele>
        <time>2023-05-19T07:40:08Z</time>
      </trkpt>
      <trkpt lat="44.6288" lon="5.86079">
        <ele>1370.4</ele>
        <time>2023-05-19T07:40:09Z</time>
      </trkpt>
      <trkpt lat="44.62879" lon="5.8608">
        <ele>1370.6</ele>
        <time>2023-05-19T07:40:10Z</time>
      </trkpt>
      <trkpt lat="44.62879" lon="5.86082">
        <ele>1370.6</ele>
        <time>2023-05-19T07:40:11Z</time>
      </trkpt>
      <trkpt lat="44.62879" lon="5.86084">
        <ele>1370.8</ele>
        <time>2023-05-19T07:40:12Z</time>
      </trkpt>
      <trkpt lat="44.6288" lon="5.86086">
        <ele>1371</ele>
        <time>2023-05-19T07:40:13Z</time>
      </trkpt>
      <trkpt lat="44.6288" lon="5.86087">
        <ele>1371</ele>
        <time>2023-05-19T07:40:14Z</time>
      </trkpt>
      <trkpt lat="44.6288" lon="5.8609">
        <ele>1371.2</ele>
        <time>2023-05-19T07:40:15Z</time>
      </trkpt>
      <trkpt lat="44.6288" lon="5.86097">
        <ele>1371.6</ele>
        <time>2023-05-19T07:40:18Z</time>
      </trkpt>
      <trkpt lat="44.6288" lon="5.86105">
        <ele>1372.4</ele>
        <time>2023-05-19T07:40:22Z</time>
      </trkpt>
      <trkpt lat="44.6288" lon="5.86108">
        <ele>1372.6</ele>
        <time>2023-05-19T07:40:23Z</time>
      </trkpt>
      <trkpt lat="44.6288" lon="5.8611">
        <ele>1372.8</ele>
        <time>2023-05-19T07:40:24Z</time>
      </trkpt>
      <trkpt lat="44.6288" lon="5.86112">
        <ele>1373</ele>
        <time>2023-05-19T07:40:25Z</time>
      </trkpt>
      <trkpt lat="44.6288" lon="5.86114">
        <ele>1373.2</ele>
        <time>2023-05-19T07:40:26Z</time>
      </trkpt>
      <trkpt lat="44.6288" lon="5.86116">
        <ele>1373.2</ele>
        <time>2023-05-19T07:40:27Z</time>
      </trkpt>
      <trkpt lat="44.6288" lon="5.86118">
        <ele>1373.4</ele>
        <time>2023-05-19T07:40:28Z</time>
      </trkpt>
      <trkpt lat="44.6288" lon="5.8612">
        <ele>1373.6</ele>
        <time>2023-05-19T07:40:29Z</time>
      </trkpt>
      <trkpt lat="44.6288" lon="5.86122">
        <ele>1373.6</ele>
        <time>2023-05-19T07:40:30Z</time>
      </trkpt>
      <trkpt lat="44.6288" lon="5.86124">
        <ele>1373.6</ele>
        <time>2023-05-19T07:40:31Z</time>
      </trkpt>
      <trkpt lat="44.6288" lon="5.86126">
        <ele>1373.6</ele>
        <time>2023-05-19T07:40:32Z</time>
      </trkpt>
      <trkpt lat="44.62881" lon="5.86128">
        <ele>1373.8</ele>
        <time>2023-05-19T07:40:33Z</time>
      </trkpt>
      <trkpt lat="44.62881" lon="5.86129">
        <ele>1373.8</ele>
        <time>2023-05-19T07:40:34Z</time>
      </trkpt>
      <trkpt lat="44.62881" lon="5.86131">
        <ele>1374</ele>
        <time>2023-05-19T07:40:35Z</time>
      </trkpt>
      <trkpt lat="44.62881" lon="5.86133">
        <ele>1374</ele>
        <time>2023-05-19T07:40:36Z</time>
      </trkpt>
      <trkpt lat="44.62881" lon="5.86134">
        <ele>1374.6</ele>
        <time>2023-05-19T07:40:37Z</time>
      </trkpt>
      <trkpt lat="44.62882" lon="5.86136">
        <ele>1374.6</ele>
        <time>2023-05-19T07:40:38Z</time>
      </trkpt>
      <trkpt lat="44.62883" lon="5.86137">
        <ele>1375</ele>
        <time>2023-05-19T07:40:39Z</time>
      </trkpt>
      <trkpt lat="44.62883" lon="5.86139">
        <ele>1375</ele>
        <time>2023-05-19T07:40:40Z</time>
      </trkpt>
      <trkpt lat="44.62884" lon="5.86141">
        <ele>1375.2</ele>
        <time>2023-05-19T07:40:41Z</time>
      </trkpt>
      <trkpt lat="44.62885" lon="5.86143">
        <ele>1375.2</ele>
        <time>2023-05-19T07:40:42Z</time>
      </trkpt>
      <trkpt lat="44.62886" lon="5.86144">
        <ele>1375.4</ele>
        <time>2023-05-19T07:40:43Z</time>
      </trkpt>
      <trkpt lat="44.62887" lon="5.86146">
        <ele>1375.4</ele>
        <time>2023-05-19T07:40:44Z</time>
      </trkpt>
      <trkpt lat="44.62888" lon="5.86147">
        <ele>1375.6</ele>
        <time>2023-05-19T07:40:45Z</time>
      </trkpt>
      <trkpt lat="44.62889" lon="5.86149">
        <ele>1375.8</ele>
        <time>2023-05-19T07:40:46Z</time>
      </trkpt>
      <trkpt lat="44.6289" lon="5.86151">
        <ele>1375.8</ele>
        <time>2023-05-19T07:40:47Z</time>
      </trkpt>
      <trkpt lat="44.62891" lon="5.86153">
        <ele>1375.8</ele>
        <time>2023-05-19T07:40:48Z</time>
      </trkpt>
      <trkpt lat="44.62891" lon="5.86155">
        <ele>1375.8</ele>
        <time>2023-05-19T07:40:49Z</time>
      </trkpt>
      <trkpt lat="44.62892" lon="5.86156">
        <ele>1375.8</ele>
        <time>2023-05-19T07:40:50Z</time>
      </trkpt>
      <trkpt lat="44.62893" lon="5.86158">
        <ele>1376</ele>
        <time>2023-05-19T07:40:51Z</time>
      </trkpt>
      <trkpt lat="44.62894" lon="5.8616">
        <ele>1376</ele>
        <time>2023-05-19T07:40:52Z</time>
      </trkpt>
      <trkpt lat="44.62895" lon="5.86162">
        <ele>1376.2</ele>
        <time>2023-05-19T07:40:53Z</time>
      </trkpt>
      <trkpt lat="44.62895" lon="5.86164">
        <ele>1376.2</ele>
        <time>2023-05-19T07:40:54Z</time>
      </trkpt>
      <trkpt lat="44.62895" lon="5.86166">
        <ele>1376.2</ele>
        <time>2023-05-19T07:40:55Z</time>
      </trkpt>
      <trkpt lat="44.62896" lon="5.86168">
        <ele>1376.4</ele>
        <time>2023-05-19T07:40:56Z</time>
      </trkpt>
      <trkpt lat="44.62896" lon="5.8617">
        <ele>1376.4</ele>
        <time>2023-05-19T07:40:57Z</time>
      </trkpt>
      <trkpt lat="44.62896" lon="5.86172">
        <ele>1376.6</ele>
        <time>2023-05-19T07:40:58Z</time>
      </trkpt>
      <trkpt lat="44.62896" lon="5.86174">
        <ele>1376.6</ele>
        <time>2023-05-19T07:40:59Z</time>
      </trkpt>
      <trkpt lat="44.62896" lon="5.86176">
        <ele>1376.8</ele>
        <time>2023-05-19T07:41:00Z</time>
      </trkpt>
      <trkpt lat="44.62896" lon="5.86178">
        <ele>1376.8</ele>
        <time>2023-05-19T07:41:01Z</time>
      </trkpt>
      <trkpt lat="44.62896" lon="5.8618">
        <ele>1377</ele>
        <time>2023-05-19T07:41:02Z</time>
      </trkpt>
      <trkpt lat="44.62895" lon="5.86182">
        <ele>1377</ele>
        <time>2023-05-19T07:41:03Z</time>
      </trkpt>
      <trkpt lat="44.62895" lon="5.86184">
        <ele>1377.2</ele>
        <time>2023-05-19T07:41:04Z</time>
      </trkpt>
      <trkpt lat="44.62894" lon="5.8619">
        <ele>1378</ele>
        <time>2023-05-19T07:41:07Z</time>
      </trkpt>
      <trkpt lat="44.62893" lon="5.86192">
        <ele>1378</ele>
        <time>2023-05-19T07:41:08Z</time>
      </trkpt>
      <trkpt lat="44.62893" lon="5.86194">
        <ele>1378.2</ele>
        <time>2023-05-19T07:41:09Z</time>
      </trkpt>
      <trkpt lat="44.62892" lon="5.86196">
        <ele>1378.4</ele>
        <time>2023-05-19T07:41:10Z</time>
      </trkpt>
      <trkpt lat="44.62891" lon="5.86198">
        <ele>1378.6</ele>
        <time>2023-05-19T07:41:11Z</time>
      </trkpt>
      <trkpt lat="44.6289" lon="5.862">
        <ele>1378.6</ele>
        <time>2023-05-19T07:41:12Z</time>
      </trkpt>
      <trkpt lat="44.62889" lon="5.86201">
        <ele>1378.8</ele>
        <time>2023-05-19T07:41:13Z</time>
      </trkpt>
      <trkpt lat="44.62888" lon="5.86202">
        <ele>1378.8</ele>
        <time>2023-05-19T07:41:14Z</time>
      </trkpt>
      <trkpt lat="44.62886" lon="5.86203">
        <ele>1379</ele>
        <time>2023-05-19T07:41:15Z</time>
      </trkpt>
      <trkpt lat="44.62885" lon="5.86203">
        <ele>1379</ele>
        <time>2023-05-19T07:41:16Z</time>
      </trkpt>
      <trkpt lat="44.62884" lon="5.86203">
        <ele>1379.2</ele>
        <time>2023-05-19T07:41:17Z</time>
      </trkpt>
      <trkpt lat="44.62883" lon="5.86202">
        <ele>1379.4</ele>
        <time>2023-05-19T07:41:18Z</time>
      </trkpt>
      <trkpt lat="44.62882" lon="5.86202">
        <ele>1379.6</ele>
        <time>2023-05-19T07:41:19Z</time>
      </trkpt>
      <trkpt lat="44.62881" lon="5.86201">
        <ele>1379.8</ele>
        <time>2023-05-19T07:41:20Z</time>
      </trkpt>
      <trkpt lat="44.6288" lon="5.862">
        <ele>1380</ele>
        <time>2023-05-19T07:41:21Z</time>
      </trkpt>
      <trkpt lat="44.62879" lon="5.86199">
        <ele>1380</ele>
        <time>2023-05-19T07:41:22Z</time>
      </trkpt>
      <trkpt lat="44.62878" lon="5.86198">
        <ele>1380.2</ele>
        <time>2023-05-19T07:41:23Z</time>
      </trkpt>
      <trkpt lat="44.62878" lon="5.86197">
        <ele>1380.4</ele>
        <time>2023-05-19T07:41:24Z</time>
      </trkpt>
      <trkpt lat="44.62877" lon="5.86196">
        <ele>1380.8</ele>
        <time>2023-05-19T07:41:25Z</time>
      </trkpt>
      <trkpt lat="44.62876" lon="5.86194">
        <ele>1380.8</ele>
        <time>2023-05-19T07:41:26Z</time>
      </trkpt>
      <trkpt lat="44.62875" lon="5.86194">
        <ele>1381</ele>
        <time>2023-05-19T07:41:27Z</time>
      </trkpt>
      <trkpt lat="44.62873" lon="5.86193">
        <ele>1381.2</ele>
        <time>2023-05-19T07:41:28Z</time>
      </trkpt>
      <trkpt lat="44.62872" lon="5.86192">
        <ele>1381.4</ele>
        <time>2023-05-19T07:41:29Z</time>
      </trkpt>
      <trkpt lat="44.6287" lon="5.86191">
        <ele>1381.6</ele>
        <time>2023-05-19T07:41:30Z</time>
      </trkpt>
      <trkpt lat="44.62868" lon="5.86191">
        <ele>1382</ele>
        <time>2023-05-19T07:41:31Z</time>
      </trkpt>
      <trkpt lat="44.62867" lon="5.8619">
        <ele>1382</ele>
        <time>2023-05-19T07:41:32Z</time>
      </trkpt>
      <trkpt lat="44.62865" lon="5.86189">
        <ele>1382.4</ele>
        <time>2023-05-19T07:41:33Z</time>
      </trkpt>
      <trkpt lat="44.62862" lon="5.86188">
        <ele>1382.4</ele>
        <time>2023-05-19T07:41:34Z</time>
      </trkpt>
      <trkpt lat="44.62861" lon="5.86187">
        <ele>1382.4</ele>
        <time>2023-05-19T07:41:35Z</time>
      </trkpt>
      <trkpt lat="44.62859" lon="5.86185">
        <ele>1382.6</ele>
        <time>2023-05-19T07:41:36Z</time>
      </trkpt>
      <trkpt lat="44.62857" lon="5.86185">
        <ele>1382.6</ele>
        <time>2023-05-19T07:41:37Z</time>
      </trkpt>
      <trkpt lat="44.62856" lon="5.86184">
        <ele>1382.8</ele>
        <time>2023-05-19T07:41:38Z</time>
      </trkpt>
      <trkpt lat="44.62854" lon="5.86183">
        <ele>1383</ele>
        <time>2023-05-19T07:41:39Z</time>
      </trkpt>
      <trkpt lat="44.62852" lon="5.86182">
        <ele>1383.2</ele>
        <time>2023-05-19T07:41:40Z</time>
      </trkpt>
      <trkpt lat="44.6285" lon="5.86181">
        <ele>1383.2</ele>
        <time>2023-05-19T07:41:41Z</time>
      </trkpt>
      <trkpt lat="44.62849" lon="5.8618">
        <ele>1383.4</ele>
        <time>2023-05-19T07:41:42Z</time>
      </trkpt>
      <trkpt lat="44.62848" lon="5.86179">
        <ele>1383.6</ele>
        <time>2023-05-19T07:41:43Z</time>
      </trkpt>
      <trkpt lat="44.62847" lon="5.86178">
        <ele>1383.8</ele>
        <time>2023-05-19T07:41:44Z</time>
      </trkpt>
      <trkpt lat="44.62845" lon="5.86178">
        <ele>1384</ele>
        <time>2023-05-19T07:41:45Z</time>
      </trkpt>
      <trkpt lat="44.62843" lon="5.86176">
        <ele>1384</ele>
        <time>2023-05-19T07:41:46Z</time>
      </trkpt>
      <trkpt lat="44.62842" lon="5.86176">
        <ele>1384.2</ele>
        <time>2023-05-19T07:41:47Z</time>
      </trkpt>
      <trkpt lat="44.6284" lon="5.86174">
        <ele>1384.4</ele>
        <time>2023-05-19T07:41:48Z</time>
      </trkpt>
      <trkpt lat="44.62839" lon="5.86173">
        <ele>1384.4</ele>
        <time>2023-05-19T07:41:49Z</time>
      </trkpt>
      <trkpt lat="44.62838" lon="5.86172">
        <ele>1384.6</ele>
        <time>2023-05-19T07:41:50Z</time>
      </trkpt>
      <trkpt lat="44.62837" lon="5.86171">
        <ele>1384.8</ele>
        <time>2023-05-19T07:41:51Z</time>
      </trkpt>
      <trkpt lat="44.62835" lon="5.86171">
        <ele>1384.8</ele>
        <time>2023-05-19T07:41:52Z</time>
      </trkpt>
      <trkpt lat="44.62833" lon="5.86171">
        <ele>1384.8</ele>
        <time>2023-05-19T07:41:53Z</time>
      </trkpt>
      <trkpt lat="44.62831" lon="5.8617">
        <ele>1385.2</ele>
        <time>2023-05-19T07:41:54Z</time>
      </trkpt>
      <trkpt lat="44.62829" lon="5.8617">
        <ele>1385.4</ele>
        <time>2023-05-19T07:41:55Z</time>
      </trkpt>
      <trkpt lat="44.62827" lon="5.8617">
        <ele>1385.6</ele>
        <time>2023-05-19T07:41:56Z</time>
      </trkpt>
      <trkpt lat="44.62825" lon="5.8617">
        <ele>1385.6</ele>
        <time>2023-05-19T07:41:57Z</time>
      </trkpt>
      <trkpt lat="44.62824" lon="5.8617">
        <ele>1385.8</ele>
        <time>2023-05-19T07:41:58Z</time>
      </trkpt>
      <trkpt lat="44.62822" lon="5.8617">
        <ele>1386</ele>
        <time>2023-05-19T07:41:59Z</time>
      </trkpt>
      <trkpt lat="44.6282" lon="5.8617">
        <ele>1386.2</ele>
        <time>2023-05-19T07:42:00Z</time>
      </trkpt>
      <trkpt lat="44.62818" lon="5.8617">
        <ele>1386.4</ele>
        <time>2023-05-19T07:42:01Z</time>
      </trkpt>
      <trkpt lat="44.62817" lon="5.86169">
        <ele>1386.6</ele>
        <time>2023-05-19T07:42:02Z</time>
      </trkpt>
      <trkpt lat="44.62815" lon="5.86168">
        <ele>1386.6</ele>
        <time>2023-05-19T07:42:03Z</time>
      </trkpt>
      <trkpt lat="44.62813" lon="5.86167">
        <ele>1386.8</ele>
        <time>2023-05-19T07:42:04Z</time>
      </trkpt>
      <trkpt lat="44.62812" lon="5.86167">
        <ele>1387.2</ele>
        <time>2023-05-19T07:42:05Z</time>
      </trkpt>
      <trkpt lat="44.62809" lon="5.86167">
        <ele>1387.4</ele>
        <time>2023-05-19T07:42:06Z</time>
      </trkpt>
      <trkpt lat="44.62808" lon="5.86167">
        <ele>1387.6</ele>
        <time>2023-05-19T07:42:07Z</time>
      </trkpt>
      <trkpt lat="44.62806" lon="5.86166">
        <ele>1387.6</ele>
        <time>2023-05-19T07:42:08Z</time>
      </trkpt>
      <trkpt lat="44.62804" lon="5.86166">
        <ele>1387.8</ele>
        <time>2023-05-19T07:42:09Z</time>
      </trkpt>
      <trkpt lat="44.62802" lon="5.86167">
        <ele>1388</ele>
        <time>2023-05-19T07:42:10Z</time>
      </trkpt>
      <trkpt lat="44.628" lon="5.86167">
        <ele>1388</ele>
        <time>2023-05-19T07:42:11Z</time>
      </trkpt>
      <trkpt lat="44.62798" lon="5.86167">
        <ele>1388.2</ele>
        <time>2023-05-19T07:42:12Z</time>
      </trkpt>
      <trkpt lat="44.62796" lon="5.86167">
        <ele>1388.2</ele>
        <time>2023-05-19T07:42:13Z</time>
      </trkpt>
      <trkpt lat="44.62794" lon="5.86166">
        <ele>1388.4</ele>
        <time>2023-05-19T07:42:14Z</time>
      </trkpt>
      <trkpt lat="44.62793" lon="5.86166">
        <ele>1388.4</ele>
        <time>2023-05-19T07:42:15Z</time>
      </trkpt>
      <trkpt lat="44.62791" lon="5.86166">
        <ele>1388.6</ele>
        <time>2023-05-19T07:42:16Z</time>
      </trkpt>
      <trkpt lat="44.62789" lon="5.86166">
        <ele>1388.6</ele>
        <time>2023-05-19T07:42:17Z</time>
      </trkpt>
      <trkpt lat="44.62787" lon="5.86166">
        <ele>1388.8</ele>
        <time>2023-05-19T07:42:18Z</time>
      </trkpt>
      <trkpt lat="44.62785" lon="5.86166">
        <ele>1389</ele>
        <time>2023-05-19T07:42:19Z</time>
      </trkpt>
      <trkpt lat="44.62784" lon="5.86166">
        <ele>1389</ele>
        <time>2023-05-19T07:42:20Z</time>
      </trkpt>
      <trkpt lat="44.62782" lon="5.86166">
        <ele>1389.2</ele>
        <time>2023-05-19T07:42:21Z</time>
      </trkpt>
      <trkpt lat="44.6278" lon="5.86166">
        <ele>1389.2</ele>
        <time>2023-05-19T07:42:22Z</time>
      </trkpt>
      <trkpt lat="44.62778" lon="5.86166">
        <ele>1389.6</ele>
        <time>2023-05-19T07:42:23Z</time>
      </trkpt>
      <trkpt lat="44.62777" lon="5.86166">
        <ele>1389.8</ele>
        <time>2023-05-19T07:42:24Z</time>
      </trkpt>
      <trkpt lat="44.62775" lon="5.86166">
        <ele>1390</ele>
        <time>2023-05-19T07:42:25Z</time>
      </trkpt>
      <trkpt lat="44.62774" lon="5.86166">
        <ele>1390</ele>
        <time>2023-05-19T07:42:26Z</time>
      </trkpt>
      <trkpt lat="44.62773" lon="5.86166">
        <ele>1390.2</ele>
        <time>2023-05-19T07:42:27Z</time>
      </trkpt>
      <trkpt lat="44.62771" lon="5.86166">
        <ele>1390.6</ele>
        <time>2023-05-19T07:42:28Z</time>
      </trkpt>
      <trkpt lat="44.6277" lon="5.86166">
        <ele>1390.8</ele>
        <time>2023-05-19T07:42:29Z</time>
      </trkpt>
      <trkpt lat="44.62768" lon="5.86166">
        <ele>1390.8</ele>
        <time>2023-05-19T07:42:30Z</time>
      </trkpt>
      <trkpt lat="44.62767" lon="5.86166">
        <ele>1391</ele>
        <time>2023-05-19T07:42:31Z</time>
      </trkpt>
      <trkpt lat="44.62765" lon="5.86166">
        <ele>1391.4</ele>
        <time>2023-05-19T07:42:32Z</time>
      </trkpt>
      <trkpt lat="44.62763" lon="5.86166">
        <ele>1391.4</ele>
        <time>2023-05-19T07:42:33Z</time>
      </trkpt>
      <trkpt lat="44.62762" lon="5.86166">
        <ele>1391.6</ele>
        <time>2023-05-19T07:42:34Z</time>
      </trkpt>
      <trkpt lat="44.62761" lon="5.86166">
        <ele>1391.8</ele>
        <time>2023-05-19T07:42:35Z</time>
      </trkpt>
      <trkpt lat="44.6276" lon="5.86167">
        <ele>1392</ele>
        <time>2023-05-19T07:42:36Z</time>
      </trkpt>
      <trkpt lat="44.62758" lon="5.86168">
        <ele>1392.2</ele>
        <time>2023-05-19T07:42:37Z</time>
      </trkpt>
      <trkpt lat="44.62756" lon="5.86169">
        <ele>1392.4</ele>
        <time>2023-05-19T07:42:38Z</time>
      </trkpt>
      <trkpt lat="44.62754" lon="5.86169">
        <ele>1392.6</ele>
        <time>2023-05-19T07:42:39Z</time>
      </trkpt>
      <trkpt lat="44.62753" lon="5.86169">
        <ele>1392.6</ele>
        <time>2023-05-19T07:42:40Z</time>
      </trkpt>
      <trkpt lat="44.62751" lon="5.8617">
        <ele>1392.8</ele>
        <time>2023-05-19T07:42:41Z</time>
      </trkpt>
      <trkpt lat="44.6275" lon="5.8617">
        <ele>1392.8</ele>
        <time>2023-05-19T07:42:42Z</time>
      </trkpt>
      <trkpt lat="44.62748" lon="5.8617">
        <ele>1393.2</ele>
        <time>2023-05-19T07:42:43Z</time>
      </trkpt>
      <trkpt lat="44.62746" lon="5.86171">
        <ele>1393.2</ele>
        <time>2023-05-19T07:42:44Z</time>
      </trkpt>
      <trkpt lat="44.62744" lon="5.86172">
        <ele>1393.4</ele>
        <time>2023-05-19T07:42:45Z</time>
      </trkpt>
      <trkpt lat="44.62742" lon="5.86172">
        <ele>1393.6</ele>
        <time>2023-05-19T07:42:46Z</time>
      </trkpt>
      <trkpt lat="44.62741" lon="5.86173">
        <ele>1393.8</ele>
        <time>2023-05-19T07:42:47Z</time>
      </trkpt>
      <trkpt lat="44.62739" lon="5.86173">
        <ele>1394</ele>
        <time>2023-05-19T07:42:48Z</time>
      </trkpt>
      <trkpt lat="44.62737" lon="5.86174">
        <ele>1394</ele>
        <time>2023-05-19T07:42:49Z</time>
      </trkpt>
      <trkpt lat="44.62736" lon="5.86175">
        <ele>1394.2</ele>
        <time>2023-05-19T07:42:50Z</time>
      </trkpt>
      <trkpt lat="44.62734" lon="5.86176">
        <ele>1394.2</ele>
        <time>2023-05-19T07:42:51Z</time>
      </trkpt>
      <trkpt lat="44.62733" lon="5.86176">
        <ele>1394.2</ele>
        <time>2023-05-19T07:42:52Z</time>
      </trkpt>
      <trkpt lat="44.62732" lon="5.86177">
        <ele>1394.2</ele>
        <time>2023-05-19T07:42:53Z</time>
      </trkpt>
      <trkpt lat="44.6273" lon="5.86178">
        <ele>1394.4</ele>
        <time>2023-05-19T07:42:54Z</time>
      </trkpt>
      <trkpt lat="44.62728" lon="5.86179">
        <ele>1394.6</ele>
        <time>2023-05-19T07:42:55Z</time>
      </trkpt>
      <trkpt lat="44.62727" lon="5.8618">
        <ele>1394.6</ele>
        <time>2023-05-19T07:42:56Z</time>
      </trkpt>
      <trkpt lat="44.62725" lon="5.86181">
        <ele>1394.6</ele>
        <time>2023-05-19T07:42:57Z</time>
      </trkpt>
      <trkpt lat="44.62724" lon="5.86182">
        <ele>1394.6</ele>
        <time>2023-05-19T07:42:58Z</time>
      </trkpt>
      <trkpt lat="44.62722" lon="5.86183">
        <ele>1395</ele>
        <time>2023-05-19T07:42:59Z</time>
      </trkpt>
      <trkpt lat="44.62721" lon="5.86184">
        <ele>1395</ele>
        <time>2023-05-19T07:43:00Z</time>
      </trkpt>
      <trkpt lat="44.6272" lon="5.86185">
        <ele>1395</ele>
        <time>2023-05-19T07:43:01Z</time>
      </trkpt>
      <trkpt lat="44.62719" lon="5.86186">
        <ele>1395.2</ele>
        <time>2023-05-19T07:43:02Z</time>
      </trkpt>
      <trkpt lat="44.62717" lon="5.86186">
        <ele>1395.2</ele>
        <time>2023-05-19T07:43:03Z</time>
      </trkpt>
      <trkpt lat="44.62716" lon="5.86187">
        <ele>1395.4</ele>
        <time>2023-05-19T07:43:04Z</time>
      </trkpt>
      <trkpt lat="44.62714" lon="5.86189">
        <ele>1395.6</ele>
        <time>2023-05-19T07:43:05Z</time>
      </trkpt>
      <trkpt lat="44.62712" lon="5.8619">
        <ele>1395.8</ele>
        <time>2023-05-19T07:43:06Z</time>
      </trkpt>
      <trkpt lat="44.6271" lon="5.86191">
        <ele>1395.8</ele>
        <time>2023-05-19T07:43:07Z</time>
      </trkpt>
      <trkpt lat="44.62708" lon="5.86192">
        <ele>1396.2</ele>
        <time>2023-05-19T07:43:08Z</time>
      </trkpt>
      <trkpt lat="44.62707" lon="5.86194">
        <ele>1396.2</ele>
        <time>2023-05-19T07:43:09Z</time>
      </trkpt>
      <trkpt lat="44.62705" lon="5.86194">
        <ele>1396.4</ele>
        <time>2023-05-19T07:43:10Z</time>
      </trkpt>
      <trkpt lat="44.62704" lon="5.86195">
        <ele>1396.6</ele>
        <time>2023-05-19T07:43:11Z</time>
      </trkpt>
      <trkpt lat="44.62702" lon="5.86197">
        <ele>1396.8</ele>
        <time>2023-05-19T07:43:12Z</time>
      </trkpt>
      <trkpt lat="44.627" lon="5.86198">
        <ele>1397</ele>
        <time>2023-05-19T07:43:13Z</time>
      </trkpt>
      <trkpt lat="44.62699" lon="5.86199">
        <ele>1397.2</ele>
        <time>2023-05-19T07:43:14Z</time>
      </trkpt>
      <trkpt lat="44.62697" lon="5.862">
        <ele>1397.2</ele>
        <time>2023-05-19T07:43:15Z</time>
      </trkpt>
      <trkpt lat="44.62696" lon="5.86201">
        <ele>1397.2</ele>
        <time>2023-05-19T07:43:16Z</time>
      </trkpt>
      <trkpt lat="44.62694" lon="5.86202">
        <ele>1397.6</ele>
        <time>2023-05-19T07:43:17Z</time>
      </trkpt>
      <trkpt lat="44.62692" lon="5.86203">
        <ele>1397.6</ele>
        <time>2023-05-19T07:43:18Z</time>
      </trkpt>
      <trkpt lat="44.62691" lon="5.86204">
        <ele>1397.8</ele>
        <time>2023-05-19T07:43:19Z</time>
      </trkpt>
      <trkpt lat="44.62689" lon="5.86205">
        <ele>1397.8</ele>
        <time>2023-05-19T07:43:20Z</time>
      </trkpt>
      <trkpt lat="44.62688" lon="5.86206">
        <ele>1398</ele>
        <time>2023-05-19T07:43:21Z</time>
      </trkpt>
      <trkpt lat="44.62686" lon="5.86207">
        <ele>1398.2</ele>
        <time>2023-05-19T07:43:22Z</time>
      </trkpt>
      <trkpt lat="44.62684" lon="5.86208">
        <ele>1398.2</ele>
        <time>2023-05-19T07:43:23Z</time>
      </trkpt>
      <trkpt lat="44.62682" lon="5.86209">
        <ele>1398.4</ele>
        <time>2023-05-19T07:43:24Z</time>
      </trkpt>
      <trkpt lat="44.6268" lon="5.8621">
        <ele>1398.4</ele>
        <time>2023-05-19T07:43:25Z</time>
      </trkpt>
      <trkpt lat="44.62679" lon="5.8621">
        <ele>1398.4</ele>
        <time>2023-05-19T07:43:26Z</time>
      </trkpt>
      <trkpt lat="44.62677" lon="5.86211">
        <ele>1398.4</ele>
        <time>2023-05-19T07:43:27Z</time>
      </trkpt>
      <trkpt lat="44.62676" lon="5.86212">
        <ele>1398.8</ele>
        <time>2023-05-19T07:43:28Z</time>
      </trkpt>
      <trkpt lat="44.62674" lon="5.86213">
        <ele>1398.8</ele>
        <time>2023-05-19T07:43:29Z</time>
      </trkpt>
      <trkpt lat="44.62671" lon="5.86214">
        <ele>1398.8</ele>
        <time>2023-05-19T07:43:30Z</time>
      </trkpt>
      <trkpt lat="44.6267" lon="5.86214">
        <ele>1399</ele>
        <time>2023-05-19T07:43:31Z</time>
      </trkpt>
      <trkpt lat="44.62668" lon="5.86215">
        <ele>1399</ele>
        <time>2023-05-19T07:43:32Z</time>
      </trkpt>
      <trkpt lat="44.62667" lon="5.86215">
        <ele>1399.2</ele>
        <time>2023-05-19T07:43:33Z</time>
      </trkpt>
      <trkpt lat="44.62664" lon="5.86216">
        <ele>1399.4</ele>
        <time>2023-05-19T07:43:34Z</time>
      </trkpt>
      <trkpt lat="44.62662" lon="5.86217">
        <ele>1399.4</ele>
        <time>2023-05-19T07:43:35Z</time>
      </trkpt>
      <trkpt lat="44.62659" lon="5.86218">
        <ele>1399.6</ele>
        <time>2023-05-19T07:43:36Z</time>
      </trkpt>
      <trkpt lat="44.62657" lon="5.86218">
        <ele>1399.8</ele>
        <time>2023-05-19T07:43:37Z</time>
      </trkpt>
      <trkpt lat="44.62655" lon="5.86219">
        <ele>1399.8</ele>
        <time>2023-05-19T07:43:38Z</time>
      </trkpt>
      <trkpt lat="44.62653" lon="5.8622">
        <ele>1399.8</ele>
        <time>2023-05-19T07:43:39Z</time>
      </trkpt>
      <trkpt lat="44.62651" lon="5.8622">
        <ele>1399.8</ele>
        <time>2023-05-19T07:43:40Z</time>
      </trkpt>
      <trkpt lat="44.62649" lon="5.8622">
        <ele>1399.8</ele>
        <time>2023-05-19T07:43:41Z</time>
      </trkpt>
      <trkpt lat="44.62647" lon="5.86221">
        <ele>1399.8</ele>
        <time>2023-05-19T07:43:42Z</time>
      </trkpt>
      <trkpt lat="44.62645" lon="5.86221">
        <ele>1399.8</ele>
        <time>2023-05-19T07:43:43Z</time>
      </trkpt>
      <trkpt lat="44.62642" lon="5.86221">
        <ele>1400.2</ele>
        <time>2023-05-19T07:43:44Z</time>
      </trkpt>
      <trkpt lat="44.6264" lon="5.86222">
        <ele>1400.2</ele>
        <time>2023-05-19T07:43:45Z</time>
      </trkpt>
      <trkpt lat="44.62637" lon="5.86222">
        <ele>1400.2</ele>
        <time>2023-05-19T07:43:46Z</time>
      </trkpt>
      <trkpt lat="44.62634" lon="5.86223">
        <ele>1400.2</ele>
        <time>2023-05-19T07:43:47Z</time>
      </trkpt>
      <trkpt lat="44.62622" lon="5.86225">
        <ele>1400.8</ele>
        <time>2023-05-19T07:43:52Z</time>
      </trkpt>
      <trkpt lat="44.62619" lon="5.86225">
        <ele>1400.8</ele>
        <time>2023-05-19T07:43:53Z</time>
      </trkpt>
      <trkpt lat="44.62611" lon="5.86227">
        <ele>1401.4</ele>
        <time>2023-05-19T07:43:58Z</time>
      </trkpt>
      <trkpt lat="44.62607" lon="5.86228">
        <ele>1401.6</ele>
        <time>2023-05-19T07:44:00Z</time>
      </trkpt>
      <trkpt lat="44.62601" lon="5.86232">
        <ele>1401.8</ele>
        <time>2023-05-19T07:44:03Z</time>
      </trkpt>
      <trkpt lat="44.626" lon="5.86233">
        <ele>1401.8</ele>
        <time>2023-05-19T07:44:04Z</time>
      </trkpt>
      <trkpt lat="44.62598" lon="5.86234">
        <ele>1401.8</ele>
        <time>2023-05-19T07:44:05Z</time>
      </trkpt>
      <trkpt lat="44.62596" lon="5.86236">
        <ele>1401.8</ele>
        <time>2023-05-19T07:44:06Z</time>
      </trkpt>
      <trkpt lat="44.62593" lon="5.86238">
        <ele>1402</ele>
        <time>2023-05-19T07:44:08Z</time>
      </trkpt>
      <trkpt lat="44.62589" lon="5.86241">
        <ele>1402.2</ele>
        <time>2023-05-19T07:44:10Z</time>
      </trkpt>
      <trkpt lat="44.62588" lon="5.86242">
        <ele>1402.2</ele>
        <time>2023-05-19T07:44:11Z</time>
      </trkpt>
      <trkpt lat="44.62586" lon="5.86243">
        <ele>1402.4</ele>
        <time>2023-05-19T07:44:12Z</time>
      </trkpt>
      <trkpt lat="44.6258" lon="5.86247">
        <ele>1403.2</ele>
        <time>2023-05-19T07:44:16Z</time>
      </trkpt>
      <trkpt lat="44.62578" lon="5.86249">
        <ele>1403.4</ele>
        <time>2023-05-19T07:44:17Z</time>
      </trkpt>
      <trkpt lat="44.62571" lon="5.86254">
        <ele>1404.2</ele>
        <time>2023-05-19T07:44:21Z</time>
      </trkpt>
      <trkpt lat="44.62569" lon="5.86256">
        <ele>1404.2</ele>
        <time>2023-05-19T07:44:22Z</time>
      </trkpt>
      <trkpt lat="44.62567" lon="5.86257">
        <ele>1404.4</ele>
        <time>2023-05-19T07:44:23Z</time>
      </trkpt>
      <trkpt lat="44.62566" lon="5.86258">
        <ele>1404.6</ele>
        <time>2023-05-19T07:44:24Z</time>
      </trkpt>
      <trkpt lat="44.62565" lon="5.8626">
        <ele>1404.6</ele>
        <time>2023-05-19T07:44:25Z</time>
      </trkpt>
      <trkpt lat="44.62563" lon="5.86261">
        <ele>1404.6</ele>
        <time>2023-05-19T07:44:26Z</time>
      </trkpt>
      <trkpt lat="44.62562" lon="5.86263">
        <ele>1404.8</ele>
        <time>2023-05-19T07:44:27Z</time>
      </trkpt>
      <trkpt lat="44.6256" lon="5.86265">
        <ele>1404.8</ele>
        <time>2023-05-19T07:44:28Z</time>
      </trkpt>
      <trkpt lat="44.62559" lon="5.86266">
        <ele>1404.8</ele>
        <time>2023-05-19T07:44:29Z</time>
      </trkpt>
      <trkpt lat="44.62557" lon="5.86267">
        <ele>1404.8</ele>
        <time>2023-05-19T07:44:30Z</time>
      </trkpt>
      <trkpt lat="44.62556" lon="5.86268">
        <ele>1405</ele>
        <time>2023-05-19T07:44:31Z</time>
      </trkpt>
      <trkpt lat="44.62555" lon="5.8627">
        <ele>1405</ele>
        <time>2023-05-19T07:44:32Z</time>
      </trkpt>
      <trkpt lat="44.62553" lon="5.86271">
        <ele>1405</ele>
        <time>2023-05-19T07:44:33Z</time>
      </trkpt>
      <trkpt lat="44.62551" lon="5.86273">
        <ele>1405</ele>
        <time>2023-05-19T07:44:34Z</time>
      </trkpt>
      <trkpt lat="44.62549" lon="5.86273">
        <ele>1405.2</ele>
        <time>2023-05-19T07:44:35Z</time>
      </trkpt>
      <trkpt lat="44.62547" lon="5.86274">
        <ele>1405.2</ele>
        <time>2023-05-19T07:44:36Z</time>
      </trkpt>
      <trkpt lat="44.62546" lon="5.86276">
        <ele>1405.4</ele>
        <time>2023-05-19T07:44:37Z</time>
      </trkpt>
      <trkpt lat="44.62544" lon="5.86277">
        <ele>1405.4</ele>
        <time>2023-05-19T07:44:38Z</time>
      </trkpt>
      <trkpt lat="44.62543" lon="5.86279">
        <ele>1405.6</ele>
        <time>2023-05-19T07:44:39Z</time>
      </trkpt>
      <trkpt lat="44.62542" lon="5.8628">
        <ele>1405.6</ele>
        <time>2023-05-19T07:44:40Z</time>
      </trkpt>
      <trkpt lat="44.6254" lon="5.86282">
        <ele>1405.8</ele>
        <time>2023-05-19T07:44:41Z</time>
      </trkpt>
      <trkpt lat="44.62539" lon="5.86283">
        <ele>1406</ele>
        <time>2023-05-19T07:44:42Z</time>
      </trkpt>
      <trkpt lat="44.62535" lon="5.86285">
        <ele>1406.2</ele>
        <time>2023-05-19T07:44:44Z</time>
      </trkpt>
      <trkpt lat="44.6253" lon="5.86292">
        <ele>1406.6</ele>
        <time>2023-05-19T07:44:47Z</time>
      </trkpt>
      <trkpt lat="44.62529" lon="5.86294">
        <ele>1406.6</ele>
        <time>2023-05-19T07:44:48Z</time>
      </trkpt>
      <trkpt lat="44.62528" lon="5.86297">
        <ele>1406.8</ele>
        <time>2023-05-19T07:44:49Z</time>
      </trkpt>
      <trkpt lat="44.62526" lon="5.863">
        <ele>1406.8</ele>
        <time>2023-05-19T07:44:50Z</time>
      </trkpt>
      <trkpt lat="44.62524" lon="5.86313">
        <ele>1406.6</ele>
        <time>2023-05-19T07:44:54Z</time>
      </trkpt>
      <trkpt lat="44.62524" lon="5.86316">
        <ele>1406.8</ele>
        <time>2023-05-19T07:44:55Z</time>
      </trkpt>
      <trkpt lat="44.62523" lon="5.86319">
        <ele>1406.6</ele>
        <time>2023-05-19T07:44:56Z</time>
      </trkpt>
      <trkpt lat="44.62523" lon="5.86323">
        <ele>1406.6</ele>
        <time>2023-05-19T07:44:57Z</time>
      </trkpt>
      <trkpt lat="44.62522" lon="5.86344">
        <ele>1406.6</ele>
        <time>2023-05-19T07:45:03Z</time>
      </trkpt>
      <trkpt lat="44.62521" lon="5.86346">
        <ele>1406.6</ele>
        <time>2023-05-19T07:45:04Z</time>
      </trkpt>
      <trkpt lat="44.6252" lon="5.86349">
        <ele>1406.8</ele>
        <time>2023-05-19T07:45:05Z</time>
      </trkpt>
      <trkpt lat="44.62519" lon="5.86351">
        <ele>1406.8</ele>
        <time>2023-05-19T07:45:06Z</time>
      </trkpt>
      <trkpt lat="44.62517" lon="5.86356">
        <ele>1407</ele>
        <time>2023-05-19T07:45:08Z</time>
      </trkpt>
      <trkpt lat="44.62515" lon="5.86359">
        <ele>1407.2</ele>
        <time>2023-05-19T07:45:09Z</time>
      </trkpt>
      <trkpt lat="44.62513" lon="5.8636">
        <ele>1407.2</ele>
        <time>2023-05-19T07:45:10Z</time>
      </trkpt>
      <trkpt lat="44.62512" lon="5.86363">
        <ele>1407.4</ele>
        <time>2023-05-19T07:45:11Z</time>
      </trkpt>
      <trkpt lat="44.62511" lon="5.86365">
        <ele>1407.4</ele>
        <time>2023-05-19T07:45:12Z</time>
      </trkpt>
      <trkpt lat="44.6251" lon="5.86367">
        <ele>1407.4</ele>
        <time>2023-05-19T07:45:13Z</time>
      </trkpt>
      <trkpt lat="44.62509" lon="5.8637">
        <ele>1407.6</ele>
        <time>2023-05-19T07:45:14Z</time>
      </trkpt>
      <trkpt lat="44.62508" lon="5.86372">
        <ele>1407.8</ele>
        <time>2023-05-19T07:45:15Z</time>
      </trkpt>
      <trkpt lat="44.62506" lon="5.86375">
        <ele>1407.8</ele>
        <time>2023-05-19T07:45:16Z</time>
      </trkpt>
      <trkpt lat="44.62505" lon="5.86377">
        <ele>1407.8</ele>
        <time>2023-05-19T07:45:17Z</time>
      </trkpt>
      <trkpt lat="44.62503" lon="5.86379">
        <ele>1407.8</ele>
        <time>2023-05-19T07:45:18Z</time>
      </trkpt>
      <trkpt lat="44.62502" lon="5.86382">
        <ele>1408</ele>
        <time>2023-05-19T07:45:19Z</time>
      </trkpt>
      <trkpt lat="44.625" lon="5.86385">
        <ele>1408</ele>
        <time>2023-05-19T07:45:20Z</time>
      </trkpt>
      <trkpt lat="44.62484" lon="5.86405">
        <ele>1408</ele>
        <time>2023-05-19T07:45:28Z</time>
      </trkpt>
      <trkpt lat="44.62482" lon="5.86406">
        <ele>1408</ele>
        <time>2023-05-19T07:45:29Z</time>
      </trkpt>
      <trkpt lat="44.6248" lon="5.86407">
        <ele>1408</ele>
        <time>2023-05-19T07:45:30Z</time>
      </trkpt>
      <trkpt lat="44.62469" lon="5.86414">
        <ele>1407.8</ele>
        <time>2023-05-19T07:45:34Z</time>
      </trkpt>
      <trkpt lat="44.62462" lon="5.86415">
        <ele>1407.6</ele>
        <time>2023-05-19T07:45:37Z</time>
      </trkpt>
      <trkpt lat="44.62459" lon="5.86414">
        <ele>1407.6</ele>
        <time>2023-05-19T07:45:38Z</time>
      </trkpt>
      <trkpt lat="44.62457" lon="5.86414">
        <ele>1407.4</ele>
        <time>2023-05-19T07:45:39Z</time>
      </trkpt>
      <trkpt lat="44.62455" lon="5.86415">
        <ele>1407.4</ele>
        <time>2023-05-19T07:45:40Z</time>
      </trkpt>
      <trkpt lat="44.6245" lon="5.86418">
        <ele>1407</ele>
        <time>2023-05-19T07:45:42Z</time>
      </trkpt>
      <trkpt lat="44.62447" lon="5.8642">
        <ele>1406.8</ele>
        <time>2023-05-19T07:45:43Z</time>
      </trkpt>
      <trkpt lat="44.62444" lon="5.86422">
        <ele>1406.6</ele>
        <time>2023-05-19T07:45:44Z</time>
      </trkpt>
      <trkpt lat="44.62442" lon="5.86426">
        <ele>1406.6</ele>
        <time>2023-05-19T07:45:45Z</time>
      </trkpt>
      <trkpt lat="44.62435" lon="5.86435">
        <ele>1406.2</ele>
        <time>2023-05-19T07:45:49Z</time>
      </trkpt>
      <trkpt lat="44.62421" lon="5.86448">
        <ele>1406</ele>
        <time>2023-05-19T07:45:55Z</time>
      </trkpt>
      <trkpt lat="44.62413" lon="5.86452">
        <ele>1406</ele>
        <time>2023-05-19T07:45:58Z</time>
      </trkpt>
      <trkpt lat="44.62406" lon="5.86455">
        <ele>1405.8</ele>
        <time>2023-05-19T07:46:01Z</time>
      </trkpt>
      <trkpt lat="44.624" lon="5.86457">
        <ele>1405.6</ele>
        <time>2023-05-19T07:46:03Z</time>
      </trkpt>
      <trkpt lat="44.62388" lon="5.86458">
        <ele>1405.4</ele>
        <time>2023-05-19T07:46:07Z</time>
      </trkpt>
      <trkpt lat="44.62385" lon="5.86458">
        <ele>1405.2</ele>
        <time>2023-05-19T07:46:08Z</time>
      </trkpt>
      <trkpt lat="44.62383" lon="5.86458">
        <ele>1405.2</ele>
        <time>2023-05-19T07:46:09Z</time>
      </trkpt>
      <trkpt lat="44.6238" lon="5.86458">
        <ele>1405.2</ele>
        <time>2023-05-19T07:46:10Z</time>
      </trkpt>
      <trkpt lat="44.62366" lon="5.8645">
        <ele>1404.6</ele>
        <time>2023-05-19T07:46:15Z</time>
      </trkpt>
      <trkpt lat="44.62356" lon="5.86451">
        <ele>1404.6</ele>
        <time>2023-05-19T07:46:18Z</time>
      </trkpt>
      <trkpt lat="44.62353" lon="5.86454">
        <ele>1404.6</ele>
        <time>2023-05-19T07:46:19Z</time>
      </trkpt>
      <trkpt lat="44.62352" lon="5.86457">
        <ele>1404.6</ele>
        <time>2023-05-19T07:46:20Z</time>
      </trkpt>
      <trkpt lat="44.62348" lon="5.8647">
        <ele>1404</ele>
        <time>2023-05-19T07:46:23Z</time>
      </trkpt>
      <trkpt lat="44.62347" lon="5.86474">
        <ele>1403.6</ele>
        <time>2023-05-19T07:46:24Z</time>
      </trkpt>
      <trkpt lat="44.62343" lon="5.86482">
        <ele>1403</ele>
        <time>2023-05-19T07:46:26Z</time>
      </trkpt>
      <trkpt lat="44.62336" lon="5.86499">
        <ele>1402.4</ele>
        <time>2023-05-19T07:46:30Z</time>
      </trkpt>
      <trkpt lat="44.62328" lon="5.86519">
        <ele>1401.6</ele>
        <time>2023-05-19T07:46:35Z</time>
      </trkpt>
      <trkpt lat="44.62324" lon="5.86527">
        <ele>1401.2</ele>
        <time>2023-05-19T07:46:37Z</time>
      </trkpt>
      <trkpt lat="44.6232" lon="5.86533">
        <ele>1401</ele>
        <time>2023-05-19T07:46:39Z</time>
      </trkpt>
      <trkpt lat="44.62318" lon="5.86536">
        <ele>1400.8</ele>
        <time>2023-05-19T07:46:40Z</time>
      </trkpt>
      <trkpt lat="44.62317" lon="5.86539">
        <ele>1400.8</ele>
        <time>2023-05-19T07:46:41Z</time>
      </trkpt>
      <trkpt lat="44.62316" lon="5.86542">
        <ele>1400.6</ele>
        <time>2023-05-19T07:46:42Z</time>
      </trkpt>
      <trkpt lat="44.62315" lon="5.86543">
        <ele>1400.4</ele>
        <time>2023-05-19T07:46:43Z</time>
      </trkpt>
      <trkpt lat="44.62313" lon="5.86545">
        <ele>1400.4</ele>
        <time>2023-05-19T07:46:44Z</time>
      </trkpt>
      <trkpt lat="44.62311" lon="5.86547">
        <ele>1400.2</ele>
        <time>2023-05-19T07:46:45Z</time>
      </trkpt>
      <trkpt lat="44.62309" lon="5.86549">
        <ele>1400.2</ele>
        <time>2023-05-19T07:46:46Z</time>
      </trkpt>
      <trkpt lat="44.62307" lon="5.86551">
        <ele>1400.2</ele>
        <time>2023-05-19T07:46:47Z</time>
      </trkpt>
      <trkpt lat="44.62306" lon="5.86554">
        <ele>1400</ele>
        <time>2023-05-19T07:46:48Z</time>
      </trkpt>
      <trkpt lat="44.62304" lon="5.86556">
        <ele>1400</ele>
        <time>2023-05-19T07:46:49Z</time>
      </trkpt>
      <trkpt lat="44.62303" lon="5.86557">
        <ele>1400</ele>
        <time>2023-05-19T07:46:50Z</time>
      </trkpt>
      <trkpt lat="44.62304" lon="5.86557">
        <ele>1399.8</ele>
        <time>2023-05-19T07:46:51Z</time>
      </trkpt>
      <trkpt lat="44.62303" lon="5.86558">
        <ele>1399.8</ele>
        <time>2023-05-19T07:46:52Z</time>
      </trkpt>
      <trkpt lat="44.62302" lon="5.86561">
        <ele>1399.4</ele>
        <time>2023-05-19T07:46:58Z</time>
      </trkpt>
      <trkpt lat="44.62302" lon="5.86561">
        <ele>1399</ele>
        <time>2023-05-19T07:47:00Z</time>
      </trkpt>
      <trkpt lat="44.62302" lon="5.86561">
        <ele>1398</ele>
        <time>2023-05-19T07:47:30Z</time>
      </trkpt>
      <trkpt lat="44.62303" lon="5.86557">
        <ele>1398.8</ele>
        <time>2023-05-19T07:48:05Z</time>
      </trkpt>
      <trkpt lat="44.62303" lon="5.86559">
        <ele>1399.4</ele>
        <time>2023-05-19T07:48:31Z</time>
      </trkpt>
      <trkpt lat="44.62302" lon="5.86559">
        <ele>1399.4</ele>
        <time>2023-05-19T07:48:33Z</time>
      </trkpt>
      <trkpt lat="44.62298" lon="5.86561">
        <ele>1399</ele>
        <time>2023-05-19T07:48:39Z</time>
      </trkpt>
      <trkpt lat="44.62296" lon="5.86561">
        <ele>1399</ele>
        <time>2023-05-19T07:48:40Z</time>
      </trkpt>
      <trkpt lat="44.62292" lon="5.86561">
        <ele>1398.2</ele>
        <time>2023-05-19T07:48:43Z</time>
      </trkpt>
      <trkpt lat="44.6229" lon="5.86561">
        <ele>1398</ele>
        <time>2023-05-19T07:48:44Z</time>
      </trkpt>
      <trkpt lat="44.62289" lon="5.86561">
        <ele>1397.2</ele>
        <time>2023-05-19T07:48:45Z</time>
      </trkpt>
      <trkpt lat="44.62285" lon="5.86562">
        <ele>1396.6</ele>
        <time>2023-05-19T07:48:47Z</time>
      </trkpt>
      <trkpt lat="44.62276" lon="5.86559">
        <ele>1395.6</ele>
        <time>2023-05-19T07:48:51Z</time>
      </trkpt>
      <trkpt lat="44.62274" lon="5.86557">
        <ele>1395.2</ele>
        <time>2023-05-19T07:48:52Z</time>
      </trkpt>
      <trkpt lat="44.62272" lon="5.86556">
        <ele>1395</ele>
        <time>2023-05-19T07:48:53Z</time>
      </trkpt>
      <trkpt lat="44.62269" lon="5.86551">
        <ele>1394.2</ele>
        <time>2023-05-19T07:48:55Z</time>
      </trkpt>
      <trkpt lat="44.62266" lon="5.86546">
        <ele>1393.6</ele>
        <time>2023-05-19T07:48:57Z</time>
      </trkpt>
      <trkpt lat="44.62265" lon="5.86543">
        <ele>1393.4</ele>
        <time>2023-05-19T07:48:58Z</time>
      </trkpt>
      <trkpt lat="44.62261" lon="5.86536">
        <ele>1393</ele>
        <time>2023-05-19T07:49:00Z</time>
      </trkpt>
      <trkpt lat="44.62259" lon="5.86534">
        <ele>1392.6</ele>
        <time>2023-05-19T07:49:01Z</time>
      </trkpt>
      <trkpt lat="44.62257" lon="5.86531">
        <ele>1392.4</ele>
        <time>2023-05-19T07:49:02Z</time>
      </trkpt>
      <trkpt lat="44.62251" lon="5.86525">
        <ele>1392</ele>
        <time>2023-05-19T07:49:04Z</time>
      </trkpt>
      <trkpt lat="44.62239" lon="5.86515">
        <ele>1390.8</ele>
        <time>2023-05-19T07:49:07Z</time>
      </trkpt>
      <trkpt lat="44.62234" lon="5.86513">
        <ele>1390.6</ele>
        <time>2023-05-19T07:49:08Z</time>
      </trkpt>
      <trkpt lat="44.6223" lon="5.86511">
        <ele>1390.4</ele>
        <time>2023-05-19T07:49:09Z</time>
      </trkpt>
      <trkpt lat="44.62221" lon="5.86505">
        <ele>1389.6</ele>
        <time>2023-05-19T07:49:11Z</time>
      </trkpt>
      <trkpt lat="44.62217" lon="5.86504">
        <ele>1389</ele>
        <time>2023-05-19T07:49:12Z</time>
      </trkpt>
      <trkpt lat="44.62212" lon="5.86502">
        <ele>1388.6</ele>
        <time>2023-05-19T07:49:13Z</time>
      </trkpt>
      <trkpt lat="44.62204" lon="5.86498">
        <ele>1388</ele>
        <time>2023-05-19T07:49:14Z</time>
      </trkpt>
      <trkpt lat="44.62197" lon="5.86494">
        <ele>1387.8</ele>
        <time>2023-05-19T07:49:15Z</time>
      </trkpt>
      <trkpt lat="44.6219" lon="5.86489">
        <ele>1387.2</ele>
        <time>2023-05-19T07:49:16Z</time>
      </trkpt>
      <trkpt lat="44.62183" lon="5.86485">
        <ele>1386.8</ele>
        <time>2023-05-19T07:49:17Z</time>
      </trkpt>
      <trkpt lat="44.62177" lon="5.86479">
        <ele>1386.8</ele>
        <time>2023-05-19T07:49:18Z</time>
      </trkpt>
      <trkpt lat="44.62173" lon="5.86472">
        <ele>1385.6</ele>
        <time>2023-05-19T07:49:19Z</time>
      </trkpt>
      <trkpt lat="44.62169" lon="5.86466">
        <ele>1385.2</ele>
        <time>2023-05-19T07:49:20Z</time>
      </trkpt>
      <trkpt lat="44.62163" lon="5.86462">
        <ele>1384.6</ele>
        <time>2023-05-19T07:49:21Z</time>
      </trkpt>
      <trkpt lat="44.62157" lon="5.86459">
        <ele>1383.8</ele>
        <time>2023-05-19T07:49:22Z</time>
      </trkpt>
      <trkpt lat="44.62151" lon="5.86456">
        <ele>1382.6</ele>
        <time>2023-05-19T07:49:23Z</time>
      </trkpt>
      <trkpt lat="44.62146" lon="5.86453">
        <ele>1381.8</ele>
        <time>2023-05-19T07:49:24Z</time>
      </trkpt>
      <trkpt lat="44.6214" lon="5.8645">
        <ele>1380.4</ele>
        <time>2023-05-19T07:49:25Z</time>
      </trkpt>
      <trkpt lat="44.62134" lon="5.86447">
        <ele>1379</ele>
        <time>2023-05-19T07:49:26Z</time>
      </trkpt>
      <trkpt lat="44.6212" lon="5.8644">
        <ele>1377.2</ele>
        <time>2023-05-19T07:49:28Z</time>
      </trkpt>
      <trkpt lat="44.62116" lon="5.86434">
        <ele>1376.2</ele>
        <time>2023-05-19T07:49:29Z</time>
      </trkpt>
      <trkpt lat="44.62112" lon="5.86428">
        <ele>1375.2</ele>
        <time>2023-05-19T07:49:30Z</time>
      </trkpt>
      <trkpt lat="44.62108" lon="5.8642">
        <ele>1374.6</ele>
        <time>2023-05-19T07:49:31Z</time>
      </trkpt>
      <trkpt lat="44.62106" lon="5.86412">
        <ele>1373.2</ele>
        <time>2023-05-19T07:49:32Z</time>
      </trkpt>
      <trkpt lat="44.62103" lon="5.86404">
        <ele>1372.6</ele>
        <time>2023-05-19T07:49:33Z</time>
      </trkpt>
      <trkpt lat="44.62098" lon="5.86394">
        <ele>1371.2</ele>
        <time>2023-05-19T07:49:34Z</time>
      </trkpt>
      <trkpt lat="44.62096" lon="5.86388">
        <ele>1370.2</ele>
        <time>2023-05-19T07:49:35Z</time>
      </trkpt>
      <trkpt lat="44.62089" lon="5.86384">
        <ele>1368.2</ele>
        <time>2023-05-19T07:49:37Z</time>
      </trkpt>
      <trkpt lat="44.62084" lon="5.86384">
        <ele>1367</ele>
        <time>2023-05-19T07:49:38Z</time>
      </trkpt>
      <trkpt lat="44.62075" lon="5.8638">
        <ele>1365.6</ele>
        <time>2023-05-19T07:49:39Z</time>
      </trkpt>
      <trkpt lat="44.62072" lon="5.86375">
        <ele>1364.6</ele>
        <time>2023-05-19T07:49:40Z</time>
      </trkpt>
      <trkpt lat="44.62069" lon="5.86371">
        <ele>1362.2</ele>
        <time>2023-05-19T07:49:41Z</time>
      </trkpt>
      <trkpt lat="44.62063" lon="5.86366">
        <ele>1360.8</ele>
        <time>2023-05-19T07:49:42Z</time>
      </trkpt>
      <trkpt lat="44.62058" lon="5.86359">
        <ele>1359.2</ele>
        <time>2023-05-19T07:49:43Z</time>
      </trkpt>
      <trkpt lat="44.62052" lon="5.86352">
        <ele>1358</ele>
        <time>2023-05-19T07:49:44Z</time>
      </trkpt>
      <trkpt lat="44.62041" lon="5.86335">
        <ele>1355.8</ele>
        <time>2023-05-19T07:49:46Z</time>
      </trkpt>
      <trkpt lat="44.62033" lon="5.8632">
        <ele>1354.2</ele>
        <time>2023-05-19T07:49:48Z</time>
      </trkpt>
      <trkpt lat="44.62032" lon="5.86312">
        <ele>1353.6</ele>
        <time>2023-05-19T07:49:49Z</time>
      </trkpt>
      <trkpt lat="44.62031" lon="5.86305">
        <ele>1352</ele>
        <time>2023-05-19T07:49:50Z</time>
      </trkpt>
      <trkpt lat="44.62029" lon="5.86298">
        <ele>1351.4</ele>
        <time>2023-05-19T07:49:51Z</time>
      </trkpt>
      <trkpt lat="44.62028" lon="5.86292">
        <ele>1350.4</ele>
        <time>2023-05-19T07:49:52Z</time>
      </trkpt>
      <trkpt lat="44.62028" lon="5.86286">
        <ele>1349.2</ele>
        <time>2023-05-19T07:49:53Z</time>
      </trkpt>
      <trkpt lat="44.62027" lon="5.8628">
        <ele>1348.6</ele>
        <time>2023-05-19T07:49:54Z</time>
      </trkpt>
      <trkpt lat="44.62026" lon="5.86274">
        <ele>1347.6</ele>
        <time>2023-05-19T07:49:55Z</time>
      </trkpt>
      <trkpt lat="44.62025" lon="5.86269">
        <ele>1346.8</ele>
        <time>2023-05-19T07:49:56Z</time>
      </trkpt>
      <trkpt lat="44.62024" lon="5.86262">
        <ele>1345.4</ele>
        <time>2023-05-19T07:49:57Z</time>
      </trkpt>
      <trkpt lat="44.62023" lon="5.86249">
        <ele>1343.6</ele>
        <time>2023-05-19T07:49:59Z</time>
      </trkpt>
      <trkpt lat="44.62018" lon="5.86244">
        <ele>1343.2</ele>
        <time>2023-05-19T07:50:00Z</time>
      </trkpt>
      <trkpt lat="44.62015" lon="5.86241">
        <ele>1342</ele>
        <time>2023-05-19T07:50:01Z</time>
      </trkpt>
      <trkpt lat="44.62011" lon="5.8624">
        <ele>1340.6</ele>
        <time>2023-05-19T07:50:02Z</time>
      </trkpt>
      <trkpt lat="44.62009" lon="5.86238">
        <ele>1339.6</ele>
        <time>2023-05-19T07:50:03Z</time>
      </trkpt>
      <trkpt lat="44.62007" lon="5.86237">
        <ele>1337.8</ele>
        <time>2023-05-19T07:50:04Z</time>
      </trkpt>
      <trkpt lat="44.62005" lon="5.86237">
        <ele>1337.2</ele>
        <time>2023-05-19T07:50:05Z</time>
      </trkpt>
      <trkpt lat="44.62003" lon="5.86238">
        <ele>1336.2</ele>
        <time>2023-05-19T07:50:06Z</time>
      </trkpt>
      <trkpt lat="44.62001" lon="5.86237">
        <ele>1335.8</ele>
        <time>2023-05-19T07:50:07Z</time>
      </trkpt>
      <trkpt lat="44.61996" lon="5.86234">
        <ele>1335</ele>
        <time>2023-05-19T07:50:08Z</time>
      </trkpt>
      <trkpt lat="44.6199" lon="5.86233">
        <ele>1334.6</ele>
        <time>2023-05-19T07:50:09Z</time>
      </trkpt>
      <trkpt lat="44.61987" lon="5.86232">
        <ele>1334</ele>
        <time>2023-05-19T07:50:10Z</time>
      </trkpt>
      <trkpt lat="44.61984" lon="5.86231">
        <ele>1333.6</ele>
        <time>2023-05-19T07:50:11Z</time>
      </trkpt>
      <trkpt lat="44.61978" lon="5.86231">
        <ele>1333.2</ele>
        <time>2023-05-19T07:50:12Z</time>
      </trkpt>
      <trkpt lat="44.61974" lon="5.86234">
        <ele>1332.6</ele>
        <time>2023-05-19T07:50:13Z</time>
      </trkpt>
      <trkpt lat="44.61972" lon="5.86235">
        <ele>1332.4</ele>
        <time>2023-05-19T07:50:14Z</time>
      </trkpt>
      <trkpt lat="44.61971" lon="5.86237">
        <ele>1332</ele>
        <time>2023-05-19T07:50:15Z</time>
      </trkpt>
      <trkpt lat="44.6197" lon="5.86237">
        <ele>1331.8</ele>
        <time>2023-05-19T07:50:16Z</time>
      </trkpt>
      <trkpt lat="44.6197" lon="5.86237">
        <ele>1331.4</ele>
        <time>2023-05-19T07:50:17Z</time>
      </trkpt>
      <trkpt lat="44.6197" lon="5.86237">
        <ele>1331.2</ele>
        <time>2023-05-19T07:50:18Z</time>
      </trkpt>
      <trkpt lat="44.6197" lon="5.86237">
        <ele>1330.4</ele>
        <time>2023-05-19T07:50:21Z</time>
      </trkpt>
      <trkpt lat="44.6197" lon="5.86237">
        <ele>1330.2</ele>
        <time>2023-05-19T07:50:22Z</time>
      </trkpt>
      <trkpt lat="44.6197" lon="5.86237">
        <ele>1329.4</ele>
        <time>2023-05-19T07:50:27Z</time>
      </trkpt>
      <trkpt lat="44.6197" lon="5.86237">
        <ele>1328.4</ele>
        <time>2023-05-19T07:50:40Z</time>
      </trkpt>
      <trkpt lat="44.6197" lon="5.86236">
        <ele>1328.2</ele>
        <time>2023-05-19T07:51:02Z</time>
      </trkpt>
      <trkpt lat="44.61963" lon="5.86237">
        <ele>1328</ele>
        <time>2023-05-19T07:51:06Z</time>
      </trkpt>
      <trkpt lat="44.61959" lon="5.86238">
        <ele>1328</ele>
        <time>2023-05-19T07:51:07Z</time>
      </trkpt>
      <trkpt lat="44.61956" lon="5.86239">
        <ele>1328</ele>
        <time>2023-05-19T07:51:08Z</time>
      </trkpt>
      <trkpt lat="44.61947" lon="5.86241">
        <ele>1327.6</ele>
        <time>2023-05-19T07:51:10Z</time>
      </trkpt>
      <trkpt lat="44.61938" lon="5.86246">
        <ele>1327.4</ele>
        <time>2023-05-19T07:51:12Z</time>
      </trkpt>
      <trkpt lat="44.6193" lon="5.86246">
        <ele>1326.6</ele>
        <time>2023-05-19T07:51:14Z</time>
      </trkpt>
      <trkpt lat="44.61927" lon="5.86245">
        <ele>1325.6</ele>
        <time>2023-05-19T07:51:15Z</time>
      </trkpt>
      <trkpt lat="44.61923" lon="5.86243">
        <ele>1324.4</ele>
        <time>2023-05-19T07:51:16Z</time>
      </trkpt>
      <trkpt lat="44.61919" lon="5.8624">
        <ele>1323.6</ele>
        <time>2023-05-19T07:51:17Z</time>
      </trkpt>
      <trkpt lat="44.61915" lon="5.8624">
        <ele>1322.2</ele>
        <time>2023-05-19T07:51:18Z</time>
      </trkpt>
      <trkpt lat="44.61908" lon="5.86239">
        <ele>1319.8</ele>
        <time>2023-05-19T07:51:20Z</time>
      </trkpt>
      <trkpt lat="44.61903" lon="5.8624">
        <ele>1319</ele>
        <time>2023-05-19T07:51:21Z</time>
      </trkpt>
      <trkpt lat="44.61899" lon="5.86241">
        <ele>1317.4</ele>
        <time>2023-05-19T07:51:22Z</time>
      </trkpt>
      <trkpt lat="44.61893" lon="5.86243">
        <ele>1317</ele>
        <time>2023-05-19T07:51:23Z</time>
      </trkpt>
      <trkpt lat="44.61888" lon="5.86243">
        <ele>1315.4</ele>
        <time>2023-05-19T07:51:24Z</time>
      </trkpt>
      <trkpt lat="44.61883" lon="5.86244">
        <ele>1313.8</ele>
        <time>2023-05-19T07:51:25Z</time>
      </trkpt>
      <trkpt lat="44.61876" lon="5.86245">
        <ele>1312.8</ele>
        <time>2023-05-19T07:51:26Z</time>
      </trkpt>
      <trkpt lat="44.6187" lon="5.86247">
        <ele>1311</ele>
        <time>2023-05-19T07:51:27Z</time>
      </trkpt>
      <trkpt lat="44.61864" lon="5.86248">
        <ele>1309.8</ele>
        <time>2023-05-19T07:51:28Z</time>
      </trkpt>
      <trkpt lat="44.61858" lon="5.86249">
        <ele>1308.2</ele>
        <time>2023-05-19T07:51:29Z</time>
      </trkpt>
      <trkpt lat="44.61853" lon="5.86252">
        <ele>1307.6</ele>
        <time>2023-05-19T07:51:30Z</time>
      </trkpt>
      <trkpt lat="44.61848" lon="5.86256">
        <ele>1306.4</ele>
        <time>2023-05-19T07:51:31Z</time>
      </trkpt>
      <trkpt lat="44.61837" lon="5.86262">
        <ele>1303.8</ele>
        <time>2023-05-19T07:51:33Z</time>
      </trkpt>
      <trkpt lat="44.61831" lon="5.86265">
        <ele>1301.4</ele>
        <time>2023-05-19T07:51:34Z</time>
      </trkpt>
      <trkpt lat="44.61825" lon="5.86273">
        <ele>1299.8</ele>
        <time>2023-05-19T07:51:36Z</time>
      </trkpt>
      <trkpt lat="44.61823" lon="5.86278">
        <ele>1299</ele>
        <time>2023-05-19T07:51:37Z</time>
      </trkpt>
      <trkpt lat="44.61818" lon="5.86281">
        <ele>1297.2</ele>
        <time>2023-05-19T07:51:38Z</time>
      </trkpt>
      <trkpt lat="44.61814" lon="5.86283">
        <ele>1296.4</ele>
        <time>2023-05-19T07:51:39Z</time>
      </trkpt>
      <trkpt lat="44.61812" lon="5.86286">
        <ele>1295.6</ele>
        <time>2023-05-19T07:51:40Z</time>
      </trkpt>
      <trkpt lat="44.61809" lon="5.86289">
        <ele>1295</ele>
        <time>2023-05-19T07:51:41Z</time>
      </trkpt>
      <trkpt lat="44.61807" lon="5.86292">
        <ele>1294.2</ele>
        <time>2023-05-19T07:51:42Z</time>
      </trkpt>
      <trkpt lat="44.61801" lon="5.86302">
        <ele>1293.6</ele>
        <time>2023-05-19T07:51:44Z</time>
      </trkpt>
      <trkpt lat="44.618" lon="5.86307">
        <ele>1292.2</ele>
        <time>2023-05-19T07:51:45Z</time>
      </trkpt>
      <trkpt lat="44.61799" lon="5.86312">
        <ele>1291.2</ele>
        <time>2023-05-19T07:51:46Z</time>
      </trkpt>
      <trkpt lat="44.61798" lon="5.86317">
        <ele>1290</ele>
        <time>2023-05-19T07:51:47Z</time>
      </trkpt>
      <trkpt lat="44.61796" lon="5.86322">
        <ele>1289.6</ele>
        <time>2023-05-19T07:51:48Z</time>
      </trkpt>
      <trkpt lat="44.61794" lon="5.86325">
        <ele>1288.8</ele>
        <time>2023-05-19T07:51:49Z</time>
      </trkpt>
      <trkpt lat="44.61786" lon="5.86331">
        <ele>1287.6</ele>
        <time>2023-05-19T07:51:51Z</time>
      </trkpt>
      <trkpt lat="44.61782" lon="5.86333">
        <ele>1285.8</ele>
        <time>2023-05-19T07:51:52Z</time>
      </trkpt>
      <trkpt lat="44.61778" lon="5.86334">
        <ele>1285</ele>
        <time>2023-05-19T07:51:53Z</time>
      </trkpt>
      <trkpt lat="44.61774" lon="5.86335">
        <ele>1283.8</ele>
        <time>2023-05-19T07:51:54Z</time>
      </trkpt>
      <trkpt lat="44.61767" lon="5.86339">
        <ele>1282.2</ele>
        <time>2023-05-19T07:51:56Z</time>
      </trkpt>
      <trkpt lat="44.61764" lon="5.8634">
        <ele>1281.8</ele>
        <time>2023-05-19T07:51:57Z</time>
      </trkpt>
      <trkpt lat="44.6176" lon="5.86341">
        <ele>1280.6</ele>
        <time>2023-05-19T07:51:58Z</time>
      </trkpt>
      <trkpt lat="44.61757" lon="5.86341">
        <ele>1279.6</ele>
        <time>2023-05-19T07:51:59Z</time>
      </trkpt>
      <trkpt lat="44.61753" lon="5.86341">
        <ele>1277.6</ele>
        <time>2023-05-19T07:52:00Z</time>
      </trkpt>
      <trkpt lat="44.61749" lon="5.8634">
        <ele>1276.4</ele>
        <time>2023-05-19T07:52:01Z</time>
      </trkpt>
      <trkpt lat="44.61745" lon="5.86338">
        <ele>1275.8</ele>
        <time>2023-05-19T07:52:02Z</time>
      </trkpt>
      <trkpt lat="44.61741" lon="5.86336">
        <ele>1274.8</ele>
        <time>2023-05-19T07:52:03Z</time>
      </trkpt>
      <trkpt lat="44.61735" lon="5.86334">
        <ele>1273.4</ele>
        <time>2023-05-19T07:52:05Z</time>
      </trkpt>
      <trkpt lat="44.61726" lon="5.86331">
        <ele>1271.2</ele>
        <time>2023-05-19T07:52:07Z</time>
      </trkpt>
      <trkpt lat="44.61721" lon="5.8633">
        <ele>1270.8</ele>
        <time>2023-05-19T07:52:08Z</time>
      </trkpt>
      <trkpt lat="44.61715" lon="5.86329">
        <ele>1269.6</ele>
        <time>2023-05-19T07:52:09Z</time>
      </trkpt>
      <trkpt lat="44.61708" lon="5.86329">
        <ele>1268.4</ele>
        <time>2023-05-19T07:52:10Z</time>
      </trkpt>
      <trkpt lat="44.61694" lon="5.86332">
        <ele>1266.8</ele>
        <time>2023-05-19T07:52:12Z</time>
      </trkpt>
      <trkpt lat="44.61689" lon="5.86335">
        <ele>1266.6</ele>
        <time>2023-05-19T07:52:13Z</time>
      </trkpt>
      <trkpt lat="44.61685" lon="5.86337">
        <ele>1266</ele>
        <time>2023-05-19T07:52:14Z</time>
      </trkpt>
      <trkpt lat="44.6168" lon="5.86339">
        <ele>1265.4</ele>
        <time>2023-05-19T07:52:15Z</time>
      </trkpt>
      <trkpt lat="44.61675" lon="5.86337">
        <ele>1264.6</ele>
        <time>2023-05-19T07:52:16Z</time>
      </trkpt>
      <trkpt lat="44.61672" lon="5.86335">
        <ele>1264.2</ele>
        <time>2023-05-19T07:52:17Z</time>
      </trkpt>
      <trkpt lat="44.61669" lon="5.86331">
        <ele>1263</ele>
        <time>2023-05-19T07:52:18Z</time>
      </trkpt>
      <trkpt lat="44.61666" lon="5.86328">
        <ele>1262</ele>
        <time>2023-05-19T07:52:19Z</time>
      </trkpt>
      <trkpt lat="44.61662" lon="5.86325">
        <ele>1261.6</ele>
        <time>2023-05-19T07:52:20Z</time>
      </trkpt>
      <trkpt lat="44.61659" lon="5.86324">
        <ele>1260.6</ele>
        <time>2023-05-19T07:52:21Z</time>
      </trkpt>
      <trkpt lat="44.61657" lon="5.86324">
        <ele>1260.2</ele>
        <time>2023-05-19T07:52:22Z</time>
      </trkpt>
      <trkpt lat="44.61656" lon="5.86324">
        <ele>1259.8</ele>
        <time>2023-05-19T07:52:23Z</time>
      </trkpt>
      <trkpt lat="44.61656" lon="5.86324">
        <ele>1259.8</ele>
        <time>2023-05-19T07:52:24Z</time>
      </trkpt>
      <trkpt lat="44.61656" lon="5.86324">
        <ele>1258.4</ele>
        <time>2023-05-19T07:52:25Z</time>
      </trkpt>
      <trkpt lat="44.61656" lon="5.86324">
        <ele>1258</ele>
        <time>2023-05-19T07:52:26Z</time>
      </trkpt>
      <trkpt lat="44.61656" lon="5.86324">
        <ele>1257.2</ele>
        <time>2023-05-19T07:52:27Z</time>
      </trkpt>
      <trkpt lat="44.61656" lon="5.86324">
        <ele>1255.8</ele>
        <time>2023-05-19T07:52:30Z</time>
      </trkpt>
      <trkpt lat="44.61656" lon="5.86324">
        <ele>1255</ele>
        <time>2023-05-19T07:52:34Z</time>
      </trkpt>
      <trkpt lat="44.61656" lon="5.86324">
        <ele>1254</ele>
        <time>2023-05-19T07:52:43Z</time>
      </trkpt>
      <trkpt lat="44.61656" lon="5.86324">
        <ele>1253.2</ele>
        <time>2023-05-19T07:52:51Z</time>
      </trkpt>
      <trkpt lat="44.61656" lon="5.86324">
        <ele>1253.2</ele>
        <time>2023-05-19T07:53:20Z</time>
      </trkpt>
      <trkpt lat="44.61656" lon="5.86324">
        <ele>1252.8</ele>
        <time>2023-05-19T07:53:22Z</time>
      </trkpt>
      <trkpt lat="44.61656" lon="5.86324">
        <ele>1253</ele>
        <time>2023-05-19T07:53:36Z</time>
      </trkpt>
      <trkpt lat="44.61656" lon="5.86324">
        <ele>1252.6</ele>
        <time>2023-05-19T07:53:50Z</time>
      </trkpt>
      <trkpt lat="44.61656" lon="5.86324">
        <ele>1252.6</ele>
        <time>2023-05-19T07:53:55Z</time>
      </trkpt>
      <trkpt lat="44.61656" lon="5.86324">
        <ele>1252.2</ele>
        <time>2023-05-19T07:54:08Z</time>
      </trkpt>
      <trkpt lat="44.61656" lon="5.86324">
        <ele>1252</ele>
        <time>2023-05-19T07:54:10Z</time>
      </trkpt>
      <trkpt lat="44.61656" lon="5.86324">
        <ele>1252</ele>
        <time>2023-05-19T07:54:14Z</time>
      </trkpt>
      <trkpt lat="44.61656" lon="5.86324">
        <ele>1252.8</ele>
        <time>2023-05-19T07:54:33Z</time>
      </trkpt>
      <trkpt lat="44.61656" lon="5.86324">
        <ele>1253</ele>
        <time>2023-05-19T07:54:37Z</time>
      </trkpt>
      <trkpt lat="44.61656" lon="5.86324">
        <ele>1253</ele>
        <time>2023-05-19T07:54:40Z</time>
      </trkpt>
      <trkpt lat="44.61653" lon="5.86327">
        <ele>1253</ele>
        <time>2023-05-19T07:54:46Z</time>
      </trkpt>
      <trkpt lat="44.61652" lon="5.86328">
        <ele>1253</ele>
        <time>2023-05-19T07:54:47Z</time>
      </trkpt>
      <trkpt lat="44.61646" lon="5.86322">
        <ele>1252.8</ele>
        <time>2023-05-19T07:54:50Z</time>
      </trkpt>
      <trkpt lat="44.61641" lon="5.86314">
        <ele>1252.6</ele>
        <time>2023-05-19T07:54:53Z</time>
      </trkpt>
      <trkpt lat="44.61639" lon="5.86312">
        <ele>1252.2</ele>
        <time>2023-05-19T07:54:54Z</time>
      </trkpt>
      <trkpt lat="44.61634" lon="5.86312">
        <ele>1251.8</ele>
        <time>2023-05-19T07:54:55Z</time>
      </trkpt>
      <trkpt lat="44.61634" lon="5.86312">
        <ele>1251.6</ele>
        <time>2023-05-19T07:54:56Z</time>
      </trkpt>
      <trkpt lat="44.61634" lon="5.86312">
        <ele>1251.4</ele>
        <time>2023-05-19T07:54:57Z</time>
      </trkpt>
      <trkpt lat="44.61634" lon="5.86312">
        <ele>1251.2</ele>
        <time>2023-05-19T07:54:58Z</time>
      </trkpt>
      <trkpt lat="44.61634" lon="5.86312">
        <ele>1250.8</ele>
        <time>2023-05-19T07:55:01Z</time>
      </trkpt>
      <trkpt lat="44.61632" lon="5.86315">
        <ele>1249.2</ele>
        <time>2023-05-19T07:55:05Z</time>
      </trkpt>
      <trkpt lat="44.61632" lon="5.86317">
        <ele>1249</ele>
        <time>2023-05-19T07:55:06Z</time>
      </trkpt>
      <trkpt lat="44.61631" lon="5.86325">
        <ele>1248.8</ele>
        <time>2023-05-19T07:55:09Z</time>
      </trkpt>
      <trkpt lat="44.61631" lon="5.86327">
        <ele>1248.8</ele>
        <time>2023-05-19T07:55:10Z</time>
      </trkpt>
      <trkpt lat="44.61631" lon="5.8633">
        <ele>1248.6</ele>
        <time>2023-05-19T07:55:11Z</time>
      </trkpt>
      <trkpt lat="44.61633" lon="5.86339">
        <ele>1248.4</ele>
        <time>2023-05-19T07:55:14Z</time>
      </trkpt>
      <trkpt lat="44.61636" lon="5.86354">
        <ele>1248.4</ele>
        <time>2023-05-19T07:55:18Z</time>
      </trkpt>
      <trkpt lat="44.61637" lon="5.8636">
        <ele>1248.2</ele>
        <time>2023-05-19T07:55:20Z</time>
      </trkpt>
      <trkpt lat="44.61638" lon="5.86363">
        <ele>1248</ele>
        <time>2023-05-19T07:55:21Z</time>
      </trkpt>
      <trkpt lat="44.61638" lon="5.86365">
        <ele>1248</ele>
        <time>2023-05-19T07:55:22Z</time>
      </trkpt>
      <trkpt lat="44.61638" lon="5.86367">
        <ele>1247.8</ele>
        <time>2023-05-19T07:55:23Z</time>
      </trkpt>
      <trkpt lat="44.61636" lon="5.86369">
        <ele>1247.8</ele>
        <time>2023-05-19T07:55:24Z</time>
      </trkpt>
      <trkpt lat="44.61635" lon="5.86372">
        <ele>1247.6</ele>
        <time>2023-05-19T07:55:25Z</time>
      </trkpt>
      <trkpt lat="44.61634" lon="5.86374">
        <ele>1247.6</ele>
        <time>2023-05-19T07:55:26Z</time>
      </trkpt>
      <trkpt lat="44.61633" lon="5.86377">
        <ele>1247.4</ele>
        <time>2023-05-19T07:55:27Z</time>
      </trkpt>
      <trkpt lat="44.61632" lon="5.86379">
        <ele>1247.4</ele>
        <time>2023-05-19T07:55:28Z</time>
      </trkpt>
      <trkpt lat="44.61631" lon="5.86382">
        <ele>1247.2</ele>
        <time>2023-05-19T07:55:29Z</time>
      </trkpt>
      <trkpt lat="44.61631" lon="5.86383">
        <ele>1247.2</ele>
        <time>2023-05-19T07:55:30Z</time>
      </trkpt>
      <trkpt lat="44.6163" lon="5.86386">
        <ele>1247.2</ele>
        <time>2023-05-19T07:55:31Z</time>
      </trkpt>
      <trkpt lat="44.61631" lon="5.86388">
        <ele>1247</ele>
        <time>2023-05-19T07:55:32Z</time>
      </trkpt>
      <trkpt lat="44.61631" lon="5.86391">
        <ele>1247</ele>
        <time>2023-05-19T07:55:33Z</time>
      </trkpt>
      <trkpt lat="44.61631" lon="5.86392">
        <ele>1247</ele>
        <time>2023-05-19T07:55:34Z</time>
      </trkpt>
      <trkpt lat="44.61631" lon="5.86394">
        <ele>1247</ele>
        <time>2023-05-19T07:55:35Z</time>
      </trkpt>
      <trkpt lat="44.61631" lon="5.86395">
        <ele>1247</ele>
        <time>2023-05-19T07:55:36Z</time>
      </trkpt>
      <trkpt lat="44.6163" lon="5.86395">
        <ele>1247</ele>
        <time>2023-05-19T07:55:37Z</time>
      </trkpt>
      <trkpt lat="44.6163" lon="5.86395">
        <ele>1247</ele>
        <time>2023-05-19T07:55:38Z</time>
      </trkpt>
      <trkpt lat="44.6163" lon="5.86395">
        <ele>1247.4</ele>
        <time>2023-05-19T07:55:43Z</time>
      </trkpt>
      <trkpt lat="44.6163" lon="5.86395">
        <ele>1247.6</ele>
        <time>2023-05-19T07:55:45Z</time>
      </trkpt>
      <trkpt lat="44.61629" lon="5.86403">
        <ele>1247.8</ele>
        <time>2023-05-19T07:55:57Z</time>
      </trkpt>
      <trkpt lat="44.61629" lon="5.8641">
        <ele>1247.6</ele>
        <time>2023-05-19T07:55:59Z</time>
      </trkpt>
      <trkpt lat="44.61629" lon="5.86413">
        <ele>1247.6</ele>
        <time>2023-05-19T07:56:00Z</time>
      </trkpt>
      <trkpt lat="44.61629" lon="5.86416">
        <ele>1247.4</ele>
        <time>2023-05-19T07:56:01Z</time>
      </trkpt>
      <trkpt lat="44.61629" lon="5.8642">
        <ele>1247.2</ele>
        <time>2023-05-19T07:56:02Z</time>
      </trkpt>
      <trkpt lat="44.61629" lon="5.86423">
        <ele>1246.8</ele>
        <time>2023-05-19T07:56:03Z</time>
      </trkpt>
      <trkpt lat="44.61627" lon="5.86426">
        <ele>1246.2</ele>
        <time>2023-05-19T07:56:05Z</time>
      </trkpt>
      <trkpt lat="44.61627" lon="5.86427">
        <ele>1245.6</ele>
        <time>2023-05-19T07:56:06Z</time>
      </trkpt>
      <trkpt lat="44.61625" lon="5.86428">
        <ele>1245.2</ele>
        <time>2023-05-19T07:56:07Z</time>
      </trkpt>
      <trkpt lat="44.61624" lon="5.86429">
        <ele>1244.6</ele>
        <time>2023-05-19T07:56:08Z</time>
      </trkpt>
      <trkpt lat="44.61623" lon="5.86431">
        <ele>1244.4</ele>
        <time>2023-05-19T07:56:09Z</time>
      </trkpt>
      <trkpt lat="44.61622" lon="5.86432">
        <ele>1244</ele>
        <time>2023-05-19T07:56:10Z</time>
      </trkpt>
      <trkpt lat="44.61621" lon="5.86433">
        <ele>1243.4</ele>
        <time>2023-05-19T07:56:12Z</time>
      </trkpt>
      <trkpt lat="44.6162" lon="5.86434">
        <ele>1243.2</ele>
        <time>2023-05-19T07:56:13Z</time>
      </trkpt>
      <trkpt lat="44.61618" lon="5.86434">
        <ele>1242.8</ele>
        <time>2023-05-19T07:56:14Z</time>
      </trkpt>
      <trkpt lat="44.61616" lon="5.86433">
        <ele>1242.2</ele>
        <time>2023-05-19T07:56:15Z</time>
      </trkpt>
      <trkpt lat="44.61612" lon="5.86432">
        <ele>1241.6</ele>
        <time>2023-05-19T07:56:17Z</time>
      </trkpt>
      <trkpt lat="44.61611" lon="5.86431">
        <ele>1241.4</ele>
        <time>2023-05-19T07:56:18Z</time>
      </trkpt>
      <trkpt lat="44.61611" lon="5.86431">
        <ele>1241.2</ele>
        <time>2023-05-19T07:56:19Z</time>
      </trkpt>
      <trkpt lat="44.61611" lon="5.86431">
        <ele>1241</ele>
        <time>2023-05-19T07:56:20Z</time>
      </trkpt>
      <trkpt lat="44.61611" lon="5.86431">
        <ele>1240.8</ele>
        <time>2023-05-19T07:56:21Z</time>
      </trkpt>
      <trkpt lat="44.61611" lon="5.86431">
        <ele>1240.4</ele>
        <time>2023-05-19T07:56:23Z</time>
      </trkpt>
      <trkpt lat="44.61611" lon="5.86431">
        <ele>1240</ele>
        <time>2023-05-19T07:56:30Z</time>
      </trkpt>
      <trkpt lat="44.61611" lon="5.86431">
        <ele>1240</ele>
        <time>2023-05-19T07:56:49Z</time>
      </trkpt>
      <trkpt lat="44.61605" lon="5.86426">
        <ele>1239.8</ele>
        <time>2023-05-19T07:57:04Z</time>
      </trkpt>
      <trkpt lat="44.61598" lon="5.86422">
        <ele>1239.8</ele>
        <time>2023-05-19T07:57:07Z</time>
      </trkpt>
      <trkpt lat="44.61595" lon="5.86422">
        <ele>1239</ele>
        <time>2023-05-19T07:57:09Z</time>
      </trkpt>
      <trkpt lat="44.61593" lon="5.86421">
        <ele>1238.8</ele>
        <time>2023-05-19T07:57:10Z</time>
      </trkpt>
      <trkpt lat="44.61591" lon="5.86421">
        <ele>1238</ele>
        <time>2023-05-19T07:57:11Z</time>
      </trkpt>
      <trkpt lat="44.61588" lon="5.86421">
        <ele>1237.8</ele>
        <time>2023-05-19T07:57:12Z</time>
      </trkpt>
      <trkpt lat="44.61584" lon="5.8642">
        <ele>1237</ele>
        <time>2023-05-19T07:57:14Z</time>
      </trkpt>
      <trkpt lat="44.61582" lon="5.8642">
        <ele>1236.6</ele>
        <time>2023-05-19T07:57:15Z</time>
      </trkpt>
      <trkpt lat="44.6158" lon="5.8642">
        <ele>1236.4</ele>
        <time>2023-05-19T07:57:16Z</time>
      </trkpt>
      <trkpt lat="44.61579" lon="5.8642">
        <ele>1235.8</ele>
        <time>2023-05-19T07:57:17Z</time>
      </trkpt>
      <trkpt lat="44.61577" lon="5.86419">
        <ele>1235.4</ele>
        <time>2023-05-19T07:57:18Z</time>
      </trkpt>
      <trkpt lat="44.61575" lon="5.86419">
        <ele>1235</ele>
        <time>2023-05-19T07:57:19Z</time>
      </trkpt>
      <trkpt lat="44.61572" lon="5.86418">
        <ele>1234.6</ele>
        <time>2023-05-19T07:57:20Z</time>
      </trkpt>
      <trkpt lat="44.61571" lon="5.86418">
        <ele>1234.2</ele>
        <time>2023-05-19T07:57:21Z</time>
      </trkpt>
      <trkpt lat="44.6157" lon="5.86417">
        <ele>1233.6</ele>
        <time>2023-05-19T07:57:22Z</time>
      </trkpt>
      <trkpt lat="44.61568" lon="5.86416">
        <ele>1233.6</ele>
        <time>2023-05-19T07:57:23Z</time>
      </trkpt>
      <trkpt lat="44.61567" lon="5.86416">
        <ele>1232.8</ele>
        <time>2023-05-19T07:57:24Z</time>
      </trkpt>
      <trkpt lat="44.61566" lon="5.86416">
        <ele>1232.4</ele>
        <time>2023-05-19T07:57:25Z</time>
      </trkpt>
      <trkpt lat="44.61564" lon="5.86416">
        <ele>1231.8</ele>
        <time>2023-05-19T07:57:26Z</time>
      </trkpt>
      <trkpt lat="44.61563" lon="5.86417">
        <ele>1231.2</ele>
        <time>2023-05-19T07:57:27Z</time>
      </trkpt>
      <trkpt lat="44.61563" lon="5.86418">
        <ele>1231</ele>
        <time>2023-05-19T07:57:28Z</time>
      </trkpt>
      <trkpt lat="44.61563" lon="5.86418">
        <ele>1230.4</ele>
        <time>2023-05-19T07:57:29Z</time>
      </trkpt>
      <trkpt lat="44.61561" lon="5.86418">
        <ele>1230</ele>
        <time>2023-05-19T07:57:30Z</time>
      </trkpt>
      <trkpt lat="44.61561" lon="5.86418">
        <ele>1229.4</ele>
        <time>2023-05-19T07:57:31Z</time>
      </trkpt>
      <trkpt lat="44.61559" lon="5.86418">
        <ele>1229</ele>
        <time>2023-05-19T07:57:32Z</time>
      </trkpt>
      <trkpt lat="44.61558" lon="5.86419">
        <ele>1228.6</ele>
        <time>2023-05-19T07:57:33Z</time>
      </trkpt>
      <trkpt lat="44.61556" lon="5.8642">
        <ele>1228.4</ele>
        <time>2023-05-19T07:57:34Z</time>
      </trkpt>
      <trkpt lat="44.61555" lon="5.8642">
        <ele>1228</ele>
        <time>2023-05-19T07:57:35Z</time>
      </trkpt>
      <trkpt lat="44.61555" lon="5.86421">
        <ele>1227.4</ele>
        <time>2023-05-19T07:57:36Z</time>
      </trkpt>
      <trkpt lat="44.61555" lon="5.8642">
        <ele>1227.2</ele>
        <time>2023-05-19T07:57:37Z</time>
      </trkpt>
      <trkpt lat="44.61555" lon="5.8642">
        <ele>1226.4</ele>
        <time>2023-05-19T07:57:38Z</time>
      </trkpt>
      <trkpt lat="44.61555" lon="5.8642">
        <ele>1226</ele>
        <time>2023-05-19T07:57:39Z</time>
      </trkpt>
      <trkpt lat="44.61555" lon="5.86421">
        <ele>1225.4</ele>
        <time>2023-05-19T07:57:40Z</time>
      </trkpt>
      <trkpt lat="44.61554" lon="5.86422">
        <ele>1224.6</ele>
        <time>2023-05-19T07:57:43Z</time>
      </trkpt>
      <trkpt lat="44.61552" lon="5.86423">
        <ele>1224.2</ele>
        <time>2023-05-19T07:57:45Z</time>
      </trkpt>
      <trkpt lat="44.61551" lon="5.86423">
        <ele>1224.2</ele>
        <time>2023-05-19T07:57:46Z</time>
      </trkpt>
      <trkpt lat="44.61551" lon="5.86423">
        <ele>1224</ele>
        <time>2023-05-19T07:57:47Z</time>
      </trkpt>
      <trkpt lat="44.6155" lon="5.86423">
        <ele>1223.8</ele>
        <time>2023-05-19T07:57:48Z</time>
      </trkpt>
      <trkpt lat="44.6155" lon="5.86423">
        <ele>1223.6</ele>
        <time>2023-05-19T07:57:49Z</time>
      </trkpt>
      <trkpt lat="44.6155" lon="5.86423">
        <ele>1223.2</ele>
        <time>2023-05-19T07:57:51Z</time>
      </trkpt>
      <trkpt lat="44.6155" lon="5.86423">
        <ele>1222.4</ele>
        <time>2023-05-19T07:57:59Z</time>
      </trkpt>
      <trkpt lat="44.61549" lon="5.86424">
        <ele>1222.6</ele>
        <time>2023-05-19T07:58:08Z</time>
      </trkpt>
      <trkpt lat="44.61548" lon="5.86425">
        <ele>1222.6</ele>
        <time>2023-05-19T07:58:09Z</time>
      </trkpt>
      <trkpt lat="44.61547" lon="5.86425">
        <ele>1222.6</ele>
        <time>2023-05-19T07:58:10Z</time>
      </trkpt>
      <trkpt lat="44.61544" lon="5.86428">
        <ele>1222.4</ele>
        <time>2023-05-19T07:58:13Z</time>
      </trkpt>
      <trkpt lat="44.61544" lon="5.86429">
        <ele>1222.6</ele>
        <time>2023-05-19T07:58:14Z</time>
      </trkpt>
      <trkpt lat="44.61543" lon="5.86431">
        <ele>1222.4</ele>
        <time>2023-05-19T07:58:15Z</time>
      </trkpt>
      <trkpt lat="44.61542" lon="5.86431">
        <ele>1222.2</ele>
        <time>2023-05-19T07:58:16Z</time>
      </trkpt>
      <trkpt lat="44.61541" lon="5.86431">
        <ele>1222</ele>
        <time>2023-05-19T07:58:17Z</time>
      </trkpt>
      <trkpt lat="44.61541" lon="5.86432">
        <ele>1221.8</ele>
        <time>2023-05-19T07:58:18Z</time>
      </trkpt>
      <trkpt lat="44.61539" lon="5.86432">
        <ele>1221.8</ele>
        <time>2023-05-19T07:58:19Z</time>
      </trkpt>
      <trkpt lat="44.61539" lon="5.86433">
        <ele>1221.4</ele>
        <time>2023-05-19T07:58:20Z</time>
      </trkpt>
      <trkpt lat="44.61538" lon="5.86434">
        <ele>1221.4</ele>
        <time>2023-05-19T07:58:21Z</time>
      </trkpt>
      <trkpt lat="44.61537" lon="5.86435">
        <ele>1221.2</ele>
        <time>2023-05-19T07:58:22Z</time>
      </trkpt>
      <trkpt lat="44.61537" lon="5.86436">
        <ele>1221</ele>
        <time>2023-05-19T07:58:23Z</time>
      </trkpt>
      <trkpt lat="44.61537" lon="5.86438">
        <ele>1221</ele>
        <time>2023-05-19T07:58:24Z</time>
      </trkpt>
      <trkpt lat="44.61537" lon="5.86439">
        <ele>1220.6</ele>
        <time>2023-05-19T07:58:25Z</time>
      </trkpt>
      <trkpt lat="44.61536" lon="5.86441">
        <ele>1220.6</ele>
        <time>2023-05-19T07:58:26Z</time>
      </trkpt>
      <trkpt lat="44.61535" lon="5.86445">
        <ele>1220</ele>
        <time>2023-05-19T07:58:29Z</time>
      </trkpt>
      <trkpt lat="44.61535" lon="5.86446">
        <ele>1219.6</ele>
        <time>2023-05-19T07:58:30Z</time>
      </trkpt>
      <trkpt lat="44.61535" lon="5.86447">
        <ele>1219.6</ele>
        <time>2023-05-19T07:58:31Z</time>
      </trkpt>
      <trkpt lat="44.61535" lon="5.86447">
        <ele>1219.2</ele>
        <time>2023-05-19T07:58:32Z</time>
      </trkpt>
      <trkpt lat="44.61535" lon="5.86447">
        <ele>1218.8</ele>
        <time>2023-05-19T07:58:34Z</time>
      </trkpt>
      <trkpt lat="44.61535" lon="5.86447">
        <ele>1218.4</ele>
        <time>2023-05-19T07:58:36Z</time>
      </trkpt>
      <trkpt lat="44.61535" lon="5.86447">
        <ele>1217.8</ele>
        <time>2023-05-19T07:58:39Z</time>
      </trkpt>
      <trkpt lat="44.61535" lon="5.86447">
        <ele>1216.8</ele>
        <time>2023-05-19T07:58:49Z</time>
      </trkpt>
      <trkpt lat="44.61535" lon="5.86447">
        <ele>1216.6</ele>
        <time>2023-05-19T07:58:52Z</time>
      </trkpt>
      <trkpt lat="44.61535" lon="5.86447">
        <ele>1216.6</ele>
        <time>2023-05-19T07:59:12Z</time>
      </trkpt>
      <trkpt lat="44.61536" lon="5.86447">
        <ele>1216.4</ele>
        <time>2023-05-19T07:59:21Z</time>
      </trkpt>
      <trkpt lat="44.61536" lon="5.86447">
        <ele>1216.2</ele>
        <time>2023-05-19T07:59:29Z</time>
      </trkpt>
      <trkpt lat="44.61536" lon="5.86447">
        <ele>1216.2</ele>
        <time>2023-05-19T07:59:56Z</time>
      </trkpt>
      <trkpt lat="44.61536" lon="5.86447">
        <ele>1216</ele>
        <time>2023-05-19T08:00:11Z</time>
      </trkpt>
      <trkpt lat="44.61536" lon="5.86447">
        <ele>1216</ele>
        <time>2023-05-19T08:00:16Z</time>
      </trkpt>
      <trkpt lat="44.61536" lon="5.86448">
        <ele>1216.2</ele>
        <time>2023-05-19T08:00:35Z</time>
      </trkpt>
      <trkpt lat="44.61536" lon="5.86448">
        <ele>1216</ele>
        <time>2023-05-19T08:00:48Z</time>
      </trkpt>
      <trkpt lat="44.61536" lon="5.86448">
        <ele>1215.8</ele>
        <time>2023-05-19T08:00:53Z</time>
      </trkpt>
      <trkpt lat="44.61536" lon="5.86449">
        <ele>1216</ele>
        <time>2023-05-19T08:01:06Z</time>
      </trkpt>
      <trkpt lat="44.61536" lon="5.86449">
        <ele>1215.8</ele>
        <time>2023-05-19T08:01:19Z</time>
      </trkpt>
      <trkpt lat="44.61536" lon="5.86449">
        <ele>1215.6</ele>
        <time>2023-05-19T08:01:22Z</time>
      </trkpt>
      <trkpt lat="44.61535" lon="5.8645">
        <ele>1215.6</ele>
        <time>2023-05-19T08:01:30Z</time>
      </trkpt>
      <trkpt lat="44.61535" lon="5.8645">
        <ele>1215.6</ele>
        <time>2023-05-19T08:01:40Z</time>
      </trkpt>
      <trkpt lat="44.61535" lon="5.8645">
        <ele>1215.8</ele>
        <time>2023-05-19T08:01:49Z</time>
      </trkpt>
      <trkpt lat="44.61535" lon="5.8645">
        <ele>1215.8</ele>
        <time>2023-05-19T08:02:01Z</time>
      </trkpt>
      <trkpt lat="44.61535" lon="5.8645">
        <ele>1215.8</ele>
        <time>2023-05-19T08:02:20Z</time>
      </trkpt>
      <trkpt lat="44.61535" lon="5.86451">
        <ele>1216.4</ele>
        <time>2023-05-19T08:02:47Z</time>
      </trkpt>
      <trkpt lat="44.61535" lon="5.86451">
        <ele>1213.6</ele>
        <time>2023-05-19T08:02:55Z</time>
      </trkpt>
      <trkpt lat="44.61535" lon="5.86451">
        <ele>1212</ele>
        <time>2023-05-19T08:02:56Z</time>
      </trkpt>
      <trkpt lat="44.61535" lon="5.86451">
        <ele>1210.4</ele>
        <time>2023-05-19T08:02:57Z</time>
      </trkpt>
      <trkpt lat="44.61535" lon="5.86451">
        <ele>1209.8</ele>
        <time>2023-05-19T08:02:59Z</time>
      </trkpt>
      <trkpt lat="44.61535" lon="5.86451">
        <ele>1209.6</ele>
        <time>2023-05-19T08:03:01Z</time>
      </trkpt>
      <trkpt lat="44.61535" lon="5.86451">
        <ele>1214.2</ele>
        <time>2023-05-19T08:03:02Z</time>
      </trkpt>
      <trkpt lat="44.61535" lon="5.86451">
        <ele>1216.6</ele>
        <time>2023-05-19T08:03:03Z</time>
      </trkpt>
      <trkpt lat="44.61535" lon="5.86451">
        <ele>1218.8</ele>
        <time>2023-05-19T08:03:04Z</time>
      </trkpt>
      <trkpt lat="44.61535" lon="5.86451">
        <ele>1219.8</ele>
        <time>2023-05-19T08:03:06Z</time>
      </trkpt>
      <trkpt lat="44.61535" lon="5.86451">
        <ele>1218.4</ele>
        <time>2023-05-19T08:03:11Z</time>
      </trkpt>
      <trkpt lat="44.61535" lon="5.86451">
        <ele>1217.2</ele>
        <time>2023-05-19T08:03:14Z</time>
      </trkpt>
      <trkpt lat="44.61535" lon="5.86451">
        <ele>1216.2</ele>
        <time>2023-05-19T08:03:17Z</time>
      </trkpt>
      <trkpt lat="44.61535" lon="5.86451">
        <ele>1216</ele>
        <time>2023-05-19T08:03:21Z</time>
      </trkpt>
      <trkpt lat="44.61534" lon="5.86456">
        <ele>1215.8</ele>
        <time>2023-05-19T08:03:40Z</time>
      </trkpt>
      <trkpt lat="44.61534" lon="5.86456">
        <ele>1215.8</ele>
        <time>2023-05-19T08:03:41Z</time>
      </trkpt>
      <trkpt lat="44.61534" lon="5.86456">
        <ele>1215.8</ele>
        <time>2023-05-19T08:03:42Z</time>
      </trkpt>
      <trkpt lat="44.61534" lon="5.86456">
        <ele>1215.4</ele>
        <time>2023-05-19T08:03:47Z</time>
      </trkpt>
      <trkpt lat="44.61534" lon="5.86456">
        <ele>1215.2</ele>
        <time>2023-05-19T08:03:51Z</time>
      </trkpt>
      <trkpt lat="44.61534" lon="5.86456">
        <ele>1215.4</ele>
        <time>2023-05-19T08:04:17Z</time>
      </trkpt>
      <trkpt lat="44.61534" lon="5.86456">
        <ele>1215.2</ele>
        <time>2023-05-19T08:04:49Z</time>
      </trkpt>
      <trkpt lat="44.61534" lon="5.8646">
        <ele>1214.8</ele>
        <time>2023-05-19T08:05:07Z</time>
      </trkpt>
      <trkpt lat="44.61533" lon="5.86461">
        <ele>1214.8</ele>
        <time>2023-05-19T08:05:08Z</time>
      </trkpt>
      <trkpt lat="44.61533" lon="5.86462">
        <ele>1214.8</ele>
        <time>2023-05-19T08:05:09Z</time>
      </trkpt>
      <trkpt lat="44.61532" lon="5.86463">
        <ele>1214.8</ele>
        <time>2023-05-19T08:05:10Z</time>
      </trkpt>
      <trkpt lat="44.61532" lon="5.86464">
        <ele>1214.8</ele>
        <time>2023-05-19T08:05:11Z</time>
      </trkpt>
      <trkpt lat="44.61531" lon="5.86467">
        <ele>1214.4</ele>
        <time>2023-05-19T08:05:13Z</time>
      </trkpt>
      <trkpt lat="44.6153" lon="5.86468">
        <ele>1214.2</ele>
        <time>2023-05-19T08:05:15Z</time>
      </trkpt>
      <trkpt lat="44.6153" lon="5.86468">
        <ele>1214</ele>
        <time>2023-05-19T08:05:16Z</time>
      </trkpt>
      <trkpt lat="44.61528" lon="5.86471">
        <ele>1213.6</ele>
        <time>2023-05-19T08:05:19Z</time>
      </trkpt>
      <trkpt lat="44.61528" lon="5.86472">
        <ele>1213.4</ele>
        <time>2023-05-19T08:05:20Z</time>
      </trkpt>
      <trkpt lat="44.61528" lon="5.86473">
        <ele>1213.4</ele>
        <time>2023-05-19T08:05:21Z</time>
      </trkpt>
      <trkpt lat="44.61527" lon="5.86473">
        <ele>1213.2</ele>
        <time>2023-05-19T08:05:22Z</time>
      </trkpt>
      <trkpt lat="44.61526" lon="5.86476">
        <ele>1213</ele>
        <time>2023-05-19T08:05:24Z</time>
      </trkpt>
      <trkpt lat="44.61524" lon="5.86478">
        <ele>1212.8</ele>
        <time>2023-05-19T08:05:27Z</time>
      </trkpt>
      <trkpt lat="44.61524" lon="5.86479">
        <ele>1212.8</ele>
        <time>2023-05-19T08:05:28Z</time>
      </trkpt>
      <trkpt lat="44.61524" lon="5.86479">
        <ele>1212.6</ele>
        <time>2023-05-19T08:05:30Z</time>
      </trkpt>
      <trkpt lat="44.61524" lon="5.86479">
        <ele>1212</ele>
        <time>2023-05-19T08:05:34Z</time>
      </trkpt>
      <trkpt lat="44.61524" lon="5.86479">
        <ele>1211.8</ele>
        <time>2023-05-19T08:05:49Z</time>
      </trkpt>
      <trkpt lat="44.61524" lon="5.86479">
        <ele>1212</ele>
        <time>2023-05-19T08:06:15Z</time>
      </trkpt>
      <trkpt lat="44.61522" lon="5.86482">
        <ele>1212</ele>
        <time>2023-05-19T08:06:37Z</time>
      </trkpt>
      <trkpt lat="44.61521" lon="5.86482">
        <ele>1212</ele>
        <time>2023-05-19T08:06:38Z</time>
      </trkpt>
      <trkpt lat="44.61521" lon="5.86483">
        <ele>1212</ele>
        <time>2023-05-19T08:06:39Z</time>
      </trkpt>
      <trkpt lat="44.61521" lon="5.86484">
        <ele>1211.8</ele>
        <time>2023-05-19T08:06:43Z</time>
      </trkpt>
      <trkpt lat="44.61522" lon="5.86487">
        <ele>1211.6</ele>
        <time>2023-05-19T08:06:45Z</time>
      </trkpt>
      <trkpt lat="44.61522" lon="5.86488">
        <ele>1211.4</ele>
        <time>2023-05-19T08:06:46Z</time>
      </trkpt>
      <trkpt lat="44.61521" lon="5.86488">
        <ele>1211.2</ele>
        <time>2023-05-19T08:06:47Z</time>
      </trkpt>
      <trkpt lat="44.61521" lon="5.86489">
        <ele>1211.2</ele>
        <time>2023-05-19T08:06:48Z</time>
      </trkpt>
      <trkpt lat="44.61521" lon="5.8649">
        <ele>1211.2</ele>
        <time>2023-05-19T08:06:49Z</time>
      </trkpt>
      <trkpt lat="44.6152" lon="5.86492">
        <ele>1211</ele>
        <time>2023-05-19T08:06:50Z</time>
      </trkpt>
      <trkpt lat="44.6152" lon="5.86492">
        <ele>1210.8</ele>
        <time>2023-05-19T08:06:51Z</time>
      </trkpt>
      <trkpt lat="44.61519" lon="5.86493">
        <ele>1210.8</ele>
        <time>2023-05-19T08:06:52Z</time>
      </trkpt>
      <trkpt lat="44.61519" lon="5.86493">
        <ele>1210.4</ele>
        <time>2023-05-19T08:06:55Z</time>
      </trkpt>
      <trkpt lat="44.61518" lon="5.86494">
        <ele>1210.4</ele>
        <time>2023-05-19T08:06:56Z</time>
      </trkpt>
      <trkpt lat="44.61518" lon="5.86494">
        <ele>1210.2</ele>
        <time>2023-05-19T08:06:57Z</time>
      </trkpt>
      <trkpt lat="44.61518" lon="5.86494">
        <ele>1210.2</ele>
        <time>2023-05-19T08:06:59Z</time>
      </trkpt>
      <trkpt lat="44.61517" lon="5.86494">
        <ele>1210</ele>
        <time>2023-05-19T08:07:00Z</time>
      </trkpt>
      <trkpt lat="44.61516" lon="5.86495">
        <ele>1210</ele>
        <time>2023-05-19T08:07:01Z</time>
      </trkpt>
      <trkpt lat="44.61516" lon="5.86496">
        <ele>1209.8</ele>
        <time>2023-05-19T08:07:02Z</time>
      </trkpt>
      <trkpt lat="44.61515" lon="5.86497">
        <ele>1209.6</ele>
        <time>2023-05-19T08:07:03Z</time>
      </trkpt>
      <trkpt lat="44.61514" lon="5.86498">
        <ele>1209.6</ele>
        <time>2023-05-19T08:07:04Z</time>
      </trkpt>
      <trkpt lat="44.61512" lon="5.865">
        <ele>1209.4</ele>
        <time>2023-05-19T08:07:06Z</time>
      </trkpt>
      <trkpt lat="44.61512" lon="5.86501">
        <ele>1209</ele>
        <time>2023-05-19T08:07:07Z</time>
      </trkpt>
      <trkpt lat="44.6151" lon="5.86503">
        <ele>1208.6</ele>
        <time>2023-05-19T08:07:09Z</time>
      </trkpt>
      <trkpt lat="44.6151" lon="5.86504">
        <ele>1208.4</ele>
        <time>2023-05-19T08:07:10Z</time>
      </trkpt>
      <trkpt lat="44.61509" lon="5.86505">
        <ele>1208.2</ele>
        <time>2023-05-19T08:07:11Z</time>
      </trkpt>
      <trkpt lat="44.61507" lon="5.86507">
        <ele>1207.8</ele>
        <time>2023-05-19T08:07:13Z</time>
      </trkpt>
      <trkpt lat="44.61507" lon="5.8651">
        <ele>1207.6</ele>
        <time>2023-05-19T08:07:14Z</time>
      </trkpt>
      <trkpt lat="44.61507" lon="5.86511">
        <ele>1207.4</ele>
        <time>2023-05-19T08:07:15Z</time>
      </trkpt>
      <trkpt lat="44.61507" lon="5.86512">
        <ele>1207.2</ele>
        <time>2023-05-19T08:07:16Z</time>
      </trkpt>
      <trkpt lat="44.61506" lon="5.86513">
        <ele>1207.2</ele>
        <time>2023-05-19T08:07:17Z</time>
      </trkpt>
      <trkpt lat="44.61505" lon="5.86518">
        <ele>1206.6</ele>
        <time>2023-05-19T08:07:20Z</time>
      </trkpt>
      <trkpt lat="44.61505" lon="5.86519">
        <ele>1206.4</ele>
        <time>2023-05-19T08:07:21Z</time>
      </trkpt>
      <trkpt lat="44.61504" lon="5.86521">
        <ele>1206</ele>
        <time>2023-05-19T08:07:22Z</time>
      </trkpt>
      <trkpt lat="44.61504" lon="5.86523">
        <ele>1205.8</ele>
        <time>2023-05-19T08:07:23Z</time>
      </trkpt>
      <trkpt lat="44.61503" lon="5.86524">
        <ele>1205.6</ele>
        <time>2023-05-19T08:07:24Z</time>
      </trkpt>
      <trkpt lat="44.61503" lon="5.86525">
        <ele>1205.4</ele>
        <time>2023-05-19T08:07:25Z</time>
      </trkpt>
      <trkpt lat="44.61502" lon="5.86526">
        <ele>1205.4</ele>
        <time>2023-05-19T08:07:26Z</time>
      </trkpt>
      <trkpt lat="44.61503" lon="5.8653">
        <ele>1205.2</ele>
        <time>2023-05-19T08:07:28Z</time>
      </trkpt>
      <trkpt lat="44.61503" lon="5.86532">
        <ele>1204.8</ele>
        <time>2023-05-19T08:07:29Z</time>
      </trkpt>
      <trkpt lat="44.61502" lon="5.86533">
        <ele>1204.6</ele>
        <time>2023-05-19T08:07:30Z</time>
      </trkpt>
      <trkpt lat="44.61501" lon="5.86535">
        <ele>1204.2</ele>
        <time>2023-05-19T08:07:32Z</time>
      </trkpt>
      <trkpt lat="44.61501" lon="5.86537">
        <ele>1204.2</ele>
        <time>2023-05-19T08:07:33Z</time>
      </trkpt>
      <trkpt lat="44.615" lon="5.86539">
        <ele>1204</ele>
        <time>2023-05-19T08:07:34Z</time>
      </trkpt>
      <trkpt lat="44.61499" lon="5.86543">
        <ele>1203.6</ele>
        <time>2023-05-19T08:07:36Z</time>
      </trkpt>
      <trkpt lat="44.61499" lon="5.86543">
        <ele>1203.6</ele>
        <time>2023-05-19T08:07:37Z</time>
      </trkpt>
      <trkpt lat="44.61499" lon="5.86543">
        <ele>1203.4</ele>
        <time>2023-05-19T08:07:38Z</time>
      </trkpt>
      <trkpt lat="44.61499" lon="5.86543">
        <ele>1203.2</ele>
        <time>2023-05-19T08:07:39Z</time>
      </trkpt>
      <trkpt lat="44.61498" lon="5.86548">
        <ele>1202.8</ele>
        <time>2023-05-19T08:07:43Z</time>
      </trkpt>
      <trkpt lat="44.61497" lon="5.8655">
        <ele>1202.8</ele>
        <time>2023-05-19T08:07:44Z</time>
      </trkpt>
      <trkpt lat="44.61497" lon="5.86552">
        <ele>1202.6</ele>
        <time>2023-05-19T08:07:45Z</time>
      </trkpt>
      <trkpt lat="44.61496" lon="5.86555">
        <ele>1202.6</ele>
        <time>2023-05-19T08:07:46Z</time>
      </trkpt>
      <trkpt lat="44.61495" lon="5.86558">
        <ele>1202.4</ele>
        <time>2023-05-19T08:07:47Z</time>
      </trkpt>
      <trkpt lat="44.61494" lon="5.8656">
        <ele>1202.2</ele>
        <time>2023-05-19T08:07:48Z</time>
      </trkpt>
      <trkpt lat="44.61493" lon="5.86562">
        <ele>1202</ele>
        <time>2023-05-19T08:07:49Z</time>
      </trkpt>
      <trkpt lat="44.61492" lon="5.86564">
        <ele>1201.8</ele>
        <time>2023-05-19T08:07:50Z</time>
      </trkpt>
      <trkpt lat="44.61491" lon="5.86565">
        <ele>1201.6</ele>
        <time>2023-05-19T08:07:51Z</time>
      </trkpt>
      <trkpt lat="44.6149" lon="5.86567">
        <ele>1201.4</ele>
        <time>2023-05-19T08:07:52Z</time>
      </trkpt>
      <trkpt lat="44.61488" lon="5.86568">
        <ele>1201.4</ele>
        <time>2023-05-19T08:07:53Z</time>
      </trkpt>
      <trkpt lat="44.61486" lon="5.86568">
        <ele>1201</ele>
        <time>2023-05-19T08:07:54Z</time>
      </trkpt>
      <trkpt lat="44.61483" lon="5.86567">
        <ele>1200.8</ele>
        <time>2023-05-19T08:07:55Z</time>
      </trkpt>
      <trkpt lat="44.61482" lon="5.86565">
        <ele>1200.4</ele>
        <time>2023-05-19T08:07:56Z</time>
      </trkpt>
      <trkpt lat="44.6148" lon="5.86559">
        <ele>1199.8</ele>
        <time>2023-05-19T08:07:58Z</time>
      </trkpt>
      <trkpt lat="44.61479" lon="5.86557">
        <ele>1199.4</ele>
        <time>2023-05-19T08:07:59Z</time>
      </trkpt>
      <trkpt lat="44.61477" lon="5.86555">
        <ele>1199.4</ele>
        <time>2023-05-19T08:08:00Z</time>
      </trkpt>
      <trkpt lat="44.61474" lon="5.86551">
        <ele>1199</ele>
        <time>2023-05-19T08:08:02Z</time>
      </trkpt>
      <trkpt lat="44.61473" lon="5.86549">
        <ele>1198.2</ele>
        <time>2023-05-19T08:08:03Z</time>
      </trkpt>
      <trkpt lat="44.61471" lon="5.86543">
        <ele>1197.6</ele>
        <time>2023-05-19T08:08:05Z</time>
      </trkpt>
      <trkpt lat="44.6147" lon="5.86543">
        <ele>1197.2</ele>
        <time>2023-05-19T08:08:06Z</time>
      </trkpt>
      <trkpt lat="44.61469" lon="5.86543">
        <ele>1196.8</ele>
        <time>2023-05-19T08:08:07Z</time>
      </trkpt>
      <trkpt lat="44.61468" lon="5.86544">
        <ele>1196</ele>
        <time>2023-05-19T08:08:08Z</time>
      </trkpt>
      <trkpt lat="44.61466" lon="5.86545">
        <ele>1195.8</ele>
        <time>2023-05-19T08:08:09Z</time>
      </trkpt>
      <trkpt lat="44.61464" lon="5.86546">
        <ele>1195.2</ele>
        <time>2023-05-19T08:08:10Z</time>
      </trkpt>
      <trkpt lat="44.61463" lon="5.86547">
        <ele>1195</ele>
        <time>2023-05-19T08:08:11Z</time>
      </trkpt>
      <trkpt lat="44.61461" lon="5.86548">
        <ele>1194</ele>
        <time>2023-05-19T08:08:12Z</time>
      </trkpt>
      <trkpt lat="44.61461" lon="5.86549">
        <ele>1193.6</ele>
        <time>2023-05-19T08:08:13Z</time>
      </trkpt>
      <trkpt lat="44.61461" lon="5.86549">
        <ele>1193.2</ele>
        <time>2023-05-19T08:08:14Z</time>
      </trkpt>
      <trkpt lat="44.61461" lon="5.86549">
        <ele>1192.4</ele>
        <time>2023-05-19T08:08:15Z</time>
      </trkpt>
      <trkpt lat="44.61461" lon="5.86549">
        <ele>1191.2</ele>
        <time>2023-05-19T08:08:18Z</time>
      </trkpt>
      <trkpt lat="44.61461" lon="5.86549">
        <ele>1190</ele>
        <time>2023-05-19T08:08:22Z</time>
      </trkpt>
      <trkpt lat="44.61461" lon="5.86549">
        <ele>1189</ele>
        <time>2023-05-19T08:08:39Z</time>
      </trkpt>
      <trkpt lat="44.61461" lon="5.86549">
        <ele>1189.4</ele>
        <time>2023-05-19T08:08:52Z</time>
      </trkpt>
      <trkpt lat="44.61461" lon="5.86549">
        <ele>1189</ele>
        <time>2023-05-19T08:09:10Z</time>
      </trkpt>
      <trkpt lat="44.61461" lon="5.86549">
        <ele>1189.6</ele>
        <time>2023-05-19T08:09:26Z</time>
      </trkpt>
      <trkpt lat="44.61461" lon="5.86548">
        <ele>1189.8</ele>
        <time>2023-05-19T08:09:33Z</time>
      </trkpt>
      <trkpt lat="44.61461" lon="5.86547">
        <ele>1189.8</ele>
        <time>2023-05-19T08:09:40Z</time>
      </trkpt>
      <trkpt lat="44.6146" lon="5.86546">
        <ele>1189.6</ele>
        <time>2023-05-19T08:09:49Z</time>
      </trkpt>
      <trkpt lat="44.6146" lon="5.86546">
        <ele>1189.2</ele>
        <time>2023-05-19T08:09:58Z</time>
      </trkpt>
      <trkpt lat="44.6146" lon="5.86546">
        <ele>1189.2</ele>
        <time>2023-05-19T08:10:15Z</time>
      </trkpt>
      <trkpt lat="44.6146" lon="5.86547">
        <ele>1189</ele>
        <time>2023-05-19T08:10:31Z</time>
      </trkpt>
      <trkpt lat="44.61457" lon="5.86547">
        <ele>1189</ele>
        <time>2023-05-19T08:10:33Z</time>
      </trkpt>
      <trkpt lat="44.61454" lon="5.86548">
        <ele>1189</ele>
        <time>2023-05-19T08:10:36Z</time>
      </trkpt>
      <trkpt lat="44.61454" lon="5.86548">
        <ele>1188.8</ele>
        <time>2023-05-19T08:10:37Z</time>
      </trkpt>
      <trkpt lat="44.61451" lon="5.86547">
        <ele>1188.6</ele>
        <time>2023-05-19T08:10:39Z</time>
      </trkpt>
      <trkpt lat="44.61448" lon="5.86546">
        <ele>1188.4</ele>
        <time>2023-05-19T08:10:41Z</time>
      </trkpt>
      <trkpt lat="44.61447" lon="5.86546">
        <ele>1188.2</ele>
        <time>2023-05-19T08:10:43Z</time>
      </trkpt>
      <trkpt lat="44.61446" lon="5.86546">
        <ele>1188.2</ele>
        <time>2023-05-19T08:10:44Z</time>
      </trkpt>
      <trkpt lat="44.61446" lon="5.86546">
        <ele>1188</ele>
        <time>2023-05-19T08:10:45Z</time>
      </trkpt>
      <trkpt lat="44.61446" lon="5.86545">
        <ele>1187.6</ele>
        <time>2023-05-19T08:10:47Z</time>
      </trkpt>
      <trkpt lat="44.61445" lon="5.86544">
        <ele>1187.4</ele>
        <time>2023-05-19T08:10:48Z</time>
      </trkpt>
      <trkpt lat="44.61444" lon="5.86543">
        <ele>1187.2</ele>
        <time>2023-05-19T08:10:51Z</time>
      </trkpt>
      <trkpt lat="44.61444" lon="5.86543">
        <ele>1187</ele>
        <time>2023-05-19T08:10:52Z</time>
      </trkpt>
      <trkpt lat="44.61444" lon="5.86543">
        <ele>1187</ele>
        <time>2023-05-19T08:10:53Z</time>
      </trkpt>
      <trkpt lat="44.61444" lon="5.86543">
        <ele>1186.8</ele>
        <time>2023-05-19T08:10:54Z</time>
      </trkpt>
      <trkpt lat="44.61444" lon="5.86544">
        <ele>1186.8</ele>
        <time>2023-05-19T08:10:55Z</time>
      </trkpt>
      <trkpt lat="44.61444" lon="5.86544">
        <ele>1186.8</ele>
        <time>2023-05-19T08:10:56Z</time>
      </trkpt>
      <trkpt lat="44.61444" lon="5.86543">
        <ele>1186.4</ele>
        <time>2023-05-19T08:10:58Z</time>
      </trkpt>
      <trkpt lat="44.61444" lon="5.86543">
        <ele>1186.2</ele>
        <time>2023-05-19T08:10:59Z</time>
      </trkpt>
      <trkpt lat="44.61444" lon="5.86543">
        <ele>1186.2</ele>
        <time>2023-05-19T08:11:00Z</time>
      </trkpt>
      <trkpt lat="44.61444" lon="5.86542">
        <ele>1185.8</ele>
        <time>2023-05-19T08:11:01Z</time>
      </trkpt>
      <trkpt lat="44.61444" lon="5.86542">
        <ele>1185.6</ele>
        <time>2023-05-19T08:11:02Z</time>
      </trkpt>
      <trkpt lat="44.61443" lon="5.86542">
        <ele>1185.4</ele>
        <time>2023-05-19T08:11:03Z</time>
      </trkpt>
      <trkpt lat="44.61443" lon="5.86541">
        <ele>1185.2</ele>
        <time>2023-05-19T08:11:06Z</time>
      </trkpt>
      <trkpt lat="44.61443" lon="5.86541">
        <ele>1185.2</ele>
        <time>2023-05-19T08:11:07Z</time>
      </trkpt>
      <trkpt lat="44.61443" lon="5.86541">
        <ele>1185</ele>
        <time>2023-05-19T08:11:09Z</time>
      </trkpt>
      <trkpt lat="44.61443" lon="5.8654">
        <ele>1184.6</ele>
        <time>2023-05-19T08:11:12Z</time>
      </trkpt>
      <trkpt lat="44.61443" lon="5.8654">
        <ele>1184.8</ele>
        <time>2023-05-19T08:11:28Z</time>
      </trkpt>
      <trkpt lat="44.61443" lon="5.86539">
        <ele>1185</ele>
        <time>2023-05-19T08:11:42Z</time>
      </trkpt>
      <trkpt lat="44.61443" lon="5.8654">
        <ele>1185</ele>
        <time>2023-05-19T08:11:48Z</time>
      </trkpt>
      <trkpt lat="44.61443" lon="5.8654">
        <ele>1184.8</ele>
        <time>2023-05-19T08:11:58Z</time>
      </trkpt>
      <trkpt lat="44.61444" lon="5.86541">
        <ele>1184.8</ele>
        <time>2023-05-19T08:12:09Z</time>
      </trkpt>
      <trkpt lat="44.61444" lon="5.86541">
        <ele>1184.8</ele>
        <time>2023-05-19T08:12:21Z</time>
      </trkpt>
      <trkpt lat="44.61443" lon="5.86541">
        <ele>1184.2</ele>
        <time>2023-05-19T08:12:51Z</time>
      </trkpt>
      <trkpt lat="44.61443" lon="5.86541">
        <ele>1184.2</ele>
        <time>2023-05-19T08:12:57Z</time>
      </trkpt>
      <trkpt lat="44.61443" lon="5.86541">
        <ele>1184.2</ele>
        <time>2023-05-19T08:12:58Z</time>
      </trkpt>
      <trkpt lat="44.61443" lon="5.8654">
        <ele>1184.2</ele>
        <time>2023-05-19T08:13:02Z</time>
      </trkpt>
      <trkpt lat="44.61442" lon="5.86541">
        <ele>1184</ele>
        <time>2023-05-19T08:13:06Z</time>
      </trkpt>
      <trkpt lat="44.61442" lon="5.86541">
        <ele>1184.2</ele>
        <time>2023-05-19T08:13:42Z</time>
      </trkpt>
      <trkpt lat="44.61444" lon="5.86541">
        <ele>1184.2</ele>
        <time>2023-05-19T08:13:50Z</time>
      </trkpt>
      <trkpt lat="44.61444" lon="5.86538">
        <ele>1184.4</ele>
        <time>2023-05-19T08:13:58Z</time>
      </trkpt>
      <trkpt lat="44.61444" lon="5.86538">
        <ele>1184.6</ele>
        <time>2023-05-19T08:14:00Z</time>
      </trkpt>
      <trkpt lat="44.61444" lon="5.86538">
        <ele>1185.2</ele>
        <time>2023-05-19T08:14:09Z</time>
      </trkpt>
      <trkpt lat="44.61444" lon="5.86538">
        <ele>1185.4</ele>
        <time>2023-05-19T08:14:19Z</time>
      </trkpt>
      <trkpt lat="44.61444" lon="5.86536">
        <ele>1186</ele>
        <time>2023-05-19T08:14:33Z</time>
      </trkpt>
      <trkpt lat="44.61445" lon="5.86535">
        <ele>1185.8</ele>
        <time>2023-05-19T08:14:39Z</time>
      </trkpt>
      <trkpt lat="44.61445" lon="5.86534">
        <ele>1185.2</ele>
        <time>2023-05-19T08:14:53Z</time>
      </trkpt>
      <trkpt lat="44.61445" lon="5.86534">
        <ele>1185.8</ele>
        <time>2023-05-19T08:15:13Z</time>
      </trkpt>
      <trkpt lat="44.61445" lon="5.86533">
        <ele>1186.2</ele>
        <time>2023-05-19T08:15:19Z</time>
      </trkpt>
      <trkpt lat="44.61448" lon="5.86526">
        <ele>1186.4</ele>
        <time>2023-05-19T08:15:24Z</time>
      </trkpt>
      <trkpt lat="44.61449" lon="5.86523">
        <ele>1186.6</ele>
        <time>2023-05-19T08:15:27Z</time>
      </trkpt>
      <trkpt lat="44.6145" lon="5.86522">
        <ele>1186.6</ele>
        <time>2023-05-19T08:15:29Z</time>
      </trkpt>
      <trkpt lat="44.61453" lon="5.8651">
        <ele>1185.8</ele>
        <time>2023-05-19T08:15:38Z</time>
      </trkpt>
      <trkpt lat="44.61454" lon="5.86508">
        <ele>1185</ele>
        <time>2023-05-19T08:15:40Z</time>
      </trkpt>
      <trkpt lat="44.61455" lon="5.86505">
        <ele>1184.4</ele>
        <time>2023-05-19T08:15:43Z</time>
      </trkpt>
      <trkpt lat="44.61455" lon="5.86504">
        <ele>1184.4</ele>
        <time>2023-05-19T08:15:44Z</time>
      </trkpt>
      <trkpt lat="44.61455" lon="5.86502">
        <ele>1184.4</ele>
        <time>2023-05-19T08:15:45Z</time>
      </trkpt>
      <trkpt lat="44.61455" lon="5.86501">
        <ele>1183.8</ele>
        <time>2023-05-19T08:15:46Z</time>
      </trkpt>
      <trkpt lat="44.61455" lon="5.865">
        <ele>1183.8</ele>
        <time>2023-05-19T08:15:47Z</time>
      </trkpt>
      <trkpt lat="44.61455" lon="5.86499">
        <ele>1183.4</ele>
        <time>2023-05-19T08:15:48Z</time>
      </trkpt>
      <trkpt lat="44.61455" lon="5.86499">
        <ele>1183.2</ele>
        <time>2023-05-19T08:15:49Z</time>
      </trkpt>
      <trkpt lat="44.61455" lon="5.86498">
        <ele>1183</ele>
        <time>2023-05-19T08:15:50Z</time>
      </trkpt>
      <trkpt lat="44.61455" lon="5.86497">
        <ele>1183</ele>
        <time>2023-05-19T08:15:51Z</time>
      </trkpt>
      <trkpt lat="44.61455" lon="5.86497">
        <ele>1182.8</ele>
        <time>2023-05-19T08:15:52Z</time>
      </trkpt>
      <trkpt lat="44.61455" lon="5.86497">
        <ele>1182.2</ele>
        <time>2023-05-19T08:15:57Z</time>
      </trkpt>
      <trkpt lat="44.61454" lon="5.86497">
        <ele>1181.6</ele>
        <time>2023-05-19T08:16:06Z</time>
      </trkpt>
      <trkpt lat="44.61454" lon="5.86497">
        <ele>1181.2</ele>
        <time>2023-05-19T08:16:09Z</time>
      </trkpt>
      <trkpt lat="44.61454" lon="5.86497">
        <ele>1180.6</ele>
        <time>2023-05-19T08:16:21Z</time>
      </trkpt>
      <trkpt lat="44.61454" lon="5.86497">
        <ele>1180.6</ele>
        <time>2023-05-19T08:16:33Z</time>
      </trkpt>
      <trkpt lat="44.61454" lon="5.86497">
        <ele>1181.2</ele>
        <time>2023-05-19T08:16:52Z</time>
      </trkpt>
      <trkpt lat="44.61454" lon="5.86497">
        <ele>1180.2</ele>
        <time>2023-05-19T08:17:05Z</time>
      </trkpt>
      <trkpt lat="44.61454" lon="5.86495">
        <ele>1180.2</ele>
        <time>2023-05-19T08:17:14Z</time>
      </trkpt>
      <trkpt lat="44.61454" lon="5.86493">
        <ele>1180.2</ele>
        <time>2023-05-19T08:17:16Z</time>
      </trkpt>
      <trkpt lat="44.61454" lon="5.86493">
        <ele>1180.4</ele>
        <time>2023-05-19T08:17:20Z</time>
      </trkpt>
      <trkpt lat="44.61454" lon="5.86493">
        <ele>1180.4</ele>
        <time>2023-05-19T08:17:27Z</time>
      </trkpt>
      <trkpt lat="44.61454" lon="5.86493">
        <ele>1180.4</ele>
        <time>2023-05-19T08:17:32Z</time>
      </trkpt>
      <trkpt lat="44.61453" lon="5.86493">
        <ele>1180.4</ele>
        <time>2023-05-19T08:17:37Z</time>
      </trkpt>
      <trkpt lat="44.61452" lon="5.8649">
        <ele>1180.4</ele>
        <time>2023-05-19T08:17:40Z</time>
      </trkpt>
      <trkpt lat="44.61451" lon="5.86488">
        <ele>1180.4</ele>
        <time>2023-05-19T08:17:43Z</time>
      </trkpt>
      <trkpt lat="44.61451" lon="5.86488">
        <ele>1180.6</ele>
        <time>2023-05-19T08:17:45Z</time>
      </trkpt>
      <trkpt lat="44.6145" lon="5.86488">
        <ele>1180.6</ele>
        <time>2023-05-19T08:17:46Z</time>
      </trkpt>
      <trkpt lat="44.6145" lon="5.86487">
        <ele>1180.6</ele>
        <time>2023-05-19T08:17:47Z</time>
      </trkpt>
      <trkpt lat="44.61448" lon="5.86487">
        <ele>1180.4</ele>
        <time>2023-05-19T08:17:49Z</time>
      </trkpt>
      <trkpt lat="44.61448" lon="5.86487">
        <ele>1180.2</ele>
        <time>2023-05-19T08:17:50Z</time>
      </trkpt>
      <trkpt lat="44.61447" lon="5.86487">
        <ele>1180.2</ele>
        <time>2023-05-19T08:17:51Z</time>
      </trkpt>
      <trkpt lat="44.61446" lon="5.86486">
        <ele>1179.8</ele>
        <time>2023-05-19T08:17:54Z</time>
      </trkpt>
      <trkpt lat="44.61445" lon="5.86485">
        <ele>1179</ele>
        <time>2023-05-19T08:17:59Z</time>
      </trkpt>
      <trkpt lat="44.61445" lon="5.86485">
        <ele>1178.8</ele>
        <time>2023-05-19T08:18:00Z</time>
      </trkpt>
      <trkpt lat="44.61444" lon="5.86484">
        <ele>1178.4</ele>
        <time>2023-05-19T08:18:08Z</time>
      </trkpt>
      <trkpt lat="44.61443" lon="5.86483">
        <ele>1178</ele>
        <time>2023-05-19T08:18:12Z</time>
      </trkpt>
      <trkpt lat="44.61441" lon="5.86481">
        <ele>1177.6</ele>
        <time>2023-05-19T08:18:16Z</time>
      </trkpt>
      <trkpt lat="44.61441" lon="5.86481">
        <ele>1177.6</ele>
        <time>2023-05-19T08:18:26Z</time>
      </trkpt>
      <trkpt lat="44.6144" lon="5.86476">
        <ele>1177.6</ele>
        <time>2023-05-19T08:18:36Z</time>
      </trkpt>
      <trkpt lat="44.6144" lon="5.86472">
        <ele>1177.6</ele>
        <time>2023-05-19T08:18:39Z</time>
      </trkpt>
      <trkpt lat="44.6144" lon="5.86471">
        <ele>1177.4</ele>
        <time>2023-05-19T08:18:42Z</time>
      </trkpt>
      <trkpt lat="44.61438" lon="5.86465">
        <ele>1177.2</ele>
        <time>2023-05-19T08:18:49Z</time>
      </trkpt>
      <trkpt lat="44.61438" lon="5.86464">
        <ele>1177</ele>
        <time>2023-05-19T08:18:50Z</time>
      </trkpt>
      <trkpt lat="44.61438" lon="5.86464">
        <ele>1177</ele>
        <time>2023-05-19T08:18:51Z</time>
      </trkpt>
      <trkpt lat="44.61438" lon="5.86464">
        <ele>1176.8</ele>
        <time>2023-05-19T08:18:55Z</time>
      </trkpt>
      <trkpt lat="44.61436" lon="5.86463">
        <ele>1176.8</ele>
        <time>2023-05-19T08:19:01Z</time>
      </trkpt>
      <trkpt lat="44.61435" lon="5.86462">
        <ele>1176.8</ele>
        <time>2023-05-19T08:19:02Z</time>
      </trkpt>
      <trkpt lat="44.61435" lon="5.86462">
        <ele>1176.8</ele>
        <time>2023-05-19T08:19:20Z</time>
      </trkpt>
      <trkpt lat="44.61435" lon="5.86462">
        <ele>1177</ele>
        <time>2023-05-19T08:19:40Z</time>
      </trkpt>
      <trkpt lat="44.61435" lon="5.86462">
        <ele>1177</ele>
        <time>2023-05-19T08:20:20Z</time>
      </trkpt>
      <trkpt lat="44.61435" lon="5.86462">
        <ele>1177.4</ele>
        <time>2023-05-19T08:20:38Z</time>
      </trkpt>
      <trkpt lat="44.61435" lon="5.86464">
        <ele>1177</ele>
        <time>2023-05-19T08:21:07Z</time>
      </trkpt>
      <trkpt lat="44.61434" lon="5.86466">
        <ele>1177</ele>
        <time>2023-05-19T08:21:09Z</time>
      </trkpt>
      <trkpt lat="44.61434" lon="5.86467">
        <ele>1176.8</ele>
        <time>2023-05-19T08:21:10Z</time>
      </trkpt>
      <trkpt lat="44.61433" lon="5.86468">
        <ele>1176.8</ele>
        <time>2023-05-19T08:21:11Z</time>
      </trkpt>
      <trkpt lat="44.61434" lon="5.86469">
        <ele>1176.8</ele>
        <time>2023-05-19T08:21:12Z</time>
      </trkpt>
      <trkpt lat="44.61433" lon="5.8647">
        <ele>1176.8</ele>
        <time>2023-05-19T08:21:13Z</time>
      </trkpt>
      <trkpt lat="44.61433" lon="5.86471">
        <ele>1176.8</ele>
        <time>2023-05-19T08:21:15Z</time>
      </trkpt>
      <trkpt lat="44.61433" lon="5.86472">
        <ele>1176.8</ele>
        <time>2023-05-19T08:21:16Z</time>
      </trkpt>
      <trkpt lat="44.61433" lon="5.86472">
        <ele>1177</ele>
        <time>2023-05-19T08:21:17Z</time>
      </trkpt>
      <trkpt lat="44.61433" lon="5.86472">
        <ele>1177</ele>
        <time>2023-05-19T08:21:18Z</time>
      </trkpt>
      <trkpt lat="44.61433" lon="5.86473">
        <ele>1177</ele>
        <time>2023-05-19T08:21:19Z</time>
      </trkpt>
      <trkpt lat="44.61433" lon="5.86473">
        <ele>1177.2</ele>
        <time>2023-05-19T08:21:20Z</time>
      </trkpt>
      <trkpt lat="44.61433" lon="5.86473">
        <ele>1177.4</ele>
        <time>2023-05-19T08:21:21Z</time>
      </trkpt>
      <trkpt lat="44.61433" lon="5.86474">
        <ele>1178</ele>
        <time>2023-05-19T08:21:24Z</time>
      </trkpt>
      <trkpt lat="44.61433" lon="5.86475">
        <ele>1178</ele>
        <time>2023-05-19T08:21:25Z</time>
      </trkpt>
      <trkpt lat="44.61433" lon="5.86477">
        <ele>1178.4</ele>
        <time>2023-05-19T08:21:27Z</time>
      </trkpt>
      <trkpt lat="44.61432" lon="5.86477">
        <ele>1178.6</ele>
        <time>2023-05-19T08:21:28Z</time>
      </trkpt>
      <trkpt lat="44.61432" lon="5.86477">
        <ele>1179</ele>
        <time>2023-05-19T08:21:29Z</time>
      </trkpt>
      <trkpt lat="44.61432" lon="5.86478">
        <ele>1179</ele>
        <time>2023-05-19T08:21:30Z</time>
      </trkpt>
      <trkpt lat="44.61432" lon="5.86478">
        <ele>1179.2</ele>
        <time>2023-05-19T08:21:31Z</time>
      </trkpt>
      <trkpt lat="44.6143" lon="5.86479">
        <ele>1179.4</ele>
        <time>2023-05-19T08:21:33Z</time>
      </trkpt>
      <trkpt lat="44.61429" lon="5.8648">
        <ele>1179.6</ele>
        <time>2023-05-19T08:21:34Z</time>
      </trkpt>
      <trkpt lat="44.61428" lon="5.8648">
        <ele>1179.8</ele>
        <time>2023-05-19T08:21:35Z</time>
      </trkpt>
      <trkpt lat="44.61428" lon="5.86481">
        <ele>1180</ele>
        <time>2023-05-19T08:21:36Z</time>
      </trkpt>
      <trkpt lat="44.61428" lon="5.86482">
        <ele>1180.2</ele>
        <time>2023-05-19T08:21:37Z</time>
      </trkpt>
      <trkpt lat="44.61427" lon="5.86483">
        <ele>1180.2</ele>
        <time>2023-05-19T08:21:38Z</time>
      </trkpt>
      <trkpt lat="44.61427" lon="5.86484">
        <ele>1180.2</ele>
        <time>2023-05-19T08:21:39Z</time>
      </trkpt>
      <trkpt lat="44.61426" lon="5.86485">
        <ele>1180.4</ele>
        <time>2023-05-19T08:21:40Z</time>
      </trkpt>
      <trkpt lat="44.61426" lon="5.86486">
        <ele>1180.4</ele>
        <time>2023-05-19T08:21:41Z</time>
      </trkpt>
      <trkpt lat="44.61425" lon="5.86487">
        <ele>1180.4</ele>
        <time>2023-05-19T08:21:42Z</time>
      </trkpt>
      <trkpt lat="44.61425" lon="5.86487">
        <ele>1180.6</ele>
        <time>2023-05-19T08:21:43Z</time>
      </trkpt>
      <trkpt lat="44.61424" lon="5.86488">
        <ele>1180.6</ele>
        <time>2023-05-19T08:21:44Z</time>
      </trkpt>
      <trkpt lat="44.61424" lon="5.86489">
        <ele>1180.6</ele>
        <time>2023-05-19T08:21:45Z</time>
      </trkpt>
      <trkpt lat="44.61423" lon="5.8649">
        <ele>1180.6</ele>
        <time>2023-05-19T08:21:46Z</time>
      </trkpt>
      <trkpt lat="44.61422" lon="5.8649">
        <ele>1180.8</ele>
        <time>2023-05-19T08:21:47Z</time>
      </trkpt>
      <trkpt lat="44.61422" lon="5.86491">
        <ele>1180.8</ele>
        <time>2023-05-19T08:21:48Z</time>
      </trkpt>
      <trkpt lat="44.61421" lon="5.86492">
        <ele>1180.8</ele>
        <time>2023-05-19T08:21:49Z</time>
      </trkpt>
      <trkpt lat="44.6142" lon="5.86492">
        <ele>1180.8</ele>
        <time>2023-05-19T08:21:50Z</time>
      </trkpt>
      <trkpt lat="44.6142" lon="5.86493">
        <ele>1181</ele>
        <time>2023-05-19T08:21:51Z</time>
      </trkpt>
      <trkpt lat="44.61419" lon="5.86493">
        <ele>1181</ele>
        <time>2023-05-19T08:21:52Z</time>
      </trkpt>
      <trkpt lat="44.61418" lon="5.86493">
        <ele>1181</ele>
        <time>2023-05-19T08:21:53Z</time>
      </trkpt>
      <trkpt lat="44.61418" lon="5.86493">
        <ele>1181</ele>
        <time>2023-05-19T08:21:54Z</time>
      </trkpt>
      <trkpt lat="44.61417" lon="5.86494">
        <ele>1181</ele>
        <time>2023-05-19T08:21:56Z</time>
      </trkpt>
      <trkpt lat="44.61417" lon="5.86494">
        <ele>1181</ele>
        <time>2023-05-19T08:21:57Z</time>
      </trkpt>
      <trkpt lat="44.61417" lon="5.86494">
        <ele>1181</ele>
        <time>2023-05-19T08:21:58Z</time>
      </trkpt>
      <trkpt lat="44.61415" lon="5.86496">
        <ele>1181</ele>
        <time>2023-05-19T08:22:02Z</time>
      </trkpt>
      <trkpt lat="44.61413" lon="5.86495">
        <ele>1181.2</ele>
        <time>2023-05-19T08:22:05Z</time>
      </trkpt>
      <trkpt lat="44.61412" lon="5.86495">
        <ele>1181.2</ele>
        <time>2023-05-19T08:22:06Z</time>
      </trkpt>
      <trkpt lat="44.61409" lon="5.86496">
        <ele>1181.6</ele>
        <time>2023-05-19T08:22:10Z</time>
      </trkpt>
      <trkpt lat="44.61408" lon="5.86496">
        <ele>1181.6</ele>
        <time>2023-05-19T08:22:11Z</time>
      </trkpt>
      <trkpt lat="44.61405" lon="5.86497">
        <ele>1181.8</ele>
        <time>2023-05-19T08:22:16Z</time>
      </trkpt>
      <trkpt lat="44.61404" lon="5.86498">
        <ele>1181.6</ele>
        <time>2023-05-19T08:22:18Z</time>
      </trkpt>
      <trkpt lat="44.61404" lon="5.86498">
        <ele>1181.2</ele>
        <time>2023-05-19T08:22:29Z</time>
      </trkpt>
      <trkpt lat="44.61404" lon="5.86498">
        <ele>1180.6</ele>
        <time>2023-05-19T08:23:00Z</time>
      </trkpt>
      <trkpt lat="44.61402" lon="5.86498">
        <ele>1180.2</ele>
        <time>2023-05-19T08:23:25Z</time>
      </trkpt>
      <trkpt lat="44.61401" lon="5.86498">
        <ele>1180.2</ele>
        <time>2023-05-19T08:23:26Z</time>
      </trkpt>
      <trkpt lat="44.61399" lon="5.86498">
        <ele>1180</ele>
        <time>2023-05-19T08:23:27Z</time>
      </trkpt>
      <trkpt lat="44.61392" lon="5.86496">
        <ele>1179.8</ele>
        <time>2023-05-19T08:23:31Z</time>
      </trkpt>
      <trkpt lat="44.6138" lon="5.86488">
        <ele>1179.6</ele>
        <time>2023-05-19T08:23:37Z</time>
      </trkpt>
      <trkpt lat="44.61371" lon="5.8648">
        <ele>1180.2</ele>
        <time>2023-05-19T08:23:43Z</time>
      </trkpt>
      <trkpt lat="44.61365" lon="5.86478">
        <ele>1181</ele>
        <time>2023-05-19T08:23:46Z</time>
      </trkpt>
      <trkpt lat="44.61364" lon="5.86478">
        <ele>1181.2</ele>
        <time>2023-05-19T08:23:47Z</time>
      </trkpt>
      <trkpt lat="44.61362" lon="5.86479">
        <ele>1181.4</ele>
        <time>2023-05-19T08:23:48Z</time>
      </trkpt>
      <trkpt lat="44.6136" lon="5.8648">
        <ele>1181.6</ele>
        <time>2023-05-19T08:23:49Z</time>
      </trkpt>
      <trkpt lat="44.61359" lon="5.86481">
        <ele>1181.6</ele>
        <time>2023-05-19T08:23:50Z</time>
      </trkpt>
      <trkpt lat="44.61357" lon="5.86482">
        <ele>1181.6</ele>
        <time>2023-05-19T08:23:51Z</time>
      </trkpt>
      <trkpt lat="44.61355" lon="5.86482">
        <ele>1181.8</ele>
        <time>2023-05-19T08:23:52Z</time>
      </trkpt>
      <trkpt lat="44.61353" lon="5.86485">
        <ele>1182</ele>
        <time>2023-05-19T08:23:54Z</time>
      </trkpt>
      <trkpt lat="44.61352" lon="5.86487">
        <ele>1182.2</ele>
        <time>2023-05-19T08:23:55Z</time>
      </trkpt>
      <trkpt lat="44.61351" lon="5.86488">
        <ele>1182.4</ele>
        <time>2023-05-19T08:23:56Z</time>
      </trkpt>
      <trkpt lat="44.6135" lon="5.8649">
        <ele>1182.4</ele>
        <time>2023-05-19T08:23:57Z</time>
      </trkpt>
      <trkpt lat="44.61348" lon="5.86491">
        <ele>1182.4</ele>
        <time>2023-05-19T08:23:58Z</time>
      </trkpt>
      <trkpt lat="44.61347" lon="5.86493">
        <ele>1182.6</ele>
        <time>2023-05-19T08:23:59Z</time>
      </trkpt>
      <trkpt lat="44.61346" lon="5.86495">
        <ele>1182.6</ele>
        <time>2023-05-19T08:24:00Z</time>
      </trkpt>
      <trkpt lat="44.61345" lon="5.86498">
        <ele>1182.6</ele>
        <time>2023-05-19T08:24:01Z</time>
      </trkpt>
      <trkpt lat="44.61344" lon="5.86499">
        <ele>1182.6</ele>
        <time>2023-05-19T08:24:02Z</time>
      </trkpt>
      <trkpt lat="44.61343" lon="5.86502">
        <ele>1182.6</ele>
        <time>2023-05-19T08:24:03Z</time>
      </trkpt>
      <trkpt lat="44.61342" lon="5.86504">
        <ele>1182.6</ele>
        <time>2023-05-19T08:24:04Z</time>
      </trkpt>
      <trkpt lat="44.61337" lon="5.86511">
        <ele>1183.4</ele>
        <time>2023-05-19T08:24:09Z</time>
      </trkpt>
      <trkpt lat="44.61336" lon="5.86513">
        <ele>1183.6</ele>
        <time>2023-05-19T08:24:10Z</time>
      </trkpt>
      <trkpt lat="44.61335" lon="5.86513">
        <ele>1183.6</ele>
        <time>2023-05-19T08:24:11Z</time>
      </trkpt>
      <trkpt lat="44.61333" lon="5.86514">
        <ele>1183.8</ele>
        <time>2023-05-19T08:24:12Z</time>
      </trkpt>
      <trkpt lat="44.61326" lon="5.86518">
        <ele>1184.4</ele>
        <time>2023-05-19T08:24:16Z</time>
      </trkpt>
      <trkpt lat="44.61325" lon="5.86518">
        <ele>1184.6</ele>
        <time>2023-05-19T08:24:17Z</time>
      </trkpt>
      <trkpt lat="44.61323" lon="5.86519">
        <ele>1184.6</ele>
        <time>2023-05-19T08:24:18Z</time>
      </trkpt>
      <trkpt lat="44.61322" lon="5.86519">
        <ele>1185</ele>
        <time>2023-05-19T08:24:19Z</time>
      </trkpt>
      <trkpt lat="44.6132" lon="5.86519">
        <ele>1185</ele>
        <time>2023-05-19T08:24:20Z</time>
      </trkpt>
      <trkpt lat="44.61319" lon="5.8652">
        <ele>1185.2</ele>
        <time>2023-05-19T08:24:21Z</time>
      </trkpt>
      <trkpt lat="44.61317" lon="5.8652">
        <ele>1185.4</ele>
        <time>2023-05-19T08:24:22Z</time>
      </trkpt>
      <trkpt lat="44.61316" lon="5.8652">
        <ele>1185.4</ele>
        <time>2023-05-19T08:24:23Z</time>
      </trkpt>
      <trkpt lat="44.61315" lon="5.8652">
        <ele>1185.6</ele>
        <time>2023-05-19T08:24:24Z</time>
      </trkpt>
      <trkpt lat="44.61313" lon="5.8652">
        <ele>1185.8</ele>
        <time>2023-05-19T08:24:25Z</time>
      </trkpt>
      <trkpt lat="44.61312" lon="5.8652">
        <ele>1186.2</ele>
        <time>2023-05-19T08:24:26Z</time>
      </trkpt>
      <trkpt lat="44.6131" lon="5.8652">
        <ele>1186.2</ele>
        <time>2023-05-19T08:24:27Z</time>
      </trkpt>
      <trkpt lat="44.61309" lon="5.86519">
        <ele>1186.6</ele>
        <time>2023-05-19T08:24:28Z</time>
      </trkpt>
      <trkpt lat="44.61307" lon="5.86519">
        <ele>1187</ele>
        <time>2023-05-19T08:24:29Z</time>
      </trkpt>
      <trkpt lat="44.61305" lon="5.86519">
        <ele>1187</ele>
        <time>2023-05-19T08:24:30Z</time>
      </trkpt>
      <trkpt lat="44.61304" lon="5.86519">
        <ele>1187.4</ele>
        <time>2023-05-19T08:24:31Z</time>
      </trkpt>
      <trkpt lat="44.61302" lon="5.86519">
        <ele>1187.4</ele>
        <time>2023-05-19T08:24:32Z</time>
      </trkpt>
      <trkpt lat="44.61301" lon="5.86519">
        <ele>1187.6</ele>
        <time>2023-05-19T08:24:33Z</time>
      </trkpt>
      <trkpt lat="44.61299" lon="5.86519">
        <ele>1187.6</ele>
        <time>2023-05-19T08:24:34Z</time>
      </trkpt>
      <trkpt lat="44.61298" lon="5.86519">
        <ele>1188</ele>
        <time>2023-05-19T08:24:35Z</time>
      </trkpt>
      <trkpt lat="44.61295" lon="5.86519">
        <ele>1188</ele>
        <time>2023-05-19T08:24:36Z</time>
      </trkpt>
      <trkpt lat="44.61294" lon="5.86518">
        <ele>1188.2</ele>
        <time>2023-05-19T08:24:37Z</time>
      </trkpt>
      <trkpt lat="44.61293" lon="5.86518">
        <ele>1188.4</ele>
        <time>2023-05-19T08:24:38Z</time>
      </trkpt>
      <trkpt lat="44.61291" lon="5.86518">
        <ele>1188.4</ele>
        <time>2023-05-19T08:24:39Z</time>
      </trkpt>
      <trkpt lat="44.61288" lon="5.86518">
        <ele>1188.6</ele>
        <time>2023-05-19T08:24:40Z</time>
      </trkpt>
      <trkpt lat="44.61287" lon="5.86518">
        <ele>1188.6</ele>
        <time>2023-05-19T08:24:41Z</time>
      </trkpt>
      <trkpt lat="44.61285" lon="5.86518">
        <ele>1188.8</ele>
        <time>2023-05-19T08:24:42Z</time>
      </trkpt>
      <trkpt lat="44.61284" lon="5.86519">
        <ele>1188.8</ele>
        <time>2023-05-19T08:24:43Z</time>
      </trkpt>
      <trkpt lat="44.61283" lon="5.86519">
        <ele>1189</ele>
        <time>2023-05-19T08:24:44Z</time>
      </trkpt>
      <trkpt lat="44.6128" lon="5.8652">
        <ele>1189.2</ele>
        <time>2023-05-19T08:24:45Z</time>
      </trkpt>
      <trkpt lat="44.61278" lon="5.8652">
        <ele>1189.2</ele>
        <time>2023-05-19T08:24:46Z</time>
      </trkpt>
      <trkpt lat="44.61277" lon="5.86519">
        <ele>1189.2</ele>
        <time>2023-05-19T08:24:47Z</time>
      </trkpt>
      <trkpt lat="44.61275" lon="5.86519">
        <ele>1189.4</ele>
        <time>2023-05-19T08:24:48Z</time>
      </trkpt>
      <trkpt lat="44.61273" lon="5.86519">
        <ele>1189.4</ele>
        <time>2023-05-19T08:24:49Z</time>
      </trkpt>
      <trkpt lat="44.61271" lon="5.86519">
        <ele>1189.6</ele>
        <time>2023-05-19T08:24:50Z</time>
      </trkpt>
      <trkpt lat="44.61269" lon="5.86519">
        <ele>1189.6</ele>
        <time>2023-05-19T08:24:51Z</time>
      </trkpt>
      <trkpt lat="44.61267" lon="5.86518">
        <ele>1189.8</ele>
        <time>2023-05-19T08:24:52Z</time>
      </trkpt>
      <trkpt lat="44.61265" lon="5.86517">
        <ele>1190</ele>
        <time>2023-05-19T08:24:53Z</time>
      </trkpt>
      <trkpt lat="44.61264" lon="5.86517">
        <ele>1190.2</ele>
        <time>2023-05-19T08:24:54Z</time>
      </trkpt>
      <trkpt lat="44.61263" lon="5.86516">
        <ele>1190.2</ele>
        <time>2023-05-19T08:24:55Z</time>
      </trkpt>
      <trkpt lat="44.61262" lon="5.86516">
        <ele>1190.4</ele>
        <time>2023-05-19T08:24:56Z</time>
      </trkpt>
      <trkpt lat="44.6126" lon="5.86516">
        <ele>1190.4</ele>
        <time>2023-05-19T08:24:57Z</time>
      </trkpt>
      <trkpt lat="44.61258" lon="5.86516">
        <ele>1190.6</ele>
        <time>2023-05-19T08:24:58Z</time>
      </trkpt>
      <trkpt lat="44.61256" lon="5.86515">
        <ele>1190.8</ele>
        <time>2023-05-19T08:24:59Z</time>
      </trkpt>
      <trkpt lat="44.61254" lon="5.86515">
        <ele>1190.8</ele>
        <time>2023-05-19T08:25:00Z</time>
      </trkpt>
      <trkpt lat="44.61253" lon="5.86514">
        <ele>1191</ele>
        <time>2023-05-19T08:25:01Z</time>
      </trkpt>
      <trkpt lat="44.61251" lon="5.86514">
        <ele>1191</ele>
        <time>2023-05-19T08:25:02Z</time>
      </trkpt>
      <trkpt lat="44.61249" lon="5.86514">
        <ele>1191</ele>
        <time>2023-05-19T08:25:03Z</time>
      </trkpt>
      <trkpt lat="44.61247" lon="5.86513">
        <ele>1191</ele>
        <time>2023-05-19T08:25:04Z</time>
      </trkpt>
      <trkpt lat="44.61245" lon="5.86512">
        <ele>1191.2</ele>
        <time>2023-05-19T08:25:05Z</time>
      </trkpt>
      <trkpt lat="44.61244" lon="5.86511">
        <ele>1191.4</ele>
        <time>2023-05-19T08:25:06Z</time>
      </trkpt>
      <trkpt lat="44.61242" lon="5.8651">
        <ele>1191.4</ele>
        <time>2023-05-19T08:25:07Z</time>
      </trkpt>
      <trkpt lat="44.6124" lon="5.86508">
        <ele>1191.4</ele>
        <time>2023-05-19T08:25:08Z</time>
      </trkpt>
      <trkpt lat="44.61238" lon="5.86507">
        <ele>1191.6</ele>
        <time>2023-05-19T08:25:09Z</time>
      </trkpt>
      <trkpt lat="44.61235" lon="5.86505">
        <ele>1191.6</ele>
        <time>2023-05-19T08:25:10Z</time>
      </trkpt>
      <trkpt lat="44.61233" lon="5.86503">
        <ele>1191.6</ele>
        <time>2023-05-19T08:25:11Z</time>
      </trkpt>
      <trkpt lat="44.61232" lon="5.86501">
        <ele>1191.6</ele>
        <time>2023-05-19T08:25:12Z</time>
      </trkpt>
      <trkpt lat="44.6123" lon="5.865">
        <ele>1191.6</ele>
        <time>2023-05-19T08:25:13Z</time>
      </trkpt>
      <trkpt lat="44.61228" lon="5.86498">
        <ele>1191.6</ele>
        <time>2023-05-19T08:25:14Z</time>
      </trkpt>
      <trkpt lat="44.61225" lon="5.86496">
        <ele>1191.8</ele>
        <time>2023-05-19T08:25:15Z</time>
      </trkpt>
      <trkpt lat="44.6122" lon="5.86494">
        <ele>1192</ele>
        <time>2023-05-19T08:25:17Z</time>
      </trkpt>
      <trkpt lat="44.61214" lon="5.86488">
        <ele>1192</ele>
        <time>2023-05-19T08:25:20Z</time>
      </trkpt>
      <trkpt lat="44.6121" lon="5.86483">
        <ele>1192</ele>
        <time>2023-05-19T08:25:22Z</time>
      </trkpt>
      <trkpt lat="44.61198" lon="5.86473">
        <ele>1192.2</ele>
        <time>2023-05-19T08:25:28Z</time>
      </trkpt>
      <trkpt lat="44.61196" lon="5.86471">
        <ele>1192.2</ele>
        <time>2023-05-19T08:25:29Z</time>
      </trkpt>
      <trkpt lat="44.61188" lon="5.86464">
        <ele>1192</ele>
        <time>2023-05-19T08:25:33Z</time>
      </trkpt>
      <trkpt lat="44.61187" lon="5.86463">
        <ele>1192</ele>
        <time>2023-05-19T08:25:34Z</time>
      </trkpt>
      <trkpt lat="44.61186" lon="5.86462">
        <ele>1192</ele>
        <time>2023-05-19T08:25:35Z</time>
      </trkpt>
      <trkpt lat="44.61184" lon="5.86461">
        <ele>1192</ele>
        <time>2023-05-19T08:25:36Z</time>
      </trkpt>
      <trkpt lat="44.6118" lon="5.86458">
        <ele>1192</ele>
        <time>2023-05-19T08:25:39Z</time>
      </trkpt>
      <trkpt lat="44.61178" lon="5.86458">
        <ele>1192</ele>
        <time>2023-05-19T08:25:40Z</time>
      </trkpt>
      <trkpt lat="44.61177" lon="5.86457">
        <ele>1192</ele>
        <time>2023-05-19T08:25:41Z</time>
      </trkpt>
      <trkpt lat="44.61175" lon="5.86456">
        <ele>1192.2</ele>
        <time>2023-05-19T08:25:42Z</time>
      </trkpt>
      <trkpt lat="44.61174" lon="5.86455">
        <ele>1192.2</ele>
        <time>2023-05-19T08:25:43Z</time>
      </trkpt>
      <trkpt lat="44.61172" lon="5.86455">
        <ele>1192.2</ele>
        <time>2023-05-19T08:25:44Z</time>
      </trkpt>
      <trkpt lat="44.61171" lon="5.86454">
        <ele>1192.4</ele>
        <time>2023-05-19T08:25:45Z</time>
      </trkpt>
      <trkpt lat="44.61169" lon="5.86453">
        <ele>1192.4</ele>
        <time>2023-05-19T08:25:46Z</time>
      </trkpt>
      <trkpt lat="44.61168" lon="5.86452">
        <ele>1192.6</ele>
        <time>2023-05-19T08:25:47Z</time>
      </trkpt>
      <trkpt lat="44.61166" lon="5.86451">
        <ele>1192.8</ele>
        <time>2023-05-19T08:25:48Z</time>
      </trkpt>
      <trkpt lat="44.61165" lon="5.8645">
        <ele>1192.8</ele>
        <time>2023-05-19T08:25:49Z</time>
      </trkpt>
      <trkpt lat="44.61161" lon="5.86447">
        <ele>1193.2</ele>
        <time>2023-05-19T08:25:52Z</time>
      </trkpt>
      <trkpt lat="44.6116" lon="5.86446">
        <ele>1193.2</ele>
        <time>2023-05-19T08:25:53Z</time>
      </trkpt>
      <trkpt lat="44.61159" lon="5.86444">
        <ele>1193.4</ele>
        <time>2023-05-19T08:25:54Z</time>
      </trkpt>
      <trkpt lat="44.61157" lon="5.86443">
        <ele>1193.6</ele>
        <time>2023-05-19T08:25:55Z</time>
      </trkpt>
      <trkpt lat="44.61157" lon="5.86442">
        <ele>1193.6</ele>
        <time>2023-05-19T08:25:56Z</time>
      </trkpt>
      <trkpt lat="44.61155" lon="5.86441">
        <ele>1193.8</ele>
        <time>2023-05-19T08:25:57Z</time>
      </trkpt>
      <trkpt lat="44.61154" lon="5.8644">
        <ele>1194</ele>
        <time>2023-05-19T08:25:58Z</time>
      </trkpt>
      <trkpt lat="44.61152" lon="5.86439">
        <ele>1194</ele>
        <time>2023-05-19T08:25:59Z</time>
      </trkpt>
      <trkpt lat="44.61151" lon="5.86439">
        <ele>1194.2</ele>
        <time>2023-05-19T08:26:00Z</time>
      </trkpt>
      <trkpt lat="44.61149" lon="5.86439">
        <ele>1194.2</ele>
        <time>2023-05-19T08:26:01Z</time>
      </trkpt>
      <trkpt lat="44.61147" lon="5.86438">
        <ele>1194.4</ele>
        <time>2023-05-19T08:26:02Z</time>
      </trkpt>
      <trkpt lat="44.61146" lon="5.86436">
        <ele>1194.6</ele>
        <time>2023-05-19T08:26:03Z</time>
      </trkpt>
      <trkpt lat="44.61144" lon="5.86435">
        <ele>1194.6</ele>
        <time>2023-05-19T08:26:04Z</time>
      </trkpt>
      <trkpt lat="44.61143" lon="5.86434">
        <ele>1194.6</ele>
        <time>2023-05-19T08:26:05Z</time>
      </trkpt>
      <trkpt lat="44.61134" lon="5.86428">
        <ele>1195.4</ele>
        <time>2023-05-19T08:26:12Z</time>
      </trkpt>
      <trkpt lat="44.61132" lon="5.86427">
        <ele>1195.6</ele>
        <time>2023-05-19T08:26:13Z</time>
      </trkpt>
      <trkpt lat="44.61131" lon="5.86427">
        <ele>1195.6</ele>
        <time>2023-05-19T08:26:14Z</time>
      </trkpt>
      <trkpt lat="44.6113" lon="5.86426">
        <ele>1195.8</ele>
        <time>2023-05-19T08:26:15Z</time>
      </trkpt>
      <trkpt lat="44.61129" lon="5.86425">
        <ele>1195.8</ele>
        <time>2023-05-19T08:26:16Z</time>
      </trkpt>
      <trkpt lat="44.61128" lon="5.86425">
        <ele>1196</ele>
        <time>2023-05-19T08:26:17Z</time>
      </trkpt>
      <trkpt lat="44.61126" lon="5.86424">
        <ele>1196.4</ele>
        <time>2023-05-19T08:26:18Z</time>
      </trkpt>
      <trkpt lat="44.61125" lon="5.86424">
        <ele>1196.6</ele>
        <time>2023-05-19T08:26:19Z</time>
      </trkpt>
      <trkpt lat="44.61124" lon="5.86424">
        <ele>1197</ele>
        <time>2023-05-19T08:26:20Z</time>
      </trkpt>
      <trkpt lat="44.61125" lon="5.86423">
        <ele>1197</ele>
        <time>2023-05-19T08:26:21Z</time>
      </trkpt>
      <trkpt lat="44.61124" lon="5.86422">
        <ele>1197.2</ele>
        <time>2023-05-19T08:26:22Z</time>
      </trkpt>
      <trkpt lat="44.61123" lon="5.86421">
        <ele>1197.4</ele>
        <time>2023-05-19T08:26:23Z</time>
      </trkpt>
      <trkpt lat="44.61121" lon="5.86421">
        <ele>1197.8</ele>
        <time>2023-05-19T08:26:24Z</time>
      </trkpt>
      <trkpt lat="44.6112" lon="5.8642">
        <ele>1197.8</ele>
        <time>2023-05-19T08:26:25Z</time>
      </trkpt>
      <trkpt lat="44.61118" lon="5.8642">
        <ele>1198</ele>
        <time>2023-05-19T08:26:26Z</time>
      </trkpt>
      <trkpt lat="44.61118" lon="5.8642">
        <ele>1198.4</ele>
        <time>2023-05-19T08:26:27Z</time>
      </trkpt>
      <trkpt lat="44.61117" lon="5.8642">
        <ele>1198.4</ele>
        <time>2023-05-19T08:26:28Z</time>
      </trkpt>
      <trkpt lat="44.61115" lon="5.86419">
        <ele>1198.6</ele>
        <time>2023-05-19T08:26:29Z</time>
      </trkpt>
      <trkpt lat="44.61113" lon="5.86418">
        <ele>1198.6</ele>
        <time>2023-05-19T08:26:30Z</time>
      </trkpt>
      <trkpt lat="44.61112" lon="5.86417">
        <ele>1199</ele>
        <time>2023-05-19T08:26:31Z</time>
      </trkpt>
      <trkpt lat="44.6111" lon="5.86417">
        <ele>1199.2</ele>
        <time>2023-05-19T08:26:32Z</time>
      </trkpt>
      <trkpt lat="44.61108" lon="5.86415">
        <ele>1199.2</ele>
        <time>2023-05-19T08:26:33Z</time>
      </trkpt>
      <trkpt lat="44.61107" lon="5.86414">
        <ele>1199.6</ele>
        <time>2023-05-19T08:26:34Z</time>
      </trkpt>
      <trkpt lat="44.61105" lon="5.86413">
        <ele>1199.8</ele>
        <time>2023-05-19T08:26:35Z</time>
      </trkpt>
      <trkpt lat="44.61103" lon="5.86413">
        <ele>1200</ele>
        <time>2023-05-19T08:26:36Z</time>
      </trkpt>
      <trkpt lat="44.61102" lon="5.86411">
        <ele>1200.2</ele>
        <time>2023-05-19T08:26:37Z</time>
      </trkpt>
      <trkpt lat="44.61101" lon="5.8641">
        <ele>1200.4</ele>
        <time>2023-05-19T08:26:38Z</time>
      </trkpt>
      <trkpt lat="44.611" lon="5.86409">
        <ele>1200.4</ele>
        <time>2023-05-19T08:26:39Z</time>
      </trkpt>
      <trkpt lat="44.61098" lon="5.86407">
        <ele>1200.8</ele>
        <time>2023-05-19T08:26:40Z</time>
      </trkpt>
      <trkpt lat="44.61097" lon="5.86405">
        <ele>1201</ele>
        <time>2023-05-19T08:26:41Z</time>
      </trkpt>
      <trkpt lat="44.61096" lon="5.86404">
        <ele>1201</ele>
        <time>2023-05-19T08:26:42Z</time>
      </trkpt>
      <trkpt lat="44.61095" lon="5.86402">
        <ele>1201</ele>
        <time>2023-05-19T08:26:43Z</time>
      </trkpt>
      <trkpt lat="44.61094" lon="5.86401">
        <ele>1201.2</ele>
        <time>2023-05-19T08:26:44Z</time>
      </trkpt>
      <trkpt lat="44.61092" lon="5.864">
        <ele>1201.4</ele>
        <time>2023-05-19T08:26:45Z</time>
      </trkpt>
      <trkpt lat="44.61091" lon="5.86398">
        <ele>1201.6</ele>
        <time>2023-05-19T08:26:46Z</time>
      </trkpt>
      <trkpt lat="44.61088" lon="5.86396">
        <ele>1201.8</ele>
        <time>2023-05-19T08:26:47Z</time>
      </trkpt>
      <trkpt lat="44.61086" lon="5.86395">
        <ele>1202</ele>
        <time>2023-05-19T08:26:48Z</time>
      </trkpt>
      <trkpt lat="44.61085" lon="5.86395">
        <ele>1202.2</ele>
        <time>2023-05-19T08:26:49Z</time>
      </trkpt>
      <trkpt lat="44.61084" lon="5.86394">
        <ele>1202.2</ele>
        <time>2023-05-19T08:26:50Z</time>
      </trkpt>
      <trkpt lat="44.61082" lon="5.86392">
        <ele>1202.4</ele>
        <time>2023-05-19T08:26:51Z</time>
      </trkpt>
      <trkpt lat="44.61082" lon="5.86391">
        <ele>1202.6</ele>
        <time>2023-05-19T08:26:52Z</time>
      </trkpt>
      <trkpt lat="44.61081" lon="5.86389">
        <ele>1202.8</ele>
        <time>2023-05-19T08:26:53Z</time>
      </trkpt>
      <trkpt lat="44.61081" lon="5.86387">
        <ele>1202.8</ele>
        <time>2023-05-19T08:26:54Z</time>
      </trkpt>
      <trkpt lat="44.6108" lon="5.86385">
        <ele>1203</ele>
        <time>2023-05-19T08:26:55Z</time>
      </trkpt>
      <trkpt lat="44.6108" lon="5.86383">
        <ele>1203.2</ele>
        <time>2023-05-19T08:26:56Z</time>
      </trkpt>
      <trkpt lat="44.61079" lon="5.86382">
        <ele>1203.2</ele>
        <time>2023-05-19T08:26:57Z</time>
      </trkpt>
      <trkpt lat="44.61078" lon="5.8638">
        <ele>1203.4</ele>
        <time>2023-05-19T08:26:58Z</time>
      </trkpt>
      <trkpt lat="44.61077" lon="5.86379">
        <ele>1203.4</ele>
        <time>2023-05-19T08:26:59Z</time>
      </trkpt>
      <trkpt lat="44.61076" lon="5.86377">
        <ele>1203.4</ele>
        <time>2023-05-19T08:27:00Z</time>
      </trkpt>
      <trkpt lat="44.61075" lon="5.86376">
        <ele>1203.6</ele>
        <time>2023-05-19T08:27:01Z</time>
      </trkpt>
      <trkpt lat="44.61075" lon="5.86374">
        <ele>1203.6</ele>
        <time>2023-05-19T08:27:02Z</time>
      </trkpt>
      <trkpt lat="44.61073" lon="5.86372">
        <ele>1203.8</ele>
        <time>2023-05-19T08:27:03Z</time>
      </trkpt>
      <trkpt lat="44.61072" lon="5.86371">
        <ele>1203.8</ele>
        <time>2023-05-19T08:27:04Z</time>
      </trkpt>
      <trkpt lat="44.61071" lon="5.86369">
        <ele>1204.2</ele>
        <time>2023-05-19T08:27:05Z</time>
      </trkpt>
      <trkpt lat="44.6107" lon="5.86368">
        <ele>1204.4</ele>
        <time>2023-05-19T08:27:06Z</time>
      </trkpt>
      <trkpt lat="44.6107" lon="5.86366">
        <ele>1204.4</ele>
        <time>2023-05-19T08:27:07Z</time>
      </trkpt>
      <trkpt lat="44.61069" lon="5.86365">
        <ele>1204.8</ele>
        <time>2023-05-19T08:27:08Z</time>
      </trkpt>
      <trkpt lat="44.61068" lon="5.86364">
        <ele>1204.8</ele>
        <time>2023-05-19T08:27:09Z</time>
      </trkpt>
      <trkpt lat="44.61067" lon="5.86363">
        <ele>1205</ele>
        <time>2023-05-19T08:27:10Z</time>
      </trkpt>
      <trkpt lat="44.61066" lon="5.86361">
        <ele>1205</ele>
        <time>2023-05-19T08:27:11Z</time>
      </trkpt>
      <trkpt lat="44.61065" lon="5.8636">
        <ele>1205.4</ele>
        <time>2023-05-19T08:27:12Z</time>
      </trkpt>
      <trkpt lat="44.61064" lon="5.86359">
        <ele>1205.6</ele>
        <time>2023-05-19T08:27:13Z</time>
      </trkpt>
      <trkpt lat="44.61063" lon="5.86358">
        <ele>1205.8</ele>
        <time>2023-05-19T08:27:14Z</time>
      </trkpt>
      <trkpt lat="44.61062" lon="5.86356">
        <ele>1205.8</ele>
        <time>2023-05-19T08:27:15Z</time>
      </trkpt>
      <trkpt lat="44.6106" lon="5.86355">
        <ele>1206</ele>
        <time>2023-05-19T08:27:16Z</time>
      </trkpt>
      <trkpt lat="44.61059" lon="5.86354">
        <ele>1206</ele>
        <time>2023-05-19T08:27:17Z</time>
      </trkpt>
      <trkpt lat="44.61058" lon="5.86353">
        <ele>1206</ele>
        <time>2023-05-19T08:27:18Z</time>
      </trkpt>
      <trkpt lat="44.61057" lon="5.86352">
        <ele>1206.2</ele>
        <time>2023-05-19T08:27:19Z</time>
      </trkpt>
      <trkpt lat="44.61056" lon="5.8635">
        <ele>1206.2</ele>
        <time>2023-05-19T08:27:20Z</time>
      </trkpt>
      <trkpt lat="44.61055" lon="5.86349">
        <ele>1206.4</ele>
        <time>2023-05-19T08:27:21Z</time>
      </trkpt>
      <trkpt lat="44.61054" lon="5.86348">
        <ele>1206.8</ele>
        <time>2023-05-19T08:27:22Z</time>
      </trkpt>
      <trkpt lat="44.61053" lon="5.86347">
        <ele>1207</ele>
        <time>2023-05-19T08:27:23Z</time>
      </trkpt>
      <trkpt lat="44.61052" lon="5.86345">
        <ele>1207</ele>
        <time>2023-05-19T08:27:24Z</time>
      </trkpt>
      <trkpt lat="44.61051" lon="5.86343">
        <ele>1207.2</ele>
        <time>2023-05-19T08:27:25Z</time>
      </trkpt>
      <trkpt lat="44.6105" lon="5.86342">
        <ele>1207.4</ele>
        <time>2023-05-19T08:27:26Z</time>
      </trkpt>
      <trkpt lat="44.61049" lon="5.86342">
        <ele>1207.6</ele>
        <time>2023-05-19T08:27:27Z</time>
      </trkpt>
      <trkpt lat="44.61049" lon="5.86342">
        <ele>1207.6</ele>
        <time>2023-05-19T08:27:28Z</time>
      </trkpt>
      <trkpt lat="44.61049" lon="5.86341">
        <ele>1207.8</ele>
        <time>2023-05-19T08:27:29Z</time>
      </trkpt>
      <trkpt lat="44.61048" lon="5.8634">
        <ele>1208</ele>
        <time>2023-05-19T08:27:30Z</time>
      </trkpt>
      <trkpt lat="44.61046" lon="5.86339">
        <ele>1208.2</ele>
        <time>2023-05-19T08:27:31Z</time>
      </trkpt>
      <trkpt lat="44.61046" lon="5.86338">
        <ele>1208.4</ele>
        <time>2023-05-19T08:27:32Z</time>
      </trkpt>
      <trkpt lat="44.61044" lon="5.86336">
        <ele>1208.6</ele>
        <time>2023-05-19T08:27:33Z</time>
      </trkpt>
      <trkpt lat="44.61043" lon="5.86334">
        <ele>1208.8</ele>
        <time>2023-05-19T08:27:34Z</time>
      </trkpt>
      <trkpt lat="44.61042" lon="5.86333">
        <ele>1209</ele>
        <time>2023-05-19T08:27:35Z</time>
      </trkpt>
      <trkpt lat="44.61041" lon="5.86331">
        <ele>1209</ele>
        <time>2023-05-19T08:27:36Z</time>
      </trkpt>
      <trkpt lat="44.6104" lon="5.8633">
        <ele>1209.2</ele>
        <time>2023-05-19T08:27:37Z</time>
      </trkpt>
      <trkpt lat="44.61038" lon="5.86329">
        <ele>1209.4</ele>
        <time>2023-05-19T08:27:38Z</time>
      </trkpt>
      <trkpt lat="44.61037" lon="5.86327">
        <ele>1209.4</ele>
        <time>2023-05-19T08:27:39Z</time>
      </trkpt>
      <trkpt lat="44.61036" lon="5.86326">
        <ele>1209.4</ele>
        <time>2023-05-19T08:27:40Z</time>
      </trkpt>
      <trkpt lat="44.61034" lon="5.86325">
        <ele>1209.8</ele>
        <time>2023-05-19T08:27:41Z</time>
      </trkpt>
      <trkpt lat="44.61034" lon="5.86323">
        <ele>1209.8</ele>
        <time>2023-05-19T08:27:42Z</time>
      </trkpt>
      <trkpt lat="44.61033" lon="5.86322">
        <ele>1210</ele>
        <time>2023-05-19T08:27:43Z</time>
      </trkpt>
      <trkpt lat="44.61032" lon="5.86321">
        <ele>1210</ele>
        <time>2023-05-19T08:27:44Z</time>
      </trkpt>
      <trkpt lat="44.61031" lon="5.86319">
        <ele>1210.2</ele>
        <time>2023-05-19T08:27:45Z</time>
      </trkpt>
      <trkpt lat="44.61029" lon="5.86318">
        <ele>1210.2</ele>
        <time>2023-05-19T08:27:46Z</time>
      </trkpt>
      <trkpt lat="44.61028" lon="5.86317">
        <ele>1210.4</ele>
        <time>2023-05-19T08:27:47Z</time>
      </trkpt>
      <trkpt lat="44.61028" lon="5.86315">
        <ele>1210.4</ele>
        <time>2023-05-19T08:27:48Z</time>
      </trkpt>
      <trkpt lat="44.61027" lon="5.86314">
        <ele>1210.4</ele>
        <time>2023-05-19T08:27:49Z</time>
      </trkpt>
      <trkpt lat="44.61026" lon="5.86314">
        <ele>1210.4</ele>
        <time>2023-05-19T08:27:50Z</time>
      </trkpt>
      <trkpt lat="44.61025" lon="5.86313">
        <ele>1210.6</ele>
        <time>2023-05-19T08:27:51Z</time>
      </trkpt>
      <trkpt lat="44.61024" lon="5.86311">
        <ele>1210.8</ele>
        <time>2023-05-19T08:27:52Z</time>
      </trkpt>
      <trkpt lat="44.61023" lon="5.86309">
        <ele>1211</ele>
        <time>2023-05-19T08:27:53Z</time>
      </trkpt>
      <trkpt lat="44.61023" lon="5.86308">
        <ele>1211</ele>
        <time>2023-05-19T08:27:54Z</time>
      </trkpt>
      <trkpt lat="44.61021" lon="5.86306">
        <ele>1211.2</ele>
        <time>2023-05-19T08:27:55Z</time>
      </trkpt>
      <trkpt lat="44.6102" lon="5.86305">
        <ele>1211.2</ele>
        <time>2023-05-19T08:27:56Z</time>
      </trkpt>
      <trkpt lat="44.61019" lon="5.86304">
        <ele>1211.4</ele>
        <time>2023-05-19T08:27:57Z</time>
      </trkpt>
      <trkpt lat="44.61018" lon="5.86302">
        <ele>1211.4</ele>
        <time>2023-05-19T08:27:58Z</time>
      </trkpt>
      <trkpt lat="44.61017" lon="5.86302">
        <ele>1211.6</ele>
        <time>2023-05-19T08:27:59Z</time>
      </trkpt>
      <trkpt lat="44.61017" lon="5.86302">
        <ele>1211.8</ele>
        <time>2023-05-19T08:28:00Z</time>
      </trkpt>
      <trkpt lat="44.61016" lon="5.86301">
        <ele>1211.8</ele>
        <time>2023-05-19T08:28:01Z</time>
      </trkpt>
      <trkpt lat="44.61015" lon="5.863">
        <ele>1212</ele>
        <time>2023-05-19T08:28:02Z</time>
      </trkpt>
      <trkpt lat="44.61014" lon="5.86298">
        <ele>1212.2</ele>
        <time>2023-05-19T08:28:03Z</time>
      </trkpt>
      <trkpt lat="44.61014" lon="5.86298">
        <ele>1212.4</ele>
        <time>2023-05-19T08:28:04Z</time>
      </trkpt>
      <trkpt lat="44.61013" lon="5.86297">
        <ele>1212.6</ele>
        <time>2023-05-19T08:28:05Z</time>
      </trkpt>
      <trkpt lat="44.61011" lon="5.86297">
        <ele>1212.6</ele>
        <time>2023-05-19T08:28:06Z</time>
      </trkpt>
      <trkpt lat="44.6101" lon="5.86296">
        <ele>1212.8</ele>
        <time>2023-05-19T08:28:07Z</time>
      </trkpt>
      <trkpt lat="44.61009" lon="5.86295">
        <ele>1213</ele>
        <time>2023-05-19T08:28:08Z</time>
      </trkpt>
      <trkpt lat="44.61008" lon="5.86295">
        <ele>1213</ele>
        <time>2023-05-19T08:28:09Z</time>
      </trkpt>
      <trkpt lat="44.61007" lon="5.86294">
        <ele>1213</ele>
        <time>2023-05-19T08:28:10Z</time>
      </trkpt>
      <trkpt lat="44.61006" lon="5.86293">
        <ele>1213.2</ele>
        <time>2023-05-19T08:28:11Z</time>
      </trkpt>
      <trkpt lat="44.61004" lon="5.86292">
        <ele>1213.4</ele>
        <time>2023-05-19T08:28:12Z</time>
      </trkpt>
      <trkpt lat="44.61003" lon="5.86291">
        <ele>1213.4</ele>
        <time>2023-05-19T08:28:13Z</time>
      </trkpt>
      <trkpt lat="44.61002" lon="5.8629">
        <ele>1213.6</ele>
        <time>2023-05-19T08:28:14Z</time>
      </trkpt>
      <trkpt lat="44.61001" lon="5.86289">
        <ele>1213.6</ele>
        <time>2023-05-19T08:28:15Z</time>
      </trkpt>
      <trkpt lat="44.61" lon="5.86288">
        <ele>1213.8</ele>
        <time>2023-05-19T08:28:16Z</time>
      </trkpt>
      <trkpt lat="44.60998" lon="5.86287">
        <ele>1213.8</ele>
        <time>2023-05-19T08:28:17Z</time>
      </trkpt>
      <trkpt lat="44.60997" lon="5.86287">
        <ele>1214.2</ele>
        <time>2023-05-19T08:28:18Z</time>
      </trkpt>
      <trkpt lat="44.60995" lon="5.86286">
        <ele>1214.4</ele>
        <time>2023-05-19T08:28:19Z</time>
      </trkpt>
      <trkpt lat="44.60995" lon="5.86286">
        <ele>1214.6</ele>
        <time>2023-05-19T08:28:20Z</time>
      </trkpt>
      <trkpt lat="44.60994" lon="5.86286">
        <ele>1214.8</ele>
        <time>2023-05-19T08:28:21Z</time>
      </trkpt>
      <trkpt lat="44.60992" lon="5.86285">
        <ele>1214.8</ele>
        <time>2023-05-19T08:28:22Z</time>
      </trkpt>
      <trkpt lat="44.6099" lon="5.86284">
        <ele>1215</ele>
        <time>2023-05-19T08:28:23Z</time>
      </trkpt>
      <trkpt lat="44.60989" lon="5.86283">
        <ele>1215.2</ele>
        <time>2023-05-19T08:28:24Z</time>
      </trkpt>
      <trkpt lat="44.60986" lon="5.86283">
        <ele>1215.2</ele>
        <time>2023-05-19T08:28:25Z</time>
      </trkpt>
      <trkpt lat="44.60985" lon="5.86282">
        <ele>1215.4</ele>
        <time>2023-05-19T08:28:26Z</time>
      </trkpt>
      <trkpt lat="44.60984" lon="5.86282">
        <ele>1215.6</ele>
        <time>2023-05-19T08:28:27Z</time>
      </trkpt>
      <trkpt lat="44.60983" lon="5.86282">
        <ele>1216</ele>
        <time>2023-05-19T08:28:28Z</time>
      </trkpt>
      <trkpt lat="44.60981" lon="5.86281">
        <ele>1216</ele>
        <time>2023-05-19T08:28:29Z</time>
      </trkpt>
      <trkpt lat="44.6098" lon="5.86281">
        <ele>1216.2</ele>
        <time>2023-05-19T08:28:30Z</time>
      </trkpt>
      <trkpt lat="44.60978" lon="5.86281">
        <ele>1216.4</ele>
        <time>2023-05-19T08:28:31Z</time>
      </trkpt>
      <trkpt lat="44.60977" lon="5.8628">
        <ele>1216.6</ele>
        <time>2023-05-19T08:28:32Z</time>
      </trkpt>
      <trkpt lat="44.60975" lon="5.8628">
        <ele>1216.8</ele>
        <time>2023-05-19T08:28:33Z</time>
      </trkpt>
      <trkpt lat="44.60973" lon="5.8628">
        <ele>1217</ele>
        <time>2023-05-19T08:28:34Z</time>
      </trkpt>
      <trkpt lat="44.60972" lon="5.8628">
        <ele>1217.2</ele>
        <time>2023-05-19T08:28:35Z</time>
      </trkpt>
      <trkpt lat="44.60971" lon="5.8628">
        <ele>1217.2</ele>
        <time>2023-05-19T08:28:36Z</time>
      </trkpt>
      <trkpt lat="44.60969" lon="5.86279">
        <ele>1217.6</ele>
        <time>2023-05-19T08:28:37Z</time>
      </trkpt>
      <trkpt lat="44.60968" lon="5.86279">
        <ele>1217.6</ele>
        <time>2023-05-19T08:28:38Z</time>
      </trkpt>
      <trkpt lat="44.60966" lon="5.86279">
        <ele>1218</ele>
        <time>2023-05-19T08:28:39Z</time>
      </trkpt>
      <trkpt lat="44.60965" lon="5.86278">
        <ele>1218.2</ele>
        <time>2023-05-19T08:28:40Z</time>
      </trkpt>
      <trkpt lat="44.60963" lon="5.86278">
        <ele>1218.2</ele>
        <time>2023-05-19T08:28:41Z</time>
      </trkpt>
      <trkpt lat="44.60961" lon="5.86277">
        <ele>1218.2</ele>
        <time>2023-05-19T08:28:42Z</time>
      </trkpt>
      <trkpt lat="44.6096" lon="5.86277">
        <ele>1218.4</ele>
        <time>2023-05-19T08:28:43Z</time>
      </trkpt>
      <trkpt lat="44.60959" lon="5.86277">
        <ele>1218.6</ele>
        <time>2023-05-19T08:28:44Z</time>
      </trkpt>
      <trkpt lat="44.60958" lon="5.86276">
        <ele>1218.8</ele>
        <time>2023-05-19T08:28:45Z</time>
      </trkpt>
      <trkpt lat="44.60957" lon="5.86276">
        <ele>1219</ele>
        <time>2023-05-19T08:28:46Z</time>
      </trkpt>
      <trkpt lat="44.60955" lon="5.86275">
        <ele>1219.2</ele>
        <time>2023-05-19T08:28:47Z</time>
      </trkpt>
      <trkpt lat="44.60954" lon="5.86274">
        <ele>1219.4</ele>
        <time>2023-05-19T08:28:48Z</time>
      </trkpt>
      <trkpt lat="44.60952" lon="5.86274">
        <ele>1219.4</ele>
        <time>2023-05-19T08:28:49Z</time>
      </trkpt>
      <trkpt lat="44.60951" lon="5.86274">
        <ele>1219.6</ele>
        <time>2023-05-19T08:28:50Z</time>
      </trkpt>
      <trkpt lat="44.6095" lon="5.86273">
        <ele>1219.6</ele>
        <time>2023-05-19T08:28:51Z</time>
      </trkpt>
      <trkpt lat="44.60949" lon="5.86273">
        <ele>1219.8</ele>
        <time>2023-05-19T08:28:52Z</time>
      </trkpt>
      <trkpt lat="44.60948" lon="5.86273">
        <ele>1220</ele>
        <time>2023-05-19T08:28:53Z</time>
      </trkpt>
      <trkpt lat="44.60946" lon="5.86272">
        <ele>1220</ele>
        <time>2023-05-19T08:28:54Z</time>
      </trkpt>
      <trkpt lat="44.60945" lon="5.86271">
        <ele>1220.2</ele>
        <time>2023-05-19T08:28:55Z</time>
      </trkpt>
      <trkpt lat="44.60944" lon="5.8627">
        <ele>1220.4</ele>
        <time>2023-05-19T08:28:56Z</time>
      </trkpt>
      <trkpt lat="44.60943" lon="5.8627">
        <ele>1220.4</ele>
        <time>2023-05-19T08:28:57Z</time>
      </trkpt>
      <trkpt lat="44.60941" lon="5.86269">
        <ele>1220.6</ele>
        <time>2023-05-19T08:28:58Z</time>
      </trkpt>
      <trkpt lat="44.60939" lon="5.86268">
        <ele>1220.6</ele>
        <time>2023-05-19T08:28:59Z</time>
      </trkpt>
      <trkpt lat="44.60938" lon="5.86267">
        <ele>1220.8</ele>
        <time>2023-05-19T08:29:00Z</time>
      </trkpt>
      <trkpt lat="44.60936" lon="5.86266">
        <ele>1220.8</ele>
        <time>2023-05-19T08:29:01Z</time>
      </trkpt>
      <trkpt lat="44.60934" lon="5.86265">
        <ele>1221</ele>
        <time>2023-05-19T08:29:02Z</time>
      </trkpt>
      <trkpt lat="44.60933" lon="5.86264">
        <ele>1221</ele>
        <time>2023-05-19T08:29:03Z</time>
      </trkpt>
      <trkpt lat="44.60932" lon="5.86263">
        <ele>1221.2</ele>
        <time>2023-05-19T08:29:04Z</time>
      </trkpt>
      <trkpt lat="44.60931" lon="5.86262">
        <ele>1221.2</ele>
        <time>2023-05-19T08:29:05Z</time>
      </trkpt>
      <trkpt lat="44.6093" lon="5.86261">
        <ele>1221.2</ele>
        <time>2023-05-19T08:29:06Z</time>
      </trkpt>
      <trkpt lat="44.60928" lon="5.8626">
        <ele>1221.2</ele>
        <time>2023-05-19T08:29:07Z</time>
      </trkpt>
      <trkpt lat="44.60927" lon="5.86259">
        <ele>1221.4</ele>
        <time>2023-05-19T08:29:08Z</time>
      </trkpt>
      <trkpt lat="44.60926" lon="5.86258">
        <ele>1221.6</ele>
        <time>2023-05-19T08:29:09Z</time>
      </trkpt>
      <trkpt lat="44.60925" lon="5.86258">
        <ele>1221.8</ele>
        <time>2023-05-19T08:29:10Z</time>
      </trkpt>
      <trkpt lat="44.60924" lon="5.86257">
        <ele>1222</ele>
        <time>2023-05-19T08:29:11Z</time>
      </trkpt>
      <trkpt lat="44.60923" lon="5.86255">
        <ele>1222</ele>
        <time>2023-05-19T08:29:12Z</time>
      </trkpt>
      <trkpt lat="44.60921" lon="5.86254">
        <ele>1222.2</ele>
        <time>2023-05-19T08:29:13Z</time>
      </trkpt>
      <trkpt lat="44.6092" lon="5.86253">
        <ele>1222.2</ele>
        <time>2023-05-19T08:29:14Z</time>
      </trkpt>
      <trkpt lat="44.60918" lon="5.86252">
        <ele>1222.4</ele>
        <time>2023-05-19T08:29:15Z</time>
      </trkpt>
      <trkpt lat="44.60916" lon="5.8625">
        <ele>1222.4</ele>
        <time>2023-05-19T08:29:16Z</time>
      </trkpt>
      <trkpt lat="44.60915" lon="5.86249">
        <ele>1222.6</ele>
        <time>2023-05-19T08:29:17Z</time>
      </trkpt>
      <trkpt lat="44.60914" lon="5.86247">
        <ele>1222.8</ele>
        <time>2023-05-19T08:29:18Z</time>
      </trkpt>
      <trkpt lat="44.60913" lon="5.86246">
        <ele>1222.8</ele>
        <time>2023-05-19T08:29:19Z</time>
      </trkpt>
      <trkpt lat="44.60913" lon="5.86245">
        <ele>1223</ele>
        <time>2023-05-19T08:29:20Z</time>
      </trkpt>
      <trkpt lat="44.60912" lon="5.86244">
        <ele>1223.2</ele>
        <time>2023-05-19T08:29:21Z</time>
      </trkpt>
      <trkpt lat="44.60911" lon="5.86243">
        <ele>1223.2</ele>
        <time>2023-05-19T08:29:22Z</time>
      </trkpt>
      <trkpt lat="44.6091" lon="5.86242">
        <ele>1223.4</ele>
        <time>2023-05-19T08:29:23Z</time>
      </trkpt>
      <trkpt lat="44.60909" lon="5.86241">
        <ele>1223.6</ele>
        <time>2023-05-19T08:29:24Z</time>
      </trkpt>
      <trkpt lat="44.60907" lon="5.86239">
        <ele>1223.6</ele>
        <time>2023-05-19T08:29:25Z</time>
      </trkpt>
      <trkpt lat="44.60906" lon="5.86238">
        <ele>1223.8</ele>
        <time>2023-05-19T08:29:26Z</time>
      </trkpt>
      <trkpt lat="44.60904" lon="5.86237">
        <ele>1223.8</ele>
        <time>2023-05-19T08:29:27Z</time>
      </trkpt>
      <trkpt lat="44.60903" lon="5.86236">
        <ele>1223.8</ele>
        <time>2023-05-19T08:29:28Z</time>
      </trkpt>
      <trkpt lat="44.60902" lon="5.86234">
        <ele>1224</ele>
        <time>2023-05-19T08:29:29Z</time>
      </trkpt>
      <trkpt lat="44.609" lon="5.86233">
        <ele>1224.2</ele>
        <time>2023-05-19T08:29:30Z</time>
      </trkpt>
      <trkpt lat="44.60898" lon="5.86231">
        <ele>1224.4</ele>
        <time>2023-05-19T08:29:31Z</time>
      </trkpt>
      <trkpt lat="44.60896" lon="5.8623">
        <ele>1224.4</ele>
        <time>2023-05-19T08:29:32Z</time>
      </trkpt>
      <trkpt lat="44.60895" lon="5.86229">
        <ele>1224.6</ele>
        <time>2023-05-19T08:29:33Z</time>
      </trkpt>
      <trkpt lat="44.60893" lon="5.86227">
        <ele>1224.6</ele>
        <time>2023-05-19T08:29:34Z</time>
      </trkpt>
      <trkpt lat="44.60891" lon="5.86226">
        <ele>1224.6</ele>
        <time>2023-05-19T08:29:35Z</time>
      </trkpt>
      <trkpt lat="44.6089" lon="5.86225">
        <ele>1224.8</ele>
        <time>2023-05-19T08:29:36Z</time>
      </trkpt>
      <trkpt lat="44.60888" lon="5.86223">
        <ele>1224.8</ele>
        <time>2023-05-19T08:29:37Z</time>
      </trkpt>
      <trkpt lat="44.60888" lon="5.86222">
        <ele>1225</ele>
        <time>2023-05-19T08:29:38Z</time>
      </trkpt>
      <trkpt lat="44.60887" lon="5.86221">
        <ele>1225.2</ele>
        <time>2023-05-19T08:29:39Z</time>
      </trkpt>
      <trkpt lat="44.60885" lon="5.86221">
        <ele>1225.2</ele>
        <time>2023-05-19T08:29:40Z</time>
      </trkpt>
      <trkpt lat="44.60883" lon="5.8622">
        <ele>1225.4</ele>
        <time>2023-05-19T08:29:41Z</time>
      </trkpt>
      <trkpt lat="44.60881" lon="5.86219">
        <ele>1225.4</ele>
        <time>2023-05-19T08:29:42Z</time>
      </trkpt>
      <trkpt lat="44.6088" lon="5.86218">
        <ele>1225.8</ele>
        <time>2023-05-19T08:29:43Z</time>
      </trkpt>
      <trkpt lat="44.60878" lon="5.86217">
        <ele>1225.8</ele>
        <time>2023-05-19T08:29:44Z</time>
      </trkpt>
      <trkpt lat="44.60876" lon="5.86216">
        <ele>1226</ele>
        <time>2023-05-19T08:29:45Z</time>
      </trkpt>
      <trkpt lat="44.60874" lon="5.86215">
        <ele>1226</ele>
        <time>2023-05-19T08:29:46Z</time>
      </trkpt>
      <trkpt lat="44.60872" lon="5.86214">
        <ele>1226.2</ele>
        <time>2023-05-19T08:29:47Z</time>
      </trkpt>
      <trkpt lat="44.60871" lon="5.86213">
        <ele>1226.2</ele>
        <time>2023-05-19T08:29:48Z</time>
      </trkpt>
      <trkpt lat="44.60869" lon="5.86212">
        <ele>1226.4</ele>
        <time>2023-05-19T08:29:49Z</time>
      </trkpt>
      <trkpt lat="44.60867" lon="5.86212">
        <ele>1226.4</ele>
        <time>2023-05-19T08:29:50Z</time>
      </trkpt>
      <trkpt lat="44.60865" lon="5.86211">
        <ele>1226.4</ele>
        <time>2023-05-19T08:29:51Z</time>
      </trkpt>
      <trkpt lat="44.60863" lon="5.86211">
        <ele>1226.4</ele>
        <time>2023-05-19T08:29:52Z</time>
      </trkpt>
      <trkpt lat="44.60861" lon="5.8621">
        <ele>1226.4</ele>
        <time>2023-05-19T08:29:53Z</time>
      </trkpt>
      <trkpt lat="44.60858" lon="5.8621">
        <ele>1226.6</ele>
        <time>2023-05-19T08:29:54Z</time>
      </trkpt>
      <trkpt lat="44.60856" lon="5.86209">
        <ele>1226.6</ele>
        <time>2023-05-19T08:29:55Z</time>
      </trkpt>
      <trkpt lat="44.60846" lon="5.86206">
        <ele>1226.2</ele>
        <time>2023-05-19T08:29:59Z</time>
      </trkpt>
      <trkpt lat="44.60837" lon="5.86206">
        <ele>1225.8</ele>
        <time>2023-05-19T08:30:03Z</time>
      </trkpt>
      <trkpt lat="44.60835" lon="5.86207">
        <ele>1225.8</ele>
        <time>2023-05-19T08:30:04Z</time>
      </trkpt>
      <trkpt lat="44.60833" lon="5.86207">
        <ele>1225.6</ele>
        <time>2023-05-19T08:30:05Z</time>
      </trkpt>
      <trkpt lat="44.60832" lon="5.86207">
        <ele>1225.6</ele>
        <time>2023-05-19T08:30:06Z</time>
      </trkpt>
      <trkpt lat="44.60826" lon="5.8621">
        <ele>1225.4</ele>
        <time>2023-05-19T08:30:09Z</time>
      </trkpt>
      <trkpt lat="44.60825" lon="5.86211">
        <ele>1225.4</ele>
        <time>2023-05-19T08:30:10Z</time>
      </trkpt>
      <trkpt lat="44.60823" lon="5.86212">
        <ele>1225.4</ele>
        <time>2023-05-19T08:30:11Z</time>
      </trkpt>
      <trkpt lat="44.60821" lon="5.86213">
        <ele>1225.2</ele>
        <time>2023-05-19T08:30:12Z</time>
      </trkpt>
      <trkpt lat="44.6082" lon="5.86213">
        <ele>1225.2</ele>
        <time>2023-05-19T08:30:13Z</time>
      </trkpt>
      <trkpt lat="44.60814" lon="5.86216">
        <ele>1225.6</ele>
        <time>2023-05-19T08:30:17Z</time>
      </trkpt>
      <trkpt lat="44.60812" lon="5.86216">
        <ele>1225.6</ele>
        <time>2023-05-19T08:30:18Z</time>
      </trkpt>
      <trkpt lat="44.6081" lon="5.86217">
        <ele>1225.8</ele>
        <time>2023-05-19T08:30:19Z</time>
      </trkpt>
      <trkpt lat="44.60809" lon="5.86218">
        <ele>1225.8</ele>
        <time>2023-05-19T08:30:20Z</time>
      </trkpt>
      <trkpt lat="44.60806" lon="5.86221">
        <ele>1226.2</ele>
        <time>2023-05-19T08:30:22Z</time>
      </trkpt>
      <trkpt lat="44.60804" lon="5.86223">
        <ele>1226.4</ele>
        <time>2023-05-19T08:30:23Z</time>
      </trkpt>
      <trkpt lat="44.60803" lon="5.86225">
        <ele>1226.6</ele>
        <time>2023-05-19T08:30:24Z</time>
      </trkpt>
      <trkpt lat="44.60801" lon="5.86226">
        <ele>1226.6</ele>
        <time>2023-05-19T08:30:25Z</time>
      </trkpt>
      <trkpt lat="44.60799" lon="5.86228">
        <ele>1226.8</ele>
        <time>2023-05-19T08:30:26Z</time>
      </trkpt>
      <trkpt lat="44.60796" lon="5.86229">
        <ele>1227</ele>
        <time>2023-05-19T08:30:28Z</time>
      </trkpt>
      <trkpt lat="44.60794" lon="5.86231">
        <ele>1227</ele>
        <time>2023-05-19T08:30:29Z</time>
      </trkpt>
      <trkpt lat="44.60791" lon="5.86233">
        <ele>1227.4</ele>
        <time>2023-05-19T08:30:31Z</time>
      </trkpt>
      <trkpt lat="44.60788" lon="5.86235">
        <ele>1227.6</ele>
        <time>2023-05-19T08:30:33Z</time>
      </trkpt>
      <trkpt lat="44.60787" lon="5.86236">
        <ele>1227.6</ele>
        <time>2023-05-19T08:30:34Z</time>
      </trkpt>
      <trkpt lat="44.60785" lon="5.86237">
        <ele>1227.6</ele>
        <time>2023-05-19T08:30:35Z</time>
      </trkpt>
      <trkpt lat="44.60784" lon="5.86239">
        <ele>1227.8</ele>
        <time>2023-05-19T08:30:36Z</time>
      </trkpt>
      <trkpt lat="44.60782" lon="5.86241">
        <ele>1227.8</ele>
        <time>2023-05-19T08:30:37Z</time>
      </trkpt>
      <trkpt lat="44.6078" lon="5.86243">
        <ele>1227.8</ele>
        <time>2023-05-19T08:30:38Z</time>
      </trkpt>
      <trkpt lat="44.60776" lon="5.86247">
        <ele>1227.8</ele>
        <time>2023-05-19T08:30:41Z</time>
      </trkpt>
      <trkpt lat="44.60776" lon="5.86248">
        <ele>1227.8</ele>
        <time>2023-05-19T08:30:42Z</time>
      </trkpt>
      <trkpt lat="44.60775" lon="5.86249">
        <ele>1227.8</ele>
        <time>2023-05-19T08:30:43Z</time>
      </trkpt>
      <trkpt lat="44.60775" lon="5.86251">
        <ele>1227.8</ele>
        <time>2023-05-19T08:30:44Z</time>
      </trkpt>
      <trkpt lat="44.60773" lon="5.86255">
        <ele>1227.8</ele>
        <time>2023-05-19T08:30:45Z</time>
      </trkpt>
      <trkpt lat="44.60772" lon="5.86257">
        <ele>1227.8</ele>
        <time>2023-05-19T08:30:46Z</time>
      </trkpt>
      <trkpt lat="44.60771" lon="5.86259">
        <ele>1227.8</ele>
        <time>2023-05-19T08:30:47Z</time>
      </trkpt>
      <trkpt lat="44.60771" lon="5.86261">
        <ele>1228</ele>
        <time>2023-05-19T08:30:48Z</time>
      </trkpt>
      <trkpt lat="44.6077" lon="5.86262">
        <ele>1228</ele>
        <time>2023-05-19T08:30:49Z</time>
      </trkpt>
      <trkpt lat="44.6077" lon="5.86265">
        <ele>1228.2</ele>
        <time>2023-05-19T08:30:50Z</time>
      </trkpt>
      <trkpt lat="44.60769" lon="5.86268">
        <ele>1228.2</ele>
        <time>2023-05-19T08:30:51Z</time>
      </trkpt>
      <trkpt lat="44.60766" lon="5.86273">
        <ele>1228.2</ele>
        <time>2023-05-19T08:30:54Z</time>
      </trkpt>
      <trkpt lat="44.60764" lon="5.86275">
        <ele>1228.2</ele>
        <time>2023-05-19T08:30:55Z</time>
      </trkpt>
      <trkpt lat="44.60763" lon="5.86276">
        <ele>1228.4</ele>
        <time>2023-05-19T08:30:56Z</time>
      </trkpt>
      <trkpt lat="44.60761" lon="5.86277">
        <ele>1228.2</ele>
        <time>2023-05-19T08:30:57Z</time>
      </trkpt>
      <trkpt lat="44.60759" lon="5.86277">
        <ele>1228.2</ele>
        <time>2023-05-19T08:30:58Z</time>
      </trkpt>
      <trkpt lat="44.60755" lon="5.86278">
        <ele>1228.2</ele>
        <time>2023-05-19T08:31:00Z</time>
      </trkpt>
      <trkpt lat="44.60753" lon="5.86279">
        <ele>1228.2</ele>
        <time>2023-05-19T08:31:01Z</time>
      </trkpt>
      <trkpt lat="44.60743" lon="5.86284">
        <ele>1228.2</ele>
        <time>2023-05-19T08:31:05Z</time>
      </trkpt>
      <trkpt lat="44.60731" lon="5.86294">
        <ele>1227.4</ele>
        <time>2023-05-19T08:31:10Z</time>
      </trkpt>
      <trkpt lat="44.60729" lon="5.86295">
        <ele>1227.2</ele>
        <time>2023-05-19T08:31:11Z</time>
      </trkpt>
      <trkpt lat="44.60717" lon="5.86306">
        <ele>1226.6</ele>
        <time>2023-05-19T08:31:16Z</time>
      </trkpt>
      <trkpt lat="44.60711" lon="5.86313">
        <ele>1226</ele>
        <time>2023-05-19T08:31:19Z</time>
      </trkpt>
      <trkpt lat="44.60709" lon="5.86315">
        <ele>1225.8</ele>
        <time>2023-05-19T08:31:20Z</time>
      </trkpt>
      <trkpt lat="44.60708" lon="5.86317">
        <ele>1225.6</ele>
        <time>2023-05-19T08:31:21Z</time>
      </trkpt>
      <trkpt lat="44.60707" lon="5.86317">
        <ele>1225.4</ele>
        <time>2023-05-19T08:31:22Z</time>
      </trkpt>
      <trkpt lat="44.60706" lon="5.86318">
        <ele>1225</ele>
        <time>2023-05-19T08:31:23Z</time>
      </trkpt>
      <trkpt lat="44.60705" lon="5.86319">
        <ele>1225</ele>
        <time>2023-05-19T08:31:24Z</time>
      </trkpt>
      <trkpt lat="44.60703" lon="5.8632">
        <ele>1224.8</ele>
        <time>2023-05-19T08:31:25Z</time>
      </trkpt>
      <trkpt lat="44.60699" lon="5.86324">
        <ele>1224.6</ele>
        <time>2023-05-19T08:31:27Z</time>
      </trkpt>
      <trkpt lat="44.60697" lon="5.86326">
        <ele>1224.4</ele>
        <time>2023-05-19T08:31:28Z</time>
      </trkpt>
      <trkpt lat="44.60689" lon="5.86343">
        <ele>1223.6</ele>
        <time>2023-05-19T08:31:34Z</time>
      </trkpt>
      <trkpt lat="44.60689" lon="5.86346">
        <ele>1223.6</ele>
        <time>2023-05-19T08:31:35Z</time>
      </trkpt>
      <trkpt lat="44.6069" lon="5.86348">
        <ele>1223.2</ele>
        <time>2023-05-19T08:31:36Z</time>
      </trkpt>
      <trkpt lat="44.60691" lon="5.86351">
        <ele>1223</ele>
        <time>2023-05-19T08:31:37Z</time>
      </trkpt>
      <trkpt lat="44.60691" lon="5.86353">
        <ele>1223</ele>
        <time>2023-05-19T08:31:38Z</time>
      </trkpt>
      <trkpt lat="44.60692" lon="5.86356">
        <ele>1222.8</ele>
        <time>2023-05-19T08:31:39Z</time>
      </trkpt>
      <trkpt lat="44.60694" lon="5.86362">
        <ele>1222.8</ele>
        <time>2023-05-19T08:31:41Z</time>
      </trkpt>
      <trkpt lat="44.60694" lon="5.86365">
        <ele>1222.8</ele>
        <time>2023-05-19T08:31:42Z</time>
      </trkpt>
      <trkpt lat="44.60695" lon="5.86368">
        <ele>1222.8</ele>
        <time>2023-05-19T08:31:43Z</time>
      </trkpt>
      <trkpt lat="44.60696" lon="5.86371">
        <ele>1222.8</ele>
        <time>2023-05-19T08:31:44Z</time>
      </trkpt>
      <trkpt lat="44.60697" lon="5.86374">
        <ele>1222.8</ele>
        <time>2023-05-19T08:31:45Z</time>
      </trkpt>
      <trkpt lat="44.60704" lon="5.86394">
        <ele>1222.8</ele>
        <time>2023-05-19T08:31:53Z</time>
      </trkpt>
      <trkpt lat="44.60706" lon="5.86399">
        <ele>1223</ele>
        <time>2023-05-19T08:31:55Z</time>
      </trkpt>
      <trkpt lat="44.60707" lon="5.86402">
        <ele>1223</ele>
        <time>2023-05-19T08:31:56Z</time>
      </trkpt>
      <trkpt lat="44.60708" lon="5.86404">
        <ele>1223.2</ele>
        <time>2023-05-19T08:31:57Z</time>
      </trkpt>
      <trkpt lat="44.60708" lon="5.86406">
        <ele>1223.2</ele>
        <time>2023-05-19T08:31:58Z</time>
      </trkpt>
      <trkpt lat="44.60709" lon="5.86408">
        <ele>1223.2</ele>
        <time>2023-05-19T08:31:59Z</time>
      </trkpt>
      <trkpt lat="44.60709" lon="5.8641">
        <ele>1223.2</ele>
        <time>2023-05-19T08:32:00Z</time>
      </trkpt>
      <trkpt lat="44.6071" lon="5.86412">
        <ele>1223.4</ele>
        <time>2023-05-19T08:32:01Z</time>
      </trkpt>
      <trkpt lat="44.6071" lon="5.86415">
        <ele>1223.4</ele>
        <time>2023-05-19T08:32:02Z</time>
      </trkpt>
      <trkpt lat="44.60711" lon="5.8642">
        <ele>1223.4</ele>
        <time>2023-05-19T08:32:03Z</time>
      </trkpt>
      <trkpt lat="44.60713" lon="5.86428">
        <ele>1223.4</ele>
        <time>2023-05-19T08:32:05Z</time>
      </trkpt>
      <trkpt lat="44.60719" lon="5.86457">
        <ele>1222.6</ele>
        <time>2023-05-19T08:32:11Z</time>
      </trkpt>
      <trkpt lat="44.6072" lon="5.86461">
        <ele>1222.4</ele>
        <time>2023-05-19T08:32:12Z</time>
      </trkpt>
      <trkpt lat="44.60722" lon="5.86467">
        <ele>1222</ele>
        <time>2023-05-19T08:32:14Z</time>
      </trkpt>
      <trkpt lat="44.60723" lon="5.86469">
        <ele>1221.8</ele>
        <time>2023-05-19T08:32:15Z</time>
      </trkpt>
      <trkpt lat="44.60724" lon="5.86471">
        <ele>1221.6</ele>
        <time>2023-05-19T08:32:16Z</time>
      </trkpt>
      <trkpt lat="44.60724" lon="5.86473">
        <ele>1221.4</ele>
        <time>2023-05-19T08:32:17Z</time>
      </trkpt>
      <trkpt lat="44.60724" lon="5.86475">
        <ele>1221.4</ele>
        <time>2023-05-19T08:32:18Z</time>
      </trkpt>
      <trkpt lat="44.60725" lon="5.86477">
        <ele>1221.6</ele>
        <time>2023-05-19T08:32:19Z</time>
      </trkpt>
      <trkpt lat="44.60726" lon="5.86481">
        <ele>1221.4</ele>
        <time>2023-05-19T08:32:21Z</time>
      </trkpt>
      <trkpt lat="44.60727" lon="5.86483">
        <ele>1221.8</ele>
        <time>2023-05-19T08:32:22Z</time>
      </trkpt>
      <trkpt lat="44.60728" lon="5.86485">
        <ele>1221.8</ele>
        <time>2023-05-19T08:32:23Z</time>
      </trkpt>
      <trkpt lat="44.6073" lon="5.86493">
        <ele>1222</ele>
        <time>2023-05-19T08:32:27Z</time>
      </trkpt>
      <trkpt lat="44.6073" lon="5.86494">
        <ele>1222</ele>
        <time>2023-05-19T08:32:28Z</time>
      </trkpt>
      <trkpt lat="44.6073" lon="5.86496">
        <ele>1222.2</ele>
        <time>2023-05-19T08:32:29Z</time>
      </trkpt>
      <trkpt lat="44.6073" lon="5.86498">
        <ele>1222.2</ele>
        <time>2023-05-19T08:32:30Z</time>
      </trkpt>
      <trkpt lat="44.6073" lon="5.86499">
        <ele>1222.2</ele>
        <time>2023-05-19T08:32:31Z</time>
      </trkpt>
      <trkpt lat="44.6073" lon="5.865">
        <ele>1222.2</ele>
        <time>2023-05-19T08:32:32Z</time>
      </trkpt>
      <trkpt lat="44.6073" lon="5.86502">
        <ele>1222.4</ele>
        <time>2023-05-19T08:32:33Z</time>
      </trkpt>
      <trkpt lat="44.6073" lon="5.86504">
        <ele>1222.4</ele>
        <time>2023-05-19T08:32:34Z</time>
      </trkpt>
      <trkpt lat="44.60729" lon="5.86506">
        <ele>1222.4</ele>
        <time>2023-05-19T08:32:35Z</time>
      </trkpt>
      <trkpt lat="44.60728" lon="5.86508">
        <ele>1222.6</ele>
        <time>2023-05-19T08:32:36Z</time>
      </trkpt>
      <trkpt lat="44.60727" lon="5.86508">
        <ele>1222.6</ele>
        <time>2023-05-19T08:32:37Z</time>
      </trkpt>
      <trkpt lat="44.60726" lon="5.86509">
        <ele>1222.8</ele>
        <time>2023-05-19T08:32:41Z</time>
      </trkpt>
      <trkpt lat="44.60725" lon="5.86509">
        <ele>1222.8</ele>
        <time>2023-05-19T08:32:42Z</time>
      </trkpt>
      <trkpt lat="44.60721" lon="5.86507">
        <ele>1223.2</ele>
        <time>2023-05-19T08:32:48Z</time>
      </trkpt>
      <trkpt lat="44.60718" lon="5.86504">
        <ele>1223.4</ele>
        <time>2023-05-19T08:32:52Z</time>
      </trkpt>
      <trkpt lat="44.60717" lon="5.86503">
        <ele>1223.4</ele>
        <time>2023-05-19T08:32:53Z</time>
      </trkpt>
      <trkpt lat="44.60716" lon="5.86503">
        <ele>1223.4</ele>
        <time>2023-05-19T08:32:54Z</time>
      </trkpt>
      <trkpt lat="44.60716" lon="5.86502">
        <ele>1223.4</ele>
        <time>2023-05-19T08:32:55Z</time>
      </trkpt>
      <trkpt lat="44.60715" lon="5.865">
        <ele>1223.4</ele>
        <time>2023-05-19T08:32:57Z</time>
      </trkpt>
      <trkpt lat="44.60714" lon="5.86498">
        <ele>1223.4</ele>
        <time>2023-05-19T08:32:59Z</time>
      </trkpt>
      <trkpt lat="44.60713" lon="5.86497">
        <ele>1223</ele>
        <time>2023-05-19T08:33:00Z</time>
      </trkpt>
      <trkpt lat="44.60712" lon="5.86497">
        <ele>1223</ele>
        <time>2023-05-19T08:33:01Z</time>
      </trkpt>
      <trkpt lat="44.60712" lon="5.86497">
        <ele>1223</ele>
        <time>2023-05-19T08:33:02Z</time>
      </trkpt>
      <trkpt lat="44.60711" lon="5.86496">
        <ele>1222.8</ele>
        <time>2023-05-19T08:33:03Z</time>
      </trkpt>
      <trkpt lat="44.60711" lon="5.86496">
        <ele>1222.8</ele>
        <time>2023-05-19T08:33:04Z</time>
      </trkpt>
      <trkpt lat="44.6071" lon="5.86496">
        <ele>1222.8</ele>
        <time>2023-05-19T08:33:05Z</time>
      </trkpt>
      <trkpt lat="44.60707" lon="5.86493">
        <ele>1222.8</ele>
        <time>2023-05-19T08:33:09Z</time>
      </trkpt>
      <trkpt lat="44.60706" lon="5.86492">
        <ele>1222.8</ele>
        <time>2023-05-19T08:33:10Z</time>
      </trkpt>
      <trkpt lat="44.60706" lon="5.86492">
        <ele>1223</ele>
        <time>2023-05-19T08:33:11Z</time>
      </trkpt>
      <trkpt lat="44.60705" lon="5.86492">
        <ele>1223</ele>
        <time>2023-05-19T08:33:12Z</time>
      </trkpt>
      <trkpt lat="44.60704" lon="5.86491">
        <ele>1223</ele>
        <time>2023-05-19T08:33:13Z</time>
      </trkpt>
      <trkpt lat="44.60702" lon="5.8649">
        <ele>1223.2</ele>
        <time>2023-05-19T08:33:15Z</time>
      </trkpt>
      <trkpt lat="44.607" lon="5.8649">
        <ele>1223.8</ele>
        <time>2023-05-19T08:33:18Z</time>
      </trkpt>
      <trkpt lat="44.60699" lon="5.86489">
        <ele>1223.8</ele>
        <time>2023-05-19T08:33:19Z</time>
      </trkpt>
      <trkpt lat="44.60699" lon="5.86489">
        <ele>1224</ele>
        <time>2023-05-19T08:33:20Z</time>
      </trkpt>
      <trkpt lat="44.60698" lon="5.86489">
        <ele>1224.2</ele>
        <time>2023-05-19T08:33:22Z</time>
      </trkpt>
      <trkpt lat="44.60697" lon="5.86489">
        <ele>1225.2</ele>
        <time>2023-05-19T08:33:27Z</time>
      </trkpt>
      <trkpt lat="44.60696" lon="5.86488">
        <ele>1225.4</ele>
        <time>2023-05-19T08:33:28Z</time>
      </trkpt>
      <trkpt lat="44.60693" lon="5.86485">
        <ele>1226</ele>
        <time>2023-05-19T08:33:32Z</time>
      </trkpt>
      <trkpt lat="44.60692" lon="5.86484">
        <ele>1226.2</ele>
        <time>2023-05-19T08:33:33Z</time>
      </trkpt>
      <trkpt lat="44.60691" lon="5.86483">
        <ele>1226.4</ele>
        <time>2023-05-19T08:33:34Z</time>
      </trkpt>
      <trkpt lat="44.60691" lon="5.86482">
        <ele>1226.4</ele>
        <time>2023-05-19T08:33:35Z</time>
      </trkpt>
      <trkpt lat="44.60691" lon="5.86482">
        <ele>1226.6</ele>
        <time>2023-05-19T08:33:36Z</time>
      </trkpt>
      <trkpt lat="44.60691" lon="5.86482">
        <ele>1226.8</ele>
        <time>2023-05-19T08:33:37Z</time>
      </trkpt>
      <trkpt lat="44.60691" lon="5.86482">
        <ele>1226.8</ele>
        <time>2023-05-19T08:33:38Z</time>
      </trkpt>
      <trkpt lat="44.60691" lon="5.86481">
        <ele>1227</ele>
        <time>2023-05-19T08:33:39Z</time>
      </trkpt>
      <trkpt lat="44.60691" lon="5.86481">
        <ele>1227.2</ele>
        <time>2023-05-19T08:33:40Z</time>
      </trkpt>
      <trkpt lat="44.6069" lon="5.86481">
        <ele>1227.4</ele>
        <time>2023-05-19T08:33:41Z</time>
      </trkpt>
      <trkpt lat="44.6069" lon="5.86481">
        <ele>1227.6</ele>
        <time>2023-05-19T08:33:42Z</time>
      </trkpt>
      <trkpt lat="44.6069" lon="5.86481">
        <ele>1227.6</ele>
        <time>2023-05-19T08:33:43Z</time>
      </trkpt>
      <trkpt lat="44.60689" lon="5.8648">
        <ele>1227.8</ele>
        <time>2023-05-19T08:33:44Z</time>
      </trkpt>
      <trkpt lat="44.60688" lon="5.8648">
        <ele>1227.8</ele>
        <time>2023-05-19T08:33:45Z</time>
      </trkpt>
      <trkpt lat="44.60688" lon="5.8648">
        <ele>1228</ele>
        <time>2023-05-19T08:33:46Z</time>
      </trkpt>
      <trkpt lat="44.60687" lon="5.8648">
        <ele>1228</ele>
        <time>2023-05-19T08:33:47Z</time>
      </trkpt>
      <trkpt lat="44.60686" lon="5.86479">
        <ele>1228.2</ele>
        <time>2023-05-19T08:33:48Z</time>
      </trkpt>
      <trkpt lat="44.60684" lon="5.86479">
        <ele>1228.4</ele>
        <time>2023-05-19T08:33:49Z</time>
      </trkpt>
      <trkpt lat="44.60683" lon="5.86478">
        <ele>1228.6</ele>
        <time>2023-05-19T08:33:50Z</time>
      </trkpt>
      <trkpt lat="44.60682" lon="5.86478">
        <ele>1228.8</ele>
        <time>2023-05-19T08:33:51Z</time>
      </trkpt>
      <trkpt lat="44.60681" lon="5.86478">
        <ele>1229</ele>
        <time>2023-05-19T08:33:52Z</time>
      </trkpt>
      <trkpt lat="44.6068" lon="5.86477">
        <ele>1229</ele>
        <time>2023-05-19T08:33:53Z</time>
      </trkpt>
      <trkpt lat="44.60679" lon="5.86477">
        <ele>1229.2</ele>
        <time>2023-05-19T08:33:54Z</time>
      </trkpt>
      <trkpt lat="44.60679" lon="5.86476">
        <ele>1229.4</ele>
        <time>2023-05-19T08:33:55Z</time>
      </trkpt>
      <trkpt lat="44.60679" lon="5.86476">
        <ele>1229.6</ele>
        <time>2023-05-19T08:33:56Z</time>
      </trkpt>
      <trkpt lat="44.60678" lon="5.86475">
        <ele>1229.8</ele>
        <time>2023-05-19T08:33:57Z</time>
      </trkpt>
      <trkpt lat="44.60678" lon="5.86475">
        <ele>1230</ele>
        <time>2023-05-19T08:33:58Z</time>
      </trkpt>
      <trkpt lat="44.60678" lon="5.86475">
        <ele>1230</ele>
        <time>2023-05-19T08:33:59Z</time>
      </trkpt>
      <trkpt lat="44.60676" lon="5.86474">
        <ele>1230.2</ele>
        <time>2023-05-19T08:34:00Z</time>
      </trkpt>
      <trkpt lat="44.60675" lon="5.86474">
        <ele>1230.4</ele>
        <time>2023-05-19T08:34:01Z</time>
      </trkpt>
      <trkpt lat="44.60674" lon="5.86474">
        <ele>1230.6</ele>
        <time>2023-05-19T08:34:02Z</time>
      </trkpt>
      <trkpt lat="44.60673" lon="5.86473">
        <ele>1230.6</ele>
        <time>2023-05-19T08:34:03Z</time>
      </trkpt>
      <trkpt lat="44.60672" lon="5.86473">
        <ele>1230.8</ele>
        <time>2023-05-19T08:34:04Z</time>
      </trkpt>
      <trkpt lat="44.60671" lon="5.86472">
        <ele>1230.8</ele>
        <time>2023-05-19T08:34:05Z</time>
      </trkpt>
      <trkpt lat="44.60671" lon="5.86471">
        <ele>1231</ele>
        <time>2023-05-19T08:34:06Z</time>
      </trkpt>
      <trkpt lat="44.6067" lon="5.86471">
        <ele>1231.2</ele>
        <time>2023-05-19T08:34:07Z</time>
      </trkpt>
      <trkpt lat="44.6067" lon="5.86471">
        <ele>1231.4</ele>
        <time>2023-05-19T08:34:08Z</time>
      </trkpt>
      <trkpt lat="44.6067" lon="5.86471">
        <ele>1231.4</ele>
        <time>2023-05-19T08:34:09Z</time>
      </trkpt>
      <trkpt lat="44.60669" lon="5.86472">
        <ele>1231.6</ele>
        <time>2023-05-19T08:34:10Z</time>
      </trkpt>
      <trkpt lat="44.60668" lon="5.86472">
        <ele>1231.6</ele>
        <time>2023-05-19T08:34:11Z</time>
      </trkpt>
      <trkpt lat="44.60666" lon="5.86472">
        <ele>1231.8</ele>
        <time>2023-05-19T08:34:12Z</time>
      </trkpt>
      <trkpt lat="44.60665" lon="5.86472">
        <ele>1231.8</ele>
        <time>2023-05-19T08:34:13Z</time>
      </trkpt>
      <trkpt lat="44.60663" lon="5.86472">
        <ele>1232</ele>
        <time>2023-05-19T08:34:14Z</time>
      </trkpt>
      <trkpt lat="44.60663" lon="5.86472">
        <ele>1232</ele>
        <time>2023-05-19T08:34:15Z</time>
      </trkpt>
      <trkpt lat="44.60662" lon="5.86472">
        <ele>1232.2</ele>
        <time>2023-05-19T08:34:16Z</time>
      </trkpt>
      <trkpt lat="44.60661" lon="5.86472">
        <ele>1232.4</ele>
        <time>2023-05-19T08:34:17Z</time>
      </trkpt>
      <trkpt lat="44.6066" lon="5.86472">
        <ele>1232.6</ele>
        <time>2023-05-19T08:34:18Z</time>
      </trkpt>
      <trkpt lat="44.60659" lon="5.86472">
        <ele>1232.8</ele>
        <time>2023-05-19T08:34:19Z</time>
      </trkpt>
      <trkpt lat="44.60658" lon="5.86471">
        <ele>1232.8</ele>
        <time>2023-05-19T08:34:20Z</time>
      </trkpt>
      <trkpt lat="44.60658" lon="5.86472">
        <ele>1233</ele>
        <time>2023-05-19T08:34:21Z</time>
      </trkpt>
      <trkpt lat="44.60658" lon="5.86472">
        <ele>1233.2</ele>
        <time>2023-05-19T08:34:22Z</time>
      </trkpt>
      <trkpt lat="44.60658" lon="5.86472">
        <ele>1233.4</ele>
        <time>2023-05-19T08:34:25Z</time>
      </trkpt>
      <trkpt lat="44.60656" lon="5.86471">
        <ele>1233.6</ele>
        <time>2023-05-19T08:34:32Z</time>
      </trkpt>
      <trkpt lat="44.60654" lon="5.8647">
        <ele>1233.6</ele>
        <time>2023-05-19T08:34:33Z</time>
      </trkpt>
      <trkpt lat="44.60653" lon="5.86469">
        <ele>1233.8</ele>
        <time>2023-05-19T08:34:34Z</time>
      </trkpt>
      <trkpt lat="44.60651" lon="5.86469">
        <ele>1233.8</ele>
        <time>2023-05-19T08:34:35Z</time>
      </trkpt>
      <trkpt lat="44.60649" lon="5.86468">
        <ele>1233.8</ele>
        <time>2023-05-19T08:34:36Z</time>
      </trkpt>
      <trkpt lat="44.60648" lon="5.86468">
        <ele>1233.8</ele>
        <time>2023-05-19T08:34:37Z</time>
      </trkpt>
      <trkpt lat="44.60647" lon="5.86467">
        <ele>1233.8</ele>
        <time>2023-05-19T08:34:38Z</time>
      </trkpt>
      <trkpt lat="44.60644" lon="5.86466">
        <ele>1234</ele>
        <time>2023-05-19T08:34:40Z</time>
      </trkpt>
      <trkpt lat="44.60642" lon="5.86466">
        <ele>1234.2</ele>
        <time>2023-05-19T08:34:41Z</time>
      </trkpt>
      <trkpt lat="44.60633" lon="5.86461">
        <ele>1234.8</ele>
        <time>2023-05-19T08:34:46Z</time>
      </trkpt>
      <trkpt lat="44.60632" lon="5.8646">
        <ele>1235</ele>
        <time>2023-05-19T08:34:47Z</time>
      </trkpt>
      <trkpt lat="44.60629" lon="5.8646">
        <ele>1235.2</ele>
        <time>2023-05-19T08:34:49Z</time>
      </trkpt>
      <trkpt lat="44.60623" lon="5.86461">
        <ele>1235.2</ele>
        <time>2023-05-19T08:34:51Z</time>
      </trkpt>
      <trkpt lat="44.60619" lon="5.8646">
        <ele>1235.2</ele>
        <time>2023-05-19T08:34:53Z</time>
      </trkpt>
      <trkpt lat="44.60611" lon="5.86457">
        <ele>1235.2</ele>
        <time>2023-05-19T08:34:56Z</time>
      </trkpt>
      <trkpt lat="44.60608" lon="5.86456">
        <ele>1235.2</ele>
        <time>2023-05-19T08:34:57Z</time>
      </trkpt>
      <trkpt lat="44.60605" lon="5.86457">
        <ele>1235.2</ele>
        <time>2023-05-19T08:34:58Z</time>
      </trkpt>
      <trkpt lat="44.60602" lon="5.86458">
        <ele>1235.2</ele>
        <time>2023-05-19T08:34:59Z</time>
      </trkpt>
      <trkpt lat="44.60598" lon="5.86459">
        <ele>1235.2</ele>
        <time>2023-05-19T08:35:00Z</time>
      </trkpt>
      <trkpt lat="44.60594" lon="5.86459">
        <ele>1235</ele>
        <time>2023-05-19T08:35:01Z</time>
      </trkpt>
      <trkpt lat="44.60588" lon="5.86458">
        <ele>1234.8</ele>
        <time>2023-05-19T08:35:03Z</time>
      </trkpt>
      <trkpt lat="44.60578" lon="5.86461">
        <ele>1234</ele>
        <time>2023-05-19T08:35:07Z</time>
      </trkpt>
      <trkpt lat="44.60575" lon="5.86463">
        <ele>1233.8</ele>
        <time>2023-05-19T08:35:08Z</time>
      </trkpt>
      <trkpt lat="44.60573" lon="5.86465">
        <ele>1233.8</ele>
        <time>2023-05-19T08:35:09Z</time>
      </trkpt>
      <trkpt lat="44.6057" lon="5.86466">
        <ele>1233.8</ele>
        <time>2023-05-19T08:35:10Z</time>
      </trkpt>
      <trkpt lat="44.60568" lon="5.86467">
        <ele>1233.8</ele>
        <time>2023-05-19T08:35:11Z</time>
      </trkpt>
      <trkpt lat="44.60566" lon="5.86468">
        <ele>1233.8</ele>
        <time>2023-05-19T08:35:12Z</time>
      </trkpt>
      <trkpt lat="44.60564" lon="5.86469">
        <ele>1233.6</ele>
        <time>2023-05-19T08:35:13Z</time>
      </trkpt>
      <trkpt lat="44.60562" lon="5.86471">
        <ele>1234</ele>
        <time>2023-05-19T08:35:14Z</time>
      </trkpt>
      <trkpt lat="44.6056" lon="5.86472">
        <ele>1234</ele>
        <time>2023-05-19T08:35:15Z</time>
      </trkpt>
      <trkpt lat="44.60559" lon="5.86473">
        <ele>1234</ele>
        <time>2023-05-19T08:35:16Z</time>
      </trkpt>
      <trkpt lat="44.60557" lon="5.86474">
        <ele>1234.2</ele>
        <time>2023-05-19T08:35:17Z</time>
      </trkpt>
      <trkpt lat="44.60551" lon="5.86475">
        <ele>1234.4</ele>
        <time>2023-05-19T08:35:19Z</time>
      </trkpt>
      <trkpt lat="44.60534" lon="5.8648">
        <ele>1234.6</ele>
        <time>2023-05-19T08:35:24Z</time>
      </trkpt>
      <trkpt lat="44.60532" lon="5.86481">
        <ele>1234.6</ele>
        <time>2023-05-19T08:35:25Z</time>
      </trkpt>
      <trkpt lat="44.60531" lon="5.86482">
        <ele>1234.6</ele>
        <time>2023-05-19T08:35:26Z</time>
      </trkpt>
      <trkpt lat="44.60529" lon="5.86483">
        <ele>1234.6</ele>
        <time>2023-05-19T08:35:27Z</time>
      </trkpt>
      <trkpt lat="44.60527" lon="5.86484">
        <ele>1234.6</ele>
        <time>2023-05-19T08:35:28Z</time>
      </trkpt>
      <trkpt lat="44.60525" lon="5.86485">
        <ele>1234.6</ele>
        <time>2023-05-19T08:35:29Z</time>
      </trkpt>
      <trkpt lat="44.60506" lon="5.86495">
        <ele>1234.6</ele>
        <time>2023-05-19T08:35:36Z</time>
      </trkpt>
      <trkpt lat="44.60497" lon="5.86499">
        <ele>1234.8</ele>
        <time>2023-05-19T08:35:40Z</time>
      </trkpt>
      <trkpt lat="44.60494" lon="5.865">
        <ele>1235</ele>
        <time>2023-05-19T08:35:41Z</time>
      </trkpt>
      <trkpt lat="44.6049" lon="5.86502">
        <ele>1235</ele>
        <time>2023-05-19T08:35:42Z</time>
      </trkpt>
      <trkpt lat="44.60478" lon="5.86508">
        <ele>1235</ele>
        <time>2023-05-19T08:35:45Z</time>
      </trkpt>
      <trkpt lat="44.60476" lon="5.86508">
        <ele>1235.2</ele>
        <time>2023-05-19T08:35:46Z</time>
      </trkpt>
      <trkpt lat="44.60474" lon="5.8651">
        <ele>1235.2</ele>
        <time>2023-05-19T08:35:47Z</time>
      </trkpt>
      <trkpt lat="44.60471" lon="5.86513">
        <ele>1235.2</ele>
        <time>2023-05-19T08:35:48Z</time>
      </trkpt>
      <trkpt lat="44.60468" lon="5.86514">
        <ele>1235.2</ele>
        <time>2023-05-19T08:35:49Z</time>
      </trkpt>
      <trkpt lat="44.60465" lon="5.86516">
        <ele>1235.2</ele>
        <time>2023-05-19T08:35:50Z</time>
      </trkpt>
      <trkpt lat="44.60462" lon="5.8652">
        <ele>1235.2</ele>
        <time>2023-05-19T08:35:51Z</time>
      </trkpt>
      <trkpt lat="44.60456" lon="5.86531">
        <ele>1235.2</ele>
        <time>2023-05-19T08:35:53Z</time>
      </trkpt>
      <trkpt lat="44.60453" lon="5.86535">
        <ele>1235.2</ele>
        <time>2023-05-19T08:35:54Z</time>
      </trkpt>
      <trkpt lat="44.60451" lon="5.86538">
        <ele>1235.2</ele>
        <time>2023-05-19T08:35:55Z</time>
      </trkpt>
      <trkpt lat="44.6045" lon="5.86541">
        <ele>1235.2</ele>
        <time>2023-05-19T08:35:56Z</time>
      </trkpt>
      <trkpt lat="44.6045" lon="5.86544">
        <ele>1235.2</ele>
        <time>2023-05-19T08:35:57Z</time>
      </trkpt>
      <trkpt lat="44.60451" lon="5.86548">
        <ele>1235.2</ele>
        <time>2023-05-19T08:35:58Z</time>
      </trkpt>
      <trkpt lat="44.60451" lon="5.86552">
        <ele>1235.2</ele>
        <time>2023-05-19T08:35:59Z</time>
      </trkpt>
      <trkpt lat="44.6045" lon="5.86557">
        <ele>1235</ele>
        <time>2023-05-19T08:36:00Z</time>
      </trkpt>
      <trkpt lat="44.6045" lon="5.86563">
        <ele>1235</ele>
        <time>2023-05-19T08:36:01Z</time>
      </trkpt>
      <trkpt lat="44.60448" lon="5.86573">
        <ele>1235</ele>
        <time>2023-05-19T08:36:03Z</time>
      </trkpt>
      <trkpt lat="44.60446" lon="5.86578">
        <ele>1235.2</ele>
        <time>2023-05-19T08:36:04Z</time>
      </trkpt>
      <trkpt lat="44.60446" lon="5.86584">
        <ele>1234.8</ele>
        <time>2023-05-19T08:36:05Z</time>
      </trkpt>
      <trkpt lat="44.6045" lon="5.86594">
        <ele>1235</ele>
        <time>2023-05-19T08:36:07Z</time>
      </trkpt>
      <trkpt lat="44.60449" lon="5.86599">
        <ele>1234.8</ele>
        <time>2023-05-19T08:36:08Z</time>
      </trkpt>
      <trkpt lat="44.60447" lon="5.86605">
        <ele>1234.8</ele>
        <time>2023-05-19T08:36:10Z</time>
      </trkpt>
      <trkpt lat="44.60446" lon="5.86606">
        <ele>1234.8</ele>
        <time>2023-05-19T08:36:11Z</time>
      </trkpt>
      <trkpt lat="44.60446" lon="5.86606">
        <ele>1234.6</ele>
        <time>2023-05-19T08:36:12Z</time>
      </trkpt>
      <trkpt lat="44.60446" lon="5.86606">
        <ele>1234.6</ele>
        <time>2023-05-19T08:36:13Z</time>
      </trkpt>
      <trkpt lat="44.60445" lon="5.86606">
        <ele>1234.4</ele>
        <time>2023-05-19T08:36:14Z</time>
      </trkpt>
      <trkpt lat="44.60445" lon="5.86606">
        <ele>1234.2</ele>
        <time>2023-05-19T08:36:15Z</time>
      </trkpt>
      <trkpt lat="44.60445" lon="5.86607">
        <ele>1233.8</ele>
        <time>2023-05-19T08:36:16Z</time>
      </trkpt>
      <trkpt lat="44.60445" lon="5.86607">
        <ele>1233.8</ele>
        <time>2023-05-19T08:36:17Z</time>
      </trkpt>
      <trkpt lat="44.60443" lon="5.86607">
        <ele>1232.6</ele>
        <time>2023-05-19T08:36:20Z</time>
      </trkpt>
      <trkpt lat="44.60442" lon="5.86609">
        <ele>1231.6</ele>
        <time>2023-05-19T08:36:21Z</time>
      </trkpt>
      <trkpt lat="44.60441" lon="5.86612">
        <ele>1231</ele>
        <time>2023-05-19T08:36:22Z</time>
      </trkpt>
      <trkpt lat="44.60441" lon="5.86615">
        <ele>1230.4</ele>
        <time>2023-05-19T08:36:23Z</time>
      </trkpt>
      <trkpt lat="44.60441" lon="5.86618">
        <ele>1228.6</ele>
        <time>2023-05-19T08:36:25Z</time>
      </trkpt>
      <trkpt lat="44.60441" lon="5.8662">
        <ele>1227.4</ele>
        <time>2023-05-19T08:36:26Z</time>
      </trkpt>
      <trkpt lat="44.60441" lon="5.86622">
        <ele>1226.8</ele>
        <time>2023-05-19T08:36:27Z</time>
      </trkpt>
      <trkpt lat="44.60439" lon="5.86625">
        <ele>1225.8</ele>
        <time>2023-05-19T08:36:28Z</time>
      </trkpt>
      <trkpt lat="44.60439" lon="5.86626">
        <ele>1224.6</ele>
        <time>2023-05-19T08:36:30Z</time>
      </trkpt>
      <trkpt lat="44.60439" lon="5.86626">
        <ele>1224.2</ele>
        <time>2023-05-19T08:36:31Z</time>
      </trkpt>
      <trkpt lat="44.60439" lon="5.86626">
        <ele>1223.4</ele>
        <time>2023-05-19T08:36:32Z</time>
      </trkpt>
      <trkpt lat="44.60438" lon="5.86626">
        <ele>1222</ele>
        <time>2023-05-19T08:36:35Z</time>
      </trkpt>
      <trkpt lat="44.60435" lon="5.86628">
        <ele>1221</ele>
        <time>2023-05-19T08:36:39Z</time>
      </trkpt>
      <trkpt lat="44.60434" lon="5.86628">
        <ele>1221</ele>
        <time>2023-05-19T08:36:40Z</time>
      </trkpt>
      <trkpt lat="44.60432" lon="5.86628">
        <ele>1220.8</ele>
        <time>2023-05-19T08:36:41Z</time>
      </trkpt>
      <trkpt lat="44.60432" lon="5.86628">
        <ele>1220.8</ele>
        <time>2023-05-19T08:36:42Z</time>
      </trkpt>
      <trkpt lat="44.60432" lon="5.86628">
        <ele>1220.6</ele>
        <time>2023-05-19T08:36:43Z</time>
      </trkpt>
      <trkpt lat="44.60432" lon="5.86628">
        <ele>1220.4</ele>
        <time>2023-05-19T08:36:44Z</time>
      </trkpt>
      <trkpt lat="44.60431" lon="5.86628">
        <ele>1220.4</ele>
        <time>2023-05-19T08:36:45Z</time>
      </trkpt>
      <trkpt lat="44.60428" lon="5.86628">
        <ele>1220.4</ele>
        <time>2023-05-19T08:36:47Z</time>
      </trkpt>
      <trkpt lat="44.60423" lon="5.8663">
        <ele>1220.4</ele>
        <time>2023-05-19T08:36:50Z</time>
      </trkpt>
      <trkpt lat="44.60421" lon="5.8663">
        <ele>1220.4</ele>
        <time>2023-05-19T08:36:51Z</time>
      </trkpt>
      <trkpt lat="44.60418" lon="5.86629">
        <ele>1220.4</ele>
        <time>2023-05-19T08:36:53Z</time>
      </trkpt>
      <trkpt lat="44.60415" lon="5.86628">
        <ele>1220.4</ele>
        <time>2023-05-19T08:36:54Z</time>
      </trkpt>
      <trkpt lat="44.60414" lon="5.86627">
        <ele>1220.4</ele>
        <time>2023-05-19T08:36:55Z</time>
      </trkpt>
      <trkpt lat="44.60411" lon="5.86627">
        <ele>1220.4</ele>
        <time>2023-05-19T08:36:56Z</time>
      </trkpt>
      <trkpt lat="44.60409" lon="5.86628">
        <ele>1220.6</ele>
        <time>2023-05-19T08:36:57Z</time>
      </trkpt>
      <trkpt lat="44.60406" lon="5.86628">
        <ele>1220.6</ele>
        <time>2023-05-19T08:36:58Z</time>
      </trkpt>
      <trkpt lat="44.60405" lon="5.86627">
        <ele>1220.8</ele>
        <time>2023-05-19T08:36:59Z</time>
      </trkpt>
      <trkpt lat="44.60403" lon="5.86626">
        <ele>1221.2</ele>
        <time>2023-05-19T08:37:00Z</time>
      </trkpt>
      <trkpt lat="44.60403" lon="5.86626">
        <ele>1221.2</ele>
        <time>2023-05-19T08:37:01Z</time>
      </trkpt>
      <trkpt lat="44.60403" lon="5.86626">
        <ele>1221.4</ele>
        <time>2023-05-19T08:37:02Z</time>
      </trkpt>
      <trkpt lat="44.60402" lon="5.86626">
        <ele>1221.4</ele>
        <time>2023-05-19T08:37:03Z</time>
      </trkpt>
      <trkpt lat="44.604" lon="5.86627">
        <ele>1222.2</ele>
        <time>2023-05-19T08:37:04Z</time>
      </trkpt>
      <trkpt lat="44.60399" lon="5.86627">
        <ele>1222.4</ele>
        <time>2023-05-19T08:37:05Z</time>
      </trkpt>
      <trkpt lat="44.60397" lon="5.86627">
        <ele>1222.6</ele>
        <time>2023-05-19T08:37:06Z</time>
      </trkpt>
      <trkpt lat="44.60394" lon="5.86623">
        <ele>1223.4</ele>
        <time>2023-05-19T08:37:09Z</time>
      </trkpt>
      <trkpt lat="44.60394" lon="5.86623">
        <ele>1223.4</ele>
        <time>2023-05-19T08:37:10Z</time>
      </trkpt>
      <trkpt lat="44.60394" lon="5.86623">
        <ele>1223.6</ele>
        <time>2023-05-19T08:37:11Z</time>
      </trkpt>
      <trkpt lat="44.60394" lon="5.86623">
        <ele>1223.6</ele>
        <time>2023-05-19T08:37:12Z</time>
      </trkpt>
      <trkpt lat="44.60393" lon="5.86622">
        <ele>1223.6</ele>
        <time>2023-05-19T08:37:13Z</time>
      </trkpt>
      <trkpt lat="44.60392" lon="5.86622">
        <ele>1223.6</ele>
        <time>2023-05-19T08:37:14Z</time>
      </trkpt>
      <trkpt lat="44.60391" lon="5.86621">
        <ele>1223.6</ele>
        <time>2023-05-19T08:37:15Z</time>
      </trkpt>
      <trkpt lat="44.60391" lon="5.86621">
        <ele>1223.4</ele>
        <time>2023-05-19T08:37:17Z</time>
      </trkpt>
      <trkpt lat="44.60391" lon="5.86621">
        <ele>1223.2</ele>
        <time>2023-05-19T08:37:18Z</time>
      </trkpt>
      <trkpt lat="44.6039" lon="5.8662">
        <ele>1223.2</ele>
        <time>2023-05-19T08:37:19Z</time>
      </trkpt>
      <trkpt lat="44.60388" lon="5.8662">
        <ele>1222.8</ele>
        <time>2023-05-19T08:37:20Z</time>
      </trkpt>
      <trkpt lat="44.60387" lon="5.8662">
        <ele>1222.6</ele>
        <time>2023-05-19T08:37:21Z</time>
      </trkpt>
      <trkpt lat="44.60387" lon="5.8662">
        <ele>1222.4</ele>
        <time>2023-05-19T08:37:22Z</time>
      </trkpt>
      <trkpt lat="44.60386" lon="5.86619">
        <ele>1222.2</ele>
        <time>2023-05-19T08:37:23Z</time>
      </trkpt>
      <trkpt lat="44.60384" lon="5.86617">
        <ele>1221.6</ele>
        <time>2023-05-19T08:37:26Z</time>
      </trkpt>
      <trkpt lat="44.60378" lon="5.86612">
        <ele>1221.2</ele>
        <time>2023-05-19T08:37:30Z</time>
      </trkpt>
      <trkpt lat="44.60376" lon="5.8661">
        <ele>1221</ele>
        <time>2023-05-19T08:37:31Z</time>
      </trkpt>
      <trkpt lat="44.60374" lon="5.86609">
        <ele>1220.8</ele>
        <time>2023-05-19T08:37:32Z</time>
      </trkpt>
      <trkpt lat="44.60372" lon="5.86609">
        <ele>1220.6</ele>
        <time>2023-05-19T08:37:33Z</time>
      </trkpt>
      <trkpt lat="44.60366" lon="5.86606">
        <ele>1220</ele>
        <time>2023-05-19T08:37:36Z</time>
      </trkpt>
      <trkpt lat="44.60361" lon="5.86604">
        <ele>1219.6</ele>
        <time>2023-05-19T08:37:38Z</time>
      </trkpt>
      <trkpt lat="44.60353" lon="5.86601">
        <ele>1219</ele>
        <time>2023-05-19T08:37:41Z</time>
      </trkpt>
      <trkpt lat="44.60348" lon="5.86601">
        <ele>1218.2</ele>
        <time>2023-05-19T08:37:43Z</time>
      </trkpt>
      <trkpt lat="44.60344" lon="5.86599">
        <ele>1217.8</ele>
        <time>2023-05-19T08:37:45Z</time>
      </trkpt>
      <trkpt lat="44.60342" lon="5.86598">
        <ele>1217.6</ele>
        <time>2023-05-19T08:37:46Z</time>
      </trkpt>
      <trkpt lat="44.60334" lon="5.86598">
        <ele>1217</ele>
        <time>2023-05-19T08:37:49Z</time>
      </trkpt>
      <trkpt lat="44.60332" lon="5.86599">
        <ele>1216.4</ele>
        <time>2023-05-19T08:37:50Z</time>
      </trkpt>
      <trkpt lat="44.60326" lon="5.86599">
        <ele>1215.6</ele>
        <time>2023-05-19T08:37:53Z</time>
      </trkpt>
      <trkpt lat="44.60325" lon="5.86599">
        <ele>1215.2</ele>
        <time>2023-05-19T08:37:54Z</time>
      </trkpt>
      <trkpt lat="44.60323" lon="5.866">
        <ele>1215.2</ele>
        <time>2023-05-19T08:37:55Z</time>
      </trkpt>
      <trkpt lat="44.60321" lon="5.86601">
        <ele>1215</ele>
        <time>2023-05-19T08:37:56Z</time>
      </trkpt>
      <trkpt lat="44.60319" lon="5.86601">
        <ele>1215</ele>
        <time>2023-05-19T08:37:57Z</time>
      </trkpt>
      <trkpt lat="44.60317" lon="5.86602">
        <ele>1214.8</ele>
        <time>2023-05-19T08:37:58Z</time>
      </trkpt>
      <trkpt lat="44.60316" lon="5.86603">
        <ele>1214.8</ele>
        <time>2023-05-19T08:37:59Z</time>
      </trkpt>
      <trkpt lat="44.60314" lon="5.86604">
        <ele>1214.8</ele>
        <time>2023-05-19T08:38:00Z</time>
      </trkpt>
      <trkpt lat="44.60313" lon="5.86605">
        <ele>1214.8</ele>
        <time>2023-05-19T08:38:01Z</time>
      </trkpt>
      <trkpt lat="44.60311" lon="5.86606">
        <ele>1215</ele>
        <time>2023-05-19T08:38:02Z</time>
      </trkpt>
      <trkpt lat="44.60306" lon="5.86608">
        <ele>1215</ele>
        <time>2023-05-19T08:38:05Z</time>
      </trkpt>
      <trkpt lat="44.60304" lon="5.86609">
        <ele>1215.4</ele>
        <time>2023-05-19T08:38:07Z</time>
      </trkpt>
      <trkpt lat="44.60303" lon="5.86609">
        <ele>1215.4</ele>
        <time>2023-05-19T08:38:08Z</time>
      </trkpt>
      <trkpt lat="44.60302" lon="5.8661">
        <ele>1215.6</ele>
        <time>2023-05-19T08:38:09Z</time>
      </trkpt>
      <trkpt lat="44.603" lon="5.86611">
        <ele>1216</ele>
        <time>2023-05-19T08:38:11Z</time>
      </trkpt>
      <trkpt lat="44.60295" lon="5.86612">
        <ele>1216.4</ele>
        <time>2023-05-19T08:38:14Z</time>
      </trkpt>
      <trkpt lat="44.60291" lon="5.86614">
        <ele>1216.8</ele>
        <time>2023-05-19T08:38:16Z</time>
      </trkpt>
      <trkpt lat="44.60291" lon="5.86614">
        <ele>1217</ele>
        <time>2023-05-19T08:38:17Z</time>
      </trkpt>
      <trkpt lat="44.60291" lon="5.86614">
        <ele>1217</ele>
        <time>2023-05-19T08:38:18Z</time>
      </trkpt>
      <trkpt lat="44.60291" lon="5.86614">
        <ele>1217.2</ele>
        <time>2023-05-19T08:38:19Z</time>
      </trkpt>
      <trkpt lat="44.60291" lon="5.86614">
        <ele>1217.4</ele>
        <time>2023-05-19T08:38:24Z</time>
      </trkpt>
      <trkpt lat="44.60291" lon="5.86615">
        <ele>1217.2</ele>
        <time>2023-05-19T08:38:41Z</time>
      </trkpt>
      <trkpt lat="44.6029" lon="5.86616">
        <ele>1217.2</ele>
        <time>2023-05-19T08:38:42Z</time>
      </trkpt>
      <trkpt lat="44.60285" lon="5.8662">
        <ele>1217.4</ele>
        <time>2023-05-19T08:38:46Z</time>
      </trkpt>
      <trkpt lat="44.60281" lon="5.86622">
        <ele>1217.6</ele>
        <time>2023-05-19T08:38:48Z</time>
      </trkpt>
      <trkpt lat="44.6028" lon="5.86623">
        <ele>1217.6</ele>
        <time>2023-05-19T08:38:49Z</time>
      </trkpt>
      <trkpt lat="44.60273" lon="5.86623">
        <ele>1217.6</ele>
        <time>2023-05-19T08:38:52Z</time>
      </trkpt>
      <trkpt lat="44.60264" lon="5.86626">
        <ele>1218</ele>
        <time>2023-05-19T08:38:57Z</time>
      </trkpt>
      <trkpt lat="44.60262" lon="5.86626">
        <ele>1218.2</ele>
        <time>2023-05-19T08:38:58Z</time>
      </trkpt>
      <trkpt lat="44.60258" lon="5.86627">
        <ele>1218.4</ele>
        <time>2023-05-19T08:39:00Z</time>
      </trkpt>
      <trkpt lat="44.60256" lon="5.86628">
        <ele>1218.4</ele>
        <time>2023-05-19T08:39:01Z</time>
      </trkpt>
      <trkpt lat="44.60254" lon="5.86629">
        <ele>1218.6</ele>
        <time>2023-05-19T08:39:02Z</time>
      </trkpt>
      <trkpt lat="44.60252" lon="5.86629">
        <ele>1218.6</ele>
        <time>2023-05-19T08:39:03Z</time>
      </trkpt>
      <trkpt lat="44.6025" lon="5.8663">
        <ele>1218.6</ele>
        <time>2023-05-19T08:39:04Z</time>
      </trkpt>
      <trkpt lat="44.60245" lon="5.8663">
        <ele>1218.6</ele>
        <time>2023-05-19T08:39:06Z</time>
      </trkpt>
      <trkpt lat="44.60235" lon="5.86634">
        <ele>1218.8</ele>
        <time>2023-05-19T08:39:10Z</time>
      </trkpt>
      <trkpt lat="44.60233" lon="5.86634">
        <ele>1219</ele>
        <time>2023-05-19T08:39:11Z</time>
      </trkpt>
      <trkpt lat="44.60228" lon="5.86636">
        <ele>1219</ele>
        <time>2023-05-19T08:39:13Z</time>
      </trkpt>
      <trkpt lat="44.60208" lon="5.86642">
        <ele>1219.4</ele>
        <time>2023-05-19T08:39:21Z</time>
      </trkpt>
      <trkpt lat="44.60191" lon="5.86648">
        <ele>1219.2</ele>
        <time>2023-05-19T08:39:26Z</time>
      </trkpt>
      <trkpt lat="44.60189" lon="5.86652">
        <ele>1219.2</ele>
        <time>2023-05-19T08:39:27Z</time>
      </trkpt>
      <trkpt lat="44.60187" lon="5.86654">
        <ele>1219.2</ele>
        <time>2023-05-19T08:39:28Z</time>
      </trkpt>
      <trkpt lat="44.60186" lon="5.86656">
        <ele>1219</ele>
        <time>2023-05-19T08:39:29Z</time>
      </trkpt>
      <trkpt lat="44.60185" lon="5.86658">
        <ele>1218.8</ele>
        <time>2023-05-19T08:39:30Z</time>
      </trkpt>
      <trkpt lat="44.60183" lon="5.86661">
        <ele>1218.8</ele>
        <time>2023-05-19T08:39:31Z</time>
      </trkpt>
      <trkpt lat="44.60181" lon="5.86663">
        <ele>1218.6</ele>
        <time>2023-05-19T08:39:32Z</time>
      </trkpt>
      <trkpt lat="44.60179" lon="5.86666">
        <ele>1218.6</ele>
        <time>2023-05-19T08:39:33Z</time>
      </trkpt>
      <trkpt lat="44.60178" lon="5.86668">
        <ele>1218.4</ele>
        <time>2023-05-19T08:39:34Z</time>
      </trkpt>
      <trkpt lat="44.60177" lon="5.8667">
        <ele>1218.2</ele>
        <time>2023-05-19T08:39:35Z</time>
      </trkpt>
      <trkpt lat="44.60175" lon="5.86671">
        <ele>1218</ele>
        <time>2023-05-19T08:39:36Z</time>
      </trkpt>
      <trkpt lat="44.60174" lon="5.86671">
        <ele>1218</ele>
        <time>2023-05-19T08:39:37Z</time>
      </trkpt>
      <trkpt lat="44.60171" lon="5.86673">
        <ele>1217.8</ele>
        <time>2023-05-19T08:39:38Z</time>
      </trkpt>
      <trkpt lat="44.6017" lon="5.86675">
        <ele>1217.8</ele>
        <time>2023-05-19T08:39:39Z</time>
      </trkpt>
      <trkpt lat="44.60168" lon="5.86677">
        <ele>1217.8</ele>
        <time>2023-05-19T08:39:40Z</time>
      </trkpt>
      <trkpt lat="44.60166" lon="5.86682">
        <ele>1217.8</ele>
        <time>2023-05-19T08:39:42Z</time>
      </trkpt>
      <trkpt lat="44.60165" lon="5.86684">
        <ele>1217.8</ele>
        <time>2023-05-19T08:39:43Z</time>
      </trkpt>
      <trkpt lat="44.60164" lon="5.86687">
        <ele>1217.8</ele>
        <time>2023-05-19T08:39:44Z</time>
      </trkpt>
      <trkpt lat="44.60164" lon="5.8669">
        <ele>1217.8</ele>
        <time>2023-05-19T08:39:45Z</time>
      </trkpt>
      <trkpt lat="44.60163" lon="5.86692">
        <ele>1217.8</ele>
        <time>2023-05-19T08:39:46Z</time>
      </trkpt>
      <trkpt lat="44.6016" lon="5.86699">
        <ele>1218.2</ele>
        <time>2023-05-19T08:39:49Z</time>
      </trkpt>
      <trkpt lat="44.6016" lon="5.867">
        <ele>1218.2</ele>
        <time>2023-05-19T08:39:50Z</time>
      </trkpt>
      <trkpt lat="44.60159" lon="5.86701">
        <ele>1218.4</ele>
        <time>2023-05-19T08:39:51Z</time>
      </trkpt>
      <trkpt lat="44.60159" lon="5.86702">
        <ele>1218.6</ele>
        <time>2023-05-19T08:39:52Z</time>
      </trkpt>
      <trkpt lat="44.60159" lon="5.86702">
        <ele>1218.6</ele>
        <time>2023-05-19T08:39:53Z</time>
      </trkpt>
      <trkpt lat="44.60159" lon="5.86702">
        <ele>1218.8</ele>
        <time>2023-05-19T08:39:54Z</time>
      </trkpt>
      <trkpt lat="44.60158" lon="5.86703">
        <ele>1219</ele>
        <time>2023-05-19T08:39:58Z</time>
      </trkpt>
      <trkpt lat="44.60158" lon="5.86703">
        <ele>1219.2</ele>
        <time>2023-05-19T08:39:59Z</time>
      </trkpt>
      <trkpt lat="44.60158" lon="5.86703">
        <ele>1219.2</ele>
        <time>2023-05-19T08:40:00Z</time>
      </trkpt>
      <trkpt lat="44.60156" lon="5.86705">
        <ele>1219.2</ele>
        <time>2023-05-19T08:40:03Z</time>
      </trkpt>
      <trkpt lat="44.60155" lon="5.86707">
        <ele>1219.4</ele>
        <time>2023-05-19T08:40:05Z</time>
      </trkpt>
      <trkpt lat="44.60154" lon="5.86708">
        <ele>1219.6</ele>
        <time>2023-05-19T08:40:06Z</time>
      </trkpt>
      <trkpt lat="44.60154" lon="5.86708">
        <ele>1219.4</ele>
        <time>2023-05-19T08:40:07Z</time>
      </trkpt>
      <trkpt lat="44.60154" lon="5.86708">
        <ele>1219.4</ele>
        <time>2023-05-19T08:40:08Z</time>
      </trkpt>
      <trkpt lat="44.60154" lon="5.86708">
        <ele>1219.4</ele>
        <time>2023-05-19T08:40:09Z</time>
      </trkpt>
      <trkpt lat="44.60154" lon="5.86708">
        <ele>1219.6</ele>
        <time>2023-05-19T08:40:11Z</time>
      </trkpt>
      <trkpt lat="44.60153" lon="5.86709">
        <ele>1219.6</ele>
        <time>2023-05-19T08:40:21Z</time>
      </trkpt>
      <trkpt lat="44.60149" lon="5.86709">
        <ele>1220.2</ele>
        <time>2023-05-19T08:40:31Z</time>
      </trkpt>
      <trkpt lat="44.60149" lon="5.86709">
        <ele>1220.2</ele>
        <time>2023-05-19T08:40:32Z</time>
      </trkpt>
      <trkpt lat="44.60148" lon="5.86709">
        <ele>1220.4</ele>
        <time>2023-05-19T08:40:33Z</time>
      </trkpt>
      <trkpt lat="44.60148" lon="5.86708">
        <ele>1220.6</ele>
        <time>2023-05-19T08:40:34Z</time>
      </trkpt>
      <trkpt lat="44.60148" lon="5.86708">
        <ele>1220.8</ele>
        <time>2023-05-19T08:40:35Z</time>
      </trkpt>
      <trkpt lat="44.60147" lon="5.86708">
        <ele>1220.8</ele>
        <time>2023-05-19T08:40:36Z</time>
      </trkpt>
      <trkpt lat="44.60147" lon="5.86707">
        <ele>1220.8</ele>
        <time>2023-05-19T08:40:37Z</time>
      </trkpt>
      <trkpt lat="44.60147" lon="5.86702">
        <ele>1221.6</ele>
        <time>2023-05-19T08:40:42Z</time>
      </trkpt>
      <trkpt lat="44.60147" lon="5.86702">
        <ele>1221.8</ele>
        <time>2023-05-19T08:40:43Z</time>
      </trkpt>
      <trkpt lat="44.60147" lon="5.86701">
        <ele>1221.6</ele>
        <time>2023-05-19T08:40:44Z</time>
      </trkpt>
      <trkpt lat="44.60147" lon="5.867">
        <ele>1221.8</ele>
        <time>2023-05-19T08:40:45Z</time>
      </trkpt>
      <trkpt lat="44.60147" lon="5.86699">
        <ele>1222</ele>
        <time>2023-05-19T08:40:47Z</time>
      </trkpt>
      <trkpt lat="44.60146" lon="5.86698">
        <ele>1222.2</ele>
        <time>2023-05-19T08:40:49Z</time>
      </trkpt>
      <trkpt lat="44.60146" lon="5.86698">
        <ele>1222.2</ele>
        <time>2023-05-19T08:40:51Z</time>
      </trkpt>
      <trkpt lat="44.60146" lon="5.86698">
        <ele>1222.4</ele>
        <time>2023-05-19T08:40:52Z</time>
      </trkpt>
      <trkpt lat="44.60146" lon="5.86698">
        <ele>1222.6</ele>
        <time>2023-05-19T08:40:54Z</time>
      </trkpt>
      <trkpt lat="44.60146" lon="5.86698">
        <ele>1222.8</ele>
        <time>2023-05-19T08:40:57Z</time>
      </trkpt>
      <trkpt lat="44.60145" lon="5.86696">
        <ele>1222.8</ele>
        <time>2023-05-19T08:40:58Z</time>
      </trkpt>
      <trkpt lat="44.60145" lon="5.86695">
        <ele>1222.8</ele>
        <time>2023-05-19T08:40:59Z</time>
      </trkpt>
      <trkpt lat="44.60144" lon="5.86693">
        <ele>1222.8</ele>
        <time>2023-05-19T08:41:00Z</time>
      </trkpt>
      <trkpt lat="44.60143" lon="5.86689">
        <ele>1223</ele>
        <time>2023-05-19T08:41:02Z</time>
      </trkpt>
      <trkpt lat="44.60142" lon="5.86687">
        <ele>1223.2</ele>
        <time>2023-05-19T08:41:03Z</time>
      </trkpt>
      <trkpt lat="44.60142" lon="5.86685">
        <ele>1223.2</ele>
        <time>2023-05-19T08:41:04Z</time>
      </trkpt>
      <trkpt lat="44.6014" lon="5.86681">
        <ele>1223.4</ele>
        <time>2023-05-19T08:41:08Z</time>
      </trkpt>
      <trkpt lat="44.6014" lon="5.86681">
        <ele>1223.6</ele>
        <time>2023-05-19T08:41:10Z</time>
      </trkpt>
      <trkpt lat="44.6014" lon="5.86681">
        <ele>1224.2</ele>
        <time>2023-05-19T08:41:17Z</time>
      </trkpt>
      <trkpt lat="44.6014" lon="5.86681">
        <ele>1224.6</ele>
        <time>2023-05-19T08:41:25Z</time>
      </trkpt>
      <trkpt lat="44.6014" lon="5.8668">
        <ele>1224.6</ele>
        <time>2023-05-19T08:41:27Z</time>
      </trkpt>
      <trkpt lat="44.60139" lon="5.86677">
        <ele>1224.8</ele>
        <time>2023-05-19T08:41:34Z</time>
      </trkpt>
      <trkpt lat="44.60138" lon="5.86672">
        <ele>1224.8</ele>
        <time>2023-05-19T08:41:36Z</time>
      </trkpt>
      <trkpt lat="44.60137" lon="5.86668">
        <ele>1225</ele>
        <time>2023-05-19T08:41:39Z</time>
      </trkpt>
      <trkpt lat="44.60138" lon="5.86666">
        <ele>1225</ele>
        <time>2023-05-19T08:41:40Z</time>
      </trkpt>
      <trkpt lat="44.60139" lon="5.86665">
        <ele>1225</ele>
        <time>2023-05-19T08:41:41Z</time>
      </trkpt>
      <trkpt lat="44.60139" lon="5.86664">
        <ele>1225.2</ele>
        <time>2023-05-19T08:41:42Z</time>
      </trkpt>
      <trkpt lat="44.6014" lon="5.86662">
        <ele>1225.4</ele>
        <time>2023-05-19T08:41:43Z</time>
      </trkpt>
      <trkpt lat="44.60141" lon="5.86661">
        <ele>1225.4</ele>
        <time>2023-05-19T08:41:44Z</time>
      </trkpt>
      <trkpt lat="44.60142" lon="5.8666">
        <ele>1225.6</ele>
        <time>2023-05-19T08:41:45Z</time>
      </trkpt>
      <trkpt lat="44.60142" lon="5.86659">
        <ele>1225.6</ele>
        <time>2023-05-19T08:41:46Z</time>
      </trkpt>
      <trkpt lat="44.60142" lon="5.86659">
        <ele>1225.8</ele>
        <time>2023-05-19T08:41:47Z</time>
      </trkpt>
      <trkpt lat="44.60142" lon="5.86658">
        <ele>1226.2</ele>
        <time>2023-05-19T08:41:48Z</time>
      </trkpt>
      <trkpt lat="44.60143" lon="5.86656">
        <ele>1226.4</ele>
        <time>2023-05-19T08:41:49Z</time>
      </trkpt>
      <trkpt lat="44.60144" lon="5.86654">
        <ele>1226.6</ele>
        <time>2023-05-19T08:41:50Z</time>
      </trkpt>
      <trkpt lat="44.60145" lon="5.86652">
        <ele>1226.8</ele>
        <time>2023-05-19T08:41:51Z</time>
      </trkpt>
      <trkpt lat="44.60145" lon="5.86651">
        <ele>1226.8</ele>
        <time>2023-05-19T08:41:52Z</time>
      </trkpt>
      <trkpt lat="44.60145" lon="5.86651">
        <ele>1227</ele>
        <time>2023-05-19T08:41:53Z</time>
      </trkpt>
      <trkpt lat="44.60145" lon="5.86651">
        <ele>1227</ele>
        <time>2023-05-19T08:41:54Z</time>
      </trkpt>
      <trkpt lat="44.60145" lon="5.86651">
        <ele>1227.6</ele>
        <time>2023-05-19T08:41:56Z</time>
      </trkpt>
      <trkpt lat="44.60145" lon="5.86649">
        <ele>1228</ele>
        <time>2023-05-19T08:41:57Z</time>
      </trkpt>
      <trkpt lat="44.60145" lon="5.86648">
        <ele>1228.4</ele>
        <time>2023-05-19T08:41:58Z</time>
      </trkpt>
      <trkpt lat="44.60144" lon="5.86648">
        <ele>1228.4</ele>
        <time>2023-05-19T08:41:59Z</time>
      </trkpt>
      <trkpt lat="44.60144" lon="5.86647">
        <ele>1228.6</ele>
        <time>2023-05-19T08:42:00Z</time>
      </trkpt>
      <trkpt lat="44.60144" lon="5.86644">
        <ele>1228.8</ele>
        <time>2023-05-19T08:42:01Z</time>
      </trkpt>
      <trkpt lat="44.60145" lon="5.86642">
        <ele>1229</ele>
        <time>2023-05-19T08:42:02Z</time>
      </trkpt>
      <trkpt lat="44.60146" lon="5.86639">
        <ele>1229.2</ele>
        <time>2023-05-19T08:42:03Z</time>
      </trkpt>
      <trkpt lat="44.60146" lon="5.86639">
        <ele>1229.2</ele>
        <time>2023-05-19T08:42:04Z</time>
      </trkpt>
      <trkpt lat="44.60146" lon="5.86638">
        <ele>1229.4</ele>
        <time>2023-05-19T08:42:05Z</time>
      </trkpt>
      <trkpt lat="44.60145" lon="5.86637">
        <ele>1229.6</ele>
        <time>2023-05-19T08:42:06Z</time>
      </trkpt>
      <trkpt lat="44.60144" lon="5.86635">
        <ele>1229.8</ele>
        <time>2023-05-19T08:42:07Z</time>
      </trkpt>
      <trkpt lat="44.60143" lon="5.86633">
        <ele>1230</ele>
        <time>2023-05-19T08:42:08Z</time>
      </trkpt>
      <trkpt lat="44.60143" lon="5.86631">
        <ele>1230.2</ele>
        <time>2023-05-19T08:42:09Z</time>
      </trkpt>
      <trkpt lat="44.60143" lon="5.86629">
        <ele>1230.4</ele>
        <time>2023-05-19T08:42:10Z</time>
      </trkpt>
      <trkpt lat="44.60144" lon="5.86627">
        <ele>1230.4</ele>
        <time>2023-05-19T08:42:11Z</time>
      </trkpt>
      <trkpt lat="44.60143" lon="5.86625">
        <ele>1230.6</ele>
        <time>2023-05-19T08:42:12Z</time>
      </trkpt>
      <trkpt lat="44.60142" lon="5.86623">
        <ele>1230.6</ele>
        <time>2023-05-19T08:42:13Z</time>
      </trkpt>
      <trkpt lat="44.60142" lon="5.86622">
        <ele>1230.8</ele>
        <time>2023-05-19T08:42:14Z</time>
      </trkpt>
      <trkpt lat="44.60142" lon="5.86621">
        <ele>1230.8</ele>
        <time>2023-05-19T08:42:15Z</time>
      </trkpt>
      <trkpt lat="44.60142" lon="5.8662">
        <ele>1230.8</ele>
        <time>2023-05-19T08:42:16Z</time>
      </trkpt>
      <trkpt lat="44.60142" lon="5.8662">
        <ele>1231</ele>
        <time>2023-05-19T08:42:17Z</time>
      </trkpt>
      <trkpt lat="44.60142" lon="5.8662">
        <ele>1231.2</ele>
        <time>2023-05-19T08:42:18Z</time>
      </trkpt>
      <trkpt lat="44.60142" lon="5.8662">
        <ele>1231.2</ele>
        <time>2023-05-19T08:42:19Z</time>
      </trkpt>
      <trkpt lat="44.60141" lon="5.86619">
        <ele>1231.4</ele>
        <time>2023-05-19T08:42:20Z</time>
      </trkpt>
      <trkpt lat="44.6014" lon="5.86618">
        <ele>1231.4</ele>
        <time>2023-05-19T08:42:21Z</time>
      </trkpt>
      <trkpt lat="44.60139" lon="5.86617">
        <ele>1231.6</ele>
        <time>2023-05-19T08:42:22Z</time>
      </trkpt>
      <trkpt lat="44.60139" lon="5.86616">
        <ele>1231.8</ele>
        <time>2023-05-19T08:42:23Z</time>
      </trkpt>
      <trkpt lat="44.60139" lon="5.86616">
        <ele>1231.8</ele>
        <time>2023-05-19T08:42:24Z</time>
      </trkpt>
      <trkpt lat="44.60139" lon="5.86616">
        <ele>1232</ele>
        <time>2023-05-19T08:42:25Z</time>
      </trkpt>
      <trkpt lat="44.60139" lon="5.86616">
        <ele>1232.2</ele>
        <time>2023-05-19T08:42:26Z</time>
      </trkpt>
      <trkpt lat="44.60139" lon="5.86616">
        <ele>1232.4</ele>
        <time>2023-05-19T08:42:27Z</time>
      </trkpt>
      <trkpt lat="44.60139" lon="5.86616">
        <ele>1232.4</ele>
        <time>2023-05-19T08:42:28Z</time>
      </trkpt>
      <trkpt lat="44.60139" lon="5.86616">
        <ele>1232.6</ele>
        <time>2023-05-19T08:42:30Z</time>
      </trkpt>
      <trkpt lat="44.60138" lon="5.86613">
        <ele>1233</ele>
        <time>2023-05-19T08:42:35Z</time>
      </trkpt>
      <trkpt lat="44.60137" lon="5.86613">
        <ele>1233.2</ele>
        <time>2023-05-19T08:42:36Z</time>
      </trkpt>
      <trkpt lat="44.60137" lon="5.86612">
        <ele>1233.2</ele>
        <time>2023-05-19T08:42:38Z</time>
      </trkpt>
      <trkpt lat="44.60136" lon="5.86611">
        <ele>1233.2</ele>
        <time>2023-05-19T08:42:39Z</time>
      </trkpt>
      <trkpt lat="44.60136" lon="5.8661">
        <ele>1233.4</ele>
        <time>2023-05-19T08:42:40Z</time>
      </trkpt>
      <trkpt lat="44.60135" lon="5.86608">
        <ele>1233.4</ele>
        <time>2023-05-19T08:42:41Z</time>
      </trkpt>
      <trkpt lat="44.60135" lon="5.86608">
        <ele>1233.4</ele>
        <time>2023-05-19T08:42:42Z</time>
      </trkpt>
      <trkpt lat="44.60135" lon="5.86607">
        <ele>1233.4</ele>
        <time>2023-05-19T08:42:43Z</time>
      </trkpt>
      <trkpt lat="44.60135" lon="5.86606">
        <ele>1233.4</ele>
        <time>2023-05-19T08:42:44Z</time>
      </trkpt>
      <trkpt lat="44.60134" lon="5.86606">
        <ele>1233.6</ele>
        <time>2023-05-19T08:42:45Z</time>
      </trkpt>
      <trkpt lat="44.60134" lon="5.86605">
        <ele>1233.6</ele>
        <time>2023-05-19T08:42:46Z</time>
      </trkpt>
      <trkpt lat="44.60133" lon="5.86603">
        <ele>1234</ele>
        <time>2023-05-19T08:42:49Z</time>
      </trkpt>
      <trkpt lat="44.60133" lon="5.86602">
        <ele>1234.4</ele>
        <time>2023-05-19T08:42:51Z</time>
      </trkpt>
      <trkpt lat="44.60132" lon="5.86599">
        <ele>1234.8</ele>
        <time>2023-05-19T08:42:57Z</time>
      </trkpt>
      <trkpt lat="44.60132" lon="5.86598">
        <ele>1235.2</ele>
        <time>2023-05-19T08:43:01Z</time>
      </trkpt>
      <trkpt lat="44.60129" lon="5.86591">
        <ele>1236</ele>
        <time>2023-05-19T08:43:06Z</time>
      </trkpt>
      <trkpt lat="44.60128" lon="5.8659">
        <ele>1236.2</ele>
        <time>2023-05-19T08:43:07Z</time>
      </trkpt>
      <trkpt lat="44.60127" lon="5.86589">
        <ele>1236.2</ele>
        <time>2023-05-19T08:43:08Z</time>
      </trkpt>
      <trkpt lat="44.60126" lon="5.86587">
        <ele>1236.2</ele>
        <time>2023-05-19T08:43:09Z</time>
      </trkpt>
      <trkpt lat="44.60126" lon="5.86586">
        <ele>1236.4</ele>
        <time>2023-05-19T08:43:10Z</time>
      </trkpt>
      <trkpt lat="44.60125" lon="5.86585">
        <ele>1236.4</ele>
        <time>2023-05-19T08:43:11Z</time>
      </trkpt>
      <trkpt lat="44.60125" lon="5.86585">
        <ele>1236.4</ele>
        <time>2023-05-19T08:43:12Z</time>
      </trkpt>
      <trkpt lat="44.60125" lon="5.86584">
        <ele>1236.4</ele>
        <time>2023-05-19T08:43:13Z</time>
      </trkpt>
      <trkpt lat="44.60125" lon="5.86584">
        <ele>1236.6</ele>
        <time>2023-05-19T08:43:14Z</time>
      </trkpt>
      <trkpt lat="44.60124" lon="5.86583">
        <ele>1236.8</ele>
        <time>2023-05-19T08:43:16Z</time>
      </trkpt>
      <trkpt lat="44.60123" lon="5.86581">
        <ele>1236.8</ele>
        <time>2023-05-19T08:43:17Z</time>
      </trkpt>
      <trkpt lat="44.60122" lon="5.8658">
        <ele>1237</ele>
        <time>2023-05-19T08:43:18Z</time>
      </trkpt>
      <trkpt lat="44.60121" lon="5.86579">
        <ele>1237</ele>
        <time>2023-05-19T08:43:19Z</time>
      </trkpt>
      <trkpt lat="44.6012" lon="5.86577">
        <ele>1237.2</ele>
        <time>2023-05-19T08:43:21Z</time>
      </trkpt>
      <trkpt lat="44.6012" lon="5.86577">
        <ele>1237.4</ele>
        <time>2023-05-19T08:43:22Z</time>
      </trkpt>
      <trkpt lat="44.6012" lon="5.86577">
        <ele>1237.4</ele>
        <time>2023-05-19T08:43:23Z</time>
      </trkpt>
      <trkpt lat="44.6012" lon="5.86576">
        <ele>1237.6</ele>
        <time>2023-05-19T08:43:24Z</time>
      </trkpt>
      <trkpt lat="44.60119" lon="5.86574">
        <ele>1237.6</ele>
        <time>2023-05-19T08:43:25Z</time>
      </trkpt>
      <trkpt lat="44.60118" lon="5.86573">
        <ele>1237.8</ele>
        <time>2023-05-19T08:43:26Z</time>
      </trkpt>
      <trkpt lat="44.60117" lon="5.86571">
        <ele>1238.2</ele>
        <time>2023-05-19T08:43:29Z</time>
      </trkpt>
      <trkpt lat="44.60117" lon="5.86571">
        <ele>1238.2</ele>
        <time>2023-05-19T08:43:30Z</time>
      </trkpt>
      <trkpt lat="44.60117" lon="5.86571">
        <ele>1238.4</ele>
        <time>2023-05-19T08:43:31Z</time>
      </trkpt>
      <trkpt lat="44.60117" lon="5.8657">
        <ele>1238.4</ele>
        <time>2023-05-19T08:43:32Z</time>
      </trkpt>
      <trkpt lat="44.60117" lon="5.8657">
        <ele>1238.6</ele>
        <time>2023-05-19T08:43:33Z</time>
      </trkpt>
      <trkpt lat="44.60116" lon="5.86569">
        <ele>1238.6</ele>
        <time>2023-05-19T08:43:34Z</time>
      </trkpt>
      <trkpt lat="44.60116" lon="5.86567">
        <ele>1238.8</ele>
        <time>2023-05-19T08:43:35Z</time>
      </trkpt>
      <trkpt lat="44.60115" lon="5.86566">
        <ele>1239</ele>
        <time>2023-05-19T08:43:36Z</time>
      </trkpt>
      <trkpt lat="44.60115" lon="5.86565">
        <ele>1239</ele>
        <time>2023-05-19T08:43:37Z</time>
      </trkpt>
      <trkpt lat="44.60114" lon="5.86565">
        <ele>1239.4</ele>
        <time>2023-05-19T08:43:38Z</time>
      </trkpt>
      <trkpt lat="44.60114" lon="5.86564">
        <ele>1239.4</ele>
        <time>2023-05-19T08:43:39Z</time>
      </trkpt>
      <trkpt lat="44.60114" lon="5.86563">
        <ele>1239.8</ele>
        <time>2023-05-19T08:43:40Z</time>
      </trkpt>
      <trkpt lat="44.60113" lon="5.86562">
        <ele>1239.8</ele>
        <time>2023-05-19T08:43:41Z</time>
      </trkpt>
      <trkpt lat="44.60113" lon="5.8656">
        <ele>1240.2</ele>
        <time>2023-05-19T08:43:42Z</time>
      </trkpt>
      <trkpt lat="44.60113" lon="5.8656">
        <ele>1240.2</ele>
        <time>2023-05-19T08:43:43Z</time>
      </trkpt>
      <trkpt lat="44.60113" lon="5.8656">
        <ele>1240.2</ele>
        <time>2023-05-19T08:43:44Z</time>
      </trkpt>
      <trkpt lat="44.60113" lon="5.8656">
        <ele>1240.4</ele>
        <time>2023-05-19T08:43:45Z</time>
      </trkpt>
      <trkpt lat="44.60113" lon="5.8656">
        <ele>1240.4</ele>
        <time>2023-05-19T08:43:46Z</time>
      </trkpt>
      <trkpt lat="44.60112" lon="5.86559">
        <ele>1240.6</ele>
        <time>2023-05-19T08:43:47Z</time>
      </trkpt>
      <trkpt lat="44.60112" lon="5.86558">
        <ele>1240.6</ele>
        <time>2023-05-19T08:43:48Z</time>
      </trkpt>
      <trkpt lat="44.60111" lon="5.86556">
        <ele>1240.8</ele>
        <time>2023-05-19T08:43:49Z</time>
      </trkpt>
      <trkpt lat="44.6011" lon="5.86555">
        <ele>1240.8</ele>
        <time>2023-05-19T08:43:50Z</time>
      </trkpt>
      <trkpt lat="44.6011" lon="5.86554">
        <ele>1240.8</ele>
        <time>2023-05-19T08:43:51Z</time>
      </trkpt>
      <trkpt lat="44.6011" lon="5.86552">
        <ele>1241</ele>
        <time>2023-05-19T08:43:52Z</time>
      </trkpt>
      <trkpt lat="44.60109" lon="5.86551">
        <ele>1241</ele>
        <time>2023-05-19T08:43:53Z</time>
      </trkpt>
      <trkpt lat="44.60109" lon="5.8655">
        <ele>1241.2</ele>
        <time>2023-05-19T08:43:54Z</time>
      </trkpt>
      <trkpt lat="44.60108" lon="5.86548">
        <ele>1241.2</ele>
        <time>2023-05-19T08:43:55Z</time>
      </trkpt>
      <trkpt lat="44.60107" lon="5.86547">
        <ele>1241.4</ele>
        <time>2023-05-19T08:43:56Z</time>
      </trkpt>
      <trkpt lat="44.60106" lon="5.86546">
        <ele>1241.6</ele>
        <time>2023-05-19T08:43:57Z</time>
      </trkpt>
      <trkpt lat="44.60106" lon="5.86545">
        <ele>1241.6</ele>
        <time>2023-05-19T08:43:58Z</time>
      </trkpt>
      <trkpt lat="44.60105" lon="5.86544">
        <ele>1241.8</ele>
        <time>2023-05-19T08:43:59Z</time>
      </trkpt>
      <trkpt lat="44.60105" lon="5.86542">
        <ele>1241.8</ele>
        <time>2023-05-19T08:44:00Z</time>
      </trkpt>
      <trkpt lat="44.60105" lon="5.86542">
        <ele>1242</ele>
        <time>2023-05-19T08:44:01Z</time>
      </trkpt>
      <trkpt lat="44.60105" lon="5.86541">
        <ele>1242.2</ele>
        <time>2023-05-19T08:44:02Z</time>
      </trkpt>
      <trkpt lat="44.60105" lon="5.8654">
        <ele>1242.2</ele>
        <time>2023-05-19T08:44:03Z</time>
      </trkpt>
      <trkpt lat="44.60104" lon="5.86538">
        <ele>1242.4</ele>
        <time>2023-05-19T08:44:04Z</time>
      </trkpt>
      <trkpt lat="44.60103" lon="5.86536">
        <ele>1242.4</ele>
        <time>2023-05-19T08:44:05Z</time>
      </trkpt>
      <trkpt lat="44.60103" lon="5.86534">
        <ele>1242.6</ele>
        <time>2023-05-19T08:44:06Z</time>
      </trkpt>
      <trkpt lat="44.60102" lon="5.86533">
        <ele>1242.8</ele>
        <time>2023-05-19T08:44:07Z</time>
      </trkpt>
      <trkpt lat="44.60101" lon="5.86533">
        <ele>1242.8</ele>
        <time>2023-05-19T08:44:08Z</time>
      </trkpt>
      <trkpt lat="44.60101" lon="5.86533">
        <ele>1243</ele>
        <time>2023-05-19T08:44:09Z</time>
      </trkpt>
      <trkpt lat="44.60101" lon="5.86533">
        <ele>1243</ele>
        <time>2023-05-19T08:44:10Z</time>
      </trkpt>
      <trkpt lat="44.60102" lon="5.86533">
        <ele>1243</ele>
        <time>2023-05-19T08:44:11Z</time>
      </trkpt>
      <trkpt lat="44.60101" lon="5.86533">
        <ele>1243.2</ele>
        <time>2023-05-19T08:44:12Z</time>
      </trkpt>
      <trkpt lat="44.60101" lon="5.86532">
        <ele>1243.4</ele>
        <time>2023-05-19T08:44:14Z</time>
      </trkpt>
      <trkpt lat="44.60101" lon="5.86532">
        <ele>1243.4</ele>
        <time>2023-05-19T08:44:15Z</time>
      </trkpt>
      <trkpt lat="44.60101" lon="5.86531">
        <ele>1243.4</ele>
        <time>2023-05-19T08:44:16Z</time>
      </trkpt>
      <trkpt lat="44.60101" lon="5.8653">
        <ele>1243.4</ele>
        <time>2023-05-19T08:44:17Z</time>
      </trkpt>
      <trkpt lat="44.60099" lon="5.86529">
        <ele>1243.6</ele>
        <time>2023-05-19T08:44:18Z</time>
      </trkpt>
      <trkpt lat="44.60099" lon="5.86527">
        <ele>1243.6</ele>
        <time>2023-05-19T08:44:19Z</time>
      </trkpt>
      <trkpt lat="44.60098" lon="5.86525">
        <ele>1243.8</ele>
        <time>2023-05-19T08:44:20Z</time>
      </trkpt>
      <trkpt lat="44.60098" lon="5.86523">
        <ele>1243.8</ele>
        <time>2023-05-19T08:44:21Z</time>
      </trkpt>
      <trkpt lat="44.60097" lon="5.86521">
        <ele>1243.8</ele>
        <time>2023-05-19T08:44:22Z</time>
      </trkpt>
      <trkpt lat="44.60097" lon="5.86519">
        <ele>1244</ele>
        <time>2023-05-19T08:44:23Z</time>
      </trkpt>
      <trkpt lat="44.60097" lon="5.86517">
        <ele>1244</ele>
        <time>2023-05-19T08:44:24Z</time>
      </trkpt>
      <trkpt lat="44.60096" lon="5.86515">
        <ele>1244.4</ele>
        <time>2023-05-19T08:44:25Z</time>
      </trkpt>
      <trkpt lat="44.60096" lon="5.86513">
        <ele>1244.6</ele>
        <time>2023-05-19T08:44:27Z</time>
      </trkpt>
      <trkpt lat="44.60095" lon="5.86511">
        <ele>1245</ele>
        <time>2023-05-19T08:44:28Z</time>
      </trkpt>
      <trkpt lat="44.60094" lon="5.86508">
        <ele>1245</ele>
        <time>2023-05-19T08:44:29Z</time>
      </trkpt>
      <trkpt lat="44.60093" lon="5.86507">
        <ele>1245.2</ele>
        <time>2023-05-19T08:44:30Z</time>
      </trkpt>
      <trkpt lat="44.60093" lon="5.86505">
        <ele>1245.4</ele>
        <time>2023-05-19T08:44:31Z</time>
      </trkpt>
      <trkpt lat="44.60093" lon="5.86503">
        <ele>1245.4</ele>
        <time>2023-05-19T08:44:32Z</time>
      </trkpt>
      <trkpt lat="44.60091" lon="5.86501">
        <ele>1245.6</ele>
        <time>2023-05-19T08:44:33Z</time>
      </trkpt>
      <trkpt lat="44.60091" lon="5.865">
        <ele>1245.8</ele>
        <time>2023-05-19T08:44:34Z</time>
      </trkpt>
      <trkpt lat="44.6009" lon="5.86498">
        <ele>1246</ele>
        <time>2023-05-19T08:44:35Z</time>
      </trkpt>
      <trkpt lat="44.6009" lon="5.86497">
        <ele>1246.2</ele>
        <time>2023-05-19T08:44:36Z</time>
      </trkpt>
      <trkpt lat="44.60089" lon="5.86495">
        <ele>1246.6</ele>
        <time>2023-05-19T08:44:37Z</time>
      </trkpt>
      <trkpt lat="44.60087" lon="5.86494">
        <ele>1246.6</ele>
        <time>2023-05-19T08:44:38Z</time>
      </trkpt>
      <trkpt lat="44.60087" lon="5.86493">
        <ele>1247</ele>
        <time>2023-05-19T08:44:39Z</time>
      </trkpt>
      <trkpt lat="44.60086" lon="5.86493">
        <ele>1247</ele>
        <time>2023-05-19T08:44:40Z</time>
      </trkpt>
      <trkpt lat="44.60085" lon="5.86494">
        <ele>1247.2</ele>
        <time>2023-05-19T08:44:41Z</time>
      </trkpt>
      <trkpt lat="44.60084" lon="5.86494">
        <ele>1247.2</ele>
        <time>2023-05-19T08:44:42Z</time>
      </trkpt>
      <trkpt lat="44.60084" lon="5.86494">
        <ele>1247.6</ele>
        <time>2023-05-19T08:44:43Z</time>
      </trkpt>
      <trkpt lat="44.60084" lon="5.86494">
        <ele>1248</ele>
        <time>2023-05-19T08:44:44Z</time>
      </trkpt>
      <trkpt lat="44.60083" lon="5.86495">
        <ele>1248</ele>
        <time>2023-05-19T08:44:45Z</time>
      </trkpt>
      <trkpt lat="44.60083" lon="5.86496">
        <ele>1248.2</ele>
        <time>2023-05-19T08:44:46Z</time>
      </trkpt>
      <trkpt lat="44.60083" lon="5.86497">
        <ele>1248.2</ele>
        <time>2023-05-19T08:44:47Z</time>
      </trkpt>
      <trkpt lat="44.60083" lon="5.86497">
        <ele>1248.4</ele>
        <time>2023-05-19T08:44:48Z</time>
      </trkpt>
      <trkpt lat="44.60082" lon="5.86498">
        <ele>1248.6</ele>
        <time>2023-05-19T08:44:49Z</time>
      </trkpt>
      <trkpt lat="44.60083" lon="5.86498">
        <ele>1248.8</ele>
        <time>2023-05-19T08:44:50Z</time>
      </trkpt>
      <trkpt lat="44.60083" lon="5.86499">
        <ele>1249.2</ele>
        <time>2023-05-19T08:44:51Z</time>
      </trkpt>
      <trkpt lat="44.60083" lon="5.865">
        <ele>1249.4</ele>
        <time>2023-05-19T08:44:52Z</time>
      </trkpt>
      <trkpt lat="44.60082" lon="5.86501">
        <ele>1249.6</ele>
        <time>2023-05-19T08:44:53Z</time>
      </trkpt>
      <trkpt lat="44.60082" lon="5.86501">
        <ele>1249.6</ele>
        <time>2023-05-19T08:44:54Z</time>
      </trkpt>
      <trkpt lat="44.60082" lon="5.86502">
        <ele>1249.8</ele>
        <time>2023-05-19T08:44:55Z</time>
      </trkpt>
      <trkpt lat="44.60082" lon="5.86502">
        <ele>1249.8</ele>
        <time>2023-05-19T08:44:56Z</time>
      </trkpt>
      <trkpt lat="44.60082" lon="5.86503">
        <ele>1250.2</ele>
        <time>2023-05-19T08:44:57Z</time>
      </trkpt>
      <trkpt lat="44.60083" lon="5.86504">
        <ele>1250.4</ele>
        <time>2023-05-19T08:44:58Z</time>
      </trkpt>
      <trkpt lat="44.60083" lon="5.86505">
        <ele>1250.6</ele>
        <time>2023-05-19T08:44:59Z</time>
      </trkpt>
      <trkpt lat="44.60083" lon="5.86507">
        <ele>1250.8</ele>
        <time>2023-05-19T08:45:00Z</time>
      </trkpt>
      <trkpt lat="44.60082" lon="5.86508">
        <ele>1250.8</ele>
        <time>2023-05-19T08:45:01Z</time>
      </trkpt>
      <trkpt lat="44.60082" lon="5.86509">
        <ele>1251</ele>
        <time>2023-05-19T08:45:02Z</time>
      </trkpt>
      <trkpt lat="44.60082" lon="5.86509">
        <ele>1251.2</ele>
        <time>2023-05-19T08:45:03Z</time>
      </trkpt>
      <trkpt lat="44.60081" lon="5.8651">
        <ele>1251.4</ele>
        <time>2023-05-19T08:45:04Z</time>
      </trkpt>
      <trkpt lat="44.6008" lon="5.86512">
        <ele>1251.6</ele>
        <time>2023-05-19T08:45:05Z</time>
      </trkpt>
      <trkpt lat="44.6008" lon="5.86513">
        <ele>1251.8</ele>
        <time>2023-05-19T08:45:06Z</time>
      </trkpt>
      <trkpt lat="44.6008" lon="5.86513">
        <ele>1252</ele>
        <time>2023-05-19T08:45:07Z</time>
      </trkpt>
      <trkpt lat="44.60079" lon="5.86514">
        <ele>1252</ele>
        <time>2023-05-19T08:45:08Z</time>
      </trkpt>
      <trkpt lat="44.60079" lon="5.86515">
        <ele>1252.2</ele>
        <time>2023-05-19T08:45:09Z</time>
      </trkpt>
      <trkpt lat="44.60079" lon="5.86515">
        <ele>1252.4</ele>
        <time>2023-05-19T08:45:10Z</time>
      </trkpt>
      <trkpt lat="44.60079" lon="5.86515">
        <ele>1252.6</ele>
        <time>2023-05-19T08:45:11Z</time>
      </trkpt>
      <trkpt lat="44.60079" lon="5.86515">
        <ele>1252.8</ele>
        <time>2023-05-19T08:45:12Z</time>
      </trkpt>
      <trkpt lat="44.60079" lon="5.86516">
        <ele>1253</ele>
        <time>2023-05-19T08:45:13Z</time>
      </trkpt>
      <trkpt lat="44.60079" lon="5.86518">
        <ele>1253.2</ele>
        <time>2023-05-19T08:45:14Z</time>
      </trkpt>
      <trkpt lat="44.60078" lon="5.86519">
        <ele>1253.4</ele>
        <time>2023-05-19T08:45:15Z</time>
      </trkpt>
      <trkpt lat="44.60078" lon="5.8652">
        <ele>1253.4</ele>
        <time>2023-05-19T08:45:16Z</time>
      </trkpt>
      <trkpt lat="44.60078" lon="5.86522">
        <ele>1253.6</ele>
        <time>2023-05-19T08:45:17Z</time>
      </trkpt>
      <trkpt lat="44.60077" lon="5.86523">
        <ele>1253.6</ele>
        <time>2023-05-19T08:45:18Z</time>
      </trkpt>
      <trkpt lat="44.60077" lon="5.86525">
        <ele>1253.8</ele>
        <time>2023-05-19T08:45:19Z</time>
      </trkpt>
      <trkpt lat="44.60077" lon="5.86526">
        <ele>1254</ele>
        <time>2023-05-19T08:45:20Z</time>
      </trkpt>
      <trkpt lat="44.60077" lon="5.86529">
        <ele>1254.2</ele>
        <time>2023-05-19T08:45:21Z</time>
      </trkpt>
      <trkpt lat="44.60076" lon="5.86531">
        <ele>1254.2</ele>
        <time>2023-05-19T08:45:22Z</time>
      </trkpt>
      <trkpt lat="44.60076" lon="5.86532">
        <ele>1254.4</ele>
        <time>2023-05-19T08:45:23Z</time>
      </trkpt>
      <trkpt lat="44.60076" lon="5.86532">
        <ele>1254.4</ele>
        <time>2023-05-19T08:45:24Z</time>
      </trkpt>
      <trkpt lat="44.60075" lon="5.86534">
        <ele>1254.8</ele>
        <time>2023-05-19T08:45:25Z</time>
      </trkpt>
      <trkpt lat="44.60074" lon="5.86535">
        <ele>1254.8</ele>
        <time>2023-05-19T08:45:26Z</time>
      </trkpt>
      <trkpt lat="44.60074" lon="5.86537">
        <ele>1255</ele>
        <time>2023-05-19T08:45:27Z</time>
      </trkpt>
      <trkpt lat="44.60074" lon="5.8654">
        <ele>1255</ele>
        <time>2023-05-19T08:45:28Z</time>
      </trkpt>
      <trkpt lat="44.60073" lon="5.86542">
        <ele>1255.2</ele>
        <time>2023-05-19T08:45:29Z</time>
      </trkpt>
      <trkpt lat="44.60072" lon="5.86545">
        <ele>1255.4</ele>
        <time>2023-05-19T08:45:30Z</time>
      </trkpt>
      <trkpt lat="44.60071" lon="5.86547">
        <ele>1255.4</ele>
        <time>2023-05-19T08:45:31Z</time>
      </trkpt>
      <trkpt lat="44.60071" lon="5.8655">
        <ele>1255.6</ele>
        <time>2023-05-19T08:45:32Z</time>
      </trkpt>
      <trkpt lat="44.6007" lon="5.86552">
        <ele>1255.8</ele>
        <time>2023-05-19T08:45:33Z</time>
      </trkpt>
      <trkpt lat="44.60069" lon="5.86553">
        <ele>1255.8</ele>
        <time>2023-05-19T08:45:34Z</time>
      </trkpt>
      <trkpt lat="44.60069" lon="5.86553">
        <ele>1255.8</ele>
        <time>2023-05-19T08:45:35Z</time>
      </trkpt>
      <trkpt lat="44.60069" lon="5.86554">
        <ele>1256</ele>
        <time>2023-05-19T08:45:36Z</time>
      </trkpt>
      <trkpt lat="44.60069" lon="5.86554">
        <ele>1256</ele>
        <time>2023-05-19T08:45:37Z</time>
      </trkpt>
      <trkpt lat="44.60069" lon="5.86554">
        <ele>1256</ele>
        <time>2023-05-19T08:45:38Z</time>
      </trkpt>
      <trkpt lat="44.60069" lon="5.86554">
        <ele>1256</ele>
        <time>2023-05-19T08:45:39Z</time>
      </trkpt>
      <trkpt lat="44.60068" lon="5.86556">
        <ele>1256.8</ele>
        <time>2023-05-19T08:45:44Z</time>
      </trkpt>
      <trkpt lat="44.60068" lon="5.86556">
        <ele>1256.8</ele>
        <time>2023-05-19T08:45:45Z</time>
      </trkpt>
      <trkpt lat="44.60068" lon="5.86557">
        <ele>1256.8</ele>
        <time>2023-05-19T08:45:47Z</time>
      </trkpt>
      <trkpt lat="44.60068" lon="5.86557">
        <ele>1257</ele>
        <time>2023-05-19T08:45:50Z</time>
      </trkpt>
      <trkpt lat="44.60068" lon="5.86557">
        <ele>1257</ele>
        <time>2023-05-19T08:45:51Z</time>
      </trkpt>
      <trkpt lat="44.60068" lon="5.86557">
        <ele>1257</ele>
        <time>2023-05-19T08:45:52Z</time>
      </trkpt>
      <trkpt lat="44.60067" lon="5.86557">
        <ele>1257</ele>
        <time>2023-05-19T08:45:53Z</time>
      </trkpt>
      <trkpt lat="44.60067" lon="5.86558">
        <ele>1257.2</ele>
        <time>2023-05-19T08:45:54Z</time>
      </trkpt>
      <trkpt lat="44.60065" lon="5.86559">
        <ele>1257.2</ele>
        <time>2023-05-19T08:45:55Z</time>
      </trkpt>
      <trkpt lat="44.60065" lon="5.86561">
        <ele>1257.4</ele>
        <time>2023-05-19T08:45:56Z</time>
      </trkpt>
      <trkpt lat="44.60064" lon="5.86562">
        <ele>1257.8</ele>
        <time>2023-05-19T08:45:57Z</time>
      </trkpt>
      <trkpt lat="44.60064" lon="5.86563">
        <ele>1257.8</ele>
        <time>2023-05-19T08:45:58Z</time>
      </trkpt>
      <trkpt lat="44.60064" lon="5.86563">
        <ele>1258</ele>
        <time>2023-05-19T08:45:59Z</time>
      </trkpt>
      <trkpt lat="44.60064" lon="5.86563">
        <ele>1258.2</ele>
        <time>2023-05-19T08:46:00Z</time>
      </trkpt>
      <trkpt lat="44.60064" lon="5.86563">
        <ele>1258.4</ele>
        <time>2023-05-19T08:46:01Z</time>
      </trkpt>
      <trkpt lat="44.60063" lon="5.86564">
        <ele>1259.4</ele>
        <time>2023-05-19T08:46:05Z</time>
      </trkpt>
      <trkpt lat="44.60063" lon="5.86564">
        <ele>1259.8</ele>
        <time>2023-05-19T08:46:06Z</time>
      </trkpt>
      <trkpt lat="44.60063" lon="5.86565">
        <ele>1259.8</ele>
        <time>2023-05-19T08:46:07Z</time>
      </trkpt>
      <trkpt lat="44.60063" lon="5.86566">
        <ele>1260.2</ele>
        <time>2023-05-19T08:46:08Z</time>
      </trkpt>
      <trkpt lat="44.60063" lon="5.86567">
        <ele>1260.2</ele>
        <time>2023-05-19T08:46:09Z</time>
      </trkpt>
      <trkpt lat="44.60062" lon="5.86568">
        <ele>1260.4</ele>
        <time>2023-05-19T08:46:10Z</time>
      </trkpt>
      <trkpt lat="44.60062" lon="5.86568">
        <ele>1260.6</ele>
        <time>2023-05-19T08:46:11Z</time>
      </trkpt>
      <trkpt lat="44.60062" lon="5.86568">
        <ele>1260.6</ele>
        <time>2023-05-19T08:46:12Z</time>
      </trkpt>
      <trkpt lat="44.60062" lon="5.86568">
        <ele>1260.8</ele>
        <time>2023-05-19T08:46:13Z</time>
      </trkpt>
      <trkpt lat="44.60061" lon="5.86569">
        <ele>1260.8</ele>
        <time>2023-05-19T08:46:14Z</time>
      </trkpt>
      <trkpt lat="44.60061" lon="5.8657">
        <ele>1261</ele>
        <time>2023-05-19T08:46:15Z</time>
      </trkpt>
      <trkpt lat="44.60061" lon="5.8657">
        <ele>1261.2</ele>
        <time>2023-05-19T08:46:16Z</time>
      </trkpt>
      <trkpt lat="44.60061" lon="5.8657">
        <ele>1261.4</ele>
        <time>2023-05-19T08:46:17Z</time>
      </trkpt>
      <trkpt lat="44.60061" lon="5.8657">
        <ele>1261.4</ele>
        <time>2023-05-19T08:46:18Z</time>
      </trkpt>
      <trkpt lat="44.6006" lon="5.86571">
        <ele>1261.6</ele>
        <time>2023-05-19T08:46:19Z</time>
      </trkpt>
      <trkpt lat="44.60059" lon="5.86573">
        <ele>1261.6</ele>
        <time>2023-05-19T08:46:20Z</time>
      </trkpt>
      <trkpt lat="44.60058" lon="5.86573">
        <ele>1261.8</ele>
        <time>2023-05-19T08:46:21Z</time>
      </trkpt>
      <trkpt lat="44.60058" lon="5.86573">
        <ele>1262</ele>
        <time>2023-05-19T08:46:22Z</time>
      </trkpt>
      <trkpt lat="44.60058" lon="5.86574">
        <ele>1262</ele>
        <time>2023-05-19T08:46:23Z</time>
      </trkpt>
      <trkpt lat="44.60058" lon="5.86575">
        <ele>1262.4</ele>
        <time>2023-05-19T08:46:24Z</time>
      </trkpt>
      <trkpt lat="44.60058" lon="5.86575">
        <ele>1262.4</ele>
        <time>2023-05-19T08:46:25Z</time>
      </trkpt>
      <trkpt lat="44.60057" lon="5.86575">
        <ele>1262.6</ele>
        <time>2023-05-19T08:46:26Z</time>
      </trkpt>
      <trkpt lat="44.60057" lon="5.86576">
        <ele>1262.8</ele>
        <time>2023-05-19T08:46:27Z</time>
      </trkpt>
      <trkpt lat="44.60057" lon="5.86576">
        <ele>1263</ele>
        <time>2023-05-19T08:46:28Z</time>
      </trkpt>
      <trkpt lat="44.60056" lon="5.86577">
        <ele>1263</ele>
        <time>2023-05-19T08:46:29Z</time>
      </trkpt>
      <trkpt lat="44.60055" lon="5.86579">
        <ele>1263.2</ele>
        <time>2023-05-19T08:46:30Z</time>
      </trkpt>
      <trkpt lat="44.60055" lon="5.86579">
        <ele>1263.4</ele>
        <time>2023-05-19T08:46:31Z</time>
      </trkpt>
      <trkpt lat="44.60055" lon="5.86579">
        <ele>1263.6</ele>
        <time>2023-05-19T08:46:32Z</time>
      </trkpt>
      <trkpt lat="44.60054" lon="5.8658">
        <ele>1263.6</ele>
        <time>2023-05-19T08:46:33Z</time>
      </trkpt>
      <trkpt lat="44.60054" lon="5.8658">
        <ele>1263.8</ele>
        <time>2023-05-19T08:46:34Z</time>
      </trkpt>
      <trkpt lat="44.60054" lon="5.8658">
        <ele>1264</ele>
        <time>2023-05-19T08:46:35Z</time>
      </trkpt>
      <trkpt lat="44.60054" lon="5.8658">
        <ele>1264</ele>
        <time>2023-05-19T08:46:36Z</time>
      </trkpt>
      <trkpt lat="44.60054" lon="5.8658">
        <ele>1264.2</ele>
        <time>2023-05-19T08:46:37Z</time>
      </trkpt>
      <trkpt lat="44.60053" lon="5.86581">
        <ele>1264.4</ele>
        <time>2023-05-19T08:46:38Z</time>
      </trkpt>
      <trkpt lat="44.60052" lon="5.86585">
        <ele>1264.4</ele>
        <time>2023-05-19T08:46:39Z</time>
      </trkpt>
      <trkpt lat="44.60051" lon="5.86586">
        <ele>1264.6</ele>
        <time>2023-05-19T08:46:40Z</time>
      </trkpt>
      <trkpt lat="44.60051" lon="5.86587">
        <ele>1264.6</ele>
        <time>2023-05-19T08:46:41Z</time>
      </trkpt>
      <trkpt lat="44.60051" lon="5.86587">
        <ele>1264.6</ele>
        <time>2023-05-19T08:46:42Z</time>
      </trkpt>
      <trkpt lat="44.60051" lon="5.86587">
        <ele>1264.8</ele>
        <time>2023-05-19T08:46:44Z</time>
      </trkpt>
      <trkpt lat="44.6005" lon="5.86589">
        <ele>1265</ele>
        <time>2023-05-19T08:46:46Z</time>
      </trkpt>
      <trkpt lat="44.60049" lon="5.8659">
        <ele>1265.2</ele>
        <time>2023-05-19T08:46:47Z</time>
      </trkpt>
      <trkpt lat="44.60049" lon="5.86591">
        <ele>1265.2</ele>
        <time>2023-05-19T08:46:48Z</time>
      </trkpt>
      <trkpt lat="44.60049" lon="5.86592">
        <ele>1265.4</ele>
        <time>2023-05-19T08:46:49Z</time>
      </trkpt>
      <trkpt lat="44.60048" lon="5.86594">
        <ele>1265.6</ele>
        <time>2023-05-19T08:46:50Z</time>
      </trkpt>
      <trkpt lat="44.60047" lon="5.86594">
        <ele>1265.6</ele>
        <time>2023-05-19T08:46:51Z</time>
      </trkpt>
      <trkpt lat="44.60047" lon="5.86594">
        <ele>1265.8</ele>
        <time>2023-05-19T08:46:52Z</time>
      </trkpt>
      <trkpt lat="44.60045" lon="5.86596">
        <ele>1265.8</ele>
        <time>2023-05-19T08:46:53Z</time>
      </trkpt>
      <trkpt lat="44.60045" lon="5.86597">
        <ele>1265.8</ele>
        <time>2023-05-19T08:46:54Z</time>
      </trkpt>
      <trkpt lat="44.60044" lon="5.86598">
        <ele>1266</ele>
        <time>2023-05-19T08:46:55Z</time>
      </trkpt>
      <trkpt lat="44.60044" lon="5.86599">
        <ele>1266</ele>
        <time>2023-05-19T08:46:56Z</time>
      </trkpt>
      <trkpt lat="44.60044" lon="5.86599">
        <ele>1266.2</ele>
        <time>2023-05-19T08:46:57Z</time>
      </trkpt>
      <trkpt lat="44.60044" lon="5.86599">
        <ele>1266.2</ele>
        <time>2023-05-19T08:46:58Z</time>
      </trkpt>
      <trkpt lat="44.60044" lon="5.866">
        <ele>1266.2</ele>
        <time>2023-05-19T08:46:59Z</time>
      </trkpt>
      <trkpt lat="44.60044" lon="5.866">
        <ele>1266.6</ele>
        <time>2023-05-19T08:47:00Z</time>
      </trkpt>
      <trkpt lat="44.60044" lon="5.866">
        <ele>1266.4</ele>
        <time>2023-05-19T08:47:01Z</time>
      </trkpt>
      <trkpt lat="44.60043" lon="5.86601">
        <ele>1266.4</ele>
        <time>2023-05-19T08:47:02Z</time>
      </trkpt>
      <trkpt lat="44.60043" lon="5.86603">
        <ele>1266.8</ele>
        <time>2023-05-19T08:47:03Z</time>
      </trkpt>
      <trkpt lat="44.60042" lon="5.86604">
        <ele>1267</ele>
        <time>2023-05-19T08:47:04Z</time>
      </trkpt>
      <trkpt lat="44.60042" lon="5.86605">
        <ele>1267.2</ele>
        <time>2023-05-19T08:47:05Z</time>
      </trkpt>
      <trkpt lat="44.60041" lon="5.86606">
        <ele>1267.2</ele>
        <time>2023-05-19T08:47:06Z</time>
      </trkpt>
      <trkpt lat="44.6004" lon="5.86607">
        <ele>1267.4</ele>
        <time>2023-05-19T08:47:07Z</time>
      </trkpt>
      <trkpt lat="44.60039" lon="5.86607">
        <ele>1267.6</ele>
        <time>2023-05-19T08:47:08Z</time>
      </trkpt>
      <trkpt lat="44.60039" lon="5.86608">
        <ele>1267.8</ele>
        <time>2023-05-19T08:47:09Z</time>
      </trkpt>
      <trkpt lat="44.60039" lon="5.86608">
        <ele>1268</ele>
        <time>2023-05-19T08:47:10Z</time>
      </trkpt>
      <trkpt lat="44.60038" lon="5.86608">
        <ele>1268.2</ele>
        <time>2023-05-19T08:47:11Z</time>
      </trkpt>
      <trkpt lat="44.60038" lon="5.86609">
        <ele>1268.4</ele>
        <time>2023-05-19T08:47:12Z</time>
      </trkpt>
      <trkpt lat="44.60038" lon="5.86609">
        <ele>1268.4</ele>
        <time>2023-05-19T08:47:13Z</time>
      </trkpt>
      <trkpt lat="44.60038" lon="5.8661">
        <ele>1268.6</ele>
        <time>2023-05-19T08:47:14Z</time>
      </trkpt>
      <trkpt lat="44.60038" lon="5.86612">
        <ele>1268.8</ele>
        <time>2023-05-19T08:47:15Z</time>
      </trkpt>
      <trkpt lat="44.60037" lon="5.86613">
        <ele>1269.2</ele>
        <time>2023-05-19T08:47:16Z</time>
      </trkpt>
      <trkpt lat="44.60037" lon="5.86614">
        <ele>1269.4</ele>
        <time>2023-05-19T08:47:17Z</time>
      </trkpt>
      <trkpt lat="44.60036" lon="5.86615">
        <ele>1269.6</ele>
        <time>2023-05-19T08:47:18Z</time>
      </trkpt>
      <trkpt lat="44.60035" lon="5.86617">
        <ele>1269.6</ele>
        <time>2023-05-19T08:47:19Z</time>
      </trkpt>
      <trkpt lat="44.60035" lon="5.86618">
        <ele>1269.8</ele>
        <time>2023-05-19T08:47:20Z</time>
      </trkpt>
      <trkpt lat="44.60034" lon="5.86619">
        <ele>1270</ele>
        <time>2023-05-19T08:47:21Z</time>
      </trkpt>
      <trkpt lat="44.60033" lon="5.86621">
        <ele>1270</ele>
        <time>2023-05-19T08:47:22Z</time>
      </trkpt>
      <trkpt lat="44.60032" lon="5.86621">
        <ele>1270</ele>
        <time>2023-05-19T08:47:23Z</time>
      </trkpt>
      <trkpt lat="44.60032" lon="5.86622">
        <ele>1270.2</ele>
        <time>2023-05-19T08:47:24Z</time>
      </trkpt>
      <trkpt lat="44.60031" lon="5.86623">
        <ele>1270.2</ele>
        <time>2023-05-19T08:47:25Z</time>
      </trkpt>
      <trkpt lat="44.60031" lon="5.86624">
        <ele>1270.4</ele>
        <time>2023-05-19T08:47:26Z</time>
      </trkpt>
      <trkpt lat="44.6003" lon="5.86625">
        <ele>1270.6</ele>
        <time>2023-05-19T08:47:27Z</time>
      </trkpt>
      <trkpt lat="44.60029" lon="5.86626">
        <ele>1270.6</ele>
        <time>2023-05-19T08:47:28Z</time>
      </trkpt>
      <trkpt lat="44.60028" lon="5.86626">
        <ele>1270.6</ele>
        <time>2023-05-19T08:47:29Z</time>
      </trkpt>
      <trkpt lat="44.60028" lon="5.86627">
        <ele>1270.8</ele>
        <time>2023-05-19T08:47:30Z</time>
      </trkpt>
      <trkpt lat="44.60027" lon="5.86628">
        <ele>1270.8</ele>
        <time>2023-05-19T08:47:31Z</time>
      </trkpt>
      <trkpt lat="44.60027" lon="5.86629">
        <ele>1271</ele>
        <time>2023-05-19T08:47:32Z</time>
      </trkpt>
      <trkpt lat="44.60026" lon="5.8663">
        <ele>1271.2</ele>
        <time>2023-05-19T08:47:33Z</time>
      </trkpt>
      <trkpt lat="44.60025" lon="5.8663">
        <ele>1271.4</ele>
        <time>2023-05-19T08:47:34Z</time>
      </trkpt>
      <trkpt lat="44.60024" lon="5.8663">
        <ele>1271.4</ele>
        <time>2023-05-19T08:47:35Z</time>
      </trkpt>
      <trkpt lat="44.60024" lon="5.86631">
        <ele>1271.8</ele>
        <time>2023-05-19T08:47:36Z</time>
      </trkpt>
      <trkpt lat="44.60024" lon="5.86631">
        <ele>1272</ele>
        <time>2023-05-19T08:47:37Z</time>
      </trkpt>
      <trkpt lat="44.60023" lon="5.86632">
        <ele>1272</ele>
        <time>2023-05-19T08:47:38Z</time>
      </trkpt>
      <trkpt lat="44.60022" lon="5.86633">
        <ele>1272.2</ele>
        <time>2023-05-19T08:47:39Z</time>
      </trkpt>
      <trkpt lat="44.60021" lon="5.86634">
        <ele>1272.4</ele>
        <time>2023-05-19T08:47:40Z</time>
      </trkpt>
      <trkpt lat="44.60021" lon="5.86634">
        <ele>1272.6</ele>
        <time>2023-05-19T08:47:41Z</time>
      </trkpt>
      <trkpt lat="44.60021" lon="5.86634">
        <ele>1272.6</ele>
        <time>2023-05-19T08:47:42Z</time>
      </trkpt>
      <trkpt lat="44.6002" lon="5.86635">
        <ele>1272.8</ele>
        <time>2023-05-19T08:47:43Z</time>
      </trkpt>
      <trkpt lat="44.6002" lon="5.86635">
        <ele>1273</ele>
        <time>2023-05-19T08:47:44Z</time>
      </trkpt>
      <trkpt lat="44.6002" lon="5.86636">
        <ele>1273.2</ele>
        <time>2023-05-19T08:47:45Z</time>
      </trkpt>
      <trkpt lat="44.60019" lon="5.86636">
        <ele>1273.4</ele>
        <time>2023-05-19T08:47:46Z</time>
      </trkpt>
      <trkpt lat="44.60018" lon="5.86637">
        <ele>1273.6</ele>
        <time>2023-05-19T08:47:47Z</time>
      </trkpt>
      <trkpt lat="44.60017" lon="5.86637">
        <ele>1274</ele>
        <time>2023-05-19T08:47:48Z</time>
      </trkpt>
      <trkpt lat="44.60016" lon="5.86637">
        <ele>1274</ele>
        <time>2023-05-19T08:47:49Z</time>
      </trkpt>
      <trkpt lat="44.60016" lon="5.86637">
        <ele>1274.2</ele>
        <time>2023-05-19T08:47:50Z</time>
      </trkpt>
      <trkpt lat="44.60016" lon="5.86637">
        <ele>1274.2</ele>
        <time>2023-05-19T08:47:51Z</time>
      </trkpt>
      <trkpt lat="44.60016" lon="5.86637">
        <ele>1274.4</ele>
        <time>2023-05-19T08:47:52Z</time>
      </trkpt>
      <trkpt lat="44.60016" lon="5.86637">
        <ele>1274.4</ele>
        <time>2023-05-19T08:47:53Z</time>
      </trkpt>
      <trkpt lat="44.60016" lon="5.86638">
        <ele>1274.8</ele>
        <time>2023-05-19T08:47:54Z</time>
      </trkpt>
      <trkpt lat="44.60015" lon="5.86639">
        <ele>1274.8</ele>
        <time>2023-05-19T08:47:55Z</time>
      </trkpt>
      <trkpt lat="44.60015" lon="5.86639">
        <ele>1275</ele>
        <time>2023-05-19T08:47:56Z</time>
      </trkpt>
      <trkpt lat="44.60014" lon="5.8664">
        <ele>1275.2</ele>
        <time>2023-05-19T08:47:57Z</time>
      </trkpt>
      <trkpt lat="44.60014" lon="5.8664">
        <ele>1275.4</ele>
        <time>2023-05-19T08:47:58Z</time>
      </trkpt>
      <trkpt lat="44.60014" lon="5.8664">
        <ele>1275.6</ele>
        <time>2023-05-19T08:47:59Z</time>
      </trkpt>
      <trkpt lat="44.60014" lon="5.8664">
        <ele>1275.6</ele>
        <time>2023-05-19T08:48:00Z</time>
      </trkpt>
      <trkpt lat="44.60013" lon="5.8664">
        <ele>1275.6</ele>
        <time>2023-05-19T08:48:01Z</time>
      </trkpt>
      <trkpt lat="44.60013" lon="5.8664">
        <ele>1275.8</ele>
        <time>2023-05-19T08:48:02Z</time>
      </trkpt>
      <trkpt lat="44.60012" lon="5.86641">
        <ele>1275.8</ele>
        <time>2023-05-19T08:48:03Z</time>
      </trkpt>
      <trkpt lat="44.60011" lon="5.86642">
        <ele>1276</ele>
        <time>2023-05-19T08:48:04Z</time>
      </trkpt>
      <trkpt lat="44.60011" lon="5.86642">
        <ele>1276</ele>
        <time>2023-05-19T08:48:05Z</time>
      </trkpt>
      <trkpt lat="44.60011" lon="5.86642">
        <ele>1276.2</ele>
        <time>2023-05-19T08:48:06Z</time>
      </trkpt>
      <trkpt lat="44.60011" lon="5.86642">
        <ele>1276.4</ele>
        <time>2023-05-19T08:48:07Z</time>
      </trkpt>
      <trkpt lat="44.6001" lon="5.86643">
        <ele>1276.4</ele>
        <time>2023-05-19T08:48:08Z</time>
      </trkpt>
      <trkpt lat="44.60009" lon="5.86644">
        <ele>1276.6</ele>
        <time>2023-05-19T08:48:09Z</time>
      </trkpt>
      <trkpt lat="44.60009" lon="5.86645">
        <ele>1276.8</ele>
        <time>2023-05-19T08:48:10Z</time>
      </trkpt>
      <trkpt lat="44.60009" lon="5.86646">
        <ele>1277</ele>
        <time>2023-05-19T08:48:11Z</time>
      </trkpt>
      <trkpt lat="44.60009" lon="5.86647">
        <ele>1277</ele>
        <time>2023-05-19T08:48:12Z</time>
      </trkpt>
      <trkpt lat="44.60008" lon="5.86648">
        <ele>1277.2</ele>
        <time>2023-05-19T08:48:13Z</time>
      </trkpt>
      <trkpt lat="44.60007" lon="5.86649">
        <ele>1277.2</ele>
        <time>2023-05-19T08:48:14Z</time>
      </trkpt>
      <trkpt lat="44.60006" lon="5.8665">
        <ele>1277.4</ele>
        <time>2023-05-19T08:48:15Z</time>
      </trkpt>
      <trkpt lat="44.60006" lon="5.8665">
        <ele>1277.4</ele>
        <time>2023-05-19T08:48:16Z</time>
      </trkpt>
      <trkpt lat="44.60006" lon="5.8665">
        <ele>1277.6</ele>
        <time>2023-05-19T08:48:17Z</time>
      </trkpt>
      <trkpt lat="44.60006" lon="5.86651">
        <ele>1277.6</ele>
        <time>2023-05-19T08:48:18Z</time>
      </trkpt>
      <trkpt lat="44.60005" lon="5.86651">
        <ele>1277.8</ele>
        <time>2023-05-19T08:48:19Z</time>
      </trkpt>
      <trkpt lat="44.60004" lon="5.86651">
        <ele>1278.4</ele>
        <time>2023-05-19T08:48:22Z</time>
      </trkpt>
      <trkpt lat="44.60004" lon="5.86651">
        <ele>1278.4</ele>
        <time>2023-05-19T08:48:23Z</time>
      </trkpt>
      <trkpt lat="44.60004" lon="5.86651">
        <ele>1278.6</ele>
        <time>2023-05-19T08:48:24Z</time>
      </trkpt>
      <trkpt lat="44.60004" lon="5.86651">
        <ele>1278.8</ele>
        <time>2023-05-19T08:48:25Z</time>
      </trkpt>
      <trkpt lat="44.60004" lon="5.86651">
        <ele>1278.8</ele>
        <time>2023-05-19T08:48:26Z</time>
      </trkpt>
      <trkpt lat="44.60004" lon="5.86653">
        <ele>1279.2</ele>
        <time>2023-05-19T08:48:28Z</time>
      </trkpt>
      <trkpt lat="44.60003" lon="5.86654">
        <ele>1279.8</ele>
        <time>2023-05-19T08:48:31Z</time>
      </trkpt>
      <trkpt lat="44.60002" lon="5.86655">
        <ele>1279.8</ele>
        <time>2023-05-19T08:48:32Z</time>
      </trkpt>
      <trkpt lat="44.60002" lon="5.86655">
        <ele>1280</ele>
        <time>2023-05-19T08:48:33Z</time>
      </trkpt>
      <trkpt lat="44.60002" lon="5.86655">
        <ele>1280.2</ele>
        <time>2023-05-19T08:48:34Z</time>
      </trkpt>
      <trkpt lat="44.60001" lon="5.86655">
        <ele>1280.4</ele>
        <time>2023-05-19T08:48:35Z</time>
      </trkpt>
      <trkpt lat="44.60001" lon="5.86655">
        <ele>1280.8</ele>
        <time>2023-05-19T08:48:36Z</time>
      </trkpt>
      <trkpt lat="44.60001" lon="5.86655">
        <ele>1280.8</ele>
        <time>2023-05-19T08:48:37Z</time>
      </trkpt>
      <trkpt lat="44.60001" lon="5.86655">
        <ele>1281</ele>
        <time>2023-05-19T08:48:38Z</time>
      </trkpt>
      <trkpt lat="44.60001" lon="5.86656">
        <ele>1281</ele>
        <time>2023-05-19T08:48:39Z</time>
      </trkpt>
      <trkpt lat="44.6" lon="5.86657">
        <ele>1281.2</ele>
        <time>2023-05-19T08:48:40Z</time>
      </trkpt>
      <trkpt lat="44.59999" lon="5.86657">
        <ele>1281.2</ele>
        <time>2023-05-19T08:48:41Z</time>
      </trkpt>
      <trkpt lat="44.59999" lon="5.86657">
        <ele>1281.4</ele>
        <time>2023-05-19T08:48:42Z</time>
      </trkpt>
      <trkpt lat="44.59999" lon="5.86657">
        <ele>1281.6</ele>
        <time>2023-05-19T08:48:44Z</time>
      </trkpt>
      <trkpt lat="44.59996" lon="5.86662">
        <ele>1281.8</ele>
        <time>2023-05-19T08:48:47Z</time>
      </trkpt>
      <trkpt lat="44.59995" lon="5.86663">
        <ele>1282</ele>
        <time>2023-05-19T08:48:48Z</time>
      </trkpt>
      <trkpt lat="44.59994" lon="5.86665">
        <ele>1282</ele>
        <time>2023-05-19T08:48:49Z</time>
      </trkpt>
      <trkpt lat="44.59993" lon="5.86667">
        <ele>1282</ele>
        <time>2023-05-19T08:48:50Z</time>
      </trkpt>
      <trkpt lat="44.59992" lon="5.86668">
        <ele>1282</ele>
        <time>2023-05-19T08:48:51Z</time>
      </trkpt>
      <trkpt lat="44.59991" lon="5.8667">
        <ele>1282.2</ele>
        <time>2023-05-19T08:48:52Z</time>
      </trkpt>
      <trkpt lat="44.5999" lon="5.86671">
        <ele>1282.2</ele>
        <time>2023-05-19T08:48:53Z</time>
      </trkpt>
      <trkpt lat="44.59989" lon="5.86672">
        <ele>1282.2</ele>
        <time>2023-05-19T08:48:54Z</time>
      </trkpt>
      <trkpt lat="44.59988" lon="5.86674">
        <ele>1282.2</ele>
        <time>2023-05-19T08:48:55Z</time>
      </trkpt>
      <trkpt lat="44.59988" lon="5.86674">
        <ele>1282.4</ele>
        <time>2023-05-19T08:48:56Z</time>
      </trkpt>
      <trkpt lat="44.59987" lon="5.86675">
        <ele>1282.4</ele>
        <time>2023-05-19T08:48:57Z</time>
      </trkpt>
      <trkpt lat="44.59987" lon="5.86676">
        <ele>1282.4</ele>
        <time>2023-05-19T08:48:58Z</time>
      </trkpt>
      <trkpt lat="44.59986" lon="5.86678">
        <ele>1282.4</ele>
        <time>2023-05-19T08:48:59Z</time>
      </trkpt>
      <trkpt lat="44.59986" lon="5.86679">
        <ele>1282.6</ele>
        <time>2023-05-19T08:49:00Z</time>
      </trkpt>
      <trkpt lat="44.59985" lon="5.86681">
        <ele>1282.8</ele>
        <time>2023-05-19T08:49:01Z</time>
      </trkpt>
      <trkpt lat="44.59985" lon="5.86682">
        <ele>1283</ele>
        <time>2023-05-19T08:49:03Z</time>
      </trkpt>
      <trkpt lat="44.59984" lon="5.86683">
        <ele>1283</ele>
        <time>2023-05-19T08:49:04Z</time>
      </trkpt>
      <trkpt lat="44.59983" lon="5.86685">
        <ele>1283.4</ele>
        <time>2023-05-19T08:49:06Z</time>
      </trkpt>
      <trkpt lat="44.59983" lon="5.86686">
        <ele>1283.4</ele>
        <time>2023-05-19T08:49:07Z</time>
      </trkpt>
      <trkpt lat="44.59982" lon="5.86687">
        <ele>1283.6</ele>
        <time>2023-05-19T08:49:08Z</time>
      </trkpt>
      <trkpt lat="44.59981" lon="5.86688">
        <ele>1283.6</ele>
        <time>2023-05-19T08:49:09Z</time>
      </trkpt>
      <trkpt lat="44.59978" lon="5.8669">
        <ele>1284.2</ele>
        <time>2023-05-19T08:49:12Z</time>
      </trkpt>
      <trkpt lat="44.59978" lon="5.86691">
        <ele>1284.2</ele>
        <time>2023-05-19T08:49:13Z</time>
      </trkpt>
      <trkpt lat="44.59976" lon="5.86692">
        <ele>1284.4</ele>
        <time>2023-05-19T08:49:14Z</time>
      </trkpt>
      <trkpt lat="44.59976" lon="5.86693">
        <ele>1284.4</ele>
        <time>2023-05-19T08:49:15Z</time>
      </trkpt>
      <trkpt lat="44.59975" lon="5.86694">
        <ele>1284.6</ele>
        <time>2023-05-19T08:49:16Z</time>
      </trkpt>
      <trkpt lat="44.59972" lon="5.86695">
        <ele>1284.8</ele>
        <time>2023-05-19T08:49:18Z</time>
      </trkpt>
      <trkpt lat="44.59971" lon="5.86695">
        <ele>1285</ele>
        <time>2023-05-19T08:49:19Z</time>
      </trkpt>
      <trkpt lat="44.5997" lon="5.86696">
        <ele>1285</ele>
        <time>2023-05-19T08:49:20Z</time>
      </trkpt>
      <trkpt lat="44.59968" lon="5.86697">
        <ele>1285.2</ele>
        <time>2023-05-19T08:49:21Z</time>
      </trkpt>
      <trkpt lat="44.59966" lon="5.86697">
        <ele>1285.4</ele>
        <time>2023-05-19T08:49:23Z</time>
      </trkpt>
      <trkpt lat="44.59965" lon="5.86697">
        <ele>1285.4</ele>
        <time>2023-05-19T08:49:24Z</time>
      </trkpt>
      <trkpt lat="44.59964" lon="5.86697">
        <ele>1285.6</ele>
        <time>2023-05-19T08:49:25Z</time>
      </trkpt>
      <trkpt lat="44.59963" lon="5.86696">
        <ele>1285.6</ele>
        <time>2023-05-19T08:49:26Z</time>
      </trkpt>
      <trkpt lat="44.59962" lon="5.86696">
        <ele>1285.6</ele>
        <time>2023-05-19T08:49:27Z</time>
      </trkpt>
      <trkpt lat="44.59961" lon="5.86696">
        <ele>1285.6</ele>
        <time>2023-05-19T08:49:28Z</time>
      </trkpt>
      <trkpt lat="44.59961" lon="5.86696">
        <ele>1285.8</ele>
        <time>2023-05-19T08:49:29Z</time>
      </trkpt>
      <trkpt lat="44.5996" lon="5.86696">
        <ele>1285.8</ele>
        <time>2023-05-19T08:49:30Z</time>
      </trkpt>
      <trkpt lat="44.59959" lon="5.86696">
        <ele>1285.8</ele>
        <time>2023-05-19T08:49:31Z</time>
      </trkpt>
      <trkpt lat="44.59959" lon="5.86696">
        <ele>1286.4</ele>
        <time>2023-05-19T08:49:33Z</time>
      </trkpt>
      <trkpt lat="44.59959" lon="5.86696">
        <ele>1286.6</ele>
        <time>2023-05-19T08:49:36Z</time>
      </trkpt>
      <trkpt lat="44.59956" lon="5.86696">
        <ele>1287.2</ele>
        <time>2023-05-19T08:49:43Z</time>
      </trkpt>
      <trkpt lat="44.59955" lon="5.86696">
        <ele>1287.2</ele>
        <time>2023-05-19T08:49:44Z</time>
      </trkpt>
      <trkpt lat="44.59954" lon="5.86696">
        <ele>1287.2</ele>
        <time>2023-05-19T08:49:45Z</time>
      </trkpt>
      <trkpt lat="44.59952" lon="5.86696">
        <ele>1287.4</ele>
        <time>2023-05-19T08:49:46Z</time>
      </trkpt>
      <trkpt lat="44.59949" lon="5.86695">
        <ele>1287.4</ele>
        <time>2023-05-19T08:49:48Z</time>
      </trkpt>
      <trkpt lat="44.59943" lon="5.86694">
        <ele>1288.4</ele>
        <time>2023-05-19T08:49:53Z</time>
      </trkpt>
      <trkpt lat="44.59941" lon="5.86694">
        <ele>1288.6</ele>
        <time>2023-05-19T08:49:54Z</time>
      </trkpt>
      <trkpt lat="44.59939" lon="5.86694">
        <ele>1288.8</ele>
        <time>2023-05-19T08:49:56Z</time>
      </trkpt>
      <trkpt lat="44.59937" lon="5.86694">
        <ele>1289.2</ele>
        <time>2023-05-19T08:49:57Z</time>
      </trkpt>
      <trkpt lat="44.59936" lon="5.86694">
        <ele>1289.4</ele>
        <time>2023-05-19T08:49:58Z</time>
      </trkpt>
      <trkpt lat="44.59934" lon="5.86694">
        <ele>1289.4</ele>
        <time>2023-05-19T08:49:59Z</time>
      </trkpt>
      <trkpt lat="44.59933" lon="5.86694">
        <ele>1289.8</ele>
        <time>2023-05-19T08:50:00Z</time>
      </trkpt>
      <trkpt lat="44.59932" lon="5.86694">
        <ele>1289.8</ele>
        <time>2023-05-19T08:50:01Z</time>
      </trkpt>
      <trkpt lat="44.59931" lon="5.86694">
        <ele>1290.4</ele>
        <time>2023-05-19T08:50:02Z</time>
      </trkpt>
      <trkpt lat="44.59929" lon="5.86694">
        <ele>1290.4</ele>
        <time>2023-05-19T08:50:03Z</time>
      </trkpt>
      <trkpt lat="44.59927" lon="5.86694">
        <ele>1290.6</ele>
        <time>2023-05-19T08:50:04Z</time>
      </trkpt>
      <trkpt lat="44.59926" lon="5.86693">
        <ele>1290.8</ele>
        <time>2023-05-19T08:50:05Z</time>
      </trkpt>
      <trkpt lat="44.59924" lon="5.86693">
        <ele>1290.8</ele>
        <time>2023-05-19T08:50:06Z</time>
      </trkpt>
      <trkpt lat="44.59923" lon="5.86693">
        <ele>1291</ele>
        <time>2023-05-19T08:50:07Z</time>
      </trkpt>
      <trkpt lat="44.59922" lon="5.86693">
        <ele>1291</ele>
        <time>2023-05-19T08:50:08Z</time>
      </trkpt>
      <trkpt lat="44.5992" lon="5.86693">
        <ele>1291.2</ele>
        <time>2023-05-19T08:50:09Z</time>
      </trkpt>
      <trkpt lat="44.59919" lon="5.86692">
        <ele>1291.2</ele>
        <time>2023-05-19T08:50:10Z</time>
      </trkpt>
      <trkpt lat="44.59917" lon="5.86692">
        <ele>1291.4</ele>
        <time>2023-05-19T08:50:11Z</time>
      </trkpt>
      <trkpt lat="44.59916" lon="5.86691">
        <ele>1291.4</ele>
        <time>2023-05-19T08:50:12Z</time>
      </trkpt>
      <trkpt lat="44.59914" lon="5.86691">
        <ele>1291.4</ele>
        <time>2023-05-19T08:50:13Z</time>
      </trkpt>
      <trkpt lat="44.59913" lon="5.86691">
        <ele>1291.6</ele>
        <time>2023-05-19T08:50:14Z</time>
      </trkpt>
      <trkpt lat="44.59911" lon="5.8669">
        <ele>1291.6</ele>
        <time>2023-05-19T08:50:15Z</time>
      </trkpt>
      <trkpt lat="44.5991" lon="5.8669">
        <ele>1291.8</ele>
        <time>2023-05-19T08:50:16Z</time>
      </trkpt>
      <trkpt lat="44.59909" lon="5.8669">
        <ele>1291.8</ele>
        <time>2023-05-19T08:50:17Z</time>
      </trkpt>
      <trkpt lat="44.59907" lon="5.86689">
        <ele>1291.8</ele>
        <time>2023-05-19T08:50:18Z</time>
      </trkpt>
      <trkpt lat="44.59905" lon="5.86688">
        <ele>1292</ele>
        <time>2023-05-19T08:50:19Z</time>
      </trkpt>
      <trkpt lat="44.59904" lon="5.86688">
        <ele>1292.2</ele>
        <time>2023-05-19T08:50:20Z</time>
      </trkpt>
      <trkpt lat="44.59902" lon="5.86687">
        <ele>1292.4</ele>
        <time>2023-05-19T08:50:21Z</time>
      </trkpt>
      <trkpt lat="44.59901" lon="5.86687">
        <ele>1292.4</ele>
        <time>2023-05-19T08:50:22Z</time>
      </trkpt>
      <trkpt lat="44.59899" lon="5.86686">
        <ele>1292.6</ele>
        <time>2023-05-19T08:50:23Z</time>
      </trkpt>
      <trkpt lat="44.59898" lon="5.86685">
        <ele>1292.6</ele>
        <time>2023-05-19T08:50:24Z</time>
      </trkpt>
      <trkpt lat="44.59897" lon="5.86685">
        <ele>1292.6</ele>
        <time>2023-05-19T08:50:25Z</time>
      </trkpt>
      <trkpt lat="44.59896" lon="5.86685">
        <ele>1292.6</ele>
        <time>2023-05-19T08:50:26Z</time>
      </trkpt>
      <trkpt lat="44.59895" lon="5.86685">
        <ele>1292.6</ele>
        <time>2023-05-19T08:50:27Z</time>
      </trkpt>
      <trkpt lat="44.59894" lon="5.86684">
        <ele>1292.6</ele>
        <time>2023-05-19T08:50:28Z</time>
      </trkpt>
      <trkpt lat="44.59892" lon="5.86684">
        <ele>1292.6</ele>
        <time>2023-05-19T08:50:29Z</time>
      </trkpt>
      <trkpt lat="44.5989" lon="5.86684">
        <ele>1292.6</ele>
        <time>2023-05-19T08:50:30Z</time>
      </trkpt>
      <trkpt lat="44.59889" lon="5.86683">
        <ele>1292.6</ele>
        <time>2023-05-19T08:50:31Z</time>
      </trkpt>
      <trkpt lat="44.59888" lon="5.86683">
        <ele>1292.6</ele>
        <time>2023-05-19T08:50:32Z</time>
      </trkpt>
      <trkpt lat="44.59886" lon="5.86683">
        <ele>1292.6</ele>
        <time>2023-05-19T08:50:33Z</time>
      </trkpt>
      <trkpt lat="44.59885" lon="5.86683">
        <ele>1292.6</ele>
        <time>2023-05-19T08:50:34Z</time>
      </trkpt>
      <trkpt lat="44.59883" lon="5.86683">
        <ele>1292.6</ele>
        <time>2023-05-19T08:50:35Z</time>
      </trkpt>
      <trkpt lat="44.59878" lon="5.86684">
        <ele>1292.6</ele>
        <time>2023-05-19T08:50:37Z</time>
      </trkpt>
      <trkpt lat="44.59876" lon="5.86684">
        <ele>1292.6</ele>
        <time>2023-05-19T08:50:38Z</time>
      </trkpt>
      <trkpt lat="44.59871" lon="5.86685">
        <ele>1292.6</ele>
        <time>2023-05-19T08:50:40Z</time>
      </trkpt>
      <trkpt lat="44.5987" lon="5.86685">
        <ele>1292.6</ele>
        <time>2023-05-19T08:50:41Z</time>
      </trkpt>
      <trkpt lat="44.59869" lon="5.86685">
        <ele>1292.6</ele>
        <time>2023-05-19T08:50:42Z</time>
      </trkpt>
      <trkpt lat="44.59869" lon="5.86685">
        <ele>1292.6</ele>
        <time>2023-05-19T08:50:43Z</time>
      </trkpt>
      <trkpt lat="44.59868" lon="5.86685">
        <ele>1292.6</ele>
        <time>2023-05-19T08:50:44Z</time>
      </trkpt>
      <trkpt lat="44.59868" lon="5.86684">
        <ele>1292.6</ele>
        <time>2023-05-19T08:50:45Z</time>
      </trkpt>
      <trkpt lat="44.59868" lon="5.86684">
        <ele>1292.6</ele>
        <time>2023-05-19T08:50:46Z</time>
      </trkpt>
      <trkpt lat="44.59868" lon="5.86684">
        <ele>1292.4</ele>
        <time>2023-05-19T08:50:47Z</time>
      </trkpt>
      <trkpt lat="44.59868" lon="5.86684">
        <ele>1293.4</ele>
        <time>2023-05-19T08:51:13Z</time>
      </trkpt>
      <trkpt lat="44.59868" lon="5.86684">
        <ele>1294</ele>
        <time>2023-05-19T08:51:36Z</time>
      </trkpt>
      <trkpt lat="44.59865" lon="5.86684">
        <ele>1294</ele>
        <time>2023-05-19T08:51:38Z</time>
      </trkpt>
      <trkpt lat="44.59854" lon="5.86686">
        <ele>1293.8</ele>
        <time>2023-05-19T08:51:43Z</time>
      </trkpt>
      <trkpt lat="44.59847" lon="5.86687">
        <ele>1293.8</ele>
        <time>2023-05-19T08:51:46Z</time>
      </trkpt>
      <trkpt lat="44.59844" lon="5.86688">
        <ele>1293.8</ele>
        <time>2023-05-19T08:51:47Z</time>
      </trkpt>
      <trkpt lat="44.59842" lon="5.86688">
        <ele>1293.8</ele>
        <time>2023-05-19T08:51:48Z</time>
      </trkpt>
      <trkpt lat="44.59837" lon="5.86688">
        <ele>1293.8</ele>
        <time>2023-05-19T08:51:50Z</time>
      </trkpt>
      <trkpt lat="44.59833" lon="5.86688">
        <ele>1293.8</ele>
        <time>2023-05-19T08:51:52Z</time>
      </trkpt>
      <trkpt lat="44.59819" lon="5.86691">
        <ele>1293.6</ele>
        <time>2023-05-19T08:51:57Z</time>
      </trkpt>
      <trkpt lat="44.59813" lon="5.86697">
        <ele>1293.2</ele>
        <time>2023-05-19T08:52:00Z</time>
      </trkpt>
      <trkpt lat="44.59813" lon="5.867">
        <ele>1293.2</ele>
        <time>2023-05-19T08:52:01Z</time>
      </trkpt>
      <trkpt lat="44.59813" lon="5.86703">
        <ele>1293.2</ele>
        <time>2023-05-19T08:52:02Z</time>
      </trkpt>
      <trkpt lat="44.59815" lon="5.86712">
        <ele>1293</ele>
        <time>2023-05-19T08:52:05Z</time>
      </trkpt>
      <trkpt lat="44.59816" lon="5.86715">
        <ele>1293</ele>
        <time>2023-05-19T08:52:06Z</time>
      </trkpt>
      <trkpt lat="44.59817" lon="5.86718">
        <ele>1293</ele>
        <time>2023-05-19T08:52:07Z</time>
      </trkpt>
      <trkpt lat="44.59818" lon="5.86721">
        <ele>1293</ele>
        <time>2023-05-19T08:52:08Z</time>
      </trkpt>
      <trkpt lat="44.59818" lon="5.86724">
        <ele>1293</ele>
        <time>2023-05-19T08:52:09Z</time>
      </trkpt>
      <trkpt lat="44.59819" lon="5.86727">
        <ele>1293</ele>
        <time>2023-05-19T08:52:10Z</time>
      </trkpt>
      <trkpt lat="44.5982" lon="5.8673">
        <ele>1293</ele>
        <time>2023-05-19T08:52:11Z</time>
      </trkpt>
      <trkpt lat="44.59821" lon="5.86736">
        <ele>1293</ele>
        <time>2023-05-19T08:52:13Z</time>
      </trkpt>
      <trkpt lat="44.5982" lon="5.86738">
        <ele>1293</ele>
        <time>2023-05-19T08:52:14Z</time>
      </trkpt>
      <trkpt lat="44.5982" lon="5.86739">
        <ele>1293</ele>
        <time>2023-05-19T08:52:15Z</time>
      </trkpt>
      <trkpt lat="44.59819" lon="5.86741">
        <ele>1293.2</ele>
        <time>2023-05-19T08:52:16Z</time>
      </trkpt>
      <trkpt lat="44.59819" lon="5.86742">
        <ele>1293.2</ele>
        <time>2023-05-19T08:52:17Z</time>
      </trkpt>
      <trkpt lat="44.59818" lon="5.86743">
        <ele>1293.2</ele>
        <time>2023-05-19T08:52:18Z</time>
      </trkpt>
      <trkpt lat="44.59819" lon="5.86744">
        <ele>1293.2</ele>
        <time>2023-05-19T08:52:19Z</time>
      </trkpt>
      <trkpt lat="44.59819" lon="5.86746">
        <ele>1293.2</ele>
        <time>2023-05-19T08:52:20Z</time>
      </trkpt>
      <trkpt lat="44.59819" lon="5.86747">
        <ele>1293.2</ele>
        <time>2023-05-19T08:52:21Z</time>
      </trkpt>
      <trkpt lat="44.59821" lon="5.86749">
        <ele>1293.2</ele>
        <time>2023-05-19T08:52:23Z</time>
      </trkpt>
      <trkpt lat="44.59822" lon="5.8675">
        <ele>1293.2</ele>
        <time>2023-05-19T08:52:24Z</time>
      </trkpt>
      <trkpt lat="44.59826" lon="5.8676">
        <ele>1293.2</ele>
        <time>2023-05-19T08:52:29Z</time>
      </trkpt>
      <trkpt lat="44.59832" lon="5.86779">
        <ele>1293.8</ele>
        <time>2023-05-19T08:52:37Z</time>
      </trkpt>
      <trkpt lat="44.59833" lon="5.86783">
        <ele>1294</ele>
        <time>2023-05-19T08:52:39Z</time>
      </trkpt>
      <trkpt lat="44.59834" lon="5.8679">
        <ele>1294.4</ele>
        <time>2023-05-19T08:52:42Z</time>
      </trkpt>
      <trkpt lat="44.59835" lon="5.86792">
        <ele>1294.6</ele>
        <time>2023-05-19T08:52:43Z</time>
      </trkpt>
      <trkpt lat="44.59836" lon="5.86794">
        <ele>1294.8</ele>
        <time>2023-05-19T08:52:44Z</time>
      </trkpt>
      <trkpt lat="44.59836" lon="5.86796">
        <ele>1294.8</ele>
        <time>2023-05-19T08:52:45Z</time>
      </trkpt>
      <trkpt lat="44.59837" lon="5.86798">
        <ele>1295</ele>
        <time>2023-05-19T08:52:46Z</time>
      </trkpt>
      <trkpt lat="44.59837" lon="5.86801">
        <ele>1295</ele>
        <time>2023-05-19T08:52:47Z</time>
      </trkpt>
      <trkpt lat="44.5984" lon="5.86812">
        <ele>1295.8</ele>
        <time>2023-05-19T08:52:52Z</time>
      </trkpt>
      <trkpt lat="44.59842" lon="5.86823">
        <ele>1296.8</ele>
        <time>2023-05-19T08:52:57Z</time>
      </trkpt>
      <trkpt lat="44.59842" lon="5.86825">
        <ele>1297</ele>
        <time>2023-05-19T08:52:58Z</time>
      </trkpt>
      <trkpt lat="44.59843" lon="5.86827">
        <ele>1297.2</ele>
        <time>2023-05-19T08:52:59Z</time>
      </trkpt>
      <trkpt lat="44.59843" lon="5.8683">
        <ele>1297.4</ele>
        <time>2023-05-19T08:53:00Z</time>
      </trkpt>
      <trkpt lat="44.59843" lon="5.86832">
        <ele>1297.6</ele>
        <time>2023-05-19T08:53:01Z</time>
      </trkpt>
      <trkpt lat="44.59843" lon="5.86834">
        <ele>1297.8</ele>
        <time>2023-05-19T08:53:02Z</time>
      </trkpt>
      <trkpt lat="44.59842" lon="5.86835">
        <ele>1298</ele>
        <time>2023-05-19T08:53:03Z</time>
      </trkpt>
      <trkpt lat="44.5984" lon="5.86837">
        <ele>1298.4</ele>
        <time>2023-05-19T08:53:04Z</time>
      </trkpt>
      <trkpt lat="44.59839" lon="5.86838">
        <ele>1298.6</ele>
        <time>2023-05-19T08:53:05Z</time>
      </trkpt>
      <trkpt lat="44.59837" lon="5.86839">
        <ele>1299</ele>
        <time>2023-05-19T08:53:06Z</time>
      </trkpt>
      <trkpt lat="44.59835" lon="5.8684">
        <ele>1299.4</ele>
        <time>2023-05-19T08:53:07Z</time>
      </trkpt>
      <trkpt lat="44.59833" lon="5.86841">
        <ele>1299.8</ele>
        <time>2023-05-19T08:53:08Z</time>
      </trkpt>
      <trkpt lat="44.5983" lon="5.86842">
        <ele>1300.2</ele>
        <time>2023-05-19T08:53:09Z</time>
      </trkpt>
      <trkpt lat="44.59828" lon="5.86844">
        <ele>1300.2</ele>
        <time>2023-05-19T08:53:10Z</time>
      </trkpt>
      <trkpt lat="44.59825" lon="5.86845">
        <ele>1300.6</ele>
        <time>2023-05-19T08:53:11Z</time>
      </trkpt>
      <trkpt lat="44.59823" lon="5.86846">
        <ele>1300.6</ele>
        <time>2023-05-19T08:53:12Z</time>
      </trkpt>
      <trkpt lat="44.5982" lon="5.86847">
        <ele>1300.6</ele>
        <time>2023-05-19T08:53:13Z</time>
      </trkpt>
      <trkpt lat="44.59818" lon="5.86848">
        <ele>1300.6</ele>
        <time>2023-05-19T08:53:14Z</time>
      </trkpt>
      <trkpt lat="44.59816" lon="5.86849">
        <ele>1300.8</ele>
        <time>2023-05-19T08:53:15Z</time>
      </trkpt>
      <trkpt lat="44.59813" lon="5.86851">
        <ele>1300.8</ele>
        <time>2023-05-19T08:53:16Z</time>
      </trkpt>
      <trkpt lat="44.59811" lon="5.86853">
        <ele>1300.8</ele>
        <time>2023-05-19T08:53:17Z</time>
      </trkpt>
      <trkpt lat="44.59808" lon="5.86854">
        <ele>1300.8</ele>
        <time>2023-05-19T08:53:18Z</time>
      </trkpt>
      <trkpt lat="44.59805" lon="5.86856">
        <ele>1300.8</ele>
        <time>2023-05-19T08:53:19Z</time>
      </trkpt>
      <trkpt lat="44.59803" lon="5.86857">
        <ele>1301</ele>
        <time>2023-05-19T08:53:20Z</time>
      </trkpt>
      <trkpt lat="44.598" lon="5.86859">
        <ele>1301</ele>
        <time>2023-05-19T08:53:21Z</time>
      </trkpt>
      <trkpt lat="44.59798" lon="5.8686">
        <ele>1301.2</ele>
        <time>2023-05-19T08:53:22Z</time>
      </trkpt>
      <trkpt lat="44.59795" lon="5.86861">
        <ele>1301.2</ele>
        <time>2023-05-19T08:53:23Z</time>
      </trkpt>
      <trkpt lat="44.59793" lon="5.86862">
        <ele>1301.4</ele>
        <time>2023-05-19T08:53:24Z</time>
      </trkpt>
      <trkpt lat="44.5979" lon="5.86864">
        <ele>1301.4</ele>
        <time>2023-05-19T08:53:25Z</time>
      </trkpt>
      <trkpt lat="44.59788" lon="5.86866">
        <ele>1301.4</ele>
        <time>2023-05-19T08:53:26Z</time>
      </trkpt>
      <trkpt lat="44.59785" lon="5.86867">
        <ele>1301.6</ele>
        <time>2023-05-19T08:53:27Z</time>
      </trkpt>
      <trkpt lat="44.59783" lon="5.86869">
        <ele>1301.6</ele>
        <time>2023-05-19T08:53:28Z</time>
      </trkpt>
      <trkpt lat="44.5978" lon="5.8687">
        <ele>1301.8</ele>
        <time>2023-05-19T08:53:29Z</time>
      </trkpt>
      <trkpt lat="44.59777" lon="5.86872">
        <ele>1302</ele>
        <time>2023-05-19T08:53:30Z</time>
      </trkpt>
      <trkpt lat="44.59774" lon="5.86874">
        <ele>1302</ele>
        <time>2023-05-19T08:53:31Z</time>
      </trkpt>
      <trkpt lat="44.59771" lon="5.86876">
        <ele>1302</ele>
        <time>2023-05-19T08:53:32Z</time>
      </trkpt>
      <trkpt lat="44.59768" lon="5.86878">
        <ele>1302.2</ele>
        <time>2023-05-19T08:53:33Z</time>
      </trkpt>
      <trkpt lat="44.59765" lon="5.8688">
        <ele>1302.2</ele>
        <time>2023-05-19T08:53:34Z</time>
      </trkpt>
      <trkpt lat="44.59763" lon="5.86881">
        <ele>1302.2</ele>
        <time>2023-05-19T08:53:35Z</time>
      </trkpt>
      <trkpt lat="44.5976" lon="5.86883">
        <ele>1302.4</ele>
        <time>2023-05-19T08:53:36Z</time>
      </trkpt>
      <trkpt lat="44.59757" lon="5.86885">
        <ele>1302.4</ele>
        <time>2023-05-19T08:53:37Z</time>
      </trkpt>
      <trkpt lat="44.59754" lon="5.86886">
        <ele>1302.4</ele>
        <time>2023-05-19T08:53:38Z</time>
      </trkpt>
      <trkpt lat="44.59751" lon="5.86888">
        <ele>1302.6</ele>
        <time>2023-05-19T08:53:39Z</time>
      </trkpt>
      <trkpt lat="44.59749" lon="5.86889">
        <ele>1302.6</ele>
        <time>2023-05-19T08:53:40Z</time>
      </trkpt>
      <trkpt lat="44.59746" lon="5.86891">
        <ele>1302.6</ele>
        <time>2023-05-19T08:53:41Z</time>
      </trkpt>
      <trkpt lat="44.59743" lon="5.86893">
        <ele>1302.6</ele>
        <time>2023-05-19T08:53:42Z</time>
      </trkpt>
      <trkpt lat="44.5974" lon="5.86895">
        <ele>1302.6</ele>
        <time>2023-05-19T08:53:43Z</time>
      </trkpt>
      <trkpt lat="44.59735" lon="5.86898">
        <ele>1302.8</ele>
        <time>2023-05-19T08:53:45Z</time>
      </trkpt>
      <trkpt lat="44.59725" lon="5.86906">
        <ele>1302.8</ele>
        <time>2023-05-19T08:53:49Z</time>
      </trkpt>
      <trkpt lat="44.59723" lon="5.86908">
        <ele>1302.8</ele>
        <time>2023-05-19T08:53:50Z</time>
      </trkpt>
      <trkpt lat="44.5972" lon="5.86911">
        <ele>1302.8</ele>
        <time>2023-05-19T08:53:51Z</time>
      </trkpt>
      <trkpt lat="44.59707" lon="5.86927">
        <ele>1302.8</ele>
        <time>2023-05-19T08:53:57Z</time>
      </trkpt>
      <trkpt lat="44.59689" lon="5.86952">
        <ele>1303.2</ele>
        <time>2023-05-19T08:54:05Z</time>
      </trkpt>
      <trkpt lat="44.59681" lon="5.86969">
        <ele>1303.2</ele>
        <time>2023-05-19T08:54:10Z</time>
      </trkpt>
      <trkpt lat="44.59679" lon="5.86973">
        <ele>1303.2</ele>
        <time>2023-05-19T08:54:11Z</time>
      </trkpt>
      <trkpt lat="44.59678" lon="5.86977">
        <ele>1303.2</ele>
        <time>2023-05-19T08:54:12Z</time>
      </trkpt>
      <trkpt lat="44.59676" lon="5.8698">
        <ele>1303.2</ele>
        <time>2023-05-19T08:54:13Z</time>
      </trkpt>
      <trkpt lat="44.59676" lon="5.86981">
        <ele>1303.2</ele>
        <time>2023-05-19T08:54:14Z</time>
      </trkpt>
      <trkpt lat="44.59676" lon="5.86981">
        <ele>1303.2</ele>
        <time>2023-05-19T08:54:15Z</time>
      </trkpt>
      <trkpt lat="44.59677" lon="5.86981">
        <ele>1303.2</ele>
        <time>2023-05-19T08:54:16Z</time>
      </trkpt>
      <trkpt lat="44.59677" lon="5.8698">
        <ele>1303.2</ele>
        <time>2023-05-19T08:54:18Z</time>
      </trkpt>
      <trkpt lat="44.59679" lon="5.86977">
        <ele>1303</ele>
        <time>2023-05-19T08:54:21Z</time>
      </trkpt>
      <trkpt lat="44.59683" lon="5.86969">
        <ele>1303</ele>
        <time>2023-05-19T08:54:26Z</time>
      </trkpt>
      <trkpt lat="44.59683" lon="5.86969">
        <ele>1303</ele>
        <time>2023-05-19T08:54:28Z</time>
      </trkpt>
      <trkpt lat="44.59683" lon="5.86969">
        <ele>1303</ele>
        <time>2023-05-19T08:54:29Z</time>
      </trkpt>
      <trkpt lat="44.59682" lon="5.86969">
        <ele>1303</ele>
        <time>2023-05-19T08:54:38Z</time>
      </trkpt>
      <trkpt lat="44.59685" lon="5.86964">
        <ele>1302.8</ele>
        <time>2023-05-19T08:54:45Z</time>
      </trkpt>
      <trkpt lat="44.5969" lon="5.86956">
        <ele>1302.6</ele>
        <time>2023-05-19T08:54:51Z</time>
      </trkpt>
      <trkpt lat="44.59691" lon="5.86953">
        <ele>1302.6</ele>
        <time>2023-05-19T08:54:53Z</time>
      </trkpt>
      <trkpt lat="44.59692" lon="5.86952">
        <ele>1302.6</ele>
        <time>2023-05-19T08:54:54Z</time>
      </trkpt>
      <trkpt lat="44.59692" lon="5.86952">
        <ele>1302.6</ele>
        <time>2023-05-19T08:54:55Z</time>
      </trkpt>
      <trkpt lat="44.59693" lon="5.86951">
        <ele>1302.8</ele>
        <time>2023-05-19T08:54:56Z</time>
      </trkpt>
      <trkpt lat="44.59693" lon="5.86951">
        <ele>1302.8</ele>
        <time>2023-05-19T08:54:57Z</time>
      </trkpt>
      <trkpt lat="44.59694" lon="5.86948">
        <ele>1302.8</ele>
        <time>2023-05-19T08:55:01Z</time>
      </trkpt>
      <trkpt lat="44.59694" lon="5.86946">
        <ele>1302.8</ele>
        <time>2023-05-19T08:55:02Z</time>
      </trkpt>
      <trkpt lat="44.59695" lon="5.86945">
        <ele>1302.8</ele>
        <time>2023-05-19T08:55:03Z</time>
      </trkpt>
      <trkpt lat="44.59695" lon="5.86945">
        <ele>1302.8</ele>
        <time>2023-05-19T08:55:04Z</time>
      </trkpt>
      <trkpt lat="44.59695" lon="5.86944">
        <ele>1302.8</ele>
        <time>2023-05-19T08:55:05Z</time>
      </trkpt>
      <trkpt lat="44.59695" lon="5.86944">
        <ele>1302.8</ele>
        <time>2023-05-19T08:55:08Z</time>
      </trkpt>
      <trkpt lat="44.59693" lon="5.86947">
        <ele>1303</ele>
        <time>2023-05-19T08:55:11Z</time>
      </trkpt>
      <trkpt lat="44.59691" lon="5.86951">
        <ele>1303</ele>
        <time>2023-05-19T08:55:13Z</time>
      </trkpt>
      <trkpt lat="44.5969" lon="5.86953">
        <ele>1303</ele>
        <time>2023-05-19T08:55:14Z</time>
      </trkpt>
      <trkpt lat="44.59689" lon="5.86955">
        <ele>1303</ele>
        <time>2023-05-19T08:55:15Z</time>
      </trkpt>
      <trkpt lat="44.59686" lon="5.86961">
        <ele>1303</ele>
        <time>2023-05-19T08:55:18Z</time>
      </trkpt>
      <trkpt lat="44.59686" lon="5.86963">
        <ele>1303</ele>
        <time>2023-05-19T08:55:19Z</time>
      </trkpt>
      <trkpt lat="44.59685" lon="5.86965">
        <ele>1303</ele>
        <time>2023-05-19T08:55:20Z</time>
      </trkpt>
      <trkpt lat="44.59685" lon="5.86966">
        <ele>1303</ele>
        <time>2023-05-19T08:55:21Z</time>
      </trkpt>
      <trkpt lat="44.59684" lon="5.86968">
        <ele>1302.8</ele>
        <time>2023-05-19T08:55:22Z</time>
      </trkpt>
      <trkpt lat="44.59683" lon="5.8697">
        <ele>1302.8</ele>
        <time>2023-05-19T08:55:23Z</time>
      </trkpt>
      <trkpt lat="44.59683" lon="5.86971">
        <ele>1302.8</ele>
        <time>2023-05-19T08:55:24Z</time>
      </trkpt>
      <trkpt lat="44.59682" lon="5.86972">
        <ele>1302.8</ele>
        <time>2023-05-19T08:55:25Z</time>
      </trkpt>
      <trkpt lat="44.59682" lon="5.86973">
        <ele>1302.8</ele>
        <time>2023-05-19T08:55:26Z</time>
      </trkpt>
      <trkpt lat="44.59682" lon="5.86974">
        <ele>1302.6</ele>
        <time>2023-05-19T08:55:27Z</time>
      </trkpt>
      <trkpt lat="44.59681" lon="5.86975">
        <ele>1302.6</ele>
        <time>2023-05-19T08:55:28Z</time>
      </trkpt>
      <trkpt lat="44.59681" lon="5.86975">
        <ele>1302.8</ele>
        <time>2023-05-19T08:55:29Z</time>
      </trkpt>
      <trkpt lat="44.5968" lon="5.86974">
        <ele>1302.6</ele>
        <time>2023-05-19T08:55:30Z</time>
      </trkpt>
      <trkpt lat="44.59681" lon="5.86973">
        <ele>1302.6</ele>
        <time>2023-05-19T08:55:31Z</time>
      </trkpt>
      <trkpt lat="44.59682" lon="5.86972">
        <ele>1302.6</ele>
        <time>2023-05-19T08:55:32Z</time>
      </trkpt>
      <trkpt lat="44.59683" lon="5.8697">
        <ele>1302.6</ele>
        <time>2023-05-19T08:55:33Z</time>
      </trkpt>
      <trkpt lat="44.59684" lon="5.86969">
        <ele>1302.8</ele>
        <time>2023-05-19T08:55:34Z</time>
      </trkpt>
      <trkpt lat="44.59684" lon="5.86968">
        <ele>1302.8</ele>
        <time>2023-05-19T08:55:35Z</time>
      </trkpt>
      <trkpt lat="44.59685" lon="5.86965">
        <ele>1302.8</ele>
        <time>2023-05-19T08:55:37Z</time>
      </trkpt>
      <trkpt lat="44.59685" lon="5.86964">
        <ele>1302.8</ele>
        <time>2023-05-19T08:55:38Z</time>
      </trkpt>
      <trkpt lat="44.59688" lon="5.86961">
        <ele>1302.8</ele>
        <time>2023-05-19T08:55:41Z</time>
      </trkpt>
      <trkpt lat="44.59688" lon="5.86959">
        <ele>1302.8</ele>
        <time>2023-05-19T08:55:42Z</time>
      </trkpt>
      <trkpt lat="44.59689" lon="5.86957">
        <ele>1302.8</ele>
        <time>2023-05-19T08:55:43Z</time>
      </trkpt>
      <trkpt lat="44.5969" lon="5.86958">
        <ele>1302.8</ele>
        <time>2023-05-19T08:55:44Z</time>
      </trkpt>
      <trkpt lat="44.5969" lon="5.86959">
        <ele>1302.8</ele>
        <time>2023-05-19T08:55:45Z</time>
      </trkpt>
      <trkpt lat="44.59683" lon="5.86971">
        <ele>1303</ele>
        <time>2023-05-19T08:55:52Z</time>
      </trkpt>
      <trkpt lat="44.59679" lon="5.8698">
        <ele>1303.2</ele>
        <time>2023-05-19T08:55:57Z</time>
      </trkpt>
      <trkpt lat="44.59677" lon="5.86982">
        <ele>1303</ele>
        <time>2023-05-19T08:55:58Z</time>
      </trkpt>
      <trkpt lat="44.59675" lon="5.86987">
        <ele>1302.8</ele>
        <time>2023-05-19T08:56:00Z</time>
      </trkpt>
      <trkpt lat="44.59666" lon="5.87005">
        <ele>1302.4</ele>
        <time>2023-05-19T08:56:06Z</time>
      </trkpt>
      <trkpt lat="44.59654" lon="5.87024">
        <ele>1302</ele>
        <time>2023-05-19T08:56:14Z</time>
      </trkpt>
      <trkpt lat="44.59654" lon="5.87024">
        <ele>1302.2</ele>
        <time>2023-05-19T08:56:15Z</time>
      </trkpt>
      <trkpt lat="44.59654" lon="5.87024">
        <ele>1302.2</ele>
        <time>2023-05-19T08:56:16Z</time>
      </trkpt>
      <trkpt lat="44.59654" lon="5.87024">
        <ele>1302.4</ele>
        <time>2023-05-19T08:56:18Z</time>
      </trkpt>
      <trkpt lat="44.59654" lon="5.87024">
        <ele>1301.8</ele>
        <time>2023-05-19T08:56:31Z</time>
      </trkpt>
      <trkpt lat="44.59652" lon="5.87026">
        <ele>1301</ele>
        <time>2023-05-19T08:57:08Z</time>
      </trkpt>
      <trkpt lat="44.5965" lon="5.87029">
        <ele>1301</ele>
        <time>2023-05-19T08:57:10Z</time>
      </trkpt>
      <trkpt lat="44.59648" lon="5.87032">
        <ele>1301</ele>
        <time>2023-05-19T08:57:11Z</time>
      </trkpt>
      <trkpt lat="44.59646" lon="5.87035">
        <ele>1301</ele>
        <time>2023-05-19T08:57:12Z</time>
      </trkpt>
      <trkpt lat="44.59638" lon="5.87046">
        <ele>1301.4</ele>
        <time>2023-05-19T08:57:16Z</time>
      </trkpt>
      <trkpt lat="44.5963" lon="5.87058">
        <ele>1301.4</ele>
        <time>2023-05-19T08:57:20Z</time>
      </trkpt>
      <trkpt lat="44.59618" lon="5.87076">
        <ele>1301.2</ele>
        <time>2023-05-19T08:57:26Z</time>
      </trkpt>
      <trkpt lat="44.596" lon="5.87102">
        <ele>1301.4</ele>
        <time>2023-05-19T08:57:34Z</time>
      </trkpt>
      <trkpt lat="44.59599" lon="5.87105">
        <ele>1301.4</ele>
        <time>2023-05-19T08:57:35Z</time>
      </trkpt>
      <trkpt lat="44.5959" lon="5.87122">
        <ele>1301</ele>
        <time>2023-05-19T08:57:40Z</time>
      </trkpt>
      <trkpt lat="44.59588" lon="5.87125">
        <ele>1301</ele>
        <time>2023-05-19T08:57:41Z</time>
      </trkpt>
      <trkpt lat="44.59587" lon="5.87129">
        <ele>1301</ele>
        <time>2023-05-19T08:57:42Z</time>
      </trkpt>
      <trkpt lat="44.59586" lon="5.87132">
        <ele>1301</ele>
        <time>2023-05-19T08:57:43Z</time>
      </trkpt>
      <trkpt lat="44.59583" lon="5.87138">
        <ele>1300.8</ele>
        <time>2023-05-19T08:57:45Z</time>
      </trkpt>
      <trkpt lat="44.59582" lon="5.87141">
        <ele>1300.8</ele>
        <time>2023-05-19T08:57:46Z</time>
      </trkpt>
      <trkpt lat="44.59581" lon="5.87144">
        <ele>1300.8</ele>
        <time>2023-05-19T08:57:47Z</time>
      </trkpt>
      <trkpt lat="44.59579" lon="5.87147">
        <ele>1300.8</ele>
        <time>2023-05-19T08:57:48Z</time>
      </trkpt>
      <trkpt lat="44.59578" lon="5.8715">
        <ele>1300.8</ele>
        <time>2023-05-19T08:57:49Z</time>
      </trkpt>
      <trkpt lat="44.59577" lon="5.87153">
        <ele>1300.8</ele>
        <time>2023-05-19T08:57:50Z</time>
      </trkpt>
      <trkpt lat="44.59576" lon="5.87156">
        <ele>1300.8</ele>
        <time>2023-05-19T08:57:51Z</time>
      </trkpt>
      <trkpt lat="44.59574" lon="5.87158">
        <ele>1300.8</ele>
        <time>2023-05-19T08:57:52Z</time>
      </trkpt>
      <trkpt lat="44.59573" lon="5.87161">
        <ele>1300.8</ele>
        <time>2023-05-19T08:57:53Z</time>
      </trkpt>
      <trkpt lat="44.59572" lon="5.87164">
        <ele>1300.8</ele>
        <time>2023-05-19T08:57:54Z</time>
      </trkpt>
      <trkpt lat="44.59567" lon="5.87175">
        <ele>1300.8</ele>
        <time>2023-05-19T08:57:57Z</time>
      </trkpt>
      <trkpt lat="44.59552" lon="5.87208">
        <ele>1300.4</ele>
        <time>2023-05-19T08:58:06Z</time>
      </trkpt>
      <trkpt lat="44.5954" lon="5.87235">
        <ele>1299.8</ele>
        <time>2023-05-19T08:58:13Z</time>
      </trkpt>
      <trkpt lat="44.59538" lon="5.87239">
        <ele>1299.8</ele>
        <time>2023-05-19T08:58:14Z</time>
      </trkpt>
      <trkpt lat="44.59529" lon="5.87269">
        <ele>1299</ele>
        <time>2023-05-19T08:58:20Z</time>
      </trkpt>
      <trkpt lat="44.59527" lon="5.87281">
        <ele>1298.8</ele>
        <time>2023-05-19T08:58:22Z</time>
      </trkpt>
      <trkpt lat="44.59526" lon="5.8731">
        <ele>1297.6</ele>
        <time>2023-05-19T08:58:26Z</time>
      </trkpt>
      <trkpt lat="44.59525" lon="5.87331">
        <ele>1297.2</ele>
        <time>2023-05-19T08:58:29Z</time>
      </trkpt>
      <trkpt lat="44.59525" lon="5.87338">
        <ele>1296.6</ele>
        <time>2023-05-19T08:58:30Z</time>
      </trkpt>
      <trkpt lat="44.59523" lon="5.87359">
        <ele>1295.6</ele>
        <time>2023-05-19T08:58:33Z</time>
      </trkpt>
      <trkpt lat="44.59522" lon="5.87374">
        <ele>1294.4</ele>
        <time>2023-05-19T08:58:35Z</time>
      </trkpt>
      <trkpt lat="44.59521" lon="5.87381">
        <ele>1294</ele>
        <time>2023-05-19T08:58:36Z</time>
      </trkpt>
      <trkpt lat="44.59518" lon="5.87391">
        <ele>1293</ele>
        <time>2023-05-19T08:58:38Z</time>
      </trkpt>
      <trkpt lat="44.59518" lon="5.87395">
        <ele>1292</ele>
        <time>2023-05-19T08:58:39Z</time>
      </trkpt>
      <trkpt lat="44.59518" lon="5.87399">
        <ele>1291.6</ele>
        <time>2023-05-19T08:58:40Z</time>
      </trkpt>
      <trkpt lat="44.59519" lon="5.87402">
        <ele>1290.6</ele>
        <time>2023-05-19T08:58:41Z</time>
      </trkpt>
      <trkpt lat="44.5952" lon="5.87405">
        <ele>1290.2</ele>
        <time>2023-05-19T08:58:42Z</time>
      </trkpt>
      <trkpt lat="44.59522" lon="5.87409">
        <ele>1289.2</ele>
        <time>2023-05-19T08:58:43Z</time>
      </trkpt>
      <trkpt lat="44.59522" lon="5.87414">
        <ele>1289</ele>
        <time>2023-05-19T08:58:44Z</time>
      </trkpt>
      <trkpt lat="44.59522" lon="5.87417">
        <ele>1288.4</ele>
        <time>2023-05-19T08:58:45Z</time>
      </trkpt>
      <trkpt lat="44.59522" lon="5.87421">
        <ele>1288.2</ele>
        <time>2023-05-19T08:58:46Z</time>
      </trkpt>
      <trkpt lat="44.59523" lon="5.87425">
        <ele>1287.4</ele>
        <time>2023-05-19T08:58:47Z</time>
      </trkpt>
      <trkpt lat="44.59524" lon="5.87429">
        <ele>1286.8</ele>
        <time>2023-05-19T08:58:48Z</time>
      </trkpt>
      <trkpt lat="44.59525" lon="5.87432">
        <ele>1286.6</ele>
        <time>2023-05-19T08:58:49Z</time>
      </trkpt>
      <trkpt lat="44.59526" lon="5.87435">
        <ele>1285.6</ele>
        <time>2023-05-19T08:58:50Z</time>
      </trkpt>
      <trkpt lat="44.59527" lon="5.87438">
        <ele>1285.4</ele>
        <time>2023-05-19T08:58:51Z</time>
      </trkpt>
      <trkpt lat="44.59528" lon="5.8744">
        <ele>1284.6</ele>
        <time>2023-05-19T08:58:52Z</time>
      </trkpt>
      <trkpt lat="44.59529" lon="5.87442">
        <ele>1284.2</ele>
        <time>2023-05-19T08:58:53Z</time>
      </trkpt>
      <trkpt lat="44.59529" lon="5.87445">
        <ele>1283.6</ele>
        <time>2023-05-19T08:58:54Z</time>
      </trkpt>
      <trkpt lat="44.59529" lon="5.87447">
        <ele>1283.4</ele>
        <time>2023-05-19T08:58:55Z</time>
      </trkpt>
      <trkpt lat="44.5953" lon="5.8745">
        <ele>1283.4</ele>
        <time>2023-05-19T08:58:56Z</time>
      </trkpt>
      <trkpt lat="44.5953" lon="5.87452">
        <ele>1282.4</ele>
        <time>2023-05-19T08:58:57Z</time>
      </trkpt>
      <trkpt lat="44.59531" lon="5.87455">
        <ele>1282</ele>
        <time>2023-05-19T08:58:58Z</time>
      </trkpt>
      <trkpt lat="44.59533" lon="5.87467">
        <ele>1280.6</ele>
        <time>2023-05-19T08:59:01Z</time>
      </trkpt>
      <trkpt lat="44.59533" lon="5.87477">
        <ele>1279.2</ele>
        <time>2023-05-19T08:59:03Z</time>
      </trkpt>
      <trkpt lat="44.59532" lon="5.87487">
        <ele>1277.8</ele>
        <time>2023-05-19T08:59:05Z</time>
      </trkpt>
      <trkpt lat="44.59532" lon="5.87497">
        <ele>1276.4</ele>
        <time>2023-05-19T08:59:07Z</time>
      </trkpt>
      <trkpt lat="44.59531" lon="5.87502">
        <ele>1275.4</ele>
        <time>2023-05-19T08:59:08Z</time>
      </trkpt>
      <trkpt lat="44.59531" lon="5.87505">
        <ele>1275.2</ele>
        <time>2023-05-19T08:59:09Z</time>
      </trkpt>
      <trkpt lat="44.59532" lon="5.87508">
        <ele>1274.4</ele>
        <time>2023-05-19T08:59:10Z</time>
      </trkpt>
      <trkpt lat="44.59533" lon="5.87511">
        <ele>1274.2</ele>
        <time>2023-05-19T08:59:11Z</time>
      </trkpt>
      <trkpt lat="44.59534" lon="5.87513">
        <ele>1273</ele>
        <time>2023-05-19T08:59:12Z</time>
      </trkpt>
      <trkpt lat="44.59534" lon="5.87514">
        <ele>1271.6</ele>
        <time>2023-05-19T08:59:13Z</time>
      </trkpt>
      <trkpt lat="44.59534" lon="5.87515">
        <ele>1271</ele>
        <time>2023-05-19T08:59:14Z</time>
      </trkpt>
      <trkpt lat="44.59534" lon="5.87517">
        <ele>1270.2</ele>
        <time>2023-05-19T08:59:15Z</time>
      </trkpt>
      <trkpt lat="44.59535" lon="5.87517">
        <ele>1269.8</ele>
        <time>2023-05-19T08:59:16Z</time>
      </trkpt>
      <trkpt lat="44.59535" lon="5.87517">
        <ele>1268.6</ele>
        <time>2023-05-19T08:59:18Z</time>
      </trkpt>
      <trkpt lat="44.59535" lon="5.87517">
        <ele>1268</ele>
        <time>2023-05-19T08:59:19Z</time>
      </trkpt>
      <trkpt lat="44.59535" lon="5.87517">
        <ele>1267.4</ele>
        <time>2023-05-19T08:59:20Z</time>
      </trkpt>
      <trkpt lat="44.59535" lon="5.87518">
        <ele>1266.4</ele>
        <time>2023-05-19T08:59:25Z</time>
      </trkpt>
      <trkpt lat="44.59535" lon="5.87518">
        <ele>1266.2</ele>
        <time>2023-05-19T08:59:26Z</time>
      </trkpt>
      <trkpt lat="44.59535" lon="5.87518">
        <ele>1265.8</ele>
        <time>2023-05-19T08:59:38Z</time>
      </trkpt>
      <trkpt lat="44.59533" lon="5.87524">
        <ele>1265.2</ele>
        <time>2023-05-19T08:59:48Z</time>
      </trkpt>
      <trkpt lat="44.59533" lon="5.87525">
        <ele>1265.2</ele>
        <time>2023-05-19T08:59:49Z</time>
      </trkpt>
      <trkpt lat="44.59532" lon="5.87525">
        <ele>1265.2</ele>
        <time>2023-05-19T08:59:50Z</time>
      </trkpt>
      <trkpt lat="44.59532" lon="5.87525">
        <ele>1265.2</ele>
        <time>2023-05-19T08:59:51Z</time>
      </trkpt>
      <trkpt lat="44.59532" lon="5.87525">
        <ele>1265.2</ele>
        <time>2023-05-19T08:59:52Z</time>
      </trkpt>
      <trkpt lat="44.59532" lon="5.87525">
        <ele>1265.2</ele>
        <time>2023-05-19T08:59:53Z</time>
      </trkpt>
      <trkpt lat="44.59532" lon="5.87525">
        <ele>1265.2</ele>
        <time>2023-05-19T08:59:54Z</time>
      </trkpt>
      <trkpt lat="44.59531" lon="5.87526">
        <ele>1265.2</ele>
        <time>2023-05-19T08:59:57Z</time>
      </trkpt>
      <trkpt lat="44.5953" lon="5.87526">
        <ele>1265.4</ele>
        <time>2023-05-19T08:59:58Z</time>
      </trkpt>
      <trkpt lat="44.5953" lon="5.87526">
        <ele>1265.4</ele>
        <time>2023-05-19T09:00:01Z</time>
      </trkpt>
      <trkpt lat="44.59529" lon="5.87527">
        <ele>1265.6</ele>
        <time>2023-05-19T09:00:09Z</time>
      </trkpt>
      <trkpt lat="44.59527" lon="5.87527">
        <ele>1267.2</ele>
        <time>2023-05-19T09:00:24Z</time>
      </trkpt>
      <trkpt lat="44.59527" lon="5.87527">
        <ele>1268</ele>
        <time>2023-05-19T09:00:27Z</time>
      </trkpt>
      <trkpt lat="44.59527" lon="5.87527">
        <ele>1268.2</ele>
        <time>2023-05-19T09:00:28Z</time>
      </trkpt>
      <trkpt lat="44.59527" lon="5.87527">
        <ele>1269.4</ele>
        <time>2023-05-19T09:00:35Z</time>
      </trkpt>
      <trkpt lat="44.59524" lon="5.87529">
        <ele>1270.4</ele>
        <time>2023-05-19T09:00:41Z</time>
      </trkpt>
      <trkpt lat="44.59524" lon="5.87529">
        <ele>1270.6</ele>
        <time>2023-05-19T09:00:42Z</time>
      </trkpt>
      <trkpt lat="44.59524" lon="5.87529">
        <ele>1270.6</ele>
        <time>2023-05-19T09:00:43Z</time>
      </trkpt>
      <trkpt lat="44.59522" lon="5.8753">
        <ele>1271.6</ele>
        <time>2023-05-19T09:00:50Z</time>
      </trkpt>
      <trkpt lat="44.59522" lon="5.8753">
        <ele>1272.4</ele>
        <time>2023-05-19T09:00:55Z</time>
      </trkpt>
      <trkpt lat="44.59522" lon="5.8753">
        <ele>1272.6</ele>
        <time>2023-05-19T09:00:57Z</time>
      </trkpt>
      <trkpt lat="44.59522" lon="5.8753">
        <ele>1272.8</ele>
        <time>2023-05-19T09:00:58Z</time>
      </trkpt>
      <trkpt lat="44.59519" lon="5.87531">
        <ele>1273.8</ele>
        <time>2023-05-19T09:01:07Z</time>
      </trkpt>
      <trkpt lat="44.59518" lon="5.87532">
        <ele>1273.8</ele>
        <time>2023-05-19T09:01:08Z</time>
      </trkpt>
      <trkpt lat="44.59516" lon="5.87532">
        <ele>1274</ele>
        <time>2023-05-19T09:01:09Z</time>
      </trkpt>
      <trkpt lat="44.59516" lon="5.87532">
        <ele>1274.2</ele>
        <time>2023-05-19T09:01:10Z</time>
      </trkpt>
      <trkpt lat="44.59516" lon="5.87532">
        <ele>1274.2</ele>
        <time>2023-05-19T09:01:11Z</time>
      </trkpt>
      <trkpt lat="44.59516" lon="5.87532">
        <ele>1274.4</ele>
        <time>2023-05-19T09:01:12Z</time>
      </trkpt>
      <trkpt lat="44.59516" lon="5.87532">
        <ele>1274.6</ele>
        <time>2023-05-19T09:01:13Z</time>
      </trkpt>
      <trkpt lat="44.59516" lon="5.87532">
        <ele>1274.6</ele>
        <time>2023-05-19T09:01:14Z</time>
      </trkpt>
      <trkpt lat="44.59516" lon="5.87532">
        <ele>1274.6</ele>
        <time>2023-05-19T09:01:15Z</time>
      </trkpt>
      <trkpt lat="44.59514" lon="5.87534">
        <ele>1275</ele>
        <time>2023-05-19T09:01:19Z</time>
      </trkpt>
      <trkpt lat="44.59514" lon="5.87534">
        <ele>1275.2</ele>
        <time>2023-05-19T09:01:20Z</time>
      </trkpt>
      <trkpt lat="44.59514" lon="5.87534">
        <ele>1275.2</ele>
        <time>2023-05-19T09:01:21Z</time>
      </trkpt>
      <trkpt lat="44.59514" lon="5.87534">
        <ele>1275.4</ele>
        <time>2023-05-19T09:01:22Z</time>
      </trkpt>
      <trkpt lat="44.59514" lon="5.87534">
        <ele>1276</ele>
        <time>2023-05-19T09:01:25Z</time>
      </trkpt>
      <trkpt lat="44.59511" lon="5.87536">
        <ele>1276.2</ele>
        <time>2023-05-19T09:01:27Z</time>
      </trkpt>
      <trkpt lat="44.59511" lon="5.87536">
        <ele>1276.4</ele>
        <time>2023-05-19T09:01:28Z</time>
      </trkpt>
      <trkpt lat="44.59509" lon="5.87537">
        <ele>1276.6</ele>
        <time>2023-05-19T09:01:29Z</time>
      </trkpt>
      <trkpt lat="44.59509" lon="5.87537">
        <ele>1276.6</ele>
        <time>2023-05-19T09:01:30Z</time>
      </trkpt>
      <trkpt lat="44.59509" lon="5.87537">
        <ele>1276.8</ele>
        <time>2023-05-19T09:01:31Z</time>
      </trkpt>
      <trkpt lat="44.59509" lon="5.87537">
        <ele>1277.2</ele>
        <time>2023-05-19T09:01:34Z</time>
      </trkpt>
      <trkpt lat="44.59507" lon="5.87538">
        <ele>1277.4</ele>
        <time>2023-05-19T09:01:37Z</time>
      </trkpt>
      <trkpt lat="44.59507" lon="5.87538">
        <ele>1278.2</ele>
        <time>2023-05-19T09:01:43Z</time>
      </trkpt>
      <trkpt lat="44.59507" lon="5.87538">
        <ele>1279.4</ele>
        <time>2023-05-19T09:01:51Z</time>
      </trkpt>
      <trkpt lat="44.59506" lon="5.87538">
        <ele>1279.6</ele>
        <time>2023-05-19T09:01:52Z</time>
      </trkpt>
      <trkpt lat="44.59506" lon="5.87538">
        <ele>1279.6</ele>
        <time>2023-05-19T09:01:53Z</time>
      </trkpt>
      <trkpt lat="44.59502" lon="5.87539">
        <ele>1280</ele>
        <time>2023-05-19T09:01:56Z</time>
      </trkpt>
      <trkpt lat="44.59501" lon="5.87539">
        <ele>1280.2</ele>
        <time>2023-05-19T09:01:57Z</time>
      </trkpt>
      <trkpt lat="44.59501" lon="5.87539">
        <ele>1280.4</ele>
        <time>2023-05-19T09:01:58Z</time>
      </trkpt>
      <trkpt lat="44.59501" lon="5.87539">
        <ele>1280.6</ele>
        <time>2023-05-19T09:01:59Z</time>
      </trkpt>
      <trkpt lat="44.59501" lon="5.87539">
        <ele>1280.6</ele>
        <time>2023-05-19T09:02:00Z</time>
      </trkpt>
      <trkpt lat="44.59501" lon="5.87539">
        <ele>1280.8</ele>
        <time>2023-05-19T09:02:01Z</time>
      </trkpt>
      <trkpt lat="44.59501" lon="5.87539">
        <ele>1280.8</ele>
        <time>2023-05-19T09:02:02Z</time>
      </trkpt>
      <trkpt lat="44.59501" lon="5.87539">
        <ele>1281</ele>
        <time>2023-05-19T09:02:03Z</time>
      </trkpt>
      <trkpt lat="44.59496" lon="5.87541">
        <ele>1281.6</ele>
        <time>2023-05-19T09:02:07Z</time>
      </trkpt>
      <trkpt lat="44.59493" lon="5.87543">
        <ele>1282</ele>
        <time>2023-05-19T09:02:10Z</time>
      </trkpt>
      <trkpt lat="44.59489" lon="5.87545">
        <ele>1282</ele>
        <time>2023-05-19T09:02:12Z</time>
      </trkpt>
      <trkpt lat="44.59487" lon="5.87546">
        <ele>1282.2</ele>
        <time>2023-05-19T09:02:13Z</time>
      </trkpt>
      <trkpt lat="44.59485" lon="5.87548">
        <ele>1282.2</ele>
        <time>2023-05-19T09:02:14Z</time>
      </trkpt>
      <trkpt lat="44.59484" lon="5.87548">
        <ele>1282.6</ele>
        <time>2023-05-19T09:02:15Z</time>
      </trkpt>
      <trkpt lat="44.59484" lon="5.87548">
        <ele>1282.6</ele>
        <time>2023-05-19T09:02:16Z</time>
      </trkpt>
      <trkpt lat="44.59484" lon="5.87548">
        <ele>1282.8</ele>
        <time>2023-05-19T09:02:17Z</time>
      </trkpt>
      <trkpt lat="44.59484" lon="5.87548">
        <ele>1282.8</ele>
        <time>2023-05-19T09:02:18Z</time>
      </trkpt>
      <trkpt lat="44.59483" lon="5.87549">
        <ele>1283</ele>
        <time>2023-05-19T09:02:19Z</time>
      </trkpt>
      <trkpt lat="44.59481" lon="5.87549">
        <ele>1283</ele>
        <time>2023-05-19T09:02:20Z</time>
      </trkpt>
      <trkpt lat="44.5948" lon="5.87549">
        <ele>1283</ele>
        <time>2023-05-19T09:02:21Z</time>
      </trkpt>
      <trkpt lat="44.59478" lon="5.8755">
        <ele>1283</ele>
        <time>2023-05-19T09:02:22Z</time>
      </trkpt>
      <trkpt lat="44.59477" lon="5.8755">
        <ele>1283.2</ele>
        <time>2023-05-19T09:02:23Z</time>
      </trkpt>
      <trkpt lat="44.59475" lon="5.87551">
        <ele>1283.2</ele>
        <time>2023-05-19T09:02:24Z</time>
      </trkpt>
      <trkpt lat="44.59473" lon="5.8755">
        <ele>1283.2</ele>
        <time>2023-05-19T09:02:25Z</time>
      </trkpt>
      <trkpt lat="44.59472" lon="5.87551">
        <ele>1283.4</ele>
        <time>2023-05-19T09:02:26Z</time>
      </trkpt>
      <trkpt lat="44.5947" lon="5.87551">
        <ele>1283.4</ele>
        <time>2023-05-19T09:02:27Z</time>
      </trkpt>
      <trkpt lat="44.59468" lon="5.87551">
        <ele>1283.6</ele>
        <time>2023-05-19T09:02:28Z</time>
      </trkpt>
      <trkpt lat="44.59465" lon="5.87551">
        <ele>1283.6</ele>
        <time>2023-05-19T09:02:29Z</time>
      </trkpt>
      <trkpt lat="44.59463" lon="5.87552">
        <ele>1283.6</ele>
        <time>2023-05-19T09:02:30Z</time>
      </trkpt>
      <trkpt lat="44.59459" lon="5.87553">
        <ele>1283.8</ele>
        <time>2023-05-19T09:02:31Z</time>
      </trkpt>
      <trkpt lat="44.59458" lon="5.87554">
        <ele>1284</ele>
        <time>2023-05-19T09:02:32Z</time>
      </trkpt>
      <trkpt lat="44.59456" lon="5.87555">
        <ele>1284.4</ele>
        <time>2023-05-19T09:02:33Z</time>
      </trkpt>
      <trkpt lat="44.59452" lon="5.87556">
        <ele>1284.8</ele>
        <time>2023-05-19T09:02:35Z</time>
      </trkpt>
      <trkpt lat="44.59449" lon="5.87558">
        <ele>1285</ele>
        <time>2023-05-19T09:02:36Z</time>
      </trkpt>
      <trkpt lat="44.59448" lon="5.87559">
        <ele>1285.2</ele>
        <time>2023-05-19T09:02:37Z</time>
      </trkpt>
      <trkpt lat="44.59447" lon="5.87559">
        <ele>1285.4</ele>
        <time>2023-05-19T09:02:38Z</time>
      </trkpt>
      <trkpt lat="44.59446" lon="5.8756">
        <ele>1285.4</ele>
        <time>2023-05-19T09:02:39Z</time>
      </trkpt>
      <trkpt lat="44.59445" lon="5.8756">
        <ele>1285.6</ele>
        <time>2023-05-19T09:02:40Z</time>
      </trkpt>
      <trkpt lat="44.59443" lon="5.87561">
        <ele>1285.8</ele>
        <time>2023-05-19T09:02:41Z</time>
      </trkpt>
      <trkpt lat="44.59441" lon="5.87561">
        <ele>1286</ele>
        <time>2023-05-19T09:02:42Z</time>
      </trkpt>
      <trkpt lat="44.59439" lon="5.87561">
        <ele>1286</ele>
        <time>2023-05-19T09:02:43Z</time>
      </trkpt>
      <trkpt lat="44.59437" lon="5.87562">
        <ele>1286.2</ele>
        <time>2023-05-19T09:02:44Z</time>
      </trkpt>
      <trkpt lat="44.59436" lon="5.87563">
        <ele>1286.4</ele>
        <time>2023-05-19T09:02:45Z</time>
      </trkpt>
      <trkpt lat="44.59434" lon="5.87563">
        <ele>1286.6</ele>
        <time>2023-05-19T09:02:46Z</time>
      </trkpt>
      <trkpt lat="44.59434" lon="5.87564">
        <ele>1286.8</ele>
        <time>2023-05-19T09:02:47Z</time>
      </trkpt>
      <trkpt lat="44.59434" lon="5.87565">
        <ele>1286.8</ele>
        <time>2023-05-19T09:02:48Z</time>
      </trkpt>
      <trkpt lat="44.59433" lon="5.87565">
        <ele>1287.2</ele>
        <time>2023-05-19T09:02:49Z</time>
      </trkpt>
      <trkpt lat="44.59432" lon="5.87566">
        <ele>1287.2</ele>
        <time>2023-05-19T09:02:50Z</time>
      </trkpt>
      <trkpt lat="44.59431" lon="5.87567">
        <ele>1287.4</ele>
        <time>2023-05-19T09:02:51Z</time>
      </trkpt>
      <trkpt lat="44.59429" lon="5.87568">
        <ele>1287.6</ele>
        <time>2023-05-19T09:02:52Z</time>
      </trkpt>
      <trkpt lat="44.59428" lon="5.87569">
        <ele>1287.8</ele>
        <time>2023-05-19T09:02:53Z</time>
      </trkpt>
      <trkpt lat="44.59428" lon="5.87569">
        <ele>1287.8</ele>
        <time>2023-05-19T09:02:54Z</time>
      </trkpt>
      <trkpt lat="44.59427" lon="5.87569">
        <ele>1288</ele>
        <time>2023-05-19T09:02:55Z</time>
      </trkpt>
      <trkpt lat="44.59427" lon="5.87569">
        <ele>1288.2</ele>
        <time>2023-05-19T09:02:56Z</time>
      </trkpt>
      <trkpt lat="44.59426" lon="5.8757">
        <ele>1288.4</ele>
        <time>2023-05-19T09:02:57Z</time>
      </trkpt>
      <trkpt lat="44.59425" lon="5.87571">
        <ele>1288.4</ele>
        <time>2023-05-19T09:02:58Z</time>
      </trkpt>
      <trkpt lat="44.59424" lon="5.87571">
        <ele>1288.6</ele>
        <time>2023-05-19T09:02:59Z</time>
      </trkpt>
      <trkpt lat="44.59422" lon="5.87572">
        <ele>1288.8</ele>
        <time>2023-05-19T09:03:00Z</time>
      </trkpt>
      <trkpt lat="44.59422" lon="5.87573">
        <ele>1289</ele>
        <time>2023-05-19T09:03:01Z</time>
      </trkpt>
      <trkpt lat="44.5942" lon="5.87573">
        <ele>1289.6</ele>
        <time>2023-05-19T09:03:02Z</time>
      </trkpt>
      <trkpt lat="44.59419" lon="5.87573">
        <ele>1289.8</ele>
        <time>2023-05-19T09:03:03Z</time>
      </trkpt>
      <trkpt lat="44.59418" lon="5.87573">
        <ele>1290</ele>
        <time>2023-05-19T09:03:04Z</time>
      </trkpt>
      <trkpt lat="44.59418" lon="5.87574">
        <ele>1290</ele>
        <time>2023-05-19T09:03:05Z</time>
      </trkpt>
      <trkpt lat="44.59418" lon="5.87574">
        <ele>1290</ele>
        <time>2023-05-19T09:03:06Z</time>
      </trkpt>
      <trkpt lat="44.59417" lon="5.87574">
        <ele>1290.2</ele>
        <time>2023-05-19T09:03:07Z</time>
      </trkpt>
      <trkpt lat="44.59416" lon="5.87575">
        <ele>1290.4</ele>
        <time>2023-05-19T09:03:08Z</time>
      </trkpt>
      <trkpt lat="44.59415" lon="5.87576">
        <ele>1290.4</ele>
        <time>2023-05-19T09:03:09Z</time>
      </trkpt>
      <trkpt lat="44.59414" lon="5.87577">
        <ele>1290.6</ele>
        <time>2023-05-19T09:03:10Z</time>
      </trkpt>
      <trkpt lat="44.59414" lon="5.87578">
        <ele>1290.6</ele>
        <time>2023-05-19T09:03:11Z</time>
      </trkpt>
      <trkpt lat="44.59414" lon="5.87579">
        <ele>1290.6</ele>
        <time>2023-05-19T09:03:12Z</time>
      </trkpt>
      <trkpt lat="44.59413" lon="5.87579">
        <ele>1290.8</ele>
        <time>2023-05-19T09:03:13Z</time>
      </trkpt>
      <trkpt lat="44.59413" lon="5.8758">
        <ele>1291.2</ele>
        <time>2023-05-19T09:03:14Z</time>
      </trkpt>
      <trkpt lat="44.59413" lon="5.87581">
        <ele>1291.2</ele>
        <time>2023-05-19T09:03:15Z</time>
      </trkpt>
      <trkpt lat="44.59413" lon="5.87581">
        <ele>1291.4</ele>
        <time>2023-05-19T09:03:16Z</time>
      </trkpt>
      <trkpt lat="44.59413" lon="5.87581">
        <ele>1291.6</ele>
        <time>2023-05-19T09:03:18Z</time>
      </trkpt>
      <trkpt lat="44.59413" lon="5.87581">
        <ele>1291.8</ele>
        <time>2023-05-19T09:03:19Z</time>
      </trkpt>
      <trkpt lat="44.59413" lon="5.87581">
        <ele>1291.8</ele>
        <time>2023-05-19T09:03:20Z</time>
      </trkpt>
      <trkpt lat="44.59413" lon="5.87581">
        <ele>1292</ele>
        <time>2023-05-19T09:03:21Z</time>
      </trkpt>
      <trkpt lat="44.59413" lon="5.87581">
        <ele>1292.2</ele>
        <time>2023-05-19T09:03:22Z</time>
      </trkpt>
      <trkpt lat="44.59413" lon="5.87582">
        <ele>1292.4</ele>
        <time>2023-05-19T09:03:23Z</time>
      </trkpt>
      <trkpt lat="44.59412" lon="5.87583">
        <ele>1292.4</ele>
        <time>2023-05-19T09:03:24Z</time>
      </trkpt>
      <trkpt lat="44.59412" lon="5.87584">
        <ele>1292.6</ele>
        <time>2023-05-19T09:03:25Z</time>
      </trkpt>
      <trkpt lat="44.59412" lon="5.87584">
        <ele>1293.2</ele>
        <time>2023-05-19T09:03:28Z</time>
      </trkpt>
      <trkpt lat="44.59412" lon="5.87584">
        <ele>1293.4</ele>
        <time>2023-05-19T09:03:29Z</time>
      </trkpt>
      <trkpt lat="44.59412" lon="5.87584">
        <ele>1293.4</ele>
        <time>2023-05-19T09:03:30Z</time>
      </trkpt>
      <trkpt lat="44.59412" lon="5.87585">
        <ele>1293.8</ele>
        <time>2023-05-19T09:03:32Z</time>
      </trkpt>
      <trkpt lat="44.59412" lon="5.87585">
        <ele>1294.2</ele>
        <time>2023-05-19T09:03:36Z</time>
      </trkpt>
      <trkpt lat="44.59412" lon="5.87589">
        <ele>1294.8</ele>
        <time>2023-05-19T09:03:40Z</time>
      </trkpt>
      <trkpt lat="44.59412" lon="5.87589">
        <ele>1295</ele>
        <time>2023-05-19T09:03:41Z</time>
      </trkpt>
      <trkpt lat="44.59412" lon="5.87593">
        <ele>1295.4</ele>
        <time>2023-05-19T09:03:44Z</time>
      </trkpt>
      <trkpt lat="44.59411" lon="5.87596">
        <ele>1295.4</ele>
        <time>2023-05-19T09:03:45Z</time>
      </trkpt>
      <trkpt lat="44.59411" lon="5.87597">
        <ele>1295.6</ele>
        <time>2023-05-19T09:03:46Z</time>
      </trkpt>
      <trkpt lat="44.59411" lon="5.87598">
        <ele>1295.8</ele>
        <time>2023-05-19T09:03:47Z</time>
      </trkpt>
      <trkpt lat="44.59411" lon="5.87599">
        <ele>1296</ele>
        <time>2023-05-19T09:03:48Z</time>
      </trkpt>
      <trkpt lat="44.59411" lon="5.87599">
        <ele>1296</ele>
        <time>2023-05-19T09:03:49Z</time>
      </trkpt>
      <trkpt lat="44.59411" lon="5.876">
        <ele>1296.2</ele>
        <time>2023-05-19T09:03:50Z</time>
      </trkpt>
      <trkpt lat="44.59411" lon="5.87601">
        <ele>1296.2</ele>
        <time>2023-05-19T09:03:51Z</time>
      </trkpt>
      <trkpt lat="44.59411" lon="5.87601">
        <ele>1296.6</ele>
        <time>2023-05-19T09:03:52Z</time>
      </trkpt>
      <trkpt lat="44.59411" lon="5.87601">
        <ele>1296.8</ele>
        <time>2023-05-19T09:03:54Z</time>
      </trkpt>
      <trkpt lat="44.59411" lon="5.87601">
        <ele>1297</ele>
        <time>2023-05-19T09:03:56Z</time>
      </trkpt>
      <trkpt lat="44.5941" lon="5.87602">
        <ele>1297.6</ele>
        <time>2023-05-19T09:04:00Z</time>
      </trkpt>
      <trkpt lat="44.5941" lon="5.87604">
        <ele>1298.2</ele>
        <time>2023-05-19T09:04:04Z</time>
      </trkpt>
      <trkpt lat="44.59409" lon="5.87604">
        <ele>1299.2</ele>
        <time>2023-05-19T09:04:12Z</time>
      </trkpt>
      <trkpt lat="44.59408" lon="5.87613">
        <ele>1300.2</ele>
        <time>2023-05-19T09:04:19Z</time>
      </trkpt>
      <trkpt lat="44.59408" lon="5.87614">
        <ele>1300.6</ele>
        <time>2023-05-19T09:04:20Z</time>
      </trkpt>
      <trkpt lat="44.59408" lon="5.87614">
        <ele>1300.6</ele>
        <time>2023-05-19T09:04:21Z</time>
      </trkpt>
      <trkpt lat="44.59408" lon="5.87614">
        <ele>1300.8</ele>
        <time>2023-05-19T09:04:22Z</time>
      </trkpt>
      <trkpt lat="44.59408" lon="5.87614">
        <ele>1300.8</ele>
        <time>2023-05-19T09:04:23Z</time>
      </trkpt>
      <trkpt lat="44.59408" lon="5.87614">
        <ele>1301</ele>
        <time>2023-05-19T09:04:24Z</time>
      </trkpt>
      <trkpt lat="44.59408" lon="5.87614">
        <ele>1301.2</ele>
        <time>2023-05-19T09:04:25Z</time>
      </trkpt>
      <trkpt lat="44.59408" lon="5.87614">
        <ele>1301.4</ele>
        <time>2023-05-19T09:04:26Z</time>
      </trkpt>
      <trkpt lat="44.59408" lon="5.87614">
        <ele>1301.6</ele>
        <time>2023-05-19T09:04:27Z</time>
      </trkpt>
      <trkpt lat="44.59408" lon="5.87614">
        <ele>1301.8</ele>
        <time>2023-05-19T09:04:28Z</time>
      </trkpt>
      <trkpt lat="44.59408" lon="5.87614">
        <ele>1302</ele>
        <time>2023-05-19T09:04:29Z</time>
      </trkpt>
      <trkpt lat="44.59407" lon="5.87614">
        <ele>1302.2</ele>
        <time>2023-05-19T09:04:30Z</time>
      </trkpt>
      <trkpt lat="44.59407" lon="5.87616">
        <ele>1302.6</ele>
        <time>2023-05-19T09:04:31Z</time>
      </trkpt>
      <trkpt lat="44.59405" lon="5.87618">
        <ele>1302.8</ele>
        <time>2023-05-19T09:04:32Z</time>
      </trkpt>
      <trkpt lat="44.59404" lon="5.87621">
        <ele>1303</ele>
        <time>2023-05-19T09:04:33Z</time>
      </trkpt>
      <trkpt lat="44.59403" lon="5.87623">
        <ele>1303.4</ele>
        <time>2023-05-19T09:04:34Z</time>
      </trkpt>
      <trkpt lat="44.59402" lon="5.87625">
        <ele>1303.4</ele>
        <time>2023-05-19T09:04:35Z</time>
      </trkpt>
      <trkpt lat="44.594" lon="5.87627">
        <ele>1303.4</ele>
        <time>2023-05-19T09:04:36Z</time>
      </trkpt>
      <trkpt lat="44.594" lon="5.87627">
        <ele>1303.6</ele>
        <time>2023-05-19T09:04:37Z</time>
      </trkpt>
      <trkpt lat="44.594" lon="5.87627">
        <ele>1303.8</ele>
        <time>2023-05-19T09:04:38Z</time>
      </trkpt>
      <trkpt lat="44.59399" lon="5.87628">
        <ele>1304</ele>
        <time>2023-05-19T09:04:41Z</time>
      </trkpt>
      <trkpt lat="44.59398" lon="5.87629">
        <ele>1304</ele>
        <time>2023-05-19T09:04:42Z</time>
      </trkpt>
      <trkpt lat="44.59398" lon="5.87629">
        <ele>1304</ele>
        <time>2023-05-19T09:04:43Z</time>
      </trkpt>
      <trkpt lat="44.59398" lon="5.87629">
        <ele>1304</ele>
        <time>2023-05-19T09:04:44Z</time>
      </trkpt>
      <trkpt lat="44.59397" lon="5.87631">
        <ele>1304.2</ele>
        <time>2023-05-19T09:04:45Z</time>
      </trkpt>
      <trkpt lat="44.59397" lon="5.87632">
        <ele>1304.2</ele>
        <time>2023-05-19T09:04:46Z</time>
      </trkpt>
      <trkpt lat="44.59396" lon="5.87633">
        <ele>1304.2</ele>
        <time>2023-05-19T09:04:47Z</time>
      </trkpt>
      <trkpt lat="44.59395" lon="5.87634">
        <ele>1304.4</ele>
        <time>2023-05-19T09:04:48Z</time>
      </trkpt>
      <trkpt lat="44.59394" lon="5.87635">
        <ele>1304.6</ele>
        <time>2023-05-19T09:04:49Z</time>
      </trkpt>
      <trkpt lat="44.59394" lon="5.87636">
        <ele>1304.8</ele>
        <time>2023-05-19T09:04:50Z</time>
      </trkpt>
      <trkpt lat="44.59393" lon="5.87637">
        <ele>1304.8</ele>
        <time>2023-05-19T09:04:51Z</time>
      </trkpt>
      <trkpt lat="44.59393" lon="5.87637">
        <ele>1305</ele>
        <time>2023-05-19T09:04:52Z</time>
      </trkpt>
      <trkpt lat="44.59393" lon="5.87637">
        <ele>1305.2</ele>
        <time>2023-05-19T09:04:53Z</time>
      </trkpt>
      <trkpt lat="44.59393" lon="5.87637">
        <ele>1305.4</ele>
        <time>2023-05-19T09:04:54Z</time>
      </trkpt>
      <trkpt lat="44.59392" lon="5.87639">
        <ele>1305.4</ele>
        <time>2023-05-19T09:04:55Z</time>
      </trkpt>
      <trkpt lat="44.59391" lon="5.8764">
        <ele>1305.4</ele>
        <time>2023-05-19T09:04:56Z</time>
      </trkpt>
      <trkpt lat="44.59389" lon="5.87641">
        <ele>1305.6</ele>
        <time>2023-05-19T09:04:57Z</time>
      </trkpt>
      <trkpt lat="44.59389" lon="5.87643">
        <ele>1305.6</ele>
        <time>2023-05-19T09:04:58Z</time>
      </trkpt>
      <trkpt lat="44.59388" lon="5.87644">
        <ele>1306</ele>
        <time>2023-05-19T09:04:59Z</time>
      </trkpt>
      <trkpt lat="44.59388" lon="5.87646">
        <ele>1306</ele>
        <time>2023-05-19T09:05:00Z</time>
      </trkpt>
      <trkpt lat="44.59387" lon="5.87647">
        <ele>1306.4</ele>
        <time>2023-05-19T09:05:01Z</time>
      </trkpt>
      <trkpt lat="44.59386" lon="5.8765">
        <ele>1306.4</ele>
        <time>2023-05-19T09:05:02Z</time>
      </trkpt>
      <trkpt lat="44.59386" lon="5.87652">
        <ele>1306.6</ele>
        <time>2023-05-19T09:05:03Z</time>
      </trkpt>
      <trkpt lat="44.59385" lon="5.87653">
        <ele>1306.6</ele>
        <time>2023-05-19T09:05:04Z</time>
      </trkpt>
      <trkpt lat="44.59384" lon="5.87653">
        <ele>1306.8</ele>
        <time>2023-05-19T09:05:05Z</time>
      </trkpt>
      <trkpt lat="44.59383" lon="5.87654">
        <ele>1307</ele>
        <time>2023-05-19T09:05:06Z</time>
      </trkpt>
      <trkpt lat="44.59383" lon="5.87656">
        <ele>1307</ele>
        <time>2023-05-19T09:05:07Z</time>
      </trkpt>
      <trkpt lat="44.59382" lon="5.87656">
        <ele>1307.2</ele>
        <time>2023-05-19T09:05:08Z</time>
      </trkpt>
      <trkpt lat="44.5938" lon="5.87658">
        <ele>1307.2</ele>
        <time>2023-05-19T09:05:09Z</time>
      </trkpt>
      <trkpt lat="44.5938" lon="5.87658">
        <ele>1307.4</ele>
        <time>2023-05-19T09:05:10Z</time>
      </trkpt>
      <trkpt lat="44.5938" lon="5.87658">
        <ele>1307.4</ele>
        <time>2023-05-19T09:05:11Z</time>
      </trkpt>
      <trkpt lat="44.59379" lon="5.87659">
        <ele>1307.6</ele>
        <time>2023-05-19T09:05:12Z</time>
      </trkpt>
      <trkpt lat="44.59379" lon="5.8766">
        <ele>1307.6</ele>
        <time>2023-05-19T09:05:13Z</time>
      </trkpt>
      <trkpt lat="44.59379" lon="5.8766">
        <ele>1307.8</ele>
        <time>2023-05-19T09:05:14Z</time>
      </trkpt>
      <trkpt lat="44.59378" lon="5.87661">
        <ele>1308</ele>
        <time>2023-05-19T09:05:15Z</time>
      </trkpt>
      <trkpt lat="44.59377" lon="5.87662">
        <ele>1308.2</ele>
        <time>2023-05-19T09:05:16Z</time>
      </trkpt>
      <trkpt lat="44.59376" lon="5.87663">
        <ele>1308.2</ele>
        <time>2023-05-19T09:05:17Z</time>
      </trkpt>
      <trkpt lat="44.59375" lon="5.87664">
        <ele>1308.2</ele>
        <time>2023-05-19T09:05:18Z</time>
      </trkpt>
      <trkpt lat="44.59375" lon="5.87665">
        <ele>1308.4</ele>
        <time>2023-05-19T09:05:19Z</time>
      </trkpt>
      <trkpt lat="44.59374" lon="5.87665">
        <ele>1308.6</ele>
        <time>2023-05-19T09:05:20Z</time>
      </trkpt>
      <trkpt lat="44.59374" lon="5.87665">
        <ele>1308.6</ele>
        <time>2023-05-19T09:05:21Z</time>
      </trkpt>
      <trkpt lat="44.59374" lon="5.87666">
        <ele>1308.8</ele>
        <time>2023-05-19T09:05:22Z</time>
      </trkpt>
      <trkpt lat="44.59374" lon="5.87668">
        <ele>1308.8</ele>
        <time>2023-05-19T09:05:23Z</time>
      </trkpt>
      <trkpt lat="44.59373" lon="5.87669">
        <ele>1309</ele>
        <time>2023-05-19T09:05:24Z</time>
      </trkpt>
      <trkpt lat="44.59372" lon="5.8767">
        <ele>1309</ele>
        <time>2023-05-19T09:05:25Z</time>
      </trkpt>
      <trkpt lat="44.59372" lon="5.87671">
        <ele>1309.2</ele>
        <time>2023-05-19T09:05:26Z</time>
      </trkpt>
      <trkpt lat="44.59372" lon="5.87673">
        <ele>1309.2</ele>
        <time>2023-05-19T09:05:27Z</time>
      </trkpt>
      <trkpt lat="44.59371" lon="5.87674">
        <ele>1309.4</ele>
        <time>2023-05-19T09:05:28Z</time>
      </trkpt>
      <trkpt lat="44.59371" lon="5.87674">
        <ele>1309.4</ele>
        <time>2023-05-19T09:05:29Z</time>
      </trkpt>
      <trkpt lat="44.59371" lon="5.87674">
        <ele>1309.8</ele>
        <time>2023-05-19T09:05:30Z</time>
      </trkpt>
      <trkpt lat="44.5937" lon="5.87676">
        <ele>1310.2</ele>
        <time>2023-05-19T09:05:31Z</time>
      </trkpt>
      <trkpt lat="44.5937" lon="5.87677">
        <ele>1310.2</ele>
        <time>2023-05-19T09:05:32Z</time>
      </trkpt>
      <trkpt lat="44.5937" lon="5.87678">
        <ele>1310.6</ele>
        <time>2023-05-19T09:05:33Z</time>
      </trkpt>
      <trkpt lat="44.5937" lon="5.87678">
        <ele>1310.6</ele>
        <time>2023-05-19T09:05:34Z</time>
      </trkpt>
      <trkpt lat="44.5937" lon="5.87678">
        <ele>1310.8</ele>
        <time>2023-05-19T09:05:35Z</time>
      </trkpt>
      <trkpt lat="44.59369" lon="5.87679">
        <ele>1311</ele>
        <time>2023-05-19T09:05:36Z</time>
      </trkpt>
      <trkpt lat="44.59369" lon="5.87681">
        <ele>1311.2</ele>
        <time>2023-05-19T09:05:38Z</time>
      </trkpt>
      <trkpt lat="44.59368" lon="5.87682">
        <ele>1311.2</ele>
        <time>2023-05-19T09:05:39Z</time>
      </trkpt>
      <trkpt lat="44.59368" lon="5.87684">
        <ele>1311.4</ele>
        <time>2023-05-19T09:05:40Z</time>
      </trkpt>
      <trkpt lat="44.59368" lon="5.87684">
        <ele>1311.4</ele>
        <time>2023-05-19T09:05:41Z</time>
      </trkpt>
      <trkpt lat="44.59367" lon="5.87685">
        <ele>1311.4</ele>
        <time>2023-05-19T09:05:42Z</time>
      </trkpt>
      <trkpt lat="44.59367" lon="5.87685">
        <ele>1311.6</ele>
        <time>2023-05-19T09:05:43Z</time>
      </trkpt>
      <trkpt lat="44.59367" lon="5.87686">
        <ele>1311.8</ele>
        <time>2023-05-19T09:05:44Z</time>
      </trkpt>
      <trkpt lat="44.59367" lon="5.87687">
        <ele>1311.8</ele>
        <time>2023-05-19T09:05:45Z</time>
      </trkpt>
      <trkpt lat="44.59366" lon="5.87688">
        <ele>1312</ele>
        <time>2023-05-19T09:05:46Z</time>
      </trkpt>
      <trkpt lat="44.59366" lon="5.87689">
        <ele>1312.2</ele>
        <time>2023-05-19T09:05:47Z</time>
      </trkpt>
      <trkpt lat="44.59365" lon="5.8769">
        <ele>1312.2</ele>
        <time>2023-05-19T09:05:48Z</time>
      </trkpt>
      <trkpt lat="44.59365" lon="5.8769">
        <ele>1312.4</ele>
        <time>2023-05-19T09:05:49Z</time>
      </trkpt>
      <trkpt lat="44.59365" lon="5.8769">
        <ele>1312.6</ele>
        <time>2023-05-19T09:05:50Z</time>
      </trkpt>
      <trkpt lat="44.59365" lon="5.87691">
        <ele>1312.8</ele>
        <time>2023-05-19T09:05:51Z</time>
      </trkpt>
      <trkpt lat="44.59365" lon="5.87691">
        <ele>1312.8</ele>
        <time>2023-05-19T09:05:52Z</time>
      </trkpt>
      <trkpt lat="44.59365" lon="5.87691">
        <ele>1313</ele>
        <time>2023-05-19T09:05:53Z</time>
      </trkpt>
      <trkpt lat="44.59365" lon="5.87691">
        <ele>1313</ele>
        <time>2023-05-19T09:05:54Z</time>
      </trkpt>
      <trkpt lat="44.59365" lon="5.87691">
        <ele>1313.8</ele>
        <time>2023-05-19T09:05:58Z</time>
      </trkpt>
      <trkpt lat="44.59365" lon="5.87691">
        <ele>1313.8</ele>
        <time>2023-05-19T09:05:59Z</time>
      </trkpt>
      <trkpt lat="44.59365" lon="5.87691">
        <ele>1314</ele>
        <time>2023-05-19T09:06:01Z</time>
      </trkpt>
      <trkpt lat="44.59364" lon="5.87692">
        <ele>1314.4</ele>
        <time>2023-05-19T09:06:04Z</time>
      </trkpt>
      <trkpt lat="44.59363" lon="5.87693">
        <ele>1314.8</ele>
        <time>2023-05-19T09:06:06Z</time>
      </trkpt>
      <trkpt lat="44.59363" lon="5.87693">
        <ele>1315</ele>
        <time>2023-05-19T09:06:07Z</time>
      </trkpt>
      <trkpt lat="44.59363" lon="5.87694">
        <ele>1315.2</ele>
        <time>2023-05-19T09:06:09Z</time>
      </trkpt>
      <trkpt lat="44.59363" lon="5.87694">
        <ele>1315.4</ele>
        <time>2023-05-19T09:06:10Z</time>
      </trkpt>
      <trkpt lat="44.59362" lon="5.87697">
        <ele>1316</ele>
        <time>2023-05-19T09:06:15Z</time>
      </trkpt>
      <trkpt lat="44.59362" lon="5.87697">
        <ele>1316</ele>
        <time>2023-05-19T09:06:16Z</time>
      </trkpt>
      <trkpt lat="44.59361" lon="5.87698">
        <ele>1316.2</ele>
        <time>2023-05-19T09:06:18Z</time>
      </trkpt>
      <trkpt lat="44.59361" lon="5.87699">
        <ele>1316.4</ele>
        <time>2023-05-19T09:06:19Z</time>
      </trkpt>
      <trkpt lat="44.59361" lon="5.87699">
        <ele>1316.4</ele>
        <time>2023-05-19T09:06:20Z</time>
      </trkpt>
      <trkpt lat="44.59361" lon="5.87699">
        <ele>1316.8</ele>
        <time>2023-05-19T09:06:22Z</time>
      </trkpt>
      <trkpt lat="44.59361" lon="5.87699">
        <ele>1316.8</ele>
        <time>2023-05-19T09:06:23Z</time>
      </trkpt>
      <trkpt lat="44.59361" lon="5.87699">
        <ele>1317</ele>
        <time>2023-05-19T09:06:24Z</time>
      </trkpt>
      <trkpt lat="44.59361" lon="5.87699">
        <ele>1317.4</ele>
        <time>2023-05-19T09:06:27Z</time>
      </trkpt>
      <trkpt lat="44.59361" lon="5.87702">
        <ele>1317.8</ele>
        <time>2023-05-19T09:06:30Z</time>
      </trkpt>
      <trkpt lat="44.5936" lon="5.87703">
        <ele>1317.8</ele>
        <time>2023-05-19T09:06:31Z</time>
      </trkpt>
      <trkpt lat="44.5936" lon="5.87704">
        <ele>1317.8</ele>
        <time>2023-05-19T09:06:32Z</time>
      </trkpt>
      <trkpt lat="44.5936" lon="5.87706">
        <ele>1318.2</ele>
        <time>2023-05-19T09:06:35Z</time>
      </trkpt>
      <trkpt lat="44.5936" lon="5.87707">
        <ele>1318.2</ele>
        <time>2023-05-19T09:06:36Z</time>
      </trkpt>
      <trkpt lat="44.5936" lon="5.87707">
        <ele>1318.6</ele>
        <time>2023-05-19T09:06:37Z</time>
      </trkpt>
      <trkpt lat="44.59359" lon="5.87711">
        <ele>1319</ele>
        <time>2023-05-19T09:06:41Z</time>
      </trkpt>
      <trkpt lat="44.59358" lon="5.87711">
        <ele>1319</ele>
        <time>2023-05-19T09:06:42Z</time>
      </trkpt>
      <trkpt lat="44.59358" lon="5.87712">
        <ele>1319.2</ele>
        <time>2023-05-19T09:06:43Z</time>
      </trkpt>
      <trkpt lat="44.59358" lon="5.87713">
        <ele>1319.2</ele>
        <time>2023-05-19T09:06:44Z</time>
      </trkpt>
      <trkpt lat="44.59358" lon="5.87713">
        <ele>1319.4</ele>
        <time>2023-05-19T09:06:45Z</time>
      </trkpt>
      <trkpt lat="44.59357" lon="5.87714">
        <ele>1319.4</ele>
        <time>2023-05-19T09:06:46Z</time>
      </trkpt>
      <trkpt lat="44.59357" lon="5.87715">
        <ele>1319.4</ele>
        <time>2023-05-19T09:06:47Z</time>
      </trkpt>
      <trkpt lat="44.59357" lon="5.87715">
        <ele>1319.6</ele>
        <time>2023-05-19T09:06:48Z</time>
      </trkpt>
      <trkpt lat="44.59357" lon="5.87715">
        <ele>1319.6</ele>
        <time>2023-05-19T09:06:49Z</time>
      </trkpt>
      <trkpt lat="44.59357" lon="5.87715">
        <ele>1319.8</ele>
        <time>2023-05-19T09:06:50Z</time>
      </trkpt>
      <trkpt lat="44.59357" lon="5.87715">
        <ele>1319.8</ele>
        <time>2023-05-19T09:06:51Z</time>
      </trkpt>
      <trkpt lat="44.59357" lon="5.87716">
        <ele>1320</ele>
        <time>2023-05-19T09:06:52Z</time>
      </trkpt>
      <trkpt lat="44.59356" lon="5.87716">
        <ele>1320.2</ele>
        <time>2023-05-19T09:06:53Z</time>
      </trkpt>
      <trkpt lat="44.59356" lon="5.87718">
        <ele>1320.4</ele>
        <time>2023-05-19T09:06:54Z</time>
      </trkpt>
      <trkpt lat="44.59356" lon="5.87719">
        <ele>1320.4</ele>
        <time>2023-05-19T09:06:55Z</time>
      </trkpt>
      <trkpt lat="44.59356" lon="5.8772">
        <ele>1320.6</ele>
        <time>2023-05-19T09:06:56Z</time>
      </trkpt>
      <trkpt lat="44.59356" lon="5.8772">
        <ele>1320.8</ele>
        <time>2023-05-19T09:06:57Z</time>
      </trkpt>
      <trkpt lat="44.59356" lon="5.8772">
        <ele>1320.8</ele>
        <time>2023-05-19T09:06:58Z</time>
      </trkpt>
      <trkpt lat="44.59355" lon="5.87721">
        <ele>1320.8</ele>
        <time>2023-05-19T09:06:59Z</time>
      </trkpt>
      <trkpt lat="44.59355" lon="5.87722">
        <ele>1321.2</ele>
        <time>2023-05-19T09:07:00Z</time>
      </trkpt>
      <trkpt lat="44.59354" lon="5.87722">
        <ele>1321.4</ele>
        <time>2023-05-19T09:07:01Z</time>
      </trkpt>
      <trkpt lat="44.59354" lon="5.87723">
        <ele>1321.6</ele>
        <time>2023-05-19T09:07:02Z</time>
      </trkpt>
      <trkpt lat="44.59354" lon="5.87723">
        <ele>1321.8</ele>
        <time>2023-05-19T09:07:03Z</time>
      </trkpt>
      <trkpt lat="44.59354" lon="5.87724">
        <ele>1322</ele>
        <time>2023-05-19T09:07:04Z</time>
      </trkpt>
      <trkpt lat="44.59354" lon="5.87725">
        <ele>1322.2</ele>
        <time>2023-05-19T09:07:05Z</time>
      </trkpt>
      <trkpt lat="44.59353" lon="5.87726">
        <ele>1322.4</ele>
        <time>2023-05-19T09:07:06Z</time>
      </trkpt>
      <trkpt lat="44.59353" lon="5.87727">
        <ele>1322.4</ele>
        <time>2023-05-19T09:07:07Z</time>
      </trkpt>
      <trkpt lat="44.59352" lon="5.87729">
        <ele>1322.6</ele>
        <time>2023-05-19T09:07:08Z</time>
      </trkpt>
      <trkpt lat="44.59352" lon="5.87729">
        <ele>1322.6</ele>
        <time>2023-05-19T09:07:09Z</time>
      </trkpt>
      <trkpt lat="44.59352" lon="5.87729">
        <ele>1322.8</ele>
        <time>2023-05-19T09:07:10Z</time>
      </trkpt>
      <trkpt lat="44.59352" lon="5.87729">
        <ele>1322.8</ele>
        <time>2023-05-19T09:07:11Z</time>
      </trkpt>
      <trkpt lat="44.59352" lon="5.87729">
        <ele>1323</ele>
        <time>2023-05-19T09:07:13Z</time>
      </trkpt>
      <trkpt lat="44.59352" lon="5.87729">
        <ele>1323</ele>
        <time>2023-05-19T09:07:14Z</time>
      </trkpt>
      <trkpt lat="44.59352" lon="5.87729">
        <ele>1323</ele>
        <time>2023-05-19T09:07:16Z</time>
      </trkpt>
      <trkpt lat="44.59352" lon="5.87729">
        <ele>1322.8</ele>
        <time>2023-05-19T09:07:21Z</time>
      </trkpt>
      <trkpt lat="44.59352" lon="5.8773">
        <ele>1322.8</ele>
        <time>2023-05-19T09:07:28Z</time>
      </trkpt>
      <trkpt lat="44.59352" lon="5.8773">
        <ele>1322.8</ele>
        <time>2023-05-19T09:07:29Z</time>
      </trkpt>
      <trkpt lat="44.59352" lon="5.8773">
        <ele>1323</ele>
        <time>2023-05-19T09:07:45Z</time>
      </trkpt>
      <trkpt lat="44.59349" lon="5.8773">
        <ele>1323.2</ele>
        <time>2023-05-19T09:08:20Z</time>
      </trkpt>
      <trkpt lat="44.59347" lon="5.87731">
        <ele>1323.2</ele>
        <time>2023-05-19T09:08:21Z</time>
      </trkpt>
      <trkpt lat="44.59333" lon="5.87735">
        <ele>1323</ele>
        <time>2023-05-19T09:08:27Z</time>
      </trkpt>
      <trkpt lat="44.5933" lon="5.87735">
        <ele>1323</ele>
        <time>2023-05-19T09:08:28Z</time>
      </trkpt>
      <trkpt lat="44.59311" lon="5.87737">
        <ele>1322.4</ele>
        <time>2023-05-19T09:08:35Z</time>
      </trkpt>
      <trkpt lat="44.59309" lon="5.87737">
        <ele>1322.2</ele>
        <time>2023-05-19T09:08:36Z</time>
      </trkpt>
      <trkpt lat="44.59307" lon="5.87737">
        <ele>1322.2</ele>
        <time>2023-05-19T09:08:37Z</time>
      </trkpt>
      <trkpt lat="44.59306" lon="5.87738">
        <ele>1322.2</ele>
        <time>2023-05-19T09:08:38Z</time>
      </trkpt>
      <trkpt lat="44.59304" lon="5.87738">
        <ele>1322.2</ele>
        <time>2023-05-19T09:08:39Z</time>
      </trkpt>
      <trkpt lat="44.59302" lon="5.87739">
        <ele>1322</ele>
        <time>2023-05-19T09:08:40Z</time>
      </trkpt>
      <trkpt lat="44.593" lon="5.8774">
        <ele>1322</ele>
        <time>2023-05-19T09:08:41Z</time>
      </trkpt>
      <trkpt lat="44.59296" lon="5.87742">
        <ele>1322</ele>
        <time>2023-05-19T09:08:43Z</time>
      </trkpt>
      <trkpt lat="44.59294" lon="5.87742">
        <ele>1322</ele>
        <time>2023-05-19T09:08:44Z</time>
      </trkpt>
      <trkpt lat="44.59291" lon="5.87742">
        <ele>1321.8</ele>
        <time>2023-05-19T09:08:45Z</time>
      </trkpt>
      <trkpt lat="44.59284" lon="5.87744">
        <ele>1321.6</ele>
        <time>2023-05-19T09:08:48Z</time>
      </trkpt>
      <trkpt lat="44.59281" lon="5.87745">
        <ele>1321.6</ele>
        <time>2023-05-19T09:08:49Z</time>
      </trkpt>
      <trkpt lat="44.59279" lon="5.87745">
        <ele>1321.6</ele>
        <time>2023-05-19T09:08:50Z</time>
      </trkpt>
      <trkpt lat="44.59276" lon="5.87746">
        <ele>1321.6</ele>
        <time>2023-05-19T09:08:51Z</time>
      </trkpt>
      <trkpt lat="44.59252" lon="5.8775">
        <ele>1321.4</ele>
        <time>2023-05-19T09:08:59Z</time>
      </trkpt>
      <trkpt lat="44.59244" lon="5.87752">
        <ele>1321.2</ele>
        <time>2023-05-19T09:09:02Z</time>
      </trkpt>
      <trkpt lat="44.59243" lon="5.87753">
        <ele>1321.2</ele>
        <time>2023-05-19T09:09:03Z</time>
      </trkpt>
      <trkpt lat="44.59243" lon="5.87754">
        <ele>1321.2</ele>
        <time>2023-05-19T09:09:04Z</time>
      </trkpt>
      <trkpt lat="44.59243" lon="5.87754">
        <ele>1321.2</ele>
        <time>2023-05-19T09:09:05Z</time>
      </trkpt>
      <trkpt lat="44.59243" lon="5.87754">
        <ele>1321.2</ele>
        <time>2023-05-19T09:09:07Z</time>
      </trkpt>
      <trkpt lat="44.59241" lon="5.87753">
        <ele>1321</ele>
        <time>2023-05-19T09:09:19Z</time>
      </trkpt>
      <trkpt lat="44.59227" lon="5.87749">
        <ele>1320.6</ele>
        <time>2023-05-19T09:09:25Z</time>
      </trkpt>
      <trkpt lat="44.59211" lon="5.87749">
        <ele>1320.6</ele>
        <time>2023-05-19T09:09:30Z</time>
      </trkpt>
      <trkpt lat="44.59208" lon="5.8775">
        <ele>1320.6</ele>
        <time>2023-05-19T09:09:31Z</time>
      </trkpt>
      <trkpt lat="44.59194" lon="5.87757">
        <ele>1320.6</ele>
        <time>2023-05-19T09:09:35Z</time>
      </trkpt>
      <trkpt lat="44.59191" lon="5.87759">
        <ele>1320.6</ele>
        <time>2023-05-19T09:09:36Z</time>
      </trkpt>
      <trkpt lat="44.59189" lon="5.87761">
        <ele>1320.6</ele>
        <time>2023-05-19T09:09:37Z</time>
      </trkpt>
      <trkpt lat="44.59177" lon="5.8777">
        <ele>1320.4</ele>
        <time>2023-05-19T09:09:41Z</time>
      </trkpt>
      <trkpt lat="44.59174" lon="5.87772">
        <ele>1320.4</ele>
        <time>2023-05-19T09:09:42Z</time>
      </trkpt>
      <trkpt lat="44.59171" lon="5.87775">
        <ele>1320.4</ele>
        <time>2023-05-19T09:09:43Z</time>
      </trkpt>
      <trkpt lat="44.59168" lon="5.87777">
        <ele>1320.2</ele>
        <time>2023-05-19T09:09:44Z</time>
      </trkpt>
      <trkpt lat="44.59166" lon="5.8778">
        <ele>1320.2</ele>
        <time>2023-05-19T09:09:45Z</time>
      </trkpt>
      <trkpt lat="44.59163" lon="5.87782">
        <ele>1320.2</ele>
        <time>2023-05-19T09:09:46Z</time>
      </trkpt>
      <trkpt lat="44.59161" lon="5.87785">
        <ele>1320.2</ele>
        <time>2023-05-19T09:09:47Z</time>
      </trkpt>
      <trkpt lat="44.59158" lon="5.87787">
        <ele>1320.2</ele>
        <time>2023-05-19T09:09:48Z</time>
      </trkpt>
      <trkpt lat="44.59156" lon="5.87789">
        <ele>1320.2</ele>
        <time>2023-05-19T09:09:49Z</time>
      </trkpt>
      <trkpt lat="44.59153" lon="5.87791">
        <ele>1320.2</ele>
        <time>2023-05-19T09:09:50Z</time>
      </trkpt>
      <trkpt lat="44.59151" lon="5.87793">
        <ele>1320.2</ele>
        <time>2023-05-19T09:09:51Z</time>
      </trkpt>
      <trkpt lat="44.59148" lon="5.87795">
        <ele>1320.2</ele>
        <time>2023-05-19T09:09:52Z</time>
      </trkpt>
      <trkpt lat="44.59145" lon="5.87796">
        <ele>1320.2</ele>
        <time>2023-05-19T09:09:53Z</time>
      </trkpt>
      <trkpt lat="44.59142" lon="5.87797">
        <ele>1320</ele>
        <time>2023-05-19T09:09:54Z</time>
      </trkpt>
      <trkpt lat="44.5914" lon="5.87799">
        <ele>1320</ele>
        <time>2023-05-19T09:09:55Z</time>
      </trkpt>
      <trkpt lat="44.59137" lon="5.878">
        <ele>1320</ele>
        <time>2023-05-19T09:09:56Z</time>
      </trkpt>
      <trkpt lat="44.59131" lon="5.87802">
        <ele>1320</ele>
        <time>2023-05-19T09:09:58Z</time>
      </trkpt>
      <trkpt lat="44.59119" lon="5.8781">
        <ele>1319.6</ele>
        <time>2023-05-19T09:10:02Z</time>
      </trkpt>
      <trkpt lat="44.59105" lon="5.87821">
        <ele>1319.2</ele>
        <time>2023-05-19T09:10:07Z</time>
      </trkpt>
      <trkpt lat="44.59095" lon="5.87828">
        <ele>1319.2</ele>
        <time>2023-05-19T09:10:10Z</time>
      </trkpt>
      <trkpt lat="44.59086" lon="5.87835">
        <ele>1319</ele>
        <time>2023-05-19T09:10:13Z</time>
      </trkpt>
      <trkpt lat="44.59075" lon="5.87843">
        <ele>1318.8</ele>
        <time>2023-05-19T09:10:17Z</time>
      </trkpt>
      <trkpt lat="44.59072" lon="5.87845">
        <ele>1318.8</ele>
        <time>2023-05-19T09:10:18Z</time>
      </trkpt>
      <trkpt lat="44.5907" lon="5.87847">
        <ele>1318.8</ele>
        <time>2023-05-19T09:10:19Z</time>
      </trkpt>
      <trkpt lat="44.59068" lon="5.87849">
        <ele>1318.8</ele>
        <time>2023-05-19T09:10:20Z</time>
      </trkpt>
      <trkpt lat="44.59066" lon="5.8785">
        <ele>1318.8</ele>
        <time>2023-05-19T09:10:21Z</time>
      </trkpt>
      <trkpt lat="44.59065" lon="5.87851">
        <ele>1318.8</ele>
        <time>2023-05-19T09:10:22Z</time>
      </trkpt>
      <trkpt lat="44.59064" lon="5.87852">
        <ele>1318.6</ele>
        <time>2023-05-19T09:10:23Z</time>
      </trkpt>
      <trkpt lat="44.59063" lon="5.87852">
        <ele>1318.6</ele>
        <time>2023-05-19T09:10:24Z</time>
      </trkpt>
      <trkpt lat="44.59062" lon="5.87853">
        <ele>1318.6</ele>
        <time>2023-05-19T09:10:25Z</time>
      </trkpt>
      <trkpt lat="44.5906" lon="5.87855">
        <ele>1318.4</ele>
        <time>2023-05-19T09:10:26Z</time>
      </trkpt>
      <trkpt lat="44.59055" lon="5.8786">
        <ele>1318.2</ele>
        <time>2023-05-19T09:10:29Z</time>
      </trkpt>
      <trkpt lat="44.59041" lon="5.8787">
        <ele>1318</ele>
        <time>2023-05-19T09:10:36Z</time>
      </trkpt>
      <trkpt lat="44.59026" lon="5.87883">
        <ele>1317.8</ele>
        <time>2023-05-19T09:10:43Z</time>
      </trkpt>
      <trkpt lat="44.5902" lon="5.87887">
        <ele>1318</ele>
        <time>2023-05-19T09:10:45Z</time>
      </trkpt>
      <trkpt lat="44.59005" lon="5.879">
        <ele>1318</ele>
        <time>2023-05-19T09:10:51Z</time>
      </trkpt>
      <trkpt lat="44.58991" lon="5.87914">
        <ele>1318</ele>
        <time>2023-05-19T09:10:57Z</time>
      </trkpt>
      <trkpt lat="44.58989" lon="5.87917">
        <ele>1318</ele>
        <time>2023-05-19T09:10:58Z</time>
      </trkpt>
      <trkpt lat="44.58982" lon="5.87922">
        <ele>1318.4</ele>
        <time>2023-05-19T09:11:01Z</time>
      </trkpt>
      <trkpt lat="44.58979" lon="5.87924">
        <ele>1318.4</ele>
        <time>2023-05-19T09:11:02Z</time>
      </trkpt>
      <trkpt lat="44.58977" lon="5.87926">
        <ele>1318.4</ele>
        <time>2023-05-19T09:11:03Z</time>
      </trkpt>
      <trkpt lat="44.58975" lon="5.87929">
        <ele>1318.4</ele>
        <time>2023-05-19T09:11:04Z</time>
      </trkpt>
      <trkpt lat="44.58973" lon="5.87931">
        <ele>1318.4</ele>
        <time>2023-05-19T09:11:05Z</time>
      </trkpt>
      <trkpt lat="44.58966" lon="5.87939">
        <ele>1318.6</ele>
        <time>2023-05-19T09:11:08Z</time>
      </trkpt>
      <trkpt lat="44.5896" lon="5.87947">
        <ele>1318.4</ele>
        <time>2023-05-19T09:11:11Z</time>
      </trkpt>
      <trkpt lat="44.58958" lon="5.87949">
        <ele>1318.4</ele>
        <time>2023-05-19T09:11:12Z</time>
      </trkpt>
      <trkpt lat="44.58944" lon="5.87971">
        <ele>1318.4</ele>
        <time>2023-05-19T09:11:19Z</time>
      </trkpt>
      <trkpt lat="44.58942" lon="5.87974">
        <ele>1318.4</ele>
        <time>2023-05-19T09:11:20Z</time>
      </trkpt>
      <trkpt lat="44.5893" lon="5.8799">
        <ele>1319</ele>
        <time>2023-05-19T09:11:26Z</time>
      </trkpt>
      <trkpt lat="44.58926" lon="5.87996">
        <ele>1319.4</ele>
        <time>2023-05-19T09:11:28Z</time>
      </trkpt>
      <trkpt lat="44.58922" lon="5.88002">
        <ele>1319.6</ele>
        <time>2023-05-19T09:11:30Z</time>
      </trkpt>
      <trkpt lat="44.58919" lon="5.88007">
        <ele>1319.6</ele>
        <time>2023-05-19T09:11:32Z</time>
      </trkpt>
      <trkpt lat="44.58918" lon="5.88009">
        <ele>1319.6</ele>
        <time>2023-05-19T09:11:33Z</time>
      </trkpt>
      <trkpt lat="44.58916" lon="5.88011">
        <ele>1319.6</ele>
        <time>2023-05-19T09:11:34Z</time>
      </trkpt>
      <trkpt lat="44.58913" lon="5.88016">
        <ele>1319.8</ele>
        <time>2023-05-19T09:11:36Z</time>
      </trkpt>
      <trkpt lat="44.58911" lon="5.88018">
        <ele>1319.8</ele>
        <time>2023-05-19T09:11:37Z</time>
      </trkpt>
      <trkpt lat="44.5891" lon="5.8802">
        <ele>1319.8</ele>
        <time>2023-05-19T09:11:38Z</time>
      </trkpt>
      <trkpt lat="44.58908" lon="5.88023">
        <ele>1320</ele>
        <time>2023-05-19T09:11:39Z</time>
      </trkpt>
      <trkpt lat="44.58906" lon="5.88025">
        <ele>1320.2</ele>
        <time>2023-05-19T09:11:40Z</time>
      </trkpt>
      <trkpt lat="44.58905" lon="5.88028">
        <ele>1320.4</ele>
        <time>2023-05-19T09:11:41Z</time>
      </trkpt>
      <trkpt lat="44.58903" lon="5.8803">
        <ele>1320.4</ele>
        <time>2023-05-19T09:11:42Z</time>
      </trkpt>
      <trkpt lat="44.58901" lon="5.88032">
        <ele>1320.6</ele>
        <time>2023-05-19T09:11:43Z</time>
      </trkpt>
      <trkpt lat="44.589" lon="5.88034">
        <ele>1320.6</ele>
        <time>2023-05-19T09:11:44Z</time>
      </trkpt>
      <trkpt lat="44.58898" lon="5.88035">
        <ele>1320.6</ele>
        <time>2023-05-19T09:11:45Z</time>
      </trkpt>
      <trkpt lat="44.58893" lon="5.8804">
        <ele>1321</ele>
        <time>2023-05-19T09:11:48Z</time>
      </trkpt>
      <trkpt lat="44.58891" lon="5.88042">
        <ele>1321</ele>
        <time>2023-05-19T09:11:49Z</time>
      </trkpt>
      <trkpt lat="44.58889" lon="5.88043">
        <ele>1321.2</ele>
        <time>2023-05-19T09:11:50Z</time>
      </trkpt>
      <trkpt lat="44.58887" lon="5.88045">
        <ele>1321.4</ele>
        <time>2023-05-19T09:11:51Z</time>
      </trkpt>
      <trkpt lat="44.58886" lon="5.88047">
        <ele>1321.4</ele>
        <time>2023-05-19T09:11:52Z</time>
      </trkpt>
      <trkpt lat="44.58884" lon="5.88048">
        <ele>1321.4</ele>
        <time>2023-05-19T09:11:53Z</time>
      </trkpt>
      <trkpt lat="44.5888" lon="5.88052">
        <ele>1321.6</ele>
        <time>2023-05-19T09:11:55Z</time>
      </trkpt>
      <trkpt lat="44.58876" lon="5.88056">
        <ele>1321.6</ele>
        <time>2023-05-19T09:11:57Z</time>
      </trkpt>
      <trkpt lat="44.58859" lon="5.88074">
        <ele>1322.4</ele>
        <time>2023-05-19T09:12:05Z</time>
      </trkpt>
      <trkpt lat="44.58852" lon="5.88085">
        <ele>1322.6</ele>
        <time>2023-05-19T09:12:09Z</time>
      </trkpt>
      <trkpt lat="44.58841" lon="5.88097">
        <ele>1323</ele>
        <time>2023-05-19T09:12:14Z</time>
      </trkpt>
      <trkpt lat="44.5884" lon="5.88099">
        <ele>1323.2</ele>
        <time>2023-05-19T09:12:15Z</time>
      </trkpt>
      <trkpt lat="44.58827" lon="5.88114">
        <ele>1323.2</ele>
        <time>2023-05-19T09:12:21Z</time>
      </trkpt>
      <trkpt lat="44.58825" lon="5.88117">
        <ele>1323.4</ele>
        <time>2023-05-19T09:12:22Z</time>
      </trkpt>
      <trkpt lat="44.58823" lon="5.88119">
        <ele>1323.4</ele>
        <time>2023-05-19T09:12:23Z</time>
      </trkpt>
      <trkpt lat="44.58822" lon="5.88121">
        <ele>1323.8</ele>
        <time>2023-05-19T09:12:24Z</time>
      </trkpt>
      <trkpt lat="44.5882" lon="5.88123">
        <ele>1323.8</ele>
        <time>2023-05-19T09:12:25Z</time>
      </trkpt>
      <trkpt lat="44.58818" lon="5.88124">
        <ele>1324</ele>
        <time>2023-05-19T09:12:26Z</time>
      </trkpt>
      <trkpt lat="44.58817" lon="5.88127">
        <ele>1324</ele>
        <time>2023-05-19T09:12:27Z</time>
      </trkpt>
      <trkpt lat="44.58816" lon="5.88129">
        <ele>1324.2</ele>
        <time>2023-05-19T09:12:28Z</time>
      </trkpt>
      <trkpt lat="44.58814" lon="5.88131">
        <ele>1324.2</ele>
        <time>2023-05-19T09:12:29Z</time>
      </trkpt>
      <trkpt lat="44.58812" lon="5.88133">
        <ele>1324.2</ele>
        <time>2023-05-19T09:12:30Z</time>
      </trkpt>
      <trkpt lat="44.58811" lon="5.88136">
        <ele>1324.4</ele>
        <time>2023-05-19T09:12:31Z</time>
      </trkpt>
      <trkpt lat="44.58809" lon="5.88138">
        <ele>1324.4</ele>
        <time>2023-05-19T09:12:32Z</time>
      </trkpt>
      <trkpt lat="44.58808" lon="5.88141">
        <ele>1324.6</ele>
        <time>2023-05-19T09:12:33Z</time>
      </trkpt>
      <trkpt lat="44.58803" lon="5.88148">
        <ele>1325</ele>
        <time>2023-05-19T09:12:36Z</time>
      </trkpt>
      <trkpt lat="44.5879" lon="5.88162">
        <ele>1325.4</ele>
        <time>2023-05-19T09:12:43Z</time>
      </trkpt>
      <trkpt lat="44.58786" lon="5.88164">
        <ele>1325.4</ele>
        <time>2023-05-19T09:12:45Z</time>
      </trkpt>
      <trkpt lat="44.58784" lon="5.88166">
        <ele>1325.6</ele>
        <time>2023-05-19T09:12:46Z</time>
      </trkpt>
      <trkpt lat="44.58782" lon="5.88167">
        <ele>1325.6</ele>
        <time>2023-05-19T09:12:47Z</time>
      </trkpt>
      <trkpt lat="44.5878" lon="5.88168">
        <ele>1325.6</ele>
        <time>2023-05-19T09:12:48Z</time>
      </trkpt>
      <trkpt lat="44.58778" lon="5.8817">
        <ele>1325.8</ele>
        <time>2023-05-19T09:12:49Z</time>
      </trkpt>
      <trkpt lat="44.58776" lon="5.88171">
        <ele>1326</ele>
        <time>2023-05-19T09:12:50Z</time>
      </trkpt>
      <trkpt lat="44.58774" lon="5.88172">
        <ele>1326</ele>
        <time>2023-05-19T09:12:51Z</time>
      </trkpt>
      <trkpt lat="44.58772" lon="5.88175">
        <ele>1326.2</ele>
        <time>2023-05-19T09:12:52Z</time>
      </trkpt>
      <trkpt lat="44.5877" lon="5.88178">
        <ele>1326.4</ele>
        <time>2023-05-19T09:12:54Z</time>
      </trkpt>
      <trkpt lat="44.58768" lon="5.88181">
        <ele>1326.6</ele>
        <time>2023-05-19T09:12:55Z</time>
      </trkpt>
      <trkpt lat="44.58763" lon="5.88191">
        <ele>1327.2</ele>
        <time>2023-05-19T09:12:59Z</time>
      </trkpt>
      <trkpt lat="44.58754" lon="5.88203">
        <ele>1327.8</ele>
        <time>2023-05-19T09:13:04Z</time>
      </trkpt>
      <trkpt lat="44.58752" lon="5.88204">
        <ele>1327.8</ele>
        <time>2023-05-19T09:13:05Z</time>
      </trkpt>
      <trkpt lat="44.5875" lon="5.88206">
        <ele>1328</ele>
        <time>2023-05-19T09:13:06Z</time>
      </trkpt>
      <trkpt lat="44.58748" lon="5.88207">
        <ele>1328</ele>
        <time>2023-05-19T09:13:07Z</time>
      </trkpt>
      <trkpt lat="44.58746" lon="5.88208">
        <ele>1328</ele>
        <time>2023-05-19T09:13:08Z</time>
      </trkpt>
      <trkpt lat="44.58744" lon="5.88209">
        <ele>1328</ele>
        <time>2023-05-19T09:13:09Z</time>
      </trkpt>
      <trkpt lat="44.58741" lon="5.88209">
        <ele>1328.2</ele>
        <time>2023-05-19T09:13:10Z</time>
      </trkpt>
      <trkpt lat="44.58739" lon="5.88209">
        <ele>1328.2</ele>
        <time>2023-05-19T09:13:11Z</time>
      </trkpt>
      <trkpt lat="44.58736" lon="5.88209">
        <ele>1328.6</ele>
        <time>2023-05-19T09:13:12Z</time>
      </trkpt>
      <trkpt lat="44.58733" lon="5.88209">
        <ele>1328.8</ele>
        <time>2023-05-19T09:13:13Z</time>
      </trkpt>
      <trkpt lat="44.58731" lon="5.88209">
        <ele>1329</ele>
        <time>2023-05-19T09:13:14Z</time>
      </trkpt>
      <trkpt lat="44.58729" lon="5.88209">
        <ele>1329.2</ele>
        <time>2023-05-19T09:13:15Z</time>
      </trkpt>
      <trkpt lat="44.58726" lon="5.88209">
        <ele>1329.2</ele>
        <time>2023-05-19T09:13:16Z</time>
      </trkpt>
      <trkpt lat="44.58724" lon="5.8821">
        <ele>1329.4</ele>
        <time>2023-05-19T09:13:17Z</time>
      </trkpt>
      <trkpt lat="44.58722" lon="5.88211">
        <ele>1329.4</ele>
        <time>2023-05-19T09:13:18Z</time>
      </trkpt>
      <trkpt lat="44.58719" lon="5.88211">
        <ele>1329.6</ele>
        <time>2023-05-19T09:13:19Z</time>
      </trkpt>
      <trkpt lat="44.58717" lon="5.88211">
        <ele>1329.6</ele>
        <time>2023-05-19T09:13:20Z</time>
      </trkpt>
      <trkpt lat="44.58715" lon="5.88212">
        <ele>1329.8</ele>
        <time>2023-05-19T09:13:21Z</time>
      </trkpt>
      <trkpt lat="44.58713" lon="5.88214">
        <ele>1329.8</ele>
        <time>2023-05-19T09:13:22Z</time>
      </trkpt>
      <trkpt lat="44.5871" lon="5.88216">
        <ele>1329.8</ele>
        <time>2023-05-19T09:13:23Z</time>
      </trkpt>
      <trkpt lat="44.58708" lon="5.88218">
        <ele>1330</ele>
        <time>2023-05-19T09:13:24Z</time>
      </trkpt>
      <trkpt lat="44.58706" lon="5.8822">
        <ele>1330</ele>
        <time>2023-05-19T09:13:25Z</time>
      </trkpt>
      <trkpt lat="44.58703" lon="5.88222">
        <ele>1330</ele>
        <time>2023-05-19T09:13:26Z</time>
      </trkpt>
      <trkpt lat="44.58701" lon="5.88224">
        <ele>1330.2</ele>
        <time>2023-05-19T09:13:27Z</time>
      </trkpt>
      <trkpt lat="44.58699" lon="5.88226">
        <ele>1330.2</ele>
        <time>2023-05-19T09:13:28Z</time>
      </trkpt>
      <trkpt lat="44.58696" lon="5.88229">
        <ele>1330.2</ele>
        <time>2023-05-19T09:13:29Z</time>
      </trkpt>
      <trkpt lat="44.58694" lon="5.88231">
        <ele>1330.2</ele>
        <time>2023-05-19T09:13:30Z</time>
      </trkpt>
      <trkpt lat="44.58692" lon="5.88234">
        <ele>1330.4</ele>
        <time>2023-05-19T09:13:31Z</time>
      </trkpt>
      <trkpt lat="44.5869" lon="5.88237">
        <ele>1330.4</ele>
        <time>2023-05-19T09:13:32Z</time>
      </trkpt>
      <trkpt lat="44.58688" lon="5.8824">
        <ele>1330.4</ele>
        <time>2023-05-19T09:13:33Z</time>
      </trkpt>
      <trkpt lat="44.58686" lon="5.88243">
        <ele>1330.4</ele>
        <time>2023-05-19T09:13:34Z</time>
      </trkpt>
      <trkpt lat="44.58667" lon="5.88268">
        <ele>1331.2</ele>
        <time>2023-05-19T09:13:43Z</time>
      </trkpt>
      <trkpt lat="44.58662" lon="5.88277">
        <ele>1331.6</ele>
        <time>2023-05-19T09:13:46Z</time>
      </trkpt>
      <trkpt lat="44.58657" lon="5.88285">
        <ele>1331.8</ele>
        <time>2023-05-19T09:13:49Z</time>
      </trkpt>
      <trkpt lat="44.58655" lon="5.88288">
        <ele>1331.8</ele>
        <time>2023-05-19T09:13:50Z</time>
      </trkpt>
      <trkpt lat="44.58654" lon="5.88291">
        <ele>1332</ele>
        <time>2023-05-19T09:13:51Z</time>
      </trkpt>
      <trkpt lat="44.58652" lon="5.88294">
        <ele>1332</ele>
        <time>2023-05-19T09:13:52Z</time>
      </trkpt>
      <trkpt lat="44.5865" lon="5.88296">
        <ele>1332.2</ele>
        <time>2023-05-19T09:13:53Z</time>
      </trkpt>
      <trkpt lat="44.58648" lon="5.883">
        <ele>1332.2</ele>
        <time>2023-05-19T09:13:54Z</time>
      </trkpt>
      <trkpt lat="44.58643" lon="5.88309">
        <ele>1332.4</ele>
        <time>2023-05-19T09:13:57Z</time>
      </trkpt>
      <trkpt lat="44.58641" lon="5.88313">
        <ele>1332.6</ele>
        <time>2023-05-19T09:13:58Z</time>
      </trkpt>
      <trkpt lat="44.58638" lon="5.8832">
        <ele>1332.8</ele>
        <time>2023-05-19T09:14:00Z</time>
      </trkpt>
      <trkpt lat="44.58627" lon="5.88343">
        <ele>1333.4</ele>
        <time>2023-05-19T09:14:07Z</time>
      </trkpt>
      <trkpt lat="44.58626" lon="5.88347">
        <ele>1333.4</ele>
        <time>2023-05-19T09:14:08Z</time>
      </trkpt>
      <trkpt lat="44.58622" lon="5.88357">
        <ele>1333.8</ele>
        <time>2023-05-19T09:14:11Z</time>
      </trkpt>
      <trkpt lat="44.58621" lon="5.88361">
        <ele>1333.8</ele>
        <time>2023-05-19T09:14:12Z</time>
      </trkpt>
      <trkpt lat="44.58619" lon="5.88367">
        <ele>1334</ele>
        <time>2023-05-19T09:14:14Z</time>
      </trkpt>
      <trkpt lat="44.58609" lon="5.88397">
        <ele>1334.6</ele>
        <time>2023-05-19T09:14:22Z</time>
      </trkpt>
      <trkpt lat="44.58606" lon="5.88405">
        <ele>1334.8</ele>
        <time>2023-05-19T09:14:24Z</time>
      </trkpt>
      <trkpt lat="44.58597" lon="5.8843">
        <ele>1335.2</ele>
        <time>2023-05-19T09:14:30Z</time>
      </trkpt>
      <trkpt lat="44.58595" lon="5.88453">
        <ele>1335.4</ele>
        <time>2023-05-19T09:14:35Z</time>
      </trkpt>
      <trkpt lat="44.58596" lon="5.88458">
        <ele>1335.4</ele>
        <time>2023-05-19T09:14:36Z</time>
      </trkpt>
      <trkpt lat="44.58597" lon="5.88463">
        <ele>1335.4</ele>
        <time>2023-05-19T09:14:37Z</time>
      </trkpt>
      <trkpt lat="44.58605" lon="5.88486">
        <ele>1335.2</ele>
        <time>2023-05-19T09:14:42Z</time>
      </trkpt>
      <trkpt lat="44.58605" lon="5.885">
        <ele>1335</ele>
        <time>2023-05-19T09:14:45Z</time>
      </trkpt>
      <trkpt lat="44.58604" lon="5.88505">
        <ele>1334.8</ele>
        <time>2023-05-19T09:14:46Z</time>
      </trkpt>
      <trkpt lat="44.58603" lon="5.8851">
        <ele>1334.6</ele>
        <time>2023-05-19T09:14:47Z</time>
      </trkpt>
      <trkpt lat="44.58598" lon="5.88529">
        <ele>1334.4</ele>
        <time>2023-05-19T09:14:51Z</time>
      </trkpt>
      <trkpt lat="44.58593" lon="5.88543">
        <ele>1334.2</ele>
        <time>2023-05-19T09:14:54Z</time>
      </trkpt>
      <trkpt lat="44.5858" lon="5.88577">
        <ele>1334</ele>
        <time>2023-05-19T09:15:01Z</time>
      </trkpt>
      <trkpt lat="44.58575" lon="5.88584">
        <ele>1334</ele>
        <time>2023-05-19T09:15:03Z</time>
      </trkpt>
      <trkpt lat="44.58572" lon="5.88588">
        <ele>1334</ele>
        <time>2023-05-19T09:15:04Z</time>
      </trkpt>
      <trkpt lat="44.58564" lon="5.88597">
        <ele>1333.8</ele>
        <time>2023-05-19T09:15:07Z</time>
      </trkpt>
      <trkpt lat="44.58561" lon="5.88599">
        <ele>1333.8</ele>
        <time>2023-05-19T09:15:08Z</time>
      </trkpt>
      <trkpt lat="44.58559" lon="5.88601">
        <ele>1333.8</ele>
        <time>2023-05-19T09:15:09Z</time>
      </trkpt>
      <trkpt lat="44.58557" lon="5.88603">
        <ele>1333.6</ele>
        <time>2023-05-19T09:15:10Z</time>
      </trkpt>
      <trkpt lat="44.58555" lon="5.88604">
        <ele>1333.4</ele>
        <time>2023-05-19T09:15:11Z</time>
      </trkpt>
      <trkpt lat="44.58553" lon="5.88605">
        <ele>1333.4</ele>
        <time>2023-05-19T09:15:12Z</time>
      </trkpt>
      <trkpt lat="44.58552" lon="5.88606">
        <ele>1333.2</ele>
        <time>2023-05-19T09:15:13Z</time>
      </trkpt>
      <trkpt lat="44.58544" lon="5.88614">
        <ele>1333</ele>
        <time>2023-05-19T09:15:17Z</time>
      </trkpt>
      <trkpt lat="44.58543" lon="5.88616">
        <ele>1333</ele>
        <time>2023-05-19T09:15:18Z</time>
      </trkpt>
      <trkpt lat="44.58541" lon="5.88618">
        <ele>1333</ele>
        <time>2023-05-19T09:15:19Z</time>
      </trkpt>
      <trkpt lat="44.5853" lon="5.88628">
        <ele>1333</ele>
        <time>2023-05-19T09:15:25Z</time>
      </trkpt>
      <trkpt lat="44.58521" lon="5.88636">
        <ele>1333.4</ele>
        <time>2023-05-19T09:15:29Z</time>
      </trkpt>
      <trkpt lat="44.5851" lon="5.88645">
        <ele>1333.8</ele>
        <time>2023-05-19T09:15:34Z</time>
      </trkpt>
      <trkpt lat="44.58502" lon="5.88652">
        <ele>1334.4</ele>
        <time>2023-05-19T09:15:38Z</time>
      </trkpt>
      <trkpt lat="44.585" lon="5.88654">
        <ele>1334.4</ele>
        <time>2023-05-19T09:15:39Z</time>
      </trkpt>
      <trkpt lat="44.58498" lon="5.88656">
        <ele>1334.6</ele>
        <time>2023-05-19T09:15:40Z</time>
      </trkpt>
      <trkpt lat="44.58496" lon="5.88658">
        <ele>1334.6</ele>
        <time>2023-05-19T09:15:41Z</time>
      </trkpt>
      <trkpt lat="44.58495" lon="5.88659">
        <ele>1334.8</ele>
        <time>2023-05-19T09:15:42Z</time>
      </trkpt>
      <trkpt lat="44.58494" lon="5.88661">
        <ele>1335</ele>
        <time>2023-05-19T09:15:43Z</time>
      </trkpt>
      <trkpt lat="44.58492" lon="5.88662">
        <ele>1335</ele>
        <time>2023-05-19T09:15:44Z</time>
      </trkpt>
      <trkpt lat="44.58483" lon="5.88671">
        <ele>1335.4</ele>
        <time>2023-05-19T09:15:48Z</time>
      </trkpt>
      <trkpt lat="44.58475" lon="5.88682">
        <ele>1335.8</ele>
        <time>2023-05-19T09:15:52Z</time>
      </trkpt>
      <trkpt lat="44.58469" lon="5.88691">
        <ele>1336.2</ele>
        <time>2023-05-19T09:15:55Z</time>
      </trkpt>
      <trkpt lat="44.58458" lon="5.88712">
        <ele>1336.6</ele>
        <time>2023-05-19T09:16:01Z</time>
      </trkpt>
      <trkpt lat="44.58444" lon="5.88734">
        <ele>1336.6</ele>
        <time>2023-05-19T09:16:08Z</time>
      </trkpt>
      <trkpt lat="44.58443" lon="5.88738">
        <ele>1336.6</ele>
        <time>2023-05-19T09:16:09Z</time>
      </trkpt>
      <trkpt lat="44.58441" lon="5.88741">
        <ele>1336.6</ele>
        <time>2023-05-19T09:16:10Z</time>
      </trkpt>
      <trkpt lat="44.5843" lon="5.88761">
        <ele>1336.6</ele>
        <time>2023-05-19T09:16:16Z</time>
      </trkpt>
      <trkpt lat="44.58418" lon="5.88784">
        <ele>1337</ele>
        <time>2023-05-19T09:16:23Z</time>
      </trkpt>
      <trkpt lat="44.58416" lon="5.88787">
        <ele>1337.2</ele>
        <time>2023-05-19T09:16:24Z</time>
      </trkpt>
      <trkpt lat="44.58414" lon="5.88792">
        <ele>1337.4</ele>
        <time>2023-05-19T09:16:26Z</time>
      </trkpt>
      <trkpt lat="44.58412" lon="5.88795">
        <ele>1337.4</ele>
        <time>2023-05-19T09:16:27Z</time>
      </trkpt>
      <trkpt lat="44.5841" lon="5.88798">
        <ele>1337.6</ele>
        <time>2023-05-19T09:16:28Z</time>
      </trkpt>
      <trkpt lat="44.58409" lon="5.888">
        <ele>1337.6</ele>
        <time>2023-05-19T09:16:29Z</time>
      </trkpt>
      <trkpt lat="44.58407" lon="5.88803">
        <ele>1337.8</ele>
        <time>2023-05-19T09:16:30Z</time>
      </trkpt>
      <trkpt lat="44.58405" lon="5.88806">
        <ele>1337.8</ele>
        <time>2023-05-19T09:16:31Z</time>
      </trkpt>
      <trkpt lat="44.58404" lon="5.88809">
        <ele>1337.8</ele>
        <time>2023-05-19T09:16:32Z</time>
      </trkpt>
      <trkpt lat="44.58395" lon="5.88821">
        <ele>1338</ele>
        <time>2023-05-19T09:16:37Z</time>
      </trkpt>
      <trkpt lat="44.58391" lon="5.88827">
        <ele>1338.2</ele>
        <time>2023-05-19T09:16:40Z</time>
      </trkpt>
      <trkpt lat="44.58387" lon="5.88832">
        <ele>1338.4</ele>
        <time>2023-05-19T09:16:42Z</time>
      </trkpt>
      <trkpt lat="44.58386" lon="5.88835">
        <ele>1338.4</ele>
        <time>2023-05-19T09:16:43Z</time>
      </trkpt>
      <trkpt lat="44.58384" lon="5.88837">
        <ele>1338.4</ele>
        <time>2023-05-19T09:16:44Z</time>
      </trkpt>
      <trkpt lat="44.58382" lon="5.88839">
        <ele>1338.4</ele>
        <time>2023-05-19T09:16:45Z</time>
      </trkpt>
      <trkpt lat="44.58381" lon="5.88842">
        <ele>1338.6</ele>
        <time>2023-05-19T09:16:46Z</time>
      </trkpt>
      <trkpt lat="44.5838" lon="5.88844">
        <ele>1338.6</ele>
        <time>2023-05-19T09:16:47Z</time>
      </trkpt>
      <trkpt lat="44.58378" lon="5.88845">
        <ele>1338.6</ele>
        <time>2023-05-19T09:16:48Z</time>
      </trkpt>
      <trkpt lat="44.58377" lon="5.88847">
        <ele>1338.6</ele>
        <time>2023-05-19T09:16:49Z</time>
      </trkpt>
      <trkpt lat="44.58374" lon="5.88852">
        <ele>1338.8</ele>
        <time>2023-05-19T09:16:51Z</time>
      </trkpt>
      <trkpt lat="44.58373" lon="5.88854">
        <ele>1338.8</ele>
        <time>2023-05-19T09:16:52Z</time>
      </trkpt>
      <trkpt lat="44.58371" lon="5.88856">
        <ele>1339</ele>
        <time>2023-05-19T09:16:53Z</time>
      </trkpt>
      <trkpt lat="44.5837" lon="5.88858">
        <ele>1339</ele>
        <time>2023-05-19T09:16:54Z</time>
      </trkpt>
      <trkpt lat="44.58368" lon="5.8886">
        <ele>1339.2</ele>
        <time>2023-05-19T09:16:55Z</time>
      </trkpt>
      <trkpt lat="44.58367" lon="5.88862">
        <ele>1339.2</ele>
        <time>2023-05-19T09:16:56Z</time>
      </trkpt>
      <trkpt lat="44.58366" lon="5.88864">
        <ele>1339.4</ele>
        <time>2023-05-19T09:16:57Z</time>
      </trkpt>
      <trkpt lat="44.58365" lon="5.88867">
        <ele>1339.4</ele>
        <time>2023-05-19T09:16:58Z</time>
      </trkpt>
      <trkpt lat="44.58365" lon="5.8887">
        <ele>1339.4</ele>
        <time>2023-05-19T09:16:59Z</time>
      </trkpt>
      <trkpt lat="44.58365" lon="5.88873">
        <ele>1339.6</ele>
        <time>2023-05-19T09:17:00Z</time>
      </trkpt>
      <trkpt lat="44.58365" lon="5.88876">
        <ele>1339.6</ele>
        <time>2023-05-19T09:17:01Z</time>
      </trkpt>
      <trkpt lat="44.58366" lon="5.88879">
        <ele>1339.6</ele>
        <time>2023-05-19T09:17:02Z</time>
      </trkpt>
      <trkpt lat="44.58367" lon="5.8888">
        <ele>1339.8</ele>
        <time>2023-05-19T09:17:03Z</time>
      </trkpt>
      <trkpt lat="44.58369" lon="5.88882">
        <ele>1339.8</ele>
        <time>2023-05-19T09:17:04Z</time>
      </trkpt>
      <trkpt lat="44.58377" lon="5.88881">
        <ele>1340.2</ele>
        <time>2023-05-19T09:17:07Z</time>
      </trkpt>
      <trkpt lat="44.5838" lon="5.88881">
        <ele>1340.2</ele>
        <time>2023-05-19T09:17:08Z</time>
      </trkpt>
      <trkpt lat="44.58392" lon="5.88879">
        <ele>1340.4</ele>
        <time>2023-05-19T09:17:13Z</time>
      </trkpt>
      <trkpt lat="44.58394" lon="5.88878">
        <ele>1340.8</ele>
        <time>2023-05-19T09:17:14Z</time>
      </trkpt>
      <trkpt lat="44.58407" lon="5.88876">
        <ele>1340.8</ele>
        <time>2023-05-19T09:17:19Z</time>
      </trkpt>
      <trkpt lat="44.58414" lon="5.88875">
        <ele>1341</ele>
        <time>2023-05-19T09:17:22Z</time>
      </trkpt>
      <trkpt lat="44.58416" lon="5.88875">
        <ele>1341</ele>
        <time>2023-05-19T09:17:23Z</time>
      </trkpt>
      <trkpt lat="44.58418" lon="5.88875">
        <ele>1340.8</ele>
        <time>2023-05-19T09:17:24Z</time>
      </trkpt>
      <trkpt lat="44.5842" lon="5.88875">
        <ele>1340.8</ele>
        <time>2023-05-19T09:17:25Z</time>
      </trkpt>
      <trkpt lat="44.58422" lon="5.88874">
        <ele>1340.8</ele>
        <time>2023-05-19T09:17:26Z</time>
      </trkpt>
      <trkpt lat="44.58423" lon="5.88874">
        <ele>1340.8</ele>
        <time>2023-05-19T09:17:27Z</time>
      </trkpt>
      <trkpt lat="44.58424" lon="5.88874">
        <ele>1340.8</ele>
        <time>2023-05-19T09:17:28Z</time>
      </trkpt>
      <trkpt lat="44.58426" lon="5.88873">
        <ele>1340.6</ele>
        <time>2023-05-19T09:17:29Z</time>
      </trkpt>
      <trkpt lat="44.58427" lon="5.88873">
        <ele>1340.6</ele>
        <time>2023-05-19T09:17:30Z</time>
      </trkpt>
      <trkpt lat="44.58429" lon="5.88873">
        <ele>1340.6</ele>
        <time>2023-05-19T09:17:31Z</time>
      </trkpt>
      <trkpt lat="44.5843" lon="5.88873">
        <ele>1340.6</ele>
        <time>2023-05-19T09:17:32Z</time>
      </trkpt>
      <trkpt lat="44.58432" lon="5.88872">
        <ele>1340.6</ele>
        <time>2023-05-19T09:17:33Z</time>
      </trkpt>
      <trkpt lat="44.58434" lon="5.88872">
        <ele>1340.6</ele>
        <time>2023-05-19T09:17:34Z</time>
      </trkpt>
      <trkpt lat="44.58436" lon="5.88872">
        <ele>1340.6</ele>
        <time>2023-05-19T09:17:35Z</time>
      </trkpt>
      <trkpt lat="44.58438" lon="5.88872">
        <ele>1340.8</ele>
        <time>2023-05-19T09:17:36Z</time>
      </trkpt>
      <trkpt lat="44.5844" lon="5.88871">
        <ele>1340.8</ele>
        <time>2023-05-19T09:17:37Z</time>
      </trkpt>
      <trkpt lat="44.58442" lon="5.88871">
        <ele>1340.8</ele>
        <time>2023-05-19T09:17:38Z</time>
      </trkpt>
      <trkpt lat="44.58454" lon="5.88871">
        <ele>1341</ele>
        <time>2023-05-19T09:17:43Z</time>
      </trkpt>
      <trkpt lat="44.58474" lon="5.88873">
        <ele>1341.2</ele>
        <time>2023-05-19T09:17:52Z</time>
      </trkpt>
      <trkpt lat="44.58475" lon="5.88873">
        <ele>1341.2</ele>
        <time>2023-05-19T09:17:53Z</time>
      </trkpt>
      <trkpt lat="44.58477" lon="5.88873">
        <ele>1341.2</ele>
        <time>2023-05-19T09:17:54Z</time>
      </trkpt>
      <trkpt lat="44.58479" lon="5.88874">
        <ele>1341.4</ele>
        <time>2023-05-19T09:17:55Z</time>
      </trkpt>
      <trkpt lat="44.5849" lon="5.88875">
        <ele>1341.4</ele>
        <time>2023-05-19T09:18:00Z</time>
      </trkpt>
      <trkpt lat="44.58492" lon="5.88876">
        <ele>1341.4</ele>
        <time>2023-05-19T09:18:01Z</time>
      </trkpt>
      <trkpt lat="44.58496" lon="5.88876">
        <ele>1341.6</ele>
        <time>2023-05-19T09:18:03Z</time>
      </trkpt>
      <trkpt lat="44.58504" lon="5.88879">
        <ele>1341.6</ele>
        <time>2023-05-19T09:18:06Z</time>
      </trkpt>
      <trkpt lat="44.5851" lon="5.88882">
        <ele>1341.6</ele>
        <time>2023-05-19T09:18:08Z</time>
      </trkpt>
      <trkpt lat="44.58519" lon="5.88887">
        <ele>1341.6</ele>
        <time>2023-05-19T09:18:11Z</time>
      </trkpt>
      <trkpt lat="44.58548" lon="5.88898">
        <ele>1341.4</ele>
        <time>2023-05-19T09:18:21Z</time>
      </trkpt>
      <trkpt lat="44.5855" lon="5.88899">
        <ele>1341.4</ele>
        <time>2023-05-19T09:18:22Z</time>
      </trkpt>
      <trkpt lat="44.58553" lon="5.889">
        <ele>1341.4</ele>
        <time>2023-05-19T09:18:23Z</time>
      </trkpt>
      <trkpt lat="44.58557" lon="5.88901">
        <ele>1341.4</ele>
        <time>2023-05-19T09:18:24Z</time>
      </trkpt>
      <trkpt lat="44.58559" lon="5.88901">
        <ele>1341.4</ele>
        <time>2023-05-19T09:18:25Z</time>
      </trkpt>
      <trkpt lat="44.58562" lon="5.88902">
        <ele>1341.4</ele>
        <time>2023-05-19T09:18:26Z</time>
      </trkpt>
      <trkpt lat="44.58565" lon="5.88903">
        <ele>1341.4</ele>
        <time>2023-05-19T09:18:27Z</time>
      </trkpt>
      <trkpt lat="44.58568" lon="5.88903">
        <ele>1341.4</ele>
        <time>2023-05-19T09:18:28Z</time>
      </trkpt>
      <trkpt lat="44.58574" lon="5.88904">
        <ele>1341.4</ele>
        <time>2023-05-19T09:18:30Z</time>
      </trkpt>
      <trkpt lat="44.58598" lon="5.88908">
        <ele>1341.4</ele>
        <time>2023-05-19T09:18:37Z</time>
      </trkpt>
      <trkpt lat="44.58617" lon="5.88912">
        <ele>1341.4</ele>
        <time>2023-05-19T09:18:43Z</time>
      </trkpt>
      <trkpt lat="44.5862" lon="5.88913">
        <ele>1341.4</ele>
        <time>2023-05-19T09:18:44Z</time>
      </trkpt>
      <trkpt lat="44.58624" lon="5.88914">
        <ele>1341.4</ele>
        <time>2023-05-19T09:18:45Z</time>
      </trkpt>
      <trkpt lat="44.58627" lon="5.88915">
        <ele>1341.4</ele>
        <time>2023-05-19T09:18:46Z</time>
      </trkpt>
      <trkpt lat="44.5863" lon="5.88916">
        <ele>1341.6</ele>
        <time>2023-05-19T09:18:47Z</time>
      </trkpt>
      <trkpt lat="44.58633" lon="5.88917">
        <ele>1341.6</ele>
        <time>2023-05-19T09:18:48Z</time>
      </trkpt>
      <trkpt lat="44.58636" lon="5.88918">
        <ele>1341.6</ele>
        <time>2023-05-19T09:18:49Z</time>
      </trkpt>
      <trkpt lat="44.58638" lon="5.88918">
        <ele>1341.6</ele>
        <time>2023-05-19T09:18:50Z</time>
      </trkpt>
      <trkpt lat="44.58642" lon="5.88919">
        <ele>1341.6</ele>
        <time>2023-05-19T09:18:51Z</time>
      </trkpt>
      <trkpt lat="44.58645" lon="5.8892">
        <ele>1341.6</ele>
        <time>2023-05-19T09:18:52Z</time>
      </trkpt>
      <trkpt lat="44.5867" lon="5.88933">
        <ele>1341.6</ele>
        <time>2023-05-19T09:19:00Z</time>
      </trkpt>
      <trkpt lat="44.58679" lon="5.88941">
        <ele>1341.6</ele>
        <time>2023-05-19T09:19:03Z</time>
      </trkpt>
      <trkpt lat="44.58682" lon="5.88943">
        <ele>1341.6</ele>
        <time>2023-05-19T09:19:04Z</time>
      </trkpt>
      <trkpt lat="44.58684" lon="5.88946">
        <ele>1341.6</ele>
        <time>2023-05-19T09:19:05Z</time>
      </trkpt>
      <trkpt lat="44.58687" lon="5.88949">
        <ele>1341.8</ele>
        <time>2023-05-19T09:19:06Z</time>
      </trkpt>
      <trkpt lat="44.58702" lon="5.88971">
        <ele>1342</ele>
        <time>2023-05-19T09:19:12Z</time>
      </trkpt>
      <trkpt lat="44.58705" lon="5.88976">
        <ele>1342.2</ele>
        <time>2023-05-19T09:19:13Z</time>
      </trkpt>
      <trkpt lat="44.58707" lon="5.88981">
        <ele>1342.2</ele>
        <time>2023-05-19T09:19:14Z</time>
      </trkpt>
      <trkpt lat="44.58709" lon="5.88985">
        <ele>1342.2</ele>
        <time>2023-05-19T09:19:15Z</time>
      </trkpt>
      <trkpt lat="44.58722" lon="5.89007">
        <ele>1342.2</ele>
        <time>2023-05-19T09:19:20Z</time>
      </trkpt>
      <trkpt lat="44.58733" lon="5.89019">
        <ele>1342</ele>
        <time>2023-05-19T09:19:24Z</time>
      </trkpt>
      <trkpt lat="44.58736" lon="5.89021">
        <ele>1342</ele>
        <time>2023-05-19T09:19:25Z</time>
      </trkpt>
      <trkpt lat="44.58739" lon="5.89023">
        <ele>1342</ele>
        <time>2023-05-19T09:19:26Z</time>
      </trkpt>
      <trkpt lat="44.58741" lon="5.89025">
        <ele>1342</ele>
        <time>2023-05-19T09:19:27Z</time>
      </trkpt>
      <trkpt lat="44.58744" lon="5.89027">
        <ele>1341.8</ele>
        <time>2023-05-19T09:19:28Z</time>
      </trkpt>
      <trkpt lat="44.58747" lon="5.89029">
        <ele>1341.8</ele>
        <time>2023-05-19T09:19:29Z</time>
      </trkpt>
      <trkpt lat="44.5875" lon="5.89031">
        <ele>1341.8</ele>
        <time>2023-05-19T09:19:30Z</time>
      </trkpt>
      <trkpt lat="44.58753" lon="5.89033">
        <ele>1341.8</ele>
        <time>2023-05-19T09:19:31Z</time>
      </trkpt>
      <trkpt lat="44.58755" lon="5.89035">
        <ele>1341.8</ele>
        <time>2023-05-19T09:19:32Z</time>
      </trkpt>
      <trkpt lat="44.58758" lon="5.89037">
        <ele>1341.8</ele>
        <time>2023-05-19T09:19:33Z</time>
      </trkpt>
      <trkpt lat="44.5876" lon="5.89039">
        <ele>1341.8</ele>
        <time>2023-05-19T09:19:34Z</time>
      </trkpt>
      <trkpt lat="44.58763" lon="5.89041">
        <ele>1342</ele>
        <time>2023-05-19T09:19:35Z</time>
      </trkpt>
      <trkpt lat="44.58765" lon="5.89043">
        <ele>1342</ele>
        <time>2023-05-19T09:19:36Z</time>
      </trkpt>
      <trkpt lat="44.58767" lon="5.89044">
        <ele>1342</ele>
        <time>2023-05-19T09:19:37Z</time>
      </trkpt>
      <trkpt lat="44.5877" lon="5.89046">
        <ele>1342</ele>
        <time>2023-05-19T09:19:38Z</time>
      </trkpt>
      <trkpt lat="44.58772" lon="5.89048">
        <ele>1342</ele>
        <time>2023-05-19T09:19:39Z</time>
      </trkpt>
      <trkpt lat="44.58774" lon="5.8905">
        <ele>1342</ele>
        <time>2023-05-19T09:19:40Z</time>
      </trkpt>
      <trkpt lat="44.58776" lon="5.89052">
        <ele>1342.2</ele>
        <time>2023-05-19T09:19:41Z</time>
      </trkpt>
      <trkpt lat="44.58778" lon="5.89055">
        <ele>1342.2</ele>
        <time>2023-05-19T09:19:42Z</time>
      </trkpt>
      <trkpt lat="44.5878" lon="5.89056">
        <ele>1342.4</ele>
        <time>2023-05-19T09:19:43Z</time>
      </trkpt>
      <trkpt lat="44.58783" lon="5.89058">
        <ele>1342.4</ele>
        <time>2023-05-19T09:19:44Z</time>
      </trkpt>
      <trkpt lat="44.58785" lon="5.89059">
        <ele>1342.4</ele>
        <time>2023-05-19T09:19:45Z</time>
      </trkpt>
      <trkpt lat="44.58788" lon="5.89061">
        <ele>1342.6</ele>
        <time>2023-05-19T09:19:46Z</time>
      </trkpt>
      <trkpt lat="44.58796" lon="5.89065">
        <ele>1342.8</ele>
        <time>2023-05-19T09:19:49Z</time>
      </trkpt>
      <trkpt lat="44.58798" lon="5.89066">
        <ele>1342.8</ele>
        <time>2023-05-19T09:19:50Z</time>
      </trkpt>
      <trkpt lat="44.588" lon="5.89067">
        <ele>1342.8</ele>
        <time>2023-05-19T09:19:51Z</time>
      </trkpt>
      <trkpt lat="44.58802" lon="5.89068">
        <ele>1343</ele>
        <time>2023-05-19T09:19:52Z</time>
      </trkpt>
      <trkpt lat="44.58808" lon="5.89071">
        <ele>1343</ele>
        <time>2023-05-19T09:19:55Z</time>
      </trkpt>
      <trkpt lat="44.5881" lon="5.89072">
        <ele>1343.2</ele>
        <time>2023-05-19T09:19:56Z</time>
      </trkpt>
      <trkpt lat="44.58812" lon="5.89073">
        <ele>1343.2</ele>
        <time>2023-05-19T09:19:57Z</time>
      </trkpt>
      <trkpt lat="44.58814" lon="5.89075">
        <ele>1343.2</ele>
        <time>2023-05-19T09:19:58Z</time>
      </trkpt>
      <trkpt lat="44.58817" lon="5.89077">
        <ele>1343.2</ele>
        <time>2023-05-19T09:19:59Z</time>
      </trkpt>
      <trkpt lat="44.58819" lon="5.89079">
        <ele>1343.4</ele>
        <time>2023-05-19T09:20:00Z</time>
      </trkpt>
      <trkpt lat="44.58822" lon="5.89081">
        <ele>1343.4</ele>
        <time>2023-05-19T09:20:01Z</time>
      </trkpt>
      <trkpt lat="44.58825" lon="5.89083">
        <ele>1343.6</ele>
        <time>2023-05-19T09:20:02Z</time>
      </trkpt>
      <trkpt lat="44.58827" lon="5.89085">
        <ele>1343.6</ele>
        <time>2023-05-19T09:20:03Z</time>
      </trkpt>
      <trkpt lat="44.5883" lon="5.89087">
        <ele>1343.8</ele>
        <time>2023-05-19T09:20:04Z</time>
      </trkpt>
      <trkpt lat="44.58841" lon="5.89094">
        <ele>1344</ele>
        <time>2023-05-19T09:20:08Z</time>
      </trkpt>
      <trkpt lat="44.58844" lon="5.89096">
        <ele>1343.8</ele>
        <time>2023-05-19T09:20:09Z</time>
      </trkpt>
      <trkpt lat="44.5885" lon="5.89102">
        <ele>1344</ele>
        <time>2023-05-19T09:20:11Z</time>
      </trkpt>
      <trkpt lat="44.5886" lon="5.89109">
        <ele>1344.2</ele>
        <time>2023-05-19T09:20:14Z</time>
      </trkpt>
      <trkpt lat="44.58875" lon="5.89117">
        <ele>1344.2</ele>
        <time>2023-05-19T09:20:18Z</time>
      </trkpt>
      <trkpt lat="44.58879" lon="5.89118">
        <ele>1344.2</ele>
        <time>2023-05-19T09:20:19Z</time>
      </trkpt>
      <trkpt lat="44.5889" lon="5.89122">
        <ele>1344</ele>
        <time>2023-05-19T09:20:23Z</time>
      </trkpt>
      <trkpt lat="44.58893" lon="5.89123">
        <ele>1344</ele>
        <time>2023-05-19T09:20:24Z</time>
      </trkpt>
      <trkpt lat="44.58898" lon="5.89126">
        <ele>1344</ele>
        <time>2023-05-19T09:20:25Z</time>
      </trkpt>
      <trkpt lat="44.5891" lon="5.89132">
        <ele>1344</ele>
        <time>2023-05-19T09:20:29Z</time>
      </trkpt>
      <trkpt lat="44.58914" lon="5.89133">
        <ele>1344</ele>
        <time>2023-05-19T09:20:30Z</time>
      </trkpt>
      <trkpt lat="44.58917" lon="5.89134">
        <ele>1344</ele>
        <time>2023-05-19T09:20:31Z</time>
      </trkpt>
      <trkpt lat="44.5892" lon="5.89135">
        <ele>1344</ele>
        <time>2023-05-19T09:20:32Z</time>
      </trkpt>
      <trkpt lat="44.58933" lon="5.8914">
        <ele>1344</ele>
        <time>2023-05-19T09:20:36Z</time>
      </trkpt>
      <trkpt lat="44.58952" lon="5.89145">
        <ele>1344</ele>
        <time>2023-05-19T09:20:42Z</time>
      </trkpt>
      <trkpt lat="44.58972" lon="5.89148">
        <ele>1344</ele>
        <time>2023-05-19T09:20:48Z</time>
      </trkpt>
      <trkpt lat="44.58984" lon="5.8915">
        <ele>1344</ele>
        <time>2023-05-19T09:20:52Z</time>
      </trkpt>
      <trkpt lat="44.58992" lon="5.89149">
        <ele>1344.2</ele>
        <time>2023-05-19T09:20:54Z</time>
      </trkpt>
      <trkpt lat="44.59015" lon="5.89143">
        <ele>1344.2</ele>
        <time>2023-05-19T09:21:00Z</time>
      </trkpt>
      <trkpt lat="44.59038" lon="5.89134">
        <ele>1344.2</ele>
        <time>2023-05-19T09:21:07Z</time>
      </trkpt>
      <trkpt lat="44.5906" lon="5.89127">
        <ele>1344.4</ele>
        <time>2023-05-19T09:21:14Z</time>
      </trkpt>
      <trkpt lat="44.59063" lon="5.89127">
        <ele>1344.2</ele>
        <time>2023-05-19T09:21:15Z</time>
      </trkpt>
      <trkpt lat="44.59069" lon="5.89125">
        <ele>1344.4</ele>
        <time>2023-05-19T09:21:17Z</time>
      </trkpt>
      <trkpt lat="44.59073" lon="5.89125">
        <ele>1344.4</ele>
        <time>2023-05-19T09:21:18Z</time>
      </trkpt>
      <trkpt lat="44.59076" lon="5.89125">
        <ele>1344.4</ele>
        <time>2023-05-19T09:21:19Z</time>
      </trkpt>
      <trkpt lat="44.59079" lon="5.89125">
        <ele>1344.4</ele>
        <time>2023-05-19T09:21:20Z</time>
      </trkpt>
      <trkpt lat="44.59082" lon="5.89125">
        <ele>1344.4</ele>
        <time>2023-05-19T09:21:21Z</time>
      </trkpt>
      <trkpt lat="44.59085" lon="5.89126">
        <ele>1344.4</ele>
        <time>2023-05-19T09:21:22Z</time>
      </trkpt>
      <trkpt lat="44.59087" lon="5.89128">
        <ele>1344.4</ele>
        <time>2023-05-19T09:21:23Z</time>
      </trkpt>
      <trkpt lat="44.5909" lon="5.8913">
        <ele>1344.4</ele>
        <time>2023-05-19T09:21:24Z</time>
      </trkpt>
      <trkpt lat="44.59092" lon="5.89133">
        <ele>1344.4</ele>
        <time>2023-05-19T09:21:25Z</time>
      </trkpt>
      <trkpt lat="44.59094" lon="5.89135">
        <ele>1344.4</ele>
        <time>2023-05-19T09:21:26Z</time>
      </trkpt>
      <trkpt lat="44.59097" lon="5.89142">
        <ele>1344.4</ele>
        <time>2023-05-19T09:21:28Z</time>
      </trkpt>
      <trkpt lat="44.59099" lon="5.89145">
        <ele>1344.2</ele>
        <time>2023-05-19T09:21:29Z</time>
      </trkpt>
      <trkpt lat="44.59101" lon="5.89149">
        <ele>1344.2</ele>
        <time>2023-05-19T09:21:30Z</time>
      </trkpt>
      <trkpt lat="44.59103" lon="5.89152">
        <ele>1344</ele>
        <time>2023-05-19T09:21:31Z</time>
      </trkpt>
      <trkpt lat="44.59104" lon="5.89154">
        <ele>1344</ele>
        <time>2023-05-19T09:21:32Z</time>
      </trkpt>
      <trkpt lat="44.59106" lon="5.89158">
        <ele>1344</ele>
        <time>2023-05-19T09:21:33Z</time>
      </trkpt>
      <trkpt lat="44.59108" lon="5.89162">
        <ele>1344</ele>
        <time>2023-05-19T09:21:34Z</time>
      </trkpt>
      <trkpt lat="44.5911" lon="5.89167">
        <ele>1343.8</ele>
        <time>2023-05-19T09:21:35Z</time>
      </trkpt>
      <trkpt lat="44.59112" lon="5.89171">
        <ele>1343.8</ele>
        <time>2023-05-19T09:21:36Z</time>
      </trkpt>
      <trkpt lat="44.59115" lon="5.89186">
        <ele>1343.8</ele>
        <time>2023-05-19T09:21:39Z</time>
      </trkpt>
      <trkpt lat="44.59117" lon="5.89193">
        <ele>1343.8</ele>
        <time>2023-05-19T09:21:41Z</time>
      </trkpt>
      <trkpt lat="44.59123" lon="5.89212">
        <ele>1343.4</ele>
        <time>2023-05-19T09:21:45Z</time>
      </trkpt>
      <trkpt lat="44.59127" lon="5.89221">
        <ele>1343.2</ele>
        <time>2023-05-19T09:21:47Z</time>
      </trkpt>
      <trkpt lat="44.59131" lon="5.89237">
        <ele>1343.2</ele>
        <time>2023-05-19T09:21:50Z</time>
      </trkpt>
      <trkpt lat="44.59132" lon="5.89244">
        <ele>1342.8</ele>
        <time>2023-05-19T09:21:51Z</time>
      </trkpt>
      <trkpt lat="44.59133" lon="5.89249">
        <ele>1342.8</ele>
        <time>2023-05-19T09:21:52Z</time>
      </trkpt>
      <trkpt lat="44.59146" lon="5.8928">
        <ele>1342</ele>
        <time>2023-05-19T09:21:59Z</time>
      </trkpt>
      <trkpt lat="44.59159" lon="5.89291">
        <ele>1342</ele>
        <time>2023-05-19T09:22:04Z</time>
      </trkpt>
      <trkpt lat="44.59161" lon="5.89292">
        <ele>1342</ele>
        <time>2023-05-19T09:22:05Z</time>
      </trkpt>
      <trkpt lat="44.59164" lon="5.89292">
        <ele>1342</ele>
        <time>2023-05-19T09:22:06Z</time>
      </trkpt>
      <trkpt lat="44.59167" lon="5.89293">
        <ele>1342</ele>
        <time>2023-05-19T09:22:07Z</time>
      </trkpt>
      <trkpt lat="44.5917" lon="5.89293">
        <ele>1342</ele>
        <time>2023-05-19T09:22:08Z</time>
      </trkpt>
      <trkpt lat="44.59172" lon="5.89293">
        <ele>1342</ele>
        <time>2023-05-19T09:22:09Z</time>
      </trkpt>
      <trkpt lat="44.59176" lon="5.89293">
        <ele>1342</ele>
        <time>2023-05-19T09:22:10Z</time>
      </trkpt>
      <trkpt lat="44.59178" lon="5.89292">
        <ele>1342</ele>
        <time>2023-05-19T09:22:11Z</time>
      </trkpt>
      <trkpt lat="44.5918" lon="5.89292">
        <ele>1342</ele>
        <time>2023-05-19T09:22:12Z</time>
      </trkpt>
      <trkpt lat="44.59181" lon="5.89293">
        <ele>1342</ele>
        <time>2023-05-19T09:22:13Z</time>
      </trkpt>
      <trkpt lat="44.59183" lon="5.89293">
        <ele>1342</ele>
        <time>2023-05-19T09:22:14Z</time>
      </trkpt>
      <trkpt lat="44.59185" lon="5.89293">
        <ele>1342</ele>
        <time>2023-05-19T09:22:15Z</time>
      </trkpt>
      <trkpt lat="44.59187" lon="5.89293">
        <ele>1342</ele>
        <time>2023-05-19T09:22:16Z</time>
      </trkpt>
      <trkpt lat="44.59199" lon="5.89293">
        <ele>1342.2</ele>
        <time>2023-05-19T09:22:21Z</time>
      </trkpt>
      <trkpt lat="44.59201" lon="5.89293">
        <ele>1342.2</ele>
        <time>2023-05-19T09:22:22Z</time>
      </trkpt>
      <trkpt lat="44.59204" lon="5.89293">
        <ele>1342.2</ele>
        <time>2023-05-19T09:22:23Z</time>
      </trkpt>
      <trkpt lat="44.59206" lon="5.89293">
        <ele>1342.2</ele>
        <time>2023-05-19T09:22:24Z</time>
      </trkpt>
      <trkpt lat="44.59208" lon="5.89293">
        <ele>1342.2</ele>
        <time>2023-05-19T09:22:25Z</time>
      </trkpt>
      <trkpt lat="44.59222" lon="5.89294">
        <ele>1342.2</ele>
        <time>2023-05-19T09:22:30Z</time>
      </trkpt>
      <trkpt lat="44.59246" lon="5.89294">
        <ele>1342.2</ele>
        <time>2023-05-19T09:22:37Z</time>
      </trkpt>
      <trkpt lat="44.5925" lon="5.89294">
        <ele>1342.2</ele>
        <time>2023-05-19T09:22:38Z</time>
      </trkpt>
      <trkpt lat="44.59266" lon="5.8929">
        <ele>1342.2</ele>
        <time>2023-05-19T09:22:42Z</time>
      </trkpt>
      <trkpt lat="44.59269" lon="5.8929">
        <ele>1342.2</ele>
        <time>2023-05-19T09:22:43Z</time>
      </trkpt>
      <trkpt lat="44.59273" lon="5.89292">
        <ele>1342.4</ele>
        <time>2023-05-19T09:22:44Z</time>
      </trkpt>
      <trkpt lat="44.59276" lon="5.89294">
        <ele>1342.4</ele>
        <time>2023-05-19T09:22:45Z</time>
      </trkpt>
      <trkpt lat="44.59279" lon="5.89297">
        <ele>1342.4</ele>
        <time>2023-05-19T09:22:46Z</time>
      </trkpt>
      <trkpt lat="44.59282" lon="5.89301">
        <ele>1342.4</ele>
        <time>2023-05-19T09:22:47Z</time>
      </trkpt>
      <trkpt lat="44.59284" lon="5.89305">
        <ele>1342.2</ele>
        <time>2023-05-19T09:22:48Z</time>
      </trkpt>
      <trkpt lat="44.59285" lon="5.89309">
        <ele>1342.2</ele>
        <time>2023-05-19T09:22:49Z</time>
      </trkpt>
      <trkpt lat="44.59286" lon="5.89313">
        <ele>1342.2</ele>
        <time>2023-05-19T09:22:50Z</time>
      </trkpt>
      <trkpt lat="44.59286" lon="5.89316">
        <ele>1342.2</ele>
        <time>2023-05-19T09:22:51Z</time>
      </trkpt>
      <trkpt lat="44.59286" lon="5.8932">
        <ele>1342.2</ele>
        <time>2023-05-19T09:22:52Z</time>
      </trkpt>
      <trkpt lat="44.59286" lon="5.89325">
        <ele>1342</ele>
        <time>2023-05-19T09:22:53Z</time>
      </trkpt>
      <trkpt lat="44.59285" lon="5.89342">
        <ele>1341.6</ele>
        <time>2023-05-19T09:22:57Z</time>
      </trkpt>
      <trkpt lat="44.59284" lon="5.89358">
        <ele>1341.6</ele>
        <time>2023-05-19T09:23:01Z</time>
      </trkpt>
      <trkpt lat="44.59284" lon="5.89372">
        <ele>1341.4</ele>
        <time>2023-05-19T09:23:04Z</time>
      </trkpt>
      <trkpt lat="44.59285" lon="5.89381">
        <ele>1341.6</ele>
        <time>2023-05-19T09:23:06Z</time>
      </trkpt>
      <trkpt lat="44.59286" lon="5.89386">
        <ele>1341.6</ele>
        <time>2023-05-19T09:23:07Z</time>
      </trkpt>
      <trkpt lat="44.59291" lon="5.894">
        <ele>1341.6</ele>
        <time>2023-05-19T09:23:10Z</time>
      </trkpt>
      <trkpt lat="44.59294" lon="5.89404">
        <ele>1341.6</ele>
        <time>2023-05-19T09:23:11Z</time>
      </trkpt>
      <trkpt lat="44.59297" lon="5.89407">
        <ele>1341.6</ele>
        <time>2023-05-19T09:23:12Z</time>
      </trkpt>
      <trkpt lat="44.593" lon="5.8941">
        <ele>1341.6</ele>
        <time>2023-05-19T09:23:13Z</time>
      </trkpt>
      <trkpt lat="44.59303" lon="5.89413">
        <ele>1341.6</ele>
        <time>2023-05-19T09:23:14Z</time>
      </trkpt>
      <trkpt lat="44.59306" lon="5.89416">
        <ele>1341.6</ele>
        <time>2023-05-19T09:23:15Z</time>
      </trkpt>
      <trkpt lat="44.59309" lon="5.89418">
        <ele>1341.6</ele>
        <time>2023-05-19T09:23:16Z</time>
      </trkpt>
      <trkpt lat="44.59314" lon="5.89421">
        <ele>1341.6</ele>
        <time>2023-05-19T09:23:18Z</time>
      </trkpt>
      <trkpt lat="44.59332" lon="5.89428">
        <ele>1341.4</ele>
        <time>2023-05-19T09:23:22Z</time>
      </trkpt>
      <trkpt lat="44.59348" lon="5.89431">
        <ele>1341.4</ele>
        <time>2023-05-19T09:23:27Z</time>
      </trkpt>
      <trkpt lat="44.5935" lon="5.89432">
        <ele>1341.4</ele>
        <time>2023-05-19T09:23:28Z</time>
      </trkpt>
      <trkpt lat="44.59351" lon="5.89432">
        <ele>1341.4</ele>
        <time>2023-05-19T09:23:29Z</time>
      </trkpt>
      <trkpt lat="44.59353" lon="5.89432">
        <ele>1341.4</ele>
        <time>2023-05-19T09:23:30Z</time>
      </trkpt>
      <trkpt lat="44.59354" lon="5.89432">
        <ele>1341.4</ele>
        <time>2023-05-19T09:23:31Z</time>
      </trkpt>
      <trkpt lat="44.59354" lon="5.89432">
        <ele>1341.4</ele>
        <time>2023-05-19T09:23:32Z</time>
      </trkpt>
      <trkpt lat="44.59354" lon="5.89432">
        <ele>1341.4</ele>
        <time>2023-05-19T09:23:33Z</time>
      </trkpt>
      <trkpt lat="44.5936" lon="5.89433">
        <ele>1341.2</ele>
        <time>2023-05-19T09:23:59Z</time>
      </trkpt>
      <trkpt lat="44.59372" lon="5.89435">
        <ele>1341</ele>
        <time>2023-05-19T09:24:05Z</time>
      </trkpt>
      <trkpt lat="44.59374" lon="5.89435">
        <ele>1341</ele>
        <time>2023-05-19T09:24:06Z</time>
      </trkpt>
      <trkpt lat="44.59376" lon="5.89435">
        <ele>1341</ele>
        <time>2023-05-19T09:24:07Z</time>
      </trkpt>
      <trkpt lat="44.59378" lon="5.89435">
        <ele>1341</ele>
        <time>2023-05-19T09:24:08Z</time>
      </trkpt>
      <trkpt lat="44.5939" lon="5.89437">
        <ele>1341</ele>
        <time>2023-05-19T09:24:14Z</time>
      </trkpt>
      <trkpt lat="44.59394" lon="5.89437">
        <ele>1341</ele>
        <time>2023-05-19T09:24:16Z</time>
      </trkpt>
      <trkpt lat="44.59394" lon="5.89437">
        <ele>1341</ele>
        <time>2023-05-19T09:24:17Z</time>
      </trkpt>
      <trkpt lat="44.59394" lon="5.89437">
        <ele>1341</ele>
        <time>2023-05-19T09:24:18Z</time>
      </trkpt>
      <trkpt lat="44.59394" lon="5.89437">
        <ele>1341</ele>
        <time>2023-05-19T09:24:19Z</time>
      </trkpt>
      <trkpt lat="44.59398" lon="5.89438">
        <ele>1340.6</ele>
        <time>2023-05-19T09:24:27Z</time>
      </trkpt>
      <trkpt lat="44.594" lon="5.89438">
        <ele>1340.6</ele>
        <time>2023-05-19T09:24:28Z</time>
      </trkpt>
      <trkpt lat="44.59403" lon="5.89438">
        <ele>1340.6</ele>
        <time>2023-05-19T09:24:30Z</time>
      </trkpt>
      <trkpt lat="44.59404" lon="5.89438">
        <ele>1340.4</ele>
        <time>2023-05-19T09:24:31Z</time>
      </trkpt>
      <trkpt lat="44.59405" lon="5.89439">
        <ele>1340.4</ele>
        <time>2023-05-19T09:24:32Z</time>
      </trkpt>
      <trkpt lat="44.59406" lon="5.8944">
        <ele>1340.4</ele>
        <time>2023-05-19T09:24:33Z</time>
      </trkpt>
      <trkpt lat="44.59407" lon="5.8944">
        <ele>1340.4</ele>
        <time>2023-05-19T09:24:34Z</time>
      </trkpt>
      <trkpt lat="44.59407" lon="5.8944">
        <ele>1340.4</ele>
        <time>2023-05-19T09:24:35Z</time>
      </trkpt>
      <trkpt lat="44.59407" lon="5.8944">
        <ele>1340.6</ele>
        <time>2023-05-19T09:24:36Z</time>
      </trkpt>
      <trkpt lat="44.59407" lon="5.89441">
        <ele>1340.6</ele>
        <time>2023-05-19T09:24:37Z</time>
      </trkpt>
      <trkpt lat="44.59407" lon="5.89441">
        <ele>1340.8</ele>
        <time>2023-05-19T09:24:38Z</time>
      </trkpt>
      <trkpt lat="44.59407" lon="5.89441">
        <ele>1340.8</ele>
        <time>2023-05-19T09:24:39Z</time>
      </trkpt>
      <trkpt lat="44.59408" lon="5.89442">
        <ele>1340.8</ele>
        <time>2023-05-19T09:24:40Z</time>
      </trkpt>
      <trkpt lat="44.59411" lon="5.89445">
        <ele>1340.8</ele>
        <time>2023-05-19T09:24:42Z</time>
      </trkpt>
      <trkpt lat="44.59411" lon="5.89447">
        <ele>1340.8</ele>
        <time>2023-05-19T09:24:43Z</time>
      </trkpt>
      <trkpt lat="44.59413" lon="5.89449">
        <ele>1340.8</ele>
        <time>2023-05-19T09:24:44Z</time>
      </trkpt>
      <trkpt lat="44.59414" lon="5.89451">
        <ele>1341</ele>
        <time>2023-05-19T09:24:45Z</time>
      </trkpt>
      <trkpt lat="44.59415" lon="5.89453">
        <ele>1340.8</ele>
        <time>2023-05-19T09:24:48Z</time>
      </trkpt>
      <trkpt lat="44.59415" lon="5.89453">
        <ele>1340.8</ele>
        <time>2023-05-19T09:24:50Z</time>
      </trkpt>
      <trkpt lat="44.59415" lon="5.89452">
        <ele>1341.2</ele>
        <time>2023-05-19T09:25:02Z</time>
      </trkpt>
      <trkpt lat="44.59415" lon="5.89452">
        <ele>1341</ele>
        <time>2023-05-19T09:25:55Z</time>
      </trkpt>
      <trkpt lat="44.59415" lon="5.89452">
        <ele>1341</ele>
        <time>2023-05-19T09:26:00Z</time>
      </trkpt>
      <trkpt lat="44.59416" lon="5.89454">
        <ele>1340.8</ele>
        <time>2023-05-19T09:26:17Z</time>
      </trkpt>
      <trkpt lat="44.59415" lon="5.89454">
        <ele>1340.8</ele>
        <time>2023-05-19T09:26:18Z</time>
      </trkpt>
      <trkpt lat="44.59416" lon="5.89454">
        <ele>1340.8</ele>
        <time>2023-05-19T09:26:19Z</time>
      </trkpt>
      <trkpt lat="44.59417" lon="5.89456">
        <ele>1340.8</ele>
        <time>2023-05-19T09:26:20Z</time>
      </trkpt>
      <trkpt lat="44.59418" lon="5.89458">
        <ele>1340.8</ele>
        <time>2023-05-19T09:26:21Z</time>
      </trkpt>
      <trkpt lat="44.59422" lon="5.89467">
        <ele>1340.6</ele>
        <time>2023-05-19T09:26:24Z</time>
      </trkpt>
      <trkpt lat="44.59426" lon="5.89484">
        <ele>1340.6</ele>
        <time>2023-05-19T09:26:28Z</time>
      </trkpt>
      <trkpt lat="44.59427" lon="5.89488">
        <ele>1340.6</ele>
        <time>2023-05-19T09:26:29Z</time>
      </trkpt>
      <trkpt lat="44.59431" lon="5.89501">
        <ele>1340.6</ele>
        <time>2023-05-19T09:26:32Z</time>
      </trkpt>
      <trkpt lat="44.5944" lon="5.89514">
        <ele>1340.6</ele>
        <time>2023-05-19T09:26:36Z</time>
      </trkpt>
      <trkpt lat="44.59456" lon="5.89533">
        <ele>1340.6</ele>
        <time>2023-05-19T09:26:42Z</time>
      </trkpt>
      <trkpt lat="44.59468" lon="5.89545">
        <ele>1340.6</ele>
        <time>2023-05-19T09:26:46Z</time>
      </trkpt>
      <trkpt lat="44.5947" lon="5.89546">
        <ele>1340.6</ele>
        <time>2023-05-19T09:26:47Z</time>
      </trkpt>
      <trkpt lat="44.59473" lon="5.89546">
        <ele>1340.6</ele>
        <time>2023-05-19T09:26:48Z</time>
      </trkpt>
      <trkpt lat="44.59475" lon="5.89545">
        <ele>1340.6</ele>
        <time>2023-05-19T09:26:49Z</time>
      </trkpt>
      <trkpt lat="44.59477" lon="5.89545">
        <ele>1340.8</ele>
        <time>2023-05-19T09:26:50Z</time>
      </trkpt>
      <trkpt lat="44.5948" lon="5.89543">
        <ele>1340.8</ele>
        <time>2023-05-19T09:26:51Z</time>
      </trkpt>
      <trkpt lat="44.59481" lon="5.89542">
        <ele>1340.8</ele>
        <time>2023-05-19T09:26:52Z</time>
      </trkpt>
      <trkpt lat="44.59484" lon="5.89542">
        <ele>1340.8</ele>
        <time>2023-05-19T09:26:53Z</time>
      </trkpt>
      <trkpt lat="44.5949" lon="5.8954">
        <ele>1341</ele>
        <time>2023-05-19T09:26:55Z</time>
      </trkpt>
      <trkpt lat="44.59493" lon="5.8954">
        <ele>1341</ele>
        <time>2023-05-19T09:26:56Z</time>
      </trkpt>
      <trkpt lat="44.59497" lon="5.89539">
        <ele>1341</ele>
        <time>2023-05-19T09:26:57Z</time>
      </trkpt>
      <trkpt lat="44.59503" lon="5.89536">
        <ele>1341.2</ele>
        <time>2023-05-19T09:26:59Z</time>
      </trkpt>
      <trkpt lat="44.59514" lon="5.8953">
        <ele>1341.4</ele>
        <time>2023-05-19T09:27:02Z</time>
      </trkpt>
      <trkpt lat="44.59528" lon="5.89523">
        <ele>1341.4</ele>
        <time>2023-05-19T09:27:06Z</time>
      </trkpt>
      <trkpt lat="44.59532" lon="5.89521">
        <ele>1341.4</ele>
        <time>2023-05-19T09:27:07Z</time>
      </trkpt>
      <trkpt lat="44.59535" lon="5.89519">
        <ele>1341.6</ele>
        <time>2023-05-19T09:27:08Z</time>
      </trkpt>
      <trkpt lat="44.59541" lon="5.89513">
        <ele>1341.6</ele>
        <time>2023-05-19T09:27:10Z</time>
      </trkpt>
      <trkpt lat="44.59567" lon="5.89489">
        <ele>1341.6</ele>
        <time>2023-05-19T09:27:18Z</time>
      </trkpt>
      <trkpt lat="44.59587" lon="5.89472">
        <ele>1341.6</ele>
        <time>2023-05-19T09:27:24Z</time>
      </trkpt>
      <trkpt lat="44.59593" lon="5.89467">
        <ele>1341.6</ele>
        <time>2023-05-19T09:27:26Z</time>
      </trkpt>
      <trkpt lat="44.59596" lon="5.89464">
        <ele>1341.6</ele>
        <time>2023-05-19T09:27:27Z</time>
      </trkpt>
      <trkpt lat="44.59606" lon="5.89455">
        <ele>1341.4</ele>
        <time>2023-05-19T09:27:30Z</time>
      </trkpt>
      <trkpt lat="44.59609" lon="5.89451">
        <ele>1341.4</ele>
        <time>2023-05-19T09:27:31Z</time>
      </trkpt>
      <trkpt lat="44.59632" lon="5.89428">
        <ele>1341.2</ele>
        <time>2023-05-19T09:27:38Z</time>
      </trkpt>
      <trkpt lat="44.59646" lon="5.89412">
        <ele>1341.2</ele>
        <time>2023-05-19T09:27:43Z</time>
      </trkpt>
      <trkpt lat="44.59648" lon="5.89408">
        <ele>1341.2</ele>
        <time>2023-05-19T09:27:44Z</time>
      </trkpt>
      <trkpt lat="44.59651" lon="5.89404">
        <ele>1341.2</ele>
        <time>2023-05-19T09:27:45Z</time>
      </trkpt>
      <trkpt lat="44.59653" lon="5.894">
        <ele>1341.2</ele>
        <time>2023-05-19T09:27:46Z</time>
      </trkpt>
      <trkpt lat="44.59655" lon="5.89397">
        <ele>1341.2</ele>
        <time>2023-05-19T09:27:47Z</time>
      </trkpt>
      <trkpt lat="44.59657" lon="5.89393">
        <ele>1341.2</ele>
        <time>2023-05-19T09:27:48Z</time>
      </trkpt>
      <trkpt lat="44.59658" lon="5.89389">
        <ele>1341.2</ele>
        <time>2023-05-19T09:27:49Z</time>
      </trkpt>
      <trkpt lat="44.5966" lon="5.89386">
        <ele>1341.2</ele>
        <time>2023-05-19T09:27:50Z</time>
      </trkpt>
      <trkpt lat="44.59662" lon="5.89382">
        <ele>1341.2</ele>
        <time>2023-05-19T09:27:51Z</time>
      </trkpt>
      <trkpt lat="44.59664" lon="5.89378">
        <ele>1341.2</ele>
        <time>2023-05-19T09:27:52Z</time>
      </trkpt>
      <trkpt lat="44.59667" lon="5.8937">
        <ele>1341.2</ele>
        <time>2023-05-19T09:27:54Z</time>
      </trkpt>
      <trkpt lat="44.59669" lon="5.89366">
        <ele>1341.2</ele>
        <time>2023-05-19T09:27:55Z</time>
      </trkpt>
      <trkpt lat="44.59671" lon="5.89362">
        <ele>1341.2</ele>
        <time>2023-05-19T09:27:56Z</time>
      </trkpt>
      <trkpt lat="44.59672" lon="5.89357">
        <ele>1341.2</ele>
        <time>2023-05-19T09:27:57Z</time>
      </trkpt>
      <trkpt lat="44.59673" lon="5.89353">
        <ele>1341.2</ele>
        <time>2023-05-19T09:27:58Z</time>
      </trkpt>
      <trkpt lat="44.59675" lon="5.89349">
        <ele>1341.2</ele>
        <time>2023-05-19T09:27:59Z</time>
      </trkpt>
      <trkpt lat="44.59684" lon="5.89324">
        <ele>1341.4</ele>
        <time>2023-05-19T09:28:05Z</time>
      </trkpt>
      <trkpt lat="44.59688" lon="5.89301">
        <ele>1341.4</ele>
        <time>2023-05-19T09:28:10Z</time>
      </trkpt>
      <trkpt lat="44.59688" lon="5.89291">
        <ele>1341.6</ele>
        <time>2023-05-19T09:28:13Z</time>
      </trkpt>
      <trkpt lat="44.59687" lon="5.89284">
        <ele>1341.6</ele>
        <time>2023-05-19T09:28:15Z</time>
      </trkpt>
      <trkpt lat="44.59687" lon="5.89279">
        <ele>1341.6</ele>
        <time>2023-05-19T09:28:16Z</time>
      </trkpt>
      <trkpt lat="44.59688" lon="5.89276">
        <ele>1341.6</ele>
        <time>2023-05-19T09:28:17Z</time>
      </trkpt>
      <trkpt lat="44.5969" lon="5.89272">
        <ele>1341.6</ele>
        <time>2023-05-19T09:28:18Z</time>
      </trkpt>
      <trkpt lat="44.59694" lon="5.89269">
        <ele>1341.6</ele>
        <time>2023-05-19T09:28:19Z</time>
      </trkpt>
      <trkpt lat="44.597" lon="5.89268">
        <ele>1341.6</ele>
        <time>2023-05-19T09:28:21Z</time>
      </trkpt>
      <trkpt lat="44.59703" lon="5.89269">
        <ele>1341.6</ele>
        <time>2023-05-19T09:28:22Z</time>
      </trkpt>
      <trkpt lat="44.59705" lon="5.8927">
        <ele>1341.6</ele>
        <time>2023-05-19T09:28:23Z</time>
      </trkpt>
      <trkpt lat="44.59708" lon="5.8927">
        <ele>1341.4</ele>
        <time>2023-05-19T09:28:24Z</time>
      </trkpt>
      <trkpt lat="44.5971" lon="5.89272">
        <ele>1341.4</ele>
        <time>2023-05-19T09:28:25Z</time>
      </trkpt>
      <trkpt lat="44.59713" lon="5.89273">
        <ele>1341.4</ele>
        <time>2023-05-19T09:28:26Z</time>
      </trkpt>
      <trkpt lat="44.59716" lon="5.89275">
        <ele>1341.4</ele>
        <time>2023-05-19T09:28:27Z</time>
      </trkpt>
      <trkpt lat="44.59718" lon="5.89277">
        <ele>1341.4</ele>
        <time>2023-05-19T09:28:28Z</time>
      </trkpt>
      <trkpt lat="44.5972" lon="5.89278">
        <ele>1341.4</ele>
        <time>2023-05-19T09:28:29Z</time>
      </trkpt>
      <trkpt lat="44.5972" lon="5.89279">
        <ele>1341.4</ele>
        <time>2023-05-19T09:28:30Z</time>
      </trkpt>
      <trkpt lat="44.5972" lon="5.89279">
        <ele>1341.4</ele>
        <time>2023-05-19T09:28:31Z</time>
      </trkpt>
      <trkpt lat="44.59721" lon="5.89279">
        <ele>1341.4</ele>
        <time>2023-05-19T09:28:32Z</time>
      </trkpt>
      <trkpt lat="44.59722" lon="5.89281">
        <ele>1341.6</ele>
        <time>2023-05-19T09:28:35Z</time>
      </trkpt>
      <trkpt lat="44.59722" lon="5.89282">
        <ele>1341.6</ele>
        <time>2023-05-19T09:28:36Z</time>
      </trkpt>
      <trkpt lat="44.59725" lon="5.89286">
        <ele>1341.2</ele>
        <time>2023-05-19T09:28:38Z</time>
      </trkpt>
      <trkpt lat="44.59726" lon="5.89288">
        <ele>1341.2</ele>
        <time>2023-05-19T09:28:39Z</time>
      </trkpt>
      <trkpt lat="44.59728" lon="5.89291">
        <ele>1341.2</ele>
        <time>2023-05-19T09:28:41Z</time>
      </trkpt>
      <trkpt lat="44.5973" lon="5.89293">
        <ele>1341.2</ele>
        <time>2023-05-19T09:28:43Z</time>
      </trkpt>
      <trkpt lat="44.59731" lon="5.89291">
        <ele>1341.2</ele>
        <time>2023-05-19T09:28:46Z</time>
      </trkpt>
      <trkpt lat="44.5973" lon="5.8929">
        <ele>1341.2</ele>
        <time>2023-05-19T09:28:47Z</time>
      </trkpt>
      <trkpt lat="44.5973" lon="5.8929">
        <ele>1341.2</ele>
        <time>2023-05-19T09:28:48Z</time>
      </trkpt>
      <trkpt lat="44.5973" lon="5.8929">
        <ele>1341.2</ele>
        <time>2023-05-19T09:28:49Z</time>
      </trkpt>
      <trkpt lat="44.59729" lon="5.89289">
        <ele>1341.2</ele>
        <time>2023-05-19T09:28:50Z</time>
      </trkpt>
      <trkpt lat="44.59728" lon="5.89288">
        <ele>1341.2</ele>
        <time>2023-05-19T09:28:51Z</time>
      </trkpt>
      <trkpt lat="44.59728" lon="5.89287">
        <ele>1341.2</ele>
        <time>2023-05-19T09:28:52Z</time>
      </trkpt>
      <trkpt lat="44.59728" lon="5.89287">
        <ele>1341.2</ele>
        <time>2023-05-19T09:28:53Z</time>
      </trkpt>
      <trkpt lat="44.59726" lon="5.89285">
        <ele>1340.6</ele>
        <time>2023-05-19T09:29:07Z</time>
      </trkpt>
      <trkpt lat="44.59721" lon="5.89279">
        <ele>1340.6</ele>
        <time>2023-05-19T09:29:12Z</time>
      </trkpt>
      <trkpt lat="44.5972" lon="5.89279">
        <ele>1340.6</ele>
        <time>2023-05-19T09:29:13Z</time>
      </trkpt>
      <trkpt lat="44.59719" lon="5.89278">
        <ele>1340.4</ele>
        <time>2023-05-19T09:29:14Z</time>
      </trkpt>
      <trkpt lat="44.59718" lon="5.89277">
        <ele>1340.4</ele>
        <time>2023-05-19T09:29:15Z</time>
      </trkpt>
      <trkpt lat="44.59716" lon="5.89277">
        <ele>1340.4</ele>
        <time>2023-05-19T09:29:16Z</time>
      </trkpt>
      <trkpt lat="44.59716" lon="5.89275">
        <ele>1340.4</ele>
        <time>2023-05-19T09:29:17Z</time>
      </trkpt>
      <trkpt lat="44.59717" lon="5.89274">
        <ele>1340.4</ele>
        <time>2023-05-19T09:29:18Z</time>
      </trkpt>
      <trkpt lat="44.59719" lon="5.89276">
        <ele>1340.2</ele>
        <time>2023-05-19T09:29:21Z</time>
      </trkpt>
      <trkpt lat="44.5972" lon="5.89277">
        <ele>1340.2</ele>
        <time>2023-05-19T09:29:22Z</time>
      </trkpt>
      <trkpt lat="44.59722" lon="5.89281">
        <ele>1340.4</ele>
        <time>2023-05-19T09:29:24Z</time>
      </trkpt>
      <trkpt lat="44.59723" lon="5.89283">
        <ele>1340.4</ele>
        <time>2023-05-19T09:29:25Z</time>
      </trkpt>
      <trkpt lat="44.59724" lon="5.89285">
        <ele>1340.2</ele>
        <time>2023-05-19T09:29:26Z</time>
      </trkpt>
      <trkpt lat="44.59725" lon="5.89286">
        <ele>1340.2</ele>
        <time>2023-05-19T09:29:27Z</time>
      </trkpt>
      <trkpt lat="44.59728" lon="5.8929">
        <ele>1340.2</ele>
        <time>2023-05-19T09:29:29Z</time>
      </trkpt>
      <trkpt lat="44.59736" lon="5.89295">
        <ele>1340</ele>
        <time>2023-05-19T09:29:34Z</time>
      </trkpt>
      <trkpt lat="44.59738" lon="5.89296">
        <ele>1340</ele>
        <time>2023-05-19T09:29:35Z</time>
      </trkpt>
      <trkpt lat="44.5974" lon="5.89296">
        <ele>1340</ele>
        <time>2023-05-19T09:29:36Z</time>
      </trkpt>
      <trkpt lat="44.59751" lon="5.89296">
        <ele>1340.2</ele>
        <time>2023-05-19T09:29:41Z</time>
      </trkpt>
      <trkpt lat="44.59752" lon="5.89295">
        <ele>1340.2</ele>
        <time>2023-05-19T09:29:42Z</time>
      </trkpt>
      <trkpt lat="44.59754" lon="5.89294">
        <ele>1340.2</ele>
        <time>2023-05-19T09:29:43Z</time>
      </trkpt>
      <trkpt lat="44.59756" lon="5.89294">
        <ele>1340.2</ele>
        <time>2023-05-19T09:29:44Z</time>
      </trkpt>
      <trkpt lat="44.59758" lon="5.89294">
        <ele>1340.2</ele>
        <time>2023-05-19T09:29:45Z</time>
      </trkpt>
      <trkpt lat="44.59759" lon="5.89294">
        <ele>1340.2</ele>
        <time>2023-05-19T09:29:46Z</time>
      </trkpt>
      <trkpt lat="44.59761" lon="5.89295">
        <ele>1340.2</ele>
        <time>2023-05-19T09:29:47Z</time>
      </trkpt>
      <trkpt lat="44.59762" lon="5.89295">
        <ele>1340.2</ele>
        <time>2023-05-19T09:29:48Z</time>
      </trkpt>
      <trkpt lat="44.59764" lon="5.89296">
        <ele>1340.2</ele>
        <time>2023-05-19T09:29:49Z</time>
      </trkpt>
      <trkpt lat="44.59766" lon="5.89297">
        <ele>1340.2</ele>
        <time>2023-05-19T09:29:50Z</time>
      </trkpt>
      <trkpt lat="44.59768" lon="5.89297">
        <ele>1340.2</ele>
        <time>2023-05-19T09:29:51Z</time>
      </trkpt>
      <trkpt lat="44.59776" lon="5.89297">
        <ele>1340</ele>
        <time>2023-05-19T09:29:55Z</time>
      </trkpt>
      <trkpt lat="44.59795" lon="5.89298">
        <ele>1339.6</ele>
        <time>2023-05-19T09:30:03Z</time>
      </trkpt>
      <trkpt lat="44.59804" lon="5.89298">
        <ele>1339.6</ele>
        <time>2023-05-19T09:30:07Z</time>
      </trkpt>
      <trkpt lat="44.59807" lon="5.89297">
        <ele>1339.6</ele>
        <time>2023-05-19T09:30:08Z</time>
      </trkpt>
      <trkpt lat="44.59809" lon="5.89297">
        <ele>1339.6</ele>
        <time>2023-05-19T09:30:09Z</time>
      </trkpt>
      <trkpt lat="44.59812" lon="5.89297">
        <ele>1339.6</ele>
        <time>2023-05-19T09:30:10Z</time>
      </trkpt>
      <trkpt lat="44.59828" lon="5.89297">
        <ele>1339.6</ele>
        <time>2023-05-19T09:30:15Z</time>
      </trkpt>
      <trkpt lat="44.5983" lon="5.89299">
        <ele>1339.6</ele>
        <time>2023-05-19T09:30:16Z</time>
      </trkpt>
      <trkpt lat="44.59832" lon="5.89303">
        <ele>1339.6</ele>
        <time>2023-05-19T09:30:18Z</time>
      </trkpt>
      <trkpt lat="44.59833" lon="5.89305">
        <ele>1339.4</ele>
        <time>2023-05-19T09:30:19Z</time>
      </trkpt>
      <trkpt lat="44.59833" lon="5.89306">
        <ele>1339.4</ele>
        <time>2023-05-19T09:30:20Z</time>
      </trkpt>
      <trkpt lat="44.59833" lon="5.89306">
        <ele>1339.4</ele>
        <time>2023-05-19T09:30:21Z</time>
      </trkpt>
      <trkpt lat="44.59833" lon="5.89306">
        <ele>1339.2</ele>
        <time>2023-05-19T09:30:22Z</time>
      </trkpt>
      <trkpt lat="44.59833" lon="5.89306">
        <ele>1339</ele>
        <time>2023-05-19T09:30:24Z</time>
      </trkpt>
      <trkpt lat="44.59836" lon="5.89309">
        <ele>1338.8</ele>
        <time>2023-05-19T09:30:28Z</time>
      </trkpt>
      <trkpt lat="44.59836" lon="5.89311">
        <ele>1338.8</ele>
        <time>2023-05-19T09:30:29Z</time>
      </trkpt>
      <trkpt lat="44.59835" lon="5.89312">
        <ele>1338.8</ele>
        <time>2023-05-19T09:30:30Z</time>
      </trkpt>
      <trkpt lat="44.59835" lon="5.89313">
        <ele>1338.8</ele>
        <time>2023-05-19T09:30:31Z</time>
      </trkpt>
      <trkpt lat="44.59834" lon="5.89324">
        <ele>1338.2</ele>
        <time>2023-05-19T09:30:38Z</time>
      </trkpt>
      <trkpt lat="44.59834" lon="5.89327">
        <ele>1338.2</ele>
        <time>2023-05-19T09:30:40Z</time>
      </trkpt>
      <trkpt lat="44.59834" lon="5.89333">
        <ele>1338</ele>
        <time>2023-05-19T09:30:44Z</time>
      </trkpt>
      <trkpt lat="44.59834" lon="5.89334">
        <ele>1338</ele>
        <time>2023-05-19T09:30:45Z</time>
      </trkpt>
      <trkpt lat="44.59834" lon="5.89337">
        <ele>1338</ele>
        <time>2023-05-19T09:30:47Z</time>
      </trkpt>
      <trkpt lat="44.59835" lon="5.89343">
        <ele>1338.2</ele>
        <time>2023-05-19T09:30:51Z</time>
      </trkpt>
      <trkpt lat="44.59835" lon="5.89345">
        <ele>1338.4</ele>
        <time>2023-05-19T09:30:53Z</time>
      </trkpt>
      <trkpt lat="44.59835" lon="5.89347">
        <ele>1338.4</ele>
        <time>2023-05-19T09:30:54Z</time>
      </trkpt>
      <trkpt lat="44.59835" lon="5.89347">
        <ele>1338.4</ele>
        <time>2023-05-19T09:30:55Z</time>
      </trkpt>
      <trkpt lat="44.59835" lon="5.89348">
        <ele>1338.4</ele>
        <time>2023-05-19T09:30:56Z</time>
      </trkpt>
      <trkpt lat="44.59835" lon="5.8935">
        <ele>1338.4</ele>
        <time>2023-05-19T09:30:57Z</time>
      </trkpt>
      <trkpt lat="44.59835" lon="5.89351">
        <ele>1338.4</ele>
        <time>2023-05-19T09:30:58Z</time>
      </trkpt>
      <trkpt lat="44.59835" lon="5.89352">
        <ele>1338.6</ele>
        <time>2023-05-19T09:30:59Z</time>
      </trkpt>
      <trkpt lat="44.59835" lon="5.89354">
        <ele>1338.6</ele>
        <time>2023-05-19T09:31:00Z</time>
      </trkpt>
      <trkpt lat="44.59835" lon="5.89355">
        <ele>1338.6</ele>
        <time>2023-05-19T09:31:01Z</time>
      </trkpt>
      <trkpt lat="44.59835" lon="5.89358">
        <ele>1338.6</ele>
        <time>2023-05-19T09:31:03Z</time>
      </trkpt>
      <trkpt lat="44.59835" lon="5.89358">
        <ele>1338.4</ele>
        <time>2023-05-19T09:31:04Z</time>
      </trkpt>
      <trkpt lat="44.59836" lon="5.8936">
        <ele>1338.4</ele>
        <time>2023-05-19T09:31:05Z</time>
      </trkpt>
      <trkpt lat="44.59835" lon="5.89362">
        <ele>1338.4</ele>
        <time>2023-05-19T09:31:07Z</time>
      </trkpt>
      <trkpt lat="44.59835" lon="5.89363">
        <ele>1338.4</ele>
        <time>2023-05-19T09:31:08Z</time>
      </trkpt>
      <trkpt lat="44.59835" lon="5.89364">
        <ele>1338.4</ele>
        <time>2023-05-19T09:31:09Z</time>
      </trkpt>
      <trkpt lat="44.59835" lon="5.89366">
        <ele>1338.4</ele>
        <time>2023-05-19T09:31:10Z</time>
      </trkpt>
      <trkpt lat="44.59833" lon="5.89374">
        <ele>1338.6</ele>
        <time>2023-05-19T09:31:16Z</time>
      </trkpt>
      <trkpt lat="44.59833" lon="5.89374">
        <ele>1338.6</ele>
        <time>2023-05-19T09:31:17Z</time>
      </trkpt>
      <trkpt lat="44.59834" lon="5.89375">
        <ele>1338.6</ele>
        <time>2023-05-19T09:31:18Z</time>
      </trkpt>
      <trkpt lat="44.59834" lon="5.89375">
        <ele>1338.6</ele>
        <time>2023-05-19T09:31:19Z</time>
      </trkpt>
      <trkpt lat="44.59834" lon="5.89375">
        <ele>1338.6</ele>
        <time>2023-05-19T09:31:20Z</time>
      </trkpt>
      <trkpt lat="44.59834" lon="5.89375">
        <ele>1338.6</ele>
        <time>2023-05-19T09:31:21Z</time>
      </trkpt>
      <trkpt lat="44.59833" lon="5.89376">
        <ele>1338.6</ele>
        <time>2023-05-19T09:31:22Z</time>
      </trkpt>
      <trkpt lat="44.59833" lon="5.8938">
        <ele>1338.8</ele>
        <time>2023-05-19T09:31:25Z</time>
      </trkpt>
      <trkpt lat="44.59832" lon="5.89381">
        <ele>1338.8</ele>
        <time>2023-05-19T09:31:26Z</time>
      </trkpt>
      <trkpt lat="44.59832" lon="5.89384">
        <ele>1339</ele>
        <time>2023-05-19T09:31:28Z</time>
      </trkpt>
      <trkpt lat="44.59832" lon="5.89387">
        <ele>1339.2</ele>
        <time>2023-05-19T09:31:31Z</time>
      </trkpt>
      <trkpt lat="44.59832" lon="5.89388">
        <ele>1339.6</ele>
        <time>2023-05-19T09:31:33Z</time>
      </trkpt>
      <trkpt lat="44.59831" lon="5.89389">
        <ele>1339.6</ele>
        <time>2023-05-19T09:31:34Z</time>
      </trkpt>
      <trkpt lat="44.59831" lon="5.89393">
        <ele>1339.8</ele>
        <time>2023-05-19T09:31:37Z</time>
      </trkpt>
      <trkpt lat="44.59831" lon="5.89395">
        <ele>1339.8</ele>
        <time>2023-05-19T09:31:38Z</time>
      </trkpt>
      <trkpt lat="44.59831" lon="5.89396">
        <ele>1339.8</ele>
        <time>2023-05-19T09:31:39Z</time>
      </trkpt>
      <trkpt lat="44.5983" lon="5.89398">
        <ele>1339.8</ele>
        <time>2023-05-19T09:31:41Z</time>
      </trkpt>
      <trkpt lat="44.5983" lon="5.89399">
        <ele>1340</ele>
        <time>2023-05-19T09:31:42Z</time>
      </trkpt>
      <trkpt lat="44.59829" lon="5.89401">
        <ele>1340.2</ele>
        <time>2023-05-19T09:31:44Z</time>
      </trkpt>
      <trkpt lat="44.59829" lon="5.89402">
        <ele>1340.2</ele>
        <time>2023-05-19T09:31:45Z</time>
      </trkpt>
      <trkpt lat="44.59829" lon="5.89403">
        <ele>1340</ele>
        <time>2023-05-19T09:31:46Z</time>
      </trkpt>
      <trkpt lat="44.59829" lon="5.89404">
        <ele>1340</ele>
        <time>2023-05-19T09:31:47Z</time>
      </trkpt>
      <trkpt lat="44.59827" lon="5.89409">
        <ele>1340</ele>
        <time>2023-05-19T09:31:51Z</time>
      </trkpt>
      <trkpt lat="44.59827" lon="5.89411">
        <ele>1340</ele>
        <time>2023-05-19T09:31:52Z</time>
      </trkpt>
      <trkpt lat="44.59826" lon="5.89413">
        <ele>1340</ele>
        <time>2023-05-19T09:31:53Z</time>
      </trkpt>
      <trkpt lat="44.59826" lon="5.89413">
        <ele>1340</ele>
        <time>2023-05-19T09:31:54Z</time>
      </trkpt>
      <trkpt lat="44.59826" lon="5.89417">
        <ele>1340</ele>
        <time>2023-05-19T09:31:57Z</time>
      </trkpt>
      <trkpt lat="44.59825" lon="5.89418">
        <ele>1340</ele>
        <time>2023-05-19T09:31:58Z</time>
      </trkpt>
      <trkpt lat="44.59824" lon="5.89419">
        <ele>1340</ele>
        <time>2023-05-19T09:31:59Z</time>
      </trkpt>
      <trkpt lat="44.59824" lon="5.89422">
        <ele>1340</ele>
        <time>2023-05-19T09:32:01Z</time>
      </trkpt>
      <trkpt lat="44.59824" lon="5.89424">
        <ele>1340</ele>
        <time>2023-05-19T09:32:02Z</time>
      </trkpt>
      <trkpt lat="44.59823" lon="5.89425">
        <ele>1340</ele>
        <time>2023-05-19T09:32:03Z</time>
      </trkpt>
      <trkpt lat="44.59823" lon="5.89426">
        <ele>1340.2</ele>
        <time>2023-05-19T09:32:04Z</time>
      </trkpt>
      <trkpt lat="44.59823" lon="5.89427">
        <ele>1340</ele>
        <time>2023-05-19T09:32:05Z</time>
      </trkpt>
      <trkpt lat="44.59821" lon="5.89435">
        <ele>1339.8</ele>
        <time>2023-05-19T09:32:11Z</time>
      </trkpt>
      <trkpt lat="44.59821" lon="5.89437">
        <ele>1339.8</ele>
        <time>2023-05-19T09:32:12Z</time>
      </trkpt>
      <trkpt lat="44.5982" lon="5.89438">
        <ele>1339.8</ele>
        <time>2023-05-19T09:32:13Z</time>
      </trkpt>
      <trkpt lat="44.5982" lon="5.8944">
        <ele>1339.8</ele>
        <time>2023-05-19T09:32:15Z</time>
      </trkpt>
      <trkpt lat="44.5982" lon="5.89442">
        <ele>1339.8</ele>
        <time>2023-05-19T09:32:16Z</time>
      </trkpt>
      <trkpt lat="44.59819" lon="5.89444">
        <ele>1339.8</ele>
        <time>2023-05-19T09:32:18Z</time>
      </trkpt>
      <trkpt lat="44.59818" lon="5.89445">
        <ele>1339.8</ele>
        <time>2023-05-19T09:32:19Z</time>
      </trkpt>
      <trkpt lat="44.59818" lon="5.89446">
        <ele>1339.8</ele>
        <time>2023-05-19T09:32:20Z</time>
      </trkpt>
      <trkpt lat="44.59818" lon="5.89447">
        <ele>1339.8</ele>
        <time>2023-05-19T09:32:21Z</time>
      </trkpt>
      <trkpt lat="44.59817" lon="5.89449">
        <ele>1339.8</ele>
        <time>2023-05-19T09:32:22Z</time>
      </trkpt>
      <trkpt lat="44.59817" lon="5.8945">
        <ele>1339.8</ele>
        <time>2023-05-19T09:32:23Z</time>
      </trkpt>
      <trkpt lat="44.59817" lon="5.89452">
        <ele>1339.8</ele>
        <time>2023-05-19T09:32:25Z</time>
      </trkpt>
      <trkpt lat="44.59817" lon="5.89454">
        <ele>1339.8</ele>
        <time>2023-05-19T09:32:27Z</time>
      </trkpt>
      <trkpt lat="44.59817" lon="5.89454">
        <ele>1340</ele>
        <time>2023-05-19T09:32:33Z</time>
      </trkpt>
      <trkpt lat="44.59816" lon="5.89456">
        <ele>1339.8</ele>
        <time>2023-05-19T09:32:37Z</time>
      </trkpt>
      <trkpt lat="44.59817" lon="5.89459">
        <ele>1340</ele>
        <time>2023-05-19T09:32:40Z</time>
      </trkpt>
      <trkpt lat="44.59816" lon="5.89461">
        <ele>1340</ele>
        <time>2023-05-19T09:32:41Z</time>
      </trkpt>
      <trkpt lat="44.59816" lon="5.89464">
        <ele>1340</ele>
        <time>2023-05-19T09:32:43Z</time>
      </trkpt>
      <trkpt lat="44.59815" lon="5.89472">
        <ele>1340.2</ele>
        <time>2023-05-19T09:32:48Z</time>
      </trkpt>
      <trkpt lat="44.59813" lon="5.89484">
        <ele>1340.4</ele>
        <time>2023-05-19T09:32:56Z</time>
      </trkpt>
      <trkpt lat="44.59813" lon="5.89486">
        <ele>1340.2</ele>
        <time>2023-05-19T09:32:58Z</time>
      </trkpt>
      <trkpt lat="44.59813" lon="5.89487">
        <ele>1340.2</ele>
        <time>2023-05-19T09:32:59Z</time>
      </trkpt>
      <trkpt lat="44.59813" lon="5.89489">
        <ele>1340.2</ele>
        <time>2023-05-19T09:33:00Z</time>
      </trkpt>
      <trkpt lat="44.59813" lon="5.8949">
        <ele>1340.2</ele>
        <time>2023-05-19T09:33:01Z</time>
      </trkpt>
      <trkpt lat="44.59813" lon="5.89491">
        <ele>1340.2</ele>
        <time>2023-05-19T09:33:02Z</time>
      </trkpt>
      <trkpt lat="44.59813" lon="5.89492">
        <ele>1340.2</ele>
        <time>2023-05-19T09:33:03Z</time>
      </trkpt>
      <trkpt lat="44.59813" lon="5.89495">
        <ele>1340.2</ele>
        <time>2023-05-19T09:33:05Z</time>
      </trkpt>
      <trkpt lat="44.59813" lon="5.89496">
        <ele>1340.2</ele>
        <time>2023-05-19T09:33:06Z</time>
      </trkpt>
      <trkpt lat="44.59813" lon="5.89497">
        <ele>1340.2</ele>
        <time>2023-05-19T09:33:07Z</time>
      </trkpt>
      <trkpt lat="44.59813" lon="5.89498">
        <ele>1340.2</ele>
        <time>2023-05-19T09:33:08Z</time>
      </trkpt>
      <trkpt lat="44.59812" lon="5.89499">
        <ele>1340.2</ele>
        <time>2023-05-19T09:33:09Z</time>
      </trkpt>
      <trkpt lat="44.59812" lon="5.895">
        <ele>1340.2</ele>
        <time>2023-05-19T09:33:10Z</time>
      </trkpt>
      <trkpt lat="44.59811" lon="5.89502">
        <ele>1340.2</ele>
        <time>2023-05-19T09:33:12Z</time>
      </trkpt>
      <trkpt lat="44.59811" lon="5.89503">
        <ele>1340.2</ele>
        <time>2023-05-19T09:33:13Z</time>
      </trkpt>
      <trkpt lat="44.59811" lon="5.89503">
        <ele>1340.2</ele>
        <time>2023-05-19T09:33:14Z</time>
      </trkpt>
      <trkpt lat="44.59811" lon="5.89504">
        <ele>1340.2</ele>
        <time>2023-05-19T09:33:15Z</time>
      </trkpt>
      <trkpt lat="44.59811" lon="5.89505">
        <ele>1340</ele>
        <time>2023-05-19T09:33:16Z</time>
      </trkpt>
      <trkpt lat="44.5981" lon="5.89507">
        <ele>1340</ele>
        <time>2023-05-19T09:33:17Z</time>
      </trkpt>
      <trkpt lat="44.5981" lon="5.89509">
        <ele>1340</ele>
        <time>2023-05-19T09:33:19Z</time>
      </trkpt>
      <trkpt lat="44.5981" lon="5.89511">
        <ele>1340</ele>
        <time>2023-05-19T09:33:20Z</time>
      </trkpt>
      <trkpt lat="44.59809" lon="5.89515">
        <ele>1339.8</ele>
        <time>2023-05-19T09:33:23Z</time>
      </trkpt>
      <trkpt lat="44.59808" lon="5.89519">
        <ele>1340</ele>
        <time>2023-05-19T09:33:26Z</time>
      </trkpt>
      <trkpt lat="44.59808" lon="5.89522">
        <ele>1340</ele>
        <time>2023-05-19T09:33:29Z</time>
      </trkpt>
      <trkpt lat="44.59808" lon="5.89523">
        <ele>1340.2</ele>
        <time>2023-05-19T09:33:30Z</time>
      </trkpt>
      <trkpt lat="44.59807" lon="5.89524">
        <ele>1340.2</ele>
        <time>2023-05-19T09:33:31Z</time>
      </trkpt>
      <trkpt lat="44.59807" lon="5.89526">
        <ele>1340.2</ele>
        <time>2023-05-19T09:33:33Z</time>
      </trkpt>
      <trkpt lat="44.59807" lon="5.89528">
        <ele>1340.2</ele>
        <time>2023-05-19T09:33:34Z</time>
      </trkpt>
      <trkpt lat="44.59807" lon="5.89529">
        <ele>1340.2</ele>
        <time>2023-05-19T09:33:35Z</time>
      </trkpt>
      <trkpt lat="44.59806" lon="5.8953">
        <ele>1340.2</ele>
        <time>2023-05-19T09:33:36Z</time>
      </trkpt>
      <trkpt lat="44.59806" lon="5.89533">
        <ele>1340.2</ele>
        <time>2023-05-19T09:33:38Z</time>
      </trkpt>
      <trkpt lat="44.59806" lon="5.89534">
        <ele>1340.2</ele>
        <time>2023-05-19T09:33:39Z</time>
      </trkpt>
      <trkpt lat="44.59806" lon="5.89535">
        <ele>1340</ele>
        <time>2023-05-19T09:33:40Z</time>
      </trkpt>
      <trkpt lat="44.59806" lon="5.89536">
        <ele>1340</ele>
        <time>2023-05-19T09:33:41Z</time>
      </trkpt>
      <trkpt lat="44.59806" lon="5.89538">
        <ele>1340</ele>
        <time>2023-05-19T09:33:42Z</time>
      </trkpt>
      <trkpt lat="44.59805" lon="5.89545">
        <ele>1340</ele>
        <time>2023-05-19T09:33:47Z</time>
      </trkpt>
      <trkpt lat="44.59805" lon="5.89545">
        <ele>1340</ele>
        <time>2023-05-19T09:33:48Z</time>
      </trkpt>
      <trkpt lat="44.59805" lon="5.89545">
        <ele>1340</ele>
        <time>2023-05-19T09:33:49Z</time>
      </trkpt>
      <trkpt lat="44.59803" lon="5.89556">
        <ele>1340</ele>
        <time>2023-05-19T09:33:56Z</time>
      </trkpt>
      <trkpt lat="44.598" lon="5.89565">
        <ele>1339.8</ele>
        <time>2023-05-19T09:34:03Z</time>
      </trkpt>
      <trkpt lat="44.598" lon="5.89568">
        <ele>1339.8</ele>
        <time>2023-05-19T09:34:05Z</time>
      </trkpt>
      <trkpt lat="44.598" lon="5.89569">
        <ele>1339.8</ele>
        <time>2023-05-19T09:34:06Z</time>
      </trkpt>
      <trkpt lat="44.598" lon="5.89571">
        <ele>1339.8</ele>
        <time>2023-05-19T09:34:07Z</time>
      </trkpt>
      <trkpt lat="44.59799" lon="5.89573">
        <ele>1339.8</ele>
        <time>2023-05-19T09:34:09Z</time>
      </trkpt>
      <trkpt lat="44.59799" lon="5.89576">
        <ele>1339.8</ele>
        <time>2023-05-19T09:34:11Z</time>
      </trkpt>
      <trkpt lat="44.59798" lon="5.89577">
        <ele>1339.8</ele>
        <time>2023-05-19T09:34:12Z</time>
      </trkpt>
      <trkpt lat="44.59798" lon="5.89578">
        <ele>1339.8</ele>
        <time>2023-05-19T09:34:13Z</time>
      </trkpt>
      <trkpt lat="44.59796" lon="5.89583">
        <ele>1339.8</ele>
        <time>2023-05-19T09:34:17Z</time>
      </trkpt>
      <trkpt lat="44.59796" lon="5.89585">
        <ele>1339.8</ele>
        <time>2023-05-19T09:34:18Z</time>
      </trkpt>
      <trkpt lat="44.59796" lon="5.89587">
        <ele>1339.8</ele>
        <time>2023-05-19T09:34:19Z</time>
      </trkpt>
      <trkpt lat="44.59796" lon="5.89588">
        <ele>1339.8</ele>
        <time>2023-05-19T09:34:20Z</time>
      </trkpt>
      <trkpt lat="44.59794" lon="5.89602">
        <ele>1340.2</ele>
        <time>2023-05-19T09:34:30Z</time>
      </trkpt>
      <trkpt lat="44.59793" lon="5.89605">
        <ele>1340</ele>
        <time>2023-05-19T09:34:32Z</time>
      </trkpt>
      <trkpt lat="44.59792" lon="5.89606">
        <ele>1340</ele>
        <time>2023-05-19T09:34:33Z</time>
      </trkpt>
      <trkpt lat="44.59792" lon="5.89607">
        <ele>1340</ele>
        <time>2023-05-19T09:34:34Z</time>
      </trkpt>
      <trkpt lat="44.59792" lon="5.89607">
        <ele>1340</ele>
        <time>2023-05-19T09:34:35Z</time>
      </trkpt>
      <trkpt lat="44.59792" lon="5.89608">
        <ele>1340</ele>
        <time>2023-05-19T09:34:36Z</time>
      </trkpt>
      <trkpt lat="44.59791" lon="5.8961">
        <ele>1340</ele>
        <time>2023-05-19T09:34:37Z</time>
      </trkpt>
      <trkpt lat="44.59789" lon="5.89612">
        <ele>1340</ele>
        <time>2023-05-19T09:34:39Z</time>
      </trkpt>
      <trkpt lat="44.59789" lon="5.89614">
        <ele>1340</ele>
        <time>2023-05-19T09:34:40Z</time>
      </trkpt>
      <trkpt lat="44.59788" lon="5.89616">
        <ele>1340</ele>
        <time>2023-05-19T09:34:42Z</time>
      </trkpt>
      <trkpt lat="44.59788" lon="5.89616">
        <ele>1340</ele>
        <time>2023-05-19T09:34:43Z</time>
      </trkpt>
      <trkpt lat="44.59785" lon="5.89622">
        <ele>1340</ele>
        <time>2023-05-19T09:34:47Z</time>
      </trkpt>
      <trkpt lat="44.59784" lon="5.89623">
        <ele>1340</ele>
        <time>2023-05-19T09:34:49Z</time>
      </trkpt>
      <trkpt lat="44.59782" lon="5.89627">
        <ele>1339.8</ele>
        <time>2023-05-19T09:34:53Z</time>
      </trkpt>
      <trkpt lat="44.59782" lon="5.89628">
        <ele>1339.8</ele>
        <time>2023-05-19T09:34:54Z</time>
      </trkpt>
      <trkpt lat="44.59781" lon="5.89629">
        <ele>1339.8</ele>
        <time>2023-05-19T09:34:55Z</time>
      </trkpt>
      <trkpt lat="44.5978" lon="5.89632">
        <ele>1339.8</ele>
        <time>2023-05-19T09:34:58Z</time>
      </trkpt>
      <trkpt lat="44.5978" lon="5.89632">
        <ele>1339.8</ele>
        <time>2023-05-19T09:34:59Z</time>
      </trkpt>
      <trkpt lat="44.5978" lon="5.89633">
        <ele>1339.8</ele>
        <time>2023-05-19T09:35:02Z</time>
      </trkpt>
      <trkpt lat="44.59778" lon="5.89638">
        <ele>1339.6</ele>
        <time>2023-05-19T09:35:06Z</time>
      </trkpt>
      <trkpt lat="44.59778" lon="5.89639">
        <ele>1339.6</ele>
        <time>2023-05-19T09:35:07Z</time>
      </trkpt>
      <trkpt lat="44.59777" lon="5.89641">
        <ele>1339.6</ele>
        <time>2023-05-19T09:35:08Z</time>
      </trkpt>
      <trkpt lat="44.59776" lon="5.89642">
        <ele>1339.6</ele>
        <time>2023-05-19T09:35:09Z</time>
      </trkpt>
      <trkpt lat="44.59773" lon="5.89651">
        <ele>1339.4</ele>
        <time>2023-05-19T09:35:15Z</time>
      </trkpt>
      <trkpt lat="44.59772" lon="5.89654">
        <ele>1339.4</ele>
        <time>2023-05-19T09:35:17Z</time>
      </trkpt>
      <trkpt lat="44.59769" lon="5.89659">
        <ele>1339.6</ele>
        <time>2023-05-19T09:35:21Z</time>
      </trkpt>
      <trkpt lat="44.59769" lon="5.89662">
        <ele>1339.6</ele>
        <time>2023-05-19T09:35:23Z</time>
      </trkpt>
      <trkpt lat="44.59768" lon="5.89664">
        <ele>1339.6</ele>
        <time>2023-05-19T09:35:24Z</time>
      </trkpt>
      <trkpt lat="44.59768" lon="5.89665">
        <ele>1339.6</ele>
        <time>2023-05-19T09:35:25Z</time>
      </trkpt>
      <trkpt lat="44.59767" lon="5.89672">
        <ele>1339.6</ele>
        <time>2023-05-19T09:35:29Z</time>
      </trkpt>
      <trkpt lat="44.59765" lon="5.8968">
        <ele>1339.6</ele>
        <time>2023-05-19T09:35:34Z</time>
      </trkpt>
      <trkpt lat="44.59764" lon="5.89693">
        <ele>1339.6</ele>
        <time>2023-05-19T09:35:42Z</time>
      </trkpt>
      <trkpt lat="44.59764" lon="5.89694">
        <ele>1339.6</ele>
        <time>2023-05-19T09:35:43Z</time>
      </trkpt>
      <trkpt lat="44.59764" lon="5.89696">
        <ele>1339.6</ele>
        <time>2023-05-19T09:35:44Z</time>
      </trkpt>
      <trkpt lat="44.59765" lon="5.89707">
        <ele>1339.8</ele>
        <time>2023-05-19T09:35:51Z</time>
      </trkpt>
      <trkpt lat="44.59765" lon="5.89708">
        <ele>1339.8</ele>
        <time>2023-05-19T09:35:52Z</time>
      </trkpt>
      <trkpt lat="44.59765" lon="5.89711">
        <ele>1339.8</ele>
        <time>2023-05-19T09:35:54Z</time>
      </trkpt>
      <trkpt lat="44.59766" lon="5.89712">
        <ele>1339.8</ele>
        <time>2023-05-19T09:35:55Z</time>
      </trkpt>
      <trkpt lat="44.59766" lon="5.89713">
        <ele>1339.8</ele>
        <time>2023-05-19T09:35:56Z</time>
      </trkpt>
      <trkpt lat="44.59766" lon="5.89715">
        <ele>1339.8</ele>
        <time>2023-05-19T09:35:57Z</time>
      </trkpt>
      <trkpt lat="44.59766" lon="5.89717">
        <ele>1339.8</ele>
        <time>2023-05-19T09:35:58Z</time>
      </trkpt>
      <trkpt lat="44.59766" lon="5.89718">
        <ele>1339.8</ele>
        <time>2023-05-19T09:35:59Z</time>
      </trkpt>
      <trkpt lat="44.59766" lon="5.89719">
        <ele>1339.8</ele>
        <time>2023-05-19T09:36:00Z</time>
      </trkpt>
      <trkpt lat="44.59767" lon="5.8972">
        <ele>1339.8</ele>
        <time>2023-05-19T09:36:01Z</time>
      </trkpt>
      <trkpt lat="44.59767" lon="5.89721">
        <ele>1339.8</ele>
        <time>2023-05-19T09:36:02Z</time>
      </trkpt>
      <trkpt lat="44.59767" lon="5.89721">
        <ele>1339.8</ele>
        <time>2023-05-19T09:36:03Z</time>
      </trkpt>
      <trkpt lat="44.59767" lon="5.89721">
        <ele>1339.6</ele>
        <time>2023-05-19T09:36:08Z</time>
      </trkpt>
      <trkpt lat="44.59768" lon="5.89721">
        <ele>1339.4</ele>
        <time>2023-05-19T09:36:17Z</time>
      </trkpt>
      <trkpt lat="44.59767" lon="5.89721">
        <ele>1339</ele>
        <time>2023-05-19T09:36:38Z</time>
      </trkpt>
      <trkpt lat="44.59769" lon="5.89723">
        <ele>1339</ele>
        <time>2023-05-19T09:36:41Z</time>
      </trkpt>
      <trkpt lat="44.59769" lon="5.89723">
        <ele>1339</ele>
        <time>2023-05-19T09:36:42Z</time>
      </trkpt>
      <trkpt lat="44.59769" lon="5.89723">
        <ele>1339.2</ele>
        <time>2023-05-19T09:36:43Z</time>
      </trkpt>
      <trkpt lat="44.59769" lon="5.89725">
        <ele>1339.2</ele>
        <time>2023-05-19T09:36:45Z</time>
      </trkpt>
      <trkpt lat="44.59769" lon="5.89726">
        <ele>1339.2</ele>
        <time>2023-05-19T09:36:46Z</time>
      </trkpt>
      <trkpt lat="44.59769" lon="5.89728">
        <ele>1339.2</ele>
        <time>2023-05-19T09:36:47Z</time>
      </trkpt>
      <trkpt lat="44.5977" lon="5.89731">
        <ele>1339.2</ele>
        <time>2023-05-19T09:36:49Z</time>
      </trkpt>
      <trkpt lat="44.59772" lon="5.89743">
        <ele>1339.4</ele>
        <time>2023-05-19T09:36:59Z</time>
      </trkpt>
      <trkpt lat="44.59773" lon="5.89744">
        <ele>1339.4</ele>
        <time>2023-05-19T09:37:00Z</time>
      </trkpt>
      <trkpt lat="44.59773" lon="5.89746">
        <ele>1339.4</ele>
        <time>2023-05-19T09:37:01Z</time>
      </trkpt>
      <trkpt lat="44.59773" lon="5.89747">
        <ele>1339.4</ele>
        <time>2023-05-19T09:37:02Z</time>
      </trkpt>
      <trkpt lat="44.59774" lon="5.89748">
        <ele>1339.4</ele>
        <time>2023-05-19T09:37:03Z</time>
      </trkpt>
      <trkpt lat="44.59775" lon="5.89751">
        <ele>1339.6</ele>
        <time>2023-05-19T09:37:07Z</time>
      </trkpt>
      <trkpt lat="44.59775" lon="5.89751">
        <ele>1339.6</ele>
        <time>2023-05-19T09:37:08Z</time>
      </trkpt>
      <trkpt lat="44.59776" lon="5.89754">
        <ele>1339.6</ele>
        <time>2023-05-19T09:37:13Z</time>
      </trkpt>
      <trkpt lat="44.59776" lon="5.89755">
        <ele>1339.6</ele>
        <time>2023-05-19T09:37:14Z</time>
      </trkpt>
      <trkpt lat="44.59777" lon="5.89758">
        <ele>1339.6</ele>
        <time>2023-05-19T09:37:16Z</time>
      </trkpt>
      <trkpt lat="44.59777" lon="5.89759">
        <ele>1339.6</ele>
        <time>2023-05-19T09:37:17Z</time>
      </trkpt>
      <trkpt lat="44.59777" lon="5.8976">
        <ele>1339.6</ele>
        <time>2023-05-19T09:37:18Z</time>
      </trkpt>
      <trkpt lat="44.5978" lon="5.89768">
        <ele>1339.8</ele>
        <time>2023-05-19T09:37:25Z</time>
      </trkpt>
      <trkpt lat="44.59781" lon="5.89771">
        <ele>1339.8</ele>
        <time>2023-05-19T09:37:27Z</time>
      </trkpt>
      <trkpt lat="44.59784" lon="5.89778">
        <ele>1339.8</ele>
        <time>2023-05-19T09:37:34Z</time>
      </trkpt>
      <trkpt lat="44.59785" lon="5.89779">
        <ele>1339.6</ele>
        <time>2023-05-19T09:37:35Z</time>
      </trkpt>
      <trkpt lat="44.59785" lon="5.89779">
        <ele>1339.6</ele>
        <time>2023-05-19T09:37:36Z</time>
      </trkpt>
      <trkpt lat="44.59788" lon="5.89785">
        <ele>1339.6</ele>
        <time>2023-05-19T09:37:41Z</time>
      </trkpt>
      <trkpt lat="44.59789" lon="5.89786">
        <ele>1339.6</ele>
        <time>2023-05-19T09:37:42Z</time>
      </trkpt>
      <trkpt lat="44.59789" lon="5.89787">
        <ele>1339.6</ele>
        <time>2023-05-19T09:37:43Z</time>
      </trkpt>
      <trkpt lat="44.59789" lon="5.89788">
        <ele>1339.6</ele>
        <time>2023-05-19T09:37:44Z</time>
      </trkpt>
      <trkpt lat="44.5979" lon="5.89789">
        <ele>1339.6</ele>
        <time>2023-05-19T09:37:45Z</time>
      </trkpt>
      <trkpt lat="44.59791" lon="5.89791">
        <ele>1339.6</ele>
        <time>2023-05-19T09:37:47Z</time>
      </trkpt>
      <trkpt lat="44.59791" lon="5.89792">
        <ele>1339.6</ele>
        <time>2023-05-19T09:37:48Z</time>
      </trkpt>
      <trkpt lat="44.59791" lon="5.89793">
        <ele>1339.6</ele>
        <time>2023-05-19T09:37:49Z</time>
      </trkpt>
      <trkpt lat="44.59792" lon="5.89794">
        <ele>1339.6</ele>
        <time>2023-05-19T09:37:50Z</time>
      </trkpt>
      <trkpt lat="44.59792" lon="5.89797">
        <ele>1339.6</ele>
        <time>2023-05-19T09:37:52Z</time>
      </trkpt>
      <trkpt lat="44.59793" lon="5.89798">
        <ele>1339.8</ele>
        <time>2023-05-19T09:37:53Z</time>
      </trkpt>
      <trkpt lat="44.59793" lon="5.89798">
        <ele>1339.8</ele>
        <time>2023-05-19T09:37:54Z</time>
      </trkpt>
      <trkpt lat="44.59793" lon="5.89799">
        <ele>1339.8</ele>
        <time>2023-05-19T09:37:55Z</time>
      </trkpt>
      <trkpt lat="44.59794" lon="5.898">
        <ele>1339.8</ele>
        <time>2023-05-19T09:37:56Z</time>
      </trkpt>
      <trkpt lat="44.59794" lon="5.89801">
        <ele>1340</ele>
        <time>2023-05-19T09:37:57Z</time>
      </trkpt>
      <trkpt lat="44.59795" lon="5.8981">
        <ele>1340.2</ele>
        <time>2023-05-19T09:38:05Z</time>
      </trkpt>
      <trkpt lat="44.59796" lon="5.89811">
        <ele>1340.2</ele>
        <time>2023-05-19T09:38:06Z</time>
      </trkpt>
      <trkpt lat="44.59796" lon="5.89813">
        <ele>1340.2</ele>
        <time>2023-05-19T09:38:08Z</time>
      </trkpt>
      <trkpt lat="44.59797" lon="5.89813">
        <ele>1340.2</ele>
        <time>2023-05-19T09:38:09Z</time>
      </trkpt>
      <trkpt lat="44.59797" lon="5.89814">
        <ele>1340.2</ele>
        <time>2023-05-19T09:38:10Z</time>
      </trkpt>
      <trkpt lat="44.59797" lon="5.89815">
        <ele>1340.2</ele>
        <time>2023-05-19T09:38:11Z</time>
      </trkpt>
      <trkpt lat="44.59797" lon="5.89815">
        <ele>1340.2</ele>
        <time>2023-05-19T09:38:12Z</time>
      </trkpt>
      <trkpt lat="44.59797" lon="5.89815">
        <ele>1340.2</ele>
        <time>2023-05-19T09:38:13Z</time>
      </trkpt>
      <trkpt lat="44.59797" lon="5.89817">
        <ele>1340.2</ele>
        <time>2023-05-19T09:38:15Z</time>
      </trkpt>
      <trkpt lat="44.59797" lon="5.89818">
        <ele>1340.2</ele>
        <time>2023-05-19T09:38:16Z</time>
      </trkpt>
      <trkpt lat="44.59797" lon="5.89819">
        <ele>1340.2</ele>
        <time>2023-05-19T09:38:17Z</time>
      </trkpt>
      <trkpt lat="44.59797" lon="5.89819">
        <ele>1340.2</ele>
        <time>2023-05-19T09:38:18Z</time>
      </trkpt>
      <trkpt lat="44.59797" lon="5.8982">
        <ele>1340.2</ele>
        <time>2023-05-19T09:38:20Z</time>
      </trkpt>
      <trkpt lat="44.59797" lon="5.8982">
        <ele>1340.4</ele>
        <time>2023-05-19T09:38:21Z</time>
      </trkpt>
      <trkpt lat="44.59797" lon="5.89821">
        <ele>1340.4</ele>
        <time>2023-05-19T09:38:22Z</time>
      </trkpt>
      <trkpt lat="44.59798" lon="5.89825">
        <ele>1340.6</ele>
        <time>2023-05-19T09:38:28Z</time>
      </trkpt>
      <trkpt lat="44.59798" lon="5.89827">
        <ele>1340.8</ele>
        <time>2023-05-19T09:38:29Z</time>
      </trkpt>
      <trkpt lat="44.59798" lon="5.89829">
        <ele>1340.8</ele>
        <time>2023-05-19T09:38:31Z</time>
      </trkpt>
      <trkpt lat="44.59798" lon="5.89831">
        <ele>1341</ele>
        <time>2023-05-19T09:38:33Z</time>
      </trkpt>
      <trkpt lat="44.59798" lon="5.89832">
        <ele>1341</ele>
        <time>2023-05-19T09:38:34Z</time>
      </trkpt>
      <trkpt lat="44.59798" lon="5.89833">
        <ele>1341</ele>
        <time>2023-05-19T09:38:36Z</time>
      </trkpt>
      <trkpt lat="44.59798" lon="5.89835">
        <ele>1341</ele>
        <time>2023-05-19T09:38:38Z</time>
      </trkpt>
      <trkpt lat="44.59798" lon="5.89835">
        <ele>1341</ele>
        <time>2023-05-19T09:38:39Z</time>
      </trkpt>
      <trkpt lat="44.59798" lon="5.89836">
        <ele>1341</ele>
        <time>2023-05-19T09:38:40Z</time>
      </trkpt>
      <trkpt lat="44.59798" lon="5.89837">
        <ele>1341</ele>
        <time>2023-05-19T09:38:41Z</time>
      </trkpt>
      <trkpt lat="44.59798" lon="5.89838">
        <ele>1341</ele>
        <time>2023-05-19T09:38:42Z</time>
      </trkpt>
      <trkpt lat="44.59798" lon="5.89839">
        <ele>1341</ele>
        <time>2023-05-19T09:38:43Z</time>
      </trkpt>
      <trkpt lat="44.59798" lon="5.8984">
        <ele>1341.2</ele>
        <time>2023-05-19T09:38:44Z</time>
      </trkpt>
      <trkpt lat="44.59798" lon="5.8984">
        <ele>1341.2</ele>
        <time>2023-05-19T09:38:45Z</time>
      </trkpt>
      <trkpt lat="44.59798" lon="5.8984">
        <ele>1341.2</ele>
        <time>2023-05-19T09:38:46Z</time>
      </trkpt>
      <trkpt lat="44.59798" lon="5.89841">
        <ele>1341.2</ele>
        <time>2023-05-19T09:38:51Z</time>
      </trkpt>
      <trkpt lat="44.59799" lon="5.89842">
        <ele>1341.2</ele>
        <time>2023-05-19T09:38:55Z</time>
      </trkpt>
      <trkpt lat="44.59799" lon="5.89842">
        <ele>1341.2</ele>
        <time>2023-05-19T09:38:57Z</time>
      </trkpt>
      <trkpt lat="44.59799" lon="5.89842">
        <ele>1341.4</ele>
        <time>2023-05-19T09:39:01Z</time>
      </trkpt>
      <trkpt lat="44.59799" lon="5.89842">
        <ele>1340.8</ele>
        <time>2023-05-19T09:39:21Z</time>
      </trkpt>
      <trkpt lat="44.59799" lon="5.89842">
        <ele>1340.8</ele>
        <time>2023-05-19T09:39:33Z</time>
      </trkpt>
      <trkpt lat="44.59799" lon="5.89842">
        <ele>1340.2</ele>
        <time>2023-05-19T09:39:52Z</time>
      </trkpt>
      <trkpt lat="44.59799" lon="5.89842">
        <ele>1340.2</ele>
        <time>2023-05-19T09:40:00Z</time>
      </trkpt>
      <trkpt lat="44.59799" lon="5.89842">
        <ele>1340</ele>
        <time>2023-05-19T09:40:08Z</time>
      </trkpt>
      <trkpt lat="44.59799" lon="5.89842">
        <ele>1340.2</ele>
        <time>2023-05-19T09:40:11Z</time>
      </trkpt>
      <trkpt lat="44.59798" lon="5.89843">
        <ele>1340.4</ele>
        <time>2023-05-19T09:40:25Z</time>
      </trkpt>
      <trkpt lat="44.59798" lon="5.89844">
        <ele>1340.2</ele>
        <time>2023-05-19T09:41:01Z</time>
      </trkpt>
      <trkpt lat="44.59798" lon="5.89844">
        <ele>1340.2</ele>
        <time>2023-05-19T09:41:03Z</time>
      </trkpt>
      <trkpt lat="44.59798" lon="5.89844">
        <ele>1340</ele>
        <time>2023-05-19T09:41:37Z</time>
      </trkpt>
      <trkpt lat="44.59798" lon="5.89844">
        <ele>1339.8</ele>
        <time>2023-05-19T09:41:58Z</time>
      </trkpt>
      <trkpt lat="44.59798" lon="5.89844">
        <ele>1340.2</ele>
        <time>2023-05-19T09:42:10Z</time>
      </trkpt>
      <trkpt lat="44.59798" lon="5.89844">
        <ele>1341</ele>
        <time>2023-05-19T09:42:39Z</time>
      </trkpt>
      <trkpt lat="44.59798" lon="5.89844">
        <ele>1341</ele>
        <time>2023-05-19T09:42:40Z</time>
      </trkpt>
      <trkpt lat="44.59798" lon="5.89844">
        <ele>1341</ele>
        <time>2023-05-19T09:42:55Z</time>
      </trkpt>
      <trkpt lat="44.59799" lon="5.89842">
        <ele>1341.2</ele>
        <time>2023-05-19T09:42:59Z</time>
      </trkpt>
      <trkpt lat="44.598" lon="5.89841">
        <ele>1341.8</ele>
        <time>2023-05-19T09:43:06Z</time>
      </trkpt>
      <trkpt lat="44.598" lon="5.89841">
        <ele>1342.2</ele>
        <time>2023-05-19T09:43:10Z</time>
      </trkpt>
      <trkpt lat="44.598" lon="5.89841">
        <ele>1342.2</ele>
        <time>2023-05-19T09:43:14Z</time>
      </trkpt>
      <trkpt lat="44.598" lon="5.89841">
        <ele>1342.2</ele>
        <time>2023-05-19T09:43:25Z</time>
      </trkpt>
      <trkpt lat="44.598" lon="5.89841">
        <ele>1342.4</ele>
        <time>2023-05-19T09:43:34Z</time>
      </trkpt>
      <trkpt lat="44.598" lon="5.89842">
        <ele>1342.8</ele>
        <time>2023-05-19T09:43:43Z</time>
      </trkpt>
      <trkpt lat="44.598" lon="5.89841">
        <ele>1343</ele>
        <time>2023-05-19T09:43:51Z</time>
      </trkpt>
      <trkpt lat="44.598" lon="5.89841">
        <ele>1343.2</ele>
        <time>2023-05-19T09:44:00Z</time>
      </trkpt>
      <trkpt lat="44.598" lon="5.8984">
        <ele>1343.2</ele>
        <time>2023-05-19T09:44:06Z</time>
      </trkpt>
      <trkpt lat="44.59801" lon="5.89842">
        <ele>1343.6</ele>
        <time>2023-05-19T09:44:22Z</time>
      </trkpt>
      <trkpt lat="44.59802" lon="5.89843">
        <ele>1343.6</ele>
        <time>2023-05-19T09:44:23Z</time>
      </trkpt>
      <trkpt lat="44.59802" lon="5.89844">
        <ele>1343.8</ele>
        <time>2023-05-19T09:44:24Z</time>
      </trkpt>
      <trkpt lat="44.59803" lon="5.89845">
        <ele>1343.8</ele>
        <time>2023-05-19T09:44:25Z</time>
      </trkpt>
      <trkpt lat="44.59804" lon="5.89847">
        <ele>1344</ele>
        <time>2023-05-19T09:44:27Z</time>
      </trkpt>
      <trkpt lat="44.59804" lon="5.89848">
        <ele>1344</ele>
        <time>2023-05-19T09:44:29Z</time>
      </trkpt>
      <trkpt lat="44.59804" lon="5.89849">
        <ele>1344</ele>
        <time>2023-05-19T09:44:30Z</time>
      </trkpt>
      <trkpt lat="44.59804" lon="5.89849">
        <ele>1344</ele>
        <time>2023-05-19T09:44:31Z</time>
      </trkpt>
      <trkpt lat="44.59806" lon="5.89849">
        <ele>1344.2</ele>
        <time>2023-05-19T09:44:35Z</time>
      </trkpt>
      <trkpt lat="44.59806" lon="5.89849">
        <ele>1344.4</ele>
        <time>2023-05-19T09:44:36Z</time>
      </trkpt>
      <trkpt lat="44.59807" lon="5.8985">
        <ele>1344.4</ele>
        <time>2023-05-19T09:44:38Z</time>
      </trkpt>
      <trkpt lat="44.59807" lon="5.8985">
        <ele>1344.4</ele>
        <time>2023-05-19T09:44:39Z</time>
      </trkpt>
      <trkpt lat="44.59807" lon="5.89852">
        <ele>1344.4</ele>
        <time>2023-05-19T09:44:40Z</time>
      </trkpt>
      <trkpt lat="44.59808" lon="5.89853">
        <ele>1344.6</ele>
        <time>2023-05-19T09:44:41Z</time>
      </trkpt>
      <trkpt lat="44.5981" lon="5.89857">
        <ele>1344.8</ele>
        <time>2023-05-19T09:44:45Z</time>
      </trkpt>
      <trkpt lat="44.59811" lon="5.8986">
        <ele>1345</ele>
        <time>2023-05-19T09:44:48Z</time>
      </trkpt>
      <trkpt lat="44.59812" lon="5.89861">
        <ele>1345</ele>
        <time>2023-05-19T09:44:49Z</time>
      </trkpt>
      <trkpt lat="44.59814" lon="5.89864">
        <ele>1345</ele>
        <time>2023-05-19T09:44:52Z</time>
      </trkpt>
      <trkpt lat="44.59816" lon="5.89866">
        <ele>1345.2</ele>
        <time>2023-05-19T09:44:54Z</time>
      </trkpt>
      <trkpt lat="44.59818" lon="5.89868">
        <ele>1345.2</ele>
        <time>2023-05-19T09:44:57Z</time>
      </trkpt>
      <trkpt lat="44.59818" lon="5.89867">
        <ele>1345.2</ele>
        <time>2023-05-19T09:44:58Z</time>
      </trkpt>
      <trkpt lat="44.59819" lon="5.89867">
        <ele>1345.2</ele>
        <time>2023-05-19T09:44:59Z</time>
      </trkpt>
      <trkpt lat="44.59819" lon="5.89867">
        <ele>1345.2</ele>
        <time>2023-05-19T09:45:00Z</time>
      </trkpt>
      <trkpt lat="44.5982" lon="5.89868">
        <ele>1345.2</ele>
        <time>2023-05-19T09:45:01Z</time>
      </trkpt>
      <trkpt lat="44.5982" lon="5.89868">
        <ele>1345.4</ele>
        <time>2023-05-19T09:45:02Z</time>
      </trkpt>
      <trkpt lat="44.5982" lon="5.89868">
        <ele>1345.4</ele>
        <time>2023-05-19T09:45:03Z</time>
      </trkpt>
      <trkpt lat="44.5982" lon="5.89868">
        <ele>1345.6</ele>
        <time>2023-05-19T09:45:06Z</time>
      </trkpt>
      <trkpt lat="44.5982" lon="5.89869">
        <ele>1345.8</ele>
        <time>2023-05-19T09:45:15Z</time>
      </trkpt>
      <trkpt lat="44.5982" lon="5.89869">
        <ele>1346.2</ele>
        <time>2023-05-19T09:45:34Z</time>
      </trkpt>
      <trkpt lat="44.5982" lon="5.89869">
        <ele>1346.4</ele>
        <time>2023-05-19T09:45:42Z</time>
      </trkpt>
      <trkpt lat="44.5982" lon="5.89869">
        <ele>1347.4</ele>
        <time>2023-05-19T09:45:44Z</time>
      </trkpt>
      <trkpt lat="44.5982" lon="5.89869">
        <ele>1347.6</ele>
        <time>2023-05-19T09:45:45Z</time>
      </trkpt>
      <trkpt lat="44.59821" lon="5.89869">
        <ele>1347</ele>
        <time>2023-05-19T09:45:54Z</time>
      </trkpt>
      <trkpt lat="44.59821" lon="5.89871">
        <ele>1346.4</ele>
        <time>2023-05-19T09:46:01Z</time>
      </trkpt>
      <trkpt lat="44.59821" lon="5.89873">
        <ele>1346.2</ele>
        <time>2023-05-19T09:46:03Z</time>
      </trkpt>
      <trkpt lat="44.59821" lon="5.89874">
        <ele>1346.2</ele>
        <time>2023-05-19T09:46:04Z</time>
      </trkpt>
      <trkpt lat="44.59822" lon="5.89875">
        <ele>1346.2</ele>
        <time>2023-05-19T09:46:05Z</time>
      </trkpt>
      <trkpt lat="44.59822" lon="5.89877">
        <ele>1346.2</ele>
        <time>2023-05-19T09:46:06Z</time>
      </trkpt>
      <trkpt lat="44.59825" lon="5.8988">
        <ele>1346</ele>
        <time>2023-05-19T09:46:09Z</time>
      </trkpt>
      <trkpt lat="44.59825" lon="5.89881">
        <ele>1345.8</ele>
        <time>2023-05-19T09:46:10Z</time>
      </trkpt>
      <trkpt lat="44.59826" lon="5.89882">
        <ele>1345.6</ele>
        <time>2023-05-19T09:46:11Z</time>
      </trkpt>
      <trkpt lat="44.59826" lon="5.89883">
        <ele>1345.4</ele>
        <time>2023-05-19T09:46:12Z</time>
      </trkpt>
      <trkpt lat="44.59826" lon="5.89883">
        <ele>1345.4</ele>
        <time>2023-05-19T09:46:13Z</time>
      </trkpt>
      <trkpt lat="44.59827" lon="5.89885">
        <ele>1345.2</ele>
        <time>2023-05-19T09:46:14Z</time>
      </trkpt>
      <trkpt lat="44.59827" lon="5.89886">
        <ele>1345.2</ele>
        <time>2023-05-19T09:46:15Z</time>
      </trkpt>
      <trkpt lat="44.59827" lon="5.89887">
        <ele>1345.2</ele>
        <time>2023-05-19T09:46:16Z</time>
      </trkpt>
      <trkpt lat="44.59827" lon="5.89888">
        <ele>1345</ele>
        <time>2023-05-19T09:46:18Z</time>
      </trkpt>
      <trkpt lat="44.59827" lon="5.89888">
        <ele>1344.8</ele>
        <time>2023-05-19T09:46:19Z</time>
      </trkpt>
      <trkpt lat="44.59827" lon="5.89888">
        <ele>1344.6</ele>
        <time>2023-05-19T09:46:20Z</time>
      </trkpt>
      <trkpt lat="44.59828" lon="5.8989">
        <ele>1344.4</ele>
        <time>2023-05-19T09:46:23Z</time>
      </trkpt>
      <trkpt lat="44.59832" lon="5.89893">
        <ele>1344.2</ele>
        <time>2023-05-19T09:46:27Z</time>
      </trkpt>
      <trkpt lat="44.59832" lon="5.89894">
        <ele>1344.2</ele>
        <time>2023-05-19T09:46:28Z</time>
      </trkpt>
      <trkpt lat="44.59833" lon="5.89896">
        <ele>1344.2</ele>
        <time>2023-05-19T09:46:29Z</time>
      </trkpt>
      <trkpt lat="44.59834" lon="5.89898">
        <ele>1344</ele>
        <time>2023-05-19T09:46:32Z</time>
      </trkpt>
      <trkpt lat="44.59834" lon="5.89898">
        <ele>1343.8</ele>
        <time>2023-05-19T09:46:33Z</time>
      </trkpt>
      <trkpt lat="44.59834" lon="5.89898">
        <ele>1343.8</ele>
        <time>2023-05-19T09:46:35Z</time>
      </trkpt>
      <trkpt lat="44.59835" lon="5.89898">
        <ele>1343.6</ele>
        <time>2023-05-19T09:46:42Z</time>
      </trkpt>
      <trkpt lat="44.59836" lon="5.89901">
        <ele>1343.4</ele>
        <time>2023-05-19T09:46:49Z</time>
      </trkpt>
      <trkpt lat="44.59837" lon="5.89903">
        <ele>1343.4</ele>
        <time>2023-05-19T09:46:50Z</time>
      </trkpt>
      <trkpt lat="44.59838" lon="5.89904">
        <ele>1343.4</ele>
        <time>2023-05-19T09:46:51Z</time>
      </trkpt>
      <trkpt lat="44.59838" lon="5.89904">
        <ele>1343.4</ele>
        <time>2023-05-19T09:46:52Z</time>
      </trkpt>
      <trkpt lat="44.59839" lon="5.89906">
        <ele>1343.6</ele>
        <time>2023-05-19T09:46:54Z</time>
      </trkpt>
      <trkpt lat="44.5984" lon="5.89908">
        <ele>1343.6</ele>
        <time>2023-05-19T09:46:55Z</time>
      </trkpt>
      <trkpt lat="44.59842" lon="5.89911">
        <ele>1343.6</ele>
        <time>2023-05-19T09:46:59Z</time>
      </trkpt>
      <trkpt lat="44.59842" lon="5.89912">
        <ele>1343.8</ele>
        <time>2023-05-19T09:47:00Z</time>
      </trkpt>
      <trkpt lat="44.59843" lon="5.89912">
        <ele>1343.8</ele>
        <time>2023-05-19T09:47:01Z</time>
      </trkpt>
      <trkpt lat="44.59843" lon="5.89913">
        <ele>1343.8</ele>
        <time>2023-05-19T09:47:02Z</time>
      </trkpt>
      <trkpt lat="44.59843" lon="5.89913">
        <ele>1343.8</ele>
        <time>2023-05-19T09:47:03Z</time>
      </trkpt>
      <trkpt lat="44.59843" lon="5.89913">
        <ele>1344.2</ele>
        <time>2023-05-19T09:47:06Z</time>
      </trkpt>
      <trkpt lat="44.59845" lon="5.89914">
        <ele>1344.4</ele>
        <time>2023-05-19T09:47:10Z</time>
      </trkpt>
      <trkpt lat="44.59846" lon="5.89915">
        <ele>1344.4</ele>
        <time>2023-05-19T09:47:11Z</time>
      </trkpt>
      <trkpt lat="44.59846" lon="5.89916">
        <ele>1344.4</ele>
        <time>2023-05-19T09:47:12Z</time>
      </trkpt>
      <trkpt lat="44.59847" lon="5.89917">
        <ele>1344.4</ele>
        <time>2023-05-19T09:47:13Z</time>
      </trkpt>
      <trkpt lat="44.59847" lon="5.89919">
        <ele>1344.4</ele>
        <time>2023-05-19T09:47:14Z</time>
      </trkpt>
      <trkpt lat="44.59848" lon="5.89921">
        <ele>1344.8</ele>
        <time>2023-05-19T09:47:18Z</time>
      </trkpt>
      <trkpt lat="44.5985" lon="5.89923">
        <ele>1344.8</ele>
        <time>2023-05-19T09:47:20Z</time>
      </trkpt>
      <trkpt lat="44.59851" lon="5.89925">
        <ele>1345</ele>
        <time>2023-05-19T09:47:23Z</time>
      </trkpt>
      <trkpt lat="44.59851" lon="5.89926">
        <ele>1345.2</ele>
        <time>2023-05-19T09:47:24Z</time>
      </trkpt>
      <trkpt lat="44.59852" lon="5.89927">
        <ele>1345.2</ele>
        <time>2023-05-19T09:47:25Z</time>
      </trkpt>
      <trkpt lat="44.59852" lon="5.89927">
        <ele>1345.2</ele>
        <time>2023-05-19T09:47:26Z</time>
      </trkpt>
      <trkpt lat="44.59852" lon="5.89928">
        <ele>1345.2</ele>
        <time>2023-05-19T09:47:27Z</time>
      </trkpt>
      <trkpt lat="44.59853" lon="5.89928">
        <ele>1345.4</ele>
        <time>2023-05-19T09:47:28Z</time>
      </trkpt>
      <trkpt lat="44.59854" lon="5.8993">
        <ele>1345.4</ele>
        <time>2023-05-19T09:47:30Z</time>
      </trkpt>
      <trkpt lat="44.59854" lon="5.89931">
        <ele>1345.4</ele>
        <time>2023-05-19T09:47:31Z</time>
      </trkpt>
      <trkpt lat="44.59854" lon="5.89931">
        <ele>1345.6</ele>
        <time>2023-05-19T09:47:32Z</time>
      </trkpt>
      <trkpt lat="44.59854" lon="5.89932">
        <ele>1345.6</ele>
        <time>2023-05-19T09:47:33Z</time>
      </trkpt>
      <trkpt lat="44.59854" lon="5.89934">
        <ele>1346</ele>
        <time>2023-05-19T09:47:38Z</time>
      </trkpt>
      <trkpt lat="44.59854" lon="5.89937">
        <ele>1345.8</ele>
        <time>2023-05-19T09:47:43Z</time>
      </trkpt>
      <trkpt lat="44.59854" lon="5.89939">
        <ele>1345.6</ele>
        <time>2023-05-19T09:47:46Z</time>
      </trkpt>
      <trkpt lat="44.59856" lon="5.89942">
        <ele>1345.4</ele>
        <time>2023-05-19T09:47:55Z</time>
      </trkpt>
      <trkpt lat="44.59857" lon="5.89943">
        <ele>1345.6</ele>
        <time>2023-05-19T09:47:57Z</time>
      </trkpt>
      <trkpt lat="44.59858" lon="5.89948">
        <ele>1345.6</ele>
        <time>2023-05-19T09:48:01Z</time>
      </trkpt>
      <trkpt lat="44.59858" lon="5.89949">
        <ele>1345.6</ele>
        <time>2023-05-19T09:48:03Z</time>
      </trkpt>
      <trkpt lat="44.59858" lon="5.89949">
        <ele>1345.6</ele>
        <time>2023-05-19T09:48:04Z</time>
      </trkpt>
      <trkpt lat="44.59859" lon="5.8995">
        <ele>1345.6</ele>
        <time>2023-05-19T09:48:05Z</time>
      </trkpt>
      <trkpt lat="44.59859" lon="5.89952">
        <ele>1345.6</ele>
        <time>2023-05-19T09:48:08Z</time>
      </trkpt>
      <trkpt lat="44.59861" lon="5.89959">
        <ele>1345.6</ele>
        <time>2023-05-19T09:48:15Z</time>
      </trkpt>
      <trkpt lat="44.59861" lon="5.8996">
        <ele>1345.6</ele>
        <time>2023-05-19T09:48:16Z</time>
      </trkpt>
      <trkpt lat="44.59863" lon="5.89967">
        <ele>1345.4</ele>
        <time>2023-05-19T09:48:21Z</time>
      </trkpt>
      <trkpt lat="44.59863" lon="5.89968">
        <ele>1345.4</ele>
        <time>2023-05-19T09:48:22Z</time>
      </trkpt>
      <trkpt lat="44.59864" lon="5.89969">
        <ele>1345.4</ele>
        <time>2023-05-19T09:48:23Z</time>
      </trkpt>
      <trkpt lat="44.59864" lon="5.89969">
        <ele>1345.2</ele>
        <time>2023-05-19T09:48:24Z</time>
      </trkpt>
      <trkpt lat="44.59864" lon="5.89969">
        <ele>1345.2</ele>
        <time>2023-05-19T09:48:25Z</time>
      </trkpt>
      <trkpt lat="44.59866" lon="5.89972">
        <ele>1345</ele>
        <time>2023-05-19T09:48:31Z</time>
      </trkpt>
      <trkpt lat="44.59866" lon="5.89973">
        <ele>1345</ele>
        <time>2023-05-19T09:48:32Z</time>
      </trkpt>
      <trkpt lat="44.59866" lon="5.89974">
        <ele>1344.8</ele>
        <time>2023-05-19T09:48:33Z</time>
      </trkpt>
      <trkpt lat="44.59867" lon="5.89977">
        <ele>1344.6</ele>
        <time>2023-05-19T09:48:36Z</time>
      </trkpt>
      <trkpt lat="44.59867" lon="5.89977">
        <ele>1344.6</ele>
        <time>2023-05-19T09:48:37Z</time>
      </trkpt>
      <trkpt lat="44.59867" lon="5.89977">
        <ele>1344.4</ele>
        <time>2023-05-19T09:48:40Z</time>
      </trkpt>
      <trkpt lat="44.59867" lon="5.89978">
        <ele>1344.2</ele>
        <time>2023-05-19T09:48:46Z</time>
      </trkpt>
      <trkpt lat="44.59868" lon="5.89979">
        <ele>1344.2</ele>
        <time>2023-05-19T09:48:50Z</time>
      </trkpt>
      <trkpt lat="44.59869" lon="5.89983">
        <ele>1344.6</ele>
        <time>2023-05-19T09:48:57Z</time>
      </trkpt>
      <trkpt lat="44.59869" lon="5.89983">
        <ele>1345.2</ele>
        <time>2023-05-19T09:49:04Z</time>
      </trkpt>
      <trkpt lat="44.5987" lon="5.89985">
        <ele>1345.4</ele>
        <time>2023-05-19T09:49:10Z</time>
      </trkpt>
      <trkpt lat="44.5987" lon="5.89985">
        <ele>1345.4</ele>
        <time>2023-05-19T09:49:11Z</time>
      </trkpt>
      <trkpt lat="44.5987" lon="5.89985">
        <ele>1345.8</ele>
        <time>2023-05-19T09:49:19Z</time>
      </trkpt>
      <trkpt lat="44.59871" lon="5.89992">
        <ele>1345.8</ele>
        <time>2023-05-19T09:49:26Z</time>
      </trkpt>
      <trkpt lat="44.59871" lon="5.89992">
        <ele>1345.8</ele>
        <time>2023-05-19T09:49:27Z</time>
      </trkpt>
      <trkpt lat="44.59872" lon="5.89998">
        <ele>1345.4</ele>
        <time>2023-05-19T09:49:35Z</time>
      </trkpt>
      <trkpt lat="44.59873" lon="5.9">
        <ele>1345.2</ele>
        <time>2023-05-19T09:49:37Z</time>
      </trkpt>
      <trkpt lat="44.59873" lon="5.9">
        <ele>1345.2</ele>
        <time>2023-05-19T09:49:38Z</time>
      </trkpt>
      <trkpt lat="44.59873" lon="5.9">
        <ele>1345.2</ele>
        <time>2023-05-19T09:49:41Z</time>
      </trkpt>
      <trkpt lat="44.59874" lon="5.9">
        <ele>1345.2</ele>
        <time>2023-05-19T09:49:42Z</time>
      </trkpt>
      <trkpt lat="44.59874" lon="5.9">
        <ele>1345.2</ele>
        <time>2023-05-19T09:49:43Z</time>
      </trkpt>
      <trkpt lat="44.59874" lon="5.90001">
        <ele>1345.2</ele>
        <time>2023-05-19T09:49:48Z</time>
      </trkpt>
      <trkpt lat="44.59875" lon="5.90003">
        <ele>1345.4</ele>
        <time>2023-05-19T09:49:55Z</time>
      </trkpt>
      <trkpt lat="44.59875" lon="5.90004">
        <ele>1345.4</ele>
        <time>2023-05-19T09:50:00Z</time>
      </trkpt>
      <trkpt lat="44.59877" lon="5.90008">
        <ele>1345.8</ele>
        <time>2023-05-19T09:50:09Z</time>
      </trkpt>
      <trkpt lat="44.59877" lon="5.90009">
        <ele>1345.8</ele>
        <time>2023-05-19T09:50:10Z</time>
      </trkpt>
      <trkpt lat="44.59878" lon="5.90009">
        <ele>1345.8</ele>
        <time>2023-05-19T09:50:11Z</time>
      </trkpt>
      <trkpt lat="44.59879" lon="5.90012">
        <ele>1346</ele>
        <time>2023-05-19T09:50:15Z</time>
      </trkpt>
      <trkpt lat="44.5988" lon="5.90012">
        <ele>1346.2</ele>
        <time>2023-05-19T09:50:25Z</time>
      </trkpt>
      <trkpt lat="44.5988" lon="5.90014">
        <ele>1346.8</ele>
        <time>2023-05-19T09:50:30Z</time>
      </trkpt>
      <trkpt lat="44.5988" lon="5.90014">
        <ele>1347</ele>
        <time>2023-05-19T09:50:32Z</time>
      </trkpt>
      <trkpt lat="44.59882" lon="5.90018">
        <ele>1347.8</ele>
        <time>2023-05-19T09:50:41Z</time>
      </trkpt>
      <trkpt lat="44.59882" lon="5.90018">
        <ele>1347.8</ele>
        <time>2023-05-19T09:50:42Z</time>
      </trkpt>
      <trkpt lat="44.59882" lon="5.90018">
        <ele>1347.8</ele>
        <time>2023-05-19T09:50:43Z</time>
      </trkpt>
      <trkpt lat="44.59882" lon="5.90018">
        <ele>1347.8</ele>
        <time>2023-05-19T09:50:44Z</time>
      </trkpt>
      <trkpt lat="44.59883" lon="5.90021">
        <ele>1348.4</ele>
        <time>2023-05-19T09:50:51Z</time>
      </trkpt>
      <trkpt lat="44.59885" lon="5.90021">
        <ele>1349</ele>
        <time>2023-05-19T09:50:56Z</time>
      </trkpt>
      <trkpt lat="44.59885" lon="5.90021">
        <ele>1349.4</ele>
        <time>2023-05-19T09:50:59Z</time>
      </trkpt>
      <trkpt lat="44.59885" lon="5.90022">
        <ele>1350.2</ele>
        <time>2023-05-19T09:51:08Z</time>
      </trkpt>
      <trkpt lat="44.59885" lon="5.90022">
        <ele>1350.4</ele>
        <time>2023-05-19T09:51:15Z</time>
      </trkpt>
      <trkpt lat="44.59886" lon="5.90028">
        <ele>1350.2</ele>
        <time>2023-05-19T09:51:23Z</time>
      </trkpt>
      <trkpt lat="44.59887" lon="5.90032">
        <ele>1349.6</ele>
        <time>2023-05-19T09:51:29Z</time>
      </trkpt>
      <trkpt lat="44.59887" lon="5.90034">
        <ele>1349.4</ele>
        <time>2023-05-19T09:51:32Z</time>
      </trkpt>
      <trkpt lat="44.59888" lon="5.90034">
        <ele>1349.2</ele>
        <time>2023-05-19T09:51:33Z</time>
      </trkpt>
      <trkpt lat="44.59888" lon="5.90034">
        <ele>1349.2</ele>
        <time>2023-05-19T09:51:34Z</time>
      </trkpt>
      <trkpt lat="44.59888" lon="5.90035">
        <ele>1349.2</ele>
        <time>2023-05-19T09:51:37Z</time>
      </trkpt>
      <trkpt lat="44.59888" lon="5.90038">
        <ele>1348.6</ele>
        <time>2023-05-19T09:51:41Z</time>
      </trkpt>
      <trkpt lat="44.59889" lon="5.90041">
        <ele>1348.2</ele>
        <time>2023-05-19T09:51:43Z</time>
      </trkpt>
      <trkpt lat="44.59889" lon="5.90042">
        <ele>1348.2</ele>
        <time>2023-05-19T09:51:44Z</time>
      </trkpt>
      <trkpt lat="44.59889" lon="5.90042">
        <ele>1348</ele>
        <time>2023-05-19T09:51:45Z</time>
      </trkpt>
      <trkpt lat="44.59889" lon="5.90042">
        <ele>1347.8</ele>
        <time>2023-05-19T09:51:46Z</time>
      </trkpt>
      <trkpt lat="44.59889" lon="5.90045">
        <ele>1347.2</ele>
        <time>2023-05-19T09:51:50Z</time>
      </trkpt>
      <trkpt lat="44.5989" lon="5.90046">
        <ele>1347.2</ele>
        <time>2023-05-19T09:51:51Z</time>
      </trkpt>
      <trkpt lat="44.5989" lon="5.90048">
        <ele>1347</ele>
        <time>2023-05-19T09:51:52Z</time>
      </trkpt>
      <trkpt lat="44.5989" lon="5.90051">
        <ele>1347</ele>
        <time>2023-05-19T09:51:54Z</time>
      </trkpt>
      <trkpt lat="44.5989" lon="5.90051">
        <ele>1347</ele>
        <time>2023-05-19T09:51:55Z</time>
      </trkpt>
      <trkpt lat="44.5989" lon="5.90051">
        <ele>1346.8</ele>
        <time>2023-05-19T09:51:56Z</time>
      </trkpt>
      <trkpt lat="44.5989" lon="5.90055">
        <ele>1346.8</ele>
        <time>2023-05-19T09:52:02Z</time>
      </trkpt>
      <trkpt lat="44.59891" lon="5.90056">
        <ele>1346.2</ele>
        <time>2023-05-19T09:52:14Z</time>
      </trkpt>
      <trkpt lat="44.59891" lon="5.90056">
        <ele>1346</ele>
        <time>2023-05-19T09:52:17Z</time>
      </trkpt>
      <trkpt lat="44.59891" lon="5.90058">
        <ele>1345.6</ele>
        <time>2023-05-19T09:52:26Z</time>
      </trkpt>
      <trkpt lat="44.59891" lon="5.90058">
        <ele>1345.2</ele>
        <time>2023-05-19T09:52:30Z</time>
      </trkpt>
      <trkpt lat="44.59891" lon="5.90058">
        <ele>1344.2</ele>
        <time>2023-05-19T09:52:39Z</time>
      </trkpt>
      <trkpt lat="44.59891" lon="5.90058">
        <ele>1344.2</ele>
        <time>2023-05-19T09:52:40Z</time>
      </trkpt>
      <trkpt lat="44.59891" lon="5.90059">
        <ele>1343.4</ele>
        <time>2023-05-19T09:52:47Z</time>
      </trkpt>
      <trkpt lat="44.5989" lon="5.90063">
        <ele>1343.4</ele>
        <time>2023-05-19T09:52:58Z</time>
      </trkpt>
      <trkpt lat="44.59891" lon="5.90065">
        <ele>1343.2</ele>
        <time>2023-05-19T09:52:59Z</time>
      </trkpt>
      <trkpt lat="44.59891" lon="5.90066">
        <ele>1343.2</ele>
        <time>2023-05-19T09:53:00Z</time>
      </trkpt>
      <trkpt lat="44.59892" lon="5.90068">
        <ele>1343.2</ele>
        <time>2023-05-19T09:53:01Z</time>
      </trkpt>
      <trkpt lat="44.59893" lon="5.90069">
        <ele>1343.2</ele>
        <time>2023-05-19T09:53:02Z</time>
      </trkpt>
      <trkpt lat="44.59893" lon="5.90071">
        <ele>1343.2</ele>
        <time>2023-05-19T09:53:03Z</time>
      </trkpt>
      <trkpt lat="44.59895" lon="5.90074">
        <ele>1343.2</ele>
        <time>2023-05-19T09:53:05Z</time>
      </trkpt>
      <trkpt lat="44.599" lon="5.90082">
        <ele>1343.2</ele>
        <time>2023-05-19T09:53:13Z</time>
      </trkpt>
      <trkpt lat="44.599" lon="5.90082">
        <ele>1343.2</ele>
        <time>2023-05-19T09:53:14Z</time>
      </trkpt>
      <trkpt lat="44.59901" lon="5.90083">
        <ele>1343.2</ele>
        <time>2023-05-19T09:53:15Z</time>
      </trkpt>
      <trkpt lat="44.59901" lon="5.90083">
        <ele>1343.2</ele>
        <time>2023-05-19T09:53:16Z</time>
      </trkpt>
      <trkpt lat="44.59901" lon="5.90083">
        <ele>1343</ele>
        <time>2023-05-19T09:53:22Z</time>
      </trkpt>
      <trkpt lat="44.59901" lon="5.90083">
        <ele>1342.8</ele>
        <time>2023-05-19T09:53:34Z</time>
      </trkpt>
      <trkpt lat="44.59901" lon="5.90083">
        <ele>1342.4</ele>
        <time>2023-05-19T09:53:42Z</time>
      </trkpt>
      <trkpt lat="44.59901" lon="5.90083">
        <ele>1342.2</ele>
        <time>2023-05-19T09:54:11Z</time>
      </trkpt>
      <trkpt lat="44.59901" lon="5.90083">
        <ele>1342.2</ele>
        <time>2023-05-19T09:55:32Z</time>
      </trkpt>
      <trkpt lat="44.59901" lon="5.90083">
        <ele>1342.4</ele>
        <time>2023-05-19T09:57:55Z</time>
      </trkpt>
      <trkpt lat="44.59905" lon="5.90082">
        <ele>1342.4</ele>
        <time>2023-05-19T09:58:01Z</time>
      </trkpt>
      <trkpt lat="44.59907" lon="5.90082">
        <ele>1342.4</ele>
        <time>2023-05-19T09:58:02Z</time>
      </trkpt>
      <trkpt lat="44.59908" lon="5.90082">
        <ele>1342.6</ele>
        <time>2023-05-19T09:58:03Z</time>
      </trkpt>
      <trkpt lat="44.59909" lon="5.90081">
        <ele>1342.6</ele>
        <time>2023-05-19T09:58:04Z</time>
      </trkpt>
      <trkpt lat="44.5991" lon="5.9008">
        <ele>1342.6</ele>
        <time>2023-05-19T09:58:05Z</time>
      </trkpt>
      <trkpt lat="44.59911" lon="5.90079">
        <ele>1342.6</ele>
        <time>2023-05-19T09:58:06Z</time>
      </trkpt>
      <trkpt lat="44.59912" lon="5.90078">
        <ele>1342.8</ele>
        <time>2023-05-19T09:58:07Z</time>
      </trkpt>
      <trkpt lat="44.59921" lon="5.90069">
        <ele>1343</ele>
        <time>2023-05-19T09:58:14Z</time>
      </trkpt>
      <trkpt lat="44.59922" lon="5.90069">
        <ele>1343.2</ele>
        <time>2023-05-19T09:58:15Z</time>
      </trkpt>
      <trkpt lat="44.59923" lon="5.90067">
        <ele>1343.2</ele>
        <time>2023-05-19T09:58:16Z</time>
      </trkpt>
      <trkpt lat="44.59923" lon="5.90066">
        <ele>1343.2</ele>
        <time>2023-05-19T09:58:17Z</time>
      </trkpt>
      <trkpt lat="44.59924" lon="5.90065">
        <ele>1343.2</ele>
        <time>2023-05-19T09:58:18Z</time>
      </trkpt>
      <trkpt lat="44.59928" lon="5.90061">
        <ele>1343.2</ele>
        <time>2023-05-19T09:58:22Z</time>
      </trkpt>
      <trkpt lat="44.59929" lon="5.9006">
        <ele>1343.2</ele>
        <time>2023-05-19T09:58:23Z</time>
      </trkpt>
      <trkpt lat="44.5993" lon="5.90059">
        <ele>1343.2</ele>
        <time>2023-05-19T09:58:24Z</time>
      </trkpt>
      <trkpt lat="44.59931" lon="5.90058">
        <ele>1343.2</ele>
        <time>2023-05-19T09:58:25Z</time>
      </trkpt>
      <trkpt lat="44.59932" lon="5.90057">
        <ele>1343.2</ele>
        <time>2023-05-19T09:58:26Z</time>
      </trkpt>
      <trkpt lat="44.59932" lon="5.90057">
        <ele>1343.2</ele>
        <time>2023-05-19T09:58:27Z</time>
      </trkpt>
      <trkpt lat="44.59932" lon="5.90057">
        <ele>1343.4</ele>
        <time>2023-05-19T09:58:29Z</time>
      </trkpt>
      <trkpt lat="44.59936" lon="5.90054">
        <ele>1343.2</ele>
        <time>2023-05-19T09:58:37Z</time>
      </trkpt>
      <trkpt lat="44.59938" lon="5.90051">
        <ele>1343</ele>
        <time>2023-05-19T09:58:40Z</time>
      </trkpt>
      <trkpt lat="44.59938" lon="5.90051">
        <ele>1343</ele>
        <time>2023-05-19T09:58:45Z</time>
      </trkpt>
      <trkpt lat="44.59942" lon="5.90046">
        <ele>1342.8</ele>
        <time>2023-05-19T09:58:55Z</time>
      </trkpt>
      <trkpt lat="44.59943" lon="5.90045">
        <ele>1342.6</ele>
        <time>2023-05-19T09:58:56Z</time>
      </trkpt>
      <trkpt lat="44.59944" lon="5.90044">
        <ele>1342.6</ele>
        <time>2023-05-19T09:58:57Z</time>
      </trkpt>
      <trkpt lat="44.5995" lon="5.90038">
        <ele>1342.8</ele>
        <time>2023-05-19T09:59:04Z</time>
      </trkpt>
      <trkpt lat="44.5995" lon="5.90038">
        <ele>1343.4</ele>
        <time>2023-05-19T09:59:05Z</time>
      </trkpt>
      <trkpt lat="44.59953" lon="5.90034">
        <ele>1344.6</ele>
        <time>2023-05-19T09:59:08Z</time>
      </trkpt>
      <trkpt lat="44.59954" lon="5.90032">
        <ele>1345</ele>
        <time>2023-05-19T09:59:10Z</time>
      </trkpt>
      <trkpt lat="44.59955" lon="5.90032">
        <ele>1345</ele>
        <time>2023-05-19T09:59:11Z</time>
      </trkpt>
      <trkpt lat="44.59955" lon="5.90031">
        <ele>1345</ele>
        <time>2023-05-19T09:59:12Z</time>
      </trkpt>
      <trkpt lat="44.59957" lon="5.90028">
        <ele>1344.4</ele>
        <time>2023-05-19T09:59:15Z</time>
      </trkpt>
      <trkpt lat="44.59958" lon="5.90027">
        <ele>1344.2</ele>
        <time>2023-05-19T09:59:16Z</time>
      </trkpt>
      <trkpt lat="44.59959" lon="5.90026">
        <ele>1344</ele>
        <time>2023-05-19T09:59:17Z</time>
      </trkpt>
      <trkpt lat="44.59959" lon="5.90025">
        <ele>1344</ele>
        <time>2023-05-19T09:59:18Z</time>
      </trkpt>
      <trkpt lat="44.5996" lon="5.90025">
        <ele>1344</ele>
        <time>2023-05-19T09:59:19Z</time>
      </trkpt>
      <trkpt lat="44.5996" lon="5.90024">
        <ele>1343.8</ele>
        <time>2023-05-19T09:59:20Z</time>
      </trkpt>
      <trkpt lat="44.59964" lon="5.90018">
        <ele>1343.6</ele>
        <time>2023-05-19T09:59:25Z</time>
      </trkpt>
      <trkpt lat="44.59965" lon="5.90017">
        <ele>1343.6</ele>
        <time>2023-05-19T09:59:26Z</time>
      </trkpt>
      <trkpt lat="44.59966" lon="5.90015">
        <ele>1343.6</ele>
        <time>2023-05-19T09:59:28Z</time>
      </trkpt>
      <trkpt lat="44.59972" lon="5.90007">
        <ele>1343.4</ele>
        <time>2023-05-19T09:59:35Z</time>
      </trkpt>
      <trkpt lat="44.59974" lon="5.90006">
        <ele>1343.4</ele>
        <time>2023-05-19T09:59:37Z</time>
      </trkpt>
      <trkpt lat="44.59975" lon="5.90006">
        <ele>1343.4</ele>
        <time>2023-05-19T09:59:38Z</time>
      </trkpt>
      <trkpt lat="44.59977" lon="5.90004">
        <ele>1343.4</ele>
        <time>2023-05-19T09:59:40Z</time>
      </trkpt>
      <trkpt lat="44.59978" lon="5.90003">
        <ele>1343.4</ele>
        <time>2023-05-19T09:59:41Z</time>
      </trkpt>
      <trkpt lat="44.59979" lon="5.90002">
        <ele>1343.4</ele>
        <time>2023-05-19T09:59:42Z</time>
      </trkpt>
      <trkpt lat="44.59981" lon="5.9">
        <ele>1343.6</ele>
        <time>2023-05-19T09:59:44Z</time>
      </trkpt>
      <trkpt lat="44.59982" lon="5.89998">
        <ele>1343.6</ele>
        <time>2023-05-19T09:59:47Z</time>
      </trkpt>
      <trkpt lat="44.59983" lon="5.89997">
        <ele>1343.6</ele>
        <time>2023-05-19T09:59:48Z</time>
      </trkpt>
      <trkpt lat="44.59984" lon="5.89996">
        <ele>1343.6</ele>
        <time>2023-05-19T09:59:49Z</time>
      </trkpt>
      <trkpt lat="44.59985" lon="5.89996">
        <ele>1343.6</ele>
        <time>2023-05-19T09:59:50Z</time>
      </trkpt>
      <trkpt lat="44.59986" lon="5.89995">
        <ele>1343.6</ele>
        <time>2023-05-19T09:59:51Z</time>
      </trkpt>
      <trkpt lat="44.59987" lon="5.89994">
        <ele>1343.6</ele>
        <time>2023-05-19T09:59:52Z</time>
      </trkpt>
      <trkpt lat="44.59987" lon="5.89993">
        <ele>1343.6</ele>
        <time>2023-05-19T09:59:53Z</time>
      </trkpt>
      <trkpt lat="44.59989" lon="5.89991">
        <ele>1343.6</ele>
        <time>2023-05-19T09:59:55Z</time>
      </trkpt>
      <trkpt lat="44.59991" lon="5.89988">
        <ele>1343.8</ele>
        <time>2023-05-19T09:59:59Z</time>
      </trkpt>
      <trkpt lat="44.59991" lon="5.89986">
        <ele>1343.8</ele>
        <time>2023-05-19T10:00:01Z</time>
      </trkpt>
      <trkpt lat="44.59991" lon="5.89985">
        <ele>1343.8</ele>
        <time>2023-05-19T10:00:02Z</time>
      </trkpt>
      <trkpt lat="44.59991" lon="5.89983">
        <ele>1343.8</ele>
        <time>2023-05-19T10:00:03Z</time>
      </trkpt>
      <trkpt lat="44.59991" lon="5.89983">
        <ele>1343.8</ele>
        <time>2023-05-19T10:00:04Z</time>
      </trkpt>
      <trkpt lat="44.59993" lon="5.89982">
        <ele>1343.8</ele>
        <time>2023-05-19T10:00:08Z</time>
      </trkpt>
      <trkpt lat="44.59993" lon="5.89981">
        <ele>1343.8</ele>
        <time>2023-05-19T10:00:10Z</time>
      </trkpt>
      <trkpt lat="44.59994" lon="5.8998">
        <ele>1343.6</ele>
        <time>2023-05-19T10:00:13Z</time>
      </trkpt>
      <trkpt lat="44.59995" lon="5.89979">
        <ele>1343.6</ele>
        <time>2023-05-19T10:00:14Z</time>
      </trkpt>
      <trkpt lat="44.59997" lon="5.89977">
        <ele>1343.6</ele>
        <time>2023-05-19T10:00:17Z</time>
      </trkpt>
      <trkpt lat="44.59999" lon="5.89976">
        <ele>1343.6</ele>
        <time>2023-05-19T10:00:19Z</time>
      </trkpt>
      <trkpt lat="44.6" lon="5.89975">
        <ele>1343.6</ele>
        <time>2023-05-19T10:00:20Z</time>
      </trkpt>
      <trkpt lat="44.60002" lon="5.89972">
        <ele>1343.6</ele>
        <time>2023-05-19T10:00:23Z</time>
      </trkpt>
      <trkpt lat="44.60005" lon="5.89968">
        <ele>1343.6</ele>
        <time>2023-05-19T10:00:27Z</time>
      </trkpt>
      <trkpt lat="44.60005" lon="5.89967">
        <ele>1343.6</ele>
        <time>2023-05-19T10:00:28Z</time>
      </trkpt>
      <trkpt lat="44.60006" lon="5.89967">
        <ele>1343.8</ele>
        <time>2023-05-19T10:00:29Z</time>
      </trkpt>
      <trkpt lat="44.60009" lon="5.89964">
        <ele>1343.8</ele>
        <time>2023-05-19T10:00:34Z</time>
      </trkpt>
      <trkpt lat="44.60013" lon="5.8996">
        <ele>1343.8</ele>
        <time>2023-05-19T10:00:41Z</time>
      </trkpt>
      <trkpt lat="44.60014" lon="5.89959">
        <ele>1343.8</ele>
        <time>2023-05-19T10:00:42Z</time>
      </trkpt>
      <trkpt lat="44.60014" lon="5.89959">
        <ele>1343.8</ele>
        <time>2023-05-19T10:00:43Z</time>
      </trkpt>
      <trkpt lat="44.60016" lon="5.89957">
        <ele>1343.8</ele>
        <time>2023-05-19T10:00:45Z</time>
      </trkpt>
      <trkpt lat="44.60018" lon="5.89956">
        <ele>1344</ele>
        <time>2023-05-19T10:00:47Z</time>
      </trkpt>
      <trkpt lat="44.60018" lon="5.89956">
        <ele>1344</ele>
        <time>2023-05-19T10:00:48Z</time>
      </trkpt>
      <trkpt lat="44.60018" lon="5.89955">
        <ele>1344</ele>
        <time>2023-05-19T10:00:49Z</time>
      </trkpt>
      <trkpt lat="44.60018" lon="5.89954">
        <ele>1344</ele>
        <time>2023-05-19T10:00:50Z</time>
      </trkpt>
      <trkpt lat="44.60019" lon="5.89953">
        <ele>1344</ele>
        <time>2023-05-19T10:00:53Z</time>
      </trkpt>
      <trkpt lat="44.60019" lon="5.89953">
        <ele>1344.2</ele>
        <time>2023-05-19T10:00:54Z</time>
      </trkpt>
      <trkpt lat="44.60019" lon="5.89952">
        <ele>1344.2</ele>
        <time>2023-05-19T10:00:55Z</time>
      </trkpt>
      <trkpt lat="44.6002" lon="5.89952">
        <ele>1344.2</ele>
        <time>2023-05-19T10:00:56Z</time>
      </trkpt>
      <trkpt lat="44.6002" lon="5.89951">
        <ele>1344.2</ele>
        <time>2023-05-19T10:00:57Z</time>
      </trkpt>
      <trkpt lat="44.60021" lon="5.8995">
        <ele>1344.2</ele>
        <time>2023-05-19T10:00:58Z</time>
      </trkpt>
      <trkpt lat="44.60022" lon="5.89949">
        <ele>1344.2</ele>
        <time>2023-05-19T10:01:00Z</time>
      </trkpt>
      <trkpt lat="44.60023" lon="5.89949">
        <ele>1344.4</ele>
        <time>2023-05-19T10:01:01Z</time>
      </trkpt>
      <trkpt lat="44.60023" lon="5.89948">
        <ele>1344.4</ele>
        <time>2023-05-19T10:01:02Z</time>
      </trkpt>
      <trkpt lat="44.60023" lon="5.89948">
        <ele>1344.4</ele>
        <time>2023-05-19T10:01:06Z</time>
      </trkpt>
      <trkpt lat="44.60024" lon="5.89947">
        <ele>1344.4</ele>
        <time>2023-05-19T10:01:07Z</time>
      </trkpt>
      <trkpt lat="44.60027" lon="5.89944">
        <ele>1344.4</ele>
        <time>2023-05-19T10:01:11Z</time>
      </trkpt>
      <trkpt lat="44.60028" lon="5.89943">
        <ele>1344.4</ele>
        <time>2023-05-19T10:01:12Z</time>
      </trkpt>
      <trkpt lat="44.60032" lon="5.89937">
        <ele>1344.2</ele>
        <time>2023-05-19T10:01:18Z</time>
      </trkpt>
      <trkpt lat="44.60035" lon="5.89933">
        <ele>1344.2</ele>
        <time>2023-05-19T10:01:22Z</time>
      </trkpt>
      <trkpt lat="44.60038" lon="5.8993">
        <ele>1344.2</ele>
        <time>2023-05-19T10:01:25Z</time>
      </trkpt>
      <trkpt lat="44.60041" lon="5.89926">
        <ele>1344.2</ele>
        <time>2023-05-19T10:01:29Z</time>
      </trkpt>
      <trkpt lat="44.60045" lon="5.89921">
        <ele>1344.4</ele>
        <time>2023-05-19T10:01:34Z</time>
      </trkpt>
      <trkpt lat="44.60048" lon="5.89918">
        <ele>1344.6</ele>
        <time>2023-05-19T10:01:38Z</time>
      </trkpt>
      <trkpt lat="44.60049" lon="5.89918">
        <ele>1344.6</ele>
        <time>2023-05-19T10:01:39Z</time>
      </trkpt>
      <trkpt lat="44.60049" lon="5.89918">
        <ele>1344.6</ele>
        <time>2023-05-19T10:01:40Z</time>
      </trkpt>
      <trkpt lat="44.60049" lon="5.89918">
        <ele>1344.6</ele>
        <time>2023-05-19T10:01:41Z</time>
      </trkpt>
      <trkpt lat="44.60049" lon="5.89918">
        <ele>1344.6</ele>
        <time>2023-05-19T10:01:42Z</time>
      </trkpt>
      <trkpt lat="44.60053" lon="5.89911">
        <ele>1344.6</ele>
        <time>2023-05-19T10:01:49Z</time>
      </trkpt>
      <trkpt lat="44.60054" lon="5.8991">
        <ele>1344.6</ele>
        <time>2023-05-19T10:01:50Z</time>
      </trkpt>
      <trkpt lat="44.60054" lon="5.89908">
        <ele>1344.6</ele>
        <time>2023-05-19T10:01:52Z</time>
      </trkpt>
      <trkpt lat="44.60054" lon="5.89908">
        <ele>1344.8</ele>
        <time>2023-05-19T10:01:54Z</time>
      </trkpt>
      <trkpt lat="44.60056" lon="5.89906">
        <ele>1345</ele>
        <time>2023-05-19T10:01:56Z</time>
      </trkpt>
      <trkpt lat="44.60058" lon="5.89904">
        <ele>1345</ele>
        <time>2023-05-19T10:02:04Z</time>
      </trkpt>
      <trkpt lat="44.60061" lon="5.899">
        <ele>1345</ele>
        <time>2023-05-19T10:02:13Z</time>
      </trkpt>
      <trkpt lat="44.60062" lon="5.89899">
        <ele>1345</ele>
        <time>2023-05-19T10:02:14Z</time>
      </trkpt>
      <trkpt lat="44.60063" lon="5.89898">
        <ele>1345</ele>
        <time>2023-05-19T10:02:15Z</time>
      </trkpt>
      <trkpt lat="44.60064" lon="5.89897">
        <ele>1344.8</ele>
        <time>2023-05-19T10:02:20Z</time>
      </trkpt>
      <trkpt lat="44.60065" lon="5.89895">
        <ele>1345</ele>
        <time>2023-05-19T10:02:42Z</time>
      </trkpt>
      <trkpt lat="44.60067" lon="5.89893">
        <ele>1345</ele>
        <time>2023-05-19T10:02:44Z</time>
      </trkpt>
      <trkpt lat="44.60068" lon="5.89892">
        <ele>1345</ele>
        <time>2023-05-19T10:02:45Z</time>
      </trkpt>
      <trkpt lat="44.60071" lon="5.89889">
        <ele>1345.2</ele>
        <time>2023-05-19T10:02:50Z</time>
      </trkpt>
      <trkpt lat="44.60072" lon="5.89888">
        <ele>1345.4</ele>
        <time>2023-05-19T10:02:51Z</time>
      </trkpt>
      <trkpt lat="44.60072" lon="5.89888">
        <ele>1345.2</ele>
        <time>2023-05-19T10:02:58Z</time>
      </trkpt>
      <trkpt lat="44.60072" lon="5.89888">
        <ele>1344.8</ele>
        <time>2023-05-19T10:03:07Z</time>
      </trkpt>
      <trkpt lat="44.60073" lon="5.89888">
        <ele>1345</ele>
        <time>2023-05-19T10:03:21Z</time>
      </trkpt>
      <trkpt lat="44.60073" lon="5.89888">
        <ele>1345.4</ele>
        <time>2023-05-19T10:03:28Z</time>
      </trkpt>
      <trkpt lat="44.60074" lon="5.89882">
        <ele>1345.6</ele>
        <time>2023-05-19T10:03:33Z</time>
      </trkpt>
      <trkpt lat="44.60074" lon="5.89881">
        <ele>1345.6</ele>
        <time>2023-05-19T10:03:34Z</time>
      </trkpt>
      <trkpt lat="44.60074" lon="5.89881">
        <ele>1345.6</ele>
        <time>2023-05-19T10:03:35Z</time>
      </trkpt>
      <trkpt lat="44.60075" lon="5.8988">
        <ele>1345.6</ele>
        <time>2023-05-19T10:03:36Z</time>
      </trkpt>
      <trkpt lat="44.60076" lon="5.8988">
        <ele>1345.6</ele>
        <time>2023-05-19T10:03:37Z</time>
      </trkpt>
      <trkpt lat="44.60076" lon="5.89879">
        <ele>1345.6</ele>
        <time>2023-05-19T10:03:38Z</time>
      </trkpt>
      <trkpt lat="44.60077" lon="5.89877">
        <ele>1345.6</ele>
        <time>2023-05-19T10:03:39Z</time>
      </trkpt>
      <trkpt lat="44.60078" lon="5.89876">
        <ele>1345.6</ele>
        <time>2023-05-19T10:03:41Z</time>
      </trkpt>
      <trkpt lat="44.60079" lon="5.89875">
        <ele>1345.6</ele>
        <time>2023-05-19T10:03:42Z</time>
      </trkpt>
      <trkpt lat="44.6008" lon="5.89874">
        <ele>1345.6</ele>
        <time>2023-05-19T10:03:43Z</time>
      </trkpt>
      <trkpt lat="44.6008" lon="5.89874">
        <ele>1345.6</ele>
        <time>2023-05-19T10:03:44Z</time>
      </trkpt>
      <trkpt lat="44.60081" lon="5.89873">
        <ele>1345.6</ele>
        <time>2023-05-19T10:03:45Z</time>
      </trkpt>
      <trkpt lat="44.60081" lon="5.89873">
        <ele>1345.6</ele>
        <time>2023-05-19T10:03:46Z</time>
      </trkpt>
      <trkpt lat="44.60083" lon="5.89872">
        <ele>1345.4</ele>
        <time>2023-05-19T10:03:48Z</time>
      </trkpt>
      <trkpt lat="44.60084" lon="5.89871">
        <ele>1345.4</ele>
        <time>2023-05-19T10:03:49Z</time>
      </trkpt>
      <trkpt lat="44.60084" lon="5.8987">
        <ele>1345.4</ele>
        <time>2023-05-19T10:03:50Z</time>
      </trkpt>
      <trkpt lat="44.60085" lon="5.89869">
        <ele>1345.4</ele>
        <time>2023-05-19T10:03:51Z</time>
      </trkpt>
      <trkpt lat="44.60086" lon="5.89869">
        <ele>1345.4</ele>
        <time>2023-05-19T10:03:52Z</time>
      </trkpt>
      <trkpt lat="44.60087" lon="5.89868">
        <ele>1345.4</ele>
        <time>2023-05-19T10:03:53Z</time>
      </trkpt>
      <trkpt lat="44.60087" lon="5.89867">
        <ele>1345.4</ele>
        <time>2023-05-19T10:03:54Z</time>
      </trkpt>
      <trkpt lat="44.60093" lon="5.89861">
        <ele>1345.6</ele>
        <time>2023-05-19T10:04:01Z</time>
      </trkpt>
      <trkpt lat="44.60095" lon="5.89858">
        <ele>1345.4</ele>
        <time>2023-05-19T10:04:04Z</time>
      </trkpt>
      <trkpt lat="44.60098" lon="5.89857">
        <ele>1345.4</ele>
        <time>2023-05-19T10:04:07Z</time>
      </trkpt>
      <trkpt lat="44.60102" lon="5.89855">
        <ele>1345.4</ele>
        <time>2023-05-19T10:04:11Z</time>
      </trkpt>
      <trkpt lat="44.60104" lon="5.89854">
        <ele>1345.4</ele>
        <time>2023-05-19T10:04:12Z</time>
      </trkpt>
      <trkpt lat="44.60104" lon="5.89854">
        <ele>1345.4</ele>
        <time>2023-05-19T10:04:13Z</time>
      </trkpt>
      <trkpt lat="44.60106" lon="5.89854">
        <ele>1345.4</ele>
        <time>2023-05-19T10:04:14Z</time>
      </trkpt>
      <trkpt lat="44.60107" lon="5.89854">
        <ele>1345.4</ele>
        <time>2023-05-19T10:04:15Z</time>
      </trkpt>
      <trkpt lat="44.60108" lon="5.89853">
        <ele>1345.4</ele>
        <time>2023-05-19T10:04:16Z</time>
      </trkpt>
      <trkpt lat="44.60109" lon="5.89853">
        <ele>1345.4</ele>
        <time>2023-05-19T10:04:17Z</time>
      </trkpt>
      <trkpt lat="44.6011" lon="5.89852">
        <ele>1345.4</ele>
        <time>2023-05-19T10:04:18Z</time>
      </trkpt>
      <trkpt lat="44.60111" lon="5.89851">
        <ele>1345.2</ele>
        <time>2023-05-19T10:04:19Z</time>
      </trkpt>
      <trkpt lat="44.60113" lon="5.8985">
        <ele>1345.2</ele>
        <time>2023-05-19T10:04:21Z</time>
      </trkpt>
      <trkpt lat="44.60115" lon="5.8985">
        <ele>1345.2</ele>
        <time>2023-05-19T10:04:22Z</time>
      </trkpt>
      <trkpt lat="44.60116" lon="5.89849">
        <ele>1345.2</ele>
        <time>2023-05-19T10:04:23Z</time>
      </trkpt>
      <trkpt lat="44.60116" lon="5.89849">
        <ele>1345.2</ele>
        <time>2023-05-19T10:04:24Z</time>
      </trkpt>
      <trkpt lat="44.60118" lon="5.89847">
        <ele>1345</ele>
        <time>2023-05-19T10:04:28Z</time>
      </trkpt>
      <trkpt lat="44.60119" lon="5.89846">
        <ele>1345</ele>
        <time>2023-05-19T10:04:29Z</time>
      </trkpt>
      <trkpt lat="44.6012" lon="5.89846">
        <ele>1345.2</ele>
        <time>2023-05-19T10:04:30Z</time>
      </trkpt>
      <trkpt lat="44.6012" lon="5.89845">
        <ele>1345.2</ele>
        <time>2023-05-19T10:04:31Z</time>
      </trkpt>
      <trkpt lat="44.60121" lon="5.89845">
        <ele>1345.4</ele>
        <time>2023-05-19T10:04:32Z</time>
      </trkpt>
      <trkpt lat="44.60121" lon="5.89844">
        <ele>1345.4</ele>
        <time>2023-05-19T10:04:33Z</time>
      </trkpt>
      <trkpt lat="44.60122" lon="5.89844">
        <ele>1345.4</ele>
        <time>2023-05-19T10:04:34Z</time>
      </trkpt>
      <trkpt lat="44.60122" lon="5.89844">
        <ele>1345.4</ele>
        <time>2023-05-19T10:04:35Z</time>
      </trkpt>
      <trkpt lat="44.60123" lon="5.89845">
        <ele>1345.4</ele>
        <time>2023-05-19T10:04:36Z</time>
      </trkpt>
      <trkpt lat="44.60123" lon="5.89845">
        <ele>1345.6</ele>
        <time>2023-05-19T10:04:37Z</time>
      </trkpt>
      <trkpt lat="44.60123" lon="5.89845">
        <ele>1345.6</ele>
        <time>2023-05-19T10:04:38Z</time>
      </trkpt>
      <trkpt lat="44.60123" lon="5.89845">
        <ele>1345.6</ele>
        <time>2023-05-19T10:04:39Z</time>
      </trkpt>
      <trkpt lat="44.60123" lon="5.89845">
        <ele>1345.6</ele>
        <time>2023-05-19T10:04:41Z</time>
      </trkpt>
      <trkpt lat="44.60123" lon="5.89846">
        <ele>1345.8</ele>
        <time>2023-05-19T10:04:59Z</time>
      </trkpt>
      <trkpt lat="44.60124" lon="5.89846">
        <ele>1345.8</ele>
        <time>2023-05-19T10:05:00Z</time>
      </trkpt>
      <trkpt lat="44.60124" lon="5.89847">
        <ele>1345.8</ele>
        <time>2023-05-19T10:05:01Z</time>
      </trkpt>
      <trkpt lat="44.60125" lon="5.89848">
        <ele>1346</ele>
        <time>2023-05-19T10:05:02Z</time>
      </trkpt>
      <trkpt lat="44.60125" lon="5.89848">
        <ele>1345.8</ele>
        <time>2023-05-19T10:05:03Z</time>
      </trkpt>
      <trkpt lat="44.60125" lon="5.89848">
        <ele>1345.8</ele>
        <time>2023-05-19T10:05:04Z</time>
      </trkpt>
      <trkpt lat="44.60126" lon="5.89849">
        <ele>1345.8</ele>
        <time>2023-05-19T10:05:05Z</time>
      </trkpt>
      <trkpt lat="44.60126" lon="5.89849">
        <ele>1345.8</ele>
        <time>2023-05-19T10:05:06Z</time>
      </trkpt>
      <trkpt lat="44.60126" lon="5.89849">
        <ele>1345.8</ele>
        <time>2023-05-19T10:05:07Z</time>
      </trkpt>
      <trkpt lat="44.60126" lon="5.89849">
        <ele>1345.8</ele>
        <time>2023-05-19T10:05:13Z</time>
      </trkpt>
      <trkpt lat="44.60126" lon="5.89849">
        <ele>1345.2</ele>
        <time>2023-05-19T10:05:23Z</time>
      </trkpt>
      <trkpt lat="44.60128" lon="5.8985">
        <ele>1345.4</ele>
        <time>2023-05-19T10:05:26Z</time>
      </trkpt>
      <trkpt lat="44.60128" lon="5.89851">
        <ele>1345.4</ele>
        <time>2023-05-19T10:05:27Z</time>
      </trkpt>
      <trkpt lat="44.6013" lon="5.89854">
        <ele>1345.4</ele>
        <time>2023-05-19T10:05:30Z</time>
      </trkpt>
      <trkpt lat="44.60129" lon="5.89856">
        <ele>1345.4</ele>
        <time>2023-05-19T10:05:31Z</time>
      </trkpt>
      <trkpt lat="44.60129" lon="5.89857">
        <ele>1345.4</ele>
        <time>2023-05-19T10:05:32Z</time>
      </trkpt>
      <trkpt lat="44.60129" lon="5.89858">
        <ele>1345.4</ele>
        <time>2023-05-19T10:05:33Z</time>
      </trkpt>
      <trkpt lat="44.60129" lon="5.8986">
        <ele>1345.4</ele>
        <time>2023-05-19T10:05:34Z</time>
      </trkpt>
      <trkpt lat="44.60128" lon="5.89866">
        <ele>1345.4</ele>
        <time>2023-05-19T10:05:39Z</time>
      </trkpt>
      <trkpt lat="44.60128" lon="5.89868">
        <ele>1345.4</ele>
        <time>2023-05-19T10:05:40Z</time>
      </trkpt>
      <trkpt lat="44.60127" lon="5.89871">
        <ele>1345.6</ele>
        <time>2023-05-19T10:05:43Z</time>
      </trkpt>
      <trkpt lat="44.60126" lon="5.89871">
        <ele>1345.8</ele>
        <time>2023-05-19T10:05:44Z</time>
      </trkpt>
      <trkpt lat="44.60125" lon="5.89872">
        <ele>1345.8</ele>
        <time>2023-05-19T10:05:45Z</time>
      </trkpt>
      <trkpt lat="44.60124" lon="5.89873">
        <ele>1345.8</ele>
        <time>2023-05-19T10:05:46Z</time>
      </trkpt>
      <trkpt lat="44.60123" lon="5.89874">
        <ele>1346</ele>
        <time>2023-05-19T10:05:47Z</time>
      </trkpt>
      <trkpt lat="44.60122" lon="5.89877">
        <ele>1346.2</ele>
        <time>2023-05-19T10:05:49Z</time>
      </trkpt>
      <trkpt lat="44.60122" lon="5.89878">
        <ele>1346.2</ele>
        <time>2023-05-19T10:05:50Z</time>
      </trkpt>
      <trkpt lat="44.60122" lon="5.89879">
        <ele>1346.2</ele>
        <time>2023-05-19T10:05:51Z</time>
      </trkpt>
      <trkpt lat="44.60122" lon="5.89881">
        <ele>1346</ele>
        <time>2023-05-19T10:05:52Z</time>
      </trkpt>
      <trkpt lat="44.60122" lon="5.89882">
        <ele>1346</ele>
        <time>2023-05-19T10:05:53Z</time>
      </trkpt>
      <trkpt lat="44.60122" lon="5.89883">
        <ele>1346</ele>
        <time>2023-05-19T10:05:54Z</time>
      </trkpt>
      <trkpt lat="44.60122" lon="5.89884">
        <ele>1346</ele>
        <time>2023-05-19T10:05:55Z</time>
      </trkpt>
      <trkpt lat="44.60122" lon="5.89886">
        <ele>1346.2</ele>
        <time>2023-05-19T10:05:56Z</time>
      </trkpt>
      <trkpt lat="44.60121" lon="5.89887">
        <ele>1346.2</ele>
        <time>2023-05-19T10:05:57Z</time>
      </trkpt>
      <trkpt lat="44.60122" lon="5.89887">
        <ele>1346.4</ele>
        <time>2023-05-19T10:05:58Z</time>
      </trkpt>
      <trkpt lat="44.60121" lon="5.89889">
        <ele>1346.4</ele>
        <time>2023-05-19T10:06:00Z</time>
      </trkpt>
      <trkpt lat="44.6012" lon="5.8989">
        <ele>1346.4</ele>
        <time>2023-05-19T10:06:01Z</time>
      </trkpt>
      <trkpt lat="44.6012" lon="5.89892">
        <ele>1346.6</ele>
        <time>2023-05-19T10:06:02Z</time>
      </trkpt>
      <trkpt lat="44.6012" lon="5.89895">
        <ele>1346.6</ele>
        <time>2023-05-19T10:06:03Z</time>
      </trkpt>
      <trkpt lat="44.6012" lon="5.89897">
        <ele>1346.6</ele>
        <time>2023-05-19T10:06:04Z</time>
      </trkpt>
      <trkpt lat="44.6012" lon="5.89902">
        <ele>1346.6</ele>
        <time>2023-05-19T10:06:07Z</time>
      </trkpt>
      <trkpt lat="44.60121" lon="5.89905">
        <ele>1346.6</ele>
        <time>2023-05-19T10:06:09Z</time>
      </trkpt>
      <trkpt lat="44.6012" lon="5.89906">
        <ele>1346.8</ele>
        <time>2023-05-19T10:06:10Z</time>
      </trkpt>
      <trkpt lat="44.6012" lon="5.8991">
        <ele>1346.8</ele>
        <time>2023-05-19T10:06:11Z</time>
      </trkpt>
      <trkpt lat="44.6012" lon="5.89913">
        <ele>1346.8</ele>
        <time>2023-05-19T10:06:12Z</time>
      </trkpt>
      <trkpt lat="44.60121" lon="5.89916">
        <ele>1346.8</ele>
        <time>2023-05-19T10:06:14Z</time>
      </trkpt>
      <trkpt lat="44.6012" lon="5.89918">
        <ele>1346.8</ele>
        <time>2023-05-19T10:06:15Z</time>
      </trkpt>
      <trkpt lat="44.6012" lon="5.89921">
        <ele>1346.8</ele>
        <time>2023-05-19T10:06:17Z</time>
      </trkpt>
      <trkpt lat="44.6012" lon="5.89923">
        <ele>1347</ele>
        <time>2023-05-19T10:06:18Z</time>
      </trkpt>
      <trkpt lat="44.6012" lon="5.89924">
        <ele>1347</ele>
        <time>2023-05-19T10:06:19Z</time>
      </trkpt>
      <trkpt lat="44.6012" lon="5.89925">
        <ele>1346.8</ele>
        <time>2023-05-19T10:06:21Z</time>
      </trkpt>
      <trkpt lat="44.6012" lon="5.89925">
        <ele>1346.8</ele>
        <time>2023-05-19T10:06:22Z</time>
      </trkpt>
      <trkpt lat="44.6012" lon="5.89926">
        <ele>1346.8</ele>
        <time>2023-05-19T10:06:23Z</time>
      </trkpt>
      <trkpt lat="44.6012" lon="5.89927">
        <ele>1346.8</ele>
        <time>2023-05-19T10:06:24Z</time>
      </trkpt>
      <trkpt lat="44.60119" lon="5.8993">
        <ele>1346.8</ele>
        <time>2023-05-19T10:06:26Z</time>
      </trkpt>
      <trkpt lat="44.60119" lon="5.89932">
        <ele>1346.8</ele>
        <time>2023-05-19T10:06:27Z</time>
      </trkpt>
      <trkpt lat="44.60119" lon="5.89933">
        <ele>1346.8</ele>
        <time>2023-05-19T10:06:28Z</time>
      </trkpt>
      <trkpt lat="44.6012" lon="5.89935">
        <ele>1346.8</ele>
        <time>2023-05-19T10:06:29Z</time>
      </trkpt>
      <trkpt lat="44.60121" lon="5.89936">
        <ele>1346.8</ele>
        <time>2023-05-19T10:06:30Z</time>
      </trkpt>
      <trkpt lat="44.60121" lon="5.89938">
        <ele>1346.8</ele>
        <time>2023-05-19T10:06:31Z</time>
      </trkpt>
      <trkpt lat="44.60121" lon="5.89942">
        <ele>1347</ele>
        <time>2023-05-19T10:06:34Z</time>
      </trkpt>
      <trkpt lat="44.6012" lon="5.89943">
        <ele>1347</ele>
        <time>2023-05-19T10:06:35Z</time>
      </trkpt>
      <trkpt lat="44.6012" lon="5.89945">
        <ele>1347</ele>
        <time>2023-05-19T10:06:36Z</time>
      </trkpt>
      <trkpt lat="44.60119" lon="5.89947">
        <ele>1347.2</ele>
        <time>2023-05-19T10:06:37Z</time>
      </trkpt>
      <trkpt lat="44.60119" lon="5.89949">
        <ele>1347.2</ele>
        <time>2023-05-19T10:06:38Z</time>
      </trkpt>
      <trkpt lat="44.60119" lon="5.89951">
        <ele>1347.2</ele>
        <time>2023-05-19T10:06:39Z</time>
      </trkpt>
      <trkpt lat="44.60119" lon="5.89952">
        <ele>1347.2</ele>
        <time>2023-05-19T10:06:40Z</time>
      </trkpt>
      <trkpt lat="44.6012" lon="5.89953">
        <ele>1347.4</ele>
        <time>2023-05-19T10:06:41Z</time>
      </trkpt>
      <trkpt lat="44.6012" lon="5.89954">
        <ele>1347.4</ele>
        <time>2023-05-19T10:06:42Z</time>
      </trkpt>
      <trkpt lat="44.6012" lon="5.89954">
        <ele>1347.4</ele>
        <time>2023-05-19T10:06:43Z</time>
      </trkpt>
      <trkpt lat="44.6012" lon="5.89957">
        <ele>1347.6</ele>
        <time>2023-05-19T10:06:45Z</time>
      </trkpt>
      <trkpt lat="44.60121" lon="5.89962">
        <ele>1348</ele>
        <time>2023-05-19T10:06:47Z</time>
      </trkpt>
      <trkpt lat="44.60119" lon="5.89969">
        <ele>1348</ele>
        <time>2023-05-19T10:06:50Z</time>
      </trkpt>
      <trkpt lat="44.60119" lon="5.89971">
        <ele>1348.2</ele>
        <time>2023-05-19T10:06:51Z</time>
      </trkpt>
      <trkpt lat="44.60119" lon="5.89973">
        <ele>1348.2</ele>
        <time>2023-05-19T10:06:52Z</time>
      </trkpt>
      <trkpt lat="44.60119" lon="5.89976">
        <ele>1348</ele>
        <time>2023-05-19T10:06:54Z</time>
      </trkpt>
      <trkpt lat="44.60119" lon="5.89978">
        <ele>1348</ele>
        <time>2023-05-19T10:06:55Z</time>
      </trkpt>
      <trkpt lat="44.6012" lon="5.89983">
        <ele>1348</ele>
        <time>2023-05-19T10:06:57Z</time>
      </trkpt>
      <trkpt lat="44.6012" lon="5.89985">
        <ele>1348</ele>
        <time>2023-05-19T10:06:58Z</time>
      </trkpt>
      <trkpt lat="44.6012" lon="5.89988">
        <ele>1348</ele>
        <time>2023-05-19T10:06:59Z</time>
      </trkpt>
      <trkpt lat="44.6012" lon="5.8999">
        <ele>1348</ele>
        <time>2023-05-19T10:07:00Z</time>
      </trkpt>
      <trkpt lat="44.60121" lon="5.89991">
        <ele>1348</ele>
        <time>2023-05-19T10:07:01Z</time>
      </trkpt>
      <trkpt lat="44.60121" lon="5.89992">
        <ele>1348</ele>
        <time>2023-05-19T10:07:02Z</time>
      </trkpt>
      <trkpt lat="44.60121" lon="5.89993">
        <ele>1348</ele>
        <time>2023-05-19T10:07:03Z</time>
      </trkpt>
      <trkpt lat="44.6012" lon="5.89995">
        <ele>1348</ele>
        <time>2023-05-19T10:07:04Z</time>
      </trkpt>
      <trkpt lat="44.60121" lon="5.9">
        <ele>1348</ele>
        <time>2023-05-19T10:07:05Z</time>
      </trkpt>
      <trkpt lat="44.6012" lon="5.90001">
        <ele>1348</ele>
        <time>2023-05-19T10:07:06Z</time>
      </trkpt>
      <trkpt lat="44.6012" lon="5.90002">
        <ele>1348</ele>
        <time>2023-05-19T10:07:07Z</time>
      </trkpt>
      <trkpt lat="44.6012" lon="5.90002">
        <ele>1348</ele>
        <time>2023-05-19T10:07:08Z</time>
      </trkpt>
      <trkpt lat="44.6012" lon="5.90002">
        <ele>1348</ele>
        <time>2023-05-19T10:07:09Z</time>
      </trkpt>
      <trkpt lat="44.6012" lon="5.90003">
        <ele>1348</ele>
        <time>2023-05-19T10:07:10Z</time>
      </trkpt>
      <trkpt lat="44.6012" lon="5.90003">
        <ele>1348</ele>
        <time>2023-05-19T10:07:11Z</time>
      </trkpt>
      <trkpt lat="44.6012" lon="5.90003">
        <ele>1348</ele>
        <time>2023-05-19T10:07:12Z</time>
      </trkpt>
      <trkpt lat="44.6012" lon="5.90003">
        <ele>1347.8</ele>
        <time>2023-05-19T10:07:17Z</time>
      </trkpt>
      <trkpt lat="44.6012" lon="5.90003">
        <ele>1348.6</ele>
        <time>2023-05-19T10:07:25Z</time>
      </trkpt>
      <trkpt lat="44.6012" lon="5.90003">
        <ele>1348.8</ele>
        <time>2023-05-19T10:07:26Z</time>
      </trkpt>
      <trkpt lat="44.6012" lon="5.90003">
        <ele>1350</ele>
        <time>2023-05-19T10:07:29Z</time>
      </trkpt>
      <trkpt lat="44.6012" lon="5.90003">
        <ele>1350.4</ele>
        <time>2023-05-19T10:07:33Z</time>
      </trkpt>
      <trkpt lat="44.6012" lon="5.90003">
        <ele>1348.8</ele>
        <time>2023-05-19T10:07:41Z</time>
      </trkpt>
      <trkpt lat="44.6012" lon="5.90003">
        <ele>1347.8</ele>
        <time>2023-05-19T10:07:47Z</time>
      </trkpt>
      <trkpt lat="44.6012" lon="5.90003">
        <ele>1347.6</ele>
        <time>2023-05-19T10:07:49Z</time>
      </trkpt>
      <trkpt lat="44.60119" lon="5.90005">
        <ele>1347.6</ele>
        <time>2023-05-19T10:07:54Z</time>
      </trkpt>
      <trkpt lat="44.60119" lon="5.90005">
        <ele>1347.4</ele>
        <time>2023-05-19T10:08:04Z</time>
      </trkpt>
      <trkpt lat="44.60119" lon="5.90005">
        <ele>1347.2</ele>
        <time>2023-05-19T10:08:20Z</time>
      </trkpt>
      <trkpt lat="44.60117" lon="5.9001">
        <ele>1347.2</ele>
        <time>2023-05-19T10:08:26Z</time>
      </trkpt>
      <trkpt lat="44.60117" lon="5.90012">
        <ele>1347.2</ele>
        <time>2023-05-19T10:08:27Z</time>
      </trkpt>
      <trkpt lat="44.60117" lon="5.90014">
        <ele>1347.2</ele>
        <time>2023-05-19T10:08:28Z</time>
      </trkpt>
      <trkpt lat="44.60115" lon="5.90024">
        <ele>1347.2</ele>
        <time>2023-05-19T10:08:32Z</time>
      </trkpt>
      <trkpt lat="44.60113" lon="5.90029">
        <ele>1347.4</ele>
        <time>2023-05-19T10:08:34Z</time>
      </trkpt>
      <trkpt lat="44.60113" lon="5.9003">
        <ele>1347.4</ele>
        <time>2023-05-19T10:08:35Z</time>
      </trkpt>
      <trkpt lat="44.60113" lon="5.90031">
        <ele>1347.4</ele>
        <time>2023-05-19T10:08:36Z</time>
      </trkpt>
      <trkpt lat="44.60112" lon="5.90031">
        <ele>1347.4</ele>
        <time>2023-05-19T10:08:37Z</time>
      </trkpt>
      <trkpt lat="44.60112" lon="5.90031">
        <ele>1347.6</ele>
        <time>2023-05-19T10:08:38Z</time>
      </trkpt>
      <trkpt lat="44.60113" lon="5.90033">
        <ele>1347.8</ele>
        <time>2023-05-19T10:08:44Z</time>
      </trkpt>
      <trkpt lat="44.60113" lon="5.90033">
        <ele>1347.8</ele>
        <time>2023-05-19T10:08:51Z</time>
      </trkpt>
      <trkpt lat="44.60112" lon="5.90034">
        <ele>1347.6</ele>
        <time>2023-05-19T10:09:02Z</time>
      </trkpt>
      <trkpt lat="44.60112" lon="5.90039">
        <ele>1347.8</ele>
        <time>2023-05-19T10:09:13Z</time>
      </trkpt>
      <trkpt lat="44.60111" lon="5.90054">
        <ele>1348</ele>
        <time>2023-05-19T10:09:18Z</time>
      </trkpt>
      <trkpt lat="44.60109" lon="5.90064">
        <ele>1348.2</ele>
        <time>2023-05-19T10:09:21Z</time>
      </trkpt>
      <trkpt lat="44.60108" lon="5.90066">
        <ele>1348.2</ele>
        <time>2023-05-19T10:09:22Z</time>
      </trkpt>
      <trkpt lat="44.60107" lon="5.90069">
        <ele>1348.4</ele>
        <time>2023-05-19T10:09:23Z</time>
      </trkpt>
      <trkpt lat="44.60107" lon="5.90073">
        <ele>1348.4</ele>
        <time>2023-05-19T10:09:24Z</time>
      </trkpt>
      <trkpt lat="44.60105" lon="5.90083">
        <ele>1348.6</ele>
        <time>2023-05-19T10:09:27Z</time>
      </trkpt>
      <trkpt lat="44.60104" lon="5.90086">
        <ele>1348.6</ele>
        <time>2023-05-19T10:09:28Z</time>
      </trkpt>
      <trkpt lat="44.60104" lon="5.90089">
        <ele>1348.6</ele>
        <time>2023-05-19T10:09:29Z</time>
      </trkpt>
      <trkpt lat="44.60105" lon="5.90093">
        <ele>1348.8</ele>
        <time>2023-05-19T10:09:30Z</time>
      </trkpt>
      <trkpt lat="44.60106" lon="5.90096">
        <ele>1348.8</ele>
        <time>2023-05-19T10:09:31Z</time>
      </trkpt>
      <trkpt lat="44.60107" lon="5.90099">
        <ele>1348.8</ele>
        <time>2023-05-19T10:09:32Z</time>
      </trkpt>
      <trkpt lat="44.60108" lon="5.90102">
        <ele>1349</ele>
        <time>2023-05-19T10:09:33Z</time>
      </trkpt>
      <trkpt lat="44.60108" lon="5.90106">
        <ele>1349</ele>
        <time>2023-05-19T10:09:34Z</time>
      </trkpt>
      <trkpt lat="44.60109" lon="5.90114">
        <ele>1349</ele>
        <time>2023-05-19T10:09:36Z</time>
      </trkpt>
      <trkpt lat="44.6011" lon="5.90117">
        <ele>1349.2</ele>
        <time>2023-05-19T10:09:37Z</time>
      </trkpt>
      <trkpt lat="44.60111" lon="5.9012">
        <ele>1349.2</ele>
        <time>2023-05-19T10:09:38Z</time>
      </trkpt>
      <trkpt lat="44.60116" lon="5.90123">
        <ele>1349.4</ele>
        <time>2023-05-19T10:09:39Z</time>
      </trkpt>
      <trkpt lat="44.60117" lon="5.90126">
        <ele>1349.4</ele>
        <time>2023-05-19T10:09:40Z</time>
      </trkpt>
      <trkpt lat="44.60119" lon="5.9013">
        <ele>1349.4</ele>
        <time>2023-05-19T10:09:41Z</time>
      </trkpt>
      <trkpt lat="44.60119" lon="5.90134">
        <ele>1349.4</ele>
        <time>2023-05-19T10:09:42Z</time>
      </trkpt>
      <trkpt lat="44.60119" lon="5.90137">
        <ele>1349.6</ele>
        <time>2023-05-19T10:09:43Z</time>
      </trkpt>
      <trkpt lat="44.60118" lon="5.90144">
        <ele>1349.6</ele>
        <time>2023-05-19T10:09:45Z</time>
      </trkpt>
      <trkpt lat="44.60118" lon="5.90147">
        <ele>1349.6</ele>
        <time>2023-05-19T10:09:46Z</time>
      </trkpt>
      <trkpt lat="44.60118" lon="5.90149">
        <ele>1349.6</ele>
        <time>2023-05-19T10:09:47Z</time>
      </trkpt>
      <trkpt lat="44.60119" lon="5.90157">
        <ele>1349.8</ele>
        <time>2023-05-19T10:09:50Z</time>
      </trkpt>
      <trkpt lat="44.60121" lon="5.90178">
        <ele>1349.8</ele>
        <time>2023-05-19T10:09:58Z</time>
      </trkpt>
      <trkpt lat="44.60121" lon="5.90193">
        <ele>1349.8</ele>
        <time>2023-05-19T10:10:04Z</time>
      </trkpt>
      <trkpt lat="44.60121" lon="5.90195">
        <ele>1349.8</ele>
        <time>2023-05-19T10:10:05Z</time>
      </trkpt>
      <trkpt lat="44.6012" lon="5.90197">
        <ele>1349.8</ele>
        <time>2023-05-19T10:10:06Z</time>
      </trkpt>
      <trkpt lat="44.60121" lon="5.90199">
        <ele>1349.8</ele>
        <time>2023-05-19T10:10:07Z</time>
      </trkpt>
      <trkpt lat="44.60121" lon="5.90201">
        <ele>1349.8</ele>
        <time>2023-05-19T10:10:08Z</time>
      </trkpt>
      <trkpt lat="44.60121" lon="5.90204">
        <ele>1349.8</ele>
        <time>2023-05-19T10:10:09Z</time>
      </trkpt>
      <trkpt lat="44.6012" lon="5.90206">
        <ele>1349.8</ele>
        <time>2023-05-19T10:10:10Z</time>
      </trkpt>
      <trkpt lat="44.60119" lon="5.9021">
        <ele>1350</ele>
        <time>2023-05-19T10:10:12Z</time>
      </trkpt>
      <trkpt lat="44.60119" lon="5.90211">
        <ele>1350</ele>
        <time>2023-05-19T10:10:13Z</time>
      </trkpt>
      <trkpt lat="44.60118" lon="5.90212">
        <ele>1350.2</ele>
        <time>2023-05-19T10:10:14Z</time>
      </trkpt>
      <trkpt lat="44.60117" lon="5.90214">
        <ele>1350.2</ele>
        <time>2023-05-19T10:10:15Z</time>
      </trkpt>
      <trkpt lat="44.60116" lon="5.90214">
        <ele>1350.4</ele>
        <time>2023-05-19T10:10:16Z</time>
      </trkpt>
      <trkpt lat="44.60116" lon="5.90214">
        <ele>1350.4</ele>
        <time>2023-05-19T10:10:17Z</time>
      </trkpt>
      <trkpt lat="44.60116" lon="5.90215">
        <ele>1350.6</ele>
        <time>2023-05-19T10:10:18Z</time>
      </trkpt>
      <trkpt lat="44.60113" lon="5.90215">
        <ele>1350.8</ele>
        <time>2023-05-19T10:10:20Z</time>
      </trkpt>
      <trkpt lat="44.60112" lon="5.90215">
        <ele>1350.8</ele>
        <time>2023-05-19T10:10:21Z</time>
      </trkpt>
      <trkpt lat="44.60112" lon="5.90216">
        <ele>1350.8</ele>
        <time>2023-05-19T10:10:22Z</time>
      </trkpt>
      <trkpt lat="44.60111" lon="5.90216">
        <ele>1351</ele>
        <time>2023-05-19T10:10:23Z</time>
      </trkpt>
      <trkpt lat="44.6011" lon="5.90216">
        <ele>1351</ele>
        <time>2023-05-19T10:10:24Z</time>
      </trkpt>
      <trkpt lat="44.6011" lon="5.90217">
        <ele>1351.2</ele>
        <time>2023-05-19T10:10:25Z</time>
      </trkpt>
      <trkpt lat="44.60109" lon="5.90217">
        <ele>1351.4</ele>
        <time>2023-05-19T10:10:26Z</time>
      </trkpt>
      <trkpt lat="44.60107" lon="5.90217">
        <ele>1351.4</ele>
        <time>2023-05-19T10:10:27Z</time>
      </trkpt>
      <trkpt lat="44.60105" lon="5.90219">
        <ele>1351.8</ele>
        <time>2023-05-19T10:10:30Z</time>
      </trkpt>
      <trkpt lat="44.60104" lon="5.90219">
        <ele>1351.8</ele>
        <time>2023-05-19T10:10:31Z</time>
      </trkpt>
      <trkpt lat="44.60103" lon="5.90219">
        <ele>1351.8</ele>
        <time>2023-05-19T10:10:32Z</time>
      </trkpt>
      <trkpt lat="44.60102" lon="5.90219">
        <ele>1351.8</ele>
        <time>2023-05-19T10:10:33Z</time>
      </trkpt>
      <trkpt lat="44.60102" lon="5.9022">
        <ele>1352</ele>
        <time>2023-05-19T10:10:34Z</time>
      </trkpt>
      <trkpt lat="44.60101" lon="5.9022">
        <ele>1352</ele>
        <time>2023-05-19T10:10:35Z</time>
      </trkpt>
      <trkpt lat="44.601" lon="5.90222">
        <ele>1352.4</ele>
        <time>2023-05-19T10:10:37Z</time>
      </trkpt>
      <trkpt lat="44.60099" lon="5.90221">
        <ele>1352.6</ele>
        <time>2023-05-19T10:10:38Z</time>
      </trkpt>
      <trkpt lat="44.60098" lon="5.90221">
        <ele>1352.8</ele>
        <time>2023-05-19T10:10:39Z</time>
      </trkpt>
      <trkpt lat="44.60097" lon="5.90222">
        <ele>1352.8</ele>
        <time>2023-05-19T10:10:40Z</time>
      </trkpt>
      <trkpt lat="44.60095" lon="5.90224">
        <ele>1353.2</ele>
        <time>2023-05-19T10:10:42Z</time>
      </trkpt>
      <trkpt lat="44.60094" lon="5.90224">
        <ele>1353.4</ele>
        <time>2023-05-19T10:10:43Z</time>
      </trkpt>
      <trkpt lat="44.60092" lon="5.90226">
        <ele>1353.6</ele>
        <time>2023-05-19T10:10:44Z</time>
      </trkpt>
      <trkpt lat="44.60091" lon="5.90227">
        <ele>1353.8</ele>
        <time>2023-05-19T10:10:45Z</time>
      </trkpt>
      <trkpt lat="44.60089" lon="5.90228">
        <ele>1353.8</ele>
        <time>2023-05-19T10:10:46Z</time>
      </trkpt>
      <trkpt lat="44.60087" lon="5.9023">
        <ele>1354</ele>
        <time>2023-05-19T10:10:47Z</time>
      </trkpt>
      <trkpt lat="44.60085" lon="5.90231">
        <ele>1354.2</ele>
        <time>2023-05-19T10:10:48Z</time>
      </trkpt>
      <trkpt lat="44.60084" lon="5.90232">
        <ele>1354.4</ele>
        <time>2023-05-19T10:10:49Z</time>
      </trkpt>
      <trkpt lat="44.60083" lon="5.90232">
        <ele>1354.6</ele>
        <time>2023-05-19T10:10:50Z</time>
      </trkpt>
      <trkpt lat="44.60081" lon="5.90232">
        <ele>1354.6</ele>
        <time>2023-05-19T10:10:51Z</time>
      </trkpt>
      <trkpt lat="44.6008" lon="5.90231">
        <ele>1354.8</ele>
        <time>2023-05-19T10:10:52Z</time>
      </trkpt>
      <trkpt lat="44.60079" lon="5.90232">
        <ele>1354.8</ele>
        <time>2023-05-19T10:10:53Z</time>
      </trkpt>
      <trkpt lat="44.60078" lon="5.90234">
        <ele>1354.8</ele>
        <time>2023-05-19T10:10:54Z</time>
      </trkpt>
      <trkpt lat="44.60076" lon="5.90236">
        <ele>1355</ele>
        <time>2023-05-19T10:10:55Z</time>
      </trkpt>
      <trkpt lat="44.60075" lon="5.90237">
        <ele>1355.2</ele>
        <time>2023-05-19T10:10:56Z</time>
      </trkpt>
      <trkpt lat="44.60074" lon="5.90239">
        <ele>1355.2</ele>
        <time>2023-05-19T10:10:57Z</time>
      </trkpt>
      <trkpt lat="44.60073" lon="5.9024">
        <ele>1355.4</ele>
        <time>2023-05-19T10:10:58Z</time>
      </trkpt>
      <trkpt lat="44.60072" lon="5.90241">
        <ele>1355.6</ele>
        <time>2023-05-19T10:10:59Z</time>
      </trkpt>
      <trkpt lat="44.60071" lon="5.90242">
        <ele>1355.6</ele>
        <time>2023-05-19T10:11:00Z</time>
      </trkpt>
      <trkpt lat="44.6007" lon="5.90243">
        <ele>1355.8</ele>
        <time>2023-05-19T10:11:01Z</time>
      </trkpt>
      <trkpt lat="44.60068" lon="5.90244">
        <ele>1355.8</ele>
        <time>2023-05-19T10:11:02Z</time>
      </trkpt>
      <trkpt lat="44.60067" lon="5.90245">
        <ele>1356</ele>
        <time>2023-05-19T10:11:03Z</time>
      </trkpt>
      <trkpt lat="44.60066" lon="5.90245">
        <ele>1356</ele>
        <time>2023-05-19T10:11:04Z</time>
      </trkpt>
      <trkpt lat="44.60064" lon="5.90245">
        <ele>1356</ele>
        <time>2023-05-19T10:11:05Z</time>
      </trkpt>
      <trkpt lat="44.60063" lon="5.90246">
        <ele>1356.2</ele>
        <time>2023-05-19T10:11:06Z</time>
      </trkpt>
      <trkpt lat="44.60062" lon="5.90247">
        <ele>1356.2</ele>
        <time>2023-05-19T10:11:07Z</time>
      </trkpt>
      <trkpt lat="44.60062" lon="5.90249">
        <ele>1356.2</ele>
        <time>2023-05-19T10:11:08Z</time>
      </trkpt>
      <trkpt lat="44.60061" lon="5.9025">
        <ele>1356.4</ele>
        <time>2023-05-19T10:11:09Z</time>
      </trkpt>
      <trkpt lat="44.6006" lon="5.9025">
        <ele>1356.4</ele>
        <time>2023-05-19T10:11:10Z</time>
      </trkpt>
      <trkpt lat="44.60059" lon="5.90251">
        <ele>1356.4</ele>
        <time>2023-05-19T10:11:11Z</time>
      </trkpt>
      <trkpt lat="44.60059" lon="5.90252">
        <ele>1356.4</ele>
        <time>2023-05-19T10:11:12Z</time>
      </trkpt>
      <trkpt lat="44.60058" lon="5.90252">
        <ele>1356.6</ele>
        <time>2023-05-19T10:11:13Z</time>
      </trkpt>
      <trkpt lat="44.60057" lon="5.90253">
        <ele>1356.6</ele>
        <time>2023-05-19T10:11:14Z</time>
      </trkpt>
      <trkpt lat="44.60057" lon="5.90254">
        <ele>1356.6</ele>
        <time>2023-05-19T10:11:15Z</time>
      </trkpt>
      <trkpt lat="44.60056" lon="5.90255">
        <ele>1356.8</ele>
        <time>2023-05-19T10:11:16Z</time>
      </trkpt>
      <trkpt lat="44.60055" lon="5.90256">
        <ele>1357</ele>
        <time>2023-05-19T10:11:17Z</time>
      </trkpt>
      <trkpt lat="44.60054" lon="5.90257">
        <ele>1357</ele>
        <time>2023-05-19T10:11:18Z</time>
      </trkpt>
      <trkpt lat="44.60053" lon="5.90258">
        <ele>1357.2</ele>
        <time>2023-05-19T10:11:19Z</time>
      </trkpt>
      <trkpt lat="44.60048" lon="5.90265">
        <ele>1358</ele>
        <time>2023-05-19T10:11:24Z</time>
      </trkpt>
      <trkpt lat="44.60047" lon="5.90266">
        <ele>1358</ele>
        <time>2023-05-19T10:11:25Z</time>
      </trkpt>
      <trkpt lat="44.60046" lon="5.90268">
        <ele>1358.2</ele>
        <time>2023-05-19T10:11:26Z</time>
      </trkpt>
      <trkpt lat="44.60043" lon="5.90272">
        <ele>1358.8</ele>
        <time>2023-05-19T10:11:29Z</time>
      </trkpt>
      <trkpt lat="44.60042" lon="5.90274">
        <ele>1358.8</ele>
        <time>2023-05-19T10:11:30Z</time>
      </trkpt>
      <trkpt lat="44.60041" lon="5.90275">
        <ele>1359</ele>
        <time>2023-05-19T10:11:31Z</time>
      </trkpt>
      <trkpt lat="44.60041" lon="5.90276">
        <ele>1359</ele>
        <time>2023-05-19T10:11:32Z</time>
      </trkpt>
      <trkpt lat="44.60041" lon="5.90278">
        <ele>1359.2</ele>
        <time>2023-05-19T10:11:33Z</time>
      </trkpt>
      <trkpt lat="44.60041" lon="5.9028">
        <ele>1359.2</ele>
        <time>2023-05-19T10:11:34Z</time>
      </trkpt>
      <trkpt lat="44.60041" lon="5.90281">
        <ele>1359.2</ele>
        <time>2023-05-19T10:11:35Z</time>
      </trkpt>
      <trkpt lat="44.60041" lon="5.90283">
        <ele>1359.6</ele>
        <time>2023-05-19T10:11:36Z</time>
      </trkpt>
      <trkpt lat="44.60042" lon="5.90284">
        <ele>1359.6</ele>
        <time>2023-05-19T10:11:37Z</time>
      </trkpt>
      <trkpt lat="44.60043" lon="5.90286">
        <ele>1359.8</ele>
        <time>2023-05-19T10:11:38Z</time>
      </trkpt>
      <trkpt lat="44.60043" lon="5.90287">
        <ele>1359.8</ele>
        <time>2023-05-19T10:11:39Z</time>
      </trkpt>
      <trkpt lat="44.60043" lon="5.90289">
        <ele>1359.8</ele>
        <time>2023-05-19T10:11:40Z</time>
      </trkpt>
      <trkpt lat="44.60044" lon="5.90291">
        <ele>1359.8</ele>
        <time>2023-05-19T10:11:41Z</time>
      </trkpt>
      <trkpt lat="44.60044" lon="5.90292">
        <ele>1360</ele>
        <time>2023-05-19T10:11:42Z</time>
      </trkpt>
      <trkpt lat="44.60044" lon="5.90293">
        <ele>1360</ele>
        <time>2023-05-19T10:11:43Z</time>
      </trkpt>
      <trkpt lat="44.60044" lon="5.90294">
        <ele>1360.2</ele>
        <time>2023-05-19T10:11:44Z</time>
      </trkpt>
      <trkpt lat="44.60045" lon="5.90296">
        <ele>1360.2</ele>
        <time>2023-05-19T10:11:45Z</time>
      </trkpt>
      <trkpt lat="44.60045" lon="5.90298">
        <ele>1360.2</ele>
        <time>2023-05-19T10:11:46Z</time>
      </trkpt>
      <trkpt lat="44.60045" lon="5.90301">
        <ele>1360.4</ele>
        <time>2023-05-19T10:11:47Z</time>
      </trkpt>
      <trkpt lat="44.60045" lon="5.90303">
        <ele>1360.4</ele>
        <time>2023-05-19T10:11:48Z</time>
      </trkpt>
      <trkpt lat="44.60046" lon="5.90306">
        <ele>1360.4</ele>
        <time>2023-05-19T10:11:49Z</time>
      </trkpt>
      <trkpt lat="44.60046" lon="5.9031">
        <ele>1360.4</ele>
        <time>2023-05-19T10:11:50Z</time>
      </trkpt>
      <trkpt lat="44.60046" lon="5.90323">
        <ele>1360.2</ele>
        <time>2023-05-19T10:11:54Z</time>
      </trkpt>
      <trkpt lat="44.60046" lon="5.90332">
        <ele>1360</ele>
        <time>2023-05-19T10:11:57Z</time>
      </trkpt>
      <trkpt lat="44.60049" lon="5.90345">
        <ele>1360</ele>
        <time>2023-05-19T10:12:01Z</time>
      </trkpt>
      <trkpt lat="44.6005" lon="5.90349">
        <ele>1360</ele>
        <time>2023-05-19T10:12:03Z</time>
      </trkpt>
      <trkpt lat="44.60051" lon="5.90351">
        <ele>1360</ele>
        <time>2023-05-19T10:12:04Z</time>
      </trkpt>
      <trkpt lat="44.60052" lon="5.90353">
        <ele>1360</ele>
        <time>2023-05-19T10:12:05Z</time>
      </trkpt>
      <trkpt lat="44.60053" lon="5.90354">
        <ele>1360</ele>
        <time>2023-05-19T10:12:06Z</time>
      </trkpt>
      <trkpt lat="44.60054" lon="5.90356">
        <ele>1360</ele>
        <time>2023-05-19T10:12:07Z</time>
      </trkpt>
      <trkpt lat="44.60054" lon="5.90358">
        <ele>1360</ele>
        <time>2023-05-19T10:12:08Z</time>
      </trkpt>
      <trkpt lat="44.60055" lon="5.9036">
        <ele>1360</ele>
        <time>2023-05-19T10:12:09Z</time>
      </trkpt>
      <trkpt lat="44.60055" lon="5.90361">
        <ele>1360</ele>
        <time>2023-05-19T10:12:10Z</time>
      </trkpt>
      <trkpt lat="44.60055" lon="5.90362">
        <ele>1360</ele>
        <time>2023-05-19T10:12:11Z</time>
      </trkpt>
      <trkpt lat="44.60055" lon="5.90362">
        <ele>1359.8</ele>
        <time>2023-05-19T10:12:13Z</time>
      </trkpt>
      <trkpt lat="44.60055" lon="5.90362">
        <ele>1359.8</ele>
        <time>2023-05-19T10:12:16Z</time>
      </trkpt>
      <trkpt lat="44.60055" lon="5.90362">
        <ele>1359.6</ele>
        <time>2023-05-19T10:12:38Z</time>
      </trkpt>
      <trkpt lat="44.60055" lon="5.90365">
        <ele>1359.4</ele>
        <time>2023-05-19T10:12:41Z</time>
      </trkpt>
      <trkpt lat="44.60055" lon="5.90366">
        <ele>1359.4</ele>
        <time>2023-05-19T10:12:48Z</time>
      </trkpt>
      <trkpt lat="44.60056" lon="5.90369">
        <ele>1359.4</ele>
        <time>2023-05-19T10:12:59Z</time>
      </trkpt>
      <trkpt lat="44.60057" lon="5.90371">
        <ele>1359.4</ele>
        <time>2023-05-19T10:13:00Z</time>
      </trkpt>
      <trkpt lat="44.60057" lon="5.9038">
        <ele>1359.4</ele>
        <time>2023-05-19T10:13:03Z</time>
      </trkpt>
      <trkpt lat="44.60057" lon="5.90384">
        <ele>1359.4</ele>
        <time>2023-05-19T10:13:04Z</time>
      </trkpt>
      <trkpt lat="44.60056" lon="5.90388">
        <ele>1359.2</ele>
        <time>2023-05-19T10:13:05Z</time>
      </trkpt>
      <trkpt lat="44.60055" lon="5.90392">
        <ele>1359.2</ele>
        <time>2023-05-19T10:13:06Z</time>
      </trkpt>
      <trkpt lat="44.60055" lon="5.90396">
        <ele>1359</ele>
        <time>2023-05-19T10:13:07Z</time>
      </trkpt>
      <trkpt lat="44.60057" lon="5.90401">
        <ele>1358.8</ele>
        <time>2023-05-19T10:13:08Z</time>
      </trkpt>
      <trkpt lat="44.6006" lon="5.90405">
        <ele>1358.6</ele>
        <time>2023-05-19T10:13:09Z</time>
      </trkpt>
      <trkpt lat="44.60061" lon="5.90409">
        <ele>1358.6</ele>
        <time>2023-05-19T10:13:10Z</time>
      </trkpt>
      <trkpt lat="44.60063" lon="5.90413">
        <ele>1358.4</ele>
        <time>2023-05-19T10:13:11Z</time>
      </trkpt>
      <trkpt lat="44.60065" lon="5.90415">
        <ele>1358.2</ele>
        <time>2023-05-19T10:13:12Z</time>
      </trkpt>
      <trkpt lat="44.60066" lon="5.90417">
        <ele>1358.2</ele>
        <time>2023-05-19T10:13:13Z</time>
      </trkpt>
      <trkpt lat="44.60067" lon="5.90419">
        <ele>1358</ele>
        <time>2023-05-19T10:13:14Z</time>
      </trkpt>
      <trkpt lat="44.60071" lon="5.90426">
        <ele>1357.4</ele>
        <time>2023-05-19T10:13:16Z</time>
      </trkpt>
      <trkpt lat="44.6008" lon="5.90442">
        <ele>1356.4</ele>
        <time>2023-05-19T10:13:20Z</time>
      </trkpt>
      <trkpt lat="44.60085" lon="5.90449">
        <ele>1356</ele>
        <time>2023-05-19T10:13:22Z</time>
      </trkpt>
      <trkpt lat="44.60089" lon="5.90458">
        <ele>1355.6</ele>
        <time>2023-05-19T10:13:24Z</time>
      </trkpt>
      <trkpt lat="44.60094" lon="5.90466">
        <ele>1355</ele>
        <time>2023-05-19T10:13:26Z</time>
      </trkpt>
      <trkpt lat="44.601" lon="5.90474">
        <ele>1353.8</ele>
        <time>2023-05-19T10:13:28Z</time>
      </trkpt>
      <trkpt lat="44.60105" lon="5.90482">
        <ele>1352.8</ele>
        <time>2023-05-19T10:13:30Z</time>
      </trkpt>
      <trkpt lat="44.60108" lon="5.90487">
        <ele>1351.8</ele>
        <time>2023-05-19T10:13:31Z</time>
      </trkpt>
      <trkpt lat="44.60113" lon="5.90495">
        <ele>1350.8</ele>
        <time>2023-05-19T10:13:33Z</time>
      </trkpt>
      <trkpt lat="44.60118" lon="5.90498">
        <ele>1349.6</ele>
        <time>2023-05-19T10:13:34Z</time>
      </trkpt>
      <trkpt lat="44.60122" lon="5.90503">
        <ele>1349.2</ele>
        <time>2023-05-19T10:13:35Z</time>
      </trkpt>
      <trkpt lat="44.60129" lon="5.90513">
        <ele>1348.4</ele>
        <time>2023-05-19T10:13:37Z</time>
      </trkpt>
      <trkpt lat="44.60136" lon="5.90521">
        <ele>1347</ele>
        <time>2023-05-19T10:13:39Z</time>
      </trkpt>
      <trkpt lat="44.60143" lon="5.90529">
        <ele>1346</ele>
        <time>2023-05-19T10:13:41Z</time>
      </trkpt>
      <trkpt lat="44.60148" lon="5.90537">
        <ele>1345.2</ele>
        <time>2023-05-19T10:13:43Z</time>
      </trkpt>
      <trkpt lat="44.60151" lon="5.90541">
        <ele>1344.6</ele>
        <time>2023-05-19T10:13:44Z</time>
      </trkpt>
      <trkpt lat="44.60154" lon="5.90544">
        <ele>1344</ele>
        <time>2023-05-19T10:13:45Z</time>
      </trkpt>
      <trkpt lat="44.60156" lon="5.90547">
        <ele>1343.6</ele>
        <time>2023-05-19T10:13:46Z</time>
      </trkpt>
      <trkpt lat="44.60157" lon="5.9055">
        <ele>1342.8</ele>
        <time>2023-05-19T10:13:47Z</time>
      </trkpt>
      <trkpt lat="44.60159" lon="5.90551">
        <ele>1342.4</ele>
        <time>2023-05-19T10:13:48Z</time>
      </trkpt>
      <trkpt lat="44.60159" lon="5.90551">
        <ele>1342</ele>
        <time>2023-05-19T10:13:49Z</time>
      </trkpt>
      <trkpt lat="44.60159" lon="5.90551">
        <ele>1341</ele>
        <time>2023-05-19T10:13:51Z</time>
      </trkpt>
      <trkpt lat="44.60159" lon="5.90551">
        <ele>1340.4</ele>
        <time>2023-05-19T10:13:52Z</time>
      </trkpt>
      <trkpt lat="44.60159" lon="5.90551">
        <ele>1339.8</ele>
        <time>2023-05-19T10:13:54Z</time>
      </trkpt>
      <trkpt lat="44.60159" lon="5.90551">
        <ele>1338.6</ele>
        <time>2023-05-19T10:13:57Z</time>
      </trkpt>
      <trkpt lat="44.60159" lon="5.90551">
        <ele>1338</ele>
        <time>2023-05-19T10:14:04Z</time>
      </trkpt>
      <trkpt lat="44.60159" lon="5.90551">
        <ele>1337.8</ele>
        <time>2023-05-19T10:14:19Z</time>
      </trkpt>
      <trkpt lat="44.60159" lon="5.90551">
        <ele>1337.8</ele>
        <time>2023-05-19T10:14:26Z</time>
      </trkpt>
      <trkpt lat="44.60159" lon="5.90551">
        <ele>1337.6</ele>
        <time>2023-05-19T10:14:47Z</time>
      </trkpt>
      <trkpt lat="44.60159" lon="5.90551">
        <ele>1337.6</ele>
        <time>2023-05-19T10:14:50Z</time>
      </trkpt>
      <trkpt lat="44.60159" lon="5.90552">
        <ele>1337.4</ele>
        <time>2023-05-19T10:15:00Z</time>
      </trkpt>
      <trkpt lat="44.60159" lon="5.90552">
        <ele>1337.2</ele>
        <time>2023-05-19T10:15:09Z</time>
      </trkpt>
      <trkpt lat="44.60159" lon="5.90552">
        <ele>1337</ele>
        <time>2023-05-19T10:15:18Z</time>
      </trkpt>
      <trkpt lat="44.60159" lon="5.90552">
        <ele>1336.8</ele>
        <time>2023-05-19T10:15:34Z</time>
      </trkpt>
      <trkpt lat="44.6016" lon="5.90555">
        <ele>1336.6</ele>
        <time>2023-05-19T10:15:40Z</time>
      </trkpt>
      <trkpt lat="44.60165" lon="5.90567">
        <ele>1336.4</ele>
        <time>2023-05-19T10:15:44Z</time>
      </trkpt>
      <trkpt lat="44.60167" lon="5.90571">
        <ele>1336.4</ele>
        <time>2023-05-19T10:15:45Z</time>
      </trkpt>
      <trkpt lat="44.60178" lon="5.90595">
        <ele>1335.6</ele>
        <time>2023-05-19T10:15:50Z</time>
      </trkpt>
      <trkpt lat="44.60182" lon="5.906">
        <ele>1335</ele>
        <time>2023-05-19T10:15:51Z</time>
      </trkpt>
      <trkpt lat="44.60192" lon="5.90623">
        <ele>1333.8</ele>
        <time>2023-05-19T10:15:55Z</time>
      </trkpt>
      <trkpt lat="44.60195" lon="5.90629">
        <ele>1333.6</ele>
        <time>2023-05-19T10:15:56Z</time>
      </trkpt>
      <trkpt lat="44.60201" lon="5.9064">
        <ele>1332.2</ele>
        <time>2023-05-19T10:15:58Z</time>
      </trkpt>
      <trkpt lat="44.60202" lon="5.90646">
        <ele>1332</ele>
        <time>2023-05-19T10:15:59Z</time>
      </trkpt>
      <trkpt lat="44.60212" lon="5.90662">
        <ele>1331</ele>
        <time>2023-05-19T10:16:02Z</time>
      </trkpt>
      <trkpt lat="44.60215" lon="5.90667">
        <ele>1330.8</ele>
        <time>2023-05-19T10:16:03Z</time>
      </trkpt>
      <trkpt lat="44.60219" lon="5.90678">
        <ele>1329.4</ele>
        <time>2023-05-19T10:16:05Z</time>
      </trkpt>
      <trkpt lat="44.60222" lon="5.90683">
        <ele>1328.4</ele>
        <time>2023-05-19T10:16:06Z</time>
      </trkpt>
      <trkpt lat="44.60223" lon="5.90688">
        <ele>1328</ele>
        <time>2023-05-19T10:16:07Z</time>
      </trkpt>
      <trkpt lat="44.60225" lon="5.90692">
        <ele>1327.8</ele>
        <time>2023-05-19T10:16:08Z</time>
      </trkpt>
      <trkpt lat="44.60225" lon="5.90695">
        <ele>1326.8</ele>
        <time>2023-05-19T10:16:09Z</time>
      </trkpt>
      <trkpt lat="44.60226" lon="5.90698">
        <ele>1326.4</ele>
        <time>2023-05-19T10:16:10Z</time>
      </trkpt>
      <trkpt lat="44.60227" lon="5.90701">
        <ele>1325.6</ele>
        <time>2023-05-19T10:16:11Z</time>
      </trkpt>
      <trkpt lat="44.60228" lon="5.90703">
        <ele>1325</ele>
        <time>2023-05-19T10:16:12Z</time>
      </trkpt>
      <trkpt lat="44.60228" lon="5.90704">
        <ele>1324.4</ele>
        <time>2023-05-19T10:16:13Z</time>
      </trkpt>
      <trkpt lat="44.60228" lon="5.90706">
        <ele>1324.2</ele>
        <time>2023-05-19T10:16:14Z</time>
      </trkpt>
      <trkpt lat="44.60228" lon="5.90713">
        <ele>1323.4</ele>
        <time>2023-05-19T10:16:16Z</time>
      </trkpt>
      <trkpt lat="44.60228" lon="5.90717">
        <ele>1323.2</ele>
        <time>2023-05-19T10:16:17Z</time>
      </trkpt>
      <trkpt lat="44.60228" lon="5.90727">
        <ele>1322.4</ele>
        <time>2023-05-19T10:16:20Z</time>
      </trkpt>
      <trkpt lat="44.6023" lon="5.90741">
        <ele>1321</ele>
        <time>2023-05-19T10:16:25Z</time>
      </trkpt>
      <trkpt lat="44.60232" lon="5.90747">
        <ele>1320.8</ele>
        <time>2023-05-19T10:16:27Z</time>
      </trkpt>
      <trkpt lat="44.60233" lon="5.9075">
        <ele>1320.8</ele>
        <time>2023-05-19T10:16:28Z</time>
      </trkpt>
      <trkpt lat="44.60234" lon="5.90752">
        <ele>1320.4</ele>
        <time>2023-05-19T10:16:29Z</time>
      </trkpt>
      <trkpt lat="44.60235" lon="5.90754">
        <ele>1320.4</ele>
        <time>2023-05-19T10:16:30Z</time>
      </trkpt>
      <trkpt lat="44.60235" lon="5.90756">
        <ele>1320</ele>
        <time>2023-05-19T10:16:31Z</time>
      </trkpt>
      <trkpt lat="44.60236" lon="5.90758">
        <ele>1319.8</ele>
        <time>2023-05-19T10:16:32Z</time>
      </trkpt>
      <trkpt lat="44.60237" lon="5.90759">
        <ele>1319.8</ele>
        <time>2023-05-19T10:16:33Z</time>
      </trkpt>
      <trkpt lat="44.60238" lon="5.9076">
        <ele>1319.8</ele>
        <time>2023-05-19T10:16:34Z</time>
      </trkpt>
      <trkpt lat="44.60239" lon="5.90761">
        <ele>1319.6</ele>
        <time>2023-05-19T10:16:35Z</time>
      </trkpt>
      <trkpt lat="44.60241" lon="5.90763">
        <ele>1319.6</ele>
        <time>2023-05-19T10:16:36Z</time>
      </trkpt>
      <trkpt lat="44.60242" lon="5.90765">
        <ele>1319.4</ele>
        <time>2023-05-19T10:16:37Z</time>
      </trkpt>
      <trkpt lat="44.60244" lon="5.90767">
        <ele>1319.4</ele>
        <time>2023-05-19T10:16:38Z</time>
      </trkpt>
      <trkpt lat="44.60244" lon="5.90768">
        <ele>1319.4</ele>
        <time>2023-05-19T10:16:39Z</time>
      </trkpt>
      <trkpt lat="44.60253" lon="5.90779">
        <ele>1319</ele>
        <time>2023-05-19T10:16:44Z</time>
      </trkpt>
      <trkpt lat="44.60255" lon="5.9078">
        <ele>1319</ele>
        <time>2023-05-19T10:16:45Z</time>
      </trkpt>
      <trkpt lat="44.6027" lon="5.90785">
        <ele>1318.6</ele>
        <time>2023-05-19T10:16:51Z</time>
      </trkpt>
      <trkpt lat="44.60284" lon="5.90786">
        <ele>1318.6</ele>
        <time>2023-05-19T10:16:56Z</time>
      </trkpt>
      <trkpt lat="44.60289" lon="5.9079">
        <ele>1318.4</ele>
        <time>2023-05-19T10:16:58Z</time>
      </trkpt>
      <trkpt lat="44.60292" lon="5.90794">
        <ele>1318.4</ele>
        <time>2023-05-19T10:16:59Z</time>
      </trkpt>
      <trkpt lat="44.60293" lon="5.90798">
        <ele>1318.4</ele>
        <time>2023-05-19T10:17:00Z</time>
      </trkpt>
      <trkpt lat="44.60295" lon="5.90801">
        <ele>1318.4</ele>
        <time>2023-05-19T10:17:01Z</time>
      </trkpt>
      <trkpt lat="44.60296" lon="5.90804">
        <ele>1318.4</ele>
        <time>2023-05-19T10:17:02Z</time>
      </trkpt>
      <trkpt lat="44.60296" lon="5.90807">
        <ele>1318.4</ele>
        <time>2023-05-19T10:17:03Z</time>
      </trkpt>
      <trkpt lat="44.60297" lon="5.9081">
        <ele>1318.4</ele>
        <time>2023-05-19T10:17:04Z</time>
      </trkpt>
      <trkpt lat="44.60298" lon="5.90814">
        <ele>1318.4</ele>
        <time>2023-05-19T10:17:05Z</time>
      </trkpt>
      <trkpt lat="44.60299" lon="5.90819">
        <ele>1318.4</ele>
        <time>2023-05-19T10:17:06Z</time>
      </trkpt>
      <trkpt lat="44.60303" lon="5.90825">
        <ele>1318.4</ele>
        <time>2023-05-19T10:17:08Z</time>
      </trkpt>
      <trkpt lat="44.60304" lon="5.90827">
        <ele>1318.4</ele>
        <time>2023-05-19T10:17:09Z</time>
      </trkpt>
      <trkpt lat="44.60305" lon="5.9083">
        <ele>1318.4</ele>
        <time>2023-05-19T10:17:10Z</time>
      </trkpt>
      <trkpt lat="44.60305" lon="5.90833">
        <ele>1318.4</ele>
        <time>2023-05-19T10:17:11Z</time>
      </trkpt>
      <trkpt lat="44.60305" lon="5.90836">
        <ele>1318.4</ele>
        <time>2023-05-19T10:17:12Z</time>
      </trkpt>
      <trkpt lat="44.60305" lon="5.90837">
        <ele>1318.4</ele>
        <time>2023-05-19T10:17:13Z</time>
      </trkpt>
      <trkpt lat="44.60306" lon="5.90839">
        <ele>1318.6</ele>
        <time>2023-05-19T10:17:14Z</time>
      </trkpt>
      <trkpt lat="44.60306" lon="5.90841">
        <ele>1318.6</ele>
        <time>2023-05-19T10:17:15Z</time>
      </trkpt>
      <trkpt lat="44.60306" lon="5.90843">
        <ele>1318.6</ele>
        <time>2023-05-19T10:17:16Z</time>
      </trkpt>
      <trkpt lat="44.60307" lon="5.90845">
        <ele>1318.6</ele>
        <time>2023-05-19T10:17:17Z</time>
      </trkpt>
      <trkpt lat="44.60307" lon="5.90848">
        <ele>1318.6</ele>
        <time>2023-05-19T10:17:18Z</time>
      </trkpt>
      <trkpt lat="44.60308" lon="5.9085">
        <ele>1318.6</ele>
        <time>2023-05-19T10:17:19Z</time>
      </trkpt>
      <trkpt lat="44.60308" lon="5.90853">
        <ele>1318.4</ele>
        <time>2023-05-19T10:17:20Z</time>
      </trkpt>
      <trkpt lat="44.60313" lon="5.90862">
        <ele>1318.4</ele>
        <time>2023-05-19T10:17:24Z</time>
      </trkpt>
      <trkpt lat="44.60314" lon="5.90864">
        <ele>1318.4</ele>
        <time>2023-05-19T10:17:25Z</time>
      </trkpt>
      <trkpt lat="44.60316" lon="5.90865">
        <ele>1318.4</ele>
        <time>2023-05-19T10:17:26Z</time>
      </trkpt>
      <trkpt lat="44.60318" lon="5.90866">
        <ele>1318.4</ele>
        <time>2023-05-19T10:17:27Z</time>
      </trkpt>
      <trkpt lat="44.6032" lon="5.90867">
        <ele>1318.4</ele>
        <time>2023-05-19T10:17:28Z</time>
      </trkpt>
      <trkpt lat="44.6033" lon="5.90871">
        <ele>1318.4</ele>
        <time>2023-05-19T10:17:33Z</time>
      </trkpt>
      <trkpt lat="44.60341" lon="5.90874">
        <ele>1318.4</ele>
        <time>2023-05-19T10:17:38Z</time>
      </trkpt>
      <trkpt lat="44.60345" lon="5.9088">
        <ele>1318.4</ele>
        <time>2023-05-19T10:17:40Z</time>
      </trkpt>
      <trkpt lat="44.60346" lon="5.90883">
        <ele>1318.4</ele>
        <time>2023-05-19T10:17:41Z</time>
      </trkpt>
      <trkpt lat="44.60348" lon="5.90888">
        <ele>1318.4</ele>
        <time>2023-05-19T10:17:43Z</time>
      </trkpt>
      <trkpt lat="44.60349" lon="5.9089">
        <ele>1318.4</ele>
        <time>2023-05-19T10:17:44Z</time>
      </trkpt>
      <trkpt lat="44.6035" lon="5.90893">
        <ele>1318.4</ele>
        <time>2023-05-19T10:17:45Z</time>
      </trkpt>
      <trkpt lat="44.60351" lon="5.90895">
        <ele>1318.4</ele>
        <time>2023-05-19T10:17:46Z</time>
      </trkpt>
      <trkpt lat="44.60352" lon="5.90898">
        <ele>1318.6</ele>
        <time>2023-05-19T10:17:47Z</time>
      </trkpt>
      <trkpt lat="44.60353" lon="5.909">
        <ele>1318.6</ele>
        <time>2023-05-19T10:17:48Z</time>
      </trkpt>
      <trkpt lat="44.60353" lon="5.90903">
        <ele>1318.6</ele>
        <time>2023-05-19T10:17:49Z</time>
      </trkpt>
      <trkpt lat="44.60354" lon="5.90906">
        <ele>1318.6</ele>
        <time>2023-05-19T10:17:50Z</time>
      </trkpt>
      <trkpt lat="44.60356" lon="5.90909">
        <ele>1318.4</ele>
        <time>2023-05-19T10:17:51Z</time>
      </trkpt>
      <trkpt lat="44.60358" lon="5.90911">
        <ele>1318.4</ele>
        <time>2023-05-19T10:17:52Z</time>
      </trkpt>
      <trkpt lat="44.6036" lon="5.90913">
        <ele>1318.4</ele>
        <time>2023-05-19T10:17:53Z</time>
      </trkpt>
      <trkpt lat="44.60362" lon="5.90916">
        <ele>1318.4</ele>
        <time>2023-05-19T10:17:54Z</time>
      </trkpt>
      <trkpt lat="44.60369" lon="5.90923">
        <ele>1318.4</ele>
        <time>2023-05-19T10:17:57Z</time>
      </trkpt>
      <trkpt lat="44.60389" lon="5.90947">
        <ele>1318.6</ele>
        <time>2023-05-19T10:18:05Z</time>
      </trkpt>
      <trkpt lat="44.6039" lon="5.90949">
        <ele>1318.6</ele>
        <time>2023-05-19T10:18:07Z</time>
      </trkpt>
      <trkpt lat="44.60391" lon="5.9095">
        <ele>1318.6</ele>
        <time>2023-05-19T10:18:08Z</time>
      </trkpt>
      <trkpt lat="44.60393" lon="5.9095">
        <ele>1318.6</ele>
        <time>2023-05-19T10:18:09Z</time>
      </trkpt>
      <trkpt lat="44.60395" lon="5.90952">
        <ele>1318.6</ele>
        <time>2023-05-19T10:18:10Z</time>
      </trkpt>
      <trkpt lat="44.60396" lon="5.90954">
        <ele>1318.6</ele>
        <time>2023-05-19T10:18:11Z</time>
      </trkpt>
      <trkpt lat="44.60398" lon="5.90956">
        <ele>1318.6</ele>
        <time>2023-05-19T10:18:12Z</time>
      </trkpt>
      <trkpt lat="44.604" lon="5.90959">
        <ele>1318.6</ele>
        <time>2023-05-19T10:18:13Z</time>
      </trkpt>
      <trkpt lat="44.60401" lon="5.90961">
        <ele>1318.6</ele>
        <time>2023-05-19T10:18:14Z</time>
      </trkpt>
      <trkpt lat="44.60403" lon="5.90965">
        <ele>1318.6</ele>
        <time>2023-05-19T10:18:15Z</time>
      </trkpt>
      <trkpt lat="44.60405" lon="5.90968">
        <ele>1318.6</ele>
        <time>2023-05-19T10:18:16Z</time>
      </trkpt>
      <trkpt lat="44.60406" lon="5.9097">
        <ele>1318.6</ele>
        <time>2023-05-19T10:18:17Z</time>
      </trkpt>
      <trkpt lat="44.60409" lon="5.90975">
        <ele>1318.6</ele>
        <time>2023-05-19T10:18:19Z</time>
      </trkpt>
      <trkpt lat="44.60412" lon="5.90979">
        <ele>1318.4</ele>
        <time>2023-05-19T10:18:21Z</time>
      </trkpt>
      <trkpt lat="44.60413" lon="5.9098">
        <ele>1318.4</ele>
        <time>2023-05-19T10:18:22Z</time>
      </trkpt>
      <trkpt lat="44.60415" lon="5.90982">
        <ele>1318.4</ele>
        <time>2023-05-19T10:18:23Z</time>
      </trkpt>
      <trkpt lat="44.60418" lon="5.90986">
        <ele>1318.4</ele>
        <time>2023-05-19T10:18:24Z</time>
      </trkpt>
      <trkpt lat="44.60419" lon="5.9099">
        <ele>1318.4</ele>
        <time>2023-05-19T10:18:25Z</time>
      </trkpt>
      <trkpt lat="44.60421" lon="5.90993">
        <ele>1318.4</ele>
        <time>2023-05-19T10:18:26Z</time>
      </trkpt>
      <trkpt lat="44.60423" lon="5.90995">
        <ele>1318.4</ele>
        <time>2023-05-19T10:18:27Z</time>
      </trkpt>
      <trkpt lat="44.60425" lon="5.90998">
        <ele>1318.4</ele>
        <time>2023-05-19T10:18:28Z</time>
      </trkpt>
      <trkpt lat="44.60425" lon="5.91002">
        <ele>1318.4</ele>
        <time>2023-05-19T10:18:29Z</time>
      </trkpt>
      <trkpt lat="44.60426" lon="5.91005">
        <ele>1318.4</ele>
        <time>2023-05-19T10:18:30Z</time>
      </trkpt>
      <trkpt lat="44.60426" lon="5.91009">
        <ele>1318.4</ele>
        <time>2023-05-19T10:18:31Z</time>
      </trkpt>
      <trkpt lat="44.60427" lon="5.91013">
        <ele>1318.4</ele>
        <time>2023-05-19T10:18:32Z</time>
      </trkpt>
      <trkpt lat="44.60428" lon="5.91033">
        <ele>1318.4</ele>
        <time>2023-05-19T10:18:39Z</time>
      </trkpt>
      <trkpt lat="44.60427" lon="5.91034">
        <ele>1318.4</ele>
        <time>2023-05-19T10:18:40Z</time>
      </trkpt>
      <trkpt lat="44.60426" lon="5.91036">
        <ele>1318.4</ele>
        <time>2023-05-19T10:18:41Z</time>
      </trkpt>
      <trkpt lat="44.60425" lon="5.91037">
        <ele>1318.4</ele>
        <time>2023-05-19T10:18:42Z</time>
      </trkpt>
      <trkpt lat="44.60424" lon="5.91038">
        <ele>1318.4</ele>
        <time>2023-05-19T10:18:43Z</time>
      </trkpt>
      <trkpt lat="44.60424" lon="5.9104">
        <ele>1318.4</ele>
        <time>2023-05-19T10:18:44Z</time>
      </trkpt>
      <trkpt lat="44.60425" lon="5.9104">
        <ele>1318.6</ele>
        <time>2023-05-19T10:18:45Z</time>
      </trkpt>
      <trkpt lat="44.60426" lon="5.91039">
        <ele>1318.6</ele>
        <time>2023-05-19T10:18:46Z</time>
      </trkpt>
      <trkpt lat="44.60427" lon="5.91037">
        <ele>1318.6</ele>
        <time>2023-05-19T10:18:47Z</time>
      </trkpt>
      <trkpt lat="44.60427" lon="5.91036">
        <ele>1318.6</ele>
        <time>2023-05-19T10:18:48Z</time>
      </trkpt>
      <trkpt lat="44.60427" lon="5.91034">
        <ele>1318.6</ele>
        <time>2023-05-19T10:18:49Z</time>
      </trkpt>
      <trkpt lat="44.60428" lon="5.91032">
        <ele>1318.6</ele>
        <time>2023-05-19T10:18:50Z</time>
      </trkpt>
      <trkpt lat="44.60428" lon="5.9103">
        <ele>1318.6</ele>
        <time>2023-05-19T10:18:51Z</time>
      </trkpt>
      <trkpt lat="44.6043" lon="5.91024">
        <ele>1318.4</ele>
        <time>2023-05-19T10:18:54Z</time>
      </trkpt>
      <trkpt lat="44.6043" lon="5.91022">
        <ele>1318.4</ele>
        <time>2023-05-19T10:18:55Z</time>
      </trkpt>
      <trkpt lat="44.60428" lon="5.91023">
        <ele>1318.4</ele>
        <time>2023-05-19T10:18:58Z</time>
      </trkpt>
      <trkpt lat="44.60428" lon="5.91025">
        <ele>1318.2</ele>
        <time>2023-05-19T10:18:59Z</time>
      </trkpt>
      <trkpt lat="44.60428" lon="5.9103">
        <ele>1318.2</ele>
        <time>2023-05-19T10:19:01Z</time>
      </trkpt>
      <trkpt lat="44.60427" lon="5.91034">
        <ele>1318.2</ele>
        <time>2023-05-19T10:19:03Z</time>
      </trkpt>
      <trkpt lat="44.60427" lon="5.91035">
        <ele>1318.2</ele>
        <time>2023-05-19T10:19:04Z</time>
      </trkpt>
      <trkpt lat="44.60426" lon="5.91036">
        <ele>1318.2</ele>
        <time>2023-05-19T10:19:05Z</time>
      </trkpt>
      <trkpt lat="44.60425" lon="5.91038">
        <ele>1318.2</ele>
        <time>2023-05-19T10:19:06Z</time>
      </trkpt>
      <trkpt lat="44.60425" lon="5.9104">
        <ele>1318</ele>
        <time>2023-05-19T10:19:07Z</time>
      </trkpt>
      <trkpt lat="44.60425" lon="5.91041">
        <ele>1318</ele>
        <time>2023-05-19T10:19:08Z</time>
      </trkpt>
      <trkpt lat="44.60426" lon="5.91041">
        <ele>1318.2</ele>
        <time>2023-05-19T10:19:09Z</time>
      </trkpt>
      <trkpt lat="44.60427" lon="5.9104">
        <ele>1318.2</ele>
        <time>2023-05-19T10:19:10Z</time>
      </trkpt>
      <trkpt lat="44.6043" lon="5.91029">
        <ele>1318.2</ele>
        <time>2023-05-19T10:19:16Z</time>
      </trkpt>
      <trkpt lat="44.6043" lon="5.91025">
        <ele>1318</ele>
        <time>2023-05-19T10:19:19Z</time>
      </trkpt>
      <trkpt lat="44.60429" lon="5.91024">
        <ele>1318</ele>
        <time>2023-05-19T10:19:20Z</time>
      </trkpt>
      <trkpt lat="44.60428" lon="5.91025">
        <ele>1318</ele>
        <time>2023-05-19T10:19:21Z</time>
      </trkpt>
      <trkpt lat="44.60428" lon="5.91032">
        <ele>1318</ele>
        <time>2023-05-19T10:19:24Z</time>
      </trkpt>
      <trkpt lat="44.60428" lon="5.91033">
        <ele>1318</ele>
        <time>2023-05-19T10:19:25Z</time>
      </trkpt>
      <trkpt lat="44.60428" lon="5.91035">
        <ele>1318</ele>
        <time>2023-05-19T10:19:26Z</time>
      </trkpt>
      <trkpt lat="44.60427" lon="5.91036">
        <ele>1317.8</ele>
        <time>2023-05-19T10:19:27Z</time>
      </trkpt>
      <trkpt lat="44.60427" lon="5.91038">
        <ele>1317.8</ele>
        <time>2023-05-19T10:19:28Z</time>
      </trkpt>
      <trkpt lat="44.60427" lon="5.9104">
        <ele>1318</ele>
        <time>2023-05-19T10:19:29Z</time>
      </trkpt>
      <trkpt lat="44.60425" lon="5.91045">
        <ele>1318</ele>
        <time>2023-05-19T10:19:32Z</time>
      </trkpt>
      <trkpt lat="44.60423" lon="5.91047">
        <ele>1317.8</ele>
        <time>2023-05-19T10:19:33Z</time>
      </trkpt>
      <trkpt lat="44.60422" lon="5.91048">
        <ele>1317.8</ele>
        <time>2023-05-19T10:19:34Z</time>
      </trkpt>
      <trkpt lat="44.6042" lon="5.91049">
        <ele>1317.8</ele>
        <time>2023-05-19T10:19:35Z</time>
      </trkpt>
      <trkpt lat="44.60418" lon="5.91049">
        <ele>1318</ele>
        <time>2023-05-19T10:19:36Z</time>
      </trkpt>
      <trkpt lat="44.60417" lon="5.91049">
        <ele>1318</ele>
        <time>2023-05-19T10:19:37Z</time>
      </trkpt>
      <trkpt lat="44.60415" lon="5.91048">
        <ele>1318</ele>
        <time>2023-05-19T10:19:38Z</time>
      </trkpt>
      <trkpt lat="44.60413" lon="5.91048">
        <ele>1318.2</ele>
        <time>2023-05-19T10:19:39Z</time>
      </trkpt>
      <trkpt lat="44.60402" lon="5.91048">
        <ele>1318.4</ele>
        <time>2023-05-19T10:19:44Z</time>
      </trkpt>
      <trkpt lat="44.60401" lon="5.91048">
        <ele>1318.4</ele>
        <time>2023-05-19T10:19:45Z</time>
      </trkpt>
      <trkpt lat="44.60398" lon="5.91047">
        <ele>1318.4</ele>
        <time>2023-05-19T10:19:48Z</time>
      </trkpt>
      <trkpt lat="44.60398" lon="5.91047">
        <ele>1318.4</ele>
        <time>2023-05-19T10:19:49Z</time>
      </trkpt>
      <trkpt lat="44.60397" lon="5.91047">
        <ele>1318.4</ele>
        <time>2023-05-19T10:19:50Z</time>
      </trkpt>
      <trkpt lat="44.60395" lon="5.91046">
        <ele>1318.4</ele>
        <time>2023-05-19T10:19:51Z</time>
      </trkpt>
      <trkpt lat="44.60394" lon="5.91045">
        <ele>1318.4</ele>
        <time>2023-05-19T10:19:52Z</time>
      </trkpt>
      <trkpt lat="44.60392" lon="5.91045">
        <ele>1318.4</ele>
        <time>2023-05-19T10:19:53Z</time>
      </trkpt>
      <trkpt lat="44.60391" lon="5.91044">
        <ele>1318.4</ele>
        <time>2023-05-19T10:19:54Z</time>
      </trkpt>
      <trkpt lat="44.6039" lon="5.91043">
        <ele>1318.4</ele>
        <time>2023-05-19T10:19:55Z</time>
      </trkpt>
      <trkpt lat="44.60389" lon="5.91042">
        <ele>1318.4</ele>
        <time>2023-05-19T10:19:56Z</time>
      </trkpt>
      <trkpt lat="44.60388" lon="5.91042">
        <ele>1318.4</ele>
        <time>2023-05-19T10:19:57Z</time>
      </trkpt>
      <trkpt lat="44.60388" lon="5.91042">
        <ele>1318.6</ele>
        <time>2023-05-19T10:19:58Z</time>
      </trkpt>
      <trkpt lat="44.60385" lon="5.91041">
        <ele>1318.8</ele>
        <time>2023-05-19T10:20:00Z</time>
      </trkpt>
      <trkpt lat="44.60384" lon="5.91041">
        <ele>1318.8</ele>
        <time>2023-05-19T10:20:01Z</time>
      </trkpt>
      <trkpt lat="44.60382" lon="5.9104">
        <ele>1318.8</ele>
        <time>2023-05-19T10:20:02Z</time>
      </trkpt>
      <trkpt lat="44.6038" lon="5.9104">
        <ele>1319</ele>
        <time>2023-05-19T10:20:03Z</time>
      </trkpt>
      <trkpt lat="44.60378" lon="5.91039">
        <ele>1319</ele>
        <time>2023-05-19T10:20:04Z</time>
      </trkpt>
      <trkpt lat="44.60368" lon="5.91039">
        <ele>1319</ele>
        <time>2023-05-19T10:20:09Z</time>
      </trkpt>
      <trkpt lat="44.60361" lon="5.91036">
        <ele>1319.2</ele>
        <time>2023-05-19T10:20:12Z</time>
      </trkpt>
      <trkpt lat="44.6036" lon="5.91035">
        <ele>1319.4</ele>
        <time>2023-05-19T10:20:13Z</time>
      </trkpt>
      <trkpt lat="44.60358" lon="5.91035">
        <ele>1319.4</ele>
        <time>2023-05-19T10:20:14Z</time>
      </trkpt>
      <trkpt lat="44.60356" lon="5.91034">
        <ele>1319.4</ele>
        <time>2023-05-19T10:20:15Z</time>
      </trkpt>
      <trkpt lat="44.60352" lon="5.91034">
        <ele>1319.6</ele>
        <time>2023-05-19T10:20:17Z</time>
      </trkpt>
      <trkpt lat="44.6035" lon="5.91033">
        <ele>1319.8</ele>
        <time>2023-05-19T10:20:18Z</time>
      </trkpt>
      <trkpt lat="44.60347" lon="5.91033">
        <ele>1319.8</ele>
        <time>2023-05-19T10:20:19Z</time>
      </trkpt>
      <trkpt lat="44.60342" lon="5.91031">
        <ele>1320</ele>
        <time>2023-05-19T10:20:21Z</time>
      </trkpt>
      <trkpt lat="44.6034" lon="5.9103">
        <ele>1320.2</ele>
        <time>2023-05-19T10:20:22Z</time>
      </trkpt>
      <trkpt lat="44.60338" lon="5.9103">
        <ele>1320.2</ele>
        <time>2023-05-19T10:20:23Z</time>
      </trkpt>
      <trkpt lat="44.60335" lon="5.9103">
        <ele>1320.4</ele>
        <time>2023-05-19T10:20:24Z</time>
      </trkpt>
      <trkpt lat="44.60334" lon="5.91029">
        <ele>1320.4</ele>
        <time>2023-05-19T10:20:25Z</time>
      </trkpt>
      <trkpt lat="44.60332" lon="5.91028">
        <ele>1320.6</ele>
        <time>2023-05-19T10:20:26Z</time>
      </trkpt>
      <trkpt lat="44.6033" lon="5.91028">
        <ele>1320.8</ele>
        <time>2023-05-19T10:20:27Z</time>
      </trkpt>
      <trkpt lat="44.60326" lon="5.9103">
        <ele>1321</ele>
        <time>2023-05-19T10:20:29Z</time>
      </trkpt>
      <trkpt lat="44.60324" lon="5.91031">
        <ele>1321</ele>
        <time>2023-05-19T10:20:30Z</time>
      </trkpt>
      <trkpt lat="44.60321" lon="5.91031">
        <ele>1321.2</ele>
        <time>2023-05-19T10:20:31Z</time>
      </trkpt>
      <trkpt lat="44.60319" lon="5.91032">
        <ele>1321.2</ele>
        <time>2023-05-19T10:20:32Z</time>
      </trkpt>
      <trkpt lat="44.60318" lon="5.91033">
        <ele>1321.2</ele>
        <time>2023-05-19T10:20:33Z</time>
      </trkpt>
      <trkpt lat="44.60311" lon="5.91034">
        <ele>1321.4</ele>
        <time>2023-05-19T10:20:36Z</time>
      </trkpt>
      <trkpt lat="44.60304" lon="5.91035">
        <ele>1321.8</ele>
        <time>2023-05-19T10:20:39Z</time>
      </trkpt>
      <trkpt lat="44.60302" lon="5.91035">
        <ele>1321.8</ele>
        <time>2023-05-19T10:20:40Z</time>
      </trkpt>
      <trkpt lat="44.603" lon="5.91033">
        <ele>1322</ele>
        <time>2023-05-19T10:20:41Z</time>
      </trkpt>
      <trkpt lat="44.60298" lon="5.91032">
        <ele>1322</ele>
        <time>2023-05-19T10:20:42Z</time>
      </trkpt>
      <trkpt lat="44.60297" lon="5.91032">
        <ele>1322</ele>
        <time>2023-05-19T10:20:43Z</time>
      </trkpt>
      <trkpt lat="44.60293" lon="5.91032">
        <ele>1322.2</ele>
        <time>2023-05-19T10:20:45Z</time>
      </trkpt>
      <trkpt lat="44.60291" lon="5.91032">
        <ele>1322.4</ele>
        <time>2023-05-19T10:20:46Z</time>
      </trkpt>
      <trkpt lat="44.60288" lon="5.91032">
        <ele>1322.6</ele>
        <time>2023-05-19T10:20:48Z</time>
      </trkpt>
      <trkpt lat="44.60286" lon="5.91032">
        <ele>1322.8</ele>
        <time>2023-05-19T10:20:49Z</time>
      </trkpt>
      <trkpt lat="44.60284" lon="5.91032">
        <ele>1322.8</ele>
        <time>2023-05-19T10:20:50Z</time>
      </trkpt>
      <trkpt lat="44.60282" lon="5.91031">
        <ele>1322.8</ele>
        <time>2023-05-19T10:20:51Z</time>
      </trkpt>
      <trkpt lat="44.6028" lon="5.91031">
        <ele>1323</ele>
        <time>2023-05-19T10:20:52Z</time>
      </trkpt>
      <trkpt lat="44.60278" lon="5.91031">
        <ele>1323.2</ele>
        <time>2023-05-19T10:20:53Z</time>
      </trkpt>
      <trkpt lat="44.60276" lon="5.91031">
        <ele>1323.4</ele>
        <time>2023-05-19T10:20:54Z</time>
      </trkpt>
      <trkpt lat="44.60274" lon="5.91031">
        <ele>1323.4</ele>
        <time>2023-05-19T10:20:55Z</time>
      </trkpt>
      <trkpt lat="44.60264" lon="5.9103">
        <ele>1323.8</ele>
        <time>2023-05-19T10:21:00Z</time>
      </trkpt>
      <trkpt lat="44.60262" lon="5.9103">
        <ele>1324</ele>
        <time>2023-05-19T10:21:01Z</time>
      </trkpt>
      <trkpt lat="44.60251" lon="5.9103">
        <ele>1324.6</ele>
        <time>2023-05-19T10:21:07Z</time>
      </trkpt>
      <trkpt lat="44.60248" lon="5.9103">
        <ele>1324.8</ele>
        <time>2023-05-19T10:21:09Z</time>
      </trkpt>
      <trkpt lat="44.6024" lon="5.91029">
        <ele>1325</ele>
        <time>2023-05-19T10:21:13Z</time>
      </trkpt>
      <trkpt lat="44.60238" lon="5.9103">
        <ele>1325.2</ele>
        <time>2023-05-19T10:21:14Z</time>
      </trkpt>
      <trkpt lat="44.60237" lon="5.9103">
        <ele>1325.2</ele>
        <time>2023-05-19T10:21:15Z</time>
      </trkpt>
      <trkpt lat="44.60231" lon="5.91028">
        <ele>1325.4</ele>
        <time>2023-05-19T10:21:18Z</time>
      </trkpt>
      <trkpt lat="44.6023" lon="5.91027">
        <ele>1325.4</ele>
        <time>2023-05-19T10:21:19Z</time>
      </trkpt>
      <trkpt lat="44.60228" lon="5.91028">
        <ele>1325.4</ele>
        <time>2023-05-19T10:21:20Z</time>
      </trkpt>
      <trkpt lat="44.60224" lon="5.91029">
        <ele>1325.8</ele>
        <time>2023-05-19T10:21:22Z</time>
      </trkpt>
      <trkpt lat="44.60222" lon="5.91028">
        <ele>1325.8</ele>
        <time>2023-05-19T10:21:23Z</time>
      </trkpt>
      <trkpt lat="44.60217" lon="5.91027">
        <ele>1326</ele>
        <time>2023-05-19T10:21:26Z</time>
      </trkpt>
      <trkpt lat="44.60215" lon="5.91027">
        <ele>1326</ele>
        <time>2023-05-19T10:21:27Z</time>
      </trkpt>
      <trkpt lat="44.60215" lon="5.91027">
        <ele>1326.2</ele>
        <time>2023-05-19T10:21:28Z</time>
      </trkpt>
      <trkpt lat="44.60214" lon="5.91027">
        <ele>1326.2</ele>
        <time>2023-05-19T10:21:29Z</time>
      </trkpt>
      <trkpt lat="44.60214" lon="5.91027">
        <ele>1326.2</ele>
        <time>2023-05-19T10:21:30Z</time>
      </trkpt>
      <trkpt lat="44.60214" lon="5.91026">
        <ele>1326.2</ele>
        <time>2023-05-19T10:21:31Z</time>
      </trkpt>
      <trkpt lat="44.60214" lon="5.91026">
        <ele>1326.4</ele>
        <time>2023-05-19T10:21:32Z</time>
      </trkpt>
      <trkpt lat="44.60214" lon="5.91026">
        <ele>1326.6</ele>
        <time>2023-05-19T10:21:39Z</time>
      </trkpt>
      <trkpt lat="44.60213" lon="5.91025">
        <ele>1326.8</ele>
        <time>2023-05-19T10:21:47Z</time>
      </trkpt>
      <trkpt lat="44.60212" lon="5.91025">
        <ele>1326.8</ele>
        <time>2023-05-19T10:21:48Z</time>
      </trkpt>
      <trkpt lat="44.60211" lon="5.91024">
        <ele>1326.8</ele>
        <time>2023-05-19T10:21:49Z</time>
      </trkpt>
      <trkpt lat="44.60208" lon="5.9102">
        <ele>1326.8</ele>
        <time>2023-05-19T10:21:52Z</time>
      </trkpt>
      <trkpt lat="44.60207" lon="5.9102">
        <ele>1326.8</ele>
        <time>2023-05-19T10:21:53Z</time>
      </trkpt>
      <trkpt lat="44.60205" lon="5.91017">
        <ele>1326.8</ele>
        <time>2023-05-19T10:21:55Z</time>
      </trkpt>
      <trkpt lat="44.60204" lon="5.91016">
        <ele>1326.8</ele>
        <time>2023-05-19T10:21:56Z</time>
      </trkpt>
      <trkpt lat="44.60201" lon="5.91014">
        <ele>1327</ele>
        <time>2023-05-19T10:21:58Z</time>
      </trkpt>
      <trkpt lat="44.60197" lon="5.91012">
        <ele>1327.2</ele>
        <time>2023-05-19T10:22:00Z</time>
      </trkpt>
      <trkpt lat="44.60195" lon="5.91011">
        <ele>1327.4</ele>
        <time>2023-05-19T10:22:01Z</time>
      </trkpt>
      <trkpt lat="44.60187" lon="5.91007">
        <ele>1328.2</ele>
        <time>2023-05-19T10:22:05Z</time>
      </trkpt>
      <trkpt lat="44.60186" lon="5.91006">
        <ele>1328.4</ele>
        <time>2023-05-19T10:22:06Z</time>
      </trkpt>
      <trkpt lat="44.60184" lon="5.91005">
        <ele>1328.6</ele>
        <time>2023-05-19T10:22:08Z</time>
      </trkpt>
      <trkpt lat="44.60182" lon="5.91005">
        <ele>1328.8</ele>
        <time>2023-05-19T10:22:09Z</time>
      </trkpt>
      <trkpt lat="44.60181" lon="5.91004">
        <ele>1329</ele>
        <time>2023-05-19T10:22:10Z</time>
      </trkpt>
      <trkpt lat="44.6018" lon="5.91003">
        <ele>1329.2</ele>
        <time>2023-05-19T10:22:11Z</time>
      </trkpt>
      <trkpt lat="44.60178" lon="5.91002">
        <ele>1329.4</ele>
        <time>2023-05-19T10:22:12Z</time>
      </trkpt>
      <trkpt lat="44.60176" lon="5.91001">
        <ele>1329.6</ele>
        <time>2023-05-19T10:22:13Z</time>
      </trkpt>
      <trkpt lat="44.60175" lon="5.91">
        <ele>1329.6</ele>
        <time>2023-05-19T10:22:14Z</time>
      </trkpt>
      <trkpt lat="44.60173" lon="5.90999">
        <ele>1329.8</ele>
        <time>2023-05-19T10:22:15Z</time>
      </trkpt>
      <trkpt lat="44.60171" lon="5.90998">
        <ele>1330.2</ele>
        <time>2023-05-19T10:22:16Z</time>
      </trkpt>
      <trkpt lat="44.60169" lon="5.90997">
        <ele>1330.2</ele>
        <time>2023-05-19T10:22:17Z</time>
      </trkpt>
      <trkpt lat="44.60168" lon="5.90997">
        <ele>1330.4</ele>
        <time>2023-05-19T10:22:18Z</time>
      </trkpt>
      <trkpt lat="44.60166" lon="5.90996">
        <ele>1330.4</ele>
        <time>2023-05-19T10:22:19Z</time>
      </trkpt>
      <trkpt lat="44.60164" lon="5.90995">
        <ele>1330.6</ele>
        <time>2023-05-19T10:22:20Z</time>
      </trkpt>
      <trkpt lat="44.60163" lon="5.90994">
        <ele>1330.6</ele>
        <time>2023-05-19T10:22:21Z</time>
      </trkpt>
      <trkpt lat="44.60161" lon="5.90993">
        <ele>1330.8</ele>
        <time>2023-05-19T10:22:22Z</time>
      </trkpt>
      <trkpt lat="44.60159" lon="5.90991">
        <ele>1330.8</ele>
        <time>2023-05-19T10:22:23Z</time>
      </trkpt>
      <trkpt lat="44.60158" lon="5.90991">
        <ele>1331</ele>
        <time>2023-05-19T10:22:24Z</time>
      </trkpt>
      <trkpt lat="44.60156" lon="5.9099">
        <ele>1331.2</ele>
        <time>2023-05-19T10:22:25Z</time>
      </trkpt>
      <trkpt lat="44.60155" lon="5.90989">
        <ele>1331.2</ele>
        <time>2023-05-19T10:22:26Z</time>
      </trkpt>
      <trkpt lat="44.60153" lon="5.90987">
        <ele>1331.6</ele>
        <time>2023-05-19T10:22:27Z</time>
      </trkpt>
      <trkpt lat="44.60151" lon="5.90986">
        <ele>1331.6</ele>
        <time>2023-05-19T10:22:28Z</time>
      </trkpt>
      <trkpt lat="44.60149" lon="5.90985">
        <ele>1331.8</ele>
        <time>2023-05-19T10:22:29Z</time>
      </trkpt>
      <trkpt lat="44.60147" lon="5.90985">
        <ele>1332</ele>
        <time>2023-05-19T10:22:30Z</time>
      </trkpt>
      <trkpt lat="44.60145" lon="5.90986">
        <ele>1332.2</ele>
        <time>2023-05-19T10:22:31Z</time>
      </trkpt>
      <trkpt lat="44.60144" lon="5.90986">
        <ele>1332.4</ele>
        <time>2023-05-19T10:22:32Z</time>
      </trkpt>
      <trkpt lat="44.60142" lon="5.90984">
        <ele>1332.6</ele>
        <time>2023-05-19T10:22:33Z</time>
      </trkpt>
      <trkpt lat="44.60139" lon="5.90982">
        <ele>1332.8</ele>
        <time>2023-05-19T10:22:34Z</time>
      </trkpt>
      <trkpt lat="44.60136" lon="5.90982">
        <ele>1332.8</ele>
        <time>2023-05-19T10:22:35Z</time>
      </trkpt>
      <trkpt lat="44.60134" lon="5.9098">
        <ele>1333</ele>
        <time>2023-05-19T10:22:36Z</time>
      </trkpt>
      <trkpt lat="44.60131" lon="5.90979">
        <ele>1333</ele>
        <time>2023-05-19T10:22:37Z</time>
      </trkpt>
      <trkpt lat="44.60128" lon="5.90978">
        <ele>1333.4</ele>
        <time>2023-05-19T10:22:38Z</time>
      </trkpt>
      <trkpt lat="44.60126" lon="5.90977">
        <ele>1333.4</ele>
        <time>2023-05-19T10:22:39Z</time>
      </trkpt>
      <trkpt lat="44.60125" lon="5.90976">
        <ele>1333.6</ele>
        <time>2023-05-19T10:22:40Z</time>
      </trkpt>
      <trkpt lat="44.60124" lon="5.90975">
        <ele>1333.6</ele>
        <time>2023-05-19T10:22:41Z</time>
      </trkpt>
      <trkpt lat="44.60123" lon="5.90975">
        <ele>1333.8</ele>
        <time>2023-05-19T10:22:42Z</time>
      </trkpt>
      <trkpt lat="44.60121" lon="5.90974">
        <ele>1334.2</ele>
        <time>2023-05-19T10:22:43Z</time>
      </trkpt>
      <trkpt lat="44.60119" lon="5.90973">
        <ele>1334.2</ele>
        <time>2023-05-19T10:22:44Z</time>
      </trkpt>
      <trkpt lat="44.60116" lon="5.90973">
        <ele>1334.4</ele>
        <time>2023-05-19T10:22:45Z</time>
      </trkpt>
      <trkpt lat="44.60113" lon="5.90971">
        <ele>1334.6</ele>
        <time>2023-05-19T10:22:46Z</time>
      </trkpt>
      <trkpt lat="44.60111" lon="5.90969">
        <ele>1334.6</ele>
        <time>2023-05-19T10:22:47Z</time>
      </trkpt>
      <trkpt lat="44.6011" lon="5.90969">
        <ele>1334.8</ele>
        <time>2023-05-19T10:22:48Z</time>
      </trkpt>
      <trkpt lat="44.60108" lon="5.90971">
        <ele>1335</ele>
        <time>2023-05-19T10:22:49Z</time>
      </trkpt>
      <trkpt lat="44.60107" lon="5.90972">
        <ele>1335.4</ele>
        <time>2023-05-19T10:22:50Z</time>
      </trkpt>
      <trkpt lat="44.60106" lon="5.90971">
        <ele>1335.6</ele>
        <time>2023-05-19T10:22:51Z</time>
      </trkpt>
      <trkpt lat="44.60104" lon="5.9097">
        <ele>1335.6</ele>
        <time>2023-05-19T10:22:52Z</time>
      </trkpt>
      <trkpt lat="44.60102" lon="5.9097">
        <ele>1335.6</ele>
        <time>2023-05-19T10:22:53Z</time>
      </trkpt>
      <trkpt lat="44.60101" lon="5.90971">
        <ele>1335.8</ele>
        <time>2023-05-19T10:22:54Z</time>
      </trkpt>
      <trkpt lat="44.60099" lon="5.90971">
        <ele>1335.8</ele>
        <time>2023-05-19T10:22:55Z</time>
      </trkpt>
      <trkpt lat="44.60098" lon="5.9097">
        <ele>1336</ele>
        <time>2023-05-19T10:22:56Z</time>
      </trkpt>
      <trkpt lat="44.60096" lon="5.90969">
        <ele>1336</ele>
        <time>2023-05-19T10:22:57Z</time>
      </trkpt>
      <trkpt lat="44.60095" lon="5.90967">
        <ele>1336.2</ele>
        <time>2023-05-19T10:22:58Z</time>
      </trkpt>
      <trkpt lat="44.60094" lon="5.90967">
        <ele>1336.4</ele>
        <time>2023-05-19T10:22:59Z</time>
      </trkpt>
      <trkpt lat="44.60093" lon="5.90967">
        <ele>1336.6</ele>
        <time>2023-05-19T10:23:00Z</time>
      </trkpt>
      <trkpt lat="44.60092" lon="5.90966">
        <ele>1336.8</ele>
        <time>2023-05-19T10:23:01Z</time>
      </trkpt>
      <trkpt lat="44.6009" lon="5.90966">
        <ele>1336.8</ele>
        <time>2023-05-19T10:23:02Z</time>
      </trkpt>
      <trkpt lat="44.60089" lon="5.90965">
        <ele>1337</ele>
        <time>2023-05-19T10:23:03Z</time>
      </trkpt>
      <trkpt lat="44.60088" lon="5.90965">
        <ele>1337.2</ele>
        <time>2023-05-19T10:23:04Z</time>
      </trkpt>
      <trkpt lat="44.60086" lon="5.90964">
        <ele>1337.2</ele>
        <time>2023-05-19T10:23:05Z</time>
      </trkpt>
      <trkpt lat="44.60086" lon="5.90964">
        <ele>1337.4</ele>
        <time>2023-05-19T10:23:06Z</time>
      </trkpt>
      <trkpt lat="44.60085" lon="5.90964">
        <ele>1337.4</ele>
        <time>2023-05-19T10:23:07Z</time>
      </trkpt>
      <trkpt lat="44.60084" lon="5.90963">
        <ele>1337.6</ele>
        <time>2023-05-19T10:23:08Z</time>
      </trkpt>
      <trkpt lat="44.60082" lon="5.90962">
        <ele>1337.8</ele>
        <time>2023-05-19T10:23:09Z</time>
      </trkpt>
      <trkpt lat="44.60082" lon="5.90962">
        <ele>1338</ele>
        <time>2023-05-19T10:23:10Z</time>
      </trkpt>
      <trkpt lat="44.60081" lon="5.90962">
        <ele>1338.2</ele>
        <time>2023-05-19T10:23:11Z</time>
      </trkpt>
      <trkpt lat="44.6008" lon="5.90962">
        <ele>1338.4</ele>
        <time>2023-05-19T10:23:12Z</time>
      </trkpt>
      <trkpt lat="44.6008" lon="5.90962">
        <ele>1338.4</ele>
        <time>2023-05-19T10:23:13Z</time>
      </trkpt>
      <trkpt lat="44.60079" lon="5.90961">
        <ele>1338.6</ele>
        <time>2023-05-19T10:23:14Z</time>
      </trkpt>
      <trkpt lat="44.60077" lon="5.9096">
        <ele>1338.6</ele>
        <time>2023-05-19T10:23:15Z</time>
      </trkpt>
      <trkpt lat="44.60076" lon="5.90959">
        <ele>1338.8</ele>
        <time>2023-05-19T10:23:16Z</time>
      </trkpt>
      <trkpt lat="44.60074" lon="5.90959">
        <ele>1339</ele>
        <time>2023-05-19T10:23:17Z</time>
      </trkpt>
      <trkpt lat="44.60072" lon="5.90959">
        <ele>1339.2</ele>
        <time>2023-05-19T10:23:18Z</time>
      </trkpt>
      <trkpt lat="44.6007" lon="5.9096">
        <ele>1339.2</ele>
        <time>2023-05-19T10:23:19Z</time>
      </trkpt>
      <trkpt lat="44.60069" lon="5.90961">
        <ele>1339.4</ele>
        <time>2023-05-19T10:23:20Z</time>
      </trkpt>
      <trkpt lat="44.60067" lon="5.90961">
        <ele>1339.6</ele>
        <time>2023-05-19T10:23:21Z</time>
      </trkpt>
      <trkpt lat="44.60066" lon="5.90961">
        <ele>1339.6</ele>
        <time>2023-05-19T10:23:22Z</time>
      </trkpt>
      <trkpt lat="44.60064" lon="5.90961">
        <ele>1339.8</ele>
        <time>2023-05-19T10:23:23Z</time>
      </trkpt>
      <trkpt lat="44.60061" lon="5.9096">
        <ele>1339.8</ele>
        <time>2023-05-19T10:23:24Z</time>
      </trkpt>
      <trkpt lat="44.60059" lon="5.9096">
        <ele>1340</ele>
        <time>2023-05-19T10:23:25Z</time>
      </trkpt>
      <trkpt lat="44.60057" lon="5.9096">
        <ele>1340.2</ele>
        <time>2023-05-19T10:23:26Z</time>
      </trkpt>
      <trkpt lat="44.60055" lon="5.9096">
        <ele>1340.2</ele>
        <time>2023-05-19T10:23:27Z</time>
      </trkpt>
      <trkpt lat="44.60053" lon="5.9096">
        <ele>1340.4</ele>
        <time>2023-05-19T10:23:28Z</time>
      </trkpt>
      <trkpt lat="44.60051" lon="5.9096">
        <ele>1340.6</ele>
        <time>2023-05-19T10:23:29Z</time>
      </trkpt>
      <trkpt lat="44.6005" lon="5.90959">
        <ele>1340.8</ele>
        <time>2023-05-19T10:23:30Z</time>
      </trkpt>
      <trkpt lat="44.60047" lon="5.90958">
        <ele>1340.8</ele>
        <time>2023-05-19T10:23:31Z</time>
      </trkpt>
      <trkpt lat="44.60046" lon="5.90959">
        <ele>1341.2</ele>
        <time>2023-05-19T10:23:32Z</time>
      </trkpt>
      <trkpt lat="44.60043" lon="5.90959">
        <ele>1341.2</ele>
        <time>2023-05-19T10:23:33Z</time>
      </trkpt>
      <trkpt lat="44.60041" lon="5.90958">
        <ele>1341.4</ele>
        <time>2023-05-19T10:23:34Z</time>
      </trkpt>
      <trkpt lat="44.6004" lon="5.90958">
        <ele>1341.6</ele>
        <time>2023-05-19T10:23:35Z</time>
      </trkpt>
      <trkpt lat="44.60037" lon="5.90955">
        <ele>1341.6</ele>
        <time>2023-05-19T10:23:36Z</time>
      </trkpt>
      <trkpt lat="44.60035" lon="5.90954">
        <ele>1341.8</ele>
        <time>2023-05-19T10:23:37Z</time>
      </trkpt>
      <trkpt lat="44.60032" lon="5.90952">
        <ele>1341.8</ele>
        <time>2023-05-19T10:23:38Z</time>
      </trkpt>
      <trkpt lat="44.6003" lon="5.90952">
        <ele>1342</ele>
        <time>2023-05-19T10:23:39Z</time>
      </trkpt>
      <trkpt lat="44.60028" lon="5.90952">
        <ele>1342</ele>
        <time>2023-05-19T10:23:40Z</time>
      </trkpt>
      <trkpt lat="44.60027" lon="5.90954">
        <ele>1342.2</ele>
        <time>2023-05-19T10:23:41Z</time>
      </trkpt>
      <trkpt lat="44.60026" lon="5.90954">
        <ele>1342.2</ele>
        <time>2023-05-19T10:23:42Z</time>
      </trkpt>
      <trkpt lat="44.60025" lon="5.90954">
        <ele>1342.4</ele>
        <time>2023-05-19T10:23:43Z</time>
      </trkpt>
      <trkpt lat="44.60022" lon="5.90953">
        <ele>1342.4</ele>
        <time>2023-05-19T10:23:44Z</time>
      </trkpt>
      <trkpt lat="44.6002" lon="5.90953">
        <ele>1342.8</ele>
        <time>2023-05-19T10:23:45Z</time>
      </trkpt>
      <trkpt lat="44.60019" lon="5.90952">
        <ele>1343</ele>
        <time>2023-05-19T10:23:46Z</time>
      </trkpt>
      <trkpt lat="44.60017" lon="5.90952">
        <ele>1343.2</ele>
        <time>2023-05-19T10:23:47Z</time>
      </trkpt>
      <trkpt lat="44.60016" lon="5.90952">
        <ele>1343.2</ele>
        <time>2023-05-19T10:23:48Z</time>
      </trkpt>
      <trkpt lat="44.60014" lon="5.90952">
        <ele>1343.4</ele>
        <time>2023-05-19T10:23:49Z</time>
      </trkpt>
      <trkpt lat="44.60013" lon="5.90951">
        <ele>1343.6</ele>
        <time>2023-05-19T10:23:50Z</time>
      </trkpt>
      <trkpt lat="44.60011" lon="5.90951">
        <ele>1343.6</ele>
        <time>2023-05-19T10:23:51Z</time>
      </trkpt>
      <trkpt lat="44.6001" lon="5.90952">
        <ele>1343.8</ele>
        <time>2023-05-19T10:23:52Z</time>
      </trkpt>
      <trkpt lat="44.60008" lon="5.90952">
        <ele>1343.8</ele>
        <time>2023-05-19T10:23:53Z</time>
      </trkpt>
      <trkpt lat="44.60007" lon="5.90952">
        <ele>1344</ele>
        <time>2023-05-19T10:23:54Z</time>
      </trkpt>
      <trkpt lat="44.60006" lon="5.90951">
        <ele>1344.2</ele>
        <time>2023-05-19T10:23:55Z</time>
      </trkpt>
      <trkpt lat="44.60004" lon="5.90951">
        <ele>1344.4</ele>
        <time>2023-05-19T10:23:56Z</time>
      </trkpt>
      <trkpt lat="44.60003" lon="5.90951">
        <ele>1344.4</ele>
        <time>2023-05-19T10:23:57Z</time>
      </trkpt>
      <trkpt lat="44.60001" lon="5.9095">
        <ele>1344.4</ele>
        <time>2023-05-19T10:23:58Z</time>
      </trkpt>
      <trkpt lat="44.6" lon="5.9095">
        <ele>1344.6</ele>
        <time>2023-05-19T10:23:59Z</time>
      </trkpt>
      <trkpt lat="44.59999" lon="5.90949">
        <ele>1344.6</ele>
        <time>2023-05-19T10:24:00Z</time>
      </trkpt>
      <trkpt lat="44.59998" lon="5.90949">
        <ele>1344.8</ele>
        <time>2023-05-19T10:24:01Z</time>
      </trkpt>
      <trkpt lat="44.59996" lon="5.90949">
        <ele>1345</ele>
        <time>2023-05-19T10:24:02Z</time>
      </trkpt>
      <trkpt lat="44.59995" lon="5.90948">
        <ele>1345</ele>
        <time>2023-05-19T10:24:03Z</time>
      </trkpt>
      <trkpt lat="44.59992" lon="5.90948">
        <ele>1345</ele>
        <time>2023-05-19T10:24:04Z</time>
      </trkpt>
      <trkpt lat="44.59991" lon="5.90946">
        <ele>1345.2</ele>
        <time>2023-05-19T10:24:05Z</time>
      </trkpt>
      <trkpt lat="44.5999" lon="5.90945">
        <ele>1345.4</ele>
        <time>2023-05-19T10:24:06Z</time>
      </trkpt>
      <trkpt lat="44.59987" lon="5.90943">
        <ele>1345.6</ele>
        <time>2023-05-19T10:24:07Z</time>
      </trkpt>
      <trkpt lat="44.59985" lon="5.90942">
        <ele>1345.8</ele>
        <time>2023-05-19T10:24:08Z</time>
      </trkpt>
      <trkpt lat="44.59983" lon="5.9094">
        <ele>1346</ele>
        <time>2023-05-19T10:24:09Z</time>
      </trkpt>
      <trkpt lat="44.59981" lon="5.90939">
        <ele>1346</ele>
        <time>2023-05-19T10:24:10Z</time>
      </trkpt>
      <trkpt lat="44.59979" lon="5.90938">
        <ele>1346.2</ele>
        <time>2023-05-19T10:24:11Z</time>
      </trkpt>
      <trkpt lat="44.59978" lon="5.90938">
        <ele>1346.4</ele>
        <time>2023-05-19T10:24:12Z</time>
      </trkpt>
      <trkpt lat="44.59976" lon="5.90938">
        <ele>1346.6</ele>
        <time>2023-05-19T10:24:13Z</time>
      </trkpt>
      <trkpt lat="44.59975" lon="5.90938">
        <ele>1346.8</ele>
        <time>2023-05-19T10:24:14Z</time>
      </trkpt>
      <trkpt lat="44.59973" lon="5.90937">
        <ele>1346.8</ele>
        <time>2023-05-19T10:24:15Z</time>
      </trkpt>
      <trkpt lat="44.59971" lon="5.90936">
        <ele>1346.8</ele>
        <time>2023-05-19T10:24:16Z</time>
      </trkpt>
      <trkpt lat="44.59969" lon="5.90935">
        <ele>1347</ele>
        <time>2023-05-19T10:24:17Z</time>
      </trkpt>
      <trkpt lat="44.59967" lon="5.90935">
        <ele>1347.2</ele>
        <time>2023-05-19T10:24:18Z</time>
      </trkpt>
      <trkpt lat="44.59964" lon="5.90936">
        <ele>1347.2</ele>
        <time>2023-05-19T10:24:19Z</time>
      </trkpt>
      <trkpt lat="44.59962" lon="5.90936">
        <ele>1347.4</ele>
        <time>2023-05-19T10:24:20Z</time>
      </trkpt>
      <trkpt lat="44.5996" lon="5.90935">
        <ele>1347.6</ele>
        <time>2023-05-19T10:24:21Z</time>
      </trkpt>
      <trkpt lat="44.59959" lon="5.90934">
        <ele>1347.6</ele>
        <time>2023-05-19T10:24:22Z</time>
      </trkpt>
      <trkpt lat="44.59957" lon="5.90933">
        <ele>1347.8</ele>
        <time>2023-05-19T10:24:23Z</time>
      </trkpt>
      <trkpt lat="44.59955" lon="5.90933">
        <ele>1348</ele>
        <time>2023-05-19T10:24:24Z</time>
      </trkpt>
      <trkpt lat="44.59953" lon="5.90933">
        <ele>1348.2</ele>
        <time>2023-05-19T10:24:25Z</time>
      </trkpt>
      <trkpt lat="44.59951" lon="5.90936">
        <ele>1348.4</ele>
        <time>2023-05-19T10:24:26Z</time>
      </trkpt>
      <trkpt lat="44.5995" lon="5.90936">
        <ele>1348.4</ele>
        <time>2023-05-19T10:24:27Z</time>
      </trkpt>
      <trkpt lat="44.59949" lon="5.90935">
        <ele>1348.6</ele>
        <time>2023-05-19T10:24:28Z</time>
      </trkpt>
      <trkpt lat="44.59948" lon="5.90934">
        <ele>1348.6</ele>
        <time>2023-05-19T10:24:29Z</time>
      </trkpt>
      <trkpt lat="44.59946" lon="5.90933">
        <ele>1348.8</ele>
        <time>2023-05-19T10:24:30Z</time>
      </trkpt>
      <trkpt lat="44.59943" lon="5.90932">
        <ele>1348.8</ele>
        <time>2023-05-19T10:24:31Z</time>
      </trkpt>
      <trkpt lat="44.59942" lon="5.90932">
        <ele>1349</ele>
        <time>2023-05-19T10:24:32Z</time>
      </trkpt>
      <trkpt lat="44.5994" lon="5.90931">
        <ele>1349.2</ele>
        <time>2023-05-19T10:24:33Z</time>
      </trkpt>
      <trkpt lat="44.59939" lon="5.9093">
        <ele>1349.4</ele>
        <time>2023-05-19T10:24:34Z</time>
      </trkpt>
      <trkpt lat="44.59937" lon="5.90929">
        <ele>1349.6</ele>
        <time>2023-05-19T10:24:35Z</time>
      </trkpt>
      <trkpt lat="44.59936" lon="5.90929">
        <ele>1349.6</ele>
        <time>2023-05-19T10:24:36Z</time>
      </trkpt>
      <trkpt lat="44.59935" lon="5.90928">
        <ele>1349.8</ele>
        <time>2023-05-19T10:24:37Z</time>
      </trkpt>
      <trkpt lat="44.59935" lon="5.90928">
        <ele>1349.8</ele>
        <time>2023-05-19T10:24:38Z</time>
      </trkpt>
      <trkpt lat="44.59933" lon="5.90927">
        <ele>1350</ele>
        <time>2023-05-19T10:24:39Z</time>
      </trkpt>
      <trkpt lat="44.59931" lon="5.90927">
        <ele>1350</ele>
        <time>2023-05-19T10:24:40Z</time>
      </trkpt>
      <trkpt lat="44.5993" lon="5.90927">
        <ele>1350.2</ele>
        <time>2023-05-19T10:24:41Z</time>
      </trkpt>
      <trkpt lat="44.59929" lon="5.90927">
        <ele>1350.6</ele>
        <time>2023-05-19T10:24:42Z</time>
      </trkpt>
      <trkpt lat="44.59928" lon="5.90926">
        <ele>1350.8</ele>
        <time>2023-05-19T10:24:43Z</time>
      </trkpt>
      <trkpt lat="44.59926" lon="5.90925">
        <ele>1350.8</ele>
        <time>2023-05-19T10:24:44Z</time>
      </trkpt>
      <trkpt lat="44.59925" lon="5.90925">
        <ele>1351</ele>
        <time>2023-05-19T10:24:45Z</time>
      </trkpt>
      <trkpt lat="44.59923" lon="5.90925">
        <ele>1351.2</ele>
        <time>2023-05-19T10:24:46Z</time>
      </trkpt>
      <trkpt lat="44.59922" lon="5.90924">
        <ele>1351.4</ele>
        <time>2023-05-19T10:24:47Z</time>
      </trkpt>
      <trkpt lat="44.5992" lon="5.90923">
        <ele>1351.4</ele>
        <time>2023-05-19T10:24:48Z</time>
      </trkpt>
      <trkpt lat="44.59919" lon="5.90923">
        <ele>1351.4</ele>
        <time>2023-05-19T10:24:49Z</time>
      </trkpt>
      <trkpt lat="44.59917" lon="5.90922">
        <ele>1351.6</ele>
        <time>2023-05-19T10:24:50Z</time>
      </trkpt>
      <trkpt lat="44.59915" lon="5.90921">
        <ele>1351.8</ele>
        <time>2023-05-19T10:24:51Z</time>
      </trkpt>
      <trkpt lat="44.59913" lon="5.90921">
        <ele>1352</ele>
        <time>2023-05-19T10:24:52Z</time>
      </trkpt>
      <trkpt lat="44.59912" lon="5.9092">
        <ele>1352</ele>
        <time>2023-05-19T10:24:53Z</time>
      </trkpt>
      <trkpt lat="44.59912" lon="5.90921">
        <ele>1352.2</ele>
        <time>2023-05-19T10:24:54Z</time>
      </trkpt>
      <trkpt lat="44.59912" lon="5.90922">
        <ele>1352.2</ele>
        <time>2023-05-19T10:24:55Z</time>
      </trkpt>
      <trkpt lat="44.59911" lon="5.90922">
        <ele>1352.4</ele>
        <time>2023-05-19T10:24:56Z</time>
      </trkpt>
      <trkpt lat="44.5991" lon="5.90922">
        <ele>1352.6</ele>
        <time>2023-05-19T10:24:57Z</time>
      </trkpt>
      <trkpt lat="44.59909" lon="5.90921">
        <ele>1352.6</ele>
        <time>2023-05-19T10:24:58Z</time>
      </trkpt>
      <trkpt lat="44.59908" lon="5.90921">
        <ele>1353</ele>
        <time>2023-05-19T10:24:59Z</time>
      </trkpt>
      <trkpt lat="44.59906" lon="5.90921">
        <ele>1353.2</ele>
        <time>2023-05-19T10:25:00Z</time>
      </trkpt>
      <trkpt lat="44.59905" lon="5.90922">
        <ele>1353.2</ele>
        <time>2023-05-19T10:25:01Z</time>
      </trkpt>
      <trkpt lat="44.59903" lon="5.90923">
        <ele>1353.2</ele>
        <time>2023-05-19T10:25:02Z</time>
      </trkpt>
      <trkpt lat="44.59901" lon="5.90923">
        <ele>1353.4</ele>
        <time>2023-05-19T10:25:03Z</time>
      </trkpt>
      <trkpt lat="44.599" lon="5.90923">
        <ele>1353.4</ele>
        <time>2023-05-19T10:25:04Z</time>
      </trkpt>
      <trkpt lat="44.59898" lon="5.90922">
        <ele>1353.6</ele>
        <time>2023-05-19T10:25:05Z</time>
      </trkpt>
      <trkpt lat="44.59896" lon="5.90922">
        <ele>1353.8</ele>
        <time>2023-05-19T10:25:06Z</time>
      </trkpt>
      <trkpt lat="44.59894" lon="5.90922">
        <ele>1353.8</ele>
        <time>2023-05-19T10:25:07Z</time>
      </trkpt>
      <trkpt lat="44.59892" lon="5.90921">
        <ele>1354</ele>
        <time>2023-05-19T10:25:08Z</time>
      </trkpt>
      <trkpt lat="44.59889" lon="5.90921">
        <ele>1354</ele>
        <time>2023-05-19T10:25:09Z</time>
      </trkpt>
      <trkpt lat="44.59887" lon="5.9092">
        <ele>1354.2</ele>
        <time>2023-05-19T10:25:10Z</time>
      </trkpt>
      <trkpt lat="44.59886" lon="5.9092">
        <ele>1354.4</ele>
        <time>2023-05-19T10:25:11Z</time>
      </trkpt>
      <trkpt lat="44.59884" lon="5.9092">
        <ele>1354.6</ele>
        <time>2023-05-19T10:25:12Z</time>
      </trkpt>
      <trkpt lat="44.59883" lon="5.9092">
        <ele>1354.8</ele>
        <time>2023-05-19T10:25:13Z</time>
      </trkpt>
      <trkpt lat="44.59882" lon="5.90919">
        <ele>1354.8</ele>
        <time>2023-05-19T10:25:14Z</time>
      </trkpt>
      <trkpt lat="44.59881" lon="5.9092">
        <ele>1355</ele>
        <time>2023-05-19T10:25:15Z</time>
      </trkpt>
      <trkpt lat="44.5988" lon="5.9092">
        <ele>1355.2</ele>
        <time>2023-05-19T10:25:16Z</time>
      </trkpt>
      <trkpt lat="44.5988" lon="5.9092">
        <ele>1355.4</ele>
        <time>2023-05-19T10:25:17Z</time>
      </trkpt>
      <trkpt lat="44.59878" lon="5.90918">
        <ele>1355.4</ele>
        <time>2023-05-19T10:25:18Z</time>
      </trkpt>
      <trkpt lat="44.59876" lon="5.90917">
        <ele>1355.4</ele>
        <time>2023-05-19T10:25:19Z</time>
      </trkpt>
      <trkpt lat="44.59875" lon="5.90916">
        <ele>1355.6</ele>
        <time>2023-05-19T10:25:20Z</time>
      </trkpt>
      <trkpt lat="44.59873" lon="5.90915">
        <ele>1355.6</ele>
        <time>2023-05-19T10:25:21Z</time>
      </trkpt>
      <trkpt lat="44.5987" lon="5.90913">
        <ele>1356</ele>
        <time>2023-05-19T10:25:22Z</time>
      </trkpt>
      <trkpt lat="44.59868" lon="5.90911">
        <ele>1356.2</ele>
        <time>2023-05-19T10:25:23Z</time>
      </trkpt>
      <trkpt lat="44.59866" lon="5.9091">
        <ele>1356.4</ele>
        <time>2023-05-19T10:25:24Z</time>
      </trkpt>
      <trkpt lat="44.59864" lon="5.9091">
        <ele>1356.4</ele>
        <time>2023-05-19T10:25:25Z</time>
      </trkpt>
      <trkpt lat="44.59863" lon="5.9091">
        <ele>1356.6</ele>
        <time>2023-05-19T10:25:26Z</time>
      </trkpt>
      <trkpt lat="44.59862" lon="5.90909">
        <ele>1356.6</ele>
        <time>2023-05-19T10:25:27Z</time>
      </trkpt>
      <trkpt lat="44.5986" lon="5.90908">
        <ele>1356.8</ele>
        <time>2023-05-19T10:25:28Z</time>
      </trkpt>
      <trkpt lat="44.59857" lon="5.90908">
        <ele>1357</ele>
        <time>2023-05-19T10:25:29Z</time>
      </trkpt>
      <trkpt lat="44.59855" lon="5.90908">
        <ele>1357.2</ele>
        <time>2023-05-19T10:25:30Z</time>
      </trkpt>
      <trkpt lat="44.59853" lon="5.90906">
        <ele>1357.6</ele>
        <time>2023-05-19T10:25:31Z</time>
      </trkpt>
      <trkpt lat="44.59851" lon="5.90907">
        <ele>1357.6</ele>
        <time>2023-05-19T10:25:32Z</time>
      </trkpt>
      <trkpt lat="44.59849" lon="5.90907">
        <ele>1357.8</ele>
        <time>2023-05-19T10:25:33Z</time>
      </trkpt>
      <trkpt lat="44.59846" lon="5.90907">
        <ele>1358</ele>
        <time>2023-05-19T10:25:34Z</time>
      </trkpt>
      <trkpt lat="44.59844" lon="5.90907">
        <ele>1358</ele>
        <time>2023-05-19T10:25:35Z</time>
      </trkpt>
      <trkpt lat="44.59844" lon="5.90908">
        <ele>1358.2</ele>
        <time>2023-05-19T10:25:36Z</time>
      </trkpt>
      <trkpt lat="44.59843" lon="5.90909">
        <ele>1358.4</ele>
        <time>2023-05-19T10:25:37Z</time>
      </trkpt>
      <trkpt lat="44.59841" lon="5.9091">
        <ele>1358.6</ele>
        <time>2023-05-19T10:25:38Z</time>
      </trkpt>
      <trkpt lat="44.59839" lon="5.9091">
        <ele>1358.8</ele>
        <time>2023-05-19T10:25:39Z</time>
      </trkpt>
      <trkpt lat="44.59837" lon="5.90909">
        <ele>1358.8</ele>
        <time>2023-05-19T10:25:40Z</time>
      </trkpt>
      <trkpt lat="44.59836" lon="5.9091">
        <ele>1359</ele>
        <time>2023-05-19T10:25:41Z</time>
      </trkpt>
      <trkpt lat="44.59834" lon="5.9091">
        <ele>1359</ele>
        <time>2023-05-19T10:25:42Z</time>
      </trkpt>
      <trkpt lat="44.59832" lon="5.9091">
        <ele>1359</ele>
        <time>2023-05-19T10:25:43Z</time>
      </trkpt>
      <trkpt lat="44.59831" lon="5.90909">
        <ele>1359.2</ele>
        <time>2023-05-19T10:25:44Z</time>
      </trkpt>
      <trkpt lat="44.59829" lon="5.9091">
        <ele>1359.2</ele>
        <time>2023-05-19T10:25:45Z</time>
      </trkpt>
      <trkpt lat="44.59828" lon="5.9091">
        <ele>1359.4</ele>
        <time>2023-05-19T10:25:46Z</time>
      </trkpt>
      <trkpt lat="44.59827" lon="5.90911">
        <ele>1359.4</ele>
        <time>2023-05-19T10:25:47Z</time>
      </trkpt>
      <trkpt lat="44.59825" lon="5.90911">
        <ele>1359.4</ele>
        <time>2023-05-19T10:25:48Z</time>
      </trkpt>
      <trkpt lat="44.59824" lon="5.90911">
        <ele>1359.6</ele>
        <time>2023-05-19T10:25:49Z</time>
      </trkpt>
      <trkpt lat="44.59823" lon="5.90912">
        <ele>1359.8</ele>
        <time>2023-05-19T10:25:50Z</time>
      </trkpt>
      <trkpt lat="44.59821" lon="5.90912">
        <ele>1360</ele>
        <time>2023-05-19T10:25:51Z</time>
      </trkpt>
      <trkpt lat="44.5982" lon="5.90912">
        <ele>1360</ele>
        <time>2023-05-19T10:25:52Z</time>
      </trkpt>
      <trkpt lat="44.59818" lon="5.90913">
        <ele>1360.2</ele>
        <time>2023-05-19T10:25:53Z</time>
      </trkpt>
      <trkpt lat="44.59816" lon="5.90914">
        <ele>1360.4</ele>
        <time>2023-05-19T10:25:54Z</time>
      </trkpt>
      <trkpt lat="44.59814" lon="5.90914">
        <ele>1360.6</ele>
        <time>2023-05-19T10:25:55Z</time>
      </trkpt>
      <trkpt lat="44.59812" lon="5.90914">
        <ele>1360.8</ele>
        <time>2023-05-19T10:25:56Z</time>
      </trkpt>
      <trkpt lat="44.59811" lon="5.90913">
        <ele>1360.8</ele>
        <time>2023-05-19T10:25:57Z</time>
      </trkpt>
      <trkpt lat="44.59809" lon="5.90912">
        <ele>1361.2</ele>
        <time>2023-05-19T10:25:58Z</time>
      </trkpt>
      <trkpt lat="44.59808" lon="5.90911">
        <ele>1361.2</ele>
        <time>2023-05-19T10:25:59Z</time>
      </trkpt>
      <trkpt lat="44.59807" lon="5.90911">
        <ele>1361.8</ele>
        <time>2023-05-19T10:26:00Z</time>
      </trkpt>
      <trkpt lat="44.59805" lon="5.90911">
        <ele>1362</ele>
        <time>2023-05-19T10:26:01Z</time>
      </trkpt>
      <trkpt lat="44.59803" lon="5.90911">
        <ele>1362.2</ele>
        <time>2023-05-19T10:26:02Z</time>
      </trkpt>
      <trkpt lat="44.59801" lon="5.90912">
        <ele>1362.8</ele>
        <time>2023-05-19T10:26:03Z</time>
      </trkpt>
      <trkpt lat="44.59799" lon="5.90912">
        <ele>1362.8</ele>
        <time>2023-05-19T10:26:04Z</time>
      </trkpt>
      <trkpt lat="44.59798" lon="5.90913">
        <ele>1363</ele>
        <time>2023-05-19T10:26:05Z</time>
      </trkpt>
      <trkpt lat="44.59797" lon="5.90913">
        <ele>1363.2</ele>
        <time>2023-05-19T10:26:06Z</time>
      </trkpt>
      <trkpt lat="44.59796" lon="5.90913">
        <ele>1363.2</ele>
        <time>2023-05-19T10:26:07Z</time>
      </trkpt>
      <trkpt lat="44.59795" lon="5.90914">
        <ele>1363.4</ele>
        <time>2023-05-19T10:26:08Z</time>
      </trkpt>
      <trkpt lat="44.59793" lon="5.90915">
        <ele>1363.6</ele>
        <time>2023-05-19T10:26:09Z</time>
      </trkpt>
      <trkpt lat="44.59791" lon="5.90916">
        <ele>1363.6</ele>
        <time>2023-05-19T10:26:10Z</time>
      </trkpt>
      <trkpt lat="44.5979" lon="5.90916">
        <ele>1363.8</ele>
        <time>2023-05-19T10:26:11Z</time>
      </trkpt>
      <trkpt lat="44.59789" lon="5.90917">
        <ele>1364</ele>
        <time>2023-05-19T10:26:12Z</time>
      </trkpt>
      <trkpt lat="44.59787" lon="5.90917">
        <ele>1364.2</ele>
        <time>2023-05-19T10:26:13Z</time>
      </trkpt>
      <trkpt lat="44.59786" lon="5.90917">
        <ele>1364.4</ele>
        <time>2023-05-19T10:26:14Z</time>
      </trkpt>
      <trkpt lat="44.59785" lon="5.90917">
        <ele>1364.4</ele>
        <time>2023-05-19T10:26:15Z</time>
      </trkpt>
      <trkpt lat="44.59783" lon="5.90917">
        <ele>1364.6</ele>
        <time>2023-05-19T10:26:16Z</time>
      </trkpt>
      <trkpt lat="44.59782" lon="5.90917">
        <ele>1364.8</ele>
        <time>2023-05-19T10:26:17Z</time>
      </trkpt>
      <trkpt lat="44.5978" lon="5.90917">
        <ele>1365</ele>
        <time>2023-05-19T10:26:18Z</time>
      </trkpt>
      <trkpt lat="44.59779" lon="5.90916">
        <ele>1365</ele>
        <time>2023-05-19T10:26:19Z</time>
      </trkpt>
      <trkpt lat="44.59778" lon="5.90916">
        <ele>1365.2</ele>
        <time>2023-05-19T10:26:20Z</time>
      </trkpt>
      <trkpt lat="44.59776" lon="5.90916">
        <ele>1365.4</ele>
        <time>2023-05-19T10:26:21Z</time>
      </trkpt>
      <trkpt lat="44.59775" lon="5.90916">
        <ele>1365.4</ele>
        <time>2023-05-19T10:26:22Z</time>
      </trkpt>
      <trkpt lat="44.59773" lon="5.90917">
        <ele>1365.8</ele>
        <time>2023-05-19T10:26:23Z</time>
      </trkpt>
      <trkpt lat="44.59772" lon="5.90917">
        <ele>1365.8</ele>
        <time>2023-05-19T10:26:24Z</time>
      </trkpt>
      <trkpt lat="44.5977" lon="5.90917">
        <ele>1366.2</ele>
        <time>2023-05-19T10:26:25Z</time>
      </trkpt>
      <trkpt lat="44.59768" lon="5.90916">
        <ele>1366.2</ele>
        <time>2023-05-19T10:26:26Z</time>
      </trkpt>
      <trkpt lat="44.59766" lon="5.90916">
        <ele>1366.6</ele>
        <time>2023-05-19T10:26:27Z</time>
      </trkpt>
      <trkpt lat="44.59765" lon="5.90915">
        <ele>1366.8</ele>
        <time>2023-05-19T10:26:28Z</time>
      </trkpt>
      <trkpt lat="44.59763" lon="5.90914">
        <ele>1367</ele>
        <time>2023-05-19T10:26:29Z</time>
      </trkpt>
      <trkpt lat="44.59761" lon="5.90913">
        <ele>1367.2</ele>
        <time>2023-05-19T10:26:30Z</time>
      </trkpt>
      <trkpt lat="44.59759" lon="5.90912">
        <ele>1367.4</ele>
        <time>2023-05-19T10:26:31Z</time>
      </trkpt>
      <trkpt lat="44.59758" lon="5.90912">
        <ele>1367.6</ele>
        <time>2023-05-19T10:26:32Z</time>
      </trkpt>
      <trkpt lat="44.59757" lon="5.90913">
        <ele>1367.6</ele>
        <time>2023-05-19T10:26:33Z</time>
      </trkpt>
      <trkpt lat="44.59754" lon="5.90914">
        <ele>1367.8</ele>
        <time>2023-05-19T10:26:34Z</time>
      </trkpt>
      <trkpt lat="44.59753" lon="5.90915">
        <ele>1368</ele>
        <time>2023-05-19T10:26:35Z</time>
      </trkpt>
      <trkpt lat="44.59752" lon="5.90917">
        <ele>1368.2</ele>
        <time>2023-05-19T10:26:36Z</time>
      </trkpt>
      <trkpt lat="44.5975" lon="5.90917">
        <ele>1368.2</ele>
        <time>2023-05-19T10:26:37Z</time>
      </trkpt>
      <trkpt lat="44.59749" lon="5.90916">
        <ele>1368.6</ele>
        <time>2023-05-19T10:26:38Z</time>
      </trkpt>
      <trkpt lat="44.59746" lon="5.90915">
        <ele>1368.8</ele>
        <time>2023-05-19T10:26:39Z</time>
      </trkpt>
      <trkpt lat="44.59745" lon="5.90916">
        <ele>1368.8</ele>
        <time>2023-05-19T10:26:40Z</time>
      </trkpt>
      <trkpt lat="44.59743" lon="5.90916">
        <ele>1368.8</ele>
        <time>2023-05-19T10:26:41Z</time>
      </trkpt>
      <trkpt lat="44.59742" lon="5.90917">
        <ele>1369</ele>
        <time>2023-05-19T10:26:42Z</time>
      </trkpt>
      <trkpt lat="44.5974" lon="5.90919">
        <ele>1369.2</ele>
        <time>2023-05-19T10:26:43Z</time>
      </trkpt>
      <trkpt lat="44.59738" lon="5.90921">
        <ele>1369.2</ele>
        <time>2023-05-19T10:26:44Z</time>
      </trkpt>
      <trkpt lat="44.59736" lon="5.90923">
        <ele>1369.4</ele>
        <time>2023-05-19T10:26:45Z</time>
      </trkpt>
      <trkpt lat="44.59733" lon="5.90924">
        <ele>1369.6</ele>
        <time>2023-05-19T10:26:46Z</time>
      </trkpt>
      <trkpt lat="44.5973" lon="5.90924">
        <ele>1369.6</ele>
        <time>2023-05-19T10:26:47Z</time>
      </trkpt>
      <trkpt lat="44.59727" lon="5.90924">
        <ele>1369.8</ele>
        <time>2023-05-19T10:26:48Z</time>
      </trkpt>
      <trkpt lat="44.59725" lon="5.90926">
        <ele>1370</ele>
        <time>2023-05-19T10:26:49Z</time>
      </trkpt>
      <trkpt lat="44.59723" lon="5.90928">
        <ele>1370.2</ele>
        <time>2023-05-19T10:26:50Z</time>
      </trkpt>
      <trkpt lat="44.59722" lon="5.90929">
        <ele>1370.4</ele>
        <time>2023-05-19T10:26:51Z</time>
      </trkpt>
      <trkpt lat="44.59721" lon="5.90931">
        <ele>1370.6</ele>
        <time>2023-05-19T10:26:52Z</time>
      </trkpt>
      <trkpt lat="44.5972" lon="5.90933">
        <ele>1370.8</ele>
        <time>2023-05-19T10:26:53Z</time>
      </trkpt>
      <trkpt lat="44.59718" lon="5.90935">
        <ele>1371</ele>
        <time>2023-05-19T10:26:54Z</time>
      </trkpt>
      <trkpt lat="44.59716" lon="5.90935">
        <ele>1371.2</ele>
        <time>2023-05-19T10:26:55Z</time>
      </trkpt>
      <trkpt lat="44.59714" lon="5.90936">
        <ele>1371.2</ele>
        <time>2023-05-19T10:26:56Z</time>
      </trkpt>
      <trkpt lat="44.59713" lon="5.90938">
        <ele>1371.4</ele>
        <time>2023-05-19T10:26:57Z</time>
      </trkpt>
      <trkpt lat="44.59712" lon="5.90939">
        <ele>1371.4</ele>
        <time>2023-05-19T10:26:58Z</time>
      </trkpt>
      <trkpt lat="44.5971" lon="5.90939">
        <ele>1371.4</ele>
        <time>2023-05-19T10:26:59Z</time>
      </trkpt>
      <trkpt lat="44.59709" lon="5.9094">
        <ele>1371.6</ele>
        <time>2023-05-19T10:27:00Z</time>
      </trkpt>
      <trkpt lat="44.59708" lon="5.90941">
        <ele>1371.6</ele>
        <time>2023-05-19T10:27:01Z</time>
      </trkpt>
      <trkpt lat="44.59706" lon="5.90943">
        <ele>1371.6</ele>
        <time>2023-05-19T10:27:02Z</time>
      </trkpt>
      <trkpt lat="44.59705" lon="5.90944">
        <ele>1371.8</ele>
        <time>2023-05-19T10:27:03Z</time>
      </trkpt>
      <trkpt lat="44.59703" lon="5.90946">
        <ele>1371.8</ele>
        <time>2023-05-19T10:27:04Z</time>
      </trkpt>
      <trkpt lat="44.59701" lon="5.90948">
        <ele>1372</ele>
        <time>2023-05-19T10:27:05Z</time>
      </trkpt>
      <trkpt lat="44.59699" lon="5.90949">
        <ele>1372</ele>
        <time>2023-05-19T10:27:06Z</time>
      </trkpt>
      <trkpt lat="44.59697" lon="5.9095">
        <ele>1372</ele>
        <time>2023-05-19T10:27:07Z</time>
      </trkpt>
      <trkpt lat="44.59695" lon="5.90951">
        <ele>1372.2</ele>
        <time>2023-05-19T10:27:08Z</time>
      </trkpt>
      <trkpt lat="44.59693" lon="5.90953">
        <ele>1372.2</ele>
        <time>2023-05-19T10:27:09Z</time>
      </trkpt>
      <trkpt lat="44.59691" lon="5.90954">
        <ele>1372.2</ele>
        <time>2023-05-19T10:27:10Z</time>
      </trkpt>
      <trkpt lat="44.59688" lon="5.90955">
        <ele>1372.2</ele>
        <time>2023-05-19T10:27:11Z</time>
      </trkpt>
      <trkpt lat="44.59686" lon="5.90955">
        <ele>1372.4</ele>
        <time>2023-05-19T10:27:12Z</time>
      </trkpt>
      <trkpt lat="44.59684" lon="5.90955">
        <ele>1372.4</ele>
        <time>2023-05-19T10:27:13Z</time>
      </trkpt>
      <trkpt lat="44.59682" lon="5.90955">
        <ele>1372.6</ele>
        <time>2023-05-19T10:27:14Z</time>
      </trkpt>
      <trkpt lat="44.5968" lon="5.90957">
        <ele>1372.6</ele>
        <time>2023-05-19T10:27:15Z</time>
      </trkpt>
      <trkpt lat="44.59678" lon="5.90959">
        <ele>1372.6</ele>
        <time>2023-05-19T10:27:16Z</time>
      </trkpt>
      <trkpt lat="44.59676" lon="5.90959">
        <ele>1372.6</ele>
        <time>2023-05-19T10:27:17Z</time>
      </trkpt>
      <trkpt lat="44.59674" lon="5.90961">
        <ele>1372.8</ele>
        <time>2023-05-19T10:27:18Z</time>
      </trkpt>
      <trkpt lat="44.59672" lon="5.90962">
        <ele>1373</ele>
        <time>2023-05-19T10:27:19Z</time>
      </trkpt>
      <trkpt lat="44.5967" lon="5.90963">
        <ele>1373</ele>
        <time>2023-05-19T10:27:20Z</time>
      </trkpt>
      <trkpt lat="44.59668" lon="5.90964">
        <ele>1373.2</ele>
        <time>2023-05-19T10:27:21Z</time>
      </trkpt>
      <trkpt lat="44.59666" lon="5.90967">
        <ele>1373.2</ele>
        <time>2023-05-19T10:27:22Z</time>
      </trkpt>
      <trkpt lat="44.59663" lon="5.90971">
        <ele>1373.2</ele>
        <time>2023-05-19T10:27:23Z</time>
      </trkpt>
      <trkpt lat="44.59662" lon="5.90972">
        <ele>1373.4</ele>
        <time>2023-05-19T10:27:24Z</time>
      </trkpt>
      <trkpt lat="44.59659" lon="5.90975">
        <ele>1373.4</ele>
        <time>2023-05-19T10:27:26Z</time>
      </trkpt>
      <trkpt lat="44.59658" lon="5.90977">
        <ele>1373.6</ele>
        <time>2023-05-19T10:27:27Z</time>
      </trkpt>
      <trkpt lat="44.59656" lon="5.90979">
        <ele>1373.6</ele>
        <time>2023-05-19T10:27:28Z</time>
      </trkpt>
      <trkpt lat="44.59655" lon="5.90981">
        <ele>1373.8</ele>
        <time>2023-05-19T10:27:29Z</time>
      </trkpt>
      <trkpt lat="44.59653" lon="5.90983">
        <ele>1374</ele>
        <time>2023-05-19T10:27:30Z</time>
      </trkpt>
      <trkpt lat="44.59649" lon="5.90984">
        <ele>1374.2</ele>
        <time>2023-05-19T10:27:32Z</time>
      </trkpt>
      <trkpt lat="44.59648" lon="5.90984">
        <ele>1374.4</ele>
        <time>2023-05-19T10:27:33Z</time>
      </trkpt>
      <trkpt lat="44.59647" lon="5.90987">
        <ele>1374.4</ele>
        <time>2023-05-19T10:27:34Z</time>
      </trkpt>
      <trkpt lat="44.59645" lon="5.90991">
        <ele>1374.8</ele>
        <time>2023-05-19T10:27:35Z</time>
      </trkpt>
      <trkpt lat="44.59644" lon="5.90995">
        <ele>1375</ele>
        <time>2023-05-19T10:27:36Z</time>
      </trkpt>
      <trkpt lat="44.59642" lon="5.90996">
        <ele>1375.2</ele>
        <time>2023-05-19T10:27:37Z</time>
      </trkpt>
      <trkpt lat="44.59641" lon="5.90997">
        <ele>1375.2</ele>
        <time>2023-05-19T10:27:38Z</time>
      </trkpt>
      <trkpt lat="44.5964" lon="5.90997">
        <ele>1375.2</ele>
        <time>2023-05-19T10:27:39Z</time>
      </trkpt>
      <trkpt lat="44.59639" lon="5.90998">
        <ele>1375.4</ele>
        <time>2023-05-19T10:27:40Z</time>
      </trkpt>
      <trkpt lat="44.59638" lon="5.90999">
        <ele>1375.6</ele>
        <time>2023-05-19T10:27:41Z</time>
      </trkpt>
      <trkpt lat="44.59637" lon="5.90999">
        <ele>1375.8</ele>
        <time>2023-05-19T10:27:42Z</time>
      </trkpt>
      <trkpt lat="44.59635" lon="5.90999">
        <ele>1376</ele>
        <time>2023-05-19T10:27:43Z</time>
      </trkpt>
      <trkpt lat="44.59633" lon="5.90998">
        <ele>1376.2</ele>
        <time>2023-05-19T10:27:44Z</time>
      </trkpt>
      <trkpt lat="44.59631" lon="5.90999">
        <ele>1376.2</ele>
        <time>2023-05-19T10:27:45Z</time>
      </trkpt>
      <trkpt lat="44.5963" lon="5.91">
        <ele>1376.4</ele>
        <time>2023-05-19T10:27:46Z</time>
      </trkpt>
      <trkpt lat="44.59627" lon="5.91001">
        <ele>1376.4</ele>
        <time>2023-05-19T10:27:47Z</time>
      </trkpt>
      <trkpt lat="44.59624" lon="5.91002">
        <ele>1376.6</ele>
        <time>2023-05-19T10:27:48Z</time>
      </trkpt>
      <trkpt lat="44.59623" lon="5.91003">
        <ele>1376.6</ele>
        <time>2023-05-19T10:27:49Z</time>
      </trkpt>
      <trkpt lat="44.59621" lon="5.91004">
        <ele>1376.8</ele>
        <time>2023-05-19T10:27:50Z</time>
      </trkpt>
      <trkpt lat="44.5962" lon="5.91006">
        <ele>1377</ele>
        <time>2023-05-19T10:27:51Z</time>
      </trkpt>
      <trkpt lat="44.59618" lon="5.91007">
        <ele>1377.2</ele>
        <time>2023-05-19T10:27:52Z</time>
      </trkpt>
      <trkpt lat="44.59617" lon="5.91008">
        <ele>1377.4</ele>
        <time>2023-05-19T10:27:53Z</time>
      </trkpt>
      <trkpt lat="44.59614" lon="5.91009">
        <ele>1377.4</ele>
        <time>2023-05-19T10:27:54Z</time>
      </trkpt>
      <trkpt lat="44.59612" lon="5.9101">
        <ele>1377.6</ele>
        <time>2023-05-19T10:27:55Z</time>
      </trkpt>
      <trkpt lat="44.59611" lon="5.9101">
        <ele>1377.8</ele>
        <time>2023-05-19T10:27:56Z</time>
      </trkpt>
      <trkpt lat="44.59609" lon="5.9101">
        <ele>1377.8</ele>
        <time>2023-05-19T10:27:57Z</time>
      </trkpt>
      <trkpt lat="44.59608" lon="5.91011">
        <ele>1378</ele>
        <time>2023-05-19T10:27:58Z</time>
      </trkpt>
      <trkpt lat="44.59606" lon="5.91014">
        <ele>1378.2</ele>
        <time>2023-05-19T10:27:59Z</time>
      </trkpt>
      <trkpt lat="44.59604" lon="5.91015">
        <ele>1378.4</ele>
        <time>2023-05-19T10:28:00Z</time>
      </trkpt>
      <trkpt lat="44.59602" lon="5.91016">
        <ele>1378.4</ele>
        <time>2023-05-19T10:28:01Z</time>
      </trkpt>
      <trkpt lat="44.596" lon="5.91016">
        <ele>1378.6</ele>
        <time>2023-05-19T10:28:02Z</time>
      </trkpt>
      <trkpt lat="44.59599" lon="5.91019">
        <ele>1378.6</ele>
        <time>2023-05-19T10:28:03Z</time>
      </trkpt>
      <trkpt lat="44.59598" lon="5.91019">
        <ele>1378.8</ele>
        <time>2023-05-19T10:28:04Z</time>
      </trkpt>
      <trkpt lat="44.59597" lon="5.91021">
        <ele>1379</ele>
        <time>2023-05-19T10:28:05Z</time>
      </trkpt>
      <trkpt lat="44.59595" lon="5.91022">
        <ele>1379</ele>
        <time>2023-05-19T10:28:06Z</time>
      </trkpt>
      <trkpt lat="44.59593" lon="5.91023">
        <ele>1379.2</ele>
        <time>2023-05-19T10:28:07Z</time>
      </trkpt>
      <trkpt lat="44.59591" lon="5.91024">
        <ele>1379.2</ele>
        <time>2023-05-19T10:28:08Z</time>
      </trkpt>
      <trkpt lat="44.59589" lon="5.91025">
        <ele>1379.4</ele>
        <time>2023-05-19T10:28:09Z</time>
      </trkpt>
      <trkpt lat="44.59588" lon="5.91027">
        <ele>1379.4</ele>
        <time>2023-05-19T10:28:10Z</time>
      </trkpt>
      <trkpt lat="44.59586" lon="5.91028">
        <ele>1379.6</ele>
        <time>2023-05-19T10:28:11Z</time>
      </trkpt>
      <trkpt lat="44.59583" lon="5.91028">
        <ele>1379.6</ele>
        <time>2023-05-19T10:28:12Z</time>
      </trkpt>
      <trkpt lat="44.5958" lon="5.91028">
        <ele>1379.8</ele>
        <time>2023-05-19T10:28:13Z</time>
      </trkpt>
      <trkpt lat="44.59578" lon="5.91029">
        <ele>1380</ele>
        <time>2023-05-19T10:28:14Z</time>
      </trkpt>
      <trkpt lat="44.59578" lon="5.91028">
        <ele>1380.2</ele>
        <time>2023-05-19T10:28:15Z</time>
      </trkpt>
      <trkpt lat="44.59575" lon="5.91029">
        <ele>1380.4</ele>
        <time>2023-05-19T10:28:16Z</time>
      </trkpt>
      <trkpt lat="44.59573" lon="5.91028">
        <ele>1380.6</ele>
        <time>2023-05-19T10:28:17Z</time>
      </trkpt>
      <trkpt lat="44.59571" lon="5.91027">
        <ele>1380.8</ele>
        <time>2023-05-19T10:28:18Z</time>
      </trkpt>
      <trkpt lat="44.5957" lon="5.91027">
        <ele>1380.8</ele>
        <time>2023-05-19T10:28:19Z</time>
      </trkpt>
      <trkpt lat="44.5957" lon="5.91027">
        <ele>1381</ele>
        <time>2023-05-19T10:28:20Z</time>
      </trkpt>
      <trkpt lat="44.59567" lon="5.91027">
        <ele>1381.2</ele>
        <time>2023-05-19T10:28:21Z</time>
      </trkpt>
      <trkpt lat="44.59565" lon="5.91026">
        <ele>1381.2</ele>
        <time>2023-05-19T10:28:22Z</time>
      </trkpt>
      <trkpt lat="44.59563" lon="5.91027">
        <ele>1381.4</ele>
        <time>2023-05-19T10:28:23Z</time>
      </trkpt>
      <trkpt lat="44.5956" lon="5.91027">
        <ele>1381.6</ele>
        <time>2023-05-19T10:28:24Z</time>
      </trkpt>
      <trkpt lat="44.59558" lon="5.91027">
        <ele>1381.6</ele>
        <time>2023-05-19T10:28:25Z</time>
      </trkpt>
      <trkpt lat="44.59556" lon="5.91026">
        <ele>1382</ele>
        <time>2023-05-19T10:28:26Z</time>
      </trkpt>
      <trkpt lat="44.59554" lon="5.91027">
        <ele>1382.4</ele>
        <time>2023-05-19T10:28:27Z</time>
      </trkpt>
      <trkpt lat="44.59553" lon="5.91027">
        <ele>1382.4</ele>
        <time>2023-05-19T10:28:28Z</time>
      </trkpt>
      <trkpt lat="44.59552" lon="5.91028">
        <ele>1382.6</ele>
        <time>2023-05-19T10:28:29Z</time>
      </trkpt>
      <trkpt lat="44.59551" lon="5.91028">
        <ele>1382.6</ele>
        <time>2023-05-19T10:28:30Z</time>
      </trkpt>
      <trkpt lat="44.59551" lon="5.91028">
        <ele>1382.8</ele>
        <time>2023-05-19T10:28:31Z</time>
      </trkpt>
      <trkpt lat="44.59551" lon="5.91028">
        <ele>1382.8</ele>
        <time>2023-05-19T10:28:32Z</time>
      </trkpt>
      <trkpt lat="44.5955" lon="5.91028">
        <ele>1383.2</ele>
        <time>2023-05-19T10:28:33Z</time>
      </trkpt>
      <trkpt lat="44.5955" lon="5.91028">
        <ele>1383.4</ele>
        <time>2023-05-19T10:28:34Z</time>
      </trkpt>
      <trkpt lat="44.59548" lon="5.91027">
        <ele>1383.6</ele>
        <time>2023-05-19T10:28:35Z</time>
      </trkpt>
      <trkpt lat="44.59547" lon="5.91026">
        <ele>1384</ele>
        <time>2023-05-19T10:28:36Z</time>
      </trkpt>
      <trkpt lat="44.59546" lon="5.91026">
        <ele>1384.2</ele>
        <time>2023-05-19T10:28:37Z</time>
      </trkpt>
      <trkpt lat="44.59545" lon="5.91025">
        <ele>1384.2</ele>
        <time>2023-05-19T10:28:38Z</time>
      </trkpt>
      <trkpt lat="44.59544" lon="5.91025">
        <ele>1384.2</ele>
        <time>2023-05-19T10:28:39Z</time>
      </trkpt>
      <trkpt lat="44.59542" lon="5.91025">
        <ele>1384.4</ele>
        <time>2023-05-19T10:28:40Z</time>
      </trkpt>
      <trkpt lat="44.59542" lon="5.91025">
        <ele>1384.4</ele>
        <time>2023-05-19T10:28:41Z</time>
      </trkpt>
      <trkpt lat="44.59542" lon="5.91025">
        <ele>1384.6</ele>
        <time>2023-05-19T10:28:42Z</time>
      </trkpt>
      <trkpt lat="44.59542" lon="5.91025">
        <ele>1384.6</ele>
        <time>2023-05-19T10:28:43Z</time>
      </trkpt>
      <trkpt lat="44.59542" lon="5.91025">
        <ele>1384.8</ele>
        <time>2023-05-19T10:28:45Z</time>
      </trkpt>
      <trkpt lat="44.59542" lon="5.91025">
        <ele>1384.8</ele>
        <time>2023-05-19T10:29:04Z</time>
      </trkpt>
      <trkpt lat="44.59542" lon="5.91025">
        <ele>1384.8</ele>
        <time>2023-05-19T10:29:59Z</time>
      </trkpt>
      <trkpt lat="44.59542" lon="5.91025">
        <ele>1384.2</ele>
        <time>2023-05-19T10:30:21Z</time>
      </trkpt>
      <trkpt lat="44.59542" lon="5.91025">
        <ele>1384.6</ele>
        <time>2023-05-19T10:30:35Z</time>
      </trkpt>
      <trkpt lat="44.59542" lon="5.91025">
        <ele>1384.4</ele>
        <time>2023-05-19T10:30:53Z</time>
      </trkpt>
      <trkpt lat="44.59539" lon="5.91025">
        <ele>1384.6</ele>
        <time>2023-05-19T10:30:58Z</time>
      </trkpt>
      <trkpt lat="44.59537" lon="5.91027">
        <ele>1384.4</ele>
        <time>2023-05-19T10:31:00Z</time>
      </trkpt>
      <trkpt lat="44.59536" lon="5.91027">
        <ele>1384.4</ele>
        <time>2023-05-19T10:31:06Z</time>
      </trkpt>
      <trkpt lat="44.59537" lon="5.91027">
        <ele>1384.8</ele>
        <time>2023-05-19T10:31:18Z</time>
      </trkpt>
      <trkpt lat="44.59537" lon="5.91027">
        <ele>1385.4</ele>
        <time>2023-05-19T10:31:30Z</time>
      </trkpt>
      <trkpt lat="44.59537" lon="5.91027">
        <ele>1385</ele>
        <time>2023-05-19T10:31:38Z</time>
      </trkpt>
      <trkpt lat="44.59537" lon="5.91027">
        <ele>1384.8</ele>
        <time>2023-05-19T10:31:42Z</time>
      </trkpt>
      <trkpt lat="44.59537" lon="5.91029">
        <ele>1385.2</ele>
        <time>2023-05-19T10:31:55Z</time>
      </trkpt>
      <trkpt lat="44.59538" lon="5.91031">
        <ele>1385.2</ele>
        <time>2023-05-19T10:31:56Z</time>
      </trkpt>
      <trkpt lat="44.59538" lon="5.91038">
        <ele>1385.4</ele>
        <time>2023-05-19T10:31:59Z</time>
      </trkpt>
      <trkpt lat="44.59539" lon="5.9104">
        <ele>1385.6</ele>
        <time>2023-05-19T10:32:00Z</time>
      </trkpt>
      <trkpt lat="44.59539" lon="5.91041">
        <ele>1385.6</ele>
        <time>2023-05-19T10:32:01Z</time>
      </trkpt>
      <trkpt lat="44.5954" lon="5.91043">
        <ele>1385.6</ele>
        <time>2023-05-19T10:32:02Z</time>
      </trkpt>
      <trkpt lat="44.59541" lon="5.91044">
        <ele>1385.8</ele>
        <time>2023-05-19T10:32:03Z</time>
      </trkpt>
      <trkpt lat="44.59544" lon="5.91045">
        <ele>1386</ele>
        <time>2023-05-19T10:32:05Z</time>
      </trkpt>
      <trkpt lat="44.59545" lon="5.91045">
        <ele>1386</ele>
        <time>2023-05-19T10:32:06Z</time>
      </trkpt>
      <trkpt lat="44.59546" lon="5.91046">
        <ele>1386.4</ele>
        <time>2023-05-19T10:32:07Z</time>
      </trkpt>
      <trkpt lat="44.59547" lon="5.91046">
        <ele>1386.6</ele>
        <time>2023-05-19T10:32:08Z</time>
      </trkpt>
      <trkpt lat="44.59548" lon="5.91047">
        <ele>1386.8</ele>
        <time>2023-05-19T10:32:09Z</time>
      </trkpt>
      <trkpt lat="44.59549" lon="5.91048">
        <ele>1387</ele>
        <time>2023-05-19T10:32:10Z</time>
      </trkpt>
      <trkpt lat="44.59551" lon="5.91049">
        <ele>1387.4</ele>
        <time>2023-05-19T10:32:12Z</time>
      </trkpt>
      <trkpt lat="44.59552" lon="5.9105">
        <ele>1387.4</ele>
        <time>2023-05-19T10:32:13Z</time>
      </trkpt>
      <trkpt lat="44.59552" lon="5.9105">
        <ele>1387.8</ele>
        <time>2023-05-19T10:32:14Z</time>
      </trkpt>
      <trkpt lat="44.59553" lon="5.91051">
        <ele>1388</ele>
        <time>2023-05-19T10:32:15Z</time>
      </trkpt>
      <trkpt lat="44.59554" lon="5.91051">
        <ele>1388</ele>
        <time>2023-05-19T10:32:16Z</time>
      </trkpt>
      <trkpt lat="44.59555" lon="5.91052">
        <ele>1388.4</ele>
        <time>2023-05-19T10:32:17Z</time>
      </trkpt>
      <trkpt lat="44.59556" lon="5.91053">
        <ele>1388.8</ele>
        <time>2023-05-19T10:32:18Z</time>
      </trkpt>
      <trkpt lat="44.59556" lon="5.91054">
        <ele>1389</ele>
        <time>2023-05-19T10:32:19Z</time>
      </trkpt>
      <trkpt lat="44.59556" lon="5.91054">
        <ele>1389.2</ele>
        <time>2023-05-19T10:32:20Z</time>
      </trkpt>
      <trkpt lat="44.59557" lon="5.91055">
        <ele>1389.4</ele>
        <time>2023-05-19T10:32:21Z</time>
      </trkpt>
      <trkpt lat="44.59558" lon="5.91056">
        <ele>1389.6</ele>
        <time>2023-05-19T10:32:22Z</time>
      </trkpt>
      <trkpt lat="44.59559" lon="5.91057">
        <ele>1389.8</ele>
        <time>2023-05-19T10:32:23Z</time>
      </trkpt>
      <trkpt lat="44.5956" lon="5.91057">
        <ele>1390</ele>
        <time>2023-05-19T10:32:24Z</time>
      </trkpt>
      <trkpt lat="44.59561" lon="5.91057">
        <ele>1390.2</ele>
        <time>2023-05-19T10:32:25Z</time>
      </trkpt>
      <trkpt lat="44.59562" lon="5.91057">
        <ele>1390.4</ele>
        <time>2023-05-19T10:32:26Z</time>
      </trkpt>
      <trkpt lat="44.59563" lon="5.91058">
        <ele>1390.6</ele>
        <time>2023-05-19T10:32:27Z</time>
      </trkpt>
      <trkpt lat="44.59563" lon="5.91059">
        <ele>1391</ele>
        <time>2023-05-19T10:32:28Z</time>
      </trkpt>
      <trkpt lat="44.59564" lon="5.9106">
        <ele>1391</ele>
        <time>2023-05-19T10:32:29Z</time>
      </trkpt>
      <trkpt lat="44.59564" lon="5.9106">
        <ele>1391.2</ele>
        <time>2023-05-19T10:32:30Z</time>
      </trkpt>
      <trkpt lat="44.59565" lon="5.91061">
        <ele>1391.4</ele>
        <time>2023-05-19T10:32:31Z</time>
      </trkpt>
      <trkpt lat="44.59566" lon="5.91062">
        <ele>1391.6</ele>
        <time>2023-05-19T10:32:32Z</time>
      </trkpt>
      <trkpt lat="44.59567" lon="5.91062">
        <ele>1391.6</ele>
        <time>2023-05-19T10:32:33Z</time>
      </trkpt>
      <trkpt lat="44.59568" lon="5.91063">
        <ele>1391.8</ele>
        <time>2023-05-19T10:32:34Z</time>
      </trkpt>
      <trkpt lat="44.59569" lon="5.91065">
        <ele>1392</ele>
        <time>2023-05-19T10:32:35Z</time>
      </trkpt>
      <trkpt lat="44.5957" lon="5.91065">
        <ele>1392.2</ele>
        <time>2023-05-19T10:32:36Z</time>
      </trkpt>
      <trkpt lat="44.5957" lon="5.91065">
        <ele>1392.4</ele>
        <time>2023-05-19T10:32:37Z</time>
      </trkpt>
      <trkpt lat="44.59571" lon="5.91065">
        <ele>1392.4</ele>
        <time>2023-05-19T10:32:38Z</time>
      </trkpt>
      <trkpt lat="44.59571" lon="5.91066">
        <ele>1392.6</ele>
        <time>2023-05-19T10:32:39Z</time>
      </trkpt>
      <trkpt lat="44.59572" lon="5.91066">
        <ele>1392.8</ele>
        <time>2023-05-19T10:32:40Z</time>
      </trkpt>
      <trkpt lat="44.59573" lon="5.91067">
        <ele>1393.2</ele>
        <time>2023-05-19T10:32:41Z</time>
      </trkpt>
      <trkpt lat="44.59574" lon="5.91068">
        <ele>1393.2</ele>
        <time>2023-05-19T10:32:42Z</time>
      </trkpt>
      <trkpt lat="44.59575" lon="5.91068">
        <ele>1393.4</ele>
        <time>2023-05-19T10:32:43Z</time>
      </trkpt>
      <trkpt lat="44.59576" lon="5.91068">
        <ele>1393.6</ele>
        <time>2023-05-19T10:32:44Z</time>
      </trkpt>
      <trkpt lat="44.59577" lon="5.91069">
        <ele>1393.8</ele>
        <time>2023-05-19T10:32:45Z</time>
      </trkpt>
      <trkpt lat="44.59577" lon="5.91069">
        <ele>1393.8</ele>
        <time>2023-05-19T10:32:46Z</time>
      </trkpt>
      <trkpt lat="44.59578" lon="5.9107">
        <ele>1394</ele>
        <time>2023-05-19T10:32:47Z</time>
      </trkpt>
      <trkpt lat="44.5958" lon="5.91071">
        <ele>1394.2</ele>
        <time>2023-05-19T10:32:48Z</time>
      </trkpt>
      <trkpt lat="44.59581" lon="5.91071">
        <ele>1394.2</ele>
        <time>2023-05-19T10:32:49Z</time>
      </trkpt>
      <trkpt lat="44.59582" lon="5.91071">
        <ele>1394.4</ele>
        <time>2023-05-19T10:32:50Z</time>
      </trkpt>
      <trkpt lat="44.59583" lon="5.91071">
        <ele>1394.6</ele>
        <time>2023-05-19T10:32:51Z</time>
      </trkpt>
      <trkpt lat="44.59584" lon="5.91071">
        <ele>1394.6</ele>
        <time>2023-05-19T10:32:52Z</time>
      </trkpt>
      <trkpt lat="44.59585" lon="5.91072">
        <ele>1394.8</ele>
        <time>2023-05-19T10:32:53Z</time>
      </trkpt>
      <trkpt lat="44.59586" lon="5.91072">
        <ele>1395</ele>
        <time>2023-05-19T10:32:54Z</time>
      </trkpt>
      <trkpt lat="44.59587" lon="5.91072">
        <ele>1395.2</ele>
        <time>2023-05-19T10:32:55Z</time>
      </trkpt>
      <trkpt lat="44.59588" lon="5.91073">
        <ele>1395.2</ele>
        <time>2023-05-19T10:32:56Z</time>
      </trkpt>
      <trkpt lat="44.59589" lon="5.91073">
        <ele>1395.4</ele>
        <time>2023-05-19T10:32:57Z</time>
      </trkpt>
      <trkpt lat="44.5959" lon="5.91074">
        <ele>1395.6</ele>
        <time>2023-05-19T10:32:58Z</time>
      </trkpt>
      <trkpt lat="44.59591" lon="5.91074">
        <ele>1395.8</ele>
        <time>2023-05-19T10:32:59Z</time>
      </trkpt>
      <trkpt lat="44.59591" lon="5.91074">
        <ele>1396</ele>
        <time>2023-05-19T10:33:00Z</time>
      </trkpt>
      <trkpt lat="44.59593" lon="5.91074">
        <ele>1396.2</ele>
        <time>2023-05-19T10:33:01Z</time>
      </trkpt>
      <trkpt lat="44.59594" lon="5.91074">
        <ele>1396.2</ele>
        <time>2023-05-19T10:33:02Z</time>
      </trkpt>
      <trkpt lat="44.59595" lon="5.91075">
        <ele>1396.4</ele>
        <time>2023-05-19T10:33:03Z</time>
      </trkpt>
      <trkpt lat="44.59596" lon="5.91074">
        <ele>1396.6</ele>
        <time>2023-05-19T10:33:04Z</time>
      </trkpt>
      <trkpt lat="44.59597" lon="5.91074">
        <ele>1396.8</ele>
        <time>2023-05-19T10:33:05Z</time>
      </trkpt>
      <trkpt lat="44.59598" lon="5.91074">
        <ele>1397</ele>
        <time>2023-05-19T10:33:06Z</time>
      </trkpt>
      <trkpt lat="44.59599" lon="5.91074">
        <ele>1397</ele>
        <time>2023-05-19T10:33:07Z</time>
      </trkpt>
      <trkpt lat="44.596" lon="5.91073">
        <ele>1397.4</ele>
        <time>2023-05-19T10:33:08Z</time>
      </trkpt>
      <trkpt lat="44.59602" lon="5.91074">
        <ele>1397.6</ele>
        <time>2023-05-19T10:33:09Z</time>
      </trkpt>
      <trkpt lat="44.59603" lon="5.91073">
        <ele>1397.8</ele>
        <time>2023-05-19T10:33:10Z</time>
      </trkpt>
      <trkpt lat="44.59603" lon="5.91073">
        <ele>1397.8</ele>
        <time>2023-05-19T10:33:11Z</time>
      </trkpt>
      <trkpt lat="44.59604" lon="5.91073">
        <ele>1398</ele>
        <time>2023-05-19T10:33:12Z</time>
      </trkpt>
      <trkpt lat="44.59605" lon="5.91072">
        <ele>1398.2</ele>
        <time>2023-05-19T10:33:13Z</time>
      </trkpt>
      <trkpt lat="44.59606" lon="5.91073">
        <ele>1398.2</ele>
        <time>2023-05-19T10:33:14Z</time>
      </trkpt>
      <trkpt lat="44.59608" lon="5.91074">
        <ele>1398.4</ele>
        <time>2023-05-19T10:33:15Z</time>
      </trkpt>
      <trkpt lat="44.59609" lon="5.91074">
        <ele>1398.6</ele>
        <time>2023-05-19T10:33:16Z</time>
      </trkpt>
      <trkpt lat="44.59611" lon="5.91074">
        <ele>1398.8</ele>
        <time>2023-05-19T10:33:17Z</time>
      </trkpt>
      <trkpt lat="44.59612" lon="5.91074">
        <ele>1398.8</ele>
        <time>2023-05-19T10:33:18Z</time>
      </trkpt>
      <trkpt lat="44.59614" lon="5.91074">
        <ele>1399</ele>
        <time>2023-05-19T10:33:19Z</time>
      </trkpt>
      <trkpt lat="44.59615" lon="5.91074">
        <ele>1399.2</ele>
        <time>2023-05-19T10:33:20Z</time>
      </trkpt>
      <trkpt lat="44.59616" lon="5.91073">
        <ele>1399.4</ele>
        <time>2023-05-19T10:33:21Z</time>
      </trkpt>
      <trkpt lat="44.59617" lon="5.91073">
        <ele>1399.6</ele>
        <time>2023-05-19T10:33:22Z</time>
      </trkpt>
      <trkpt lat="44.59618" lon="5.91074">
        <ele>1399.6</ele>
        <time>2023-05-19T10:33:23Z</time>
      </trkpt>
      <trkpt lat="44.59619" lon="5.91074">
        <ele>1399.8</ele>
        <time>2023-05-19T10:33:24Z</time>
      </trkpt>
      <trkpt lat="44.5962" lon="5.91075">
        <ele>1400</ele>
        <time>2023-05-19T10:33:25Z</time>
      </trkpt>
      <trkpt lat="44.59622" lon="5.91076">
        <ele>1400.2</ele>
        <time>2023-05-19T10:33:26Z</time>
      </trkpt>
      <trkpt lat="44.59623" lon="5.91076">
        <ele>1400.2</ele>
        <time>2023-05-19T10:33:27Z</time>
      </trkpt>
      <trkpt lat="44.59625" lon="5.91076">
        <ele>1400.6</ele>
        <time>2023-05-19T10:33:28Z</time>
      </trkpt>
      <trkpt lat="44.59626" lon="5.91077">
        <ele>1400.8</ele>
        <time>2023-05-19T10:33:29Z</time>
      </trkpt>
      <trkpt lat="44.59627" lon="5.91077">
        <ele>1401.2</ele>
        <time>2023-05-19T10:33:30Z</time>
      </trkpt>
      <trkpt lat="44.59628" lon="5.91078">
        <ele>1401.4</ele>
        <time>2023-05-19T10:33:31Z</time>
      </trkpt>
      <trkpt lat="44.5963" lon="5.91077">
        <ele>1401.4</ele>
        <time>2023-05-19T10:33:32Z</time>
      </trkpt>
      <trkpt lat="44.59631" lon="5.91077">
        <ele>1401.6</ele>
        <time>2023-05-19T10:33:33Z</time>
      </trkpt>
      <trkpt lat="44.59633" lon="5.91077">
        <ele>1401.6</ele>
        <time>2023-05-19T10:33:34Z</time>
      </trkpt>
      <trkpt lat="44.59634" lon="5.91076">
        <ele>1401.8</ele>
        <time>2023-05-19T10:33:35Z</time>
      </trkpt>
      <trkpt lat="44.59636" lon="5.91076">
        <ele>1401.8</ele>
        <time>2023-05-19T10:33:36Z</time>
      </trkpt>
      <trkpt lat="44.59637" lon="5.91076">
        <ele>1402.2</ele>
        <time>2023-05-19T10:33:37Z</time>
      </trkpt>
      <trkpt lat="44.59638" lon="5.91076">
        <ele>1402.2</ele>
        <time>2023-05-19T10:33:38Z</time>
      </trkpt>
      <trkpt lat="44.59639" lon="5.91075">
        <ele>1402.6</ele>
        <time>2023-05-19T10:33:39Z</time>
      </trkpt>
      <trkpt lat="44.5964" lon="5.91075">
        <ele>1402.8</ele>
        <time>2023-05-19T10:33:40Z</time>
      </trkpt>
      <trkpt lat="44.59641" lon="5.91075">
        <ele>1402.8</ele>
        <time>2023-05-19T10:33:41Z</time>
      </trkpt>
      <trkpt lat="44.59642" lon="5.91074">
        <ele>1403</ele>
        <time>2023-05-19T10:33:42Z</time>
      </trkpt>
      <trkpt lat="44.59643" lon="5.91073">
        <ele>1403</ele>
        <time>2023-05-19T10:33:43Z</time>
      </trkpt>
      <trkpt lat="44.59644" lon="5.91072">
        <ele>1403.2</ele>
        <time>2023-05-19T10:33:44Z</time>
      </trkpt>
      <trkpt lat="44.59646" lon="5.91072">
        <ele>1403.4</ele>
        <time>2023-05-19T10:33:45Z</time>
      </trkpt>
      <trkpt lat="44.59647" lon="5.91072">
        <ele>1403.6</ele>
        <time>2023-05-19T10:33:46Z</time>
      </trkpt>
      <trkpt lat="44.59649" lon="5.91073">
        <ele>1403.6</ele>
        <time>2023-05-19T10:33:47Z</time>
      </trkpt>
      <trkpt lat="44.59651" lon="5.91073">
        <ele>1403.8</ele>
        <time>2023-05-19T10:33:48Z</time>
      </trkpt>
      <trkpt lat="44.59652" lon="5.91073">
        <ele>1403.8</ele>
        <time>2023-05-19T10:33:49Z</time>
      </trkpt>
      <trkpt lat="44.59654" lon="5.91073">
        <ele>1404</ele>
        <time>2023-05-19T10:33:50Z</time>
      </trkpt>
      <trkpt lat="44.59655" lon="5.91073">
        <ele>1404.2</ele>
        <time>2023-05-19T10:33:51Z</time>
      </trkpt>
      <trkpt lat="44.59656" lon="5.91074">
        <ele>1404.2</ele>
        <time>2023-05-19T10:33:52Z</time>
      </trkpt>
      <trkpt lat="44.59657" lon="5.91074">
        <ele>1404.4</ele>
        <time>2023-05-19T10:33:53Z</time>
      </trkpt>
      <trkpt lat="44.59659" lon="5.91074">
        <ele>1404.6</ele>
        <time>2023-05-19T10:33:54Z</time>
      </trkpt>
      <trkpt lat="44.5966" lon="5.91074">
        <ele>1405</ele>
        <time>2023-05-19T10:33:55Z</time>
      </trkpt>
      <trkpt lat="44.59662" lon="5.91074">
        <ele>1405</ele>
        <time>2023-05-19T10:33:56Z</time>
      </trkpt>
      <trkpt lat="44.59664" lon="5.91074">
        <ele>1405.2</ele>
        <time>2023-05-19T10:33:57Z</time>
      </trkpt>
      <trkpt lat="44.59665" lon="5.91074">
        <ele>1405.4</ele>
        <time>2023-05-19T10:33:58Z</time>
      </trkpt>
      <trkpt lat="44.59667" lon="5.91073">
        <ele>1405.6</ele>
        <time>2023-05-19T10:33:59Z</time>
      </trkpt>
      <trkpt lat="44.59669" lon="5.91072">
        <ele>1405.8</ele>
        <time>2023-05-19T10:34:00Z</time>
      </trkpt>
      <trkpt lat="44.59671" lon="5.91073">
        <ele>1405.8</ele>
        <time>2023-05-19T10:34:01Z</time>
      </trkpt>
      <trkpt lat="44.59673" lon="5.91075">
        <ele>1406.2</ele>
        <time>2023-05-19T10:34:02Z</time>
      </trkpt>
      <trkpt lat="44.59674" lon="5.91075">
        <ele>1406.2</ele>
        <time>2023-05-19T10:34:03Z</time>
      </trkpt>
      <trkpt lat="44.59675" lon="5.91075">
        <ele>1406.2</ele>
        <time>2023-05-19T10:34:04Z</time>
      </trkpt>
      <trkpt lat="44.59677" lon="5.91075">
        <ele>1406.6</ele>
        <time>2023-05-19T10:34:05Z</time>
      </trkpt>
      <trkpt lat="44.59678" lon="5.91075">
        <ele>1406.6</ele>
        <time>2023-05-19T10:34:06Z</time>
      </trkpt>
      <trkpt lat="44.59679" lon="5.91075">
        <ele>1406.8</ele>
        <time>2023-05-19T10:34:07Z</time>
      </trkpt>
      <trkpt lat="44.5968" lon="5.91076">
        <ele>1407</ele>
        <time>2023-05-19T10:34:08Z</time>
      </trkpt>
      <trkpt lat="44.59681" lon="5.91076">
        <ele>1407</ele>
        <time>2023-05-19T10:34:09Z</time>
      </trkpt>
      <trkpt lat="44.59683" lon="5.91077">
        <ele>1407.2</ele>
        <time>2023-05-19T10:34:10Z</time>
      </trkpt>
      <trkpt lat="44.59684" lon="5.91078">
        <ele>1407.2</ele>
        <time>2023-05-19T10:34:11Z</time>
      </trkpt>
      <trkpt lat="44.59685" lon="5.91079">
        <ele>1407.4</ele>
        <time>2023-05-19T10:34:12Z</time>
      </trkpt>
      <trkpt lat="44.59687" lon="5.9108">
        <ele>1407.6</ele>
        <time>2023-05-19T10:34:13Z</time>
      </trkpt>
      <trkpt lat="44.59688" lon="5.91081">
        <ele>1407.8</ele>
        <time>2023-05-19T10:34:14Z</time>
      </trkpt>
      <trkpt lat="44.5969" lon="5.91081">
        <ele>1408</ele>
        <time>2023-05-19T10:34:15Z</time>
      </trkpt>
      <trkpt lat="44.59691" lon="5.91081">
        <ele>1408.2</ele>
        <time>2023-05-19T10:34:16Z</time>
      </trkpt>
      <trkpt lat="44.59692" lon="5.91081">
        <ele>1408.2</ele>
        <time>2023-05-19T10:34:17Z</time>
      </trkpt>
      <trkpt lat="44.59693" lon="5.91082">
        <ele>1408.6</ele>
        <time>2023-05-19T10:34:18Z</time>
      </trkpt>
      <trkpt lat="44.59694" lon="5.91082">
        <ele>1408.6</ele>
        <time>2023-05-19T10:34:19Z</time>
      </trkpt>
      <trkpt lat="44.59696" lon="5.91083">
        <ele>1408.6</ele>
        <time>2023-05-19T10:34:20Z</time>
      </trkpt>
      <trkpt lat="44.59697" lon="5.91083">
        <ele>1408.8</ele>
        <time>2023-05-19T10:34:21Z</time>
      </trkpt>
      <trkpt lat="44.59698" lon="5.91083">
        <ele>1409</ele>
        <time>2023-05-19T10:34:22Z</time>
      </trkpt>
      <trkpt lat="44.59699" lon="5.91083">
        <ele>1409.2</ele>
        <time>2023-05-19T10:34:23Z</time>
      </trkpt>
      <trkpt lat="44.59699" lon="5.91084">
        <ele>1409.4</ele>
        <time>2023-05-19T10:34:24Z</time>
      </trkpt>
      <trkpt lat="44.597" lon="5.91084">
        <ele>1409.8</ele>
        <time>2023-05-19T10:34:25Z</time>
      </trkpt>
      <trkpt lat="44.59701" lon="5.91084">
        <ele>1410</ele>
        <time>2023-05-19T10:34:26Z</time>
      </trkpt>
      <trkpt lat="44.59703" lon="5.91085">
        <ele>1410.2</ele>
        <time>2023-05-19T10:34:27Z</time>
      </trkpt>
      <trkpt lat="44.59704" lon="5.91085">
        <ele>1410.4</ele>
        <time>2023-05-19T10:34:28Z</time>
      </trkpt>
      <trkpt lat="44.59705" lon="5.91086">
        <ele>1410.4</ele>
        <time>2023-05-19T10:34:29Z</time>
      </trkpt>
      <trkpt lat="44.59706" lon="5.91087">
        <ele>1410.6</ele>
        <time>2023-05-19T10:34:30Z</time>
      </trkpt>
      <trkpt lat="44.59707" lon="5.91088">
        <ele>1410.8</ele>
        <time>2023-05-19T10:34:31Z</time>
      </trkpt>
      <trkpt lat="44.59708" lon="5.91088">
        <ele>1411</ele>
        <time>2023-05-19T10:34:32Z</time>
      </trkpt>
      <trkpt lat="44.59709" lon="5.9109">
        <ele>1411.2</ele>
        <time>2023-05-19T10:34:33Z</time>
      </trkpt>
      <trkpt lat="44.5971" lon="5.91091">
        <ele>1411.4</ele>
        <time>2023-05-19T10:34:34Z</time>
      </trkpt>
      <trkpt lat="44.59711" lon="5.91091">
        <ele>1411.6</ele>
        <time>2023-05-19T10:34:35Z</time>
      </trkpt>
      <trkpt lat="44.59712" lon="5.91092">
        <ele>1411.8</ele>
        <time>2023-05-19T10:34:36Z</time>
      </trkpt>
      <trkpt lat="44.59714" lon="5.91092">
        <ele>1411.8</ele>
        <time>2023-05-19T10:34:37Z</time>
      </trkpt>
      <trkpt lat="44.59715" lon="5.91093">
        <ele>1412</ele>
        <time>2023-05-19T10:34:38Z</time>
      </trkpt>
      <trkpt lat="44.59717" lon="5.91094">
        <ele>1412.2</ele>
        <time>2023-05-19T10:34:39Z</time>
      </trkpt>
      <trkpt lat="44.59718" lon="5.91094">
        <ele>1412.4</ele>
        <time>2023-05-19T10:34:40Z</time>
      </trkpt>
      <trkpt lat="44.59719" lon="5.91095">
        <ele>1412.6</ele>
        <time>2023-05-19T10:34:41Z</time>
      </trkpt>
      <trkpt lat="44.59719" lon="5.91096">
        <ele>1412.8</ele>
        <time>2023-05-19T10:34:42Z</time>
      </trkpt>
      <trkpt lat="44.59721" lon="5.91097">
        <ele>1413.2</ele>
        <time>2023-05-19T10:34:43Z</time>
      </trkpt>
      <trkpt lat="44.59721" lon="5.91097">
        <ele>1413.2</ele>
        <time>2023-05-19T10:34:44Z</time>
      </trkpt>
      <trkpt lat="44.59722" lon="5.91098">
        <ele>1413.4</ele>
        <time>2023-05-19T10:34:45Z</time>
      </trkpt>
      <trkpt lat="44.59723" lon="5.91098">
        <ele>1413.4</ele>
        <time>2023-05-19T10:34:46Z</time>
      </trkpt>
      <trkpt lat="44.59724" lon="5.91099">
        <ele>1413.6</ele>
        <time>2023-05-19T10:34:47Z</time>
      </trkpt>
      <trkpt lat="44.59725" lon="5.91099">
        <ele>1413.8</ele>
        <time>2023-05-19T10:34:48Z</time>
      </trkpt>
      <trkpt lat="44.59725" lon="5.91099">
        <ele>1413.8</ele>
        <time>2023-05-19T10:34:49Z</time>
      </trkpt>
      <trkpt lat="44.59726" lon="5.911">
        <ele>1414</ele>
        <time>2023-05-19T10:34:50Z</time>
      </trkpt>
      <trkpt lat="44.59727" lon="5.91101">
        <ele>1414.2</ele>
        <time>2023-05-19T10:34:51Z</time>
      </trkpt>
      <trkpt lat="44.59728" lon="5.91101">
        <ele>1414.6</ele>
        <time>2023-05-19T10:34:52Z</time>
      </trkpt>
      <trkpt lat="44.5973" lon="5.91101">
        <ele>1414.6</ele>
        <time>2023-05-19T10:34:53Z</time>
      </trkpt>
      <trkpt lat="44.59731" lon="5.91101">
        <ele>1414.8</ele>
        <time>2023-05-19T10:34:54Z</time>
      </trkpt>
      <trkpt lat="44.59731" lon="5.91102">
        <ele>1414.8</ele>
        <time>2023-05-19T10:34:55Z</time>
      </trkpt>
      <trkpt lat="44.59733" lon="5.91102">
        <ele>1415</ele>
        <time>2023-05-19T10:34:56Z</time>
      </trkpt>
      <trkpt lat="44.59734" lon="5.91102">
        <ele>1415.2</ele>
        <time>2023-05-19T10:34:57Z</time>
      </trkpt>
      <trkpt lat="44.59735" lon="5.91103">
        <ele>1415.2</ele>
        <time>2023-05-19T10:34:58Z</time>
      </trkpt>
      <trkpt lat="44.59736" lon="5.91103">
        <ele>1415.4</ele>
        <time>2023-05-19T10:34:59Z</time>
      </trkpt>
      <trkpt lat="44.59737" lon="5.91103">
        <ele>1415.6</ele>
        <time>2023-05-19T10:35:00Z</time>
      </trkpt>
      <trkpt lat="44.59739" lon="5.91103">
        <ele>1415.8</ele>
        <time>2023-05-19T10:35:01Z</time>
      </trkpt>
      <trkpt lat="44.5974" lon="5.91103">
        <ele>1416</ele>
        <time>2023-05-19T10:35:02Z</time>
      </trkpt>
      <trkpt lat="44.59742" lon="5.91104">
        <ele>1416.2</ele>
        <time>2023-05-19T10:35:03Z</time>
      </trkpt>
      <trkpt lat="44.59743" lon="5.91104">
        <ele>1416.4</ele>
        <time>2023-05-19T10:35:04Z</time>
      </trkpt>
      <trkpt lat="44.59744" lon="5.91104">
        <ele>1416.6</ele>
        <time>2023-05-19T10:35:05Z</time>
      </trkpt>
      <trkpt lat="44.59746" lon="5.91104">
        <ele>1416.6</ele>
        <time>2023-05-19T10:35:06Z</time>
      </trkpt>
      <trkpt lat="44.59747" lon="5.91103">
        <ele>1416.8</ele>
        <time>2023-05-19T10:35:07Z</time>
      </trkpt>
      <trkpt lat="44.59748" lon="5.91103">
        <ele>1417</ele>
        <time>2023-05-19T10:35:08Z</time>
      </trkpt>
      <trkpt lat="44.59749" lon="5.91102">
        <ele>1417.2</ele>
        <time>2023-05-19T10:35:09Z</time>
      </trkpt>
      <trkpt lat="44.59751" lon="5.91103">
        <ele>1417.2</ele>
        <time>2023-05-19T10:35:10Z</time>
      </trkpt>
      <trkpt lat="44.59752" lon="5.91103">
        <ele>1417.4</ele>
        <time>2023-05-19T10:35:11Z</time>
      </trkpt>
      <trkpt lat="44.59753" lon="5.91103">
        <ele>1417.4</ele>
        <time>2023-05-19T10:35:12Z</time>
      </trkpt>
      <trkpt lat="44.59754" lon="5.91104">
        <ele>1417.6</ele>
        <time>2023-05-19T10:35:13Z</time>
      </trkpt>
      <trkpt lat="44.59755" lon="5.91104">
        <ele>1417.8</ele>
        <time>2023-05-19T10:35:14Z</time>
      </trkpt>
      <trkpt lat="44.59757" lon="5.91103">
        <ele>1417.8</ele>
        <time>2023-05-19T10:35:15Z</time>
      </trkpt>
      <trkpt lat="44.59759" lon="5.91103">
        <ele>1418</ele>
        <time>2023-05-19T10:35:16Z</time>
      </trkpt>
      <trkpt lat="44.5976" lon="5.91102">
        <ele>1418.2</ele>
        <time>2023-05-19T10:35:17Z</time>
      </trkpt>
      <trkpt lat="44.59761" lon="5.91102">
        <ele>1418.2</ele>
        <time>2023-05-19T10:35:18Z</time>
      </trkpt>
      <trkpt lat="44.59762" lon="5.91102">
        <ele>1418.6</ele>
        <time>2023-05-19T10:35:19Z</time>
      </trkpt>
      <trkpt lat="44.59763" lon="5.91102">
        <ele>1418.6</ele>
        <time>2023-05-19T10:35:20Z</time>
      </trkpt>
      <trkpt lat="44.59765" lon="5.91102">
        <ele>1418.8</ele>
        <time>2023-05-19T10:35:21Z</time>
      </trkpt>
      <trkpt lat="44.59766" lon="5.91103">
        <ele>1419</ele>
        <time>2023-05-19T10:35:22Z</time>
      </trkpt>
      <trkpt lat="44.59767" lon="5.91103">
        <ele>1419</ele>
        <time>2023-05-19T10:35:23Z</time>
      </trkpt>
      <trkpt lat="44.59769" lon="5.91103">
        <ele>1419</ele>
        <time>2023-05-19T10:35:24Z</time>
      </trkpt>
      <trkpt lat="44.5977" lon="5.91103">
        <ele>1419.2</ele>
        <time>2023-05-19T10:35:25Z</time>
      </trkpt>
      <trkpt lat="44.59771" lon="5.91104">
        <ele>1419.4</ele>
        <time>2023-05-19T10:35:26Z</time>
      </trkpt>
      <trkpt lat="44.59773" lon="5.91104">
        <ele>1419.4</ele>
        <time>2023-05-19T10:35:27Z</time>
      </trkpt>
      <trkpt lat="44.59774" lon="5.91104">
        <ele>1419.6</ele>
        <time>2023-05-19T10:35:28Z</time>
      </trkpt>
      <trkpt lat="44.59776" lon="5.91104">
        <ele>1419.6</ele>
        <time>2023-05-19T10:35:29Z</time>
      </trkpt>
      <trkpt lat="44.59777" lon="5.91105">
        <ele>1419.6</ele>
        <time>2023-05-19T10:35:30Z</time>
      </trkpt>
      <trkpt lat="44.59778" lon="5.91104">
        <ele>1419.8</ele>
        <time>2023-05-19T10:35:31Z</time>
      </trkpt>
      <trkpt lat="44.5978" lon="5.91104">
        <ele>1420</ele>
        <time>2023-05-19T10:35:32Z</time>
      </trkpt>
      <trkpt lat="44.59781" lon="5.91104">
        <ele>1420.2</ele>
        <time>2023-05-19T10:35:33Z</time>
      </trkpt>
      <trkpt lat="44.59782" lon="5.91104">
        <ele>1420.2</ele>
        <time>2023-05-19T10:35:34Z</time>
      </trkpt>
      <trkpt lat="44.59784" lon="5.91105">
        <ele>1420.4</ele>
        <time>2023-05-19T10:35:35Z</time>
      </trkpt>
      <trkpt lat="44.59785" lon="5.91105">
        <ele>1420.6</ele>
        <time>2023-05-19T10:35:36Z</time>
      </trkpt>
      <trkpt lat="44.59786" lon="5.91106">
        <ele>1420.8</ele>
        <time>2023-05-19T10:35:37Z</time>
      </trkpt>
      <trkpt lat="44.59788" lon="5.91107">
        <ele>1420.8</ele>
        <time>2023-05-19T10:35:38Z</time>
      </trkpt>
      <trkpt lat="44.59789" lon="5.91108">
        <ele>1421.2</ele>
        <time>2023-05-19T10:35:39Z</time>
      </trkpt>
      <trkpt lat="44.5979" lon="5.91108">
        <ele>1421.2</ele>
        <time>2023-05-19T10:35:40Z</time>
      </trkpt>
      <trkpt lat="44.59792" lon="5.91109">
        <ele>1421.4</ele>
        <time>2023-05-19T10:35:41Z</time>
      </trkpt>
      <trkpt lat="44.59794" lon="5.91109">
        <ele>1421.6</ele>
        <time>2023-05-19T10:35:42Z</time>
      </trkpt>
      <trkpt lat="44.59795" lon="5.9111">
        <ele>1421.8</ele>
        <time>2023-05-19T10:35:43Z</time>
      </trkpt>
      <trkpt lat="44.59796" lon="5.9111">
        <ele>1422</ele>
        <time>2023-05-19T10:35:44Z</time>
      </trkpt>
      <trkpt lat="44.59798" lon="5.91111">
        <ele>1422</ele>
        <time>2023-05-19T10:35:45Z</time>
      </trkpt>
      <trkpt lat="44.59799" lon="5.91111">
        <ele>1422.2</ele>
        <time>2023-05-19T10:35:46Z</time>
      </trkpt>
      <trkpt lat="44.598" lon="5.91112">
        <ele>1422.2</ele>
        <time>2023-05-19T10:35:47Z</time>
      </trkpt>
      <trkpt lat="44.59802" lon="5.91112">
        <ele>1422.4</ele>
        <time>2023-05-19T10:35:48Z</time>
      </trkpt>
      <trkpt lat="44.59803" lon="5.91113">
        <ele>1422.6</ele>
        <time>2023-05-19T10:35:49Z</time>
      </trkpt>
      <trkpt lat="44.59805" lon="5.91113">
        <ele>1422.8</ele>
        <time>2023-05-19T10:35:50Z</time>
      </trkpt>
      <trkpt lat="44.59806" lon="5.91113">
        <ele>1422.8</ele>
        <time>2023-05-19T10:35:51Z</time>
      </trkpt>
      <trkpt lat="44.59807" lon="5.91113">
        <ele>1423</ele>
        <time>2023-05-19T10:35:52Z</time>
      </trkpt>
      <trkpt lat="44.59808" lon="5.91113">
        <ele>1423.2</ele>
        <time>2023-05-19T10:35:53Z</time>
      </trkpt>
      <trkpt lat="44.5981" lon="5.91114">
        <ele>1423.2</ele>
        <time>2023-05-19T10:35:54Z</time>
      </trkpt>
      <trkpt lat="44.59811" lon="5.91114">
        <ele>1423.6</ele>
        <time>2023-05-19T10:35:55Z</time>
      </trkpt>
      <trkpt lat="44.59812" lon="5.91115">
        <ele>1423.6</ele>
        <time>2023-05-19T10:35:56Z</time>
      </trkpt>
      <trkpt lat="44.59813" lon="5.91116">
        <ele>1423.8</ele>
        <time>2023-05-19T10:35:57Z</time>
      </trkpt>
      <trkpt lat="44.59814" lon="5.91116">
        <ele>1424</ele>
        <time>2023-05-19T10:35:58Z</time>
      </trkpt>
      <trkpt lat="44.59816" lon="5.91116">
        <ele>1424.2</ele>
        <time>2023-05-19T10:35:59Z</time>
      </trkpt>
      <trkpt lat="44.59817" lon="5.91116">
        <ele>1424.4</ele>
        <time>2023-05-19T10:36:00Z</time>
      </trkpt>
      <trkpt lat="44.59819" lon="5.91116">
        <ele>1424.4</ele>
        <time>2023-05-19T10:36:01Z</time>
      </trkpt>
      <trkpt lat="44.5982" lon="5.91117">
        <ele>1424.6</ele>
        <time>2023-05-19T10:36:02Z</time>
      </trkpt>
      <trkpt lat="44.59821" lon="5.91118">
        <ele>1424.8</ele>
        <time>2023-05-19T10:36:03Z</time>
      </trkpt>
      <trkpt lat="44.59823" lon="5.91118">
        <ele>1425</ele>
        <time>2023-05-19T10:36:04Z</time>
      </trkpt>
      <trkpt lat="44.59824" lon="5.91118">
        <ele>1425.2</ele>
        <time>2023-05-19T10:36:05Z</time>
      </trkpt>
      <trkpt lat="44.59826" lon="5.91118">
        <ele>1425.4</ele>
        <time>2023-05-19T10:36:06Z</time>
      </trkpt>
      <trkpt lat="44.59827" lon="5.91118">
        <ele>1425.4</ele>
        <time>2023-05-19T10:36:07Z</time>
      </trkpt>
      <trkpt lat="44.59828" lon="5.91119">
        <ele>1425.6</ele>
        <time>2023-05-19T10:36:08Z</time>
      </trkpt>
      <trkpt lat="44.59829" lon="5.91119">
        <ele>1425.8</ele>
        <time>2023-05-19T10:36:09Z</time>
      </trkpt>
      <trkpt lat="44.5983" lon="5.91119">
        <ele>1425.8</ele>
        <time>2023-05-19T10:36:10Z</time>
      </trkpt>
      <trkpt lat="44.59831" lon="5.91119">
        <ele>1426</ele>
        <time>2023-05-19T10:36:11Z</time>
      </trkpt>
      <trkpt lat="44.59832" lon="5.91119">
        <ele>1426.2</ele>
        <time>2023-05-19T10:36:12Z</time>
      </trkpt>
      <trkpt lat="44.59833" lon="5.9112">
        <ele>1426.4</ele>
        <time>2023-05-19T10:36:13Z</time>
      </trkpt>
      <trkpt lat="44.59834" lon="5.91121">
        <ele>1426.4</ele>
        <time>2023-05-19T10:36:14Z</time>
      </trkpt>
      <trkpt lat="44.59835" lon="5.91121">
        <ele>1426.6</ele>
        <time>2023-05-19T10:36:15Z</time>
      </trkpt>
      <trkpt lat="44.59837" lon="5.91122">
        <ele>1426.6</ele>
        <time>2023-05-19T10:36:16Z</time>
      </trkpt>
      <trkpt lat="44.59838" lon="5.91123">
        <ele>1426.8</ele>
        <time>2023-05-19T10:36:17Z</time>
      </trkpt>
      <trkpt lat="44.59838" lon="5.91123">
        <ele>1427</ele>
        <time>2023-05-19T10:36:18Z</time>
      </trkpt>
      <trkpt lat="44.59839" lon="5.91123">
        <ele>1427.2</ele>
        <time>2023-05-19T10:36:19Z</time>
      </trkpt>
      <trkpt lat="44.5984" lon="5.91124">
        <ele>1427.4</ele>
        <time>2023-05-19T10:36:20Z</time>
      </trkpt>
      <trkpt lat="44.59841" lon="5.91124">
        <ele>1427.6</ele>
        <time>2023-05-19T10:36:21Z</time>
      </trkpt>
      <trkpt lat="44.59842" lon="5.91125">
        <ele>1427.6</ele>
        <time>2023-05-19T10:36:22Z</time>
      </trkpt>
      <trkpt lat="44.59843" lon="5.91125">
        <ele>1427.6</ele>
        <time>2023-05-19T10:36:23Z</time>
      </trkpt>
      <trkpt lat="44.59844" lon="5.91126">
        <ele>1427.8</ele>
        <time>2023-05-19T10:36:24Z</time>
      </trkpt>
      <trkpt lat="44.59846" lon="5.91127">
        <ele>1427.8</ele>
        <time>2023-05-19T10:36:25Z</time>
      </trkpt>
      <trkpt lat="44.59847" lon="5.91128">
        <ele>1428</ele>
        <time>2023-05-19T10:36:26Z</time>
      </trkpt>
      <trkpt lat="44.59848" lon="5.91128">
        <ele>1428</ele>
        <time>2023-05-19T10:36:27Z</time>
      </trkpt>
      <trkpt lat="44.59849" lon="5.91129">
        <ele>1428.2</ele>
        <time>2023-05-19T10:36:28Z</time>
      </trkpt>
      <trkpt lat="44.59851" lon="5.91129">
        <ele>1428.4</ele>
        <time>2023-05-19T10:36:29Z</time>
      </trkpt>
      <trkpt lat="44.59852" lon="5.91129">
        <ele>1428.4</ele>
        <time>2023-05-19T10:36:30Z</time>
      </trkpt>
      <trkpt lat="44.59853" lon="5.91129">
        <ele>1428.4</ele>
        <time>2023-05-19T10:36:31Z</time>
      </trkpt>
      <trkpt lat="44.59855" lon="5.91129">
        <ele>1428.6</ele>
        <time>2023-05-19T10:36:32Z</time>
      </trkpt>
      <trkpt lat="44.59856" lon="5.9113">
        <ele>1428.8</ele>
        <time>2023-05-19T10:36:33Z</time>
      </trkpt>
      <trkpt lat="44.59857" lon="5.91131">
        <ele>1428.8</ele>
        <time>2023-05-19T10:36:34Z</time>
      </trkpt>
      <trkpt lat="44.59858" lon="5.91132">
        <ele>1429.2</ele>
        <time>2023-05-19T10:36:35Z</time>
      </trkpt>
      <trkpt lat="44.59858" lon="5.91132">
        <ele>1429.4</ele>
        <time>2023-05-19T10:36:36Z</time>
      </trkpt>
      <trkpt lat="44.5986" lon="5.91133">
        <ele>1429.6</ele>
        <time>2023-05-19T10:36:37Z</time>
      </trkpt>
      <trkpt lat="44.59861" lon="5.91133">
        <ele>1429.6</ele>
        <time>2023-05-19T10:36:38Z</time>
      </trkpt>
      <trkpt lat="44.59863" lon="5.91134">
        <ele>1429.8</ele>
        <time>2023-05-19T10:36:39Z</time>
      </trkpt>
      <trkpt lat="44.59864" lon="5.91134">
        <ele>1429.8</ele>
        <time>2023-05-19T10:36:40Z</time>
      </trkpt>
      <trkpt lat="44.59866" lon="5.91135">
        <ele>1430</ele>
        <time>2023-05-19T10:36:41Z</time>
      </trkpt>
      <trkpt lat="44.59867" lon="5.91135">
        <ele>1430.2</ele>
        <time>2023-05-19T10:36:42Z</time>
      </trkpt>
      <trkpt lat="44.59868" lon="5.91136">
        <ele>1430.4</ele>
        <time>2023-05-19T10:36:43Z</time>
      </trkpt>
      <trkpt lat="44.5987" lon="5.91137">
        <ele>1430.6</ele>
        <time>2023-05-19T10:36:44Z</time>
      </trkpt>
      <trkpt lat="44.5987" lon="5.91137">
        <ele>1430.8</ele>
        <time>2023-05-19T10:36:45Z</time>
      </trkpt>
      <trkpt lat="44.59871" lon="5.91137">
        <ele>1431</ele>
        <time>2023-05-19T10:36:46Z</time>
      </trkpt>
      <trkpt lat="44.59872" lon="5.91137">
        <ele>1431.2</ele>
        <time>2023-05-19T10:36:47Z</time>
      </trkpt>
      <trkpt lat="44.59874" lon="5.91138">
        <ele>1431.4</ele>
        <time>2023-05-19T10:36:48Z</time>
      </trkpt>
      <trkpt lat="44.59875" lon="5.91139">
        <ele>1431.6</ele>
        <time>2023-05-19T10:36:49Z</time>
      </trkpt>
      <trkpt lat="44.59876" lon="5.91139">
        <ele>1431.6</ele>
        <time>2023-05-19T10:36:50Z</time>
      </trkpt>
      <trkpt lat="44.59876" lon="5.91139">
        <ele>1431.8</ele>
        <time>2023-05-19T10:36:51Z</time>
      </trkpt>
      <trkpt lat="44.59877" lon="5.91139">
        <ele>1431.8</ele>
        <time>2023-05-19T10:36:52Z</time>
      </trkpt>
      <trkpt lat="44.59879" lon="5.91141">
        <ele>1432</ele>
        <time>2023-05-19T10:36:53Z</time>
      </trkpt>
      <trkpt lat="44.5988" lon="5.91142">
        <ele>1432.2</ele>
        <time>2023-05-19T10:36:54Z</time>
      </trkpt>
      <trkpt lat="44.59882" lon="5.91142">
        <ele>1432.4</ele>
        <time>2023-05-19T10:36:55Z</time>
      </trkpt>
      <trkpt lat="44.59883" lon="5.91142">
        <ele>1432.4</ele>
        <time>2023-05-19T10:36:56Z</time>
      </trkpt>
      <trkpt lat="44.59885" lon="5.91143">
        <ele>1432.6</ele>
        <time>2023-05-19T10:36:57Z</time>
      </trkpt>
      <trkpt lat="44.59887" lon="5.91143">
        <ele>1433</ele>
        <time>2023-05-19T10:36:58Z</time>
      </trkpt>
      <trkpt lat="44.59888" lon="5.91142">
        <ele>1433.2</ele>
        <time>2023-05-19T10:36:59Z</time>
      </trkpt>
      <trkpt lat="44.5989" lon="5.91142">
        <ele>1433.4</ele>
        <time>2023-05-19T10:37:00Z</time>
      </trkpt>
      <trkpt lat="44.59891" lon="5.91143">
        <ele>1433.4</ele>
        <time>2023-05-19T10:37:01Z</time>
      </trkpt>
      <trkpt lat="44.59892" lon="5.91143">
        <ele>1433.8</ele>
        <time>2023-05-19T10:37:02Z</time>
      </trkpt>
      <trkpt lat="44.59894" lon="5.91143">
        <ele>1433.8</ele>
        <time>2023-05-19T10:37:03Z</time>
      </trkpt>
      <trkpt lat="44.59896" lon="5.91145">
        <ele>1434</ele>
        <time>2023-05-19T10:37:04Z</time>
      </trkpt>
      <trkpt lat="44.59897" lon="5.91147">
        <ele>1434.2</ele>
        <time>2023-05-19T10:37:05Z</time>
      </trkpt>
      <trkpt lat="44.59898" lon="5.91148">
        <ele>1434.6</ele>
        <time>2023-05-19T10:37:06Z</time>
      </trkpt>
      <trkpt lat="44.599" lon="5.91149">
        <ele>1434.6</ele>
        <time>2023-05-19T10:37:07Z</time>
      </trkpt>
      <trkpt lat="44.59901" lon="5.91151">
        <ele>1434.8</ele>
        <time>2023-05-19T10:37:08Z</time>
      </trkpt>
      <trkpt lat="44.59902" lon="5.91152">
        <ele>1435</ele>
        <time>2023-05-19T10:37:09Z</time>
      </trkpt>
      <trkpt lat="44.59904" lon="5.91151">
        <ele>1435</ele>
        <time>2023-05-19T10:37:10Z</time>
      </trkpt>
      <trkpt lat="44.59905" lon="5.91152">
        <ele>1435.2</ele>
        <time>2023-05-19T10:37:11Z</time>
      </trkpt>
      <trkpt lat="44.59906" lon="5.91152">
        <ele>1435.2</ele>
        <time>2023-05-19T10:37:12Z</time>
      </trkpt>
      <trkpt lat="44.59907" lon="5.91153">
        <ele>1435.6</ele>
        <time>2023-05-19T10:37:13Z</time>
      </trkpt>
      <trkpt lat="44.59908" lon="5.91153">
        <ele>1435.8</ele>
        <time>2023-05-19T10:37:14Z</time>
      </trkpt>
      <trkpt lat="44.59908" lon="5.91153">
        <ele>1436</ele>
        <time>2023-05-19T10:37:15Z</time>
      </trkpt>
      <trkpt lat="44.59909" lon="5.91154">
        <ele>1436.2</ele>
        <time>2023-05-19T10:37:16Z</time>
      </trkpt>
      <trkpt lat="44.5991" lon="5.91155">
        <ele>1436.4</ele>
        <time>2023-05-19T10:37:17Z</time>
      </trkpt>
      <trkpt lat="44.59912" lon="5.91155">
        <ele>1436.6</ele>
        <time>2023-05-19T10:37:18Z</time>
      </trkpt>
      <trkpt lat="44.59913" lon="5.91156">
        <ele>1436.8</ele>
        <time>2023-05-19T10:37:19Z</time>
      </trkpt>
      <trkpt lat="44.59914" lon="5.91157">
        <ele>1437</ele>
        <time>2023-05-19T10:37:20Z</time>
      </trkpt>
      <trkpt lat="44.59915" lon="5.91157">
        <ele>1437</ele>
        <time>2023-05-19T10:37:21Z</time>
      </trkpt>
      <trkpt lat="44.59916" lon="5.91158">
        <ele>1437.2</ele>
        <time>2023-05-19T10:37:22Z</time>
      </trkpt>
      <trkpt lat="44.59917" lon="5.91158">
        <ele>1437.4</ele>
        <time>2023-05-19T10:37:23Z</time>
      </trkpt>
      <trkpt lat="44.59918" lon="5.91158">
        <ele>1437.4</ele>
        <time>2023-05-19T10:37:24Z</time>
      </trkpt>
      <trkpt lat="44.59919" lon="5.91159">
        <ele>1437.6</ele>
        <time>2023-05-19T10:37:25Z</time>
      </trkpt>
      <trkpt lat="44.5992" lon="5.9116">
        <ele>1437.8</ele>
        <time>2023-05-19T10:37:26Z</time>
      </trkpt>
      <trkpt lat="44.59922" lon="5.91161">
        <ele>1438</ele>
        <time>2023-05-19T10:37:27Z</time>
      </trkpt>
      <trkpt lat="44.59922" lon="5.91161">
        <ele>1438</ele>
        <time>2023-05-19T10:37:28Z</time>
      </trkpt>
      <trkpt lat="44.59924" lon="5.91162">
        <ele>1438.4</ele>
        <time>2023-05-19T10:37:29Z</time>
      </trkpt>
      <trkpt lat="44.59925" lon="5.91162">
        <ele>1438.6</ele>
        <time>2023-05-19T10:37:30Z</time>
      </trkpt>
      <trkpt lat="44.59925" lon="5.91163">
        <ele>1438.8</ele>
        <time>2023-05-19T10:37:31Z</time>
      </trkpt>
      <trkpt lat="44.59926" lon="5.91163">
        <ele>1439</ele>
        <time>2023-05-19T10:37:32Z</time>
      </trkpt>
      <trkpt lat="44.59926" lon="5.91164">
        <ele>1439.2</ele>
        <time>2023-05-19T10:37:33Z</time>
      </trkpt>
      <trkpt lat="44.59927" lon="5.91165">
        <ele>1439.2</ele>
        <time>2023-05-19T10:37:34Z</time>
      </trkpt>
      <trkpt lat="44.59928" lon="5.91165">
        <ele>1439.4</ele>
        <time>2023-05-19T10:37:35Z</time>
      </trkpt>
      <trkpt lat="44.5993" lon="5.91164">
        <ele>1439.6</ele>
        <time>2023-05-19T10:37:36Z</time>
      </trkpt>
      <trkpt lat="44.59931" lon="5.91165">
        <ele>1439.6</ele>
        <time>2023-05-19T10:37:37Z</time>
      </trkpt>
      <trkpt lat="44.59933" lon="5.91166">
        <ele>1439.8</ele>
        <time>2023-05-19T10:37:38Z</time>
      </trkpt>
      <trkpt lat="44.59934" lon="5.91167">
        <ele>1439.8</ele>
        <time>2023-05-19T10:37:39Z</time>
      </trkpt>
      <trkpt lat="44.59935" lon="5.91168">
        <ele>1440.2</ele>
        <time>2023-05-19T10:37:40Z</time>
      </trkpt>
      <trkpt lat="44.59936" lon="5.91169">
        <ele>1440.2</ele>
        <time>2023-05-19T10:37:41Z</time>
      </trkpt>
      <trkpt lat="44.59938" lon="5.9117">
        <ele>1440.4</ele>
        <time>2023-05-19T10:37:42Z</time>
      </trkpt>
      <trkpt lat="44.5994" lon="5.9117">
        <ele>1440.8</ele>
        <time>2023-05-19T10:37:43Z</time>
      </trkpt>
      <trkpt lat="44.59941" lon="5.9117">
        <ele>1440.8</ele>
        <time>2023-05-19T10:37:44Z</time>
      </trkpt>
      <trkpt lat="44.59942" lon="5.9117">
        <ele>1441</ele>
        <time>2023-05-19T10:37:45Z</time>
      </trkpt>
      <trkpt lat="44.59943" lon="5.91171">
        <ele>1441</ele>
        <time>2023-05-19T10:37:46Z</time>
      </trkpt>
      <trkpt lat="44.59944" lon="5.91172">
        <ele>1441.2</ele>
        <time>2023-05-19T10:37:47Z</time>
      </trkpt>
      <trkpt lat="44.59946" lon="5.91173">
        <ele>1441.2</ele>
        <time>2023-05-19T10:37:48Z</time>
      </trkpt>
      <trkpt lat="44.59948" lon="5.91174">
        <ele>1441.4</ele>
        <time>2023-05-19T10:37:49Z</time>
      </trkpt>
      <trkpt lat="44.59949" lon="5.91174">
        <ele>1441.4</ele>
        <time>2023-05-19T10:37:50Z</time>
      </trkpt>
      <trkpt lat="44.5995" lon="5.91174">
        <ele>1441.8</ele>
        <time>2023-05-19T10:37:51Z</time>
      </trkpt>
      <trkpt lat="44.59952" lon="5.91175">
        <ele>1442</ele>
        <time>2023-05-19T10:37:52Z</time>
      </trkpt>
      <trkpt lat="44.59953" lon="5.91176">
        <ele>1442</ele>
        <time>2023-05-19T10:37:53Z</time>
      </trkpt>
      <trkpt lat="44.59954" lon="5.91176">
        <ele>1442.2</ele>
        <time>2023-05-19T10:37:54Z</time>
      </trkpt>
      <trkpt lat="44.59955" lon="5.91176">
        <ele>1442.4</ele>
        <time>2023-05-19T10:37:55Z</time>
      </trkpt>
      <trkpt lat="44.59956" lon="5.91176">
        <ele>1442.6</ele>
        <time>2023-05-19T10:37:56Z</time>
      </trkpt>
      <trkpt lat="44.59957" lon="5.91177">
        <ele>1442.6</ele>
        <time>2023-05-19T10:37:57Z</time>
      </trkpt>
      <trkpt lat="44.59958" lon="5.91177">
        <ele>1442.6</ele>
        <time>2023-05-19T10:37:58Z</time>
      </trkpt>
      <trkpt lat="44.59959" lon="5.91178">
        <ele>1442.6</ele>
        <time>2023-05-19T10:37:59Z</time>
      </trkpt>
      <trkpt lat="44.59961" lon="5.91179">
        <ele>1442.8</ele>
        <time>2023-05-19T10:38:00Z</time>
      </trkpt>
      <trkpt lat="44.59962" lon="5.91181">
        <ele>1443</ele>
        <time>2023-05-19T10:38:01Z</time>
      </trkpt>
      <trkpt lat="44.59963" lon="5.91182">
        <ele>1443.2</ele>
        <time>2023-05-19T10:38:02Z</time>
      </trkpt>
      <trkpt lat="44.59964" lon="5.91183">
        <ele>1443.6</ele>
        <time>2023-05-19T10:38:03Z</time>
      </trkpt>
      <trkpt lat="44.59965" lon="5.91184">
        <ele>1443.6</ele>
        <time>2023-05-19T10:38:04Z</time>
      </trkpt>
      <trkpt lat="44.59967" lon="5.91186">
        <ele>1444</ele>
        <time>2023-05-19T10:38:05Z</time>
      </trkpt>
      <trkpt lat="44.59967" lon="5.91186">
        <ele>1444</ele>
        <time>2023-05-19T10:38:06Z</time>
      </trkpt>
      <trkpt lat="44.59968" lon="5.91188">
        <ele>1444.4</ele>
        <time>2023-05-19T10:38:07Z</time>
      </trkpt>
      <trkpt lat="44.59969" lon="5.91189">
        <ele>1444.6</ele>
        <time>2023-05-19T10:38:08Z</time>
      </trkpt>
      <trkpt lat="44.5997" lon="5.91189">
        <ele>1444.6</ele>
        <time>2023-05-19T10:38:09Z</time>
      </trkpt>
      <trkpt lat="44.59972" lon="5.9119">
        <ele>1444.8</ele>
        <time>2023-05-19T10:38:10Z</time>
      </trkpt>
      <trkpt lat="44.59973" lon="5.91191">
        <ele>1444.8</ele>
        <time>2023-05-19T10:38:11Z</time>
      </trkpt>
      <trkpt lat="44.59974" lon="5.91191">
        <ele>1444.8</ele>
        <time>2023-05-19T10:38:12Z</time>
      </trkpt>
      <trkpt lat="44.59975" lon="5.91191">
        <ele>1444.8</ele>
        <time>2023-05-19T10:38:13Z</time>
      </trkpt>
      <trkpt lat="44.59975" lon="5.91191">
        <ele>1445</ele>
        <time>2023-05-19T10:38:14Z</time>
      </trkpt>
      <trkpt lat="44.59976" lon="5.91191">
        <ele>1445</ele>
        <time>2023-05-19T10:38:15Z</time>
      </trkpt>
      <trkpt lat="44.59977" lon="5.91191">
        <ele>1445.4</ele>
        <time>2023-05-19T10:38:16Z</time>
      </trkpt>
      <trkpt lat="44.59979" lon="5.91192">
        <ele>1445.8</ele>
        <time>2023-05-19T10:38:17Z</time>
      </trkpt>
      <trkpt lat="44.5998" lon="5.91193">
        <ele>1446</ele>
        <time>2023-05-19T10:38:18Z</time>
      </trkpt>
      <trkpt lat="44.59981" lon="5.91194">
        <ele>1446.2</ele>
        <time>2023-05-19T10:38:19Z</time>
      </trkpt>
      <trkpt lat="44.59981" lon="5.91195">
        <ele>1446.4</ele>
        <time>2023-05-19T10:38:20Z</time>
      </trkpt>
      <trkpt lat="44.59982" lon="5.91195">
        <ele>1446.8</ele>
        <time>2023-05-19T10:38:21Z</time>
      </trkpt>
      <trkpt lat="44.59982" lon="5.91195">
        <ele>1447</ele>
        <time>2023-05-19T10:38:22Z</time>
      </trkpt>
      <trkpt lat="44.59983" lon="5.91196">
        <ele>1447.2</ele>
        <time>2023-05-19T10:38:23Z</time>
      </trkpt>
      <trkpt lat="44.59984" lon="5.91197">
        <ele>1447.4</ele>
        <time>2023-05-19T10:38:24Z</time>
      </trkpt>
      <trkpt lat="44.59985" lon="5.91197">
        <ele>1447.4</ele>
        <time>2023-05-19T10:38:25Z</time>
      </trkpt>
      <trkpt lat="44.59986" lon="5.91197">
        <ele>1447.6</ele>
        <time>2023-05-19T10:38:26Z</time>
      </trkpt>
      <trkpt lat="44.59987" lon="5.91196">
        <ele>1447.8</ele>
        <time>2023-05-19T10:38:27Z</time>
      </trkpt>
      <trkpt lat="44.59988" lon="5.91196">
        <ele>1448</ele>
        <time>2023-05-19T10:38:28Z</time>
      </trkpt>
      <trkpt lat="44.59989" lon="5.91195">
        <ele>1448.2</ele>
        <time>2023-05-19T10:38:29Z</time>
      </trkpt>
      <trkpt lat="44.5999" lon="5.91195">
        <ele>1448.4</ele>
        <time>2023-05-19T10:38:30Z</time>
      </trkpt>
      <trkpt lat="44.59992" lon="5.91195">
        <ele>1448.6</ele>
        <time>2023-05-19T10:38:31Z</time>
      </trkpt>
      <trkpt lat="44.59993" lon="5.91196">
        <ele>1448.6</ele>
        <time>2023-05-19T10:38:32Z</time>
      </trkpt>
      <trkpt lat="44.59995" lon="5.91197">
        <ele>1448.8</ele>
        <time>2023-05-19T10:38:33Z</time>
      </trkpt>
      <trkpt lat="44.59996" lon="5.91197">
        <ele>1449</ele>
        <time>2023-05-19T10:38:34Z</time>
      </trkpt>
      <trkpt lat="44.59997" lon="5.91198">
        <ele>1449.2</ele>
        <time>2023-05-19T10:38:35Z</time>
      </trkpt>
      <trkpt lat="44.59998" lon="5.91198">
        <ele>1449.4</ele>
        <time>2023-05-19T10:38:36Z</time>
      </trkpt>
      <trkpt lat="44.59999" lon="5.91199">
        <ele>1449.6</ele>
        <time>2023-05-19T10:38:37Z</time>
      </trkpt>
      <trkpt lat="44.6" lon="5.912">
        <ele>1449.8</ele>
        <time>2023-05-19T10:38:38Z</time>
      </trkpt>
      <trkpt lat="44.60001" lon="5.912">
        <ele>1450</ele>
        <time>2023-05-19T10:38:39Z</time>
      </trkpt>
      <trkpt lat="44.60001" lon="5.91202">
        <ele>1450.2</ele>
        <time>2023-05-19T10:38:40Z</time>
      </trkpt>
      <trkpt lat="44.60003" lon="5.91202">
        <ele>1450.4</ele>
        <time>2023-05-19T10:38:41Z</time>
      </trkpt>
      <trkpt lat="44.60004" lon="5.91204">
        <ele>1450.4</ele>
        <time>2023-05-19T10:38:42Z</time>
      </trkpt>
      <trkpt lat="44.60005" lon="5.91204">
        <ele>1450.6</ele>
        <time>2023-05-19T10:38:43Z</time>
      </trkpt>
      <trkpt lat="44.60006" lon="5.91205">
        <ele>1450.8</ele>
        <time>2023-05-19T10:38:44Z</time>
      </trkpt>
      <trkpt lat="44.60007" lon="5.91206">
        <ele>1451</ele>
        <time>2023-05-19T10:38:45Z</time>
      </trkpt>
      <trkpt lat="44.60008" lon="5.91207">
        <ele>1451.2</ele>
        <time>2023-05-19T10:38:46Z</time>
      </trkpt>
      <trkpt lat="44.60009" lon="5.91207">
        <ele>1451.4</ele>
        <time>2023-05-19T10:38:47Z</time>
      </trkpt>
      <trkpt lat="44.60009" lon="5.91209">
        <ele>1451.6</ele>
        <time>2023-05-19T10:38:48Z</time>
      </trkpt>
      <trkpt lat="44.6001" lon="5.91209">
        <ele>1451.8</ele>
        <time>2023-05-19T10:38:49Z</time>
      </trkpt>
      <trkpt lat="44.60011" lon="5.9121">
        <ele>1452.4</ele>
        <time>2023-05-19T10:38:50Z</time>
      </trkpt>
      <trkpt lat="44.60012" lon="5.91211">
        <ele>1452.4</ele>
        <time>2023-05-19T10:38:51Z</time>
      </trkpt>
      <trkpt lat="44.60013" lon="5.91212">
        <ele>1452.8</ele>
        <time>2023-05-19T10:38:52Z</time>
      </trkpt>
      <trkpt lat="44.60013" lon="5.91213">
        <ele>1453.2</ele>
        <time>2023-05-19T10:38:53Z</time>
      </trkpt>
      <trkpt lat="44.60014" lon="5.91214">
        <ele>1453.2</ele>
        <time>2023-05-19T10:38:54Z</time>
      </trkpt>
      <trkpt lat="44.60015" lon="5.91215">
        <ele>1453.4</ele>
        <time>2023-05-19T10:38:55Z</time>
      </trkpt>
      <trkpt lat="44.60016" lon="5.91215">
        <ele>1453.6</ele>
        <time>2023-05-19T10:38:56Z</time>
      </trkpt>
      <trkpt lat="44.60017" lon="5.91216">
        <ele>1453.8</ele>
        <time>2023-05-19T10:38:57Z</time>
      </trkpt>
      <trkpt lat="44.60018" lon="5.91217">
        <ele>1453.8</ele>
        <time>2023-05-19T10:38:58Z</time>
      </trkpt>
      <trkpt lat="44.60019" lon="5.91218">
        <ele>1454</ele>
        <time>2023-05-19T10:38:59Z</time>
      </trkpt>
      <trkpt lat="44.60021" lon="5.91219">
        <ele>1454</ele>
        <time>2023-05-19T10:39:00Z</time>
      </trkpt>
      <trkpt lat="44.60022" lon="5.91219">
        <ele>1454.2</ele>
        <time>2023-05-19T10:39:01Z</time>
      </trkpt>
      <trkpt lat="44.60023" lon="5.9122">
        <ele>1454.6</ele>
        <time>2023-05-19T10:39:02Z</time>
      </trkpt>
      <trkpt lat="44.60023" lon="5.9122">
        <ele>1454.6</ele>
        <time>2023-05-19T10:39:03Z</time>
      </trkpt>
      <trkpt lat="44.60024" lon="5.91219">
        <ele>1454.8</ele>
        <time>2023-05-19T10:39:04Z</time>
      </trkpt>
      <trkpt lat="44.60024" lon="5.9122">
        <ele>1455</ele>
        <time>2023-05-19T10:39:05Z</time>
      </trkpt>
      <trkpt lat="44.60025" lon="5.9122">
        <ele>1455.2</ele>
        <time>2023-05-19T10:39:06Z</time>
      </trkpt>
      <trkpt lat="44.60027" lon="5.91221">
        <ele>1455.4</ele>
        <time>2023-05-19T10:39:07Z</time>
      </trkpt>
      <trkpt lat="44.60028" lon="5.91222">
        <ele>1455.4</ele>
        <time>2023-05-19T10:39:08Z</time>
      </trkpt>
      <trkpt lat="44.60029" lon="5.91222">
        <ele>1455.4</ele>
        <time>2023-05-19T10:39:09Z</time>
      </trkpt>
      <trkpt lat="44.60029" lon="5.91222">
        <ele>1455.6</ele>
        <time>2023-05-19T10:39:10Z</time>
      </trkpt>
      <trkpt lat="44.60029" lon="5.91222">
        <ele>1455.6</ele>
        <time>2023-05-19T10:39:11Z</time>
      </trkpt>
      <trkpt lat="44.60029" lon="5.91223">
        <ele>1455.8</ele>
        <time>2023-05-19T10:39:12Z</time>
      </trkpt>
      <trkpt lat="44.6003" lon="5.91223">
        <ele>1456.2</ele>
        <time>2023-05-19T10:39:13Z</time>
      </trkpt>
      <trkpt lat="44.60031" lon="5.91225">
        <ele>1456.4</ele>
        <time>2023-05-19T10:39:14Z</time>
      </trkpt>
      <trkpt lat="44.60031" lon="5.91225">
        <ele>1456.6</ele>
        <time>2023-05-19T10:39:15Z</time>
      </trkpt>
      <trkpt lat="44.60032" lon="5.91226">
        <ele>1456.6</ele>
        <time>2023-05-19T10:39:16Z</time>
      </trkpt>
      <trkpt lat="44.60033" lon="5.91227">
        <ele>1456.8</ele>
        <time>2023-05-19T10:39:17Z</time>
      </trkpt>
      <trkpt lat="44.60034" lon="5.91228">
        <ele>1457</ele>
        <time>2023-05-19T10:39:18Z</time>
      </trkpt>
      <trkpt lat="44.60035" lon="5.91228">
        <ele>1457.2</ele>
        <time>2023-05-19T10:39:19Z</time>
      </trkpt>
      <trkpt lat="44.60037" lon="5.9123">
        <ele>1457.4</ele>
        <time>2023-05-19T10:39:20Z</time>
      </trkpt>
      <trkpt lat="44.60038" lon="5.91231">
        <ele>1457.6</ele>
        <time>2023-05-19T10:39:21Z</time>
      </trkpt>
      <trkpt lat="44.60039" lon="5.91232">
        <ele>1457.6</ele>
        <time>2023-05-19T10:39:22Z</time>
      </trkpt>
      <trkpt lat="44.60041" lon="5.91233">
        <ele>1457.8</ele>
        <time>2023-05-19T10:39:23Z</time>
      </trkpt>
      <trkpt lat="44.60042" lon="5.91234">
        <ele>1457.8</ele>
        <time>2023-05-19T10:39:24Z</time>
      </trkpt>
      <trkpt lat="44.60043" lon="5.91235">
        <ele>1458</ele>
        <time>2023-05-19T10:39:25Z</time>
      </trkpt>
      <trkpt lat="44.60044" lon="5.91236">
        <ele>1458</ele>
        <time>2023-05-19T10:39:26Z</time>
      </trkpt>
      <trkpt lat="44.60046" lon="5.91237">
        <ele>1458</ele>
        <time>2023-05-19T10:39:27Z</time>
      </trkpt>
      <trkpt lat="44.60047" lon="5.91237">
        <ele>1458.2</ele>
        <time>2023-05-19T10:39:28Z</time>
      </trkpt>
      <trkpt lat="44.60048" lon="5.91238">
        <ele>1458.4</ele>
        <time>2023-05-19T10:39:29Z</time>
      </trkpt>
      <trkpt lat="44.60049" lon="5.9124">
        <ele>1458.4</ele>
        <time>2023-05-19T10:39:30Z</time>
      </trkpt>
      <trkpt lat="44.60051" lon="5.91242">
        <ele>1458.6</ele>
        <time>2023-05-19T10:39:31Z</time>
      </trkpt>
      <trkpt lat="44.60051" lon="5.91243">
        <ele>1458.8</ele>
        <time>2023-05-19T10:39:32Z</time>
      </trkpt>
      <trkpt lat="44.60053" lon="5.91245">
        <ele>1459</ele>
        <time>2023-05-19T10:39:33Z</time>
      </trkpt>
      <trkpt lat="44.60055" lon="5.91246">
        <ele>1459</ele>
        <time>2023-05-19T10:39:34Z</time>
      </trkpt>
      <trkpt lat="44.60056" lon="5.91247">
        <ele>1459.4</ele>
        <time>2023-05-19T10:39:35Z</time>
      </trkpt>
      <trkpt lat="44.60057" lon="5.91248">
        <ele>1459.6</ele>
        <time>2023-05-19T10:39:36Z</time>
      </trkpt>
      <trkpt lat="44.60058" lon="5.91249">
        <ele>1460</ele>
        <time>2023-05-19T10:39:37Z</time>
      </trkpt>
      <trkpt lat="44.6006" lon="5.91251">
        <ele>1460.2</ele>
        <time>2023-05-19T10:39:38Z</time>
      </trkpt>
      <trkpt lat="44.60062" lon="5.91253">
        <ele>1460.2</ele>
        <time>2023-05-19T10:39:39Z</time>
      </trkpt>
      <trkpt lat="44.60063" lon="5.91253">
        <ele>1460.4</ele>
        <time>2023-05-19T10:39:40Z</time>
      </trkpt>
      <trkpt lat="44.60065" lon="5.91253">
        <ele>1460.4</ele>
        <time>2023-05-19T10:39:41Z</time>
      </trkpt>
      <trkpt lat="44.60067" lon="5.91254">
        <ele>1460.6</ele>
        <time>2023-05-19T10:39:42Z</time>
      </trkpt>
      <trkpt lat="44.60068" lon="5.91254">
        <ele>1460.6</ele>
        <time>2023-05-19T10:39:43Z</time>
      </trkpt>
      <trkpt lat="44.60069" lon="5.91255">
        <ele>1460.8</ele>
        <time>2023-05-19T10:39:44Z</time>
      </trkpt>
      <trkpt lat="44.6007" lon="5.91256">
        <ele>1461</ele>
        <time>2023-05-19T10:39:45Z</time>
      </trkpt>
      <trkpt lat="44.60071" lon="5.91258">
        <ele>1461.2</ele>
        <time>2023-05-19T10:39:46Z</time>
      </trkpt>
      <trkpt lat="44.60072" lon="5.91261">
        <ele>1461.4</ele>
        <time>2023-05-19T10:39:47Z</time>
      </trkpt>
      <trkpt lat="44.60073" lon="5.91262">
        <ele>1461.4</ele>
        <time>2023-05-19T10:39:48Z</time>
      </trkpt>
      <trkpt lat="44.60073" lon="5.91264">
        <ele>1461.8</ele>
        <time>2023-05-19T10:39:49Z</time>
      </trkpt>
      <trkpt lat="44.60074" lon="5.91265">
        <ele>1461.8</ele>
        <time>2023-05-19T10:39:50Z</time>
      </trkpt>
      <trkpt lat="44.60075" lon="5.91267">
        <ele>1462.2</ele>
        <time>2023-05-19T10:39:51Z</time>
      </trkpt>
      <trkpt lat="44.60076" lon="5.91267">
        <ele>1462.4</ele>
        <time>2023-05-19T10:39:52Z</time>
      </trkpt>
      <trkpt lat="44.60077" lon="5.91268">
        <ele>1462.6</ele>
        <time>2023-05-19T10:39:53Z</time>
      </trkpt>
      <trkpt lat="44.60078" lon="5.91268">
        <ele>1462.8</ele>
        <time>2023-05-19T10:39:54Z</time>
      </trkpt>
      <trkpt lat="44.60078" lon="5.91268">
        <ele>1463</ele>
        <time>2023-05-19T10:39:55Z</time>
      </trkpt>
      <trkpt lat="44.60078" lon="5.91267">
        <ele>1463.4</ele>
        <time>2023-05-19T10:39:56Z</time>
      </trkpt>
      <trkpt lat="44.60079" lon="5.91268">
        <ele>1463.4</ele>
        <time>2023-05-19T10:39:57Z</time>
      </trkpt>
      <trkpt lat="44.6008" lon="5.91268">
        <ele>1463.6</ele>
        <time>2023-05-19T10:39:58Z</time>
      </trkpt>
      <trkpt lat="44.60081" lon="5.91268">
        <ele>1463.6</ele>
        <time>2023-05-19T10:39:59Z</time>
      </trkpt>
      <trkpt lat="44.60082" lon="5.91269">
        <ele>1463.8</ele>
        <time>2023-05-19T10:40:00Z</time>
      </trkpt>
      <trkpt lat="44.60084" lon="5.9127">
        <ele>1463.8</ele>
        <time>2023-05-19T10:40:01Z</time>
      </trkpt>
      <trkpt lat="44.60085" lon="5.91271">
        <ele>1464</ele>
        <time>2023-05-19T10:40:02Z</time>
      </trkpt>
      <trkpt lat="44.60086" lon="5.91272">
        <ele>1464</ele>
        <time>2023-05-19T10:40:03Z</time>
      </trkpt>
      <trkpt lat="44.60087" lon="5.91272">
        <ele>1464.2</ele>
        <time>2023-05-19T10:40:04Z</time>
      </trkpt>
      <trkpt lat="44.60088" lon="5.91273">
        <ele>1464.4</ele>
        <time>2023-05-19T10:40:05Z</time>
      </trkpt>
      <trkpt lat="44.60089" lon="5.91274">
        <ele>1464.6</ele>
        <time>2023-05-19T10:40:06Z</time>
      </trkpt>
      <trkpt lat="44.6009" lon="5.91276">
        <ele>1464.8</ele>
        <time>2023-05-19T10:40:07Z</time>
      </trkpt>
      <trkpt lat="44.60091" lon="5.91277">
        <ele>1465</ele>
        <time>2023-05-19T10:40:08Z</time>
      </trkpt>
      <trkpt lat="44.60093" lon="5.91277">
        <ele>1465.2</ele>
        <time>2023-05-19T10:40:09Z</time>
      </trkpt>
      <trkpt lat="44.60094" lon="5.91278">
        <ele>1465.2</ele>
        <time>2023-05-19T10:40:10Z</time>
      </trkpt>
      <trkpt lat="44.60095" lon="5.91279">
        <ele>1465.2</ele>
        <time>2023-05-19T10:40:11Z</time>
      </trkpt>
      <trkpt lat="44.60095" lon="5.9128">
        <ele>1465.4</ele>
        <time>2023-05-19T10:40:12Z</time>
      </trkpt>
      <trkpt lat="44.60096" lon="5.91281">
        <ele>1465.4</ele>
        <time>2023-05-19T10:40:13Z</time>
      </trkpt>
      <trkpt lat="44.60097" lon="5.91282">
        <ele>1465.6</ele>
        <time>2023-05-19T10:40:14Z</time>
      </trkpt>
      <trkpt lat="44.60098" lon="5.91282">
        <ele>1465.8</ele>
        <time>2023-05-19T10:40:15Z</time>
      </trkpt>
      <trkpt lat="44.60099" lon="5.91283">
        <ele>1465.8</ele>
        <time>2023-05-19T10:40:16Z</time>
      </trkpt>
      <trkpt lat="44.601" lon="5.91283">
        <ele>1466</ele>
        <time>2023-05-19T10:40:17Z</time>
      </trkpt>
      <trkpt lat="44.60101" lon="5.91283">
        <ele>1466</ele>
        <time>2023-05-19T10:40:18Z</time>
      </trkpt>
      <trkpt lat="44.60102" lon="5.91284">
        <ele>1466</ele>
        <time>2023-05-19T10:40:19Z</time>
      </trkpt>
      <trkpt lat="44.60103" lon="5.91284">
        <ele>1466.2</ele>
        <time>2023-05-19T10:40:20Z</time>
      </trkpt>
      <trkpt lat="44.60104" lon="5.91285">
        <ele>1466.4</ele>
        <time>2023-05-19T10:40:21Z</time>
      </trkpt>
      <trkpt lat="44.60105" lon="5.91286">
        <ele>1466.6</ele>
        <time>2023-05-19T10:40:22Z</time>
      </trkpt>
      <trkpt lat="44.60107" lon="5.91287">
        <ele>1466.8</ele>
        <time>2023-05-19T10:40:23Z</time>
      </trkpt>
      <trkpt lat="44.60108" lon="5.91288">
        <ele>1466.8</ele>
        <time>2023-05-19T10:40:24Z</time>
      </trkpt>
      <trkpt lat="44.60109" lon="5.91288">
        <ele>1467</ele>
        <time>2023-05-19T10:40:25Z</time>
      </trkpt>
      <trkpt lat="44.6011" lon="5.91289">
        <ele>1467</ele>
        <time>2023-05-19T10:40:26Z</time>
      </trkpt>
      <trkpt lat="44.60111" lon="5.9129">
        <ele>1467.2</ele>
        <time>2023-05-19T10:40:27Z</time>
      </trkpt>
      <trkpt lat="44.60112" lon="5.91291">
        <ele>1467.2</ele>
        <time>2023-05-19T10:40:28Z</time>
      </trkpt>
      <trkpt lat="44.60114" lon="5.91291">
        <ele>1467.4</ele>
        <time>2023-05-19T10:40:29Z</time>
      </trkpt>
      <trkpt lat="44.60115" lon="5.91292">
        <ele>1467.6</ele>
        <time>2023-05-19T10:40:30Z</time>
      </trkpt>
      <trkpt lat="44.60116" lon="5.91293">
        <ele>1467.6</ele>
        <time>2023-05-19T10:40:31Z</time>
      </trkpt>
      <trkpt lat="44.60118" lon="5.91294">
        <ele>1467.6</ele>
        <time>2023-05-19T10:40:32Z</time>
      </trkpt>
      <trkpt lat="44.60118" lon="5.91294">
        <ele>1467.8</ele>
        <time>2023-05-19T10:40:33Z</time>
      </trkpt>
      <trkpt lat="44.60119" lon="5.91294">
        <ele>1468</ele>
        <time>2023-05-19T10:40:34Z</time>
      </trkpt>
      <trkpt lat="44.6012" lon="5.91295">
        <ele>1468</ele>
        <time>2023-05-19T10:40:35Z</time>
      </trkpt>
      <trkpt lat="44.60121" lon="5.91295">
        <ele>1468</ele>
        <time>2023-05-19T10:40:36Z</time>
      </trkpt>
      <trkpt lat="44.60122" lon="5.91296">
        <ele>1468.2</ele>
        <time>2023-05-19T10:40:37Z</time>
      </trkpt>
      <trkpt lat="44.60124" lon="5.91296">
        <ele>1468.6</ele>
        <time>2023-05-19T10:40:38Z</time>
      </trkpt>
      <trkpt lat="44.60125" lon="5.91296">
        <ele>1468.6</ele>
        <time>2023-05-19T10:40:39Z</time>
      </trkpt>
      <trkpt lat="44.60127" lon="5.91297">
        <ele>1468.6</ele>
        <time>2023-05-19T10:40:40Z</time>
      </trkpt>
      <trkpt lat="44.60128" lon="5.91297">
        <ele>1468.8</ele>
        <time>2023-05-19T10:40:41Z</time>
      </trkpt>
      <trkpt lat="44.60129" lon="5.91297">
        <ele>1468.8</ele>
        <time>2023-05-19T10:40:42Z</time>
      </trkpt>
      <trkpt lat="44.60131" lon="5.91297">
        <ele>1469.2</ele>
        <time>2023-05-19T10:40:43Z</time>
      </trkpt>
      <trkpt lat="44.60132" lon="5.91298">
        <ele>1469.2</ele>
        <time>2023-05-19T10:40:44Z</time>
      </trkpt>
      <trkpt lat="44.60133" lon="5.91298">
        <ele>1469.6</ele>
        <time>2023-05-19T10:40:45Z</time>
      </trkpt>
      <trkpt lat="44.60135" lon="5.91299">
        <ele>1469.6</ele>
        <time>2023-05-19T10:40:46Z</time>
      </trkpt>
      <trkpt lat="44.60136" lon="5.913">
        <ele>1469.8</ele>
        <time>2023-05-19T10:40:47Z</time>
      </trkpt>
      <trkpt lat="44.60138" lon="5.91301">
        <ele>1470</ele>
        <time>2023-05-19T10:40:48Z</time>
      </trkpt>
      <trkpt lat="44.6014" lon="5.91301">
        <ele>1470</ele>
        <time>2023-05-19T10:40:49Z</time>
      </trkpt>
      <trkpt lat="44.60141" lon="5.91302">
        <ele>1470.2</ele>
        <time>2023-05-19T10:40:50Z</time>
      </trkpt>
      <trkpt lat="44.60143" lon="5.91303">
        <ele>1470.2</ele>
        <time>2023-05-19T10:40:51Z</time>
      </trkpt>
      <trkpt lat="44.60144" lon="5.91304">
        <ele>1470.4</ele>
        <time>2023-05-19T10:40:52Z</time>
      </trkpt>
      <trkpt lat="44.60146" lon="5.91305">
        <ele>1470.4</ele>
        <time>2023-05-19T10:40:53Z</time>
      </trkpt>
      <trkpt lat="44.60148" lon="5.91306">
        <ele>1470.6</ele>
        <time>2023-05-19T10:40:54Z</time>
      </trkpt>
      <trkpt lat="44.6015" lon="5.91306">
        <ele>1470.6</ele>
        <time>2023-05-19T10:40:55Z</time>
      </trkpt>
      <trkpt lat="44.60152" lon="5.91307">
        <ele>1470.8</ele>
        <time>2023-05-19T10:40:56Z</time>
      </trkpt>
      <trkpt lat="44.60153" lon="5.91307">
        <ele>1470.8</ele>
        <time>2023-05-19T10:40:57Z</time>
      </trkpt>
      <trkpt lat="44.60155" lon="5.91308">
        <ele>1471</ele>
        <time>2023-05-19T10:40:58Z</time>
      </trkpt>
      <trkpt lat="44.60156" lon="5.91309">
        <ele>1471.2</ele>
        <time>2023-05-19T10:40:59Z</time>
      </trkpt>
      <trkpt lat="44.60158" lon="5.9131">
        <ele>1471.2</ele>
        <time>2023-05-19T10:41:00Z</time>
      </trkpt>
      <trkpt lat="44.6016" lon="5.91312">
        <ele>1471.4</ele>
        <time>2023-05-19T10:41:01Z</time>
      </trkpt>
      <trkpt lat="44.60162" lon="5.91313">
        <ele>1471.4</ele>
        <time>2023-05-19T10:41:02Z</time>
      </trkpt>
      <trkpt lat="44.60163" lon="5.91313">
        <ele>1471.6</ele>
        <time>2023-05-19T10:41:03Z</time>
      </trkpt>
      <trkpt lat="44.60165" lon="5.91313">
        <ele>1471.6</ele>
        <time>2023-05-19T10:41:04Z</time>
      </trkpt>
      <trkpt lat="44.60166" lon="5.91313">
        <ele>1471.8</ele>
        <time>2023-05-19T10:41:05Z</time>
      </trkpt>
      <trkpt lat="44.60168" lon="5.91313">
        <ele>1471.8</ele>
        <time>2023-05-19T10:41:06Z</time>
      </trkpt>
      <trkpt lat="44.6017" lon="5.91314">
        <ele>1472</ele>
        <time>2023-05-19T10:41:07Z</time>
      </trkpt>
      <trkpt lat="44.60171" lon="5.91315">
        <ele>1472.2</ele>
        <time>2023-05-19T10:41:08Z</time>
      </trkpt>
      <trkpt lat="44.60173" lon="5.91316">
        <ele>1472.4</ele>
        <time>2023-05-19T10:41:09Z</time>
      </trkpt>
      <trkpt lat="44.60175" lon="5.91317">
        <ele>1472.6</ele>
        <time>2023-05-19T10:41:10Z</time>
      </trkpt>
      <trkpt lat="44.60176" lon="5.91318">
        <ele>1472.8</ele>
        <time>2023-05-19T10:41:11Z</time>
      </trkpt>
      <trkpt lat="44.60177" lon="5.91318">
        <ele>1473</ele>
        <time>2023-05-19T10:41:12Z</time>
      </trkpt>
      <trkpt lat="44.60178" lon="5.91319">
        <ele>1473.2</ele>
        <time>2023-05-19T10:41:13Z</time>
      </trkpt>
      <trkpt lat="44.6018" lon="5.91319">
        <ele>1473.4</ele>
        <time>2023-05-19T10:41:14Z</time>
      </trkpt>
      <trkpt lat="44.60182" lon="5.9132">
        <ele>1473.6</ele>
        <time>2023-05-19T10:41:15Z</time>
      </trkpt>
      <trkpt lat="44.60184" lon="5.91322">
        <ele>1473.8</ele>
        <time>2023-05-19T10:41:16Z</time>
      </trkpt>
      <trkpt lat="44.60185" lon="5.91322">
        <ele>1474</ele>
        <time>2023-05-19T10:41:17Z</time>
      </trkpt>
      <trkpt lat="44.60187" lon="5.91323">
        <ele>1474</ele>
        <time>2023-05-19T10:41:18Z</time>
      </trkpt>
      <trkpt lat="44.60189" lon="5.91323">
        <ele>1474.2</ele>
        <time>2023-05-19T10:41:19Z</time>
      </trkpt>
      <trkpt lat="44.6019" lon="5.91324">
        <ele>1474.4</ele>
        <time>2023-05-19T10:41:20Z</time>
      </trkpt>
      <trkpt lat="44.60192" lon="5.91325">
        <ele>1474.4</ele>
        <time>2023-05-19T10:41:21Z</time>
      </trkpt>
      <trkpt lat="44.60193" lon="5.91326">
        <ele>1474.4</ele>
        <time>2023-05-19T10:41:22Z</time>
      </trkpt>
      <trkpt lat="44.60195" lon="5.91326">
        <ele>1474.6</ele>
        <time>2023-05-19T10:41:23Z</time>
      </trkpt>
      <trkpt lat="44.60197" lon="5.91327">
        <ele>1474.8</ele>
        <time>2023-05-19T10:41:24Z</time>
      </trkpt>
      <trkpt lat="44.60198" lon="5.91328">
        <ele>1475</ele>
        <time>2023-05-19T10:41:25Z</time>
      </trkpt>
      <trkpt lat="44.60199" lon="5.91329">
        <ele>1475.4</ele>
        <time>2023-05-19T10:41:26Z</time>
      </trkpt>
      <trkpt lat="44.60201" lon="5.9133">
        <ele>1475.4</ele>
        <time>2023-05-19T10:41:27Z</time>
      </trkpt>
      <trkpt lat="44.60202" lon="5.91331">
        <ele>1475.6</ele>
        <time>2023-05-19T10:41:28Z</time>
      </trkpt>
      <trkpt lat="44.60204" lon="5.91332">
        <ele>1475.8</ele>
        <time>2023-05-19T10:41:29Z</time>
      </trkpt>
      <trkpt lat="44.60205" lon="5.91332">
        <ele>1476</ele>
        <time>2023-05-19T10:41:30Z</time>
      </trkpt>
      <trkpt lat="44.60206" lon="5.91333">
        <ele>1476</ele>
        <time>2023-05-19T10:41:31Z</time>
      </trkpt>
      <trkpt lat="44.60208" lon="5.91333">
        <ele>1476.2</ele>
        <time>2023-05-19T10:41:32Z</time>
      </trkpt>
      <trkpt lat="44.6021" lon="5.91333">
        <ele>1476.2</ele>
        <time>2023-05-19T10:41:33Z</time>
      </trkpt>
      <trkpt lat="44.60211" lon="5.91334">
        <ele>1476.6</ele>
        <time>2023-05-19T10:41:34Z</time>
      </trkpt>
      <trkpt lat="44.60213" lon="5.91336">
        <ele>1476.8</ele>
        <time>2023-05-19T10:41:35Z</time>
      </trkpt>
      <trkpt lat="44.60214" lon="5.91337">
        <ele>1477</ele>
        <time>2023-05-19T10:41:36Z</time>
      </trkpt>
      <trkpt lat="44.60216" lon="5.91339">
        <ele>1477</ele>
        <time>2023-05-19T10:41:37Z</time>
      </trkpt>
      <trkpt lat="44.60217" lon="5.9134">
        <ele>1477.2</ele>
        <time>2023-05-19T10:41:38Z</time>
      </trkpt>
      <trkpt lat="44.60219" lon="5.91341">
        <ele>1477.2</ele>
        <time>2023-05-19T10:41:39Z</time>
      </trkpt>
      <trkpt lat="44.6022" lon="5.91342">
        <ele>1477.4</ele>
        <time>2023-05-19T10:41:40Z</time>
      </trkpt>
      <trkpt lat="44.60221" lon="5.91342">
        <ele>1477.4</ele>
        <time>2023-05-19T10:41:41Z</time>
      </trkpt>
      <trkpt lat="44.60222" lon="5.91343">
        <ele>1477.4</ele>
        <time>2023-05-19T10:41:42Z</time>
      </trkpt>
      <trkpt lat="44.60223" lon="5.91343">
        <ele>1477.6</ele>
        <time>2023-05-19T10:41:43Z</time>
      </trkpt>
      <trkpt lat="44.60224" lon="5.91344">
        <ele>1477.8</ele>
        <time>2023-05-19T10:41:44Z</time>
      </trkpt>
      <trkpt lat="44.60226" lon="5.91345">
        <ele>1477.8</ele>
        <time>2023-05-19T10:41:45Z</time>
      </trkpt>
      <trkpt lat="44.60228" lon="5.91345">
        <ele>1478</ele>
        <time>2023-05-19T10:41:46Z</time>
      </trkpt>
      <trkpt lat="44.60229" lon="5.91345">
        <ele>1478.2</ele>
        <time>2023-05-19T10:41:47Z</time>
      </trkpt>
      <trkpt lat="44.60231" lon="5.91346">
        <ele>1478.4</ele>
        <time>2023-05-19T10:41:48Z</time>
      </trkpt>
      <trkpt lat="44.60232" lon="5.91347">
        <ele>1478.4</ele>
        <time>2023-05-19T10:41:49Z</time>
      </trkpt>
      <trkpt lat="44.60234" lon="5.91348">
        <ele>1478.6</ele>
        <time>2023-05-19T10:41:50Z</time>
      </trkpt>
      <trkpt lat="44.60236" lon="5.9135">
        <ele>1478.8</ele>
        <time>2023-05-19T10:41:51Z</time>
      </trkpt>
      <trkpt lat="44.60238" lon="5.9135">
        <ele>1479</ele>
        <time>2023-05-19T10:41:52Z</time>
      </trkpt>
      <trkpt lat="44.6024" lon="5.91351">
        <ele>1479</ele>
        <time>2023-05-19T10:41:53Z</time>
      </trkpt>
      <trkpt lat="44.60242" lon="5.91351">
        <ele>1479.2</ele>
        <time>2023-05-19T10:41:54Z</time>
      </trkpt>
      <trkpt lat="44.60244" lon="5.91352">
        <ele>1479.2</ele>
        <time>2023-05-19T10:41:55Z</time>
      </trkpt>
      <trkpt lat="44.60245" lon="5.91353">
        <ele>1479.4</ele>
        <time>2023-05-19T10:41:56Z</time>
      </trkpt>
      <trkpt lat="44.60247" lon="5.91353">
        <ele>1479.4</ele>
        <time>2023-05-19T10:41:57Z</time>
      </trkpt>
      <trkpt lat="44.60249" lon="5.91353">
        <ele>1479.6</ele>
        <time>2023-05-19T10:41:58Z</time>
      </trkpt>
      <trkpt lat="44.60251" lon="5.91353">
        <ele>1479.6</ele>
        <time>2023-05-19T10:41:59Z</time>
      </trkpt>
      <trkpt lat="44.60253" lon="5.91354">
        <ele>1479.8</ele>
        <time>2023-05-19T10:42:00Z</time>
      </trkpt>
      <trkpt lat="44.60254" lon="5.91354">
        <ele>1480</ele>
        <time>2023-05-19T10:42:01Z</time>
      </trkpt>
      <trkpt lat="44.60257" lon="5.91354">
        <ele>1480.2</ele>
        <time>2023-05-19T10:42:02Z</time>
      </trkpt>
      <trkpt lat="44.60258" lon="5.91353">
        <ele>1480.2</ele>
        <time>2023-05-19T10:42:03Z</time>
      </trkpt>
      <trkpt lat="44.6026" lon="5.91352">
        <ele>1480.2</ele>
        <time>2023-05-19T10:42:04Z</time>
      </trkpt>
      <trkpt lat="44.60261" lon="5.91353">
        <ele>1480.4</ele>
        <time>2023-05-19T10:42:05Z</time>
      </trkpt>
      <trkpt lat="44.60263" lon="5.91353">
        <ele>1480.6</ele>
        <time>2023-05-19T10:42:06Z</time>
      </trkpt>
      <trkpt lat="44.60264" lon="5.91353">
        <ele>1480.6</ele>
        <time>2023-05-19T10:42:07Z</time>
      </trkpt>
      <trkpt lat="44.60265" lon="5.91353">
        <ele>1480.8</ele>
        <time>2023-05-19T10:42:08Z</time>
      </trkpt>
      <trkpt lat="44.60267" lon="5.91354">
        <ele>1481</ele>
        <time>2023-05-19T10:42:09Z</time>
      </trkpt>
      <trkpt lat="44.60268" lon="5.91354">
        <ele>1481.2</ele>
        <time>2023-05-19T10:42:10Z</time>
      </trkpt>
      <trkpt lat="44.60269" lon="5.91356">
        <ele>1481.4</ele>
        <time>2023-05-19T10:42:11Z</time>
      </trkpt>
      <trkpt lat="44.60271" lon="5.91359">
        <ele>1481.4</ele>
        <time>2023-05-19T10:42:12Z</time>
      </trkpt>
      <trkpt lat="44.60273" lon="5.9136">
        <ele>1481.8</ele>
        <time>2023-05-19T10:42:13Z</time>
      </trkpt>
      <trkpt lat="44.60275" lon="5.91361">
        <ele>1481.8</ele>
        <time>2023-05-19T10:42:14Z</time>
      </trkpt>
      <trkpt lat="44.60277" lon="5.91361">
        <ele>1482</ele>
        <time>2023-05-19T10:42:15Z</time>
      </trkpt>
      <trkpt lat="44.60279" lon="5.91362">
        <ele>1482</ele>
        <time>2023-05-19T10:42:16Z</time>
      </trkpt>
      <trkpt lat="44.60281" lon="5.91364">
        <ele>1482.2</ele>
        <time>2023-05-19T10:42:17Z</time>
      </trkpt>
      <trkpt lat="44.60283" lon="5.91366">
        <ele>1482.6</ele>
        <time>2023-05-19T10:42:18Z</time>
      </trkpt>
      <trkpt lat="44.60285" lon="5.91367">
        <ele>1482.8</ele>
        <time>2023-05-19T10:42:19Z</time>
      </trkpt>
      <trkpt lat="44.60286" lon="5.91368">
        <ele>1483</ele>
        <time>2023-05-19T10:42:20Z</time>
      </trkpt>
      <trkpt lat="44.60288" lon="5.9137">
        <ele>1483</ele>
        <time>2023-05-19T10:42:21Z</time>
      </trkpt>
      <trkpt lat="44.60289" lon="5.91371">
        <ele>1483.4</ele>
        <time>2023-05-19T10:42:22Z</time>
      </trkpt>
      <trkpt lat="44.60291" lon="5.91373">
        <ele>1483.4</ele>
        <time>2023-05-19T10:42:23Z</time>
      </trkpt>
      <trkpt lat="44.60292" lon="5.91374">
        <ele>1483.6</ele>
        <time>2023-05-19T10:42:24Z</time>
      </trkpt>
      <trkpt lat="44.60293" lon="5.91374">
        <ele>1483.6</ele>
        <time>2023-05-19T10:42:25Z</time>
      </trkpt>
      <trkpt lat="44.60294" lon="5.91375">
        <ele>1484</ele>
        <time>2023-05-19T10:42:26Z</time>
      </trkpt>
      <trkpt lat="44.60296" lon="5.91375">
        <ele>1484.2</ele>
        <time>2023-05-19T10:42:27Z</time>
      </trkpt>
      <trkpt lat="44.60297" lon="5.91375">
        <ele>1484.2</ele>
        <time>2023-05-19T10:42:28Z</time>
      </trkpt>
      <trkpt lat="44.60299" lon="5.91376">
        <ele>1484.4</ele>
        <time>2023-05-19T10:42:29Z</time>
      </trkpt>
      <trkpt lat="44.603" lon="5.91377">
        <ele>1484.6</ele>
        <time>2023-05-19T10:42:30Z</time>
      </trkpt>
      <trkpt lat="44.60302" lon="5.91377">
        <ele>1484.6</ele>
        <time>2023-05-19T10:42:31Z</time>
      </trkpt>
      <trkpt lat="44.60303" lon="5.91379">
        <ele>1484.8</ele>
        <time>2023-05-19T10:42:32Z</time>
      </trkpt>
      <trkpt lat="44.60305" lon="5.91381">
        <ele>1485</ele>
        <time>2023-05-19T10:42:33Z</time>
      </trkpt>
      <trkpt lat="44.60306" lon="5.91382">
        <ele>1485.2</ele>
        <time>2023-05-19T10:42:34Z</time>
      </trkpt>
      <trkpt lat="44.60308" lon="5.91384">
        <ele>1485.2</ele>
        <time>2023-05-19T10:42:35Z</time>
      </trkpt>
      <trkpt lat="44.60309" lon="5.91385">
        <ele>1485.4</ele>
        <time>2023-05-19T10:42:36Z</time>
      </trkpt>
      <trkpt lat="44.60311" lon="5.91386">
        <ele>1485.6</ele>
        <time>2023-05-19T10:42:37Z</time>
      </trkpt>
      <trkpt lat="44.60312" lon="5.91387">
        <ele>1485.8</ele>
        <time>2023-05-19T10:42:38Z</time>
      </trkpt>
      <trkpt lat="44.60313" lon="5.91388">
        <ele>1485.8</ele>
        <time>2023-05-19T10:42:39Z</time>
      </trkpt>
      <trkpt lat="44.60315" lon="5.91388">
        <ele>1486</ele>
        <time>2023-05-19T10:42:40Z</time>
      </trkpt>
      <trkpt lat="44.60316" lon="5.9139">
        <ele>1486</ele>
        <time>2023-05-19T10:42:41Z</time>
      </trkpt>
      <trkpt lat="44.60318" lon="5.91392">
        <ele>1486.2</ele>
        <time>2023-05-19T10:42:42Z</time>
      </trkpt>
      <trkpt lat="44.60319" lon="5.91394">
        <ele>1486.4</ele>
        <time>2023-05-19T10:42:43Z</time>
      </trkpt>
      <trkpt lat="44.6032" lon="5.91396">
        <ele>1486.4</ele>
        <time>2023-05-19T10:42:44Z</time>
      </trkpt>
      <trkpt lat="44.60321" lon="5.91397">
        <ele>1486.6</ele>
        <time>2023-05-19T10:42:45Z</time>
      </trkpt>
      <trkpt lat="44.60322" lon="5.914">
        <ele>1486.6</ele>
        <time>2023-05-19T10:42:46Z</time>
      </trkpt>
      <trkpt lat="44.60323" lon="5.91402">
        <ele>1486.8</ele>
        <time>2023-05-19T10:42:47Z</time>
      </trkpt>
      <trkpt lat="44.60324" lon="5.91404">
        <ele>1487</ele>
        <time>2023-05-19T10:42:48Z</time>
      </trkpt>
      <trkpt lat="44.60325" lon="5.91405">
        <ele>1487.2</ele>
        <time>2023-05-19T10:42:49Z</time>
      </trkpt>
      <trkpt lat="44.60326" lon="5.91409">
        <ele>1487.2</ele>
        <time>2023-05-19T10:42:50Z</time>
      </trkpt>
      <trkpt lat="44.60328" lon="5.91412">
        <ele>1487.2</ele>
        <time>2023-05-19T10:42:51Z</time>
      </trkpt>
      <trkpt lat="44.60329" lon="5.91414">
        <ele>1487.4</ele>
        <time>2023-05-19T10:42:52Z</time>
      </trkpt>
      <trkpt lat="44.6033" lon="5.91417">
        <ele>1487.4</ele>
        <time>2023-05-19T10:42:53Z</time>
      </trkpt>
      <trkpt lat="44.60331" lon="5.9142">
        <ele>1487.4</ele>
        <time>2023-05-19T10:42:54Z</time>
      </trkpt>
      <trkpt lat="44.60333" lon="5.91423">
        <ele>1487.6</ele>
        <time>2023-05-19T10:42:55Z</time>
      </trkpt>
      <trkpt lat="44.60334" lon="5.91424">
        <ele>1487.6</ele>
        <time>2023-05-19T10:42:56Z</time>
      </trkpt>
      <trkpt lat="44.60335" lon="5.91426">
        <ele>1487.8</ele>
        <time>2023-05-19T10:42:57Z</time>
      </trkpt>
      <trkpt lat="44.60337" lon="5.91429">
        <ele>1487.8</ele>
        <time>2023-05-19T10:42:58Z</time>
      </trkpt>
      <trkpt lat="44.60339" lon="5.91433">
        <ele>1488</ele>
        <time>2023-05-19T10:42:59Z</time>
      </trkpt>
      <trkpt lat="44.60339" lon="5.91435">
        <ele>1488</ele>
        <time>2023-05-19T10:43:00Z</time>
      </trkpt>
      <trkpt lat="44.60341" lon="5.91438">
        <ele>1488.2</ele>
        <time>2023-05-19T10:43:01Z</time>
      </trkpt>
      <trkpt lat="44.60342" lon="5.91442">
        <ele>1488.2</ele>
        <time>2023-05-19T10:43:02Z</time>
      </trkpt>
      <trkpt lat="44.60343" lon="5.91446">
        <ele>1488.4</ele>
        <time>2023-05-19T10:43:03Z</time>
      </trkpt>
      <trkpt lat="44.60344" lon="5.9145">
        <ele>1488.6</ele>
        <time>2023-05-19T10:43:04Z</time>
      </trkpt>
      <trkpt lat="44.60345" lon="5.91453">
        <ele>1488.6</ele>
        <time>2023-05-19T10:43:05Z</time>
      </trkpt>
      <trkpt lat="44.60346" lon="5.91456">
        <ele>1488.8</ele>
        <time>2023-05-19T10:43:06Z</time>
      </trkpt>
      <trkpt lat="44.60347" lon="5.91458">
        <ele>1488.8</ele>
        <time>2023-05-19T10:43:07Z</time>
      </trkpt>
      <trkpt lat="44.60348" lon="5.91461">
        <ele>1489</ele>
        <time>2023-05-19T10:43:08Z</time>
      </trkpt>
      <trkpt lat="44.60348" lon="5.91463">
        <ele>1489</ele>
        <time>2023-05-19T10:43:09Z</time>
      </trkpt>
      <trkpt lat="44.60348" lon="5.91464">
        <ele>1489.2</ele>
        <time>2023-05-19T10:43:10Z</time>
      </trkpt>
      <trkpt lat="44.60349" lon="5.91467">
        <ele>1489.2</ele>
        <time>2023-05-19T10:43:11Z</time>
      </trkpt>
      <trkpt lat="44.60349" lon="5.91469">
        <ele>1489.4</ele>
        <time>2023-05-19T10:43:12Z</time>
      </trkpt>
      <trkpt lat="44.60349" lon="5.91472">
        <ele>1489.4</ele>
        <time>2023-05-19T10:43:13Z</time>
      </trkpt>
      <trkpt lat="44.60349" lon="5.91474">
        <ele>1489.6</ele>
        <time>2023-05-19T10:43:14Z</time>
      </trkpt>
      <trkpt lat="44.60349" lon="5.91476">
        <ele>1489.6</ele>
        <time>2023-05-19T10:43:15Z</time>
      </trkpt>
      <trkpt lat="44.60349" lon="5.91478">
        <ele>1489.8</ele>
        <time>2023-05-19T10:43:16Z</time>
      </trkpt>
      <trkpt lat="44.6035" lon="5.9148">
        <ele>1490</ele>
        <time>2023-05-19T10:43:17Z</time>
      </trkpt>
      <trkpt lat="44.60349" lon="5.91482">
        <ele>1490</ele>
        <time>2023-05-19T10:43:18Z</time>
      </trkpt>
      <trkpt lat="44.6035" lon="5.91484">
        <ele>1490.2</ele>
        <time>2023-05-19T10:43:19Z</time>
      </trkpt>
      <trkpt lat="44.6035" lon="5.91487">
        <ele>1490.4</ele>
        <time>2023-05-19T10:43:20Z</time>
      </trkpt>
      <trkpt lat="44.6035" lon="5.91489">
        <ele>1490.6</ele>
        <time>2023-05-19T10:43:21Z</time>
      </trkpt>
      <trkpt lat="44.6035" lon="5.91491">
        <ele>1490.6</ele>
        <time>2023-05-19T10:43:22Z</time>
      </trkpt>
      <trkpt lat="44.6035" lon="5.91492">
        <ele>1490.8</ele>
        <time>2023-05-19T10:43:23Z</time>
      </trkpt>
      <trkpt lat="44.6035" lon="5.91494">
        <ele>1491</ele>
        <time>2023-05-19T10:43:24Z</time>
      </trkpt>
      <trkpt lat="44.6035" lon="5.91495">
        <ele>1491</ele>
        <time>2023-05-19T10:43:25Z</time>
      </trkpt>
      <trkpt lat="44.6035" lon="5.91497">
        <ele>1491.2</ele>
        <time>2023-05-19T10:43:26Z</time>
      </trkpt>
      <trkpt lat="44.6035" lon="5.91498">
        <ele>1491.6</ele>
        <time>2023-05-19T10:43:27Z</time>
      </trkpt>
      <trkpt lat="44.6035" lon="5.915">
        <ele>1491.8</ele>
        <time>2023-05-19T10:43:28Z</time>
      </trkpt>
      <trkpt lat="44.6035" lon="5.91502">
        <ele>1491.6</ele>
        <time>2023-05-19T10:43:29Z</time>
      </trkpt>
      <trkpt lat="44.6035" lon="5.91504">
        <ele>1492</ele>
        <time>2023-05-19T10:43:30Z</time>
      </trkpt>
      <trkpt lat="44.60351" lon="5.91507">
        <ele>1492.2</ele>
        <time>2023-05-19T10:43:31Z</time>
      </trkpt>
      <trkpt lat="44.60351" lon="5.91509">
        <ele>1492.4</ele>
        <time>2023-05-19T10:43:32Z</time>
      </trkpt>
      <trkpt lat="44.60351" lon="5.91512">
        <ele>1492.6</ele>
        <time>2023-05-19T10:43:33Z</time>
      </trkpt>
      <trkpt lat="44.6035" lon="5.91514">
        <ele>1492.6</ele>
        <time>2023-05-19T10:43:34Z</time>
      </trkpt>
      <trkpt lat="44.6035" lon="5.91516">
        <ele>1492.8</ele>
        <time>2023-05-19T10:43:35Z</time>
      </trkpt>
      <trkpt lat="44.6035" lon="5.91518">
        <ele>1493</ele>
        <time>2023-05-19T10:43:36Z</time>
      </trkpt>
      <trkpt lat="44.6035" lon="5.91519">
        <ele>1493</ele>
        <time>2023-05-19T10:43:37Z</time>
      </trkpt>
      <trkpt lat="44.6035" lon="5.91521">
        <ele>1493.2</ele>
        <time>2023-05-19T10:43:38Z</time>
      </trkpt>
      <trkpt lat="44.6035" lon="5.91523">
        <ele>1493.2</ele>
        <time>2023-05-19T10:43:39Z</time>
      </trkpt>
      <trkpt lat="44.6035" lon="5.91525">
        <ele>1493.4</ele>
        <time>2023-05-19T10:43:40Z</time>
      </trkpt>
      <trkpt lat="44.6035" lon="5.91526">
        <ele>1493.4</ele>
        <time>2023-05-19T10:43:41Z</time>
      </trkpt>
      <trkpt lat="44.6035" lon="5.91526">
        <ele>1493.6</ele>
        <time>2023-05-19T10:43:42Z</time>
      </trkpt>
      <trkpt lat="44.6035" lon="5.91526">
        <ele>1493.8</ele>
        <time>2023-05-19T10:43:43Z</time>
      </trkpt>
      <trkpt lat="44.6035" lon="5.91526">
        <ele>1494</ele>
        <time>2023-05-19T10:43:44Z</time>
      </trkpt>
      <trkpt lat="44.60349" lon="5.91528">
        <ele>1494.2</ele>
        <time>2023-05-19T10:43:45Z</time>
      </trkpt>
      <trkpt lat="44.60349" lon="5.9153">
        <ele>1494.4</ele>
        <time>2023-05-19T10:43:46Z</time>
      </trkpt>
      <trkpt lat="44.60349" lon="5.91533">
        <ele>1494.4</ele>
        <time>2023-05-19T10:43:47Z</time>
      </trkpt>
      <trkpt lat="44.60349" lon="5.91535">
        <ele>1494.6</ele>
        <time>2023-05-19T10:43:48Z</time>
      </trkpt>
      <trkpt lat="44.60349" lon="5.91537">
        <ele>1494.8</ele>
        <time>2023-05-19T10:43:49Z</time>
      </trkpt>
      <trkpt lat="44.60349" lon="5.91538">
        <ele>1494.8</ele>
        <time>2023-05-19T10:43:50Z</time>
      </trkpt>
      <trkpt lat="44.60349" lon="5.91538">
        <ele>1495.2</ele>
        <time>2023-05-19T10:43:51Z</time>
      </trkpt>
      <trkpt lat="44.60349" lon="5.91538">
        <ele>1495.2</ele>
        <time>2023-05-19T10:43:52Z</time>
      </trkpt>
      <trkpt lat="44.60348" lon="5.9154">
        <ele>1495.4</ele>
        <time>2023-05-19T10:43:53Z</time>
      </trkpt>
      <trkpt lat="44.60348" lon="5.91542">
        <ele>1495.4</ele>
        <time>2023-05-19T10:43:54Z</time>
      </trkpt>
      <trkpt lat="44.60347" lon="5.91543">
        <ele>1495.6</ele>
        <time>2023-05-19T10:43:55Z</time>
      </trkpt>
      <trkpt lat="44.60346" lon="5.91545">
        <ele>1495.8</ele>
        <time>2023-05-19T10:43:56Z</time>
      </trkpt>
      <trkpt lat="44.60346" lon="5.91546">
        <ele>1495.8</ele>
        <time>2023-05-19T10:43:57Z</time>
      </trkpt>
      <trkpt lat="44.60346" lon="5.91546">
        <ele>1496</ele>
        <time>2023-05-19T10:43:58Z</time>
      </trkpt>
      <trkpt lat="44.60346" lon="5.91547">
        <ele>1496.2</ele>
        <time>2023-05-19T10:43:59Z</time>
      </trkpt>
      <trkpt lat="44.60347" lon="5.9155">
        <ele>1496.2</ele>
        <time>2023-05-19T10:44:00Z</time>
      </trkpt>
      <trkpt lat="44.60347" lon="5.91553">
        <ele>1496.4</ele>
        <time>2023-05-19T10:44:01Z</time>
      </trkpt>
      <trkpt lat="44.60347" lon="5.91554">
        <ele>1496.4</ele>
        <time>2023-05-19T10:44:02Z</time>
      </trkpt>
      <trkpt lat="44.60347" lon="5.91556">
        <ele>1496.6</ele>
        <time>2023-05-19T10:44:03Z</time>
      </trkpt>
      <trkpt lat="44.60347" lon="5.91559">
        <ele>1496.8</ele>
        <time>2023-05-19T10:44:04Z</time>
      </trkpt>
      <trkpt lat="44.60346" lon="5.91563">
        <ele>1496.8</ele>
        <time>2023-05-19T10:44:05Z</time>
      </trkpt>
      <trkpt lat="44.60346" lon="5.91566">
        <ele>1497</ele>
        <time>2023-05-19T10:44:06Z</time>
      </trkpt>
      <trkpt lat="44.60346" lon="5.91569">
        <ele>1497.2</ele>
        <time>2023-05-19T10:44:07Z</time>
      </trkpt>
      <trkpt lat="44.60346" lon="5.91573">
        <ele>1497.4</ele>
        <time>2023-05-19T10:44:08Z</time>
      </trkpt>
      <trkpt lat="44.60346" lon="5.91573">
        <ele>1497.6</ele>
        <time>2023-05-19T10:44:09Z</time>
      </trkpt>
      <trkpt lat="44.60346" lon="5.91574">
        <ele>1497.6</ele>
        <time>2023-05-19T10:44:10Z</time>
      </trkpt>
      <trkpt lat="44.60346" lon="5.91575">
        <ele>1497.8</ele>
        <time>2023-05-19T10:44:11Z</time>
      </trkpt>
      <trkpt lat="44.60346" lon="5.91575">
        <ele>1498</ele>
        <time>2023-05-19T10:44:12Z</time>
      </trkpt>
      <trkpt lat="44.60345" lon="5.91577">
        <ele>1498.2</ele>
        <time>2023-05-19T10:44:13Z</time>
      </trkpt>
      <trkpt lat="44.60345" lon="5.91576">
        <ele>1498.4</ele>
        <time>2023-05-19T10:44:14Z</time>
      </trkpt>
      <trkpt lat="44.60344" lon="5.91578">
        <ele>1498.4</ele>
        <time>2023-05-19T10:44:15Z</time>
      </trkpt>
      <trkpt lat="44.60344" lon="5.91579">
        <ele>1498.6</ele>
        <time>2023-05-19T10:44:16Z</time>
      </trkpt>
      <trkpt lat="44.60344" lon="5.9158">
        <ele>1498.4</ele>
        <time>2023-05-19T10:44:17Z</time>
      </trkpt>
      <trkpt lat="44.60344" lon="5.91582">
        <ele>1498.6</ele>
        <time>2023-05-19T10:44:18Z</time>
      </trkpt>
      <trkpt lat="44.60344" lon="5.91584">
        <ele>1498.8</ele>
        <time>2023-05-19T10:44:19Z</time>
      </trkpt>
      <trkpt lat="44.60344" lon="5.91586">
        <ele>1499</ele>
        <time>2023-05-19T10:44:20Z</time>
      </trkpt>
      <trkpt lat="44.60344" lon="5.91589">
        <ele>1499.2</ele>
        <time>2023-05-19T10:44:21Z</time>
      </trkpt>
      <trkpt lat="44.60344" lon="5.91593">
        <ele>1499.2</ele>
        <time>2023-05-19T10:44:22Z</time>
      </trkpt>
      <trkpt lat="44.60344" lon="5.91598">
        <ele>1499.4</ele>
        <time>2023-05-19T10:44:23Z</time>
      </trkpt>
      <trkpt lat="44.60344" lon="5.916">
        <ele>1499.4</ele>
        <time>2023-05-19T10:44:24Z</time>
      </trkpt>
      <trkpt lat="44.60343" lon="5.91602">
        <ele>1499.6</ele>
        <time>2023-05-19T10:44:25Z</time>
      </trkpt>
      <trkpt lat="44.60343" lon="5.91602">
        <ele>1499.8</ele>
        <time>2023-05-19T10:44:26Z</time>
      </trkpt>
      <trkpt lat="44.60344" lon="5.91604">
        <ele>1500</ele>
        <time>2023-05-19T10:44:27Z</time>
      </trkpt>
      <trkpt lat="44.60344" lon="5.91606">
        <ele>1500.2</ele>
        <time>2023-05-19T10:44:28Z</time>
      </trkpt>
      <trkpt lat="44.60343" lon="5.91608">
        <ele>1500.2</ele>
        <time>2023-05-19T10:44:29Z</time>
      </trkpt>
      <trkpt lat="44.60343" lon="5.91611">
        <ele>1500.4</ele>
        <time>2023-05-19T10:44:30Z</time>
      </trkpt>
      <trkpt lat="44.60343" lon="5.91611">
        <ele>1500.6</ele>
        <time>2023-05-19T10:44:31Z</time>
      </trkpt>
      <trkpt lat="44.60343" lon="5.91611">
        <ele>1500.8</ele>
        <time>2023-05-19T10:44:32Z</time>
      </trkpt>
      <trkpt lat="44.60343" lon="5.91612">
        <ele>1501</ele>
        <time>2023-05-19T10:44:33Z</time>
      </trkpt>
      <trkpt lat="44.60343" lon="5.91615">
        <ele>1501.2</ele>
        <time>2023-05-19T10:44:34Z</time>
      </trkpt>
      <trkpt lat="44.60343" lon="5.91617">
        <ele>1501.2</ele>
        <time>2023-05-19T10:44:35Z</time>
      </trkpt>
      <trkpt lat="44.60343" lon="5.91618">
        <ele>1501.4</ele>
        <time>2023-05-19T10:44:36Z</time>
      </trkpt>
      <trkpt lat="44.60343" lon="5.91618">
        <ele>1501.6</ele>
        <time>2023-05-19T10:44:37Z</time>
      </trkpt>
      <trkpt lat="44.60343" lon="5.91619">
        <ele>1501.8</ele>
        <time>2023-05-19T10:44:38Z</time>
      </trkpt>
      <trkpt lat="44.60343" lon="5.91622">
        <ele>1502</ele>
        <time>2023-05-19T10:44:39Z</time>
      </trkpt>
      <trkpt lat="44.60343" lon="5.91625">
        <ele>1502</ele>
        <time>2023-05-19T10:44:40Z</time>
      </trkpt>
      <trkpt lat="44.60342" lon="5.91628">
        <ele>1502.4</ele>
        <time>2023-05-19T10:44:41Z</time>
      </trkpt>
      <trkpt lat="44.60342" lon="5.9163">
        <ele>1502.4</ele>
        <time>2023-05-19T10:44:42Z</time>
      </trkpt>
      <trkpt lat="44.60342" lon="5.91632">
        <ele>1502.6</ele>
        <time>2023-05-19T10:44:43Z</time>
      </trkpt>
      <trkpt lat="44.60343" lon="5.91635">
        <ele>1502.6</ele>
        <time>2023-05-19T10:44:44Z</time>
      </trkpt>
      <trkpt lat="44.60345" lon="5.91637">
        <ele>1502.8</ele>
        <time>2023-05-19T10:44:45Z</time>
      </trkpt>
      <trkpt lat="44.60344" lon="5.91638">
        <ele>1503.2</ele>
        <time>2023-05-19T10:44:46Z</time>
      </trkpt>
      <trkpt lat="44.60344" lon="5.91641">
        <ele>1503.2</ele>
        <time>2023-05-19T10:44:47Z</time>
      </trkpt>
      <trkpt lat="44.60345" lon="5.91644">
        <ele>1503.4</ele>
        <time>2023-05-19T10:44:48Z</time>
      </trkpt>
      <trkpt lat="44.60345" lon="5.91644">
        <ele>1503.6</ele>
        <time>2023-05-19T10:44:49Z</time>
      </trkpt>
      <trkpt lat="44.60345" lon="5.91645">
        <ele>1503.6</ele>
        <time>2023-05-19T10:44:50Z</time>
      </trkpt>
      <trkpt lat="44.60344" lon="5.91646">
        <ele>1503.6</ele>
        <time>2023-05-19T10:44:51Z</time>
      </trkpt>
      <trkpt lat="44.60344" lon="5.91648">
        <ele>1503.8</ele>
        <time>2023-05-19T10:44:52Z</time>
      </trkpt>
      <trkpt lat="44.60344" lon="5.91649">
        <ele>1503.8</ele>
        <time>2023-05-19T10:44:53Z</time>
      </trkpt>
      <trkpt lat="44.60344" lon="5.9165">
        <ele>1503.8</ele>
        <time>2023-05-19T10:44:54Z</time>
      </trkpt>
      <trkpt lat="44.60343" lon="5.9165">
        <ele>1503.8</ele>
        <time>2023-05-19T10:44:55Z</time>
      </trkpt>
      <trkpt lat="44.60343" lon="5.91651">
        <ele>1504</ele>
        <time>2023-05-19T10:44:56Z</time>
      </trkpt>
      <trkpt lat="44.60342" lon="5.91653">
        <ele>1504.2</ele>
        <time>2023-05-19T10:44:57Z</time>
      </trkpt>
      <trkpt lat="44.60342" lon="5.91655">
        <ele>1504.4</ele>
        <time>2023-05-19T10:44:58Z</time>
      </trkpt>
      <trkpt lat="44.60341" lon="5.91657">
        <ele>1504.6</ele>
        <time>2023-05-19T10:44:59Z</time>
      </trkpt>
      <trkpt lat="44.60342" lon="5.91659">
        <ele>1504.8</ele>
        <time>2023-05-19T10:45:00Z</time>
      </trkpt>
      <trkpt lat="44.60341" lon="5.91662">
        <ele>1504.8</ele>
        <time>2023-05-19T10:45:01Z</time>
      </trkpt>
      <trkpt lat="44.60342" lon="5.91665">
        <ele>1505</ele>
        <time>2023-05-19T10:45:02Z</time>
      </trkpt>
      <trkpt lat="44.60343" lon="5.91667">
        <ele>1505.2</ele>
        <time>2023-05-19T10:45:03Z</time>
      </trkpt>
      <trkpt lat="44.60343" lon="5.91668">
        <ele>1505.4</ele>
        <time>2023-05-19T10:45:04Z</time>
      </trkpt>
      <trkpt lat="44.60343" lon="5.91669">
        <ele>1505.6</ele>
        <time>2023-05-19T10:45:05Z</time>
      </trkpt>
      <trkpt lat="44.60343" lon="5.91669">
        <ele>1505.8</ele>
        <time>2023-05-19T10:45:06Z</time>
      </trkpt>
      <trkpt lat="44.60343" lon="5.91671">
        <ele>1505.8</ele>
        <time>2023-05-19T10:45:07Z</time>
      </trkpt>
      <trkpt lat="44.60343" lon="5.91674">
        <ele>1506.2</ele>
        <time>2023-05-19T10:45:08Z</time>
      </trkpt>
      <trkpt lat="44.60344" lon="5.91676">
        <ele>1506.4</ele>
        <time>2023-05-19T10:45:09Z</time>
      </trkpt>
      <trkpt lat="44.60344" lon="5.91679">
        <ele>1506.6</ele>
        <time>2023-05-19T10:45:10Z</time>
      </trkpt>
      <trkpt lat="44.60344" lon="5.91681">
        <ele>1506.8</ele>
        <time>2023-05-19T10:45:11Z</time>
      </trkpt>
      <trkpt lat="44.60345" lon="5.91684">
        <ele>1506.8</ele>
        <time>2023-05-19T10:45:12Z</time>
      </trkpt>
      <trkpt lat="44.60345" lon="5.91686">
        <ele>1507</ele>
        <time>2023-05-19T10:45:13Z</time>
      </trkpt>
      <trkpt lat="44.60345" lon="5.91687">
        <ele>1507.2</ele>
        <time>2023-05-19T10:45:14Z</time>
      </trkpt>
      <trkpt lat="44.60345" lon="5.9169">
        <ele>1507.4</ele>
        <time>2023-05-19T10:45:15Z</time>
      </trkpt>
      <trkpt lat="44.60344" lon="5.9169">
        <ele>1507.6</ele>
        <time>2023-05-19T10:45:16Z</time>
      </trkpt>
      <trkpt lat="44.60344" lon="5.91691">
        <ele>1507.6</ele>
        <time>2023-05-19T10:45:17Z</time>
      </trkpt>
      <trkpt lat="44.60344" lon="5.91691">
        <ele>1507.8</ele>
        <time>2023-05-19T10:45:18Z</time>
      </trkpt>
      <trkpt lat="44.60344" lon="5.91693">
        <ele>1507.8</ele>
        <time>2023-05-19T10:45:19Z</time>
      </trkpt>
      <trkpt lat="44.60343" lon="5.91696">
        <ele>1508</ele>
        <time>2023-05-19T10:45:20Z</time>
      </trkpt>
      <trkpt lat="44.60342" lon="5.91697">
        <ele>1508</ele>
        <time>2023-05-19T10:45:21Z</time>
      </trkpt>
      <trkpt lat="44.60343" lon="5.91698">
        <ele>1508</ele>
        <time>2023-05-19T10:45:22Z</time>
      </trkpt>
      <trkpt lat="44.60342" lon="5.917">
        <ele>1508.2</ele>
        <time>2023-05-19T10:45:23Z</time>
      </trkpt>
      <trkpt lat="44.60341" lon="5.91701">
        <ele>1508.4</ele>
        <time>2023-05-19T10:45:24Z</time>
      </trkpt>
      <trkpt lat="44.6034" lon="5.91703">
        <ele>1508.4</ele>
        <time>2023-05-19T10:45:25Z</time>
      </trkpt>
      <trkpt lat="44.6034" lon="5.91706">
        <ele>1508.4</ele>
        <time>2023-05-19T10:45:26Z</time>
      </trkpt>
      <trkpt lat="44.60339" lon="5.91709">
        <ele>1508.6</ele>
        <time>2023-05-19T10:45:27Z</time>
      </trkpt>
      <trkpt lat="44.60339" lon="5.91711">
        <ele>1508.8</ele>
        <time>2023-05-19T10:45:28Z</time>
      </trkpt>
      <trkpt lat="44.60339" lon="5.91711">
        <ele>1508.8</ele>
        <time>2023-05-19T10:45:29Z</time>
      </trkpt>
      <trkpt lat="44.60339" lon="5.91711">
        <ele>1508.8</ele>
        <time>2023-05-19T10:45:30Z</time>
      </trkpt>
      <trkpt lat="44.60339" lon="5.91713">
        <ele>1509</ele>
        <time>2023-05-19T10:45:31Z</time>
      </trkpt>
      <trkpt lat="44.60338" lon="5.91715">
        <ele>1509.2</ele>
        <time>2023-05-19T10:45:32Z</time>
      </trkpt>
      <trkpt lat="44.60337" lon="5.91718">
        <ele>1509.2</ele>
        <time>2023-05-19T10:45:33Z</time>
      </trkpt>
      <trkpt lat="44.60337" lon="5.91719">
        <ele>1509.4</ele>
        <time>2023-05-19T10:45:34Z</time>
      </trkpt>
      <trkpt lat="44.60336" lon="5.91721">
        <ele>1509.6</ele>
        <time>2023-05-19T10:45:35Z</time>
      </trkpt>
      <trkpt lat="44.60335" lon="5.91723">
        <ele>1509.6</ele>
        <time>2023-05-19T10:45:36Z</time>
      </trkpt>
      <trkpt lat="44.60335" lon="5.91723">
        <ele>1509.8</ele>
        <time>2023-05-19T10:45:37Z</time>
      </trkpt>
      <trkpt lat="44.60335" lon="5.91724">
        <ele>1510</ele>
        <time>2023-05-19T10:45:38Z</time>
      </trkpt>
      <trkpt lat="44.60335" lon="5.91726">
        <ele>1510.2</ele>
        <time>2023-05-19T10:45:39Z</time>
      </trkpt>
      <trkpt lat="44.60334" lon="5.91727">
        <ele>1510.2</ele>
        <time>2023-05-19T10:45:40Z</time>
      </trkpt>
      <trkpt lat="44.60333" lon="5.91728">
        <ele>1510.4</ele>
        <time>2023-05-19T10:45:41Z</time>
      </trkpt>
      <trkpt lat="44.60332" lon="5.91729">
        <ele>1510.4</ele>
        <time>2023-05-19T10:45:42Z</time>
      </trkpt>
      <trkpt lat="44.60331" lon="5.9173">
        <ele>1510.6</ele>
        <time>2023-05-19T10:45:43Z</time>
      </trkpt>
      <trkpt lat="44.60331" lon="5.9173">
        <ele>1510.8</ele>
        <time>2023-05-19T10:45:44Z</time>
      </trkpt>
      <trkpt lat="44.6033" lon="5.91732">
        <ele>1510.8</ele>
        <time>2023-05-19T10:45:45Z</time>
      </trkpt>
      <trkpt lat="44.6033" lon="5.91734">
        <ele>1511</ele>
        <time>2023-05-19T10:45:46Z</time>
      </trkpt>
      <trkpt lat="44.60329" lon="5.91735">
        <ele>1511.2</ele>
        <time>2023-05-19T10:45:47Z</time>
      </trkpt>
      <trkpt lat="44.60328" lon="5.91736">
        <ele>1511.4</ele>
        <time>2023-05-19T10:45:48Z</time>
      </trkpt>
      <trkpt lat="44.60328" lon="5.91738">
        <ele>1511.6</ele>
        <time>2023-05-19T10:45:49Z</time>
      </trkpt>
      <trkpt lat="44.60327" lon="5.9174">
        <ele>1511.6</ele>
        <time>2023-05-19T10:45:50Z</time>
      </trkpt>
      <trkpt lat="44.60326" lon="5.91743">
        <ele>1511.8</ele>
        <time>2023-05-19T10:45:51Z</time>
      </trkpt>
      <trkpt lat="44.60325" lon="5.91747">
        <ele>1512</ele>
        <time>2023-05-19T10:45:52Z</time>
      </trkpt>
      <trkpt lat="44.60324" lon="5.91751">
        <ele>1512</ele>
        <time>2023-05-19T10:45:53Z</time>
      </trkpt>
      <trkpt lat="44.60324" lon="5.91755">
        <ele>1512.2</ele>
        <time>2023-05-19T10:45:54Z</time>
      </trkpt>
      <trkpt lat="44.60324" lon="5.91755">
        <ele>1512.2</ele>
        <time>2023-05-19T10:45:55Z</time>
      </trkpt>
      <trkpt lat="44.60323" lon="5.91755">
        <ele>1512.4</ele>
        <time>2023-05-19T10:45:56Z</time>
      </trkpt>
      <trkpt lat="44.60323" lon="5.91757">
        <ele>1512.4</ele>
        <time>2023-05-19T10:45:57Z</time>
      </trkpt>
      <trkpt lat="44.60322" lon="5.91758">
        <ele>1512.6</ele>
        <time>2023-05-19T10:45:58Z</time>
      </trkpt>
      <trkpt lat="44.60322" lon="5.9176">
        <ele>1512.8</ele>
        <time>2023-05-19T10:45:59Z</time>
      </trkpt>
      <trkpt lat="44.60321" lon="5.91762">
        <ele>1512.8</ele>
        <time>2023-05-19T10:46:00Z</time>
      </trkpt>
      <trkpt lat="44.60321" lon="5.91764">
        <ele>1513</ele>
        <time>2023-05-19T10:46:01Z</time>
      </trkpt>
      <trkpt lat="44.6032" lon="5.91765">
        <ele>1513.2</ele>
        <time>2023-05-19T10:46:02Z</time>
      </trkpt>
      <trkpt lat="44.60319" lon="5.91766">
        <ele>1513.2</ele>
        <time>2023-05-19T10:46:03Z</time>
      </trkpt>
      <trkpt lat="44.60318" lon="5.91768">
        <ele>1513.6</ele>
        <time>2023-05-19T10:46:04Z</time>
      </trkpt>
      <trkpt lat="44.60317" lon="5.91771">
        <ele>1513.6</ele>
        <time>2023-05-19T10:46:05Z</time>
      </trkpt>
      <trkpt lat="44.60316" lon="5.91773">
        <ele>1513.8</ele>
        <time>2023-05-19T10:46:06Z</time>
      </trkpt>
      <trkpt lat="44.60315" lon="5.91775">
        <ele>1513.8</ele>
        <time>2023-05-19T10:46:07Z</time>
      </trkpt>
      <trkpt lat="44.60314" lon="5.91778">
        <ele>1514</ele>
        <time>2023-05-19T10:46:08Z</time>
      </trkpt>
      <trkpt lat="44.60313" lon="5.91779">
        <ele>1513.8</ele>
        <time>2023-05-19T10:46:09Z</time>
      </trkpt>
      <trkpt lat="44.60312" lon="5.9178">
        <ele>1514</ele>
        <time>2023-05-19T10:46:10Z</time>
      </trkpt>
      <trkpt lat="44.60312" lon="5.91782">
        <ele>1514.2</ele>
        <time>2023-05-19T10:46:11Z</time>
      </trkpt>
      <trkpt lat="44.6031" lon="5.91784">
        <ele>1514.2</ele>
        <time>2023-05-19T10:46:12Z</time>
      </trkpt>
      <trkpt lat="44.6031" lon="5.9179">
        <ele>1514.4</ele>
        <time>2023-05-19T10:46:13Z</time>
      </trkpt>
      <trkpt lat="44.6031" lon="5.91795">
        <ele>1514.4</ele>
        <time>2023-05-19T10:46:14Z</time>
      </trkpt>
      <trkpt lat="44.6031" lon="5.91798">
        <ele>1514.6</ele>
        <time>2023-05-19T10:46:15Z</time>
      </trkpt>
      <trkpt lat="44.60309" lon="5.91801">
        <ele>1514.6</ele>
        <time>2023-05-19T10:46:16Z</time>
      </trkpt>
      <trkpt lat="44.60308" lon="5.91803">
        <ele>1514.8</ele>
        <time>2023-05-19T10:46:17Z</time>
      </trkpt>
      <trkpt lat="44.60307" lon="5.91804">
        <ele>1514.8</ele>
        <time>2023-05-19T10:46:18Z</time>
      </trkpt>
      <trkpt lat="44.60305" lon="5.91806">
        <ele>1515</ele>
        <time>2023-05-19T10:46:19Z</time>
      </trkpt>
      <trkpt lat="44.60304" lon="5.91807">
        <ele>1515.2</ele>
        <time>2023-05-19T10:46:20Z</time>
      </trkpt>
      <trkpt lat="44.60303" lon="5.91808">
        <ele>1515.4</ele>
        <time>2023-05-19T10:46:21Z</time>
      </trkpt>
      <trkpt lat="44.60301" lon="5.91809">
        <ele>1515.6</ele>
        <time>2023-05-19T10:46:22Z</time>
      </trkpt>
      <trkpt lat="44.60302" lon="5.91813">
        <ele>1515.8</ele>
        <time>2023-05-19T10:46:23Z</time>
      </trkpt>
      <trkpt lat="44.60303" lon="5.91817">
        <ele>1516</ele>
        <time>2023-05-19T10:46:24Z</time>
      </trkpt>
      <trkpt lat="44.60302" lon="5.9182">
        <ele>1516</ele>
        <time>2023-05-19T10:46:25Z</time>
      </trkpt>
      <trkpt lat="44.60301" lon="5.91821">
        <ele>1516.2</ele>
        <time>2023-05-19T10:46:26Z</time>
      </trkpt>
      <trkpt lat="44.60299" lon="5.91825">
        <ele>1516.2</ele>
        <time>2023-05-19T10:46:27Z</time>
      </trkpt>
      <trkpt lat="44.60298" lon="5.91827">
        <ele>1516.2</ele>
        <time>2023-05-19T10:46:28Z</time>
      </trkpt>
      <trkpt lat="44.60296" lon="5.91828">
        <ele>1516.4</ele>
        <time>2023-05-19T10:46:29Z</time>
      </trkpt>
      <trkpt lat="44.60295" lon="5.9183">
        <ele>1516.4</ele>
        <time>2023-05-19T10:46:30Z</time>
      </trkpt>
      <trkpt lat="44.60295" lon="5.91833">
        <ele>1516.8</ele>
        <time>2023-05-19T10:46:31Z</time>
      </trkpt>
      <trkpt lat="44.60295" lon="5.91833">
        <ele>1516.8</ele>
        <time>2023-05-19T10:46:32Z</time>
      </trkpt>
      <trkpt lat="44.60294" lon="5.91833">
        <ele>1517</ele>
        <time>2023-05-19T10:46:33Z</time>
      </trkpt>
      <trkpt lat="44.60293" lon="5.91834">
        <ele>1517.2</ele>
        <time>2023-05-19T10:46:34Z</time>
      </trkpt>
      <trkpt lat="44.60291" lon="5.91834">
        <ele>1517.4</ele>
        <time>2023-05-19T10:46:35Z</time>
      </trkpt>
      <trkpt lat="44.60289" lon="5.91835">
        <ele>1517.6</ele>
        <time>2023-05-19T10:46:36Z</time>
      </trkpt>
      <trkpt lat="44.60288" lon="5.91836">
        <ele>1517.8</ele>
        <time>2023-05-19T10:46:37Z</time>
      </trkpt>
      <trkpt lat="44.60287" lon="5.91838">
        <ele>1517.8</ele>
        <time>2023-05-19T10:46:38Z</time>
      </trkpt>
      <trkpt lat="44.60286" lon="5.9184">
        <ele>1517.8</ele>
        <time>2023-05-19T10:46:39Z</time>
      </trkpt>
      <trkpt lat="44.60285" lon="5.91841">
        <ele>1518</ele>
        <time>2023-05-19T10:46:40Z</time>
      </trkpt>
      <trkpt lat="44.60283" lon="5.91842">
        <ele>1518</ele>
        <time>2023-05-19T10:46:41Z</time>
      </trkpt>
      <trkpt lat="44.60282" lon="5.91843">
        <ele>1518.2</ele>
        <time>2023-05-19T10:46:42Z</time>
      </trkpt>
      <trkpt lat="44.6028" lon="5.91843">
        <ele>1518.2</ele>
        <time>2023-05-19T10:46:43Z</time>
      </trkpt>
      <trkpt lat="44.60279" lon="5.91844">
        <ele>1518</ele>
        <time>2023-05-19T10:46:44Z</time>
      </trkpt>
      <trkpt lat="44.60279" lon="5.91845">
        <ele>1518.2</ele>
        <time>2023-05-19T10:46:45Z</time>
      </trkpt>
      <trkpt lat="44.60278" lon="5.91847">
        <ele>1518.4</ele>
        <time>2023-05-19T10:46:46Z</time>
      </trkpt>
      <trkpt lat="44.60277" lon="5.91849">
        <ele>1518.6</ele>
        <time>2023-05-19T10:46:47Z</time>
      </trkpt>
      <trkpt lat="44.60277" lon="5.9185">
        <ele>1518.6</ele>
        <time>2023-05-19T10:46:48Z</time>
      </trkpt>
      <trkpt lat="44.60275" lon="5.9185">
        <ele>1518.8</ele>
        <time>2023-05-19T10:46:49Z</time>
      </trkpt>
      <trkpt lat="44.60275" lon="5.9185">
        <ele>1518.8</ele>
        <time>2023-05-19T10:46:50Z</time>
      </trkpt>
      <trkpt lat="44.60275" lon="5.91851">
        <ele>1519</ele>
        <time>2023-05-19T10:46:51Z</time>
      </trkpt>
      <trkpt lat="44.60275" lon="5.91853">
        <ele>1519</ele>
        <time>2023-05-19T10:46:52Z</time>
      </trkpt>
      <trkpt lat="44.60276" lon="5.91856">
        <ele>1519.4</ele>
        <time>2023-05-19T10:46:53Z</time>
      </trkpt>
      <trkpt lat="44.60276" lon="5.91857">
        <ele>1519.6</ele>
        <time>2023-05-19T10:46:54Z</time>
      </trkpt>
      <trkpt lat="44.60276" lon="5.91856">
        <ele>1519.6</ele>
        <time>2023-05-19T10:46:55Z</time>
      </trkpt>
      <trkpt lat="44.60275" lon="5.91856">
        <ele>1519.6</ele>
        <time>2023-05-19T10:46:56Z</time>
      </trkpt>
      <trkpt lat="44.60275" lon="5.91856">
        <ele>1519.6</ele>
        <time>2023-05-19T10:46:57Z</time>
      </trkpt>
      <trkpt lat="44.60274" lon="5.91856">
        <ele>1519.8</ele>
        <time>2023-05-19T10:46:58Z</time>
      </trkpt>
      <trkpt lat="44.60272" lon="5.91856">
        <ele>1519.8</ele>
        <time>2023-05-19T10:46:59Z</time>
      </trkpt>
      <trkpt lat="44.60271" lon="5.91857">
        <ele>1519.8</ele>
        <time>2023-05-19T10:47:00Z</time>
      </trkpt>
      <trkpt lat="44.6027" lon="5.91858">
        <ele>1520.2</ele>
        <time>2023-05-19T10:47:01Z</time>
      </trkpt>
      <trkpt lat="44.60271" lon="5.91859">
        <ele>1520.4</ele>
        <time>2023-05-19T10:47:02Z</time>
      </trkpt>
      <trkpt lat="44.60271" lon="5.91859">
        <ele>1520.6</ele>
        <time>2023-05-19T10:47:03Z</time>
      </trkpt>
      <trkpt lat="44.60271" lon="5.91859">
        <ele>1520.8</ele>
        <time>2023-05-19T10:47:04Z</time>
      </trkpt>
      <trkpt lat="44.60271" lon="5.91859">
        <ele>1520.8</ele>
        <time>2023-05-19T10:47:05Z</time>
      </trkpt>
      <trkpt lat="44.60271" lon="5.91862">
        <ele>1521</ele>
        <time>2023-05-19T10:47:06Z</time>
      </trkpt>
      <trkpt lat="44.60271" lon="5.91862">
        <ele>1521</ele>
        <time>2023-05-19T10:47:07Z</time>
      </trkpt>
      <trkpt lat="44.60271" lon="5.91862">
        <ele>1521.2</ele>
        <time>2023-05-19T10:47:08Z</time>
      </trkpt>
      <trkpt lat="44.60271" lon="5.91862">
        <ele>1521.4</ele>
        <time>2023-05-19T10:47:09Z</time>
      </trkpt>
      <trkpt lat="44.60271" lon="5.91864">
        <ele>1521.8</ele>
        <time>2023-05-19T10:47:10Z</time>
      </trkpt>
      <trkpt lat="44.60271" lon="5.91867">
        <ele>1521.8</ele>
        <time>2023-05-19T10:47:11Z</time>
      </trkpt>
      <trkpt lat="44.6027" lon="5.9187">
        <ele>1522</ele>
        <time>2023-05-19T10:47:12Z</time>
      </trkpt>
      <trkpt lat="44.6027" lon="5.91874">
        <ele>1522</ele>
        <time>2023-05-19T10:47:13Z</time>
      </trkpt>
      <trkpt lat="44.60269" lon="5.91876">
        <ele>1522</ele>
        <time>2023-05-19T10:47:14Z</time>
      </trkpt>
      <trkpt lat="44.60269" lon="5.91878">
        <ele>1522.2</ele>
        <time>2023-05-19T10:47:15Z</time>
      </trkpt>
      <trkpt lat="44.60269" lon="5.9188">
        <ele>1522.2</ele>
        <time>2023-05-19T10:47:16Z</time>
      </trkpt>
      <trkpt lat="44.60269" lon="5.91881">
        <ele>1522.2</ele>
        <time>2023-05-19T10:47:17Z</time>
      </trkpt>
      <trkpt lat="44.60269" lon="5.91881">
        <ele>1522.2</ele>
        <time>2023-05-19T10:47:18Z</time>
      </trkpt>
      <trkpt lat="44.60269" lon="5.91882">
        <ele>1522.2</ele>
        <time>2023-05-19T10:47:19Z</time>
      </trkpt>
      <trkpt lat="44.60269" lon="5.91882">
        <ele>1522.6</ele>
        <time>2023-05-19T10:47:26Z</time>
      </trkpt>
      <trkpt lat="44.60269" lon="5.91882">
        <ele>1522.6</ele>
        <time>2023-05-19T10:47:30Z</time>
      </trkpt>
      <trkpt lat="44.60269" lon="5.91882">
        <ele>1523</ele>
        <time>2023-05-19T10:47:40Z</time>
      </trkpt>
      <trkpt lat="44.60268" lon="5.91882">
        <ele>1522.6</ele>
        <time>2023-05-19T10:48:02Z</time>
      </trkpt>
      <trkpt lat="44.60265" lon="5.91884">
        <ele>1522.6</ele>
        <time>2023-05-19T10:48:07Z</time>
      </trkpt>
      <trkpt lat="44.60264" lon="5.91887">
        <ele>1522.8</ele>
        <time>2023-05-19T10:48:09Z</time>
      </trkpt>
      <trkpt lat="44.60263" lon="5.91888">
        <ele>1523</ele>
        <time>2023-05-19T10:48:13Z</time>
      </trkpt>
      <trkpt lat="44.60262" lon="5.91889">
        <ele>1523</ele>
        <time>2023-05-19T10:48:14Z</time>
      </trkpt>
      <trkpt lat="44.60261" lon="5.9189">
        <ele>1523.4</ele>
        <time>2023-05-19T10:48:16Z</time>
      </trkpt>
      <trkpt lat="44.60261" lon="5.91891">
        <ele>1523.6</ele>
        <time>2023-05-19T10:48:17Z</time>
      </trkpt>
      <trkpt lat="44.60259" lon="5.91892">
        <ele>1523.8</ele>
        <time>2023-05-19T10:48:19Z</time>
      </trkpt>
      <trkpt lat="44.60259" lon="5.91892">
        <ele>1524</ele>
        <time>2023-05-19T10:48:20Z</time>
      </trkpt>
      <trkpt lat="44.60259" lon="5.91892">
        <ele>1524.2</ele>
        <time>2023-05-19T10:48:21Z</time>
      </trkpt>
      <trkpt lat="44.60259" lon="5.91892">
        <ele>1524.4</ele>
        <time>2023-05-19T10:48:22Z</time>
      </trkpt>
      <trkpt lat="44.60258" lon="5.91894">
        <ele>1524.8</ele>
        <time>2023-05-19T10:48:24Z</time>
      </trkpt>
      <trkpt lat="44.60258" lon="5.91894">
        <ele>1525</ele>
        <time>2023-05-19T10:48:25Z</time>
      </trkpt>
      <trkpt lat="44.60258" lon="5.91894">
        <ele>1525</ele>
        <time>2023-05-19T10:48:26Z</time>
      </trkpt>
      <trkpt lat="44.60258" lon="5.91894">
        <ele>1525.4</ele>
        <time>2023-05-19T10:48:28Z</time>
      </trkpt>
      <trkpt lat="44.60258" lon="5.91895">
        <ele>1525.6</ele>
        <time>2023-05-19T10:48:29Z</time>
      </trkpt>
      <trkpt lat="44.60257" lon="5.91896">
        <ele>1525.8</ele>
        <time>2023-05-19T10:48:30Z</time>
      </trkpt>
      <trkpt lat="44.60255" lon="5.91897">
        <ele>1526</ele>
        <time>2023-05-19T10:48:31Z</time>
      </trkpt>
      <trkpt lat="44.60255" lon="5.91897">
        <ele>1526</ele>
        <time>2023-05-19T10:48:32Z</time>
      </trkpt>
      <trkpt lat="44.60255" lon="5.91898">
        <ele>1526.2</ele>
        <time>2023-05-19T10:48:33Z</time>
      </trkpt>
      <trkpt lat="44.60254" lon="5.91898">
        <ele>1526.4</ele>
        <time>2023-05-19T10:48:34Z</time>
      </trkpt>
      <trkpt lat="44.60253" lon="5.91898">
        <ele>1526.4</ele>
        <time>2023-05-19T10:48:35Z</time>
      </trkpt>
      <trkpt lat="44.60253" lon="5.91898">
        <ele>1526.4</ele>
        <time>2023-05-19T10:48:36Z</time>
      </trkpt>
      <trkpt lat="44.60253" lon="5.91898">
        <ele>1526.6</ele>
        <time>2023-05-19T10:48:37Z</time>
      </trkpt>
      <trkpt lat="44.60253" lon="5.919">
        <ele>1526.6</ele>
        <time>2023-05-19T10:48:38Z</time>
      </trkpt>
      <trkpt lat="44.60252" lon="5.91903">
        <ele>1526.8</ele>
        <time>2023-05-19T10:48:39Z</time>
      </trkpt>
      <trkpt lat="44.60251" lon="5.91903">
        <ele>1526.8</ele>
        <time>2023-05-19T10:48:40Z</time>
      </trkpt>
      <trkpt lat="44.6025" lon="5.91904">
        <ele>1527</ele>
        <time>2023-05-19T10:48:41Z</time>
      </trkpt>
      <trkpt lat="44.60248" lon="5.91904">
        <ele>1527</ele>
        <time>2023-05-19T10:48:42Z</time>
      </trkpt>
      <trkpt lat="44.60247" lon="5.91906">
        <ele>1527</ele>
        <time>2023-05-19T10:48:43Z</time>
      </trkpt>
      <trkpt lat="44.60246" lon="5.91908">
        <ele>1527.2</ele>
        <time>2023-05-19T10:48:44Z</time>
      </trkpt>
      <trkpt lat="44.60246" lon="5.91909">
        <ele>1527.2</ele>
        <time>2023-05-19T10:48:45Z</time>
      </trkpt>
      <trkpt lat="44.60246" lon="5.91909">
        <ele>1527.8</ele>
        <time>2023-05-19T10:48:46Z</time>
      </trkpt>
      <trkpt lat="44.60246" lon="5.91909">
        <ele>1528</ele>
        <time>2023-05-19T10:48:47Z</time>
      </trkpt>
      <trkpt lat="44.60245" lon="5.91909">
        <ele>1528.2</ele>
        <time>2023-05-19T10:48:48Z</time>
      </trkpt>
      <trkpt lat="44.60244" lon="5.9191">
        <ele>1528.2</ele>
        <time>2023-05-19T10:48:49Z</time>
      </trkpt>
      <trkpt lat="44.60244" lon="5.91911">
        <ele>1528.4</ele>
        <time>2023-05-19T10:48:50Z</time>
      </trkpt>
      <trkpt lat="44.60243" lon="5.91913">
        <ele>1528.6</ele>
        <time>2023-05-19T10:48:51Z</time>
      </trkpt>
      <trkpt lat="44.60243" lon="5.91914">
        <ele>1528.8</ele>
        <time>2023-05-19T10:48:52Z</time>
      </trkpt>
      <trkpt lat="44.60242" lon="5.91914">
        <ele>1529</ele>
        <time>2023-05-19T10:48:53Z</time>
      </trkpt>
      <trkpt lat="44.60241" lon="5.91914">
        <ele>1529.2</ele>
        <time>2023-05-19T10:48:54Z</time>
      </trkpt>
      <trkpt lat="44.60241" lon="5.91914">
        <ele>1529.6</ele>
        <time>2023-05-19T10:48:55Z</time>
      </trkpt>
      <trkpt lat="44.60241" lon="5.91914">
        <ele>1529.8</ele>
        <time>2023-05-19T10:48:57Z</time>
      </trkpt>
      <trkpt lat="44.6024" lon="5.91915">
        <ele>1530</ele>
        <time>2023-05-19T10:48:58Z</time>
      </trkpt>
      <trkpt lat="44.6024" lon="5.91916">
        <ele>1530</ele>
        <time>2023-05-19T10:48:59Z</time>
      </trkpt>
      <trkpt lat="44.6024" lon="5.91916">
        <ele>1530</ele>
        <time>2023-05-19T10:49:00Z</time>
      </trkpt>
      <trkpt lat="44.6024" lon="5.91916">
        <ele>1530.2</ele>
        <time>2023-05-19T10:49:01Z</time>
      </trkpt>
      <trkpt lat="44.60239" lon="5.91916">
        <ele>1530.2</ele>
        <time>2023-05-19T10:49:02Z</time>
      </trkpt>
      <trkpt lat="44.60239" lon="5.91916">
        <ele>1530.4</ele>
        <time>2023-05-19T10:49:03Z</time>
      </trkpt>
      <trkpt lat="44.60239" lon="5.91916">
        <ele>1530.8</ele>
        <time>2023-05-19T10:49:04Z</time>
      </trkpt>
      <trkpt lat="44.60239" lon="5.91916">
        <ele>1531</ele>
        <time>2023-05-19T10:49:05Z</time>
      </trkpt>
      <trkpt lat="44.60239" lon="5.91916">
        <ele>1531.2</ele>
        <time>2023-05-19T10:49:06Z</time>
      </trkpt>
      <trkpt lat="44.60239" lon="5.91916">
        <ele>1531.2</ele>
        <time>2023-05-19T10:49:07Z</time>
      </trkpt>
      <trkpt lat="44.60239" lon="5.91916">
        <ele>1531.4</ele>
        <time>2023-05-19T10:49:08Z</time>
      </trkpt>
      <trkpt lat="44.60239" lon="5.91918">
        <ele>1532</ele>
        <time>2023-05-19T10:49:12Z</time>
      </trkpt>
      <trkpt lat="44.60239" lon="5.91918">
        <ele>1532.6</ele>
        <time>2023-05-19T10:49:15Z</time>
      </trkpt>
      <trkpt lat="44.60238" lon="5.91919">
        <ele>1532.6</ele>
        <time>2023-05-19T10:49:16Z</time>
      </trkpt>
      <trkpt lat="44.60238" lon="5.91919">
        <ele>1532.8</ele>
        <time>2023-05-19T10:49:17Z</time>
      </trkpt>
      <trkpt lat="44.60238" lon="5.91919">
        <ele>1533</ele>
        <time>2023-05-19T10:49:19Z</time>
      </trkpt>
      <trkpt lat="44.60238" lon="5.91919">
        <ele>1533.2</ele>
        <time>2023-05-19T10:49:20Z</time>
      </trkpt>
      <trkpt lat="44.60238" lon="5.91919">
        <ele>1533.4</ele>
        <time>2023-05-19T10:49:21Z</time>
      </trkpt>
      <trkpt lat="44.60238" lon="5.91919">
        <ele>1533.6</ele>
        <time>2023-05-19T10:49:23Z</time>
      </trkpt>
      <trkpt lat="44.60237" lon="5.91923">
        <ele>1534</ele>
        <time>2023-05-19T10:49:27Z</time>
      </trkpt>
      <trkpt lat="44.60237" lon="5.91923">
        <ele>1534</ele>
        <time>2023-05-19T10:49:28Z</time>
      </trkpt>
      <trkpt lat="44.60237" lon="5.91923">
        <ele>1534.2</ele>
        <time>2023-05-19T10:49:29Z</time>
      </trkpt>
      <trkpt lat="44.60237" lon="5.91923">
        <ele>1534.4</ele>
        <time>2023-05-19T10:49:30Z</time>
      </trkpt>
      <trkpt lat="44.60237" lon="5.91923">
        <ele>1534.8</ele>
        <time>2023-05-19T10:49:31Z</time>
      </trkpt>
      <trkpt lat="44.60237" lon="5.91923">
        <ele>1534.8</ele>
        <time>2023-05-19T10:49:32Z</time>
      </trkpt>
      <trkpt lat="44.60237" lon="5.91924">
        <ele>1535</ele>
        <time>2023-05-19T10:49:33Z</time>
      </trkpt>
      <trkpt lat="44.60236" lon="5.91925">
        <ele>1535</ele>
        <time>2023-05-19T10:49:34Z</time>
      </trkpt>
      <trkpt lat="44.60236" lon="5.91926">
        <ele>1535.2</ele>
        <time>2023-05-19T10:49:35Z</time>
      </trkpt>
      <trkpt lat="44.60236" lon="5.91926">
        <ele>1535.4</ele>
        <time>2023-05-19T10:49:36Z</time>
      </trkpt>
      <trkpt lat="44.60236" lon="5.91926">
        <ele>1535.4</ele>
        <time>2023-05-19T10:49:37Z</time>
      </trkpt>
      <trkpt lat="44.60236" lon="5.91926">
        <ele>1535.6</ele>
        <time>2023-05-19T10:49:38Z</time>
      </trkpt>
      <trkpt lat="44.60236" lon="5.91926">
        <ele>1535.6</ele>
        <time>2023-05-19T10:49:39Z</time>
      </trkpt>
      <trkpt lat="44.60236" lon="5.91926">
        <ele>1535.8</ele>
        <time>2023-05-19T10:49:40Z</time>
      </trkpt>
      <trkpt lat="44.60236" lon="5.91926">
        <ele>1536</ele>
        <time>2023-05-19T10:49:41Z</time>
      </trkpt>
      <trkpt lat="44.60236" lon="5.91926">
        <ele>1536.2</ele>
        <time>2023-05-19T10:49:42Z</time>
      </trkpt>
      <trkpt lat="44.60236" lon="5.91926">
        <ele>1536.4</ele>
        <time>2023-05-19T10:49:43Z</time>
      </trkpt>
      <trkpt lat="44.60236" lon="5.91926">
        <ele>1536.8</ele>
        <time>2023-05-19T10:49:46Z</time>
      </trkpt>
      <trkpt lat="44.60235" lon="5.91928">
        <ele>1537.2</ele>
        <time>2023-05-19T10:49:49Z</time>
      </trkpt>
      <trkpt lat="44.60234" lon="5.9193">
        <ele>1537.8</ele>
        <time>2023-05-19T10:49:53Z</time>
      </trkpt>
      <trkpt lat="44.60234" lon="5.91933">
        <ele>1537.8</ele>
        <time>2023-05-19T10:49:54Z</time>
      </trkpt>
      <trkpt lat="44.60234" lon="5.91933">
        <ele>1538</ele>
        <time>2023-05-19T10:49:55Z</time>
      </trkpt>
      <trkpt lat="44.60234" lon="5.91935">
        <ele>1538.2</ele>
        <time>2023-05-19T10:49:58Z</time>
      </trkpt>
      <trkpt lat="44.60234" lon="5.91935">
        <ele>1538.4</ele>
        <time>2023-05-19T10:49:59Z</time>
      </trkpt>
      <trkpt lat="44.60234" lon="5.91935">
        <ele>1538.6</ele>
        <time>2023-05-19T10:50:00Z</time>
      </trkpt>
      <trkpt lat="44.60233" lon="5.91938">
        <ele>1539</ele>
        <time>2023-05-19T10:50:06Z</time>
      </trkpt>
      <trkpt lat="44.60233" lon="5.91942">
        <ele>1539.2</ele>
        <time>2023-05-19T10:50:07Z</time>
      </trkpt>
      <trkpt lat="44.60232" lon="5.91942">
        <ele>1539.4</ele>
        <time>2023-05-19T10:50:08Z</time>
      </trkpt>
      <trkpt lat="44.60232" lon="5.91942">
        <ele>1539.4</ele>
        <time>2023-05-19T10:50:09Z</time>
      </trkpt>
      <trkpt lat="44.60232" lon="5.91944">
        <ele>1539.8</ele>
        <time>2023-05-19T10:50:13Z</time>
      </trkpt>
      <trkpt lat="44.60232" lon="5.91944">
        <ele>1540.2</ele>
        <time>2023-05-19T10:50:14Z</time>
      </trkpt>
      <trkpt lat="44.60232" lon="5.91944">
        <ele>1540.2</ele>
        <time>2023-05-19T10:50:15Z</time>
      </trkpt>
      <trkpt lat="44.60232" lon="5.91944">
        <ele>1540.6</ele>
        <time>2023-05-19T10:50:17Z</time>
      </trkpt>
      <trkpt lat="44.60231" lon="5.91945">
        <ele>1541</ele>
        <time>2023-05-19T10:50:19Z</time>
      </trkpt>
      <trkpt lat="44.6023" lon="5.91946">
        <ele>1541.2</ele>
        <time>2023-05-19T10:50:21Z</time>
      </trkpt>
      <trkpt lat="44.6023" lon="5.91947">
        <ele>1541.2</ele>
        <time>2023-05-19T10:50:23Z</time>
      </trkpt>
      <trkpt lat="44.60229" lon="5.91948">
        <ele>1541.4</ele>
        <time>2023-05-19T10:50:25Z</time>
      </trkpt>
      <trkpt lat="44.60229" lon="5.91948">
        <ele>1541.6</ele>
        <time>2023-05-19T10:50:26Z</time>
      </trkpt>
      <trkpt lat="44.60229" lon="5.91948">
        <ele>1541.6</ele>
        <time>2023-05-19T10:50:27Z</time>
      </trkpt>
      <trkpt lat="44.60229" lon="5.91949">
        <ele>1541.8</ele>
        <time>2023-05-19T10:50:28Z</time>
      </trkpt>
      <trkpt lat="44.60229" lon="5.91949">
        <ele>1542</ele>
        <time>2023-05-19T10:50:29Z</time>
      </trkpt>
      <trkpt lat="44.60229" lon="5.91949">
        <ele>1542.2</ele>
        <time>2023-05-19T10:50:30Z</time>
      </trkpt>
      <trkpt lat="44.60228" lon="5.9195">
        <ele>1542.4</ele>
        <time>2023-05-19T10:50:31Z</time>
      </trkpt>
      <trkpt lat="44.60228" lon="5.9195">
        <ele>1542.6</ele>
        <time>2023-05-19T10:50:32Z</time>
      </trkpt>
      <trkpt lat="44.60228" lon="5.9195">
        <ele>1542.8</ele>
        <time>2023-05-19T10:50:33Z</time>
      </trkpt>
      <trkpt lat="44.60228" lon="5.9195">
        <ele>1543</ele>
        <time>2023-05-19T10:50:34Z</time>
      </trkpt>
      <trkpt lat="44.60228" lon="5.9195">
        <ele>1543.2</ele>
        <time>2023-05-19T10:50:35Z</time>
      </trkpt>
      <trkpt lat="44.60228" lon="5.9195">
        <ele>1543.2</ele>
        <time>2023-05-19T10:50:36Z</time>
      </trkpt>
      <trkpt lat="44.60228" lon="5.9195">
        <ele>1543.4</ele>
        <time>2023-05-19T10:50:37Z</time>
      </trkpt>
      <trkpt lat="44.60228" lon="5.9195">
        <ele>1543.6</ele>
        <time>2023-05-19T10:50:38Z</time>
      </trkpt>
      <trkpt lat="44.60227" lon="5.9195">
        <ele>1543.8</ele>
        <time>2023-05-19T10:50:39Z</time>
      </trkpt>
      <trkpt lat="44.60227" lon="5.91951">
        <ele>1543.8</ele>
        <time>2023-05-19T10:50:40Z</time>
      </trkpt>
      <trkpt lat="44.60227" lon="5.91951">
        <ele>1544</ele>
        <time>2023-05-19T10:50:41Z</time>
      </trkpt>
      <trkpt lat="44.60228" lon="5.91952">
        <ele>1544.4</ele>
        <time>2023-05-19T10:50:43Z</time>
      </trkpt>
      <trkpt lat="44.60228" lon="5.91952">
        <ele>1544.4</ele>
        <time>2023-05-19T10:50:44Z</time>
      </trkpt>
      <trkpt lat="44.60228" lon="5.91952">
        <ele>1544.6</ele>
        <time>2023-05-19T10:50:45Z</time>
      </trkpt>
      <trkpt lat="44.60228" lon="5.91952">
        <ele>1544.8</ele>
        <time>2023-05-19T10:50:46Z</time>
      </trkpt>
      <trkpt lat="44.60228" lon="5.91952">
        <ele>1544.8</ele>
        <time>2023-05-19T10:50:47Z</time>
      </trkpt>
      <trkpt lat="44.60227" lon="5.91953">
        <ele>1545.4</ele>
        <time>2023-05-19T10:50:50Z</time>
      </trkpt>
      <trkpt lat="44.60226" lon="5.91953">
        <ele>1545.6</ele>
        <time>2023-05-19T10:50:51Z</time>
      </trkpt>
      <trkpt lat="44.60226" lon="5.91953">
        <ele>1545.8</ele>
        <time>2023-05-19T10:50:52Z</time>
      </trkpt>
      <trkpt lat="44.60226" lon="5.91953">
        <ele>1545.8</ele>
        <time>2023-05-19T10:50:53Z</time>
      </trkpt>
      <trkpt lat="44.60225" lon="5.91953">
        <ele>1546</ele>
        <time>2023-05-19T10:50:54Z</time>
      </trkpt>
      <trkpt lat="44.60225" lon="5.91953">
        <ele>1546</ele>
        <time>2023-05-19T10:50:55Z</time>
      </trkpt>
      <trkpt lat="44.60225" lon="5.91953">
        <ele>1546</ele>
        <time>2023-05-19T10:50:57Z</time>
      </trkpt>
      <trkpt lat="44.60225" lon="5.91953">
        <ele>1546.4</ele>
        <time>2023-05-19T10:50:58Z</time>
      </trkpt>
      <trkpt lat="44.60225" lon="5.91954">
        <ele>1546.4</ele>
        <time>2023-05-19T10:50:59Z</time>
      </trkpt>
      <trkpt lat="44.60224" lon="5.91954">
        <ele>1546.4</ele>
        <time>2023-05-19T10:51:01Z</time>
      </trkpt>
      <trkpt lat="44.60223" lon="5.91954">
        <ele>1547</ele>
        <time>2023-05-19T10:51:04Z</time>
      </trkpt>
      <trkpt lat="44.60223" lon="5.91954">
        <ele>1547.8</ele>
        <time>2023-05-19T10:51:07Z</time>
      </trkpt>
      <trkpt lat="44.60221" lon="5.91957">
        <ele>1548</ele>
        <time>2023-05-19T10:51:11Z</time>
      </trkpt>
      <trkpt lat="44.60221" lon="5.91957">
        <ele>1548</ele>
        <time>2023-05-19T10:51:12Z</time>
      </trkpt>
      <trkpt lat="44.60221" lon="5.91957">
        <ele>1548.6</ele>
        <time>2023-05-19T10:51:18Z</time>
      </trkpt>
      <trkpt lat="44.60219" lon="5.91957">
        <ele>1549</ele>
        <time>2023-05-19T10:51:19Z</time>
      </trkpt>
      <trkpt lat="44.60219" lon="5.91957">
        <ele>1549</ele>
        <time>2023-05-19T10:51:20Z</time>
      </trkpt>
      <trkpt lat="44.60219" lon="5.91957">
        <ele>1549.2</ele>
        <time>2023-05-19T10:51:21Z</time>
      </trkpt>
      <trkpt lat="44.60219" lon="5.91957">
        <ele>1549.2</ele>
        <time>2023-05-19T10:51:22Z</time>
      </trkpt>
      <trkpt lat="44.60219" lon="5.91957">
        <ele>1549.4</ele>
        <time>2023-05-19T10:51:23Z</time>
      </trkpt>
      <trkpt lat="44.60219" lon="5.91959">
        <ele>1549.6</ele>
        <time>2023-05-19T10:51:24Z</time>
      </trkpt>
      <trkpt lat="44.60218" lon="5.91959">
        <ele>1549.6</ele>
        <time>2023-05-19T10:51:25Z</time>
      </trkpt>
      <trkpt lat="44.60218" lon="5.9196">
        <ele>1549.8</ele>
        <time>2023-05-19T10:51:26Z</time>
      </trkpt>
      <trkpt lat="44.60218" lon="5.9196">
        <ele>1550</ele>
        <time>2023-05-19T10:51:28Z</time>
      </trkpt>
      <trkpt lat="44.60217" lon="5.91962">
        <ele>1550.4</ele>
        <time>2023-05-19T10:51:29Z</time>
      </trkpt>
      <trkpt lat="44.60217" lon="5.91962">
        <ele>1550.4</ele>
        <time>2023-05-19T10:51:30Z</time>
      </trkpt>
      <trkpt lat="44.60216" lon="5.91963">
        <ele>1550.4</ele>
        <time>2023-05-19T10:51:31Z</time>
      </trkpt>
      <trkpt lat="44.60216" lon="5.91963">
        <ele>1550.4</ele>
        <time>2023-05-19T10:51:32Z</time>
      </trkpt>
      <trkpt lat="44.60216" lon="5.91963">
        <ele>1550.4</ele>
        <time>2023-05-19T10:51:33Z</time>
      </trkpt>
      <trkpt lat="44.60216" lon="5.91963">
        <ele>1551</ele>
        <time>2023-05-19T10:51:34Z</time>
      </trkpt>
      <trkpt lat="44.60216" lon="5.91963">
        <ele>1551</ele>
        <time>2023-05-19T10:51:35Z</time>
      </trkpt>
      <trkpt lat="44.60216" lon="5.91963">
        <ele>1551</ele>
        <time>2023-05-19T10:51:36Z</time>
      </trkpt>
      <trkpt lat="44.60216" lon="5.91963">
        <ele>1551.6</ele>
        <time>2023-05-19T10:51:37Z</time>
      </trkpt>
      <trkpt lat="44.60216" lon="5.91963">
        <ele>1551.6</ele>
        <time>2023-05-19T10:51:38Z</time>
      </trkpt>
      <trkpt lat="44.60216" lon="5.91963">
        <ele>1551.6</ele>
        <time>2023-05-19T10:51:39Z</time>
      </trkpt>
      <trkpt lat="44.60216" lon="5.91963">
        <ele>1551.6</ele>
        <time>2023-05-19T10:51:40Z</time>
      </trkpt>
      <trkpt lat="44.60216" lon="5.91963">
        <ele>1551.8</ele>
        <time>2023-05-19T10:51:41Z</time>
      </trkpt>
      <trkpt lat="44.60216" lon="5.91963">
        <ele>1552</ele>
        <time>2023-05-19T10:51:42Z</time>
      </trkpt>
      <trkpt lat="44.60215" lon="5.91963">
        <ele>1552.2</ele>
        <time>2023-05-19T10:51:44Z</time>
      </trkpt>
      <trkpt lat="44.60215" lon="5.91963">
        <ele>1552.4</ele>
        <time>2023-05-19T10:51:45Z</time>
      </trkpt>
      <trkpt lat="44.60215" lon="5.91963">
        <ele>1553</ele>
        <time>2023-05-19T10:51:50Z</time>
      </trkpt>
      <trkpt lat="44.60215" lon="5.91963">
        <ele>1553</ele>
        <time>2023-05-19T10:51:51Z</time>
      </trkpt>
      <trkpt lat="44.60211" lon="5.91966">
        <ele>1553.4</ele>
        <time>2023-05-19T10:51:53Z</time>
      </trkpt>
      <trkpt lat="44.60211" lon="5.91966">
        <ele>1553.6</ele>
        <time>2023-05-19T10:51:54Z</time>
      </trkpt>
      <trkpt lat="44.60211" lon="5.91966">
        <ele>1553.6</ele>
        <time>2023-05-19T10:51:55Z</time>
      </trkpt>
      <trkpt lat="44.60211" lon="5.91966">
        <ele>1553.8</ele>
        <time>2023-05-19T10:51:56Z</time>
      </trkpt>
      <trkpt lat="44.60211" lon="5.91966">
        <ele>1554</ele>
        <time>2023-05-19T10:51:57Z</time>
      </trkpt>
      <trkpt lat="44.60211" lon="5.91966">
        <ele>1554.2</ele>
        <time>2023-05-19T10:51:58Z</time>
      </trkpt>
      <trkpt lat="44.6021" lon="5.91967">
        <ele>1554.4</ele>
        <time>2023-05-19T10:51:59Z</time>
      </trkpt>
      <trkpt lat="44.60209" lon="5.91969">
        <ele>1554.4</ele>
        <time>2023-05-19T10:52:00Z</time>
      </trkpt>
      <trkpt lat="44.60208" lon="5.91969">
        <ele>1554.6</ele>
        <time>2023-05-19T10:52:01Z</time>
      </trkpt>
      <trkpt lat="44.60207" lon="5.91969">
        <ele>1554.8</ele>
        <time>2023-05-19T10:52:02Z</time>
      </trkpt>
      <trkpt lat="44.60207" lon="5.91969">
        <ele>1554.8</ele>
        <time>2023-05-19T10:52:03Z</time>
      </trkpt>
      <trkpt lat="44.60207" lon="5.91969">
        <ele>1555</ele>
        <time>2023-05-19T10:52:04Z</time>
      </trkpt>
      <trkpt lat="44.60207" lon="5.91969">
        <ele>1555.2</ele>
        <time>2023-05-19T10:52:05Z</time>
      </trkpt>
      <trkpt lat="44.60207" lon="5.91969">
        <ele>1555.4</ele>
        <time>2023-05-19T10:52:07Z</time>
      </trkpt>
      <trkpt lat="44.60207" lon="5.91969">
        <ele>1555.4</ele>
        <time>2023-05-19T10:52:08Z</time>
      </trkpt>
      <trkpt lat="44.60207" lon="5.91969">
        <ele>1555.4</ele>
        <time>2023-05-19T10:52:09Z</time>
      </trkpt>
      <trkpt lat="44.60206" lon="5.91971">
        <ele>1555.6</ele>
        <time>2023-05-19T10:52:10Z</time>
      </trkpt>
      <trkpt lat="44.60206" lon="5.91971">
        <ele>1555.6</ele>
        <time>2023-05-19T10:52:11Z</time>
      </trkpt>
      <trkpt lat="44.60206" lon="5.91971">
        <ele>1555.6</ele>
        <time>2023-05-19T10:52:12Z</time>
      </trkpt>
      <trkpt lat="44.60205" lon="5.91972">
        <ele>1556</ele>
        <time>2023-05-19T10:52:14Z</time>
      </trkpt>
      <trkpt lat="44.60203" lon="5.91972">
        <ele>1556.2</ele>
        <time>2023-05-19T10:52:15Z</time>
      </trkpt>
      <trkpt lat="44.60203" lon="5.91972">
        <ele>1556.8</ele>
        <time>2023-05-19T10:52:19Z</time>
      </trkpt>
      <trkpt lat="44.60202" lon="5.91973">
        <ele>1557.2</ele>
        <time>2023-05-19T10:52:22Z</time>
      </trkpt>
      <trkpt lat="44.60201" lon="5.91975">
        <ele>1557.8</ele>
        <time>2023-05-19T10:52:27Z</time>
      </trkpt>
      <trkpt lat="44.60201" lon="5.91975">
        <ele>1558</ele>
        <time>2023-05-19T10:52:28Z</time>
      </trkpt>
      <trkpt lat="44.602" lon="5.91976">
        <ele>1558.2</ele>
        <time>2023-05-19T10:52:29Z</time>
      </trkpt>
      <trkpt lat="44.60199" lon="5.91977">
        <ele>1558.2</ele>
        <time>2023-05-19T10:52:30Z</time>
      </trkpt>
      <trkpt lat="44.60199" lon="5.91978">
        <ele>1558.4</ele>
        <time>2023-05-19T10:52:31Z</time>
      </trkpt>
      <trkpt lat="44.60197" lon="5.91978">
        <ele>1558.4</ele>
        <time>2023-05-19T10:52:32Z</time>
      </trkpt>
      <trkpt lat="44.60197" lon="5.91979">
        <ele>1558.4</ele>
        <time>2023-05-19T10:52:34Z</time>
      </trkpt>
      <trkpt lat="44.60197" lon="5.91979">
        <ele>1558.8</ele>
        <time>2023-05-19T10:52:35Z</time>
      </trkpt>
      <trkpt lat="44.60197" lon="5.91979">
        <ele>1559</ele>
        <time>2023-05-19T10:52:36Z</time>
      </trkpt>
      <trkpt lat="44.60197" lon="5.91979">
        <ele>1559.2</ele>
        <time>2023-05-19T10:52:37Z</time>
      </trkpt>
      <trkpt lat="44.60197" lon="5.91979">
        <ele>1559.2</ele>
        <time>2023-05-19T10:52:38Z</time>
      </trkpt>
      <trkpt lat="44.60197" lon="5.91979">
        <ele>1559.4</ele>
        <time>2023-05-19T10:52:39Z</time>
      </trkpt>
      <trkpt lat="44.60197" lon="5.91979">
        <ele>1560.4</ele>
        <time>2023-05-19T10:52:47Z</time>
      </trkpt>
      <trkpt lat="44.60197" lon="5.9198">
        <ele>1560.6</ele>
        <time>2023-05-19T10:52:49Z</time>
      </trkpt>
      <trkpt lat="44.60195" lon="5.91981">
        <ele>1560.6</ele>
        <time>2023-05-19T10:52:50Z</time>
      </trkpt>
      <trkpt lat="44.60195" lon="5.91982">
        <ele>1560.8</ele>
        <time>2023-05-19T10:52:51Z</time>
      </trkpt>
      <trkpt lat="44.60194" lon="5.91983">
        <ele>1560.8</ele>
        <time>2023-05-19T10:52:52Z</time>
      </trkpt>
      <trkpt lat="44.60193" lon="5.91983">
        <ele>1561</ele>
        <time>2023-05-19T10:52:53Z</time>
      </trkpt>
      <trkpt lat="44.60193" lon="5.91983">
        <ele>1561.2</ele>
        <time>2023-05-19T10:52:54Z</time>
      </trkpt>
      <trkpt lat="44.60193" lon="5.91983">
        <ele>1561.2</ele>
        <time>2023-05-19T10:52:55Z</time>
      </trkpt>
      <trkpt lat="44.60193" lon="5.91983">
        <ele>1561.6</ele>
        <time>2023-05-19T10:52:56Z</time>
      </trkpt>
      <trkpt lat="44.60191" lon="5.91984">
        <ele>1561.6</ele>
        <time>2023-05-19T10:52:57Z</time>
      </trkpt>
      <trkpt lat="44.60191" lon="5.91984">
        <ele>1562</ele>
        <time>2023-05-19T10:52:59Z</time>
      </trkpt>
      <trkpt lat="44.60191" lon="5.91985">
        <ele>1562.4</ele>
        <time>2023-05-19T10:53:02Z</time>
      </trkpt>
      <trkpt lat="44.6019" lon="5.91985">
        <ele>1562.6</ele>
        <time>2023-05-19T10:53:04Z</time>
      </trkpt>
      <trkpt lat="44.6019" lon="5.91985">
        <ele>1562.8</ele>
        <time>2023-05-19T10:53:05Z</time>
      </trkpt>
      <trkpt lat="44.60189" lon="5.91985">
        <ele>1563.4</ele>
        <time>2023-05-19T10:53:09Z</time>
      </trkpt>
      <trkpt lat="44.60188" lon="5.91986">
        <ele>1563.6</ele>
        <time>2023-05-19T10:53:11Z</time>
      </trkpt>
      <trkpt lat="44.60187" lon="5.91986">
        <ele>1563.6</ele>
        <time>2023-05-19T10:53:12Z</time>
      </trkpt>
      <trkpt lat="44.60187" lon="5.91986">
        <ele>1563.8</ele>
        <time>2023-05-19T10:53:15Z</time>
      </trkpt>
      <trkpt lat="44.60187" lon="5.91986">
        <ele>1564</ele>
        <time>2023-05-19T10:53:16Z</time>
      </trkpt>
      <trkpt lat="44.60186" lon="5.91987">
        <ele>1564</ele>
        <time>2023-05-19T10:53:17Z</time>
      </trkpt>
      <trkpt lat="44.60185" lon="5.91987">
        <ele>1564.2</ele>
        <time>2023-05-19T10:53:18Z</time>
      </trkpt>
      <trkpt lat="44.60184" lon="5.91988">
        <ele>1564.6</ele>
        <time>2023-05-19T10:53:22Z</time>
      </trkpt>
      <trkpt lat="44.60183" lon="5.91988">
        <ele>1564.8</ele>
        <time>2023-05-19T10:53:23Z</time>
      </trkpt>
      <trkpt lat="44.60183" lon="5.91988">
        <ele>1565.2</ele>
        <time>2023-05-19T10:53:25Z</time>
      </trkpt>
      <trkpt lat="44.60183" lon="5.91988">
        <ele>1565.6</ele>
        <time>2023-05-19T10:53:27Z</time>
      </trkpt>
      <trkpt lat="44.60183" lon="5.91988">
        <ele>1565.6</ele>
        <time>2023-05-19T10:53:28Z</time>
      </trkpt>
      <trkpt lat="44.60183" lon="5.91988">
        <ele>1565.8</ele>
        <time>2023-05-19T10:53:29Z</time>
      </trkpt>
      <trkpt lat="44.60183" lon="5.91988">
        <ele>1566</ele>
        <time>2023-05-19T10:53:30Z</time>
      </trkpt>
      <trkpt lat="44.60181" lon="5.91989">
        <ele>1566.2</ele>
        <time>2023-05-19T10:53:31Z</time>
      </trkpt>
      <trkpt lat="44.6018" lon="5.91989">
        <ele>1566.4</ele>
        <time>2023-05-19T10:53:32Z</time>
      </trkpt>
      <trkpt lat="44.6018" lon="5.91989">
        <ele>1566.6</ele>
        <time>2023-05-19T10:53:33Z</time>
      </trkpt>
      <trkpt lat="44.60178" lon="5.9199">
        <ele>1566.6</ele>
        <time>2023-05-19T10:53:34Z</time>
      </trkpt>
      <trkpt lat="44.60178" lon="5.9199">
        <ele>1567</ele>
        <time>2023-05-19T10:53:35Z</time>
      </trkpt>
      <trkpt lat="44.60178" lon="5.9199">
        <ele>1567</ele>
        <time>2023-05-19T10:53:36Z</time>
      </trkpt>
      <trkpt lat="44.60177" lon="5.9199">
        <ele>1567.4</ele>
        <time>2023-05-19T10:53:38Z</time>
      </trkpt>
      <trkpt lat="44.60176" lon="5.9199">
        <ele>1567.6</ele>
        <time>2023-05-19T10:53:39Z</time>
      </trkpt>
      <trkpt lat="44.60175" lon="5.91991">
        <ele>1567.8</ele>
        <time>2023-05-19T10:53:40Z</time>
      </trkpt>
      <trkpt lat="44.60175" lon="5.91991">
        <ele>1567.8</ele>
        <time>2023-05-19T10:53:41Z</time>
      </trkpt>
      <trkpt lat="44.60175" lon="5.91991">
        <ele>1567.8</ele>
        <time>2023-05-19T10:53:42Z</time>
      </trkpt>
      <trkpt lat="44.60175" lon="5.91991">
        <ele>1568</ele>
        <time>2023-05-19T10:53:43Z</time>
      </trkpt>
      <trkpt lat="44.60175" lon="5.91991">
        <ele>1568.2</ele>
        <time>2023-05-19T10:53:44Z</time>
      </trkpt>
      <trkpt lat="44.60175" lon="5.91991">
        <ele>1568.4</ele>
        <time>2023-05-19T10:53:47Z</time>
      </trkpt>
      <trkpt lat="44.60175" lon="5.91991">
        <ele>1568.6</ele>
        <time>2023-05-19T10:53:48Z</time>
      </trkpt>
      <trkpt lat="44.60175" lon="5.91991">
        <ele>1568.8</ele>
        <time>2023-05-19T10:53:50Z</time>
      </trkpt>
      <trkpt lat="44.60175" lon="5.91991">
        <ele>1569.4</ele>
        <time>2023-05-19T10:53:53Z</time>
      </trkpt>
      <trkpt lat="44.60173" lon="5.91991">
        <ele>1569.6</ele>
        <time>2023-05-19T10:53:55Z</time>
      </trkpt>
      <trkpt lat="44.60173" lon="5.91991">
        <ele>1569.6</ele>
        <time>2023-05-19T10:53:56Z</time>
      </trkpt>
      <trkpt lat="44.60173" lon="5.91991">
        <ele>1569.8</ele>
        <time>2023-05-19T10:53:57Z</time>
      </trkpt>
      <trkpt lat="44.60173" lon="5.91991">
        <ele>1569.8</ele>
        <time>2023-05-19T10:53:58Z</time>
      </trkpt>
      <trkpt lat="44.60172" lon="5.91992">
        <ele>1569.8</ele>
        <time>2023-05-19T10:53:59Z</time>
      </trkpt>
      <trkpt lat="44.60172" lon="5.91992">
        <ele>1570</ele>
        <time>2023-05-19T10:54:00Z</time>
      </trkpt>
      <trkpt lat="44.60172" lon="5.91992">
        <ele>1570.2</ele>
        <time>2023-05-19T10:54:01Z</time>
      </trkpt>
      <trkpt lat="44.60172" lon="5.91992">
        <ele>1570.2</ele>
        <time>2023-05-19T10:54:02Z</time>
      </trkpt>
      <trkpt lat="44.60172" lon="5.91992">
        <ele>1570.4</ele>
        <time>2023-05-19T10:54:03Z</time>
      </trkpt>
      <trkpt lat="44.6017" lon="5.91993">
        <ele>1571</ele>
        <time>2023-05-19T10:54:06Z</time>
      </trkpt>
      <trkpt lat="44.6017" lon="5.91993">
        <ele>1571.6</ele>
        <time>2023-05-19T10:54:09Z</time>
      </trkpt>
      <trkpt lat="44.6017" lon="5.91993">
        <ele>1571.8</ele>
        <time>2023-05-19T10:54:13Z</time>
      </trkpt>
      <trkpt lat="44.60169" lon="5.91993">
        <ele>1572</ele>
        <time>2023-05-19T10:54:14Z</time>
      </trkpt>
      <trkpt lat="44.60169" lon="5.91993">
        <ele>1572.4</ele>
        <time>2023-05-19T10:54:19Z</time>
      </trkpt>
      <trkpt lat="44.60167" lon="5.91996">
        <ele>1572.4</ele>
        <time>2023-05-19T10:54:20Z</time>
      </trkpt>
      <trkpt lat="44.60166" lon="5.91996">
        <ele>1572.6</ele>
        <time>2023-05-19T10:54:21Z</time>
      </trkpt>
      <trkpt lat="44.60166" lon="5.91996">
        <ele>1573</ele>
        <time>2023-05-19T10:54:23Z</time>
      </trkpt>
      <trkpt lat="44.60166" lon="5.91996">
        <ele>1573</ele>
        <time>2023-05-19T10:54:24Z</time>
      </trkpt>
      <trkpt lat="44.60166" lon="5.91996">
        <ele>1573.4</ele>
        <time>2023-05-19T10:54:26Z</time>
      </trkpt>
      <trkpt lat="44.60166" lon="5.91996">
        <ele>1573.6</ele>
        <time>2023-05-19T10:54:27Z</time>
      </trkpt>
      <trkpt lat="44.60165" lon="5.91997">
        <ele>1573.6</ele>
        <time>2023-05-19T10:54:28Z</time>
      </trkpt>
      <trkpt lat="44.60165" lon="5.91997">
        <ele>1573.8</ele>
        <time>2023-05-19T10:54:29Z</time>
      </trkpt>
      <trkpt lat="44.60165" lon="5.91997">
        <ele>1574</ele>
        <time>2023-05-19T10:54:30Z</time>
      </trkpt>
      <trkpt lat="44.60165" lon="5.91997">
        <ele>1574.2</ele>
        <time>2023-05-19T10:54:31Z</time>
      </trkpt>
      <trkpt lat="44.60163" lon="5.91997">
        <ele>1574.4</ele>
        <time>2023-05-19T10:54:35Z</time>
      </trkpt>
      <trkpt lat="44.60163" lon="5.91997">
        <ele>1574.6</ele>
        <time>2023-05-19T10:54:36Z</time>
      </trkpt>
      <trkpt lat="44.60163" lon="5.91997">
        <ele>1574.6</ele>
        <time>2023-05-19T10:54:37Z</time>
      </trkpt>
      <trkpt lat="44.60163" lon="5.91997">
        <ele>1574.6</ele>
        <time>2023-05-19T10:54:38Z</time>
      </trkpt>
      <trkpt lat="44.60163" lon="5.91997">
        <ele>1574.8</ele>
        <time>2023-05-19T10:54:39Z</time>
      </trkpt>
      <trkpt lat="44.60163" lon="5.91997">
        <ele>1574.8</ele>
        <time>2023-05-19T10:54:40Z</time>
      </trkpt>
      <trkpt lat="44.60163" lon="5.91997">
        <ele>1575</ele>
        <time>2023-05-19T10:54:41Z</time>
      </trkpt>
      <trkpt lat="44.60163" lon="5.91997">
        <ele>1575.2</ele>
        <time>2023-05-19T10:54:42Z</time>
      </trkpt>
      <trkpt lat="44.60163" lon="5.91997">
        <ele>1575.4</ele>
        <time>2023-05-19T10:54:44Z</time>
      </trkpt>
      <trkpt lat="44.60163" lon="5.91997">
        <ele>1575.6</ele>
        <time>2023-05-19T10:54:45Z</time>
      </trkpt>
      <trkpt lat="44.60163" lon="5.91997">
        <ele>1575.8</ele>
        <time>2023-05-19T10:54:47Z</time>
      </trkpt>
      <trkpt lat="44.60163" lon="5.91997">
        <ele>1576</ele>
        <time>2023-05-19T10:54:48Z</time>
      </trkpt>
      <trkpt lat="44.60163" lon="5.91997">
        <ele>1576</ele>
        <time>2023-05-19T10:54:49Z</time>
      </trkpt>
      <trkpt lat="44.60163" lon="5.91997">
        <ele>1576</ele>
        <time>2023-05-19T10:54:50Z</time>
      </trkpt>
      <trkpt lat="44.6016" lon="5.91998">
        <ele>1576.4</ele>
        <time>2023-05-19T10:54:52Z</time>
      </trkpt>
      <trkpt lat="44.60158" lon="5.91999">
        <ele>1576.8</ele>
        <time>2023-05-19T10:54:55Z</time>
      </trkpt>
      <trkpt lat="44.60158" lon="5.91999">
        <ele>1576.8</ele>
        <time>2023-05-19T10:54:56Z</time>
      </trkpt>
      <trkpt lat="44.60158" lon="5.91999">
        <ele>1577</ele>
        <time>2023-05-19T10:54:57Z</time>
      </trkpt>
      <trkpt lat="44.60156" lon="5.92">
        <ele>1577</ele>
        <time>2023-05-19T10:54:58Z</time>
      </trkpt>
      <trkpt lat="44.60152" lon="5.92001">
        <ele>1577.2</ele>
        <time>2023-05-19T10:54:59Z</time>
      </trkpt>
      <trkpt lat="44.60152" lon="5.92001">
        <ele>1577.4</ele>
        <time>2023-05-19T10:55:00Z</time>
      </trkpt>
      <trkpt lat="44.60152" lon="5.92001">
        <ele>1577.6</ele>
        <time>2023-05-19T10:55:02Z</time>
      </trkpt>
      <trkpt lat="44.6015" lon="5.92001">
        <ele>1577.8</ele>
        <time>2023-05-19T10:55:04Z</time>
      </trkpt>
      <trkpt lat="44.60147" lon="5.92002">
        <ele>1577.8</ele>
        <time>2023-05-19T10:55:05Z</time>
      </trkpt>
      <trkpt lat="44.60145" lon="5.92002">
        <ele>1578</ele>
        <time>2023-05-19T10:55:06Z</time>
      </trkpt>
      <trkpt lat="44.60145" lon="5.92003">
        <ele>1578</ele>
        <time>2023-05-19T10:55:07Z</time>
      </trkpt>
      <trkpt lat="44.60145" lon="5.92003">
        <ele>1578.2</ele>
        <time>2023-05-19T10:55:08Z</time>
      </trkpt>
      <trkpt lat="44.60142" lon="5.92003">
        <ele>1578.4</ele>
        <time>2023-05-19T10:55:09Z</time>
      </trkpt>
      <trkpt lat="44.60141" lon="5.92003">
        <ele>1578.4</ele>
        <time>2023-05-19T10:55:10Z</time>
      </trkpt>
      <trkpt lat="44.6014" lon="5.92003">
        <ele>1578.6</ele>
        <time>2023-05-19T10:55:11Z</time>
      </trkpt>
      <trkpt lat="44.6014" lon="5.92003">
        <ele>1578.6</ele>
        <time>2023-05-19T10:55:12Z</time>
      </trkpt>
      <trkpt lat="44.6014" lon="5.92003">
        <ele>1579</ele>
        <time>2023-05-19T10:55:13Z</time>
      </trkpt>
      <trkpt lat="44.60139" lon="5.92004">
        <ele>1579</ele>
        <time>2023-05-19T10:55:14Z</time>
      </trkpt>
      <trkpt lat="44.60139" lon="5.92004">
        <ele>1579.2</ele>
        <time>2023-05-19T10:55:15Z</time>
      </trkpt>
      <trkpt lat="44.60139" lon="5.92004">
        <ele>1579.2</ele>
        <time>2023-05-19T10:55:16Z</time>
      </trkpt>
      <trkpt lat="44.60139" lon="5.92004">
        <ele>1579.4</ele>
        <time>2023-05-19T10:55:17Z</time>
      </trkpt>
      <trkpt lat="44.60139" lon="5.92004">
        <ele>1579.6</ele>
        <time>2023-05-19T10:55:19Z</time>
      </trkpt>
      <trkpt lat="44.60137" lon="5.92004">
        <ele>1580.2</ele>
        <time>2023-05-19T10:55:28Z</time>
      </trkpt>
      <trkpt lat="44.60136" lon="5.92004">
        <ele>1580.4</ele>
        <time>2023-05-19T10:55:29Z</time>
      </trkpt>
      <trkpt lat="44.60136" lon="5.92004">
        <ele>1581.6</ele>
        <time>2023-05-19T10:55:38Z</time>
      </trkpt>
      <trkpt lat="44.60134" lon="5.92005">
        <ele>1582.2</ele>
        <time>2023-05-19T10:55:43Z</time>
      </trkpt>
      <trkpt lat="44.60131" lon="5.92005">
        <ele>1582.4</ele>
        <time>2023-05-19T10:55:44Z</time>
      </trkpt>
      <trkpt lat="44.60129" lon="5.92005">
        <ele>1582.6</ele>
        <time>2023-05-19T10:55:45Z</time>
      </trkpt>
      <trkpt lat="44.60127" lon="5.92005">
        <ele>1582.6</ele>
        <time>2023-05-19T10:55:46Z</time>
      </trkpt>
      <trkpt lat="44.60127" lon="5.92004">
        <ele>1582.8</ele>
        <time>2023-05-19T10:55:47Z</time>
      </trkpt>
      <trkpt lat="44.60125" lon="5.92005">
        <ele>1582.8</ele>
        <time>2023-05-19T10:55:48Z</time>
      </trkpt>
      <trkpt lat="44.60125" lon="5.92005">
        <ele>1583</ele>
        <time>2023-05-19T10:55:49Z</time>
      </trkpt>
      <trkpt lat="44.60125" lon="5.92005">
        <ele>1583.2</ele>
        <time>2023-05-19T10:55:50Z</time>
      </trkpt>
      <trkpt lat="44.60125" lon="5.92005">
        <ele>1583.2</ele>
        <time>2023-05-19T10:55:51Z</time>
      </trkpt>
      <trkpt lat="44.60124" lon="5.92004">
        <ele>1583.4</ele>
        <time>2023-05-19T10:55:52Z</time>
      </trkpt>
      <trkpt lat="44.60124" lon="5.92004">
        <ele>1583.4</ele>
        <time>2023-05-19T10:55:53Z</time>
      </trkpt>
      <trkpt lat="44.60124" lon="5.92004">
        <ele>1583.6</ele>
        <time>2023-05-19T10:55:54Z</time>
      </trkpt>
      <trkpt lat="44.60124" lon="5.92004">
        <ele>1583.8</ele>
        <time>2023-05-19T10:55:56Z</time>
      </trkpt>
      <trkpt lat="44.60124" lon="5.92004">
        <ele>1584</ele>
        <time>2023-05-19T10:55:57Z</time>
      </trkpt>
      <trkpt lat="44.60124" lon="5.92004">
        <ele>1584.2</ele>
        <time>2023-05-19T10:55:58Z</time>
      </trkpt>
      <trkpt lat="44.60124" lon="5.92004">
        <ele>1584.4</ele>
        <time>2023-05-19T10:56:00Z</time>
      </trkpt>
      <trkpt lat="44.60122" lon="5.92005">
        <ele>1584.6</ele>
        <time>2023-05-19T10:56:01Z</time>
      </trkpt>
      <trkpt lat="44.6012" lon="5.92006">
        <ele>1584.6</ele>
        <time>2023-05-19T10:56:02Z</time>
      </trkpt>
      <trkpt lat="44.6012" lon="5.92006">
        <ele>1584.8</ele>
        <time>2023-05-19T10:56:03Z</time>
      </trkpt>
      <trkpt lat="44.60117" lon="5.92006">
        <ele>1584.8</ele>
        <time>2023-05-19T10:56:04Z</time>
      </trkpt>
      <trkpt lat="44.60116" lon="5.92006">
        <ele>1585</ele>
        <time>2023-05-19T10:56:05Z</time>
      </trkpt>
      <trkpt lat="44.60116" lon="5.92007">
        <ele>1585.2</ele>
        <time>2023-05-19T10:56:07Z</time>
      </trkpt>
      <trkpt lat="44.60116" lon="5.92007">
        <ele>1585.4</ele>
        <time>2023-05-19T10:56:09Z</time>
      </trkpt>
      <trkpt lat="44.60116" lon="5.92007">
        <ele>1585.8</ele>
        <time>2023-05-19T10:56:11Z</time>
      </trkpt>
      <trkpt lat="44.60115" lon="5.92007">
        <ele>1586</ele>
        <time>2023-05-19T10:56:12Z</time>
      </trkpt>
      <trkpt lat="44.60114" lon="5.92007">
        <ele>1586</ele>
        <time>2023-05-19T10:56:13Z</time>
      </trkpt>
      <trkpt lat="44.60113" lon="5.92006">
        <ele>1586.2</ele>
        <time>2023-05-19T10:56:14Z</time>
      </trkpt>
      <trkpt lat="44.60113" lon="5.92006">
        <ele>1586.6</ele>
        <time>2023-05-19T10:56:17Z</time>
      </trkpt>
      <trkpt lat="44.60113" lon="5.92006">
        <ele>1587</ele>
        <time>2023-05-19T10:56:19Z</time>
      </trkpt>
      <trkpt lat="44.60113" lon="5.92006">
        <ele>1587.2</ele>
        <time>2023-05-19T10:56:20Z</time>
      </trkpt>
      <trkpt lat="44.60111" lon="5.92006">
        <ele>1588</ele>
        <time>2023-05-19T10:56:28Z</time>
      </trkpt>
      <trkpt lat="44.60111" lon="5.92006">
        <ele>1588</ele>
        <time>2023-05-19T10:56:30Z</time>
      </trkpt>
      <trkpt lat="44.6011" lon="5.92006">
        <ele>1588.8</ele>
        <time>2023-05-19T10:56:39Z</time>
      </trkpt>
      <trkpt lat="44.60109" lon="5.92006">
        <ele>1589.2</ele>
        <time>2023-05-19T10:56:44Z</time>
      </trkpt>
      <trkpt lat="44.60109" lon="5.92006">
        <ele>1590.2</ele>
        <time>2023-05-19T10:56:53Z</time>
      </trkpt>
      <trkpt lat="44.60104" lon="5.92006">
        <ele>1591.2</ele>
        <time>2023-05-19T10:56:58Z</time>
      </trkpt>
      <trkpt lat="44.60104" lon="5.92006">
        <ele>1591.2</ele>
        <time>2023-05-19T10:56:59Z</time>
      </trkpt>
      <trkpt lat="44.60104" lon="5.92006">
        <ele>1591.6</ele>
        <time>2023-05-19T10:57:00Z</time>
      </trkpt>
      <trkpt lat="44.60102" lon="5.92007">
        <ele>1592.2</ele>
        <time>2023-05-19T10:57:05Z</time>
      </trkpt>
      <trkpt lat="44.60102" lon="5.92006">
        <ele>1592.2</ele>
        <time>2023-05-19T10:57:06Z</time>
      </trkpt>
      <trkpt lat="44.60102" lon="5.92006">
        <ele>1592.4</ele>
        <time>2023-05-19T10:57:08Z</time>
      </trkpt>
      <trkpt lat="44.60101" lon="5.92006">
        <ele>1592.4</ele>
        <time>2023-05-19T10:57:09Z</time>
      </trkpt>
      <trkpt lat="44.60101" lon="5.92006">
        <ele>1592.6</ele>
        <time>2023-05-19T10:57:10Z</time>
      </trkpt>
      <trkpt lat="44.60101" lon="5.92006">
        <ele>1593</ele>
        <time>2023-05-19T10:57:12Z</time>
      </trkpt>
      <trkpt lat="44.60099" lon="5.92006">
        <ele>1593</ele>
        <time>2023-05-19T10:57:13Z</time>
      </trkpt>
      <trkpt lat="44.60099" lon="5.92006">
        <ele>1593.2</ele>
        <time>2023-05-19T10:57:14Z</time>
      </trkpt>
      <trkpt lat="44.60099" lon="5.92006">
        <ele>1593.2</ele>
        <time>2023-05-19T10:57:15Z</time>
      </trkpt>
      <trkpt lat="44.60099" lon="5.92006">
        <ele>1593.6</ele>
        <time>2023-05-19T10:57:20Z</time>
      </trkpt>
      <trkpt lat="44.60097" lon="5.92007">
        <ele>1594.6</ele>
        <time>2023-05-19T10:57:43Z</time>
      </trkpt>
      <trkpt lat="44.60096" lon="5.92006">
        <ele>1594.8</ele>
        <time>2023-05-19T10:57:45Z</time>
      </trkpt>
      <trkpt lat="44.60091" lon="5.92007">
        <ele>1595.2</ele>
        <time>2023-05-19T10:57:50Z</time>
      </trkpt>
      <trkpt lat="44.6009" lon="5.92007">
        <ele>1595.2</ele>
        <time>2023-05-19T10:57:51Z</time>
      </trkpt>
      <trkpt lat="44.6009" lon="5.92007">
        <ele>1595.2</ele>
        <time>2023-05-19T10:57:52Z</time>
      </trkpt>
      <trkpt lat="44.6009" lon="5.92007">
        <ele>1595.2</ele>
        <time>2023-05-19T10:57:53Z</time>
      </trkpt>
      <trkpt lat="44.60088" lon="5.92007">
        <ele>1595.4</ele>
        <time>2023-05-19T10:57:55Z</time>
      </trkpt>
      <trkpt lat="44.60088" lon="5.92007">
        <ele>1596</ele>
        <time>2023-05-19T10:57:59Z</time>
      </trkpt>
      <trkpt lat="44.60087" lon="5.92008">
        <ele>1596.2</ele>
        <time>2023-05-19T10:58:00Z</time>
      </trkpt>
      <trkpt lat="44.60084" lon="5.92009">
        <ele>1597</ele>
        <time>2023-05-19T10:58:04Z</time>
      </trkpt>
      <trkpt lat="44.60084" lon="5.92009">
        <ele>1598</ele>
        <time>2023-05-19T10:58:15Z</time>
      </trkpt>
      <trkpt lat="44.60084" lon="5.92009">
        <ele>1598.2</ele>
        <time>2023-05-19T10:58:17Z</time>
      </trkpt>
      <trkpt lat="44.60082" lon="5.92009">
        <ele>1599.2</ele>
        <time>2023-05-19T10:58:23Z</time>
      </trkpt>
      <trkpt lat="44.60078" lon="5.9201">
        <ele>1599.8</ele>
        <time>2023-05-19T10:58:26Z</time>
      </trkpt>
      <trkpt lat="44.60078" lon="5.9201">
        <ele>1600.4</ele>
        <time>2023-05-19T10:58:28Z</time>
      </trkpt>
      <trkpt lat="44.60077" lon="5.92009">
        <ele>1600.6</ele>
        <time>2023-05-19T10:58:30Z</time>
      </trkpt>
      <trkpt lat="44.60077" lon="5.92009">
        <ele>1600.8</ele>
        <time>2023-05-19T10:58:31Z</time>
      </trkpt>
      <trkpt lat="44.60077" lon="5.92009">
        <ele>1600.8</ele>
        <time>2023-05-19T10:58:32Z</time>
      </trkpt>
      <trkpt lat="44.60077" lon="5.92009">
        <ele>1601.2</ele>
        <time>2023-05-19T10:58:35Z</time>
      </trkpt>
      <trkpt lat="44.60076" lon="5.92009">
        <ele>1601.4</ele>
        <time>2023-05-19T10:58:36Z</time>
      </trkpt>
      <trkpt lat="44.60074" lon="5.92009">
        <ele>1601.8</ele>
        <time>2023-05-19T10:58:38Z</time>
      </trkpt>
      <trkpt lat="44.60074" lon="5.92009">
        <ele>1601.8</ele>
        <time>2023-05-19T10:58:39Z</time>
      </trkpt>
      <trkpt lat="44.60074" lon="5.92009">
        <ele>1602</ele>
        <time>2023-05-19T10:58:40Z</time>
      </trkpt>
      <trkpt lat="44.60074" lon="5.92009">
        <ele>1602</ele>
        <time>2023-05-19T10:58:41Z</time>
      </trkpt>
      <trkpt lat="44.60072" lon="5.92009">
        <ele>1602.2</ele>
        <time>2023-05-19T10:58:43Z</time>
      </trkpt>
      <trkpt lat="44.60071" lon="5.92009">
        <ele>1602.4</ele>
        <time>2023-05-19T10:58:44Z</time>
      </trkpt>
      <trkpt lat="44.60071" lon="5.92009">
        <ele>1602.6</ele>
        <time>2023-05-19T10:58:45Z</time>
      </trkpt>
      <trkpt lat="44.60071" lon="5.92009">
        <ele>1602.8</ele>
        <time>2023-05-19T10:58:46Z</time>
      </trkpt>
      <trkpt lat="44.60071" lon="5.92009">
        <ele>1603</ele>
        <time>2023-05-19T10:58:47Z</time>
      </trkpt>
      <trkpt lat="44.60071" lon="5.92009">
        <ele>1603.2</ele>
        <time>2023-05-19T10:58:48Z</time>
      </trkpt>
      <trkpt lat="44.60071" lon="5.92009">
        <ele>1603.4</ele>
        <time>2023-05-19T10:58:49Z</time>
      </trkpt>
      <trkpt lat="44.60071" lon="5.92009">
        <ele>1603.6</ele>
        <time>2023-05-19T10:58:50Z</time>
      </trkpt>
      <trkpt lat="44.6007" lon="5.92009">
        <ele>1603.6</ele>
        <time>2023-05-19T10:58:51Z</time>
      </trkpt>
      <trkpt lat="44.6007" lon="5.92009">
        <ele>1603.8</ele>
        <time>2023-05-19T10:58:52Z</time>
      </trkpt>
      <trkpt lat="44.6007" lon="5.92009">
        <ele>1603.8</ele>
        <time>2023-05-19T10:58:53Z</time>
      </trkpt>
      <trkpt lat="44.6007" lon="5.92009">
        <ele>1604.2</ele>
        <time>2023-05-19T10:58:54Z</time>
      </trkpt>
      <trkpt lat="44.6007" lon="5.92009">
        <ele>1604.2</ele>
        <time>2023-05-19T10:58:55Z</time>
      </trkpt>
      <trkpt lat="44.60065" lon="5.92008">
        <ele>1604.4</ele>
        <time>2023-05-19T10:58:58Z</time>
      </trkpt>
      <trkpt lat="44.60065" lon="5.92008">
        <ele>1604.8</ele>
        <time>2023-05-19T10:58:59Z</time>
      </trkpt>
      <trkpt lat="44.60063" lon="5.92007">
        <ele>1604.8</ele>
        <time>2023-05-19T10:59:00Z</time>
      </trkpt>
      <trkpt lat="44.60062" lon="5.92007">
        <ele>1605.2</ele>
        <time>2023-05-19T10:59:01Z</time>
      </trkpt>
      <trkpt lat="44.60059" lon="5.92007">
        <ele>1605.2</ele>
        <time>2023-05-19T10:59:02Z</time>
      </trkpt>
      <trkpt lat="44.60059" lon="5.92007">
        <ele>1605.4</ele>
        <time>2023-05-19T10:59:03Z</time>
      </trkpt>
      <trkpt lat="44.60059" lon="5.92007">
        <ele>1605.6</ele>
        <time>2023-05-19T10:59:05Z</time>
      </trkpt>
      <trkpt lat="44.60057" lon="5.92007">
        <ele>1605.8</ele>
        <time>2023-05-19T10:59:06Z</time>
      </trkpt>
      <trkpt lat="44.60057" lon="5.92007">
        <ele>1606</ele>
        <time>2023-05-19T10:59:07Z</time>
      </trkpt>
      <trkpt lat="44.60057" lon="5.92007">
        <ele>1606.4</ele>
        <time>2023-05-19T10:59:10Z</time>
      </trkpt>
      <trkpt lat="44.60052" lon="5.92007">
        <ele>1606.8</ele>
        <time>2023-05-19T10:59:15Z</time>
      </trkpt>
      <trkpt lat="44.60052" lon="5.92007">
        <ele>1606.8</ele>
        <time>2023-05-19T10:59:16Z</time>
      </trkpt>
      <trkpt lat="44.60052" lon="5.92007">
        <ele>1606.8</ele>
        <time>2023-05-19T10:59:17Z</time>
      </trkpt>
      <trkpt lat="44.60051" lon="5.92008">
        <ele>1607</ele>
        <time>2023-05-19T10:59:21Z</time>
      </trkpt>
      <trkpt lat="44.6005" lon="5.92007">
        <ele>1607</ele>
        <time>2023-05-19T10:59:22Z</time>
      </trkpt>
      <trkpt lat="44.6005" lon="5.92007">
        <ele>1607.2</ele>
        <time>2023-05-19T10:59:23Z</time>
      </trkpt>
      <trkpt lat="44.60048" lon="5.92006">
        <ele>1607.2</ele>
        <time>2023-05-19T10:59:24Z</time>
      </trkpt>
      <trkpt lat="44.60044" lon="5.92006">
        <ele>1607.2</ele>
        <time>2023-05-19T10:59:25Z</time>
      </trkpt>
      <trkpt lat="44.60043" lon="5.92005">
        <ele>1607.2</ele>
        <time>2023-05-19T10:59:26Z</time>
      </trkpt>
      <trkpt lat="44.60042" lon="5.92005">
        <ele>1607.2</ele>
        <time>2023-05-19T10:59:27Z</time>
      </trkpt>
      <trkpt lat="44.60041" lon="5.92005">
        <ele>1607.2</ele>
        <time>2023-05-19T10:59:28Z</time>
      </trkpt>
      <trkpt lat="44.60041" lon="5.92005">
        <ele>1607.4</ele>
        <time>2023-05-19T10:59:29Z</time>
      </trkpt>
      <trkpt lat="44.60039" lon="5.92004">
        <ele>1607.8</ele>
        <time>2023-05-19T10:59:31Z</time>
      </trkpt>
      <trkpt lat="44.60038" lon="5.92004">
        <ele>1607.8</ele>
        <time>2023-05-19T10:59:32Z</time>
      </trkpt>
      <trkpt lat="44.60038" lon="5.92004">
        <ele>1608.2</ele>
        <time>2023-05-19T10:59:33Z</time>
      </trkpt>
      <trkpt lat="44.60038" lon="5.92004">
        <ele>1608.2</ele>
        <time>2023-05-19T10:59:34Z</time>
      </trkpt>
      <trkpt lat="44.60037" lon="5.92004">
        <ele>1608.6</ele>
        <time>2023-05-19T10:59:35Z</time>
      </trkpt>
      <trkpt lat="44.60034" lon="5.92004">
        <ele>1608.8</ele>
        <time>2023-05-19T10:59:37Z</time>
      </trkpt>
      <trkpt lat="44.60034" lon="5.92004">
        <ele>1609</ele>
        <time>2023-05-19T10:59:38Z</time>
      </trkpt>
      <trkpt lat="44.60032" lon="5.92003">
        <ele>1609.4</ele>
        <time>2023-05-19T10:59:39Z</time>
      </trkpt>
      <trkpt lat="44.60032" lon="5.92003">
        <ele>1609.6</ele>
        <time>2023-05-19T10:59:40Z</time>
      </trkpt>
      <trkpt lat="44.60032" lon="5.92003">
        <ele>1609.6</ele>
        <time>2023-05-19T10:59:41Z</time>
      </trkpt>
      <trkpt lat="44.60032" lon="5.92003">
        <ele>1609.8</ele>
        <time>2023-05-19T10:59:42Z</time>
      </trkpt>
      <trkpt lat="44.60032" lon="5.92003">
        <ele>1610</ele>
        <time>2023-05-19T10:59:43Z</time>
      </trkpt>
      <trkpt lat="44.60032" lon="5.92003">
        <ele>1610.2</ele>
        <time>2023-05-19T10:59:44Z</time>
      </trkpt>
      <trkpt lat="44.60031" lon="5.92003">
        <ele>1610.2</ele>
        <time>2023-05-19T10:59:45Z</time>
      </trkpt>
      <trkpt lat="44.60031" lon="5.92003">
        <ele>1610.6</ele>
        <time>2023-05-19T10:59:46Z</time>
      </trkpt>
      <trkpt lat="44.6003" lon="5.92003">
        <ele>1610.6</ele>
        <time>2023-05-19T10:59:47Z</time>
      </trkpt>
      <trkpt lat="44.6003" lon="5.92002">
        <ele>1610.8</ele>
        <time>2023-05-19T10:59:48Z</time>
      </trkpt>
      <trkpt lat="44.60029" lon="5.92001">
        <ele>1611.4</ele>
        <time>2023-05-19T10:59:53Z</time>
      </trkpt>
      <trkpt lat="44.60027" lon="5.92001">
        <ele>1612.4</ele>
        <time>2023-05-19T11:00:01Z</time>
      </trkpt>
      <trkpt lat="44.60026" lon="5.92001">
        <ele>1612.4</ele>
        <time>2023-05-19T11:00:02Z</time>
      </trkpt>
      <trkpt lat="44.60026" lon="5.92">
        <ele>1613.4</ele>
        <time>2023-05-19T11:00:08Z</time>
      </trkpt>
      <trkpt lat="44.60026" lon="5.92">
        <ele>1613.6</ele>
        <time>2023-05-19T11:00:09Z</time>
      </trkpt>
      <trkpt lat="44.60025" lon="5.92">
        <ele>1613.6</ele>
        <time>2023-05-19T11:00:10Z</time>
      </trkpt>
      <trkpt lat="44.60024" lon="5.92">
        <ele>1613.6</ele>
        <time>2023-05-19T11:00:11Z</time>
      </trkpt>
      <trkpt lat="44.60022" lon="5.91998">
        <ele>1613.6</ele>
        <time>2023-05-19T11:00:12Z</time>
      </trkpt>
      <trkpt lat="44.6002" lon="5.91998">
        <ele>1613.8</ele>
        <time>2023-05-19T11:00:13Z</time>
      </trkpt>
      <trkpt lat="44.60019" lon="5.91998">
        <ele>1613.8</ele>
        <time>2023-05-19T11:00:14Z</time>
      </trkpt>
      <trkpt lat="44.60018" lon="5.91998">
        <ele>1613.8</ele>
        <time>2023-05-19T11:00:15Z</time>
      </trkpt>
      <trkpt lat="44.60018" lon="5.91997">
        <ele>1614</ele>
        <time>2023-05-19T11:00:16Z</time>
      </trkpt>
      <trkpt lat="44.60017" lon="5.91997">
        <ele>1614</ele>
        <time>2023-05-19T11:00:17Z</time>
      </trkpt>
      <trkpt lat="44.60017" lon="5.91997">
        <ele>1614</ele>
        <time>2023-05-19T11:00:18Z</time>
      </trkpt>
      <trkpt lat="44.60016" lon="5.91997">
        <ele>1614.2</ele>
        <time>2023-05-19T11:00:19Z</time>
      </trkpt>
      <trkpt lat="44.60015" lon="5.91997">
        <ele>1614.4</ele>
        <time>2023-05-19T11:00:20Z</time>
      </trkpt>
      <trkpt lat="44.60015" lon="5.91997">
        <ele>1614.4</ele>
        <time>2023-05-19T11:00:21Z</time>
      </trkpt>
      <trkpt lat="44.60015" lon="5.91996">
        <ele>1614.6</ele>
        <time>2023-05-19T11:00:22Z</time>
      </trkpt>
      <trkpt lat="44.60015" lon="5.91996">
        <ele>1614.8</ele>
        <time>2023-05-19T11:00:23Z</time>
      </trkpt>
      <trkpt lat="44.60013" lon="5.91996">
        <ele>1614.8</ele>
        <time>2023-05-19T11:00:24Z</time>
      </trkpt>
      <trkpt lat="44.60012" lon="5.91995">
        <ele>1615</ele>
        <time>2023-05-19T11:00:25Z</time>
      </trkpt>
      <trkpt lat="44.60011" lon="5.91995">
        <ele>1615.2</ele>
        <time>2023-05-19T11:00:26Z</time>
      </trkpt>
      <trkpt lat="44.6001" lon="5.91994">
        <ele>1615.4</ele>
        <time>2023-05-19T11:00:27Z</time>
      </trkpt>
      <trkpt lat="44.60009" lon="5.91994">
        <ele>1615.6</ele>
        <time>2023-05-19T11:00:28Z</time>
      </trkpt>
      <trkpt lat="44.60009" lon="5.91994">
        <ele>1615.8</ele>
        <time>2023-05-19T11:00:29Z</time>
      </trkpt>
      <trkpt lat="44.60009" lon="5.91994">
        <ele>1616</ele>
        <time>2023-05-19T11:00:30Z</time>
      </trkpt>
      <trkpt lat="44.60008" lon="5.91993">
        <ele>1616.2</ele>
        <time>2023-05-19T11:00:31Z</time>
      </trkpt>
      <trkpt lat="44.60006" lon="5.91993">
        <ele>1616.4</ele>
        <time>2023-05-19T11:00:32Z</time>
      </trkpt>
      <trkpt lat="44.60004" lon="5.91993">
        <ele>1616.4</ele>
        <time>2023-05-19T11:00:33Z</time>
      </trkpt>
      <trkpt lat="44.60004" lon="5.91993">
        <ele>1616.6</ele>
        <time>2023-05-19T11:00:34Z</time>
      </trkpt>
      <trkpt lat="44.60004" lon="5.91993">
        <ele>1616.6</ele>
        <time>2023-05-19T11:00:35Z</time>
      </trkpt>
      <trkpt lat="44.60004" lon="5.91993">
        <ele>1616.8</ele>
        <time>2023-05-19T11:00:36Z</time>
      </trkpt>
      <trkpt lat="44.60004" lon="5.91993">
        <ele>1617</ele>
        <time>2023-05-19T11:00:37Z</time>
      </trkpt>
      <trkpt lat="44.60003" lon="5.91993">
        <ele>1616.8</ele>
        <time>2023-05-19T11:00:38Z</time>
      </trkpt>
      <trkpt lat="44.60002" lon="5.91993">
        <ele>1617</ele>
        <time>2023-05-19T11:00:39Z</time>
      </trkpt>
      <trkpt lat="44.60001" lon="5.91993">
        <ele>1617</ele>
        <time>2023-05-19T11:00:40Z</time>
      </trkpt>
      <trkpt lat="44.60001" lon="5.91993">
        <ele>1617.2</ele>
        <time>2023-05-19T11:00:41Z</time>
      </trkpt>
      <trkpt lat="44.6" lon="5.91993">
        <ele>1617.4</ele>
        <time>2023-05-19T11:00:42Z</time>
      </trkpt>
      <trkpt lat="44.59999" lon="5.91993">
        <ele>1617.6</ele>
        <time>2023-05-19T11:00:43Z</time>
      </trkpt>
      <trkpt lat="44.59999" lon="5.91993">
        <ele>1617.6</ele>
        <time>2023-05-19T11:00:44Z</time>
      </trkpt>
      <trkpt lat="44.59999" lon="5.91993">
        <ele>1617.8</ele>
        <time>2023-05-19T11:00:45Z</time>
      </trkpt>
      <trkpt lat="44.59999" lon="5.91993">
        <ele>1618</ele>
        <time>2023-05-19T11:00:46Z</time>
      </trkpt>
      <trkpt lat="44.59997" lon="5.91993">
        <ele>1618.4</ele>
        <time>2023-05-19T11:00:49Z</time>
      </trkpt>
      <trkpt lat="44.59997" lon="5.91993">
        <ele>1618.4</ele>
        <time>2023-05-19T11:00:50Z</time>
      </trkpt>
      <trkpt lat="44.59997" lon="5.91993">
        <ele>1618.6</ele>
        <time>2023-05-19T11:00:51Z</time>
      </trkpt>
      <trkpt lat="44.59996" lon="5.91993">
        <ele>1618.6</ele>
        <time>2023-05-19T11:00:52Z</time>
      </trkpt>
      <trkpt lat="44.59995" lon="5.91993">
        <ele>1618.8</ele>
        <time>2023-05-19T11:00:53Z</time>
      </trkpt>
      <trkpt lat="44.59995" lon="5.91993">
        <ele>1618.8</ele>
        <time>2023-05-19T11:00:54Z</time>
      </trkpt>
      <trkpt lat="44.59995" lon="5.91993">
        <ele>1619.2</ele>
        <time>2023-05-19T11:00:55Z</time>
      </trkpt>
      <trkpt lat="44.59994" lon="5.91993">
        <ele>1619.4</ele>
        <time>2023-05-19T11:00:56Z</time>
      </trkpt>
      <trkpt lat="44.59993" lon="5.91992">
        <ele>1619.4</ele>
        <time>2023-05-19T11:00:57Z</time>
      </trkpt>
      <trkpt lat="44.59993" lon="5.91991">
        <ele>1619.6</ele>
        <time>2023-05-19T11:00:58Z</time>
      </trkpt>
      <trkpt lat="44.5999" lon="5.91991">
        <ele>1619.6</ele>
        <time>2023-05-19T11:00:59Z</time>
      </trkpt>
      <trkpt lat="44.5999" lon="5.91991">
        <ele>1619.6</ele>
        <time>2023-05-19T11:01:00Z</time>
      </trkpt>
      <trkpt lat="44.5999" lon="5.91991">
        <ele>1619.8</ele>
        <time>2023-05-19T11:01:01Z</time>
      </trkpt>
      <trkpt lat="44.5999" lon="5.91991">
        <ele>1620</ele>
        <time>2023-05-19T11:01:03Z</time>
      </trkpt>
      <trkpt lat="44.59988" lon="5.91991">
        <ele>1620.2</ele>
        <time>2023-05-19T11:01:05Z</time>
      </trkpt>
      <trkpt lat="44.59986" lon="5.91991">
        <ele>1620.4</ele>
        <time>2023-05-19T11:01:06Z</time>
      </trkpt>
      <trkpt lat="44.59986" lon="5.91991">
        <ele>1620.6</ele>
        <time>2023-05-19T11:01:07Z</time>
      </trkpt>
      <trkpt lat="44.59986" lon="5.91991">
        <ele>1621.2</ele>
        <time>2023-05-19T11:01:08Z</time>
      </trkpt>
      <trkpt lat="44.59986" lon="5.91991">
        <ele>1621.4</ele>
        <time>2023-05-19T11:01:09Z</time>
      </trkpt>
      <trkpt lat="44.59986" lon="5.91991">
        <ele>1621.6</ele>
        <time>2023-05-19T11:01:11Z</time>
      </trkpt>
      <trkpt lat="44.59985" lon="5.91991">
        <ele>1621.8</ele>
        <time>2023-05-19T11:01:18Z</time>
      </trkpt>
      <trkpt lat="44.59985" lon="5.91991">
        <ele>1621.8</ele>
        <time>2023-05-19T11:01:19Z</time>
      </trkpt>
      <trkpt lat="44.59985" lon="5.91991">
        <ele>1621.8</ele>
        <time>2023-05-19T11:01:21Z</time>
      </trkpt>
      <trkpt lat="44.59985" lon="5.91991">
        <ele>1622.2</ele>
        <time>2023-05-19T11:01:24Z</time>
      </trkpt>
      <trkpt lat="44.59983" lon="5.91992">
        <ele>1622.6</ele>
        <time>2023-05-19T11:01:27Z</time>
      </trkpt>
      <trkpt lat="44.59983" lon="5.91992">
        <ele>1623.4</ele>
        <time>2023-05-19T11:01:33Z</time>
      </trkpt>
      <trkpt lat="44.59983" lon="5.91992">
        <ele>1623.6</ele>
        <time>2023-05-19T11:01:34Z</time>
      </trkpt>
      <trkpt lat="44.59983" lon="5.91992">
        <ele>1623.8</ele>
        <time>2023-05-19T11:01:35Z</time>
      </trkpt>
      <trkpt lat="44.59983" lon="5.91992">
        <ele>1624</ele>
        <time>2023-05-19T11:01:36Z</time>
      </trkpt>
      <trkpt lat="44.59983" lon="5.91992">
        <ele>1624</ele>
        <time>2023-05-19T11:01:37Z</time>
      </trkpt>
      <trkpt lat="44.59983" lon="5.91992">
        <ele>1624.4</ele>
        <time>2023-05-19T11:01:39Z</time>
      </trkpt>
      <trkpt lat="44.5998" lon="5.91993">
        <ele>1624.8</ele>
        <time>2023-05-19T11:01:42Z</time>
      </trkpt>
      <trkpt lat="44.59979" lon="5.91993">
        <ele>1624.8</ele>
        <time>2023-05-19T11:01:43Z</time>
      </trkpt>
      <trkpt lat="44.59978" lon="5.91994">
        <ele>1625.2</ele>
        <time>2023-05-19T11:01:48Z</time>
      </trkpt>
      <trkpt lat="44.59977" lon="5.91994">
        <ele>1625.6</ele>
        <time>2023-05-19T11:01:53Z</time>
      </trkpt>
      <trkpt lat="44.59974" lon="5.91995">
        <ele>1626.2</ele>
        <time>2023-05-19T11:01:56Z</time>
      </trkpt>
      <trkpt lat="44.59974" lon="5.91995">
        <ele>1627</ele>
        <time>2023-05-19T11:02:01Z</time>
      </trkpt>
      <trkpt lat="44.59974" lon="5.91995">
        <ele>1627.4</ele>
        <time>2023-05-19T11:02:03Z</time>
      </trkpt>
      <trkpt lat="44.59974" lon="5.91995">
        <ele>1628</ele>
        <time>2023-05-19T11:02:07Z</time>
      </trkpt>
      <trkpt lat="44.59972" lon="5.91995">
        <ele>1628.4</ele>
        <time>2023-05-19T11:02:12Z</time>
      </trkpt>
      <trkpt lat="44.5997" lon="5.91996">
        <ele>1629.6</ele>
        <time>2023-05-19T11:02:18Z</time>
      </trkpt>
      <trkpt lat="44.59968" lon="5.91996">
        <ele>1629.8</ele>
        <time>2023-05-19T11:02:19Z</time>
      </trkpt>
      <trkpt lat="44.59968" lon="5.91996">
        <ele>1629.8</ele>
        <time>2023-05-19T11:02:20Z</time>
      </trkpt>
      <trkpt lat="44.59968" lon="5.91996">
        <ele>1629.8</ele>
        <time>2023-05-19T11:02:21Z</time>
      </trkpt>
      <trkpt lat="44.59966" lon="5.91998">
        <ele>1630.4</ele>
        <time>2023-05-19T11:02:26Z</time>
      </trkpt>
      <trkpt lat="44.59965" lon="5.91999">
        <ele>1630.6</ele>
        <time>2023-05-19T11:02:27Z</time>
      </trkpt>
      <trkpt lat="44.59965" lon="5.92001">
        <ele>1630.6</ele>
        <time>2023-05-19T11:02:28Z</time>
      </trkpt>
      <trkpt lat="44.59964" lon="5.92002">
        <ele>1630.6</ele>
        <time>2023-05-19T11:02:29Z</time>
      </trkpt>
      <trkpt lat="44.59964" lon="5.92003">
        <ele>1630.8</ele>
        <time>2023-05-19T11:02:30Z</time>
      </trkpt>
      <trkpt lat="44.59964" lon="5.92003">
        <ele>1630.8</ele>
        <time>2023-05-19T11:02:31Z</time>
      </trkpt>
      <trkpt lat="44.59964" lon="5.92003">
        <ele>1630.8</ele>
        <time>2023-05-19T11:02:33Z</time>
      </trkpt>
      <trkpt lat="44.59964" lon="5.92005">
        <ele>1630.6</ele>
        <time>2023-05-19T11:02:38Z</time>
      </trkpt>
      <trkpt lat="44.59963" lon="5.92006">
        <ele>1630.8</ele>
        <time>2023-05-19T11:02:39Z</time>
      </trkpt>
      <trkpt lat="44.59963" lon="5.92007">
        <ele>1630.8</ele>
        <time>2023-05-19T11:02:40Z</time>
      </trkpt>
      <trkpt lat="44.59964" lon="5.92009">
        <ele>1630.8</ele>
        <time>2023-05-19T11:02:41Z</time>
      </trkpt>
      <trkpt lat="44.59963" lon="5.92011">
        <ele>1630.8</ele>
        <time>2023-05-19T11:02:42Z</time>
      </trkpt>
      <trkpt lat="44.59964" lon="5.92014">
        <ele>1631</ele>
        <time>2023-05-19T11:02:44Z</time>
      </trkpt>
      <trkpt lat="44.59964" lon="5.92017">
        <ele>1631</ele>
        <time>2023-05-19T11:02:45Z</time>
      </trkpt>
      <trkpt lat="44.59963" lon="5.92021">
        <ele>1631.4</ele>
        <time>2023-05-19T11:02:47Z</time>
      </trkpt>
      <trkpt lat="44.59963" lon="5.92022">
        <ele>1631.6</ele>
        <time>2023-05-19T11:02:48Z</time>
      </trkpt>
      <trkpt lat="44.59962" lon="5.92028">
        <ele>1632.2</ele>
        <time>2023-05-19T11:02:51Z</time>
      </trkpt>
      <trkpt lat="44.59962" lon="5.92031">
        <ele>1632.6</ele>
        <time>2023-05-19T11:02:53Z</time>
      </trkpt>
      <trkpt lat="44.59963" lon="5.92033">
        <ele>1632.8</ele>
        <time>2023-05-19T11:02:55Z</time>
      </trkpt>
      <trkpt lat="44.59963" lon="5.92035">
        <ele>1633</ele>
        <time>2023-05-19T11:02:56Z</time>
      </trkpt>
      <trkpt lat="44.59963" lon="5.9204">
        <ele>1633.4</ele>
        <time>2023-05-19T11:02:58Z</time>
      </trkpt>
      <trkpt lat="44.59965" lon="5.92043">
        <ele>1633.4</ele>
        <time>2023-05-19T11:02:59Z</time>
      </trkpt>
      <trkpt lat="44.59965" lon="5.92046">
        <ele>1633.6</ele>
        <time>2023-05-19T11:03:00Z</time>
      </trkpt>
      <trkpt lat="44.59966" lon="5.92048">
        <ele>1633.6</ele>
        <time>2023-05-19T11:03:01Z</time>
      </trkpt>
      <trkpt lat="44.59966" lon="5.92049">
        <ele>1633.8</ele>
        <time>2023-05-19T11:03:02Z</time>
      </trkpt>
      <trkpt lat="44.59967" lon="5.9205">
        <ele>1633.8</ele>
        <time>2023-05-19T11:03:03Z</time>
      </trkpt>
      <trkpt lat="44.59967" lon="5.92052">
        <ele>1634</ele>
        <time>2023-05-19T11:03:04Z</time>
      </trkpt>
      <trkpt lat="44.59968" lon="5.92053">
        <ele>1634</ele>
        <time>2023-05-19T11:03:05Z</time>
      </trkpt>
      <trkpt lat="44.59968" lon="5.92054">
        <ele>1634.2</ele>
        <time>2023-05-19T11:03:06Z</time>
      </trkpt>
      <trkpt lat="44.59969" lon="5.92056">
        <ele>1634.4</ele>
        <time>2023-05-19T11:03:07Z</time>
      </trkpt>
      <trkpt lat="44.59969" lon="5.92057">
        <ele>1634.6</ele>
        <time>2023-05-19T11:03:08Z</time>
      </trkpt>
      <trkpt lat="44.5997" lon="5.92059">
        <ele>1635</ele>
        <time>2023-05-19T11:03:09Z</time>
      </trkpt>
      <trkpt lat="44.59971" lon="5.9206">
        <ele>1635</ele>
        <time>2023-05-19T11:03:10Z</time>
      </trkpt>
      <trkpt lat="44.59971" lon="5.92061">
        <ele>1635.2</ele>
        <time>2023-05-19T11:03:11Z</time>
      </trkpt>
      <trkpt lat="44.59972" lon="5.92063">
        <ele>1635.4</ele>
        <time>2023-05-19T11:03:12Z</time>
      </trkpt>
      <trkpt lat="44.59972" lon="5.92064">
        <ele>1635.4</ele>
        <time>2023-05-19T11:03:13Z</time>
      </trkpt>
      <trkpt lat="44.59973" lon="5.92066">
        <ele>1635.6</ele>
        <time>2023-05-19T11:03:14Z</time>
      </trkpt>
      <trkpt lat="44.59974" lon="5.92067">
        <ele>1635.6</ele>
        <time>2023-05-19T11:03:15Z</time>
      </trkpt>
      <trkpt lat="44.59974" lon="5.92068">
        <ele>1635.8</ele>
        <time>2023-05-19T11:03:16Z</time>
      </trkpt>
      <trkpt lat="44.59975" lon="5.9207">
        <ele>1635.8</ele>
        <time>2023-05-19T11:03:17Z</time>
      </trkpt>
      <trkpt lat="44.59975" lon="5.92072">
        <ele>1635.8</ele>
        <time>2023-05-19T11:03:18Z</time>
      </trkpt>
      <trkpt lat="44.59976" lon="5.92073">
        <ele>1635.8</ele>
        <time>2023-05-19T11:03:19Z</time>
      </trkpt>
      <trkpt lat="44.59976" lon="5.92075">
        <ele>1636.2</ele>
        <time>2023-05-19T11:03:20Z</time>
      </trkpt>
      <trkpt lat="44.59977" lon="5.92076">
        <ele>1636.2</ele>
        <time>2023-05-19T11:03:21Z</time>
      </trkpt>
      <trkpt lat="44.59977" lon="5.92078">
        <ele>1636.4</ele>
        <time>2023-05-19T11:03:22Z</time>
      </trkpt>
      <trkpt lat="44.59978" lon="5.92079">
        <ele>1636.6</ele>
        <time>2023-05-19T11:03:23Z</time>
      </trkpt>
      <trkpt lat="44.59979" lon="5.9208">
        <ele>1636.6</ele>
        <time>2023-05-19T11:03:24Z</time>
      </trkpt>
      <trkpt lat="44.59979" lon="5.92082">
        <ele>1637</ele>
        <time>2023-05-19T11:03:25Z</time>
      </trkpt>
      <trkpt lat="44.5998" lon="5.92083">
        <ele>1637.2</ele>
        <time>2023-05-19T11:03:26Z</time>
      </trkpt>
      <trkpt lat="44.59981" lon="5.92084">
        <ele>1637.6</ele>
        <time>2023-05-19T11:03:27Z</time>
      </trkpt>
      <trkpt lat="44.59982" lon="5.92085">
        <ele>1637.8</ele>
        <time>2023-05-19T11:03:28Z</time>
      </trkpt>
      <trkpt lat="44.59982" lon="5.92086">
        <ele>1638</ele>
        <time>2023-05-19T11:03:29Z</time>
      </trkpt>
      <trkpt lat="44.59983" lon="5.92088">
        <ele>1638.2</ele>
        <time>2023-05-19T11:03:30Z</time>
      </trkpt>
      <trkpt lat="44.59984" lon="5.9209">
        <ele>1638.2</ele>
        <time>2023-05-19T11:03:31Z</time>
      </trkpt>
      <trkpt lat="44.59985" lon="5.92092">
        <ele>1638.4</ele>
        <time>2023-05-19T11:03:32Z</time>
      </trkpt>
      <trkpt lat="44.59986" lon="5.92093">
        <ele>1638.4</ele>
        <time>2023-05-19T11:03:33Z</time>
      </trkpt>
      <trkpt lat="44.59987" lon="5.92095">
        <ele>1638.8</ele>
        <time>2023-05-19T11:03:34Z</time>
      </trkpt>
      <trkpt lat="44.59988" lon="5.92096">
        <ele>1639</ele>
        <time>2023-05-19T11:03:35Z</time>
      </trkpt>
      <trkpt lat="44.59989" lon="5.92097">
        <ele>1639</ele>
        <time>2023-05-19T11:03:36Z</time>
      </trkpt>
      <trkpt lat="44.5999" lon="5.92099">
        <ele>1639.2</ele>
        <time>2023-05-19T11:03:37Z</time>
      </trkpt>
      <trkpt lat="44.5999" lon="5.921">
        <ele>1639.4</ele>
        <time>2023-05-19T11:03:38Z</time>
      </trkpt>
      <trkpt lat="44.59991" lon="5.92101">
        <ele>1639.8</ele>
        <time>2023-05-19T11:03:39Z</time>
      </trkpt>
      <trkpt lat="44.59992" lon="5.92102">
        <ele>1639.8</ele>
        <time>2023-05-19T11:03:40Z</time>
      </trkpt>
      <trkpt lat="44.59993" lon="5.92103">
        <ele>1640.2</ele>
        <time>2023-05-19T11:03:41Z</time>
      </trkpt>
      <trkpt lat="44.59994" lon="5.92105">
        <ele>1640.2</ele>
        <time>2023-05-19T11:03:42Z</time>
      </trkpt>
      <trkpt lat="44.59995" lon="5.92106">
        <ele>1640.4</ele>
        <time>2023-05-19T11:03:43Z</time>
      </trkpt>
      <trkpt lat="44.59996" lon="5.92107">
        <ele>1640.4</ele>
        <time>2023-05-19T11:03:44Z</time>
      </trkpt>
      <trkpt lat="44.59997" lon="5.92109">
        <ele>1640.4</ele>
        <time>2023-05-19T11:03:45Z</time>
      </trkpt>
      <trkpt lat="44.59997" lon="5.9211">
        <ele>1640.8</ele>
        <time>2023-05-19T11:03:46Z</time>
      </trkpt>
      <trkpt lat="44.59998" lon="5.92112">
        <ele>1640.8</ele>
        <time>2023-05-19T11:03:47Z</time>
      </trkpt>
      <trkpt lat="44.59999" lon="5.92113">
        <ele>1641</ele>
        <time>2023-05-19T11:03:48Z</time>
      </trkpt>
      <trkpt lat="44.6" lon="5.92115">
        <ele>1641.2</ele>
        <time>2023-05-19T11:03:49Z</time>
      </trkpt>
      <trkpt lat="44.6" lon="5.92116">
        <ele>1641.4</ele>
        <time>2023-05-19T11:03:50Z</time>
      </trkpt>
      <trkpt lat="44.60001" lon="5.92118">
        <ele>1641.4</ele>
        <time>2023-05-19T11:03:51Z</time>
      </trkpt>
      <trkpt lat="44.60002" lon="5.92119">
        <ele>1641.6</ele>
        <time>2023-05-19T11:03:52Z</time>
      </trkpt>
      <trkpt lat="44.60002" lon="5.9212">
        <ele>1641.6</ele>
        <time>2023-05-19T11:03:53Z</time>
      </trkpt>
      <trkpt lat="44.60003" lon="5.92121">
        <ele>1641.8</ele>
        <time>2023-05-19T11:03:54Z</time>
      </trkpt>
      <trkpt lat="44.60004" lon="5.92122">
        <ele>1642</ele>
        <time>2023-05-19T11:03:55Z</time>
      </trkpt>
      <trkpt lat="44.60005" lon="5.92124">
        <ele>1642</ele>
        <time>2023-05-19T11:03:56Z</time>
      </trkpt>
      <trkpt lat="44.60006" lon="5.92125">
        <ele>1642.2</ele>
        <time>2023-05-19T11:03:57Z</time>
      </trkpt>
      <trkpt lat="44.60007" lon="5.92126">
        <ele>1642.2</ele>
        <time>2023-05-19T11:03:58Z</time>
      </trkpt>
      <trkpt lat="44.60008" lon="5.92127">
        <ele>1642.4</ele>
        <time>2023-05-19T11:03:59Z</time>
      </trkpt>
      <trkpt lat="44.60009" lon="5.92128">
        <ele>1642.4</ele>
        <time>2023-05-19T11:04:00Z</time>
      </trkpt>
      <trkpt lat="44.6001" lon="5.9213">
        <ele>1642.6</ele>
        <time>2023-05-19T11:04:01Z</time>
      </trkpt>
      <trkpt lat="44.60011" lon="5.92131">
        <ele>1642.8</ele>
        <time>2023-05-19T11:04:02Z</time>
      </trkpt>
      <trkpt lat="44.60011" lon="5.92133">
        <ele>1642.8</ele>
        <time>2023-05-19T11:04:03Z</time>
      </trkpt>
      <trkpt lat="44.60012" lon="5.92134">
        <ele>1643</ele>
        <time>2023-05-19T11:04:04Z</time>
      </trkpt>
      <trkpt lat="44.60013" lon="5.92135">
        <ele>1643.2</ele>
        <time>2023-05-19T11:04:05Z</time>
      </trkpt>
      <trkpt lat="44.60013" lon="5.92137">
        <ele>1643.4</ele>
        <time>2023-05-19T11:04:06Z</time>
      </trkpt>
      <trkpt lat="44.60014" lon="5.92138">
        <ele>1643.4</ele>
        <time>2023-05-19T11:04:07Z</time>
      </trkpt>
      <trkpt lat="44.60015" lon="5.92139">
        <ele>1643.6</ele>
        <time>2023-05-19T11:04:08Z</time>
      </trkpt>
      <trkpt lat="44.60016" lon="5.9214">
        <ele>1643.8</ele>
        <time>2023-05-19T11:04:09Z</time>
      </trkpt>
      <trkpt lat="44.60016" lon="5.92142">
        <ele>1643.8</ele>
        <time>2023-05-19T11:04:10Z</time>
      </trkpt>
      <trkpt lat="44.60017" lon="5.92143">
        <ele>1644</ele>
        <time>2023-05-19T11:04:11Z</time>
      </trkpt>
      <trkpt lat="44.60017" lon="5.92144">
        <ele>1644.2</ele>
        <time>2023-05-19T11:04:12Z</time>
      </trkpt>
      <trkpt lat="44.60018" lon="5.92146">
        <ele>1644.4</ele>
        <time>2023-05-19T11:04:13Z</time>
      </trkpt>
      <trkpt lat="44.60019" lon="5.92147">
        <ele>1644.4</ele>
        <time>2023-05-19T11:04:14Z</time>
      </trkpt>
      <trkpt lat="44.6002" lon="5.92149">
        <ele>1644.6</ele>
        <time>2023-05-19T11:04:15Z</time>
      </trkpt>
      <trkpt lat="44.60021" lon="5.9215">
        <ele>1644.6</ele>
        <time>2023-05-19T11:04:16Z</time>
      </trkpt>
      <trkpt lat="44.60022" lon="5.92151">
        <ele>1644.8</ele>
        <time>2023-05-19T11:04:17Z</time>
      </trkpt>
      <trkpt lat="44.60022" lon="5.92153">
        <ele>1645</ele>
        <time>2023-05-19T11:04:18Z</time>
      </trkpt>
      <trkpt lat="44.60023" lon="5.92154">
        <ele>1645.2</ele>
        <time>2023-05-19T11:04:19Z</time>
      </trkpt>
      <trkpt lat="44.60024" lon="5.92155">
        <ele>1645.2</ele>
        <time>2023-05-19T11:04:20Z</time>
      </trkpt>
      <trkpt lat="44.60024" lon="5.92157">
        <ele>1645.4</ele>
        <time>2023-05-19T11:04:21Z</time>
      </trkpt>
      <trkpt lat="44.60025" lon="5.92158">
        <ele>1645.6</ele>
        <time>2023-05-19T11:04:22Z</time>
      </trkpt>
      <trkpt lat="44.60026" lon="5.92159">
        <ele>1645.6</ele>
        <time>2023-05-19T11:04:23Z</time>
      </trkpt>
      <trkpt lat="44.60026" lon="5.92161">
        <ele>1645.8</ele>
        <time>2023-05-19T11:04:24Z</time>
      </trkpt>
      <trkpt lat="44.60027" lon="5.92162">
        <ele>1645.8</ele>
        <time>2023-05-19T11:04:25Z</time>
      </trkpt>
      <trkpt lat="44.60028" lon="5.92163">
        <ele>1646</ele>
        <time>2023-05-19T11:04:26Z</time>
      </trkpt>
      <trkpt lat="44.60029" lon="5.92164">
        <ele>1646.2</ele>
        <time>2023-05-19T11:04:27Z</time>
      </trkpt>
      <trkpt lat="44.6003" lon="5.92166">
        <ele>1646.4</ele>
        <time>2023-05-19T11:04:28Z</time>
      </trkpt>
      <trkpt lat="44.60031" lon="5.92167">
        <ele>1646.6</ele>
        <time>2023-05-19T11:04:29Z</time>
      </trkpt>
      <trkpt lat="44.60032" lon="5.92168">
        <ele>1646.8</ele>
        <time>2023-05-19T11:04:30Z</time>
      </trkpt>
      <trkpt lat="44.60033" lon="5.92169">
        <ele>1647</ele>
        <time>2023-05-19T11:04:31Z</time>
      </trkpt>
      <trkpt lat="44.60034" lon="5.9217">
        <ele>1647</ele>
        <time>2023-05-19T11:04:32Z</time>
      </trkpt>
      <trkpt lat="44.60034" lon="5.92171">
        <ele>1647.4</ele>
        <time>2023-05-19T11:04:33Z</time>
      </trkpt>
      <trkpt lat="44.60035" lon="5.92172">
        <ele>1647.6</ele>
        <time>2023-05-19T11:04:34Z</time>
      </trkpt>
      <trkpt lat="44.60035" lon="5.92174">
        <ele>1647.8</ele>
        <time>2023-05-19T11:04:35Z</time>
      </trkpt>
      <trkpt lat="44.60036" lon="5.92176">
        <ele>1647.8</ele>
        <time>2023-05-19T11:04:36Z</time>
      </trkpt>
      <trkpt lat="44.60036" lon="5.92177">
        <ele>1648</ele>
        <time>2023-05-19T11:04:37Z</time>
      </trkpt>
      <trkpt lat="44.60036" lon="5.92179">
        <ele>1648</ele>
        <time>2023-05-19T11:04:38Z</time>
      </trkpt>
      <trkpt lat="44.60035" lon="5.9218">
        <ele>1648</ele>
        <time>2023-05-19T11:04:39Z</time>
      </trkpt>
      <trkpt lat="44.60035" lon="5.92182">
        <ele>1648.2</ele>
        <time>2023-05-19T11:04:40Z</time>
      </trkpt>
      <trkpt lat="44.60035" lon="5.92184">
        <ele>1648.2</ele>
        <time>2023-05-19T11:04:41Z</time>
      </trkpt>
      <trkpt lat="44.60034" lon="5.92185">
        <ele>1648.2</ele>
        <time>2023-05-19T11:04:42Z</time>
      </trkpt>
      <trkpt lat="44.60033" lon="5.92186">
        <ele>1648.6</ele>
        <time>2023-05-19T11:04:43Z</time>
      </trkpt>
      <trkpt lat="44.60032" lon="5.92187">
        <ele>1648.6</ele>
        <time>2023-05-19T11:04:44Z</time>
      </trkpt>
      <trkpt lat="44.60031" lon="5.92187">
        <ele>1648.8</ele>
        <time>2023-05-19T11:04:45Z</time>
      </trkpt>
      <trkpt lat="44.60029" lon="5.92187">
        <ele>1648.8</ele>
        <time>2023-05-19T11:04:46Z</time>
      </trkpt>
      <trkpt lat="44.60028" lon="5.92187">
        <ele>1649</ele>
        <time>2023-05-19T11:04:47Z</time>
      </trkpt>
      <trkpt lat="44.60027" lon="5.92187">
        <ele>1649</ele>
        <time>2023-05-19T11:04:48Z</time>
      </trkpt>
      <trkpt lat="44.60026" lon="5.92186">
        <ele>1649.2</ele>
        <time>2023-05-19T11:04:49Z</time>
      </trkpt>
      <trkpt lat="44.60025" lon="5.92186">
        <ele>1649.4</ele>
        <time>2023-05-19T11:04:50Z</time>
      </trkpt>
      <trkpt lat="44.60024" lon="5.92185">
        <ele>1649.6</ele>
        <time>2023-05-19T11:04:51Z</time>
      </trkpt>
      <trkpt lat="44.60023" lon="5.92184">
        <ele>1649.8</ele>
        <time>2023-05-19T11:04:52Z</time>
      </trkpt>
      <trkpt lat="44.60021" lon="5.92182">
        <ele>1650</ele>
        <time>2023-05-19T11:04:53Z</time>
      </trkpt>
      <trkpt lat="44.6002" lon="5.92181">
        <ele>1650.2</ele>
        <time>2023-05-19T11:04:54Z</time>
      </trkpt>
      <trkpt lat="44.60019" lon="5.9218">
        <ele>1650.2</ele>
        <time>2023-05-19T11:04:55Z</time>
      </trkpt>
      <trkpt lat="44.60018" lon="5.92179">
        <ele>1650.4</ele>
        <time>2023-05-19T11:04:56Z</time>
      </trkpt>
      <trkpt lat="44.60016" lon="5.92178">
        <ele>1650.6</ele>
        <time>2023-05-19T11:04:57Z</time>
      </trkpt>
      <trkpt lat="44.60015" lon="5.92177">
        <ele>1650.8</ele>
        <time>2023-05-19T11:04:58Z</time>
      </trkpt>
      <trkpt lat="44.60013" lon="5.92176">
        <ele>1651</ele>
        <time>2023-05-19T11:04:59Z</time>
      </trkpt>
      <trkpt lat="44.60012" lon="5.92175">
        <ele>1651.2</ele>
        <time>2023-05-19T11:05:00Z</time>
      </trkpt>
      <trkpt lat="44.60011" lon="5.92174">
        <ele>1651.4</ele>
        <time>2023-05-19T11:05:01Z</time>
      </trkpt>
      <trkpt lat="44.60009" lon="5.92173">
        <ele>1651.4</ele>
        <time>2023-05-19T11:05:02Z</time>
      </trkpt>
      <trkpt lat="44.60008" lon="5.92172">
        <ele>1651.6</ele>
        <time>2023-05-19T11:05:03Z</time>
      </trkpt>
      <trkpt lat="44.60006" lon="5.92171">
        <ele>1651.8</ele>
        <time>2023-05-19T11:05:04Z</time>
      </trkpt>
      <trkpt lat="44.60005" lon="5.9217">
        <ele>1651.8</ele>
        <time>2023-05-19T11:05:05Z</time>
      </trkpt>
      <trkpt lat="44.60004" lon="5.92169">
        <ele>1652</ele>
        <time>2023-05-19T11:05:06Z</time>
      </trkpt>
      <trkpt lat="44.60003" lon="5.92168">
        <ele>1652.2</ele>
        <time>2023-05-19T11:05:07Z</time>
      </trkpt>
      <trkpt lat="44.60002" lon="5.92167">
        <ele>1652.4</ele>
        <time>2023-05-19T11:05:08Z</time>
      </trkpt>
      <trkpt lat="44.60001" lon="5.92166">
        <ele>1652.4</ele>
        <time>2023-05-19T11:05:09Z</time>
      </trkpt>
      <trkpt lat="44.6" lon="5.92166">
        <ele>1652.6</ele>
        <time>2023-05-19T11:05:10Z</time>
      </trkpt>
      <trkpt lat="44.59998" lon="5.92164">
        <ele>1652.8</ele>
        <time>2023-05-19T11:05:11Z</time>
      </trkpt>
      <trkpt lat="44.59997" lon="5.92163">
        <ele>1653</ele>
        <time>2023-05-19T11:05:12Z</time>
      </trkpt>
      <trkpt lat="44.59996" lon="5.92161">
        <ele>1653</ele>
        <time>2023-05-19T11:05:13Z</time>
      </trkpt>
      <trkpt lat="44.59995" lon="5.9216">
        <ele>1653.2</ele>
        <time>2023-05-19T11:05:14Z</time>
      </trkpt>
      <trkpt lat="44.59994" lon="5.92159">
        <ele>1653.2</ele>
        <time>2023-05-19T11:05:15Z</time>
      </trkpt>
      <trkpt lat="44.59992" lon="5.92159">
        <ele>1653.6</ele>
        <time>2023-05-19T11:05:16Z</time>
      </trkpt>
      <trkpt lat="44.5999" lon="5.92158">
        <ele>1653.8</ele>
        <time>2023-05-19T11:05:17Z</time>
      </trkpt>
      <trkpt lat="44.59989" lon="5.92158">
        <ele>1653.8</ele>
        <time>2023-05-19T11:05:18Z</time>
      </trkpt>
      <trkpt lat="44.59988" lon="5.92157">
        <ele>1654</ele>
        <time>2023-05-19T11:05:19Z</time>
      </trkpt>
      <trkpt lat="44.59986" lon="5.92157">
        <ele>1654.2</ele>
        <time>2023-05-19T11:05:20Z</time>
      </trkpt>
      <trkpt lat="44.59985" lon="5.92156">
        <ele>1654.2</ele>
        <time>2023-05-19T11:05:21Z</time>
      </trkpt>
      <trkpt lat="44.59984" lon="5.92155">
        <ele>1654.2</ele>
        <time>2023-05-19T11:05:22Z</time>
      </trkpt>
      <trkpt lat="44.59982" lon="5.92154">
        <ele>1654.4</ele>
        <time>2023-05-19T11:05:23Z</time>
      </trkpt>
      <trkpt lat="44.59981" lon="5.92153">
        <ele>1654.6</ele>
        <time>2023-05-19T11:05:24Z</time>
      </trkpt>
      <trkpt lat="44.5998" lon="5.92152">
        <ele>1654.8</ele>
        <time>2023-05-19T11:05:25Z</time>
      </trkpt>
      <trkpt lat="44.59978" lon="5.92152">
        <ele>1655</ele>
        <time>2023-05-19T11:05:26Z</time>
      </trkpt>
      <trkpt lat="44.59977" lon="5.92151">
        <ele>1655</ele>
        <time>2023-05-19T11:05:27Z</time>
      </trkpt>
      <trkpt lat="44.59976" lon="5.92151">
        <ele>1655.2</ele>
        <time>2023-05-19T11:05:28Z</time>
      </trkpt>
      <trkpt lat="44.59974" lon="5.9215">
        <ele>1655.2</ele>
        <time>2023-05-19T11:05:29Z</time>
      </trkpt>
      <trkpt lat="44.59973" lon="5.92149">
        <ele>1655.6</ele>
        <time>2023-05-19T11:05:30Z</time>
      </trkpt>
      <trkpt lat="44.59972" lon="5.92149">
        <ele>1655.8</ele>
        <time>2023-05-19T11:05:31Z</time>
      </trkpt>
      <trkpt lat="44.5997" lon="5.92149">
        <ele>1655.8</ele>
        <time>2023-05-19T11:05:32Z</time>
      </trkpt>
      <trkpt lat="44.59969" lon="5.92148">
        <ele>1656</ele>
        <time>2023-05-19T11:05:33Z</time>
      </trkpt>
      <trkpt lat="44.59967" lon="5.92148">
        <ele>1656</ele>
        <time>2023-05-19T11:05:34Z</time>
      </trkpt>
      <trkpt lat="44.59966" lon="5.92146">
        <ele>1656.2</ele>
        <time>2023-05-19T11:05:35Z</time>
      </trkpt>
      <trkpt lat="44.59965" lon="5.92146">
        <ele>1656.4</ele>
        <time>2023-05-19T11:05:36Z</time>
      </trkpt>
      <trkpt lat="44.59963" lon="5.92145">
        <ele>1656.4</ele>
        <time>2023-05-19T11:05:37Z</time>
      </trkpt>
      <trkpt lat="44.59962" lon="5.92144">
        <ele>1656.6</ele>
        <time>2023-05-19T11:05:38Z</time>
      </trkpt>
      <trkpt lat="44.59961" lon="5.92144">
        <ele>1657</ele>
        <time>2023-05-19T11:05:39Z</time>
      </trkpt>
      <trkpt lat="44.5996" lon="5.92143">
        <ele>1657</ele>
        <time>2023-05-19T11:05:40Z</time>
      </trkpt>
      <trkpt lat="44.59958" lon="5.92142">
        <ele>1657.2</ele>
        <time>2023-05-19T11:05:41Z</time>
      </trkpt>
      <trkpt lat="44.59957" lon="5.92141">
        <ele>1657.4</ele>
        <time>2023-05-19T11:05:42Z</time>
      </trkpt>
      <trkpt lat="44.59955" lon="5.9214">
        <ele>1657.4</ele>
        <time>2023-05-19T11:05:43Z</time>
      </trkpt>
      <trkpt lat="44.59954" lon="5.9214">
        <ele>1657.4</ele>
        <time>2023-05-19T11:05:44Z</time>
      </trkpt>
      <trkpt lat="44.59954" lon="5.92139">
        <ele>1657.6</ele>
        <time>2023-05-19T11:05:45Z</time>
      </trkpt>
      <trkpt lat="44.59952" lon="5.92139">
        <ele>1657.6</ele>
        <time>2023-05-19T11:05:46Z</time>
      </trkpt>
      <trkpt lat="44.59951" lon="5.92139">
        <ele>1657.6</ele>
        <time>2023-05-19T11:05:47Z</time>
      </trkpt>
      <trkpt lat="44.5995" lon="5.92138">
        <ele>1657.8</ele>
        <time>2023-05-19T11:05:48Z</time>
      </trkpt>
      <trkpt lat="44.59948" lon="5.92138">
        <ele>1658</ele>
        <time>2023-05-19T11:05:49Z</time>
      </trkpt>
      <trkpt lat="44.59947" lon="5.92138">
        <ele>1658.2</ele>
        <time>2023-05-19T11:05:50Z</time>
      </trkpt>
      <trkpt lat="44.59945" lon="5.92138">
        <ele>1658.4</ele>
        <time>2023-05-19T11:05:51Z</time>
      </trkpt>
      <trkpt lat="44.59944" lon="5.92137">
        <ele>1658.4</ele>
        <time>2023-05-19T11:05:52Z</time>
      </trkpt>
      <trkpt lat="44.59943" lon="5.92137">
        <ele>1658.6</ele>
        <time>2023-05-19T11:05:53Z</time>
      </trkpt>
      <trkpt lat="44.59942" lon="5.92137">
        <ele>1658.6</ele>
        <time>2023-05-19T11:05:54Z</time>
      </trkpt>
      <trkpt lat="44.5994" lon="5.92136">
        <ele>1659</ele>
        <time>2023-05-19T11:05:55Z</time>
      </trkpt>
      <trkpt lat="44.59939" lon="5.92136">
        <ele>1659.2</ele>
        <time>2023-05-19T11:05:56Z</time>
      </trkpt>
      <trkpt lat="44.59938" lon="5.92135">
        <ele>1659.4</ele>
        <time>2023-05-19T11:05:57Z</time>
      </trkpt>
      <trkpt lat="44.59936" lon="5.92135">
        <ele>1659.6</ele>
        <time>2023-05-19T11:05:58Z</time>
      </trkpt>
      <trkpt lat="44.59935" lon="5.92136">
        <ele>1659.8</ele>
        <time>2023-05-19T11:05:59Z</time>
      </trkpt>
      <trkpt lat="44.59933" lon="5.92137">
        <ele>1660.2</ele>
        <time>2023-05-19T11:06:00Z</time>
      </trkpt>
      <trkpt lat="44.59932" lon="5.92136">
        <ele>1660.2</ele>
        <time>2023-05-19T11:06:01Z</time>
      </trkpt>
      <trkpt lat="44.5993" lon="5.92136">
        <ele>1660.6</ele>
        <time>2023-05-19T11:06:02Z</time>
      </trkpt>
      <trkpt lat="44.59929" lon="5.92136">
        <ele>1660.8</ele>
        <time>2023-05-19T11:06:03Z</time>
      </trkpt>
      <trkpt lat="44.59929" lon="5.92136">
        <ele>1661</ele>
        <time>2023-05-19T11:06:04Z</time>
      </trkpt>
      <trkpt lat="44.59927" lon="5.92136">
        <ele>1661</ele>
        <time>2023-05-19T11:06:05Z</time>
      </trkpt>
      <trkpt lat="44.59926" lon="5.92135">
        <ele>1661.4</ele>
        <time>2023-05-19T11:06:06Z</time>
      </trkpt>
      <trkpt lat="44.59925" lon="5.92135">
        <ele>1661.4</ele>
        <time>2023-05-19T11:06:07Z</time>
      </trkpt>
      <trkpt lat="44.59923" lon="5.92135">
        <ele>1661.6</ele>
        <time>2023-05-19T11:06:08Z</time>
      </trkpt>
      <trkpt lat="44.59922" lon="5.92135">
        <ele>1662</ele>
        <time>2023-05-19T11:06:09Z</time>
      </trkpt>
      <trkpt lat="44.59921" lon="5.92135">
        <ele>1661.8</ele>
        <time>2023-05-19T11:06:10Z</time>
      </trkpt>
      <trkpt lat="44.59919" lon="5.92134">
        <ele>1662</ele>
        <time>2023-05-19T11:06:11Z</time>
      </trkpt>
      <trkpt lat="44.59918" lon="5.92134">
        <ele>1662.2</ele>
        <time>2023-05-19T11:06:12Z</time>
      </trkpt>
      <trkpt lat="44.59917" lon="5.92133">
        <ele>1662.2</ele>
        <time>2023-05-19T11:06:13Z</time>
      </trkpt>
      <trkpt lat="44.59916" lon="5.92133">
        <ele>1662.4</ele>
        <time>2023-05-19T11:06:14Z</time>
      </trkpt>
      <trkpt lat="44.59914" lon="5.92133">
        <ele>1662.8</ele>
        <time>2023-05-19T11:06:15Z</time>
      </trkpt>
      <trkpt lat="44.59912" lon="5.92132">
        <ele>1662.8</ele>
        <time>2023-05-19T11:06:16Z</time>
      </trkpt>
      <trkpt lat="44.5991" lon="5.92132">
        <ele>1663</ele>
        <time>2023-05-19T11:06:17Z</time>
      </trkpt>
      <trkpt lat="44.59908" lon="5.92132">
        <ele>1663.2</ele>
        <time>2023-05-19T11:06:18Z</time>
      </trkpt>
      <trkpt lat="44.59906" lon="5.92132">
        <ele>1663.4</ele>
        <time>2023-05-19T11:06:19Z</time>
      </trkpt>
      <trkpt lat="44.59905" lon="5.92132">
        <ele>1663.6</ele>
        <time>2023-05-19T11:06:20Z</time>
      </trkpt>
      <trkpt lat="44.59904" lon="5.92132">
        <ele>1663.6</ele>
        <time>2023-05-19T11:06:21Z</time>
      </trkpt>
      <trkpt lat="44.59902" lon="5.92131">
        <ele>1663.8</ele>
        <time>2023-05-19T11:06:22Z</time>
      </trkpt>
      <trkpt lat="44.59901" lon="5.92131">
        <ele>1664.2</ele>
        <time>2023-05-19T11:06:23Z</time>
      </trkpt>
      <trkpt lat="44.599" lon="5.9213">
        <ele>1664.4</ele>
        <time>2023-05-19T11:06:24Z</time>
      </trkpt>
      <trkpt lat="44.59899" lon="5.9213">
        <ele>1664.4</ele>
        <time>2023-05-19T11:06:25Z</time>
      </trkpt>
      <trkpt lat="44.59897" lon="5.9213">
        <ele>1664.6</ele>
        <time>2023-05-19T11:06:26Z</time>
      </trkpt>
      <trkpt lat="44.59896" lon="5.92129">
        <ele>1664.8</ele>
        <time>2023-05-19T11:06:27Z</time>
      </trkpt>
      <trkpt lat="44.59894" lon="5.92129">
        <ele>1664.8</ele>
        <time>2023-05-19T11:06:28Z</time>
      </trkpt>
      <trkpt lat="44.59893" lon="5.92129">
        <ele>1665</ele>
        <time>2023-05-19T11:06:29Z</time>
      </trkpt>
      <trkpt lat="44.59891" lon="5.92128">
        <ele>1665.2</ele>
        <time>2023-05-19T11:06:30Z</time>
      </trkpt>
      <trkpt lat="44.59889" lon="5.92128">
        <ele>1665.4</ele>
        <time>2023-05-19T11:06:31Z</time>
      </trkpt>
      <trkpt lat="44.59887" lon="5.92128">
        <ele>1665.6</ele>
        <time>2023-05-19T11:06:32Z</time>
      </trkpt>
      <trkpt lat="44.59886" lon="5.92128">
        <ele>1665.6</ele>
        <time>2023-05-19T11:06:33Z</time>
      </trkpt>
      <trkpt lat="44.59884" lon="5.92128">
        <ele>1665.8</ele>
        <time>2023-05-19T11:06:34Z</time>
      </trkpt>
      <trkpt lat="44.59882" lon="5.92128">
        <ele>1665.8</ele>
        <time>2023-05-19T11:06:35Z</time>
      </trkpt>
      <trkpt lat="44.59881" lon="5.92127">
        <ele>1666</ele>
        <time>2023-05-19T11:06:36Z</time>
      </trkpt>
      <trkpt lat="44.59879" lon="5.92127">
        <ele>1666.2</ele>
        <time>2023-05-19T11:06:37Z</time>
      </trkpt>
      <trkpt lat="44.59877" lon="5.92126">
        <ele>1666.4</ele>
        <time>2023-05-19T11:06:38Z</time>
      </trkpt>
      <trkpt lat="44.59875" lon="5.92126">
        <ele>1666.6</ele>
        <time>2023-05-19T11:06:39Z</time>
      </trkpt>
      <trkpt lat="44.59873" lon="5.92125">
        <ele>1666.6</ele>
        <time>2023-05-19T11:06:40Z</time>
      </trkpt>
      <trkpt lat="44.5987" lon="5.92124">
        <ele>1667</ele>
        <time>2023-05-19T11:06:41Z</time>
      </trkpt>
      <trkpt lat="44.59869" lon="5.92124">
        <ele>1667</ele>
        <time>2023-05-19T11:06:42Z</time>
      </trkpt>
      <trkpt lat="44.59866" lon="5.92123">
        <ele>1667.2</ele>
        <time>2023-05-19T11:06:43Z</time>
      </trkpt>
      <trkpt lat="44.59863" lon="5.92122">
        <ele>1667.4</ele>
        <time>2023-05-19T11:06:44Z</time>
      </trkpt>
      <trkpt lat="44.59861" lon="5.92122">
        <ele>1667.4</ele>
        <time>2023-05-19T11:06:45Z</time>
      </trkpt>
      <trkpt lat="44.59858" lon="5.92121">
        <ele>1667.4</ele>
        <time>2023-05-19T11:06:46Z</time>
      </trkpt>
      <trkpt lat="44.59856" lon="5.92121">
        <ele>1667.6</ele>
        <time>2023-05-19T11:06:47Z</time>
      </trkpt>
      <trkpt lat="44.59854" lon="5.9212">
        <ele>1667.8</ele>
        <time>2023-05-19T11:06:48Z</time>
      </trkpt>
      <trkpt lat="44.59852" lon="5.9212">
        <ele>1667.8</ele>
        <time>2023-05-19T11:06:49Z</time>
      </trkpt>
      <trkpt lat="44.5985" lon="5.9212">
        <ele>1668</ele>
        <time>2023-05-19T11:06:50Z</time>
      </trkpt>
      <trkpt lat="44.59848" lon="5.9212">
        <ele>1668</ele>
        <time>2023-05-19T11:06:51Z</time>
      </trkpt>
      <trkpt lat="44.59846" lon="5.92119">
        <ele>1668.4</ele>
        <time>2023-05-19T11:06:52Z</time>
      </trkpt>
      <trkpt lat="44.59843" lon="5.92119">
        <ele>1668.4</ele>
        <time>2023-05-19T11:06:53Z</time>
      </trkpt>
      <trkpt lat="44.59841" lon="5.92118">
        <ele>1668.6</ele>
        <time>2023-05-19T11:06:54Z</time>
      </trkpt>
      <trkpt lat="44.5984" lon="5.92118">
        <ele>1668.8</ele>
        <time>2023-05-19T11:06:55Z</time>
      </trkpt>
      <trkpt lat="44.59838" lon="5.92118">
        <ele>1669</ele>
        <time>2023-05-19T11:06:56Z</time>
      </trkpt>
      <trkpt lat="44.59836" lon="5.92118">
        <ele>1669</ele>
        <time>2023-05-19T11:06:57Z</time>
      </trkpt>
      <trkpt lat="44.59834" lon="5.92117">
        <ele>1669</ele>
        <time>2023-05-19T11:06:58Z</time>
      </trkpt>
      <trkpt lat="44.59832" lon="5.92116">
        <ele>1669.2</ele>
        <time>2023-05-19T11:06:59Z</time>
      </trkpt>
      <trkpt lat="44.59829" lon="5.92116">
        <ele>1669.2</ele>
        <time>2023-05-19T11:07:00Z</time>
      </trkpt>
      <trkpt lat="44.59826" lon="5.92116">
        <ele>1669.4</ele>
        <time>2023-05-19T11:07:01Z</time>
      </trkpt>
      <trkpt lat="44.59823" lon="5.92116">
        <ele>1669.4</ele>
        <time>2023-05-19T11:07:02Z</time>
      </trkpt>
      <trkpt lat="44.5982" lon="5.92115">
        <ele>1669.6</ele>
        <time>2023-05-19T11:07:03Z</time>
      </trkpt>
      <trkpt lat="44.59817" lon="5.92115">
        <ele>1669.6</ele>
        <time>2023-05-19T11:07:04Z</time>
      </trkpt>
      <trkpt lat="44.59814" lon="5.92115">
        <ele>1669.6</ele>
        <time>2023-05-19T11:07:05Z</time>
      </trkpt>
      <trkpt lat="44.59812" lon="5.92115">
        <ele>1669.8</ele>
        <time>2023-05-19T11:07:06Z</time>
      </trkpt>
      <trkpt lat="44.59809" lon="5.92115">
        <ele>1669.8</ele>
        <time>2023-05-19T11:07:07Z</time>
      </trkpt>
      <trkpt lat="44.59806" lon="5.92114">
        <ele>1669.8</ele>
        <time>2023-05-19T11:07:08Z</time>
      </trkpt>
      <trkpt lat="44.59803" lon="5.92114">
        <ele>1670</ele>
        <time>2023-05-19T11:07:09Z</time>
      </trkpt>
      <trkpt lat="44.598" lon="5.92115">
        <ele>1670.2</ele>
        <time>2023-05-19T11:07:10Z</time>
      </trkpt>
      <trkpt lat="44.59797" lon="5.92116">
        <ele>1670.2</ele>
        <time>2023-05-19T11:07:11Z</time>
      </trkpt>
      <trkpt lat="44.59794" lon="5.92117">
        <ele>1670.4</ele>
        <time>2023-05-19T11:07:12Z</time>
      </trkpt>
      <trkpt lat="44.59792" lon="5.92118">
        <ele>1670.4</ele>
        <time>2023-05-19T11:07:13Z</time>
      </trkpt>
      <trkpt lat="44.59789" lon="5.9212">
        <ele>1670.4</ele>
        <time>2023-05-19T11:07:14Z</time>
      </trkpt>
      <trkpt lat="44.59786" lon="5.92123">
        <ele>1670.4</ele>
        <time>2023-05-19T11:07:15Z</time>
      </trkpt>
      <trkpt lat="44.59783" lon="5.92126">
        <ele>1670.4</ele>
        <time>2023-05-19T11:07:16Z</time>
      </trkpt>
      <trkpt lat="44.5978" lon="5.92129">
        <ele>1670.4</ele>
        <time>2023-05-19T11:07:17Z</time>
      </trkpt>
      <trkpt lat="44.59777" lon="5.92132">
        <ele>1670.4</ele>
        <time>2023-05-19T11:07:18Z</time>
      </trkpt>
      <trkpt lat="44.59774" lon="5.92135">
        <ele>1670.4</ele>
        <time>2023-05-19T11:07:19Z</time>
      </trkpt>
      <trkpt lat="44.59769" lon="5.92142">
        <ele>1670.4</ele>
        <time>2023-05-19T11:07:21Z</time>
      </trkpt>
      <trkpt lat="44.59758" lon="5.92153">
        <ele>1670</ele>
        <time>2023-05-19T11:07:24Z</time>
      </trkpt>
      <trkpt lat="44.59756" lon="5.92157">
        <ele>1670</ele>
        <time>2023-05-19T11:07:25Z</time>
      </trkpt>
      <trkpt lat="44.59754" lon="5.92164">
        <ele>1669.8</ele>
        <time>2023-05-19T11:07:26Z</time>
      </trkpt>
      <trkpt lat="44.59753" lon="5.9217">
        <ele>1669.6</ele>
        <time>2023-05-19T11:07:27Z</time>
      </trkpt>
      <trkpt lat="44.59754" lon="5.92176">
        <ele>1669.4</ele>
        <time>2023-05-19T11:07:28Z</time>
      </trkpt>
      <trkpt lat="44.59755" lon="5.92181">
        <ele>1669</ele>
        <time>2023-05-19T11:07:29Z</time>
      </trkpt>
      <trkpt lat="44.59756" lon="5.92185">
        <ele>1669</ele>
        <time>2023-05-19T11:07:30Z</time>
      </trkpt>
      <trkpt lat="44.59756" lon="5.92189">
        <ele>1668.6</ele>
        <time>2023-05-19T11:07:31Z</time>
      </trkpt>
      <trkpt lat="44.59755" lon="5.92194">
        <ele>1668.4</ele>
        <time>2023-05-19T11:07:32Z</time>
      </trkpt>
      <trkpt lat="44.59755" lon="5.92197">
        <ele>1668.2</ele>
        <time>2023-05-19T11:07:33Z</time>
      </trkpt>
      <trkpt lat="44.59755" lon="5.922">
        <ele>1668.2</ele>
        <time>2023-05-19T11:07:34Z</time>
      </trkpt>
      <trkpt lat="44.59754" lon="5.92203">
        <ele>1668.2</ele>
        <time>2023-05-19T11:07:35Z</time>
      </trkpt>
      <trkpt lat="44.59754" lon="5.92206">
        <ele>1668.2</ele>
        <time>2023-05-19T11:07:36Z</time>
      </trkpt>
      <trkpt lat="44.59754" lon="5.92209">
        <ele>1668.2</ele>
        <time>2023-05-19T11:07:37Z</time>
      </trkpt>
      <trkpt lat="44.59754" lon="5.92212">
        <ele>1668.2</ele>
        <time>2023-05-19T11:07:38Z</time>
      </trkpt>
      <trkpt lat="44.59749" lon="5.92242">
        <ele>1668.8</ele>
        <time>2023-05-19T11:07:46Z</time>
      </trkpt>
      <trkpt lat="44.59737" lon="5.92266">
        <ele>1670</ele>
        <time>2023-05-19T11:07:53Z</time>
      </trkpt>
      <trkpt lat="44.59734" lon="5.92273">
        <ele>1670.2</ele>
        <time>2023-05-19T11:07:55Z</time>
      </trkpt>
      <trkpt lat="44.59733" lon="5.92279">
        <ele>1670.4</ele>
        <time>2023-05-19T11:07:57Z</time>
      </trkpt>
      <trkpt lat="44.59733" lon="5.92282">
        <ele>1670.6</ele>
        <time>2023-05-19T11:07:58Z</time>
      </trkpt>
      <trkpt lat="44.59733" lon="5.92285">
        <ele>1670.8</ele>
        <time>2023-05-19T11:07:59Z</time>
      </trkpt>
      <trkpt lat="44.59734" lon="5.92288">
        <ele>1670.8</ele>
        <time>2023-05-19T11:08:00Z</time>
      </trkpt>
      <trkpt lat="44.59735" lon="5.92291">
        <ele>1671</ele>
        <time>2023-05-19T11:08:01Z</time>
      </trkpt>
      <trkpt lat="44.59736" lon="5.92294">
        <ele>1671</ele>
        <time>2023-05-19T11:08:02Z</time>
      </trkpt>
      <trkpt lat="44.59738" lon="5.92297">
        <ele>1671.4</ele>
        <time>2023-05-19T11:08:03Z</time>
      </trkpt>
      <trkpt lat="44.5974" lon="5.923">
        <ele>1671.4</ele>
        <time>2023-05-19T11:08:04Z</time>
      </trkpt>
      <trkpt lat="44.59741" lon="5.92303">
        <ele>1671.6</ele>
        <time>2023-05-19T11:08:05Z</time>
      </trkpt>
      <trkpt lat="44.59746" lon="5.92315">
        <ele>1672.2</ele>
        <time>2023-05-19T11:08:09Z</time>
      </trkpt>
      <trkpt lat="44.59747" lon="5.92318">
        <ele>1672.2</ele>
        <time>2023-05-19T11:08:10Z</time>
      </trkpt>
      <trkpt lat="44.59747" lon="5.92321">
        <ele>1672.4</ele>
        <time>2023-05-19T11:08:11Z</time>
      </trkpt>
      <trkpt lat="44.59748" lon="5.92323">
        <ele>1672.4</ele>
        <time>2023-05-19T11:08:12Z</time>
      </trkpt>
      <trkpt lat="44.59748" lon="5.92325">
        <ele>1672.4</ele>
        <time>2023-05-19T11:08:13Z</time>
      </trkpt>
      <trkpt lat="44.59748" lon="5.92328">
        <ele>1672.6</ele>
        <time>2023-05-19T11:08:14Z</time>
      </trkpt>
      <trkpt lat="44.59749" lon="5.92331">
        <ele>1672.6</ele>
        <time>2023-05-19T11:08:15Z</time>
      </trkpt>
      <trkpt lat="44.59749" lon="5.92333">
        <ele>1672.8</ele>
        <time>2023-05-19T11:08:16Z</time>
      </trkpt>
      <trkpt lat="44.5975" lon="5.92336">
        <ele>1673</ele>
        <time>2023-05-19T11:08:17Z</time>
      </trkpt>
      <trkpt lat="44.5975" lon="5.92339">
        <ele>1673</ele>
        <time>2023-05-19T11:08:18Z</time>
      </trkpt>
      <trkpt lat="44.59751" lon="5.92341">
        <ele>1673.2</ele>
        <time>2023-05-19T11:08:19Z</time>
      </trkpt>
      <trkpt lat="44.59751" lon="5.92343">
        <ele>1673.4</ele>
        <time>2023-05-19T11:08:20Z</time>
      </trkpt>
      <trkpt lat="44.5975" lon="5.92346">
        <ele>1673.4</ele>
        <time>2023-05-19T11:08:21Z</time>
      </trkpt>
      <trkpt lat="44.5975" lon="5.92348">
        <ele>1673.6</ele>
        <time>2023-05-19T11:08:22Z</time>
      </trkpt>
      <trkpt lat="44.59749" lon="5.9235">
        <ele>1673.6</ele>
        <time>2023-05-19T11:08:23Z</time>
      </trkpt>
      <trkpt lat="44.59749" lon="5.92352">
        <ele>1673.6</ele>
        <time>2023-05-19T11:08:24Z</time>
      </trkpt>
      <trkpt lat="44.59748" lon="5.92355">
        <ele>1673.8</ele>
        <time>2023-05-19T11:08:25Z</time>
      </trkpt>
      <trkpt lat="44.59748" lon="5.92358">
        <ele>1673.8</ele>
        <time>2023-05-19T11:08:26Z</time>
      </trkpt>
      <trkpt lat="44.59747" lon="5.92362">
        <ele>1674</ele>
        <time>2023-05-19T11:08:27Z</time>
      </trkpt>
      <trkpt lat="44.59747" lon="5.92365">
        <ele>1674</ele>
        <time>2023-05-19T11:08:28Z</time>
      </trkpt>
      <trkpt lat="44.59747" lon="5.92368">
        <ele>1674</ele>
        <time>2023-05-19T11:08:29Z</time>
      </trkpt>
      <trkpt lat="44.59746" lon="5.92372">
        <ele>1674.2</ele>
        <time>2023-05-19T11:08:30Z</time>
      </trkpt>
      <trkpt lat="44.59745" lon="5.92375">
        <ele>1674.2</ele>
        <time>2023-05-19T11:08:31Z</time>
      </trkpt>
      <trkpt lat="44.59744" lon="5.92377">
        <ele>1674.4</ele>
        <time>2023-05-19T11:08:32Z</time>
      </trkpt>
      <trkpt lat="44.59744" lon="5.92381">
        <ele>1674.4</ele>
        <time>2023-05-19T11:08:33Z</time>
      </trkpt>
      <trkpt lat="44.59743" lon="5.92383">
        <ele>1674.6</ele>
        <time>2023-05-19T11:08:34Z</time>
      </trkpt>
      <trkpt lat="44.59742" lon="5.92386">
        <ele>1674.6</ele>
        <time>2023-05-19T11:08:35Z</time>
      </trkpt>
      <trkpt lat="44.59742" lon="5.92389">
        <ele>1674.8</ele>
        <time>2023-05-19T11:08:36Z</time>
      </trkpt>
      <trkpt lat="44.59741" lon="5.92395">
        <ele>1674.8</ele>
        <time>2023-05-19T11:08:38Z</time>
      </trkpt>
      <trkpt lat="44.5974" lon="5.92398">
        <ele>1675</ele>
        <time>2023-05-19T11:08:39Z</time>
      </trkpt>
      <trkpt lat="44.59739" lon="5.924">
        <ele>1675</ele>
        <time>2023-05-19T11:08:40Z</time>
      </trkpt>
      <trkpt lat="44.59738" lon="5.92403">
        <ele>1675</ele>
        <time>2023-05-19T11:08:41Z</time>
      </trkpt>
      <trkpt lat="44.59737" lon="5.92406">
        <ele>1675</ele>
        <time>2023-05-19T11:08:42Z</time>
      </trkpt>
      <trkpt lat="44.59736" lon="5.92408">
        <ele>1675</ele>
        <time>2023-05-19T11:08:43Z</time>
      </trkpt>
      <trkpt lat="44.59735" lon="5.9241">
        <ele>1675.2</ele>
        <time>2023-05-19T11:08:44Z</time>
      </trkpt>
      <trkpt lat="44.5973" lon="5.92421">
        <ele>1675.4</ele>
        <time>2023-05-19T11:08:47Z</time>
      </trkpt>
      <trkpt lat="44.59728" lon="5.92427">
        <ele>1675.6</ele>
        <time>2023-05-19T11:08:49Z</time>
      </trkpt>
      <trkpt lat="44.59728" lon="5.92429">
        <ele>1675.8</ele>
        <time>2023-05-19T11:08:50Z</time>
      </trkpt>
      <trkpt lat="44.59727" lon="5.92432">
        <ele>1675.8</ele>
        <time>2023-05-19T11:08:51Z</time>
      </trkpt>
      <trkpt lat="44.59723" lon="5.92441">
        <ele>1676.4</ele>
        <time>2023-05-19T11:08:54Z</time>
      </trkpt>
      <trkpt lat="44.59722" lon="5.92444">
        <ele>1676.6</ele>
        <time>2023-05-19T11:08:55Z</time>
      </trkpt>
      <trkpt lat="44.59719" lon="5.92449">
        <ele>1676.8</ele>
        <time>2023-05-19T11:08:57Z</time>
      </trkpt>
      <trkpt lat="44.59717" lon="5.92452">
        <ele>1677</ele>
        <time>2023-05-19T11:08:58Z</time>
      </trkpt>
      <trkpt lat="44.59713" lon="5.92458">
        <ele>1677.2</ele>
        <time>2023-05-19T11:09:00Z</time>
      </trkpt>
      <trkpt lat="44.59712" lon="5.92461">
        <ele>1677.4</ele>
        <time>2023-05-19T11:09:01Z</time>
      </trkpt>
      <trkpt lat="44.59711" lon="5.92464">
        <ele>1677.6</ele>
        <time>2023-05-19T11:09:02Z</time>
      </trkpt>
      <trkpt lat="44.5971" lon="5.92466">
        <ele>1677.6</ele>
        <time>2023-05-19T11:09:03Z</time>
      </trkpt>
      <trkpt lat="44.59709" lon="5.92469">
        <ele>1677.8</ele>
        <time>2023-05-19T11:09:04Z</time>
      </trkpt>
      <trkpt lat="44.59707" lon="5.92471">
        <ele>1677.8</ele>
        <time>2023-05-19T11:09:05Z</time>
      </trkpt>
      <trkpt lat="44.59705" lon="5.92474">
        <ele>1678</ele>
        <time>2023-05-19T11:09:06Z</time>
      </trkpt>
      <trkpt lat="44.59703" lon="5.92476">
        <ele>1678.2</ele>
        <time>2023-05-19T11:09:07Z</time>
      </trkpt>
      <trkpt lat="44.59702" lon="5.92478">
        <ele>1678.2</ele>
        <time>2023-05-19T11:09:08Z</time>
      </trkpt>
      <trkpt lat="44.597" lon="5.9248">
        <ele>1678.2</ele>
        <time>2023-05-19T11:09:09Z</time>
      </trkpt>
      <trkpt lat="44.59699" lon="5.92483">
        <ele>1678.2</ele>
        <time>2023-05-19T11:09:10Z</time>
      </trkpt>
      <trkpt lat="44.59697" lon="5.92485">
        <ele>1678.4</ele>
        <time>2023-05-19T11:09:11Z</time>
      </trkpt>
      <trkpt lat="44.59696" lon="5.92488">
        <ele>1678.4</ele>
        <time>2023-05-19T11:09:12Z</time>
      </trkpt>
      <trkpt lat="44.59695" lon="5.9249">
        <ele>1678.4</ele>
        <time>2023-05-19T11:09:13Z</time>
      </trkpt>
      <trkpt lat="44.59694" lon="5.92492">
        <ele>1678.4</ele>
        <time>2023-05-19T11:09:14Z</time>
      </trkpt>
      <trkpt lat="44.59694" lon="5.92493">
        <ele>1678.4</ele>
        <time>2023-05-19T11:09:15Z</time>
      </trkpt>
      <trkpt lat="44.59694" lon="5.92495">
        <ele>1678.6</ele>
        <time>2023-05-19T11:09:16Z</time>
      </trkpt>
      <trkpt lat="44.59695" lon="5.92497">
        <ele>1678.6</ele>
        <time>2023-05-19T11:09:17Z</time>
      </trkpt>
      <trkpt lat="44.59695" lon="5.925">
        <ele>1678.6</ele>
        <time>2023-05-19T11:09:18Z</time>
      </trkpt>
      <trkpt lat="44.59696" lon="5.92502">
        <ele>1678.6</ele>
        <time>2023-05-19T11:09:19Z</time>
      </trkpt>
      <trkpt lat="44.59698" lon="5.92504">
        <ele>1678.8</ele>
        <time>2023-05-19T11:09:20Z</time>
      </trkpt>
      <trkpt lat="44.59699" lon="5.92506">
        <ele>1678.8</ele>
        <time>2023-05-19T11:09:21Z</time>
      </trkpt>
      <trkpt lat="44.59702" lon="5.9251">
        <ele>1679</ele>
        <time>2023-05-19T11:09:23Z</time>
      </trkpt>
      <trkpt lat="44.59711" lon="5.92519">
        <ele>1679.4</ele>
        <time>2023-05-19T11:09:29Z</time>
      </trkpt>
      <trkpt lat="44.59712" lon="5.9252">
        <ele>1679.4</ele>
        <time>2023-05-19T11:09:30Z</time>
      </trkpt>
      <trkpt lat="44.59714" lon="5.92521">
        <ele>1679.4</ele>
        <time>2023-05-19T11:09:31Z</time>
      </trkpt>
      <trkpt lat="44.59717" lon="5.92524">
        <ele>1679.6</ele>
        <time>2023-05-19T11:09:33Z</time>
      </trkpt>
      <trkpt lat="44.59722" lon="5.92528">
        <ele>1679.6</ele>
        <time>2023-05-19T11:09:36Z</time>
      </trkpt>
      <trkpt lat="44.59723" lon="5.92529">
        <ele>1679.6</ele>
        <time>2023-05-19T11:09:37Z</time>
      </trkpt>
      <trkpt lat="44.59724" lon="5.9253">
        <ele>1679.8</ele>
        <time>2023-05-19T11:09:38Z</time>
      </trkpt>
      <trkpt lat="44.59726" lon="5.9253">
        <ele>1680</ele>
        <time>2023-05-19T11:09:39Z</time>
      </trkpt>
      <trkpt lat="44.59728" lon="5.92532">
        <ele>1680.4</ele>
        <time>2023-05-19T11:09:41Z</time>
      </trkpt>
      <trkpt lat="44.59729" lon="5.92533">
        <ele>1680.4</ele>
        <time>2023-05-19T11:09:42Z</time>
      </trkpt>
      <trkpt lat="44.5973" lon="5.92534">
        <ele>1680.6</ele>
        <time>2023-05-19T11:09:43Z</time>
      </trkpt>
      <trkpt lat="44.59737" lon="5.92538">
        <ele>1681.2</ele>
        <time>2023-05-19T11:09:46Z</time>
      </trkpt>
      <trkpt lat="44.59743" lon="5.92543">
        <ele>1681.4</ele>
        <time>2023-05-19T11:09:50Z</time>
      </trkpt>
      <trkpt lat="44.59751" lon="5.9255">
        <ele>1681.8</ele>
        <time>2023-05-19T11:09:55Z</time>
      </trkpt>
      <trkpt lat="44.59752" lon="5.92552">
        <ele>1682</ele>
        <time>2023-05-19T11:09:56Z</time>
      </trkpt>
      <trkpt lat="44.59754" lon="5.92554">
        <ele>1682</ele>
        <time>2023-05-19T11:09:57Z</time>
      </trkpt>
      <trkpt lat="44.59755" lon="5.92555">
        <ele>1682</ele>
        <time>2023-05-19T11:09:58Z</time>
      </trkpt>
      <trkpt lat="44.59757" lon="5.92557">
        <ele>1682.2</ele>
        <time>2023-05-19T11:09:59Z</time>
      </trkpt>
      <trkpt lat="44.59759" lon="5.92558">
        <ele>1682.2</ele>
        <time>2023-05-19T11:10:00Z</time>
      </trkpt>
      <trkpt lat="44.5976" lon="5.92559">
        <ele>1682.2</ele>
        <time>2023-05-19T11:10:01Z</time>
      </trkpt>
      <trkpt lat="44.59762" lon="5.9256">
        <ele>1682.4</ele>
        <time>2023-05-19T11:10:02Z</time>
      </trkpt>
      <trkpt lat="44.59763" lon="5.92562">
        <ele>1682.4</ele>
        <time>2023-05-19T11:10:03Z</time>
      </trkpt>
      <trkpt lat="44.59765" lon="5.92564">
        <ele>1682.4</ele>
        <time>2023-05-19T11:10:04Z</time>
      </trkpt>
      <trkpt lat="44.59767" lon="5.92566">
        <ele>1682.4</ele>
        <time>2023-05-19T11:10:05Z</time>
      </trkpt>
      <trkpt lat="44.59782" lon="5.92582">
        <ele>1683.2</ele>
        <time>2023-05-19T11:10:13Z</time>
      </trkpt>
      <trkpt lat="44.59784" lon="5.92584">
        <ele>1683.4</ele>
        <time>2023-05-19T11:10:14Z</time>
      </trkpt>
      <trkpt lat="44.59798" lon="5.92604">
        <ele>1684.2</ele>
        <time>2023-05-19T11:10:22Z</time>
      </trkpt>
      <trkpt lat="44.59801" lon="5.92609">
        <ele>1684.4</ele>
        <time>2023-05-19T11:10:24Z</time>
      </trkpt>
      <trkpt lat="44.59803" lon="5.92612">
        <ele>1684.4</ele>
        <time>2023-05-19T11:10:25Z</time>
      </trkpt>
      <trkpt lat="44.59805" lon="5.92615">
        <ele>1684.8</ele>
        <time>2023-05-19T11:10:26Z</time>
      </trkpt>
      <trkpt lat="44.59806" lon="5.92616">
        <ele>1684.8</ele>
        <time>2023-05-19T11:10:27Z</time>
      </trkpt>
      <trkpt lat="44.59808" lon="5.92618">
        <ele>1685</ele>
        <time>2023-05-19T11:10:28Z</time>
      </trkpt>
      <trkpt lat="44.5981" lon="5.92619">
        <ele>1685</ele>
        <time>2023-05-19T11:10:29Z</time>
      </trkpt>
      <trkpt lat="44.59813" lon="5.92621">
        <ele>1685.2</ele>
        <time>2023-05-19T11:10:30Z</time>
      </trkpt>
      <trkpt lat="44.59816" lon="5.92624">
        <ele>1685.2</ele>
        <time>2023-05-19T11:10:32Z</time>
      </trkpt>
      <trkpt lat="44.59817" lon="5.92626">
        <ele>1685.4</ele>
        <time>2023-05-19T11:10:33Z</time>
      </trkpt>
      <trkpt lat="44.59818" lon="5.92625">
        <ele>1685.4</ele>
        <time>2023-05-19T11:10:34Z</time>
      </trkpt>
      <trkpt lat="44.5982" lon="5.92625">
        <ele>1685.6</ele>
        <time>2023-05-19T11:10:35Z</time>
      </trkpt>
      <trkpt lat="44.59822" lon="5.92626">
        <ele>1685.8</ele>
        <time>2023-05-19T11:10:36Z</time>
      </trkpt>
      <trkpt lat="44.59824" lon="5.92628">
        <ele>1686</ele>
        <time>2023-05-19T11:10:37Z</time>
      </trkpt>
      <trkpt lat="44.59826" lon="5.92629">
        <ele>1686.2</ele>
        <time>2023-05-19T11:10:38Z</time>
      </trkpt>
      <trkpt lat="44.59828" lon="5.92631">
        <ele>1686.4</ele>
        <time>2023-05-19T11:10:39Z</time>
      </trkpt>
      <trkpt lat="44.59829" lon="5.92632">
        <ele>1686.4</ele>
        <time>2023-05-19T11:10:40Z</time>
      </trkpt>
      <trkpt lat="44.5983" lon="5.92634">
        <ele>1686.6</ele>
        <time>2023-05-19T11:10:41Z</time>
      </trkpt>
      <trkpt lat="44.59832" lon="5.92635">
        <ele>1686.6</ele>
        <time>2023-05-19T11:10:42Z</time>
      </trkpt>
      <trkpt lat="44.59833" lon="5.92636">
        <ele>1686.6</ele>
        <time>2023-05-19T11:10:43Z</time>
      </trkpt>
      <trkpt lat="44.59835" lon="5.92638">
        <ele>1686.8</ele>
        <time>2023-05-19T11:10:44Z</time>
      </trkpt>
      <trkpt lat="44.59837" lon="5.9264">
        <ele>1687</ele>
        <time>2023-05-19T11:10:45Z</time>
      </trkpt>
      <trkpt lat="44.59838" lon="5.92641">
        <ele>1687</ele>
        <time>2023-05-19T11:10:46Z</time>
      </trkpt>
      <trkpt lat="44.59839" lon="5.92641">
        <ele>1687.2</ele>
        <time>2023-05-19T11:10:47Z</time>
      </trkpt>
      <trkpt lat="44.59841" lon="5.92642">
        <ele>1687.2</ele>
        <time>2023-05-19T11:10:48Z</time>
      </trkpt>
      <trkpt lat="44.59842" lon="5.92642">
        <ele>1687.2</ele>
        <time>2023-05-19T11:10:49Z</time>
      </trkpt>
      <trkpt lat="44.59844" lon="5.92643">
        <ele>1687.2</ele>
        <time>2023-05-19T11:10:50Z</time>
      </trkpt>
      <trkpt lat="44.59846" lon="5.92644">
        <ele>1687.4</ele>
        <time>2023-05-19T11:10:51Z</time>
      </trkpt>
      <trkpt lat="44.59847" lon="5.92645">
        <ele>1687.4</ele>
        <time>2023-05-19T11:10:52Z</time>
      </trkpt>
      <trkpt lat="44.59849" lon="5.92646">
        <ele>1687.4</ele>
        <time>2023-05-19T11:10:53Z</time>
      </trkpt>
      <trkpt lat="44.5985" lon="5.92648">
        <ele>1687.6</ele>
        <time>2023-05-19T11:10:54Z</time>
      </trkpt>
      <trkpt lat="44.59852" lon="5.92649">
        <ele>1687.6</ele>
        <time>2023-05-19T11:10:55Z</time>
      </trkpt>
      <trkpt lat="44.59854" lon="5.92651">
        <ele>1687.8</ele>
        <time>2023-05-19T11:10:56Z</time>
      </trkpt>
      <trkpt lat="44.59855" lon="5.92652">
        <ele>1687.8</ele>
        <time>2023-05-19T11:10:57Z</time>
      </trkpt>
      <trkpt lat="44.59858" lon="5.92654">
        <ele>1688</ele>
        <time>2023-05-19T11:10:58Z</time>
      </trkpt>
      <trkpt lat="44.59859" lon="5.92659">
        <ele>1688</ele>
        <time>2023-05-19T11:10:59Z</time>
      </trkpt>
      <trkpt lat="44.59858" lon="5.92661">
        <ele>1688.2</ele>
        <time>2023-05-19T11:11:00Z</time>
      </trkpt>
      <trkpt lat="44.59856" lon="5.92664">
        <ele>1688.2</ele>
        <time>2023-05-19T11:11:01Z</time>
      </trkpt>
      <trkpt lat="44.59855" lon="5.92668">
        <ele>1688.4</ele>
        <time>2023-05-19T11:11:02Z</time>
      </trkpt>
      <trkpt lat="44.59853" lon="5.9267">
        <ele>1688.4</ele>
        <time>2023-05-19T11:11:03Z</time>
      </trkpt>
      <trkpt lat="44.59852" lon="5.92672">
        <ele>1688.4</ele>
        <time>2023-05-19T11:11:04Z</time>
      </trkpt>
      <trkpt lat="44.59849" lon="5.92676">
        <ele>1688.4</ele>
        <time>2023-05-19T11:11:06Z</time>
      </trkpt>
      <trkpt lat="44.59848" lon="5.92676">
        <ele>1688.4</ele>
        <time>2023-05-19T11:11:07Z</time>
      </trkpt>
      <trkpt lat="44.59847" lon="5.92678">
        <ele>1688.4</ele>
        <time>2023-05-19T11:11:08Z</time>
      </trkpt>
      <trkpt lat="44.59845" lon="5.92679">
        <ele>1688.6</ele>
        <time>2023-05-19T11:11:09Z</time>
      </trkpt>
      <trkpt lat="44.59842" lon="5.92681">
        <ele>1688.6</ele>
        <time>2023-05-19T11:11:11Z</time>
      </trkpt>
      <trkpt lat="44.59842" lon="5.92682">
        <ele>1689</ele>
        <time>2023-05-19T11:11:12Z</time>
      </trkpt>
      <trkpt lat="44.59841" lon="5.92683">
        <ele>1689</ele>
        <time>2023-05-19T11:11:13Z</time>
      </trkpt>
      <trkpt lat="44.59841" lon="5.92684">
        <ele>1689.2</ele>
        <time>2023-05-19T11:11:14Z</time>
      </trkpt>
      <trkpt lat="44.59841" lon="5.92686">
        <ele>1689.2</ele>
        <time>2023-05-19T11:11:15Z</time>
      </trkpt>
      <trkpt lat="44.59841" lon="5.92688">
        <ele>1689.4</ele>
        <time>2023-05-19T11:11:16Z</time>
      </trkpt>
      <trkpt lat="44.5984" lon="5.92698">
        <ele>1689.8</ele>
        <time>2023-05-19T11:11:19Z</time>
      </trkpt>
      <trkpt lat="44.5984" lon="5.92701">
        <ele>1689.8</ele>
        <time>2023-05-19T11:11:20Z</time>
      </trkpt>
      <trkpt lat="44.5984" lon="5.92703">
        <ele>1689.8</ele>
        <time>2023-05-19T11:11:21Z</time>
      </trkpt>
      <trkpt lat="44.5984" lon="5.92711">
        <ele>1690</ele>
        <time>2023-05-19T11:11:23Z</time>
      </trkpt>
      <trkpt lat="44.5984" lon="5.92714">
        <ele>1690</ele>
        <time>2023-05-19T11:11:24Z</time>
      </trkpt>
      <trkpt lat="44.59841" lon="5.92719">
        <ele>1690.2</ele>
        <time>2023-05-19T11:11:26Z</time>
      </trkpt>
      <trkpt lat="44.59842" lon="5.92728">
        <ele>1690.6</ele>
        <time>2023-05-19T11:11:29Z</time>
      </trkpt>
      <trkpt lat="44.59843" lon="5.92731">
        <ele>1690.6</ele>
        <time>2023-05-19T11:11:30Z</time>
      </trkpt>
      <trkpt lat="44.59844" lon="5.92734">
        <ele>1690.6</ele>
        <time>2023-05-19T11:11:31Z</time>
      </trkpt>
      <trkpt lat="44.59845" lon="5.92738">
        <ele>1691</ele>
        <time>2023-05-19T11:11:32Z</time>
      </trkpt>
      <trkpt lat="44.59846" lon="5.92741">
        <ele>1691</ele>
        <time>2023-05-19T11:11:33Z</time>
      </trkpt>
      <trkpt lat="44.59848" lon="5.92744">
        <ele>1691</ele>
        <time>2023-05-19T11:11:34Z</time>
      </trkpt>
      <trkpt lat="44.59849" lon="5.92751">
        <ele>1691.4</ele>
        <time>2023-05-19T11:11:36Z</time>
      </trkpt>
      <trkpt lat="44.59849" lon="5.92754">
        <ele>1691.6</ele>
        <time>2023-05-19T11:11:37Z</time>
      </trkpt>
      <trkpt lat="44.5985" lon="5.92761">
        <ele>1692</ele>
        <time>2023-05-19T11:11:39Z</time>
      </trkpt>
      <trkpt lat="44.59852" lon="5.92764">
        <ele>1692</ele>
        <time>2023-05-19T11:11:40Z</time>
      </trkpt>
      <trkpt lat="44.59853" lon="5.92767">
        <ele>1692</ele>
        <time>2023-05-19T11:11:41Z</time>
      </trkpt>
      <trkpt lat="44.59856" lon="5.92772">
        <ele>1692.2</ele>
        <time>2023-05-19T11:11:43Z</time>
      </trkpt>
      <trkpt lat="44.59857" lon="5.92773">
        <ele>1692.4</ele>
        <time>2023-05-19T11:11:44Z</time>
      </trkpt>
      <trkpt lat="44.59857" lon="5.92774">
        <ele>1692.6</ele>
        <time>2023-05-19T11:11:45Z</time>
      </trkpt>
      <trkpt lat="44.59857" lon="5.92775">
        <ele>1692.6</ele>
        <time>2023-05-19T11:11:46Z</time>
      </trkpt>
      <trkpt lat="44.59857" lon="5.92777">
        <ele>1692.6</ele>
        <time>2023-05-19T11:11:47Z</time>
      </trkpt>
      <trkpt lat="44.59859" lon="5.92779">
        <ele>1692.8</ele>
        <time>2023-05-19T11:11:48Z</time>
      </trkpt>
      <trkpt lat="44.5986" lon="5.92781">
        <ele>1693</ele>
        <time>2023-05-19T11:11:49Z</time>
      </trkpt>
      <trkpt lat="44.59862" lon="5.92782">
        <ele>1693</ele>
        <time>2023-05-19T11:11:50Z</time>
      </trkpt>
      <trkpt lat="44.59863" lon="5.92784">
        <ele>1693</ele>
        <time>2023-05-19T11:11:51Z</time>
      </trkpt>
      <trkpt lat="44.59864" lon="5.92785">
        <ele>1693</ele>
        <time>2023-05-19T11:11:52Z</time>
      </trkpt>
      <trkpt lat="44.59866" lon="5.92786">
        <ele>1693.2</ele>
        <time>2023-05-19T11:11:53Z</time>
      </trkpt>
      <trkpt lat="44.59867" lon="5.92788">
        <ele>1693.2</ele>
        <time>2023-05-19T11:11:54Z</time>
      </trkpt>
      <trkpt lat="44.59868" lon="5.9279">
        <ele>1693.6</ele>
        <time>2023-05-19T11:11:55Z</time>
      </trkpt>
      <trkpt lat="44.5987" lon="5.92792">
        <ele>1693.8</ele>
        <time>2023-05-19T11:11:56Z</time>
      </trkpt>
      <trkpt lat="44.59871" lon="5.92795">
        <ele>1694</ele>
        <time>2023-05-19T11:11:57Z</time>
      </trkpt>
      <trkpt lat="44.59873" lon="5.92797">
        <ele>1694</ele>
        <time>2023-05-19T11:11:58Z</time>
      </trkpt>
      <trkpt lat="44.59874" lon="5.928">
        <ele>1694</ele>
        <time>2023-05-19T11:11:59Z</time>
      </trkpt>
      <trkpt lat="44.59875" lon="5.92803">
        <ele>1694</ele>
        <time>2023-05-19T11:12:00Z</time>
      </trkpt>
      <trkpt lat="44.59876" lon="5.92805">
        <ele>1694</ele>
        <time>2023-05-19T11:12:01Z</time>
      </trkpt>
      <trkpt lat="44.59876" lon="5.92808">
        <ele>1694.2</ele>
        <time>2023-05-19T11:12:02Z</time>
      </trkpt>
      <trkpt lat="44.59876" lon="5.9281">
        <ele>1694.2</ele>
        <time>2023-05-19T11:12:03Z</time>
      </trkpt>
      <trkpt lat="44.59876" lon="5.92813">
        <ele>1694.2</ele>
        <time>2023-05-19T11:12:04Z</time>
      </trkpt>
      <trkpt lat="44.59876" lon="5.92815">
        <ele>1694.2</ele>
        <time>2023-05-19T11:12:05Z</time>
      </trkpt>
      <trkpt lat="44.59875" lon="5.92818">
        <ele>1694.4</ele>
        <time>2023-05-19T11:12:06Z</time>
      </trkpt>
      <trkpt lat="44.59874" lon="5.92821">
        <ele>1694.4</ele>
        <time>2023-05-19T11:12:07Z</time>
      </trkpt>
      <trkpt lat="44.59873" lon="5.92824">
        <ele>1694.4</ele>
        <time>2023-05-19T11:12:08Z</time>
      </trkpt>
      <trkpt lat="44.59872" lon="5.9283">
        <ele>1694.4</ele>
        <time>2023-05-19T11:12:10Z</time>
      </trkpt>
      <trkpt lat="44.59871" lon="5.92832">
        <ele>1694.4</ele>
        <time>2023-05-19T11:12:11Z</time>
      </trkpt>
      <trkpt lat="44.5987" lon="5.92835">
        <ele>1694.6</ele>
        <time>2023-05-19T11:12:12Z</time>
      </trkpt>
      <trkpt lat="44.59869" lon="5.92837">
        <ele>1694.8</ele>
        <time>2023-05-19T11:12:13Z</time>
      </trkpt>
      <trkpt lat="44.59868" lon="5.92839">
        <ele>1694.8</ele>
        <time>2023-05-19T11:12:14Z</time>
      </trkpt>
      <trkpt lat="44.59866" lon="5.92841">
        <ele>1694.6</ele>
        <time>2023-05-19T11:12:15Z</time>
      </trkpt>
      <trkpt lat="44.59866" lon="5.92843">
        <ele>1694.8</ele>
        <time>2023-05-19T11:12:16Z</time>
      </trkpt>
      <trkpt lat="44.59865" lon="5.92845">
        <ele>1695</ele>
        <time>2023-05-19T11:12:17Z</time>
      </trkpt>
      <trkpt lat="44.59864" lon="5.92848">
        <ele>1695</ele>
        <time>2023-05-19T11:12:18Z</time>
      </trkpt>
      <trkpt lat="44.59864" lon="5.9285">
        <ele>1695</ele>
        <time>2023-05-19T11:12:19Z</time>
      </trkpt>
      <trkpt lat="44.59864" lon="5.92852">
        <ele>1695.2</ele>
        <time>2023-05-19T11:12:20Z</time>
      </trkpt>
      <trkpt lat="44.59863" lon="5.92853">
        <ele>1695.4</ele>
        <time>2023-05-19T11:12:21Z</time>
      </trkpt>
      <trkpt lat="44.59863" lon="5.92855">
        <ele>1695.4</ele>
        <time>2023-05-19T11:12:22Z</time>
      </trkpt>
      <trkpt lat="44.59863" lon="5.92857">
        <ele>1695.6</ele>
        <time>2023-05-19T11:12:23Z</time>
      </trkpt>
      <trkpt lat="44.59862" lon="5.92858">
        <ele>1695.6</ele>
        <time>2023-05-19T11:12:24Z</time>
      </trkpt>
      <trkpt lat="44.59862" lon="5.92861">
        <ele>1696</ele>
        <time>2023-05-19T11:12:25Z</time>
      </trkpt>
      <trkpt lat="44.59862" lon="5.92863">
        <ele>1696</ele>
        <time>2023-05-19T11:12:26Z</time>
      </trkpt>
      <trkpt lat="44.59862" lon="5.92865">
        <ele>1696</ele>
        <time>2023-05-19T11:12:27Z</time>
      </trkpt>
      <trkpt lat="44.59861" lon="5.92873">
        <ele>1696.2</ele>
        <time>2023-05-19T11:12:29Z</time>
      </trkpt>
      <trkpt lat="44.59856" lon="5.92895">
        <ele>1697</ele>
        <time>2023-05-19T11:12:36Z</time>
      </trkpt>
      <trkpt lat="44.59856" lon="5.92897">
        <ele>1697.2</ele>
        <time>2023-05-19T11:12:37Z</time>
      </trkpt>
      <trkpt lat="44.59855" lon="5.929">
        <ele>1697.2</ele>
        <time>2023-05-19T11:12:38Z</time>
      </trkpt>
      <trkpt lat="44.59855" lon="5.92903">
        <ele>1697.2</ele>
        <time>2023-05-19T11:12:39Z</time>
      </trkpt>
      <trkpt lat="44.59855" lon="5.92906">
        <ele>1697.4</ele>
        <time>2023-05-19T11:12:40Z</time>
      </trkpt>
      <trkpt lat="44.59855" lon="5.92909">
        <ele>1697.4</ele>
        <time>2023-05-19T11:12:41Z</time>
      </trkpt>
      <trkpt lat="44.59854" lon="5.92912">
        <ele>1697.4</ele>
        <time>2023-05-19T11:12:42Z</time>
      </trkpt>
      <trkpt lat="44.59853" lon="5.92915">
        <ele>1697.4</ele>
        <time>2023-05-19T11:12:43Z</time>
      </trkpt>
      <trkpt lat="44.59852" lon="5.92917">
        <ele>1697.4</ele>
        <time>2023-05-19T11:12:44Z</time>
      </trkpt>
      <trkpt lat="44.59851" lon="5.92922">
        <ele>1697.4</ele>
        <time>2023-05-19T11:12:46Z</time>
      </trkpt>
      <trkpt lat="44.59852" lon="5.92933">
        <ele>1697.8</ele>
        <time>2023-05-19T11:12:49Z</time>
      </trkpt>
      <trkpt lat="44.59854" lon="5.92942">
        <ele>1698</ele>
        <time>2023-05-19T11:12:52Z</time>
      </trkpt>
      <trkpt lat="44.59856" lon="5.9296">
        <ele>1698.8</ele>
        <time>2023-05-19T11:12:57Z</time>
      </trkpt>
      <trkpt lat="44.59856" lon="5.92962">
        <ele>1698.8</ele>
        <time>2023-05-19T11:12:58Z</time>
      </trkpt>
      <trkpt lat="44.59857" lon="5.92965">
        <ele>1699</ele>
        <time>2023-05-19T11:12:59Z</time>
      </trkpt>
      <trkpt lat="44.59858" lon="5.92968">
        <ele>1699</ele>
        <time>2023-05-19T11:13:00Z</time>
      </trkpt>
      <trkpt lat="44.59859" lon="5.92971">
        <ele>1699</ele>
        <time>2023-05-19T11:13:01Z</time>
      </trkpt>
      <trkpt lat="44.59861" lon="5.92976">
        <ele>1699.2</ele>
        <time>2023-05-19T11:13:03Z</time>
      </trkpt>
      <trkpt lat="44.59868" lon="5.92993">
        <ele>1699.4</ele>
        <time>2023-05-19T11:13:09Z</time>
      </trkpt>
      <trkpt lat="44.59873" lon="5.93005">
        <ele>1700</ele>
        <time>2023-05-19T11:13:13Z</time>
      </trkpt>
      <trkpt lat="44.59874" lon="5.93008">
        <ele>1700</ele>
        <time>2023-05-19T11:13:14Z</time>
      </trkpt>
      <trkpt lat="44.59875" lon="5.93011">
        <ele>1700.2</ele>
        <time>2023-05-19T11:13:15Z</time>
      </trkpt>
      <trkpt lat="44.59879" lon="5.93019">
        <ele>1700.4</ele>
        <time>2023-05-19T11:13:18Z</time>
      </trkpt>
      <trkpt lat="44.59882" lon="5.93028">
        <ele>1700.4</ele>
        <time>2023-05-19T11:13:21Z</time>
      </trkpt>
      <trkpt lat="44.59883" lon="5.9303">
        <ele>1700.4</ele>
        <time>2023-05-19T11:13:22Z</time>
      </trkpt>
      <trkpt lat="44.59883" lon="5.93032">
        <ele>1700.6</ele>
        <time>2023-05-19T11:13:23Z</time>
      </trkpt>
      <trkpt lat="44.59884" lon="5.93034">
        <ele>1700.8</ele>
        <time>2023-05-19T11:13:24Z</time>
      </trkpt>
      <trkpt lat="44.59884" lon="5.93037">
        <ele>1700.6</ele>
        <time>2023-05-19T11:13:25Z</time>
      </trkpt>
      <trkpt lat="44.59885" lon="5.9304">
        <ele>1700.6</ele>
        <time>2023-05-19T11:13:26Z</time>
      </trkpt>
      <trkpt lat="44.59886" lon="5.93043">
        <ele>1700.6</ele>
        <time>2023-05-19T11:13:27Z</time>
      </trkpt>
      <trkpt lat="44.59886" lon="5.93046">
        <ele>1700.8</ele>
        <time>2023-05-19T11:13:28Z</time>
      </trkpt>
      <trkpt lat="44.59888" lon="5.93056">
        <ele>1701.2</ele>
        <time>2023-05-19T11:13:31Z</time>
      </trkpt>
      <trkpt lat="44.59889" lon="5.93059">
        <ele>1701</ele>
        <time>2023-05-19T11:13:32Z</time>
      </trkpt>
      <trkpt lat="44.5989" lon="5.93061">
        <ele>1701.2</ele>
        <time>2023-05-19T11:13:33Z</time>
      </trkpt>
      <trkpt lat="44.59892" lon="5.93074">
        <ele>1701.6</ele>
        <time>2023-05-19T11:13:37Z</time>
      </trkpt>
      <trkpt lat="44.59897" lon="5.93096">
        <ele>1702.2</ele>
        <time>2023-05-19T11:13:44Z</time>
      </trkpt>
      <trkpt lat="44.59898" lon="5.93103">
        <ele>1702.4</ele>
        <time>2023-05-19T11:13:46Z</time>
      </trkpt>
      <trkpt lat="44.59899" lon="5.9311">
        <ele>1702.6</ele>
        <time>2023-05-19T11:13:48Z</time>
      </trkpt>
      <trkpt lat="44.59903" lon="5.93119">
        <ele>1703</ele>
        <time>2023-05-19T11:13:51Z</time>
      </trkpt>
      <trkpt lat="44.59905" lon="5.93121">
        <ele>1703</ele>
        <time>2023-05-19T11:13:52Z</time>
      </trkpt>
      <trkpt lat="44.59905" lon="5.93121">
        <ele>1703.2</ele>
        <time>2023-05-19T11:13:53Z</time>
      </trkpt>
      <trkpt lat="44.59905" lon="5.93121">
        <ele>1703.4</ele>
        <time>2023-05-19T11:13:55Z</time>
      </trkpt>
      <trkpt lat="44.59905" lon="5.93121">
        <ele>1703.4</ele>
        <time>2023-05-19T11:13:58Z</time>
      </trkpt>
      <trkpt lat="44.59906" lon="5.93121">
        <ele>1703.2</ele>
        <time>2023-05-19T11:14:35Z</time>
      </trkpt>
      <trkpt lat="44.5991" lon="5.93124">
        <ele>1703.2</ele>
        <time>2023-05-19T11:14:38Z</time>
      </trkpt>
      <trkpt lat="44.59912" lon="5.93125">
        <ele>1703.2</ele>
        <time>2023-05-19T11:14:39Z</time>
      </trkpt>
      <trkpt lat="44.59916" lon="5.9313">
        <ele>1703.4</ele>
        <time>2023-05-19T11:14:42Z</time>
      </trkpt>
      <trkpt lat="44.59918" lon="5.93132">
        <ele>1703.6</ele>
        <time>2023-05-19T11:14:43Z</time>
      </trkpt>
      <trkpt lat="44.59919" lon="5.93133">
        <ele>1703.8</ele>
        <time>2023-05-19T11:14:44Z</time>
      </trkpt>
      <trkpt lat="44.59919" lon="5.93134">
        <ele>1703.8</ele>
        <time>2023-05-19T11:14:45Z</time>
      </trkpt>
      <trkpt lat="44.5992" lon="5.93134">
        <ele>1704.6</ele>
        <time>2023-05-19T11:14:47Z</time>
      </trkpt>
      <trkpt lat="44.5992" lon="5.93136">
        <ele>1705</ele>
        <time>2023-05-19T11:14:49Z</time>
      </trkpt>
      <trkpt lat="44.59923" lon="5.9314">
        <ele>1705.4</ele>
        <time>2023-05-19T11:14:53Z</time>
      </trkpt>
      <trkpt lat="44.59924" lon="5.93141">
        <ele>1705.4</ele>
        <time>2023-05-19T11:14:54Z</time>
      </trkpt>
      <trkpt lat="44.59925" lon="5.93143">
        <ele>1705.4</ele>
        <time>2023-05-19T11:14:56Z</time>
      </trkpt>
      <trkpt lat="44.59925" lon="5.93144">
        <ele>1705.4</ele>
        <time>2023-05-19T11:14:57Z</time>
      </trkpt>
      <trkpt lat="44.59923" lon="5.93148">
        <ele>1704.6</ele>
        <time>2023-05-19T11:15:01Z</time>
      </trkpt>
      <trkpt lat="44.59923" lon="5.93148">
        <ele>1704.4</ele>
        <time>2023-05-19T11:15:02Z</time>
      </trkpt>
      <trkpt lat="44.59922" lon="5.93149">
        <ele>1704.2</ele>
        <time>2023-05-19T11:15:03Z</time>
      </trkpt>
      <trkpt lat="44.59922" lon="5.9315">
        <ele>1704.2</ele>
        <time>2023-05-19T11:15:04Z</time>
      </trkpt>
      <trkpt lat="44.59921" lon="5.9315">
        <ele>1704</ele>
        <time>2023-05-19T11:15:05Z</time>
      </trkpt>
      <trkpt lat="44.59919" lon="5.93153">
        <ele>1703.4</ele>
        <time>2023-05-19T11:15:09Z</time>
      </trkpt>
      <trkpt lat="44.59919" lon="5.93154">
        <ele>1703.2</ele>
        <time>2023-05-19T11:15:11Z</time>
      </trkpt>
      <trkpt lat="44.59918" lon="5.93154">
        <ele>1703.2</ele>
        <time>2023-05-19T11:15:12Z</time>
      </trkpt>
      <trkpt lat="44.59918" lon="5.93154">
        <ele>1703.2</ele>
        <time>2023-05-19T11:15:13Z</time>
      </trkpt>
      <trkpt lat="44.59918" lon="5.93154">
        <ele>1703.2</ele>
        <time>2023-05-19T11:15:14Z</time>
      </trkpt>
      <trkpt lat="44.59918" lon="5.93154">
        <ele>1703.2</ele>
        <time>2023-05-19T11:15:16Z</time>
      </trkpt>
      <trkpt lat="44.59917" lon="5.93155">
        <ele>1703.2</ele>
        <time>2023-05-19T11:15:18Z</time>
      </trkpt>
      <trkpt lat="44.59916" lon="5.93156">
        <ele>1703.2</ele>
        <time>2023-05-19T11:15:19Z</time>
      </trkpt>
      <trkpt lat="44.59913" lon="5.93159">
        <ele>1703.2</ele>
        <time>2023-05-19T11:15:21Z</time>
      </trkpt>
      <trkpt lat="44.59909" lon="5.93162">
        <ele>1703.2</ele>
        <time>2023-05-19T11:15:23Z</time>
      </trkpt>
      <trkpt lat="44.59908" lon="5.93162">
        <ele>1703.2</ele>
        <time>2023-05-19T11:15:24Z</time>
      </trkpt>
      <trkpt lat="44.59907" lon="5.93163">
        <ele>1703</ele>
        <time>2023-05-19T11:15:25Z</time>
      </trkpt>
      <trkpt lat="44.59907" lon="5.93163">
        <ele>1702.8</ele>
        <time>2023-05-19T11:15:26Z</time>
      </trkpt>
      <trkpt lat="44.59907" lon="5.93163">
        <ele>1702.2</ele>
        <time>2023-05-19T11:15:27Z</time>
      </trkpt>
      <trkpt lat="44.59906" lon="5.93163">
        <ele>1702.2</ele>
        <time>2023-05-19T11:15:28Z</time>
      </trkpt>
      <trkpt lat="44.59906" lon="5.93163">
        <ele>1701.6</ele>
        <time>2023-05-19T11:15:29Z</time>
      </trkpt>
      <trkpt lat="44.59906" lon="5.93162">
        <ele>1701.6</ele>
        <time>2023-05-19T11:15:30Z</time>
      </trkpt>
      <trkpt lat="44.59905" lon="5.9316">
        <ele>1701.2</ele>
        <time>2023-05-19T11:15:32Z</time>
      </trkpt>
      <trkpt lat="44.59904" lon="5.9316">
        <ele>1700.8</ele>
        <time>2023-05-19T11:15:33Z</time>
      </trkpt>
      <trkpt lat="44.59904" lon="5.9316">
        <ele>1700.4</ele>
        <time>2023-05-19T11:15:34Z</time>
      </trkpt>
      <trkpt lat="44.59904" lon="5.9316">
        <ele>1700.4</ele>
        <time>2023-05-19T11:15:35Z</time>
      </trkpt>
      <trkpt lat="44.59904" lon="5.9316">
        <ele>1699.8</ele>
        <time>2023-05-19T11:15:36Z</time>
      </trkpt>
      <trkpt lat="44.59904" lon="5.9316">
        <ele>1698.4</ele>
        <time>2023-05-19T11:15:40Z</time>
      </trkpt>
      <trkpt lat="44.59895" lon="5.93161">
        <ele>1697.8</ele>
        <time>2023-05-19T11:15:44Z</time>
      </trkpt>
      <trkpt lat="44.5989" lon="5.93166">
        <ele>1697.4</ele>
        <time>2023-05-19T11:15:46Z</time>
      </trkpt>
      <trkpt lat="44.59887" lon="5.93168">
        <ele>1697</ele>
        <time>2023-05-19T11:15:47Z</time>
      </trkpt>
      <trkpt lat="44.59885" lon="5.9317">
        <ele>1696.8</ele>
        <time>2023-05-19T11:15:48Z</time>
      </trkpt>
      <trkpt lat="44.59884" lon="5.93173">
        <ele>1696.4</ele>
        <time>2023-05-19T11:15:49Z</time>
      </trkpt>
      <trkpt lat="44.5988" lon="5.93183">
        <ele>1695.8</ele>
        <time>2023-05-19T11:15:52Z</time>
      </trkpt>
      <trkpt lat="44.59877" lon="5.93195">
        <ele>1695.6</ele>
        <time>2023-05-19T11:15:55Z</time>
      </trkpt>
      <trkpt lat="44.59876" lon="5.93198">
        <ele>1695.4</ele>
        <time>2023-05-19T11:15:56Z</time>
      </trkpt>
      <trkpt lat="44.59875" lon="5.93201">
        <ele>1695.4</ele>
        <time>2023-05-19T11:15:57Z</time>
      </trkpt>
      <trkpt lat="44.59874" lon="5.93205">
        <ele>1695.2</ele>
        <time>2023-05-19T11:15:58Z</time>
      </trkpt>
      <trkpt lat="44.59874" lon="5.93208">
        <ele>1695</ele>
        <time>2023-05-19T11:15:59Z</time>
      </trkpt>
      <trkpt lat="44.59873" lon="5.9321">
        <ele>1694.8</ele>
        <time>2023-05-19T11:16:00Z</time>
      </trkpt>
      <trkpt lat="44.59873" lon="5.93212">
        <ele>1694.8</ele>
        <time>2023-05-19T11:16:01Z</time>
      </trkpt>
      <trkpt lat="44.59873" lon="5.93215">
        <ele>1694.8</ele>
        <time>2023-05-19T11:16:02Z</time>
      </trkpt>
      <trkpt lat="44.59874" lon="5.93216">
        <ele>1694.8</ele>
        <time>2023-05-19T11:16:03Z</time>
      </trkpt>
      <trkpt lat="44.59874" lon="5.93216">
        <ele>1695</ele>
        <time>2023-05-19T11:16:05Z</time>
      </trkpt>
      <trkpt lat="44.59874" lon="5.93216">
        <ele>1695</ele>
        <time>2023-05-19T11:16:06Z</time>
      </trkpt>
      <trkpt lat="44.59872" lon="5.93219">
        <ele>1695.6</ele>
        <time>2023-05-19T11:16:10Z</time>
      </trkpt>
      <trkpt lat="44.59872" lon="5.9322">
        <ele>1695.6</ele>
        <time>2023-05-19T11:16:11Z</time>
      </trkpt>
      <trkpt lat="44.59871" lon="5.93221">
        <ele>1695.8</ele>
        <time>2023-05-19T11:16:12Z</time>
      </trkpt>
      <trkpt lat="44.59871" lon="5.93222">
        <ele>1696</ele>
        <time>2023-05-19T11:16:13Z</time>
      </trkpt>
      <trkpt lat="44.59871" lon="5.93222">
        <ele>1696</ele>
        <time>2023-05-19T11:16:14Z</time>
      </trkpt>
      <trkpt lat="44.59871" lon="5.93223">
        <ele>1696.6</ele>
        <time>2023-05-19T11:16:17Z</time>
      </trkpt>
      <trkpt lat="44.59871" lon="5.93223">
        <ele>1696.8</ele>
        <time>2023-05-19T11:16:20Z</time>
      </trkpt>
      <trkpt lat="44.59871" lon="5.93224">
        <ele>1697.4</ele>
        <time>2023-05-19T11:16:23Z</time>
      </trkpt>
      <trkpt lat="44.59871" lon="5.93226">
        <ele>1697.8</ele>
        <time>2023-05-19T11:16:25Z</time>
      </trkpt>
      <trkpt lat="44.59872" lon="5.93227">
        <ele>1698</ele>
        <time>2023-05-19T11:16:27Z</time>
      </trkpt>
      <trkpt lat="44.59872" lon="5.93228">
        <ele>1698</ele>
        <time>2023-05-19T11:16:28Z</time>
      </trkpt>
      <trkpt lat="44.59872" lon="5.93228">
        <ele>1698</ele>
        <time>2023-05-19T11:16:29Z</time>
      </trkpt>
      <trkpt lat="44.59872" lon="5.93229">
        <ele>1698.2</ele>
        <time>2023-05-19T11:16:30Z</time>
      </trkpt>
      <trkpt lat="44.59872" lon="5.93229">
        <ele>1698.2</ele>
        <time>2023-05-19T11:16:31Z</time>
      </trkpt>
      <trkpt lat="44.59872" lon="5.9323">
        <ele>1698.2</ele>
        <time>2023-05-19T11:16:34Z</time>
      </trkpt>
      <trkpt lat="44.59871" lon="5.93231">
        <ele>1698.4</ele>
        <time>2023-05-19T11:16:35Z</time>
      </trkpt>
      <trkpt lat="44.59871" lon="5.93232">
        <ele>1698.4</ele>
        <time>2023-05-19T11:16:36Z</time>
      </trkpt>
      <trkpt lat="44.59871" lon="5.93232">
        <ele>1698.6</ele>
        <time>2023-05-19T11:16:37Z</time>
      </trkpt>
      <trkpt lat="44.59871" lon="5.93234">
        <ele>1699</ele>
        <time>2023-05-19T11:16:39Z</time>
      </trkpt>
      <trkpt lat="44.59871" lon="5.93234">
        <ele>1699.2</ele>
        <time>2023-05-19T11:16:40Z</time>
      </trkpt>
      <trkpt lat="44.59871" lon="5.93235">
        <ele>1699.4</ele>
        <time>2023-05-19T11:16:41Z</time>
      </trkpt>
      <trkpt lat="44.59871" lon="5.93235">
        <ele>1699.6</ele>
        <time>2023-05-19T11:16:42Z</time>
      </trkpt>
      <trkpt lat="44.59871" lon="5.93236">
        <ele>1699.8</ele>
        <time>2023-05-19T11:16:43Z</time>
      </trkpt>
      <trkpt lat="44.59871" lon="5.93236">
        <ele>1700</ele>
        <time>2023-05-19T11:16:44Z</time>
      </trkpt>
      <trkpt lat="44.59871" lon="5.93236">
        <ele>1700.2</ele>
        <time>2023-05-19T11:16:46Z</time>
      </trkpt>
      <trkpt lat="44.59871" lon="5.93236">
        <ele>1700.6</ele>
        <time>2023-05-19T11:16:47Z</time>
      </trkpt>
      <trkpt lat="44.59871" lon="5.93236">
        <ele>1700.6</ele>
        <time>2023-05-19T11:16:48Z</time>
      </trkpt>
      <trkpt lat="44.5987" lon="5.93236">
        <ele>1701</ele>
        <time>2023-05-19T11:16:49Z</time>
      </trkpt>
      <trkpt lat="44.5987" lon="5.93237">
        <ele>1701.2</ele>
        <time>2023-05-19T11:16:51Z</time>
      </trkpt>
      <trkpt lat="44.5987" lon="5.93237">
        <ele>1701.4</ele>
        <time>2023-05-19T11:16:52Z</time>
      </trkpt>
      <trkpt lat="44.5987" lon="5.93237">
        <ele>1701.6</ele>
        <time>2023-05-19T11:16:53Z</time>
      </trkpt>
      <trkpt lat="44.5987" lon="5.9324">
        <ele>1702.4</ele>
        <time>2023-05-19T11:17:00Z</time>
      </trkpt>
      <trkpt lat="44.5987" lon="5.93241">
        <ele>1702.6</ele>
        <time>2023-05-19T11:17:01Z</time>
      </trkpt>
      <trkpt lat="44.5987" lon="5.93242">
        <ele>1702.8</ele>
        <time>2023-05-19T11:17:03Z</time>
      </trkpt>
      <trkpt lat="44.5987" lon="5.93242">
        <ele>1703.2</ele>
        <time>2023-05-19T11:17:04Z</time>
      </trkpt>
      <trkpt lat="44.5987" lon="5.93243">
        <ele>1703.2</ele>
        <time>2023-05-19T11:17:05Z</time>
      </trkpt>
      <trkpt lat="44.59871" lon="5.93244">
        <ele>1703.4</ele>
        <time>2023-05-19T11:17:06Z</time>
      </trkpt>
      <trkpt lat="44.59871" lon="5.93245">
        <ele>1703.6</ele>
        <time>2023-05-19T11:17:07Z</time>
      </trkpt>
      <trkpt lat="44.59871" lon="5.93245">
        <ele>1703.6</ele>
        <time>2023-05-19T11:17:08Z</time>
      </trkpt>
      <trkpt lat="44.59871" lon="5.93246">
        <ele>1703.8</ele>
        <time>2023-05-19T11:17:09Z</time>
      </trkpt>
      <trkpt lat="44.59871" lon="5.93246">
        <ele>1703.8</ele>
        <time>2023-05-19T11:17:10Z</time>
      </trkpt>
      <trkpt lat="44.59871" lon="5.93246">
        <ele>1704.2</ele>
        <time>2023-05-19T11:17:12Z</time>
      </trkpt>
      <trkpt lat="44.59871" lon="5.93246">
        <ele>1704.4</ele>
        <time>2023-05-19T11:17:14Z</time>
      </trkpt>
      <trkpt lat="44.59871" lon="5.93246">
        <ele>1704.6</ele>
        <time>2023-05-19T11:17:15Z</time>
      </trkpt>
      <trkpt lat="44.59871" lon="5.93246">
        <ele>1704.6</ele>
        <time>2023-05-19T11:17:16Z</time>
      </trkpt>
      <trkpt lat="44.59871" lon="5.93246">
        <ele>1704.8</ele>
        <time>2023-05-19T11:17:18Z</time>
      </trkpt>
      <trkpt lat="44.59872" lon="5.93248">
        <ele>1705.2</ele>
        <time>2023-05-19T11:17:21Z</time>
      </trkpt>
      <trkpt lat="44.59872" lon="5.9325">
        <ele>1705.4</ele>
        <time>2023-05-19T11:17:24Z</time>
      </trkpt>
      <trkpt lat="44.59872" lon="5.9325">
        <ele>1705.4</ele>
        <time>2023-05-19T11:17:25Z</time>
      </trkpt>
      <trkpt lat="44.59872" lon="5.93251">
        <ele>1705.6</ele>
        <time>2023-05-19T11:17:26Z</time>
      </trkpt>
      <trkpt lat="44.59872" lon="5.93252">
        <ele>1705.8</ele>
        <time>2023-05-19T11:17:27Z</time>
      </trkpt>
      <trkpt lat="44.59872" lon="5.93252">
        <ele>1705.8</ele>
        <time>2023-05-19T11:17:28Z</time>
      </trkpt>
      <trkpt lat="44.59872" lon="5.93253">
        <ele>1706</ele>
        <time>2023-05-19T11:17:29Z</time>
      </trkpt>
      <trkpt lat="44.59872" lon="5.93255">
        <ele>1706</ele>
        <time>2023-05-19T11:17:30Z</time>
      </trkpt>
      <trkpt lat="44.59873" lon="5.93256">
        <ele>1706</ele>
        <time>2023-05-19T11:17:31Z</time>
      </trkpt>
      <trkpt lat="44.59873" lon="5.93258">
        <ele>1706.2</ele>
        <time>2023-05-19T11:17:32Z</time>
      </trkpt>
      <trkpt lat="44.59873" lon="5.93259">
        <ele>1706.2</ele>
        <time>2023-05-19T11:17:33Z</time>
      </trkpt>
      <trkpt lat="44.59873" lon="5.9326">
        <ele>1706.4</ele>
        <time>2023-05-19T11:17:34Z</time>
      </trkpt>
      <trkpt lat="44.59872" lon="5.93261">
        <ele>1706.4</ele>
        <time>2023-05-19T11:17:35Z</time>
      </trkpt>
      <trkpt lat="44.59872" lon="5.93263">
        <ele>1706.6</ele>
        <time>2023-05-19T11:17:36Z</time>
      </trkpt>
      <trkpt lat="44.59872" lon="5.93265">
        <ele>1706.6</ele>
        <time>2023-05-19T11:17:37Z</time>
      </trkpt>
      <trkpt lat="44.59872" lon="5.93266">
        <ele>1706.8</ele>
        <time>2023-05-19T11:17:38Z</time>
      </trkpt>
      <trkpt lat="44.59871" lon="5.93267">
        <ele>1707</ele>
        <time>2023-05-19T11:17:39Z</time>
      </trkpt>
      <trkpt lat="44.59871" lon="5.93268">
        <ele>1707</ele>
        <time>2023-05-19T11:17:40Z</time>
      </trkpt>
      <trkpt lat="44.5987" lon="5.9327">
        <ele>1707.2</ele>
        <time>2023-05-19T11:17:41Z</time>
      </trkpt>
      <trkpt lat="44.5987" lon="5.93272">
        <ele>1707.2</ele>
        <time>2023-05-19T11:17:42Z</time>
      </trkpt>
      <trkpt lat="44.59869" lon="5.93273">
        <ele>1707.4</ele>
        <time>2023-05-19T11:17:43Z</time>
      </trkpt>
      <trkpt lat="44.59868" lon="5.93275">
        <ele>1707.6</ele>
        <time>2023-05-19T11:17:44Z</time>
      </trkpt>
      <trkpt lat="44.59867" lon="5.93277">
        <ele>1707.6</ele>
        <time>2023-05-19T11:17:45Z</time>
      </trkpt>
      <trkpt lat="44.59867" lon="5.93278">
        <ele>1707.8</ele>
        <time>2023-05-19T11:17:46Z</time>
      </trkpt>
      <trkpt lat="44.59866" lon="5.93279">
        <ele>1707.8</ele>
        <time>2023-05-19T11:17:47Z</time>
      </trkpt>
      <trkpt lat="44.59866" lon="5.9328">
        <ele>1708</ele>
        <time>2023-05-19T11:17:48Z</time>
      </trkpt>
      <trkpt lat="44.59866" lon="5.9328">
        <ele>1708</ele>
        <time>2023-05-19T11:17:49Z</time>
      </trkpt>
      <trkpt lat="44.59866" lon="5.93281">
        <ele>1708.4</ele>
        <time>2023-05-19T11:17:50Z</time>
      </trkpt>
      <trkpt lat="44.59866" lon="5.93281">
        <ele>1708.4</ele>
        <time>2023-05-19T11:17:51Z</time>
      </trkpt>
      <trkpt lat="44.59866" lon="5.93281">
        <ele>1709</ele>
        <time>2023-05-19T11:17:54Z</time>
      </trkpt>
      <trkpt lat="44.59866" lon="5.93282">
        <ele>1709</ele>
        <time>2023-05-19T11:17:55Z</time>
      </trkpt>
      <trkpt lat="44.59866" lon="5.93283">
        <ele>1709.2</ele>
        <time>2023-05-19T11:17:56Z</time>
      </trkpt>
      <trkpt lat="44.59866" lon="5.93284">
        <ele>1709.2</ele>
        <time>2023-05-19T11:17:57Z</time>
      </trkpt>
      <trkpt lat="44.59865" lon="5.93284">
        <ele>1709.2</ele>
        <time>2023-05-19T11:17:58Z</time>
      </trkpt>
      <trkpt lat="44.59865" lon="5.93285">
        <ele>1709.4</ele>
        <time>2023-05-19T11:17:59Z</time>
      </trkpt>
      <trkpt lat="44.59865" lon="5.93285">
        <ele>1709.6</ele>
        <time>2023-05-19T11:18:00Z</time>
      </trkpt>
      <trkpt lat="44.59864" lon="5.93286">
        <ele>1709.8</ele>
        <time>2023-05-19T11:18:01Z</time>
      </trkpt>
      <trkpt lat="44.59864" lon="5.93286">
        <ele>1710</ele>
        <time>2023-05-19T11:18:02Z</time>
      </trkpt>
      <trkpt lat="44.59864" lon="5.93287">
        <ele>1710</ele>
        <time>2023-05-19T11:18:03Z</time>
      </trkpt>
      <trkpt lat="44.59864" lon="5.93287">
        <ele>1710.4</ele>
        <time>2023-05-19T11:18:05Z</time>
      </trkpt>
      <trkpt lat="44.59863" lon="5.93289">
        <ele>1710.6</ele>
        <time>2023-05-19T11:18:07Z</time>
      </trkpt>
      <trkpt lat="44.59863" lon="5.93289">
        <ele>1710.6</ele>
        <time>2023-05-19T11:18:08Z</time>
      </trkpt>
      <trkpt lat="44.59863" lon="5.9329">
        <ele>1710.8</ele>
        <time>2023-05-19T11:18:09Z</time>
      </trkpt>
      <trkpt lat="44.59863" lon="5.9329">
        <ele>1710.8</ele>
        <time>2023-05-19T11:18:10Z</time>
      </trkpt>
      <trkpt lat="44.59862" lon="5.93291">
        <ele>1711</ele>
        <time>2023-05-19T11:18:11Z</time>
      </trkpt>
      <trkpt lat="44.59862" lon="5.93292">
        <ele>1711.2</ele>
        <time>2023-05-19T11:18:12Z</time>
      </trkpt>
      <trkpt lat="44.59862" lon="5.93294">
        <ele>1711.4</ele>
        <time>2023-05-19T11:18:13Z</time>
      </trkpt>
      <trkpt lat="44.59862" lon="5.93295">
        <ele>1711.4</ele>
        <time>2023-05-19T11:18:14Z</time>
      </trkpt>
      <trkpt lat="44.59862" lon="5.93295">
        <ele>1711.6</ele>
        <time>2023-05-19T11:18:15Z</time>
      </trkpt>
      <trkpt lat="44.59862" lon="5.93295">
        <ele>1711.6</ele>
        <time>2023-05-19T11:18:16Z</time>
      </trkpt>
      <trkpt lat="44.59861" lon="5.93297">
        <ele>1712.4</ele>
        <time>2023-05-19T11:18:21Z</time>
      </trkpt>
      <trkpt lat="44.59861" lon="5.93298">
        <ele>1712.8</ele>
        <time>2023-05-19T11:18:22Z</time>
      </trkpt>
      <trkpt lat="44.5986" lon="5.93299">
        <ele>1712.8</ele>
        <time>2023-05-19T11:18:23Z</time>
      </trkpt>
      <trkpt lat="44.59859" lon="5.93301">
        <ele>1712.8</ele>
        <time>2023-05-19T11:18:24Z</time>
      </trkpt>
      <trkpt lat="44.59858" lon="5.93303">
        <ele>1713</ele>
        <time>2023-05-19T11:18:25Z</time>
      </trkpt>
      <trkpt lat="44.59858" lon="5.93304">
        <ele>1713</ele>
        <time>2023-05-19T11:18:26Z</time>
      </trkpt>
      <trkpt lat="44.59858" lon="5.93304">
        <ele>1713.2</ele>
        <time>2023-05-19T11:18:28Z</time>
      </trkpt>
      <trkpt lat="44.59858" lon="5.93305">
        <ele>1713.2</ele>
        <time>2023-05-19T11:18:30Z</time>
      </trkpt>
      <trkpt lat="44.59858" lon="5.93305">
        <ele>1713.4</ele>
        <time>2023-05-19T11:18:31Z</time>
      </trkpt>
      <trkpt lat="44.59858" lon="5.93305">
        <ele>1713.4</ele>
        <time>2023-05-19T11:18:33Z</time>
      </trkpt>
      <trkpt lat="44.59857" lon="5.93306">
        <ele>1713.4</ele>
        <time>2023-05-19T11:18:34Z</time>
      </trkpt>
      <trkpt lat="44.59857" lon="5.93308">
        <ele>1713.6</ele>
        <time>2023-05-19T11:18:35Z</time>
      </trkpt>
      <trkpt lat="44.59857" lon="5.93309">
        <ele>1713.6</ele>
        <time>2023-05-19T11:18:36Z</time>
      </trkpt>
      <trkpt lat="44.59857" lon="5.93311">
        <ele>1713.8</ele>
        <time>2023-05-19T11:18:37Z</time>
      </trkpt>
      <trkpt lat="44.59856" lon="5.93312">
        <ele>1713.8</ele>
        <time>2023-05-19T11:18:38Z</time>
      </trkpt>
      <trkpt lat="44.59856" lon="5.93314">
        <ele>1713.8</ele>
        <time>2023-05-19T11:18:39Z</time>
      </trkpt>
      <trkpt lat="44.59855" lon="5.93315">
        <ele>1713.8</ele>
        <time>2023-05-19T11:18:40Z</time>
      </trkpt>
      <trkpt lat="44.59854" lon="5.93315">
        <ele>1713.8</ele>
        <time>2023-05-19T11:18:41Z</time>
      </trkpt>
      <trkpt lat="44.59853" lon="5.93316">
        <ele>1714</ele>
        <time>2023-05-19T11:18:42Z</time>
      </trkpt>
      <trkpt lat="44.59852" lon="5.93317">
        <ele>1714</ele>
        <time>2023-05-19T11:18:43Z</time>
      </trkpt>
      <trkpt lat="44.59851" lon="5.93317">
        <ele>1714</ele>
        <time>2023-05-19T11:18:44Z</time>
      </trkpt>
      <trkpt lat="44.5985" lon="5.93318">
        <ele>1714</ele>
        <time>2023-05-19T11:18:45Z</time>
      </trkpt>
      <trkpt lat="44.59848" lon="5.93318">
        <ele>1714</ele>
        <time>2023-05-19T11:18:47Z</time>
      </trkpt>
      <trkpt lat="44.59847" lon="5.93318">
        <ele>1714</ele>
        <time>2023-05-19T11:18:48Z</time>
      </trkpt>
      <trkpt lat="44.59847" lon="5.93319">
        <ele>1714.2</ele>
        <time>2023-05-19T11:18:49Z</time>
      </trkpt>
      <trkpt lat="44.59847" lon="5.93319">
        <ele>1714.2</ele>
        <time>2023-05-19T11:18:50Z</time>
      </trkpt>
      <trkpt lat="44.59846" lon="5.93319">
        <ele>1714.2</ele>
        <time>2023-05-19T11:18:51Z</time>
      </trkpt>
      <trkpt lat="44.59844" lon="5.93318">
        <ele>1714.2</ele>
        <time>2023-05-19T11:18:52Z</time>
      </trkpt>
      <trkpt lat="44.5984" lon="5.93317">
        <ele>1714.2</ele>
        <time>2023-05-19T11:18:54Z</time>
      </trkpt>
      <trkpt lat="44.59837" lon="5.93318">
        <ele>1714.2</ele>
        <time>2023-05-19T11:18:55Z</time>
      </trkpt>
      <trkpt lat="44.59835" lon="5.93319">
        <ele>1714</ele>
        <time>2023-05-19T11:18:56Z</time>
      </trkpt>
      <trkpt lat="44.59833" lon="5.93321">
        <ele>1714</ele>
        <time>2023-05-19T11:18:57Z</time>
      </trkpt>
      <trkpt lat="44.59831" lon="5.93323">
        <ele>1713.8</ele>
        <time>2023-05-19T11:18:58Z</time>
      </trkpt>
      <trkpt lat="44.59829" lon="5.93325">
        <ele>1713.6</ele>
        <time>2023-05-19T11:18:59Z</time>
      </trkpt>
      <trkpt lat="44.59829" lon="5.93327">
        <ele>1713.6</ele>
        <time>2023-05-19T11:19:00Z</time>
      </trkpt>
      <trkpt lat="44.59829" lon="5.9333">
        <ele>1713.4</ele>
        <time>2023-05-19T11:19:01Z</time>
      </trkpt>
      <trkpt lat="44.59829" lon="5.93333">
        <ele>1713.4</ele>
        <time>2023-05-19T11:19:02Z</time>
      </trkpt>
      <trkpt lat="44.59828" lon="5.93336">
        <ele>1713.4</ele>
        <time>2023-05-19T11:19:03Z</time>
      </trkpt>
      <trkpt lat="44.59829" lon="5.93338">
        <ele>1713.4</ele>
        <time>2023-05-19T11:19:04Z</time>
      </trkpt>
      <trkpt lat="44.59829" lon="5.9334">
        <ele>1713.4</ele>
        <time>2023-05-19T11:19:05Z</time>
      </trkpt>
      <trkpt lat="44.59829" lon="5.93343">
        <ele>1713.4</ele>
        <time>2023-05-19T11:19:06Z</time>
      </trkpt>
      <trkpt lat="44.5983" lon="5.93346">
        <ele>1713.6</ele>
        <time>2023-05-19T11:19:07Z</time>
      </trkpt>
      <trkpt lat="44.5983" lon="5.93349">
        <ele>1713.6</ele>
        <time>2023-05-19T11:19:08Z</time>
      </trkpt>
      <trkpt lat="44.59831" lon="5.93352">
        <ele>1713.8</ele>
        <time>2023-05-19T11:19:09Z</time>
      </trkpt>
      <trkpt lat="44.59831" lon="5.93355">
        <ele>1713.8</ele>
        <time>2023-05-19T11:19:10Z</time>
      </trkpt>
      <trkpt lat="44.5983" lon="5.93357">
        <ele>1714</ele>
        <time>2023-05-19T11:19:11Z</time>
      </trkpt>
      <trkpt lat="44.5983" lon="5.93359">
        <ele>1714</ele>
        <time>2023-05-19T11:19:12Z</time>
      </trkpt>
      <trkpt lat="44.59831" lon="5.93361">
        <ele>1714</ele>
        <time>2023-05-19T11:19:13Z</time>
      </trkpt>
      <trkpt lat="44.59831" lon="5.93363">
        <ele>1714.2</ele>
        <time>2023-05-19T11:19:14Z</time>
      </trkpt>
      <trkpt lat="44.59832" lon="5.93366">
        <ele>1714.2</ele>
        <time>2023-05-19T11:19:15Z</time>
      </trkpt>
      <trkpt lat="44.59833" lon="5.93369">
        <ele>1714.4</ele>
        <time>2023-05-19T11:19:16Z</time>
      </trkpt>
      <trkpt lat="44.59835" lon="5.93371">
        <ele>1714.6</ele>
        <time>2023-05-19T11:19:17Z</time>
      </trkpt>
      <trkpt lat="44.59837" lon="5.93373">
        <ele>1714.6</ele>
        <time>2023-05-19T11:19:18Z</time>
      </trkpt>
      <trkpt lat="44.59838" lon="5.93375">
        <ele>1714.8</ele>
        <time>2023-05-19T11:19:19Z</time>
      </trkpt>
      <trkpt lat="44.5984" lon="5.93376">
        <ele>1714.8</ele>
        <time>2023-05-19T11:19:20Z</time>
      </trkpt>
      <trkpt lat="44.59851" lon="5.93392">
        <ele>1715.4</ele>
        <time>2023-05-19T11:19:27Z</time>
      </trkpt>
      <trkpt lat="44.59853" lon="5.93395">
        <ele>1715.6</ele>
        <time>2023-05-19T11:19:28Z</time>
      </trkpt>
      <trkpt lat="44.59864" lon="5.93413">
        <ele>1716.4</ele>
        <time>2023-05-19T11:19:35Z</time>
      </trkpt>
      <trkpt lat="44.59871" lon="5.93419">
        <ele>1716.8</ele>
        <time>2023-05-19T11:19:39Z</time>
      </trkpt>
      <trkpt lat="44.59873" lon="5.9342">
        <ele>1716.8</ele>
        <time>2023-05-19T11:19:40Z</time>
      </trkpt>
      <trkpt lat="44.59875" lon="5.93421">
        <ele>1716.8</ele>
        <time>2023-05-19T11:19:41Z</time>
      </trkpt>
      <trkpt lat="44.59879" lon="5.93424">
        <ele>1716.8</ele>
        <time>2023-05-19T11:19:43Z</time>
      </trkpt>
      <trkpt lat="44.59887" lon="5.93433">
        <ele>1717.4</ele>
        <time>2023-05-19T11:19:48Z</time>
      </trkpt>
      <trkpt lat="44.59888" lon="5.93435">
        <ele>1717.4</ele>
        <time>2023-05-19T11:19:49Z</time>
      </trkpt>
      <trkpt lat="44.59888" lon="5.93438">
        <ele>1717.6</ele>
        <time>2023-05-19T11:19:50Z</time>
      </trkpt>
      <trkpt lat="44.59889" lon="5.93441">
        <ele>1717.6</ele>
        <time>2023-05-19T11:19:51Z</time>
      </trkpt>
      <trkpt lat="44.59889" lon="5.93444">
        <ele>1717.8</ele>
        <time>2023-05-19T11:19:52Z</time>
      </trkpt>
      <trkpt lat="44.5989" lon="5.93449">
        <ele>1718</ele>
        <time>2023-05-19T11:19:54Z</time>
      </trkpt>
      <trkpt lat="44.5989" lon="5.93451">
        <ele>1718</ele>
        <time>2023-05-19T11:19:55Z</time>
      </trkpt>
      <trkpt lat="44.5989" lon="5.93453">
        <ele>1718.2</ele>
        <time>2023-05-19T11:19:56Z</time>
      </trkpt>
      <trkpt lat="44.5989" lon="5.93456">
        <ele>1718.2</ele>
        <time>2023-05-19T11:19:57Z</time>
      </trkpt>
      <trkpt lat="44.59891" lon="5.93467">
        <ele>1718.6</ele>
        <time>2023-05-19T11:20:01Z</time>
      </trkpt>
      <trkpt lat="44.59892" lon="5.93469">
        <ele>1718.6</ele>
        <time>2023-05-19T11:20:02Z</time>
      </trkpt>
      <trkpt lat="44.59894" lon="5.93474">
        <ele>1718.8</ele>
        <time>2023-05-19T11:20:04Z</time>
      </trkpt>
      <trkpt lat="44.59898" lon="5.9349">
        <ele>1719.2</ele>
        <time>2023-05-19T11:20:10Z</time>
      </trkpt>
      <trkpt lat="44.59901" lon="5.93508">
        <ele>1719.8</ele>
        <time>2023-05-19T11:20:16Z</time>
      </trkpt>
      <trkpt lat="44.59903" lon="5.93514">
        <ele>1720</ele>
        <time>2023-05-19T11:20:18Z</time>
      </trkpt>
      <trkpt lat="44.59903" lon="5.93519">
        <ele>1720.2</ele>
        <time>2023-05-19T11:20:20Z</time>
      </trkpt>
      <trkpt lat="44.59904" lon="5.93521">
        <ele>1720.2</ele>
        <time>2023-05-19T11:20:21Z</time>
      </trkpt>
      <trkpt lat="44.59904" lon="5.93524">
        <ele>1720.4</ele>
        <time>2023-05-19T11:20:22Z</time>
      </trkpt>
      <trkpt lat="44.59905" lon="5.93526">
        <ele>1720.4</ele>
        <time>2023-05-19T11:20:23Z</time>
      </trkpt>
      <trkpt lat="44.59905" lon="5.93529">
        <ele>1720.6</ele>
        <time>2023-05-19T11:20:24Z</time>
      </trkpt>
      <trkpt lat="44.59906" lon="5.93531">
        <ele>1720.6</ele>
        <time>2023-05-19T11:20:25Z</time>
      </trkpt>
      <trkpt lat="44.59907" lon="5.93534">
        <ele>1720.8</ele>
        <time>2023-05-19T11:20:26Z</time>
      </trkpt>
      <trkpt lat="44.59907" lon="5.9354">
        <ele>1721</ele>
        <time>2023-05-19T11:20:28Z</time>
      </trkpt>
      <trkpt lat="44.59909" lon="5.9356">
        <ele>1722</ele>
        <time>2023-05-19T11:20:35Z</time>
      </trkpt>
      <trkpt lat="44.5991" lon="5.93562">
        <ele>1722.2</ele>
        <time>2023-05-19T11:20:36Z</time>
      </trkpt>
      <trkpt lat="44.59911" lon="5.93565">
        <ele>1722.2</ele>
        <time>2023-05-19T11:20:37Z</time>
      </trkpt>
      <trkpt lat="44.59912" lon="5.93567">
        <ele>1722.4</ele>
        <time>2023-05-19T11:20:38Z</time>
      </trkpt>
      <trkpt lat="44.59913" lon="5.9357">
        <ele>1722.8</ele>
        <time>2023-05-19T11:20:39Z</time>
      </trkpt>
      <trkpt lat="44.59913" lon="5.93572">
        <ele>1722.8</ele>
        <time>2023-05-19T11:20:40Z</time>
      </trkpt>
      <trkpt lat="44.59914" lon="5.93575">
        <ele>1722.8</ele>
        <time>2023-05-19T11:20:41Z</time>
      </trkpt>
      <trkpt lat="44.59916" lon="5.93578">
        <ele>1723</ele>
        <time>2023-05-19T11:20:42Z</time>
      </trkpt>
      <trkpt lat="44.59917" lon="5.93581">
        <ele>1723</ele>
        <time>2023-05-19T11:20:43Z</time>
      </trkpt>
      <trkpt lat="44.59918" lon="5.93583">
        <ele>1723</ele>
        <time>2023-05-19T11:20:44Z</time>
      </trkpt>
      <trkpt lat="44.59917" lon="5.93586">
        <ele>1723.2</ele>
        <time>2023-05-19T11:20:45Z</time>
      </trkpt>
      <trkpt lat="44.59916" lon="5.93588">
        <ele>1723.2</ele>
        <time>2023-05-19T11:20:46Z</time>
      </trkpt>
      <trkpt lat="44.59915" lon="5.93591">
        <ele>1723.2</ele>
        <time>2023-05-19T11:20:47Z</time>
      </trkpt>
      <trkpt lat="44.59915" lon="5.93593">
        <ele>1723.4</ele>
        <time>2023-05-19T11:20:48Z</time>
      </trkpt>
      <trkpt lat="44.59915" lon="5.93596">
        <ele>1723.4</ele>
        <time>2023-05-19T11:20:49Z</time>
      </trkpt>
      <trkpt lat="44.59914" lon="5.93599">
        <ele>1723.4</ele>
        <time>2023-05-19T11:20:50Z</time>
      </trkpt>
      <trkpt lat="44.59913" lon="5.93602">
        <ele>1723.6</ele>
        <time>2023-05-19T11:20:51Z</time>
      </trkpt>
      <trkpt lat="44.59913" lon="5.93604">
        <ele>1723.8</ele>
        <time>2023-05-19T11:20:52Z</time>
      </trkpt>
      <trkpt lat="44.59912" lon="5.93607">
        <ele>1723.6</ele>
        <time>2023-05-19T11:20:53Z</time>
      </trkpt>
      <trkpt lat="44.59912" lon="5.9361">
        <ele>1723.8</ele>
        <time>2023-05-19T11:20:54Z</time>
      </trkpt>
      <trkpt lat="44.59911" lon="5.93612">
        <ele>1724</ele>
        <time>2023-05-19T11:20:55Z</time>
      </trkpt>
      <trkpt lat="44.5991" lon="5.93614">
        <ele>1724</ele>
        <time>2023-05-19T11:20:56Z</time>
      </trkpt>
      <trkpt lat="44.5991" lon="5.93616">
        <ele>1724</ele>
        <time>2023-05-19T11:20:57Z</time>
      </trkpt>
      <trkpt lat="44.59909" lon="5.93619">
        <ele>1724</ele>
        <time>2023-05-19T11:20:58Z</time>
      </trkpt>
      <trkpt lat="44.59909" lon="5.93621">
        <ele>1724.2</ele>
        <time>2023-05-19T11:20:59Z</time>
      </trkpt>
      <trkpt lat="44.59909" lon="5.93625">
        <ele>1724.2</ele>
        <time>2023-05-19T11:21:00Z</time>
      </trkpt>
      <trkpt lat="44.59909" lon="5.93629">
        <ele>1724.4</ele>
        <time>2023-05-19T11:21:01Z</time>
      </trkpt>
      <trkpt lat="44.59909" lon="5.93633">
        <ele>1724.4</ele>
        <time>2023-05-19T11:21:02Z</time>
      </trkpt>
      <trkpt lat="44.5991" lon="5.93649">
        <ele>1725</ele>
        <time>2023-05-19T11:21:07Z</time>
      </trkpt>
      <trkpt lat="44.59911" lon="5.93654">
        <ele>1725.2</ele>
        <time>2023-05-19T11:21:09Z</time>
      </trkpt>
      <trkpt lat="44.59911" lon="5.93658">
        <ele>1725.4</ele>
        <time>2023-05-19T11:21:10Z</time>
      </trkpt>
      <trkpt lat="44.59912" lon="5.93662">
        <ele>1725.4</ele>
        <time>2023-05-19T11:21:11Z</time>
      </trkpt>
      <trkpt lat="44.59913" lon="5.93666">
        <ele>1725.4</ele>
        <time>2023-05-19T11:21:12Z</time>
      </trkpt>
      <trkpt lat="44.59914" lon="5.9367">
        <ele>1725.6</ele>
        <time>2023-05-19T11:21:13Z</time>
      </trkpt>
      <trkpt lat="44.59916" lon="5.93674">
        <ele>1725.8</ele>
        <time>2023-05-19T11:21:14Z</time>
      </trkpt>
      <trkpt lat="44.59917" lon="5.93677">
        <ele>1726</ele>
        <time>2023-05-19T11:21:15Z</time>
      </trkpt>
      <trkpt lat="44.59918" lon="5.9368">
        <ele>1726</ele>
        <time>2023-05-19T11:21:16Z</time>
      </trkpt>
      <trkpt lat="44.5992" lon="5.93684">
        <ele>1726.2</ele>
        <time>2023-05-19T11:21:17Z</time>
      </trkpt>
      <trkpt lat="44.59922" lon="5.93687">
        <ele>1726.2</ele>
        <time>2023-05-19T11:21:18Z</time>
      </trkpt>
      <trkpt lat="44.59923" lon="5.9369">
        <ele>1726.4</ele>
        <time>2023-05-19T11:21:19Z</time>
      </trkpt>
      <trkpt lat="44.59924" lon="5.93693">
        <ele>1726.6</ele>
        <time>2023-05-19T11:21:20Z</time>
      </trkpt>
      <trkpt lat="44.59925" lon="5.93696">
        <ele>1726.6</ele>
        <time>2023-05-19T11:21:21Z</time>
      </trkpt>
      <trkpt lat="44.59926" lon="5.937">
        <ele>1726.6</ele>
        <time>2023-05-19T11:21:22Z</time>
      </trkpt>
      <trkpt lat="44.59926" lon="5.93703">
        <ele>1726.6</ele>
        <time>2023-05-19T11:21:23Z</time>
      </trkpt>
      <trkpt lat="44.59924" lon="5.93705">
        <ele>1726.8</ele>
        <time>2023-05-19T11:21:24Z</time>
      </trkpt>
      <trkpt lat="44.59924" lon="5.93707">
        <ele>1726.8</ele>
        <time>2023-05-19T11:21:25Z</time>
      </trkpt>
      <trkpt lat="44.59924" lon="5.93708">
        <ele>1726.8</ele>
        <time>2023-05-19T11:21:26Z</time>
      </trkpt>
      <trkpt lat="44.59925" lon="5.93711">
        <ele>1727</ele>
        <time>2023-05-19T11:21:27Z</time>
      </trkpt>
      <trkpt lat="44.59926" lon="5.93714">
        <ele>1727.4</ele>
        <time>2023-05-19T11:21:28Z</time>
      </trkpt>
      <trkpt lat="44.59926" lon="5.93718">
        <ele>1727.6</ele>
        <time>2023-05-19T11:21:29Z</time>
      </trkpt>
      <trkpt lat="44.59926" lon="5.9372">
        <ele>1727.6</ele>
        <time>2023-05-19T11:21:30Z</time>
      </trkpt>
      <trkpt lat="44.59927" lon="5.93723">
        <ele>1727.8</ele>
        <time>2023-05-19T11:21:31Z</time>
      </trkpt>
      <trkpt lat="44.59928" lon="5.93727">
        <ele>1727.8</ele>
        <time>2023-05-19T11:21:32Z</time>
      </trkpt>
      <trkpt lat="44.59928" lon="5.9373">
        <ele>1727.8</ele>
        <time>2023-05-19T11:21:33Z</time>
      </trkpt>
      <trkpt lat="44.59929" lon="5.93733">
        <ele>1728</ele>
        <time>2023-05-19T11:21:34Z</time>
      </trkpt>
      <trkpt lat="44.59929" lon="5.93736">
        <ele>1728</ele>
        <time>2023-05-19T11:21:35Z</time>
      </trkpt>
      <trkpt lat="44.59929" lon="5.93739">
        <ele>1728.2</ele>
        <time>2023-05-19T11:21:36Z</time>
      </trkpt>
      <trkpt lat="44.59928" lon="5.93742">
        <ele>1728.2</ele>
        <time>2023-05-19T11:21:37Z</time>
      </trkpt>
      <trkpt lat="44.59927" lon="5.93745">
        <ele>1728.2</ele>
        <time>2023-05-19T11:21:38Z</time>
      </trkpt>
      <trkpt lat="44.59927" lon="5.93748">
        <ele>1728.2</ele>
        <time>2023-05-19T11:21:39Z</time>
      </trkpt>
      <trkpt lat="44.59927" lon="5.93752">
        <ele>1728.4</ele>
        <time>2023-05-19T11:21:40Z</time>
      </trkpt>
      <trkpt lat="44.59927" lon="5.93755">
        <ele>1728.4</ele>
        <time>2023-05-19T11:21:41Z</time>
      </trkpt>
      <trkpt lat="44.59927" lon="5.93758">
        <ele>1728.4</ele>
        <time>2023-05-19T11:21:42Z</time>
      </trkpt>
      <trkpt lat="44.59926" lon="5.93761">
        <ele>1728.6</ele>
        <time>2023-05-19T11:21:43Z</time>
      </trkpt>
      <trkpt lat="44.59926" lon="5.93765">
        <ele>1728.6</ele>
        <time>2023-05-19T11:21:44Z</time>
      </trkpt>
      <trkpt lat="44.59925" lon="5.93777">
        <ele>1728.8</ele>
        <time>2023-05-19T11:21:48Z</time>
      </trkpt>
      <trkpt lat="44.59924" lon="5.93785">
        <ele>1729.2</ele>
        <time>2023-05-19T11:21:51Z</time>
      </trkpt>
      <trkpt lat="44.59924" lon="5.93787">
        <ele>1729.2</ele>
        <time>2023-05-19T11:21:52Z</time>
      </trkpt>
      <trkpt lat="44.59923" lon="5.9379">
        <ele>1729.2</ele>
        <time>2023-05-19T11:21:53Z</time>
      </trkpt>
      <trkpt lat="44.59922" lon="5.93792">
        <ele>1729.4</ele>
        <time>2023-05-19T11:21:54Z</time>
      </trkpt>
      <trkpt lat="44.59922" lon="5.93795">
        <ele>1729.4</ele>
        <time>2023-05-19T11:21:55Z</time>
      </trkpt>
      <trkpt lat="44.59921" lon="5.93797">
        <ele>1729.6</ele>
        <time>2023-05-19T11:21:56Z</time>
      </trkpt>
      <trkpt lat="44.5992" lon="5.938">
        <ele>1729.6</ele>
        <time>2023-05-19T11:21:57Z</time>
      </trkpt>
      <trkpt lat="44.59914" lon="5.93818">
        <ele>1730.4</ele>
        <time>2023-05-19T11:22:03Z</time>
      </trkpt>
      <trkpt lat="44.59913" lon="5.93821">
        <ele>1730.6</ele>
        <time>2023-05-19T11:22:04Z</time>
      </trkpt>
      <trkpt lat="44.59911" lon="5.93831">
        <ele>1731</ele>
        <time>2023-05-19T11:22:07Z</time>
      </trkpt>
      <trkpt lat="44.59911" lon="5.93834">
        <ele>1731</ele>
        <time>2023-05-19T11:22:08Z</time>
      </trkpt>
      <trkpt lat="44.59912" lon="5.93837">
        <ele>1731</ele>
        <time>2023-05-19T11:22:09Z</time>
      </trkpt>
      <trkpt lat="44.59913" lon="5.9384">
        <ele>1731</ele>
        <time>2023-05-19T11:22:10Z</time>
      </trkpt>
      <trkpt lat="44.59918" lon="5.93854">
        <ele>1731.4</ele>
        <time>2023-05-19T11:22:15Z</time>
      </trkpt>
      <trkpt lat="44.59919" lon="5.93856">
        <ele>1731.4</ele>
        <time>2023-05-19T11:22:16Z</time>
      </trkpt>
      <trkpt lat="44.5992" lon="5.93858">
        <ele>1731.4</ele>
        <time>2023-05-19T11:22:17Z</time>
      </trkpt>
      <trkpt lat="44.59922" lon="5.9386">
        <ele>1731.6</ele>
        <time>2023-05-19T11:22:18Z</time>
      </trkpt>
      <trkpt lat="44.59924" lon="5.93862">
        <ele>1731.6</ele>
        <time>2023-05-19T11:22:19Z</time>
      </trkpt>
      <trkpt lat="44.59926" lon="5.93864">
        <ele>1731.6</ele>
        <time>2023-05-19T11:22:20Z</time>
      </trkpt>
      <trkpt lat="44.59931" lon="5.93869">
        <ele>1732</ele>
        <time>2023-05-19T11:22:23Z</time>
      </trkpt>
      <trkpt lat="44.59945" lon="5.93883">
        <ele>1732.6</ele>
        <time>2023-05-19T11:22:30Z</time>
      </trkpt>
      <trkpt lat="44.59953" lon="5.93892">
        <ele>1733</ele>
        <time>2023-05-19T11:22:34Z</time>
      </trkpt>
      <trkpt lat="44.59964" lon="5.93903">
        <ele>1733.6</ele>
        <time>2023-05-19T11:22:39Z</time>
      </trkpt>
      <trkpt lat="44.59968" lon="5.93907">
        <ele>1733.6</ele>
        <time>2023-05-19T11:22:41Z</time>
      </trkpt>
      <trkpt lat="44.59979" lon="5.93919">
        <ele>1733.6</ele>
        <time>2023-05-19T11:22:46Z</time>
      </trkpt>
      <trkpt lat="44.59981" lon="5.93923">
        <ele>1733.6</ele>
        <time>2023-05-19T11:22:47Z</time>
      </trkpt>
      <trkpt lat="44.59985" lon="5.93929">
        <ele>1733.4</ele>
        <time>2023-05-19T11:22:49Z</time>
      </trkpt>
      <trkpt lat="44.59987" lon="5.93931">
        <ele>1733.4</ele>
        <time>2023-05-19T11:22:50Z</time>
      </trkpt>
      <trkpt lat="44.59993" lon="5.93937">
        <ele>1733.2</ele>
        <time>2023-05-19T11:22:53Z</time>
      </trkpt>
      <trkpt lat="44.6" lon="5.93943">
        <ele>1733.4</ele>
        <time>2023-05-19T11:22:56Z</time>
      </trkpt>
      <trkpt lat="44.60003" lon="5.93946">
        <ele>1733.4</ele>
        <time>2023-05-19T11:22:58Z</time>
      </trkpt>
      <trkpt lat="44.60005" lon="5.93948">
        <ele>1733.6</ele>
        <time>2023-05-19T11:22:59Z</time>
      </trkpt>
      <trkpt lat="44.60006" lon="5.9395">
        <ele>1733.6</ele>
        <time>2023-05-19T11:23:00Z</time>
      </trkpt>
      <trkpt lat="44.60008" lon="5.93952">
        <ele>1733.8</ele>
        <time>2023-05-19T11:23:01Z</time>
      </trkpt>
      <trkpt lat="44.60009" lon="5.93954">
        <ele>1733.8</ele>
        <time>2023-05-19T11:23:02Z</time>
      </trkpt>
      <trkpt lat="44.6001" lon="5.93956">
        <ele>1733.8</ele>
        <time>2023-05-19T11:23:03Z</time>
      </trkpt>
      <trkpt lat="44.60011" lon="5.93958">
        <ele>1734</ele>
        <time>2023-05-19T11:23:04Z</time>
      </trkpt>
      <trkpt lat="44.60012" lon="5.93961">
        <ele>1734</ele>
        <time>2023-05-19T11:23:05Z</time>
      </trkpt>
      <trkpt lat="44.60013" lon="5.93964">
        <ele>1734</ele>
        <time>2023-05-19T11:23:06Z</time>
      </trkpt>
      <trkpt lat="44.6002" lon="5.93986">
        <ele>1734.6</ele>
        <time>2023-05-19T11:23:13Z</time>
      </trkpt>
      <trkpt lat="44.6002" lon="5.93988">
        <ele>1734.8</ele>
        <time>2023-05-19T11:23:14Z</time>
      </trkpt>
      <trkpt lat="44.60021" lon="5.9399">
        <ele>1734.8</ele>
        <time>2023-05-19T11:23:15Z</time>
      </trkpt>
      <trkpt lat="44.60022" lon="5.93992">
        <ele>1735</ele>
        <time>2023-05-19T11:23:16Z</time>
      </trkpt>
      <trkpt lat="44.60024" lon="5.93997">
        <ele>1735</ele>
        <time>2023-05-19T11:23:18Z</time>
      </trkpt>
      <trkpt lat="44.60026" lon="5.94002">
        <ele>1735.2</ele>
        <time>2023-05-19T11:23:20Z</time>
      </trkpt>
      <trkpt lat="44.60027" lon="5.94005">
        <ele>1735.4</ele>
        <time>2023-05-19T11:23:21Z</time>
      </trkpt>
      <trkpt lat="44.60028" lon="5.94007">
        <ele>1735.4</ele>
        <time>2023-05-19T11:23:22Z</time>
      </trkpt>
      <trkpt lat="44.60028" lon="5.9401">
        <ele>1735.6</ele>
        <time>2023-05-19T11:23:23Z</time>
      </trkpt>
      <trkpt lat="44.60028" lon="5.94016">
        <ele>1735.8</ele>
        <time>2023-05-19T11:23:25Z</time>
      </trkpt>
      <trkpt lat="44.60032" lon="5.94031">
        <ele>1736.4</ele>
        <time>2023-05-19T11:23:31Z</time>
      </trkpt>
      <trkpt lat="44.60032" lon="5.94032">
        <ele>1736.6</ele>
        <time>2023-05-19T11:23:32Z</time>
      </trkpt>
      <trkpt lat="44.60033" lon="5.94033">
        <ele>1736.8</ele>
        <time>2023-05-19T11:23:33Z</time>
      </trkpt>
      <trkpt lat="44.60033" lon="5.94034">
        <ele>1736.8</ele>
        <time>2023-05-19T11:23:34Z</time>
      </trkpt>
      <trkpt lat="44.60033" lon="5.94034">
        <ele>1737.2</ele>
        <time>2023-05-19T11:23:38Z</time>
      </trkpt>
      <trkpt lat="44.60033" lon="5.94034">
        <ele>1737.6</ele>
        <time>2023-05-19T11:23:46Z</time>
      </trkpt>
      <trkpt lat="44.60034" lon="5.94036">
        <ele>1737.2</ele>
        <time>2023-05-19T11:24:22Z</time>
      </trkpt>
      <trkpt lat="44.60034" lon="5.94038">
        <ele>1737.4</ele>
        <time>2023-05-19T11:24:28Z</time>
      </trkpt>
      <trkpt lat="44.60035" lon="5.94039">
        <ele>1737.4</ele>
        <time>2023-05-19T11:24:29Z</time>
      </trkpt>
      <trkpt lat="44.60036" lon="5.9404">
        <ele>1737.4</ele>
        <time>2023-05-19T11:24:30Z</time>
      </trkpt>
      <trkpt lat="44.6004" lon="5.94047">
        <ele>1737.6</ele>
        <time>2023-05-19T11:24:34Z</time>
      </trkpt>
      <trkpt lat="44.60041" lon="5.94049">
        <ele>1737.8</ele>
        <time>2023-05-19T11:24:35Z</time>
      </trkpt>
      <trkpt lat="44.60045" lon="5.94057">
        <ele>1738.2</ele>
        <time>2023-05-19T11:24:39Z</time>
      </trkpt>
      <trkpt lat="44.60051" lon="5.94066">
        <ele>1739.2</ele>
        <time>2023-05-19T11:24:44Z</time>
      </trkpt>
      <trkpt lat="44.60058" lon="5.94074">
        <ele>1739.4</ele>
        <time>2023-05-19T11:24:48Z</time>
      </trkpt>
      <trkpt lat="44.6006" lon="5.94075">
        <ele>1739.4</ele>
        <time>2023-05-19T11:24:49Z</time>
      </trkpt>
      <trkpt lat="44.60061" lon="5.94077">
        <ele>1739.6</ele>
        <time>2023-05-19T11:24:50Z</time>
      </trkpt>
      <trkpt lat="44.60062" lon="5.94079">
        <ele>1739.6</ele>
        <time>2023-05-19T11:24:51Z</time>
      </trkpt>
      <trkpt lat="44.60063" lon="5.94079">
        <ele>1739.6</ele>
        <time>2023-05-19T11:24:52Z</time>
      </trkpt>
      <trkpt lat="44.60063" lon="5.94079">
        <ele>1739.8</ele>
        <time>2023-05-19T11:24:54Z</time>
      </trkpt>
      <trkpt lat="44.60066" lon="5.94082">
        <ele>1740.2</ele>
        <time>2023-05-19T11:25:39Z</time>
      </trkpt>
      <trkpt lat="44.60067" lon="5.94082">
        <ele>1740.2</ele>
        <time>2023-05-19T11:25:40Z</time>
      </trkpt>
      <trkpt lat="44.60067" lon="5.94082">
        <ele>1740.4</ele>
        <time>2023-05-19T11:25:41Z</time>
      </trkpt>
      <trkpt lat="44.60067" lon="5.94082">
        <ele>1740.4</ele>
        <time>2023-05-19T11:25:42Z</time>
      </trkpt>
      <trkpt lat="44.60068" lon="5.94082">
        <ele>1740.6</ele>
        <time>2023-05-19T11:25:46Z</time>
      </trkpt>
      <trkpt lat="44.60069" lon="5.94083">
        <ele>1740.6</ele>
        <time>2023-05-19T11:25:47Z</time>
      </trkpt>
      <trkpt lat="44.60071" lon="5.94083">
        <ele>1740.8</ele>
        <time>2023-05-19T11:25:50Z</time>
      </trkpt>
      <trkpt lat="44.60071" lon="5.94083">
        <ele>1741</ele>
        <time>2023-05-19T11:25:52Z</time>
      </trkpt>
      <trkpt lat="44.60071" lon="5.94084">
        <ele>1741</ele>
        <time>2023-05-19T11:25:54Z</time>
      </trkpt>
      <trkpt lat="44.60071" lon="5.94084">
        <ele>1741</ele>
        <time>2023-05-19T11:25:56Z</time>
      </trkpt>
      <trkpt lat="44.60073" lon="5.94084">
        <ele>1741</ele>
        <time>2023-05-19T11:25:58Z</time>
      </trkpt>
      <trkpt lat="44.60074" lon="5.94084">
        <ele>1741.2</ele>
        <time>2023-05-19T11:25:59Z</time>
      </trkpt>
      <trkpt lat="44.60077" lon="5.94086">
        <ele>1741.4</ele>
        <time>2023-05-19T11:26:01Z</time>
      </trkpt>
      <trkpt lat="44.60079" lon="5.94087">
        <ele>1741.4</ele>
        <time>2023-05-19T11:26:02Z</time>
      </trkpt>
      <trkpt lat="44.60082" lon="5.9409">
        <ele>1741.6</ele>
        <time>2023-05-19T11:26:04Z</time>
      </trkpt>
      <trkpt lat="44.60084" lon="5.94091">
        <ele>1741.6</ele>
        <time>2023-05-19T11:26:05Z</time>
      </trkpt>
      <trkpt lat="44.60086" lon="5.94093">
        <ele>1741.8</ele>
        <time>2023-05-19T11:26:06Z</time>
      </trkpt>
      <trkpt lat="44.60098" lon="5.94098">
        <ele>1742.4</ele>
        <time>2023-05-19T11:26:11Z</time>
      </trkpt>
      <trkpt lat="44.60114" lon="5.94105">
        <ele>1742.8</ele>
        <time>2023-05-19T11:26:18Z</time>
      </trkpt>
      <trkpt lat="44.60116" lon="5.94107">
        <ele>1743</ele>
        <time>2023-05-19T11:26:19Z</time>
      </trkpt>
      <trkpt lat="44.60118" lon="5.94109">
        <ele>1743</ele>
        <time>2023-05-19T11:26:20Z</time>
      </trkpt>
      <trkpt lat="44.60119" lon="5.9411">
        <ele>1743</ele>
        <time>2023-05-19T11:26:21Z</time>
      </trkpt>
      <trkpt lat="44.60121" lon="5.94111">
        <ele>1743</ele>
        <time>2023-05-19T11:26:22Z</time>
      </trkpt>
      <trkpt lat="44.60123" lon="5.94112">
        <ele>1743</ele>
        <time>2023-05-19T11:26:23Z</time>
      </trkpt>
      <trkpt lat="44.60124" lon="5.94114">
        <ele>1743.4</ele>
        <time>2023-05-19T11:26:24Z</time>
      </trkpt>
      <trkpt lat="44.60125" lon="5.94116">
        <ele>1743.6</ele>
        <time>2023-05-19T11:26:25Z</time>
      </trkpt>
      <trkpt lat="44.60127" lon="5.94119">
        <ele>1743.8</ele>
        <time>2023-05-19T11:26:26Z</time>
      </trkpt>
      <trkpt lat="44.60129" lon="5.94121">
        <ele>1744</ele>
        <time>2023-05-19T11:26:27Z</time>
      </trkpt>
      <trkpt lat="44.6013" lon="5.94122">
        <ele>1744</ele>
        <time>2023-05-19T11:26:28Z</time>
      </trkpt>
      <trkpt lat="44.60132" lon="5.94123">
        <ele>1744.2</ele>
        <time>2023-05-19T11:26:29Z</time>
      </trkpt>
      <trkpt lat="44.60133" lon="5.94125">
        <ele>1744.2</ele>
        <time>2023-05-19T11:26:30Z</time>
      </trkpt>
      <trkpt lat="44.60134" lon="5.94127">
        <ele>1744.4</ele>
        <time>2023-05-19T11:26:31Z</time>
      </trkpt>
      <trkpt lat="44.60135" lon="5.94128">
        <ele>1744.4</ele>
        <time>2023-05-19T11:26:32Z</time>
      </trkpt>
      <trkpt lat="44.60137" lon="5.9413">
        <ele>1744.4</ele>
        <time>2023-05-19T11:26:33Z</time>
      </trkpt>
      <trkpt lat="44.60141" lon="5.94135">
        <ele>1744.8</ele>
        <time>2023-05-19T11:26:36Z</time>
      </trkpt>
      <trkpt lat="44.60143" lon="5.94136">
        <ele>1744.8</ele>
        <time>2023-05-19T11:26:37Z</time>
      </trkpt>
      <trkpt lat="44.60144" lon="5.94137">
        <ele>1744.8</ele>
        <time>2023-05-19T11:26:38Z</time>
      </trkpt>
      <trkpt lat="44.60147" lon="5.94139">
        <ele>1745</ele>
        <time>2023-05-19T11:26:40Z</time>
      </trkpt>
      <trkpt lat="44.60148" lon="5.94141">
        <ele>1745.2</ele>
        <time>2023-05-19T11:26:41Z</time>
      </trkpt>
      <trkpt lat="44.60149" lon="5.94144">
        <ele>1745.6</ele>
        <time>2023-05-19T11:26:43Z</time>
      </trkpt>
      <trkpt lat="44.6015" lon="5.94145">
        <ele>1745.8</ele>
        <time>2023-05-19T11:26:44Z</time>
      </trkpt>
      <trkpt lat="44.6015" lon="5.94146">
        <ele>1746.2</ele>
        <time>2023-05-19T11:26:45Z</time>
      </trkpt>
      <trkpt lat="44.60151" lon="5.94147">
        <ele>1746.4</ele>
        <time>2023-05-19T11:26:46Z</time>
      </trkpt>
      <trkpt lat="44.60151" lon="5.94149">
        <ele>1746.8</ele>
        <time>2023-05-19T11:26:47Z</time>
      </trkpt>
      <trkpt lat="44.60152" lon="5.9415">
        <ele>1747</ele>
        <time>2023-05-19T11:26:48Z</time>
      </trkpt>
      <trkpt lat="44.60152" lon="5.94152">
        <ele>1747.2</ele>
        <time>2023-05-19T11:26:49Z</time>
      </trkpt>
      <trkpt lat="44.60153" lon="5.94154">
        <ele>1747.4</ele>
        <time>2023-05-19T11:26:50Z</time>
      </trkpt>
      <trkpt lat="44.60155" lon="5.94155">
        <ele>1747.4</ele>
        <time>2023-05-19T11:26:51Z</time>
      </trkpt>
      <trkpt lat="44.60156" lon="5.94158">
        <ele>1747.6</ele>
        <time>2023-05-19T11:26:52Z</time>
      </trkpt>
      <trkpt lat="44.60157" lon="5.94161">
        <ele>1747.6</ele>
        <time>2023-05-19T11:26:53Z</time>
      </trkpt>
      <trkpt lat="44.60159" lon="5.94164">
        <ele>1747.6</ele>
        <time>2023-05-19T11:26:54Z</time>
      </trkpt>
      <trkpt lat="44.60161" lon="5.94167">
        <ele>1747.6</ele>
        <time>2023-05-19T11:26:55Z</time>
      </trkpt>
      <trkpt lat="44.60163" lon="5.9417">
        <ele>1747.6</ele>
        <time>2023-05-19T11:26:56Z</time>
      </trkpt>
      <trkpt lat="44.60165" lon="5.94173">
        <ele>1747.6</ele>
        <time>2023-05-19T11:26:57Z</time>
      </trkpt>
      <trkpt lat="44.60166" lon="5.94175">
        <ele>1747.6</ele>
        <time>2023-05-19T11:26:58Z</time>
      </trkpt>
      <trkpt lat="44.60167" lon="5.94176">
        <ele>1747.6</ele>
        <time>2023-05-19T11:26:59Z</time>
      </trkpt>
      <trkpt lat="44.60168" lon="5.94177">
        <ele>1747.6</ele>
        <time>2023-05-19T11:27:00Z</time>
      </trkpt>
      <trkpt lat="44.6017" lon="5.94178">
        <ele>1747.8</ele>
        <time>2023-05-19T11:27:01Z</time>
      </trkpt>
      <trkpt lat="44.60171" lon="5.9418">
        <ele>1747.8</ele>
        <time>2023-05-19T11:27:02Z</time>
      </trkpt>
      <trkpt lat="44.60172" lon="5.94181">
        <ele>1747.8</ele>
        <time>2023-05-19T11:27:03Z</time>
      </trkpt>
      <trkpt lat="44.60173" lon="5.94181">
        <ele>1747.8</ele>
        <time>2023-05-19T11:27:04Z</time>
      </trkpt>
      <trkpt lat="44.60174" lon="5.94182">
        <ele>1748</ele>
        <time>2023-05-19T11:27:05Z</time>
      </trkpt>
      <trkpt lat="44.60175" lon="5.94183">
        <ele>1748</ele>
        <time>2023-05-19T11:27:06Z</time>
      </trkpt>
      <trkpt lat="44.60176" lon="5.94184">
        <ele>1748.2</ele>
        <time>2023-05-19T11:27:07Z</time>
      </trkpt>
      <trkpt lat="44.60177" lon="5.94186">
        <ele>1748.2</ele>
        <time>2023-05-19T11:27:08Z</time>
      </trkpt>
      <trkpt lat="44.60178" lon="5.94187">
        <ele>1748.4</ele>
        <time>2023-05-19T11:27:09Z</time>
      </trkpt>
      <trkpt lat="44.60181" lon="5.94189">
        <ele>1748.6</ele>
        <time>2023-05-19T11:27:11Z</time>
      </trkpt>
      <trkpt lat="44.60183" lon="5.94191">
        <ele>1748.8</ele>
        <time>2023-05-19T11:27:13Z</time>
      </trkpt>
      <trkpt lat="44.6019" lon="5.94196">
        <ele>1749.6</ele>
        <time>2023-05-19T11:27:18Z</time>
      </trkpt>
      <trkpt lat="44.60194" lon="5.94197">
        <ele>1750</ele>
        <time>2023-05-19T11:27:21Z</time>
      </trkpt>
      <trkpt lat="44.60195" lon="5.94197">
        <ele>1750.2</ele>
        <time>2023-05-19T11:27:22Z</time>
      </trkpt>
      <trkpt lat="44.60196" lon="5.94197">
        <ele>1750.2</ele>
        <time>2023-05-19T11:27:23Z</time>
      </trkpt>
      <trkpt lat="44.60197" lon="5.94198">
        <ele>1750.4</ele>
        <time>2023-05-19T11:27:24Z</time>
      </trkpt>
      <trkpt lat="44.60198" lon="5.94199">
        <ele>1750.6</ele>
        <time>2023-05-19T11:27:25Z</time>
      </trkpt>
      <trkpt lat="44.602" lon="5.94201">
        <ele>1750.8</ele>
        <time>2023-05-19T11:27:26Z</time>
      </trkpt>
      <trkpt lat="44.60201" lon="5.94202">
        <ele>1750.8</ele>
        <time>2023-05-19T11:27:27Z</time>
      </trkpt>
      <trkpt lat="44.60203" lon="5.94204">
        <ele>1750.8</ele>
        <time>2023-05-19T11:27:28Z</time>
      </trkpt>
      <trkpt lat="44.60205" lon="5.94205">
        <ele>1751</ele>
        <time>2023-05-19T11:27:29Z</time>
      </trkpt>
      <trkpt lat="44.60207" lon="5.94206">
        <ele>1751</ele>
        <time>2023-05-19T11:27:30Z</time>
      </trkpt>
      <trkpt lat="44.60209" lon="5.94207">
        <ele>1751.2</ele>
        <time>2023-05-19T11:27:31Z</time>
      </trkpt>
      <trkpt lat="44.60211" lon="5.94208">
        <ele>1751.2</ele>
        <time>2023-05-19T11:27:32Z</time>
      </trkpt>
      <trkpt lat="44.60212" lon="5.94209">
        <ele>1751.4</ele>
        <time>2023-05-19T11:27:33Z</time>
      </trkpt>
      <trkpt lat="44.60213" lon="5.9421">
        <ele>1751.4</ele>
        <time>2023-05-19T11:27:34Z</time>
      </trkpt>
      <trkpt lat="44.60215" lon="5.9421">
        <ele>1751.4</ele>
        <time>2023-05-19T11:27:35Z</time>
      </trkpt>
      <trkpt lat="44.60217" lon="5.9421">
        <ele>1751.6</ele>
        <time>2023-05-19T11:27:36Z</time>
      </trkpt>
      <trkpt lat="44.60218" lon="5.94211">
        <ele>1751.6</ele>
        <time>2023-05-19T11:27:37Z</time>
      </trkpt>
      <trkpt lat="44.6022" lon="5.94212">
        <ele>1751.8</ele>
        <time>2023-05-19T11:27:38Z</time>
      </trkpt>
      <trkpt lat="44.60222" lon="5.94213">
        <ele>1752</ele>
        <time>2023-05-19T11:27:39Z</time>
      </trkpt>
      <trkpt lat="44.60224" lon="5.94214">
        <ele>1752.2</ele>
        <time>2023-05-19T11:27:40Z</time>
      </trkpt>
      <trkpt lat="44.60227" lon="5.94214">
        <ele>1752.2</ele>
        <time>2023-05-19T11:27:41Z</time>
      </trkpt>
      <trkpt lat="44.60229" lon="5.94215">
        <ele>1752.4</ele>
        <time>2023-05-19T11:27:42Z</time>
      </trkpt>
      <trkpt lat="44.60232" lon="5.94215">
        <ele>1752.6</ele>
        <time>2023-05-19T11:27:43Z</time>
      </trkpt>
      <trkpt lat="44.60234" lon="5.94215">
        <ele>1752.6</ele>
        <time>2023-05-19T11:27:44Z</time>
      </trkpt>
      <trkpt lat="44.60236" lon="5.94216">
        <ele>1752.8</ele>
        <time>2023-05-19T11:27:45Z</time>
      </trkpt>
      <trkpt lat="44.60238" lon="5.94215">
        <ele>1752.8</ele>
        <time>2023-05-19T11:27:46Z</time>
      </trkpt>
      <trkpt lat="44.6024" lon="5.94215">
        <ele>1753</ele>
        <time>2023-05-19T11:27:47Z</time>
      </trkpt>
      <trkpt lat="44.60243" lon="5.94215">
        <ele>1753</ele>
        <time>2023-05-19T11:27:48Z</time>
      </trkpt>
      <trkpt lat="44.60245" lon="5.94215">
        <ele>1753.2</ele>
        <time>2023-05-19T11:27:49Z</time>
      </trkpt>
      <trkpt lat="44.60247" lon="5.94215">
        <ele>1753.2</ele>
        <time>2023-05-19T11:27:50Z</time>
      </trkpt>
      <trkpt lat="44.60249" lon="5.94214">
        <ele>1753.2</ele>
        <time>2023-05-19T11:27:51Z</time>
      </trkpt>
      <trkpt lat="44.6025" lon="5.94213">
        <ele>1753.4</ele>
        <time>2023-05-19T11:27:52Z</time>
      </trkpt>
      <trkpt lat="44.60252" lon="5.94213">
        <ele>1753.6</ele>
        <time>2023-05-19T11:27:53Z</time>
      </trkpt>
      <trkpt lat="44.60253" lon="5.94214">
        <ele>1753.6</ele>
        <time>2023-05-19T11:27:54Z</time>
      </trkpt>
      <trkpt lat="44.60255" lon="5.94215">
        <ele>1753.8</ele>
        <time>2023-05-19T11:27:55Z</time>
      </trkpt>
      <trkpt lat="44.60256" lon="5.94217">
        <ele>1754</ele>
        <time>2023-05-19T11:27:56Z</time>
      </trkpt>
      <trkpt lat="44.60258" lon="5.94218">
        <ele>1754.2</ele>
        <time>2023-05-19T11:27:57Z</time>
      </trkpt>
      <trkpt lat="44.60259" lon="5.9422">
        <ele>1754.2</ele>
        <time>2023-05-19T11:27:58Z</time>
      </trkpt>
      <trkpt lat="44.60261" lon="5.94223">
        <ele>1754.2</ele>
        <time>2023-05-19T11:27:59Z</time>
      </trkpt>
      <trkpt lat="44.60262" lon="5.94225">
        <ele>1754.4</ele>
        <time>2023-05-19T11:28:00Z</time>
      </trkpt>
      <trkpt lat="44.60264" lon="5.94227">
        <ele>1754.4</ele>
        <time>2023-05-19T11:28:01Z</time>
      </trkpt>
      <trkpt lat="44.60267" lon="5.94229">
        <ele>1754.6</ele>
        <time>2023-05-19T11:28:02Z</time>
      </trkpt>
      <trkpt lat="44.60268" lon="5.9423">
        <ele>1754.6</ele>
        <time>2023-05-19T11:28:03Z</time>
      </trkpt>
      <trkpt lat="44.6027" lon="5.94231">
        <ele>1754.6</ele>
        <time>2023-05-19T11:28:04Z</time>
      </trkpt>
      <trkpt lat="44.60272" lon="5.94232">
        <ele>1754.8</ele>
        <time>2023-05-19T11:28:05Z</time>
      </trkpt>
      <trkpt lat="44.60274" lon="5.94232">
        <ele>1754.8</ele>
        <time>2023-05-19T11:28:06Z</time>
      </trkpt>
      <trkpt lat="44.60276" lon="5.94231">
        <ele>1754.8</ele>
        <time>2023-05-19T11:28:07Z</time>
      </trkpt>
      <trkpt lat="44.60277" lon="5.94232">
        <ele>1754.8</ele>
        <time>2023-05-19T11:28:08Z</time>
      </trkpt>
      <trkpt lat="44.60279" lon="5.94233">
        <ele>1755</ele>
        <time>2023-05-19T11:28:09Z</time>
      </trkpt>
      <trkpt lat="44.60281" lon="5.94234">
        <ele>1755</ele>
        <time>2023-05-19T11:28:10Z</time>
      </trkpt>
      <trkpt lat="44.60282" lon="5.94236">
        <ele>1755</ele>
        <time>2023-05-19T11:28:11Z</time>
      </trkpt>
      <trkpt lat="44.60284" lon="5.94238">
        <ele>1755</ele>
        <time>2023-05-19T11:28:12Z</time>
      </trkpt>
      <trkpt lat="44.6029" lon="5.94244">
        <ele>1755.2</ele>
        <time>2023-05-19T11:28:16Z</time>
      </trkpt>
      <trkpt lat="44.60293" lon="5.94247">
        <ele>1755.4</ele>
        <time>2023-05-19T11:28:18Z</time>
      </trkpt>
      <trkpt lat="44.60294" lon="5.94248">
        <ele>1755.8</ele>
        <time>2023-05-19T11:28:19Z</time>
      </trkpt>
      <trkpt lat="44.60294" lon="5.94248">
        <ele>1755.8</ele>
        <time>2023-05-19T11:28:20Z</time>
      </trkpt>
      <trkpt lat="44.60297" lon="5.94252">
        <ele>1756.2</ele>
        <time>2023-05-19T11:28:23Z</time>
      </trkpt>
      <trkpt lat="44.60298" lon="5.94253">
        <ele>1756.4</ele>
        <time>2023-05-19T11:28:24Z</time>
      </trkpt>
      <trkpt lat="44.60305" lon="5.94262">
        <ele>1756.8</ele>
        <time>2023-05-19T11:28:30Z</time>
      </trkpt>
      <trkpt lat="44.60305" lon="5.94262">
        <ele>1756.8</ele>
        <time>2023-05-19T11:28:31Z</time>
      </trkpt>
      <trkpt lat="44.60305" lon="5.94262">
        <ele>1756.8</ele>
        <time>2023-05-19T11:28:42Z</time>
      </trkpt>
      <trkpt lat="44.60309" lon="5.94265">
        <ele>1756.8</ele>
        <time>2023-05-19T11:29:03Z</time>
      </trkpt>
      <trkpt lat="44.60311" lon="5.94267">
        <ele>1756.8</ele>
        <time>2023-05-19T11:29:05Z</time>
      </trkpt>
      <trkpt lat="44.60311" lon="5.94267">
        <ele>1756.8</ele>
        <time>2023-05-19T11:29:06Z</time>
      </trkpt>
      <trkpt lat="44.60315" lon="5.94269">
        <ele>1756.8</ele>
        <time>2023-05-19T11:29:09Z</time>
      </trkpt>
      <trkpt lat="44.60316" lon="5.9427">
        <ele>1756.8</ele>
        <time>2023-05-19T11:29:10Z</time>
      </trkpt>
      <trkpt lat="44.60324" lon="5.9427">
        <ele>1756.8</ele>
        <time>2023-05-19T11:29:14Z</time>
      </trkpt>
      <trkpt lat="44.60326" lon="5.9427">
        <ele>1756.8</ele>
        <time>2023-05-19T11:29:15Z</time>
      </trkpt>
      <trkpt lat="44.6033" lon="5.94273">
        <ele>1757.2</ele>
        <time>2023-05-19T11:29:18Z</time>
      </trkpt>
      <trkpt lat="44.60331" lon="5.94275">
        <ele>1757.2</ele>
        <time>2023-05-19T11:29:19Z</time>
      </trkpt>
      <trkpt lat="44.60335" lon="5.94277">
        <ele>1757.4</ele>
        <time>2023-05-19T11:29:21Z</time>
      </trkpt>
      <trkpt lat="44.60339" lon="5.94281">
        <ele>1758</ele>
        <time>2023-05-19T11:29:24Z</time>
      </trkpt>
      <trkpt lat="44.60345" lon="5.94289">
        <ele>1758.6</ele>
        <time>2023-05-19T11:29:28Z</time>
      </trkpt>
      <trkpt lat="44.60346" lon="5.9429">
        <ele>1758.8</ele>
        <time>2023-05-19T11:29:29Z</time>
      </trkpt>
      <trkpt lat="44.60353" lon="5.94288">
        <ele>1759.4</ele>
        <time>2023-05-19T11:29:33Z</time>
      </trkpt>
      <trkpt lat="44.60354" lon="5.94287">
        <ele>1759.8</ele>
        <time>2023-05-19T11:29:34Z</time>
      </trkpt>
      <trkpt lat="44.60355" lon="5.94285">
        <ele>1759.8</ele>
        <time>2023-05-19T11:29:35Z</time>
      </trkpt>
      <trkpt lat="44.60356" lon="5.94283">
        <ele>1760</ele>
        <time>2023-05-19T11:29:36Z</time>
      </trkpt>
      <trkpt lat="44.60357" lon="5.94281">
        <ele>1760</ele>
        <time>2023-05-19T11:29:37Z</time>
      </trkpt>
      <trkpt lat="44.60357" lon="5.94279">
        <ele>1760</ele>
        <time>2023-05-19T11:29:38Z</time>
      </trkpt>
      <trkpt lat="44.60358" lon="5.94277">
        <ele>1760.2</ele>
        <time>2023-05-19T11:29:39Z</time>
      </trkpt>
      <trkpt lat="44.60359" lon="5.94275">
        <ele>1760.2</ele>
        <time>2023-05-19T11:29:40Z</time>
      </trkpt>
      <trkpt lat="44.60361" lon="5.94273">
        <ele>1760.2</ele>
        <time>2023-05-19T11:29:41Z</time>
      </trkpt>
      <trkpt lat="44.60362" lon="5.9427">
        <ele>1760.4</ele>
        <time>2023-05-19T11:29:42Z</time>
      </trkpt>
      <trkpt lat="44.60364" lon="5.94268">
        <ele>1760.4</ele>
        <time>2023-05-19T11:29:43Z</time>
      </trkpt>
      <trkpt lat="44.60365" lon="5.94267">
        <ele>1760.6</ele>
        <time>2023-05-19T11:29:44Z</time>
      </trkpt>
      <trkpt lat="44.60367" lon="5.94265">
        <ele>1760.6</ele>
        <time>2023-05-19T11:29:45Z</time>
      </trkpt>
      <trkpt lat="44.60368" lon="5.94263">
        <ele>1760.8</ele>
        <time>2023-05-19T11:29:46Z</time>
      </trkpt>
      <trkpt lat="44.6037" lon="5.94262">
        <ele>1760.8</ele>
        <time>2023-05-19T11:29:47Z</time>
      </trkpt>
      <trkpt lat="44.60371" lon="5.9426">
        <ele>1760.8</ele>
        <time>2023-05-19T11:29:48Z</time>
      </trkpt>
      <trkpt lat="44.60373" lon="5.94259">
        <ele>1761</ele>
        <time>2023-05-19T11:29:49Z</time>
      </trkpt>
      <trkpt lat="44.60374" lon="5.94258">
        <ele>1761.2</ele>
        <time>2023-05-19T11:29:50Z</time>
      </trkpt>
      <trkpt lat="44.60375" lon="5.94257">
        <ele>1761.2</ele>
        <time>2023-05-19T11:29:51Z</time>
      </trkpt>
      <trkpt lat="44.60376" lon="5.94256">
        <ele>1761.4</ele>
        <time>2023-05-19T11:29:52Z</time>
      </trkpt>
      <trkpt lat="44.60377" lon="5.94255">
        <ele>1761.6</ele>
        <time>2023-05-19T11:29:54Z</time>
      </trkpt>
      <trkpt lat="44.60377" lon="5.94255">
        <ele>1761.8</ele>
        <time>2023-05-19T11:29:56Z</time>
      </trkpt>
      <trkpt lat="44.60377" lon="5.94255">
        <ele>1762</ele>
        <time>2023-05-19T11:30:10Z</time>
      </trkpt>
      <trkpt lat="44.60378" lon="5.94256">
        <ele>1761.8</ele>
        <time>2023-05-19T11:30:55Z</time>
      </trkpt>
      <trkpt lat="44.60382" lon="5.94257">
        <ele>1761.8</ele>
        <time>2023-05-19T11:30:58Z</time>
      </trkpt>
      <trkpt lat="44.60385" lon="5.94257">
        <ele>1761.8</ele>
        <time>2023-05-19T11:31:00Z</time>
      </trkpt>
      <trkpt lat="44.60386" lon="5.94257">
        <ele>1761.8</ele>
        <time>2023-05-19T11:31:01Z</time>
      </trkpt>
      <trkpt lat="44.60387" lon="5.94256">
        <ele>1761.8</ele>
        <time>2023-05-19T11:31:02Z</time>
      </trkpt>
      <trkpt lat="44.60388" lon="5.94256">
        <ele>1762</ele>
        <time>2023-05-19T11:31:03Z</time>
      </trkpt>
      <trkpt lat="44.60389" lon="5.94255">
        <ele>1762</ele>
        <time>2023-05-19T11:31:04Z</time>
      </trkpt>
      <trkpt lat="44.60391" lon="5.94253">
        <ele>1762.4</ele>
        <time>2023-05-19T11:31:07Z</time>
      </trkpt>
      <trkpt lat="44.60391" lon="5.94253">
        <ele>1762.4</ele>
        <time>2023-05-19T11:31:08Z</time>
      </trkpt>
      <trkpt lat="44.60394" lon="5.94249">
        <ele>1762.4</ele>
        <time>2023-05-19T11:31:11Z</time>
      </trkpt>
      <trkpt lat="44.60395" lon="5.94247">
        <ele>1762.6</ele>
        <time>2023-05-19T11:31:13Z</time>
      </trkpt>
      <trkpt lat="44.60396" lon="5.94246">
        <ele>1762.6</ele>
        <time>2023-05-19T11:31:14Z</time>
      </trkpt>
      <trkpt lat="44.60396" lon="5.94245">
        <ele>1762.6</ele>
        <time>2023-05-19T11:31:15Z</time>
      </trkpt>
      <trkpt lat="44.60396" lon="5.94244">
        <ele>1762.6</ele>
        <time>2023-05-19T11:31:16Z</time>
      </trkpt>
      <trkpt lat="44.60396" lon="5.94244">
        <ele>1762.6</ele>
        <time>2023-05-19T11:31:17Z</time>
      </trkpt>
      <trkpt lat="44.60396" lon="5.94243">
        <ele>1763</ele>
        <time>2023-05-19T11:31:23Z</time>
      </trkpt>
      <trkpt lat="44.60396" lon="5.94242">
        <ele>1763</ele>
        <time>2023-05-19T11:31:24Z</time>
      </trkpt>
      <trkpt lat="44.60397" lon="5.94242">
        <ele>1763</ele>
        <time>2023-05-19T11:31:25Z</time>
      </trkpt>
      <trkpt lat="44.60398" lon="5.94241">
        <ele>1763.8</ele>
        <time>2023-05-19T11:31:31Z</time>
      </trkpt>
      <trkpt lat="44.60399" lon="5.94239">
        <ele>1763.8</ele>
        <time>2023-05-19T11:31:33Z</time>
      </trkpt>
      <trkpt lat="44.604" lon="5.94238">
        <ele>1764</ele>
        <time>2023-05-19T11:31:34Z</time>
      </trkpt>
      <trkpt lat="44.60401" lon="5.94237">
        <ele>1764</ele>
        <time>2023-05-19T11:31:35Z</time>
      </trkpt>
      <trkpt lat="44.60401" lon="5.94237">
        <ele>1764</ele>
        <time>2023-05-19T11:31:36Z</time>
      </trkpt>
      <trkpt lat="44.60401" lon="5.94236">
        <ele>1764.2</ele>
        <time>2023-05-19T11:31:37Z</time>
      </trkpt>
      <trkpt lat="44.60402" lon="5.94236">
        <ele>1764.2</ele>
        <time>2023-05-19T11:31:38Z</time>
      </trkpt>
      <trkpt lat="44.60404" lon="5.94234">
        <ele>1764.6</ele>
        <time>2023-05-19T11:31:41Z</time>
      </trkpt>
      <trkpt lat="44.60404" lon="5.94234">
        <ele>1764.8</ele>
        <time>2023-05-19T11:31:45Z</time>
      </trkpt>
      <trkpt lat="44.60404" lon="5.94234">
        <ele>1765</ele>
        <time>2023-05-19T11:31:55Z</time>
      </trkpt>
      <trkpt lat="44.60405" lon="5.94234">
        <ele>1765</ele>
        <time>2023-05-19T11:32:04Z</time>
      </trkpt>
      <trkpt lat="44.60407" lon="5.94235">
        <ele>1765</ele>
        <time>2023-05-19T11:32:07Z</time>
      </trkpt>
      <trkpt lat="44.60407" lon="5.94235">
        <ele>1765</ele>
        <time>2023-05-19T11:32:08Z</time>
      </trkpt>
      <trkpt lat="44.60408" lon="5.94236">
        <ele>1765</ele>
        <time>2023-05-19T11:32:10Z</time>
      </trkpt>
      <trkpt lat="44.60408" lon="5.94236">
        <ele>1765.2</ele>
        <time>2023-05-19T11:32:14Z</time>
      </trkpt>
      <trkpt lat="44.6041" lon="5.94238">
        <ele>1765.4</ele>
        <time>2023-05-19T11:32:22Z</time>
      </trkpt>
      <trkpt lat="44.6041" lon="5.94239">
        <ele>1765.6</ele>
        <time>2023-05-19T11:32:25Z</time>
      </trkpt>
      <trkpt lat="44.60411" lon="5.94239">
        <ele>1765.6</ele>
        <time>2023-05-19T11:32:26Z</time>
      </trkpt>
      <trkpt lat="44.60413" lon="5.94241">
        <ele>1765.8</ele>
        <time>2023-05-19T11:32:30Z</time>
      </trkpt>
      <trkpt lat="44.60414" lon="5.94241">
        <ele>1766</ele>
        <time>2023-05-19T11:32:31Z</time>
      </trkpt>
      <trkpt lat="44.60415" lon="5.94242">
        <ele>1766</ele>
        <time>2023-05-19T11:32:32Z</time>
      </trkpt>
      <trkpt lat="44.60416" lon="5.94242">
        <ele>1766</ele>
        <time>2023-05-19T11:32:33Z</time>
      </trkpt>
      <trkpt lat="44.60417" lon="5.94242">
        <ele>1766</ele>
        <time>2023-05-19T11:32:34Z</time>
      </trkpt>
      <trkpt lat="44.60417" lon="5.94242">
        <ele>1766</ele>
        <time>2023-05-19T11:32:35Z</time>
      </trkpt>
      <trkpt lat="44.60418" lon="5.94243">
        <ele>1766.2</ele>
        <time>2023-05-19T11:32:39Z</time>
      </trkpt>
      <trkpt lat="44.60425" lon="5.94253">
        <ele>1766.4</ele>
        <time>2023-05-19T11:32:45Z</time>
      </trkpt>
      <trkpt lat="44.60425" lon="5.94256">
        <ele>1766.4</ele>
        <time>2023-05-19T11:32:46Z</time>
      </trkpt>
      <trkpt lat="44.60426" lon="5.94259">
        <ele>1766.4</ele>
        <time>2023-05-19T11:32:47Z</time>
      </trkpt>
      <trkpt lat="44.6043" lon="5.94261">
        <ele>1766.2</ele>
        <time>2023-05-19T11:32:49Z</time>
      </trkpt>
      <trkpt lat="44.60432" lon="5.94261">
        <ele>1766.2</ele>
        <time>2023-05-19T11:32:50Z</time>
      </trkpt>
      <trkpt lat="44.60434" lon="5.9426">
        <ele>1766</ele>
        <time>2023-05-19T11:32:51Z</time>
      </trkpt>
      <trkpt lat="44.60436" lon="5.94259">
        <ele>1766</ele>
        <time>2023-05-19T11:32:52Z</time>
      </trkpt>
      <trkpt lat="44.60437" lon="5.94259">
        <ele>1765.8</ele>
        <time>2023-05-19T11:32:53Z</time>
      </trkpt>
      <trkpt lat="44.60445" lon="5.94259">
        <ele>1765.4</ele>
        <time>2023-05-19T11:32:57Z</time>
      </trkpt>
      <trkpt lat="44.60449" lon="5.9426">
        <ele>1765.4</ele>
        <time>2023-05-19T11:32:59Z</time>
      </trkpt>
      <trkpt lat="44.6045" lon="5.94261">
        <ele>1765.4</ele>
        <time>2023-05-19T11:33:00Z</time>
      </trkpt>
      <trkpt lat="44.60451" lon="5.94261">
        <ele>1765.4</ele>
        <time>2023-05-19T11:33:01Z</time>
      </trkpt>
      <trkpt lat="44.60453" lon="5.94262">
        <ele>1765.2</ele>
        <time>2023-05-19T11:33:02Z</time>
      </trkpt>
      <trkpt lat="44.60455" lon="5.94262">
        <ele>1765.4</ele>
        <time>2023-05-19T11:33:03Z</time>
      </trkpt>
      <trkpt lat="44.60456" lon="5.94262">
        <ele>1765.4</ele>
        <time>2023-05-19T11:33:04Z</time>
      </trkpt>
      <trkpt lat="44.60457" lon="5.94261">
        <ele>1765.6</ele>
        <time>2023-05-19T11:33:08Z</time>
      </trkpt>
      <trkpt lat="44.60457" lon="5.94262">
        <ele>1765.2</ele>
        <time>2023-05-19T11:33:32Z</time>
      </trkpt>
      <trkpt lat="44.60458" lon="5.94262">
        <ele>1765.2</ele>
        <time>2023-05-19T11:33:35Z</time>
      </trkpt>
      <trkpt lat="44.60463" lon="5.9426">
        <ele>1765.2</ele>
        <time>2023-05-19T11:33:42Z</time>
      </trkpt>
      <trkpt lat="44.60468" lon="5.94257">
        <ele>1765.2</ele>
        <time>2023-05-19T11:33:45Z</time>
      </trkpt>
      <trkpt lat="44.6047" lon="5.94257">
        <ele>1765.2</ele>
        <time>2023-05-19T11:33:46Z</time>
      </trkpt>
      <trkpt lat="44.60471" lon="5.94257">
        <ele>1765.4</ele>
        <time>2023-05-19T11:33:47Z</time>
      </trkpt>
      <trkpt lat="44.60472" lon="5.94258">
        <ele>1765.4</ele>
        <time>2023-05-19T11:33:48Z</time>
      </trkpt>
      <trkpt lat="44.60473" lon="5.94258">
        <ele>1765.6</ele>
        <time>2023-05-19T11:33:49Z</time>
      </trkpt>
      <trkpt lat="44.60475" lon="5.94259">
        <ele>1765.8</ele>
        <time>2023-05-19T11:33:50Z</time>
      </trkpt>
      <trkpt lat="44.60481" lon="5.94261">
        <ele>1766</ele>
        <time>2023-05-19T11:33:54Z</time>
      </trkpt>
      <trkpt lat="44.60482" lon="5.94262">
        <ele>1766.2</ele>
        <time>2023-05-19T11:33:55Z</time>
      </trkpt>
      <trkpt lat="44.60484" lon="5.94263">
        <ele>1766.4</ele>
        <time>2023-05-19T11:33:56Z</time>
      </trkpt>
      <trkpt lat="44.60492" lon="5.94263">
        <ele>1766.2</ele>
        <time>2023-05-19T11:33:59Z</time>
      </trkpt>
      <trkpt lat="44.60493" lon="5.94262">
        <ele>1766.2</ele>
        <time>2023-05-19T11:34:00Z</time>
      </trkpt>
      <trkpt lat="44.60495" lon="5.94264">
        <ele>1766.2</ele>
        <time>2023-05-19T11:34:06Z</time>
      </trkpt>
      <trkpt lat="44.60496" lon="5.94265">
        <ele>1766.2</ele>
        <time>2023-05-19T11:34:08Z</time>
      </trkpt>
      <trkpt lat="44.60497" lon="5.94265">
        <ele>1766.2</ele>
        <time>2023-05-19T11:34:09Z</time>
      </trkpt>
      <trkpt lat="44.60497" lon="5.94265">
        <ele>1766.2</ele>
        <time>2023-05-19T11:34:10Z</time>
      </trkpt>
      <trkpt lat="44.60499" lon="5.94266">
        <ele>1766.4</ele>
        <time>2023-05-19T11:34:12Z</time>
      </trkpt>
      <trkpt lat="44.60501" lon="5.94267">
        <ele>1766.6</ele>
        <time>2023-05-19T11:34:14Z</time>
      </trkpt>
      <trkpt lat="44.60502" lon="5.94268">
        <ele>1766.6</ele>
        <time>2023-05-19T11:34:15Z</time>
      </trkpt>
      <trkpt lat="44.60502" lon="5.94268">
        <ele>1766.8</ele>
        <time>2023-05-19T11:34:16Z</time>
      </trkpt>
      <trkpt lat="44.60507" lon="5.94274">
        <ele>1767</ele>
        <time>2023-05-19T11:34:22Z</time>
      </trkpt>
      <trkpt lat="44.60508" lon="5.94275">
        <ele>1767.2</ele>
        <time>2023-05-19T11:34:23Z</time>
      </trkpt>
      <trkpt lat="44.60509" lon="5.94275">
        <ele>1767.2</ele>
        <time>2023-05-19T11:34:24Z</time>
      </trkpt>
      <trkpt lat="44.6051" lon="5.94275">
        <ele>1767.2</ele>
        <time>2023-05-19T11:34:25Z</time>
      </trkpt>
      <trkpt lat="44.60511" lon="5.94276">
        <ele>1767.2</ele>
        <time>2023-05-19T11:34:26Z</time>
      </trkpt>
      <trkpt lat="44.60512" lon="5.94276">
        <ele>1767.2</ele>
        <time>2023-05-19T11:34:27Z</time>
      </trkpt>
      <trkpt lat="44.60512" lon="5.94276">
        <ele>1767.2</ele>
        <time>2023-05-19T11:34:28Z</time>
      </trkpt>
      <trkpt lat="44.60513" lon="5.94276">
        <ele>1767.2</ele>
        <time>2023-05-19T11:34:29Z</time>
      </trkpt>
      <trkpt lat="44.60514" lon="5.94276">
        <ele>1767.4</ele>
        <time>2023-05-19T11:34:30Z</time>
      </trkpt>
      <trkpt lat="44.60515" lon="5.94277">
        <ele>1767.4</ele>
        <time>2023-05-19T11:34:31Z</time>
      </trkpt>
      <trkpt lat="44.60516" lon="5.94278">
        <ele>1767.4</ele>
        <time>2023-05-19T11:34:32Z</time>
      </trkpt>
      <trkpt lat="44.60516" lon="5.94278">
        <ele>1767.4</ele>
        <time>2023-05-19T11:34:33Z</time>
      </trkpt>
      <trkpt lat="44.60517" lon="5.94279">
        <ele>1767.4</ele>
        <time>2023-05-19T11:34:34Z</time>
      </trkpt>
      <trkpt lat="44.60519" lon="5.9428">
        <ele>1767.4</ele>
        <time>2023-05-19T11:34:36Z</time>
      </trkpt>
      <trkpt lat="44.60519" lon="5.9428">
        <ele>1767.4</ele>
        <time>2023-05-19T11:34:38Z</time>
      </trkpt>
      <trkpt lat="44.6052" lon="5.94282">
        <ele>1767.4</ele>
        <time>2023-05-19T11:34:39Z</time>
      </trkpt>
      <trkpt lat="44.60521" lon="5.94283">
        <ele>1767.4</ele>
        <time>2023-05-19T11:34:40Z</time>
      </trkpt>
      <trkpt lat="44.60525" lon="5.94287">
        <ele>1767.4</ele>
        <time>2023-05-19T11:34:42Z</time>
      </trkpt>
      <trkpt lat="44.60526" lon="5.94288">
        <ele>1767.4</ele>
        <time>2023-05-19T11:34:43Z</time>
      </trkpt>
      <trkpt lat="44.60529" lon="5.9429">
        <ele>1767.4</ele>
        <time>2023-05-19T11:34:45Z</time>
      </trkpt>
      <trkpt lat="44.6053" lon="5.9429">
        <ele>1767.6</ele>
        <time>2023-05-19T11:34:46Z</time>
      </trkpt>
      <trkpt lat="44.60531" lon="5.94291">
        <ele>1767.6</ele>
        <time>2023-05-19T11:34:47Z</time>
      </trkpt>
      <trkpt lat="44.60532" lon="5.94292">
        <ele>1767.6</ele>
        <time>2023-05-19T11:34:48Z</time>
      </trkpt>
      <trkpt lat="44.60544" lon="5.94301">
        <ele>1768</ele>
        <time>2023-05-19T11:34:56Z</time>
      </trkpt>
      <trkpt lat="44.60542" lon="5.94309">
        <ele>1768.2</ele>
        <time>2023-05-19T11:35:00Z</time>
      </trkpt>
      <trkpt lat="44.60541" lon="5.9431">
        <ele>1768.4</ele>
        <time>2023-05-19T11:35:01Z</time>
      </trkpt>
      <trkpt lat="44.60541" lon="5.94311">
        <ele>1768.6</ele>
        <time>2023-05-19T11:35:06Z</time>
      </trkpt>
      <trkpt lat="44.60541" lon="5.94313">
        <ele>1768.6</ele>
        <time>2023-05-19T11:35:08Z</time>
      </trkpt>
      <trkpt lat="44.60541" lon="5.94313">
        <ele>1768.4</ele>
        <time>2023-05-19T11:35:09Z</time>
      </trkpt>
      <trkpt lat="44.60541" lon="5.94314">
        <ele>1768.6</ele>
        <time>2023-05-19T11:35:10Z</time>
      </trkpt>
      <trkpt lat="44.60541" lon="5.94314">
        <ele>1768.6</ele>
        <time>2023-05-19T11:35:11Z</time>
      </trkpt>
      <trkpt lat="44.60541" lon="5.94314">
        <ele>1768.6</ele>
        <time>2023-05-19T11:35:12Z</time>
      </trkpt>
      <trkpt lat="44.60541" lon="5.94314">
        <ele>1768.8</ele>
        <time>2023-05-19T11:35:13Z</time>
      </trkpt>
      <trkpt lat="44.60541" lon="5.94315">
        <ele>1768.8</ele>
        <time>2023-05-19T11:35:14Z</time>
      </trkpt>
      <trkpt lat="44.6054" lon="5.94316">
        <ele>1769.2</ele>
        <time>2023-05-19T11:35:16Z</time>
      </trkpt>
      <trkpt lat="44.6054" lon="5.94316">
        <ele>1769.4</ele>
        <time>2023-05-19T11:35:17Z</time>
      </trkpt>
      <trkpt lat="44.60539" lon="5.94317">
        <ele>1769.6</ele>
        <time>2023-05-19T11:35:18Z</time>
      </trkpt>
      <trkpt lat="44.60539" lon="5.94319">
        <ele>1770.2</ele>
        <time>2023-05-19T11:35:22Z</time>
      </trkpt>
      <trkpt lat="44.60539" lon="5.9432">
        <ele>1770.4</ele>
        <time>2023-05-19T11:35:23Z</time>
      </trkpt>
      <trkpt lat="44.60539" lon="5.9432">
        <ele>1770.6</ele>
        <time>2023-05-19T11:35:24Z</time>
      </trkpt>
      <trkpt lat="44.60539" lon="5.9432">
        <ele>1770.8</ele>
        <time>2023-05-19T11:35:25Z</time>
      </trkpt>
      <trkpt lat="44.60539" lon="5.9432">
        <ele>1771.2</ele>
        <time>2023-05-19T11:35:27Z</time>
      </trkpt>
      <trkpt lat="44.60539" lon="5.9432">
        <ele>1771.2</ele>
        <time>2023-05-19T11:35:28Z</time>
      </trkpt>
      <trkpt lat="44.60538" lon="5.9432">
        <ele>1771.4</ele>
        <time>2023-05-19T11:35:30Z</time>
      </trkpt>
      <trkpt lat="44.60538" lon="5.94321">
        <ele>1771.4</ele>
        <time>2023-05-19T11:35:31Z</time>
      </trkpt>
      <trkpt lat="44.60537" lon="5.94322">
        <ele>1771.4</ele>
        <time>2023-05-19T11:35:32Z</time>
      </trkpt>
      <trkpt lat="44.60537" lon="5.94322">
        <ele>1771.8</ele>
        <time>2023-05-19T11:35:34Z</time>
      </trkpt>
      <trkpt lat="44.60537" lon="5.94323">
        <ele>1772.8</ele>
        <time>2023-05-19T11:35:40Z</time>
      </trkpt>
      <trkpt lat="44.60536" lon="5.94325">
        <ele>1773</ele>
        <time>2023-05-19T11:35:41Z</time>
      </trkpt>
      <trkpt lat="44.60535" lon="5.94326">
        <ele>1773</ele>
        <time>2023-05-19T11:35:42Z</time>
      </trkpt>
      <trkpt lat="44.60535" lon="5.94326">
        <ele>1773.2</ele>
        <time>2023-05-19T11:35:43Z</time>
      </trkpt>
      <trkpt lat="44.60535" lon="5.94326">
        <ele>1773.2</ele>
        <time>2023-05-19T11:35:44Z</time>
      </trkpt>
      <trkpt lat="44.60534" lon="5.94327">
        <ele>1773.4</ele>
        <time>2023-05-19T11:35:45Z</time>
      </trkpt>
      <trkpt lat="44.60533" lon="5.94328">
        <ele>1773.2</ele>
        <time>2023-05-19T11:35:46Z</time>
      </trkpt>
      <trkpt lat="44.60533" lon="5.94329">
        <ele>1773.6</ele>
        <time>2023-05-19T11:35:47Z</time>
      </trkpt>
      <trkpt lat="44.60532" lon="5.94331">
        <ele>1773.6</ele>
        <time>2023-05-19T11:35:48Z</time>
      </trkpt>
      <trkpt lat="44.60531" lon="5.94332">
        <ele>1773.8</ele>
        <time>2023-05-19T11:35:49Z</time>
      </trkpt>
      <trkpt lat="44.60531" lon="5.94333">
        <ele>1774</ele>
        <time>2023-05-19T11:35:50Z</time>
      </trkpt>
      <trkpt lat="44.6053" lon="5.94333">
        <ele>1774.2</ele>
        <time>2023-05-19T11:35:51Z</time>
      </trkpt>
      <trkpt lat="44.6053" lon="5.94333">
        <ele>1774.4</ele>
        <time>2023-05-19T11:35:52Z</time>
      </trkpt>
      <trkpt lat="44.60529" lon="5.94335">
        <ele>1774.4</ele>
        <time>2023-05-19T11:35:55Z</time>
      </trkpt>
      <trkpt lat="44.60529" lon="5.94337">
        <ele>1774.4</ele>
        <time>2023-05-19T11:35:56Z</time>
      </trkpt>
      <trkpt lat="44.60528" lon="5.94338">
        <ele>1774.4</ele>
        <time>2023-05-19T11:35:57Z</time>
      </trkpt>
      <trkpt lat="44.60525" lon="5.9434">
        <ele>1774.4</ele>
        <time>2023-05-19T11:35:58Z</time>
      </trkpt>
      <trkpt lat="44.60524" lon="5.94344">
        <ele>1774.4</ele>
        <time>2023-05-19T11:35:59Z</time>
      </trkpt>
      <trkpt lat="44.60523" lon="5.94347">
        <ele>1774.4</ele>
        <time>2023-05-19T11:36:00Z</time>
      </trkpt>
      <trkpt lat="44.60524" lon="5.9435">
        <ele>1774.4</ele>
        <time>2023-05-19T11:36:01Z</time>
      </trkpt>
      <trkpt lat="44.60524" lon="5.94353">
        <ele>1774.2</ele>
        <time>2023-05-19T11:36:02Z</time>
      </trkpt>
      <trkpt lat="44.60524" lon="5.94356">
        <ele>1773.8</ele>
        <time>2023-05-19T11:36:03Z</time>
      </trkpt>
      <trkpt lat="44.60525" lon="5.94359">
        <ele>1773.4</ele>
        <time>2023-05-19T11:36:04Z</time>
      </trkpt>
      <trkpt lat="44.60525" lon="5.94362">
        <ele>1773.2</ele>
        <time>2023-05-19T11:36:05Z</time>
      </trkpt>
      <trkpt lat="44.60525" lon="5.94369">
        <ele>1772.8</ele>
        <time>2023-05-19T11:36:08Z</time>
      </trkpt>
      <trkpt lat="44.60525" lon="5.94372">
        <ele>1772.8</ele>
        <time>2023-05-19T11:36:09Z</time>
      </trkpt>
      <trkpt lat="44.60525" lon="5.94374">
        <ele>1772.6</ele>
        <time>2023-05-19T11:36:10Z</time>
      </trkpt>
      <trkpt lat="44.60526" lon="5.94377">
        <ele>1772.6</ele>
        <time>2023-05-19T11:36:11Z</time>
      </trkpt>
      <trkpt lat="44.60527" lon="5.9438">
        <ele>1772.6</ele>
        <time>2023-05-19T11:36:12Z</time>
      </trkpt>
      <trkpt lat="44.60527" lon="5.94381">
        <ele>1772.6</ele>
        <time>2023-05-19T11:36:13Z</time>
      </trkpt>
      <trkpt lat="44.60527" lon="5.94383">
        <ele>1772.6</ele>
        <time>2023-05-19T11:36:14Z</time>
      </trkpt>
      <trkpt lat="44.60528" lon="5.94384">
        <ele>1772.6</ele>
        <time>2023-05-19T11:36:15Z</time>
      </trkpt>
      <trkpt lat="44.60528" lon="5.94387">
        <ele>1772.8</ele>
        <time>2023-05-19T11:36:17Z</time>
      </trkpt>
      <trkpt lat="44.60528" lon="5.94387">
        <ele>1772.8</ele>
        <time>2023-05-19T11:36:18Z</time>
      </trkpt>
      <trkpt lat="44.60528" lon="5.94387">
        <ele>1773.2</ele>
        <time>2023-05-19T11:36:20Z</time>
      </trkpt>
      <trkpt lat="44.60528" lon="5.94392">
        <ele>1773.8</ele>
        <time>2023-05-19T11:36:24Z</time>
      </trkpt>
      <trkpt lat="44.60529" lon="5.94392">
        <ele>1773.8</ele>
        <time>2023-05-19T11:36:25Z</time>
      </trkpt>
      <trkpt lat="44.60529" lon="5.94393">
        <ele>1774</ele>
        <time>2023-05-19T11:36:26Z</time>
      </trkpt>
      <trkpt lat="44.60529" lon="5.94394">
        <ele>1774</ele>
        <time>2023-05-19T11:36:27Z</time>
      </trkpt>
      <trkpt lat="44.60526" lon="5.94397">
        <ele>1774.6</ele>
        <time>2023-05-19T11:36:32Z</time>
      </trkpt>
      <trkpt lat="44.60525" lon="5.94397">
        <ele>1774.8</ele>
        <time>2023-05-19T11:36:33Z</time>
      </trkpt>
      <trkpt lat="44.60524" lon="5.94397">
        <ele>1775</ele>
        <time>2023-05-19T11:36:34Z</time>
      </trkpt>
      <trkpt lat="44.60522" lon="5.94398">
        <ele>1775</ele>
        <time>2023-05-19T11:36:35Z</time>
      </trkpt>
      <trkpt lat="44.60521" lon="5.944">
        <ele>1775</ele>
        <time>2023-05-19T11:36:36Z</time>
      </trkpt>
      <trkpt lat="44.6052" lon="5.94401">
        <ele>1775</ele>
        <time>2023-05-19T11:36:37Z</time>
      </trkpt>
      <trkpt lat="44.6052" lon="5.94402">
        <ele>1775</ele>
        <time>2023-05-19T11:36:38Z</time>
      </trkpt>
      <trkpt lat="44.60519" lon="5.94404">
        <ele>1775</ele>
        <time>2023-05-19T11:36:39Z</time>
      </trkpt>
      <trkpt lat="44.60519" lon="5.94406">
        <ele>1775</ele>
        <time>2023-05-19T11:36:40Z</time>
      </trkpt>
      <trkpt lat="44.60517" lon="5.94412">
        <ele>1775</ele>
        <time>2023-05-19T11:36:43Z</time>
      </trkpt>
      <trkpt lat="44.60509" lon="5.94412">
        <ele>1775</ele>
        <time>2023-05-19T11:36:47Z</time>
      </trkpt>
      <trkpt lat="44.60507" lon="5.94414">
        <ele>1775</ele>
        <time>2023-05-19T11:36:48Z</time>
      </trkpt>
      <trkpt lat="44.60506" lon="5.94416">
        <ele>1775</ele>
        <time>2023-05-19T11:36:49Z</time>
      </trkpt>
      <trkpt lat="44.60505" lon="5.94418">
        <ele>1775</ele>
        <time>2023-05-19T11:36:50Z</time>
      </trkpt>
      <trkpt lat="44.60505" lon="5.94422">
        <ele>1775</ele>
        <time>2023-05-19T11:36:52Z</time>
      </trkpt>
      <trkpt lat="44.60505" lon="5.94425">
        <ele>1774.8</ele>
        <time>2023-05-19T11:36:53Z</time>
      </trkpt>
      <trkpt lat="44.60505" lon="5.94426">
        <ele>1774.8</ele>
        <time>2023-05-19T11:36:54Z</time>
      </trkpt>
      <trkpt lat="44.60505" lon="5.94428">
        <ele>1774.8</ele>
        <time>2023-05-19T11:36:55Z</time>
      </trkpt>
      <trkpt lat="44.60505" lon="5.9443">
        <ele>1774.8</ele>
        <time>2023-05-19T11:36:56Z</time>
      </trkpt>
      <trkpt lat="44.60503" lon="5.94431">
        <ele>1774.8</ele>
        <time>2023-05-19T11:36:57Z</time>
      </trkpt>
      <trkpt lat="44.60503" lon="5.94433">
        <ele>1774.8</ele>
        <time>2023-05-19T11:36:58Z</time>
      </trkpt>
      <trkpt lat="44.60502" lon="5.94435">
        <ele>1775</ele>
        <time>2023-05-19T11:36:59Z</time>
      </trkpt>
      <trkpt lat="44.60502" lon="5.94438">
        <ele>1775.2</ele>
        <time>2023-05-19T11:37:00Z</time>
      </trkpt>
      <trkpt lat="44.60502" lon="5.9444">
        <ele>1775.2</ele>
        <time>2023-05-19T11:37:01Z</time>
      </trkpt>
      <trkpt lat="44.60502" lon="5.94442">
        <ele>1775.8</ele>
        <time>2023-05-19T11:37:02Z</time>
      </trkpt>
      <trkpt lat="44.60503" lon="5.94444">
        <ele>1776</ele>
        <time>2023-05-19T11:37:03Z</time>
      </trkpt>
      <trkpt lat="44.60503" lon="5.94445">
        <ele>1776</ele>
        <time>2023-05-19T11:37:04Z</time>
      </trkpt>
      <trkpt lat="44.60504" lon="5.94447">
        <ele>1776.2</ele>
        <time>2023-05-19T11:37:05Z</time>
      </trkpt>
      <trkpt lat="44.60504" lon="5.94448">
        <ele>1776.4</ele>
        <time>2023-05-19T11:37:06Z</time>
      </trkpt>
      <trkpt lat="44.60505" lon="5.94449">
        <ele>1776.6</ele>
        <time>2023-05-19T11:37:07Z</time>
      </trkpt>
      <trkpt lat="44.60505" lon="5.94451">
        <ele>1776.6</ele>
        <time>2023-05-19T11:37:08Z</time>
      </trkpt>
      <trkpt lat="44.60504" lon="5.94452">
        <ele>1776.8</ele>
        <time>2023-05-19T11:37:09Z</time>
      </trkpt>
      <trkpt lat="44.60502" lon="5.94453">
        <ele>1776.8</ele>
        <time>2023-05-19T11:37:11Z</time>
      </trkpt>
      <trkpt lat="44.60498" lon="5.94454">
        <ele>1777</ele>
        <time>2023-05-19T11:37:13Z</time>
      </trkpt>
      <trkpt lat="44.60495" lon="5.94454">
        <ele>1777</ele>
        <time>2023-05-19T11:37:14Z</time>
      </trkpt>
      <trkpt lat="44.6049" lon="5.94455">
        <ele>1777.2</ele>
        <time>2023-05-19T11:37:16Z</time>
      </trkpt>
      <trkpt lat="44.60487" lon="5.94457">
        <ele>1777.2</ele>
        <time>2023-05-19T11:37:17Z</time>
      </trkpt>
      <trkpt lat="44.60486" lon="5.94458">
        <ele>1777.2</ele>
        <time>2023-05-19T11:37:18Z</time>
      </trkpt>
      <trkpt lat="44.60485" lon="5.9446">
        <ele>1777.2</ele>
        <time>2023-05-19T11:37:19Z</time>
      </trkpt>
      <trkpt lat="44.60483" lon="5.94462">
        <ele>1777.2</ele>
        <time>2023-05-19T11:37:20Z</time>
      </trkpt>
      <trkpt lat="44.60483" lon="5.94464">
        <ele>1777.2</ele>
        <time>2023-05-19T11:37:21Z</time>
      </trkpt>
      <trkpt lat="44.60482" lon="5.94466">
        <ele>1777.2</ele>
        <time>2023-05-19T11:37:22Z</time>
      </trkpt>
      <trkpt lat="44.60482" lon="5.94468">
        <ele>1777.4</ele>
        <time>2023-05-19T11:37:23Z</time>
      </trkpt>
      <trkpt lat="44.60483" lon="5.9447">
        <ele>1777.4</ele>
        <time>2023-05-19T11:37:24Z</time>
      </trkpt>
      <trkpt lat="44.60484" lon="5.94471">
        <ele>1777.4</ele>
        <time>2023-05-19T11:37:25Z</time>
      </trkpt>
      <trkpt lat="44.60485" lon="5.94473">
        <ele>1777.4</ele>
        <time>2023-05-19T11:37:26Z</time>
      </trkpt>
      <trkpt lat="44.60485" lon="5.94475">
        <ele>1777.4</ele>
        <time>2023-05-19T11:37:27Z</time>
      </trkpt>
      <trkpt lat="44.60486" lon="5.94477">
        <ele>1777.6</ele>
        <time>2023-05-19T11:37:28Z</time>
      </trkpt>
      <trkpt lat="44.60486" lon="5.9448">
        <ele>1777.6</ele>
        <time>2023-05-19T11:37:29Z</time>
      </trkpt>
      <trkpt lat="44.60486" lon="5.94483">
        <ele>1777.8</ele>
        <time>2023-05-19T11:37:30Z</time>
      </trkpt>
      <trkpt lat="44.60487" lon="5.94488">
        <ele>1778</ele>
        <time>2023-05-19T11:37:32Z</time>
      </trkpt>
      <trkpt lat="44.60489" lon="5.94495">
        <ele>1778.2</ele>
        <time>2023-05-19T11:37:35Z</time>
      </trkpt>
      <trkpt lat="44.6049" lon="5.94501">
        <ele>1778.6</ele>
        <time>2023-05-19T11:37:38Z</time>
      </trkpt>
      <trkpt lat="44.6049" lon="5.94506">
        <ele>1778.8</ele>
        <time>2023-05-19T11:37:40Z</time>
      </trkpt>
      <trkpt lat="44.60491" lon="5.94508">
        <ele>1779</ele>
        <time>2023-05-19T11:37:41Z</time>
      </trkpt>
      <trkpt lat="44.60491" lon="5.94511">
        <ele>1779</ele>
        <time>2023-05-19T11:37:42Z</time>
      </trkpt>
      <trkpt lat="44.60491" lon="5.94517">
        <ele>1779.2</ele>
        <time>2023-05-19T11:37:44Z</time>
      </trkpt>
      <trkpt lat="44.6049" lon="5.94519">
        <ele>1779.4</ele>
        <time>2023-05-19T11:37:45Z</time>
      </trkpt>
      <trkpt lat="44.6049" lon="5.94521">
        <ele>1779.8</ele>
        <time>2023-05-19T11:37:46Z</time>
      </trkpt>
      <trkpt lat="44.60488" lon="5.94523">
        <ele>1780</ele>
        <time>2023-05-19T11:37:47Z</time>
      </trkpt>
      <trkpt lat="44.60486" lon="5.94525">
        <ele>1780</ele>
        <time>2023-05-19T11:37:48Z</time>
      </trkpt>
      <trkpt lat="44.60485" lon="5.94527">
        <ele>1780</ele>
        <time>2023-05-19T11:37:49Z</time>
      </trkpt>
      <trkpt lat="44.60484" lon="5.94529">
        <ele>1780.2</ele>
        <time>2023-05-19T11:37:50Z</time>
      </trkpt>
      <trkpt lat="44.60483" lon="5.94532">
        <ele>1780.2</ele>
        <time>2023-05-19T11:37:51Z</time>
      </trkpt>
      <trkpt lat="44.60483" lon="5.94535">
        <ele>1780.2</ele>
        <time>2023-05-19T11:37:52Z</time>
      </trkpt>
      <trkpt lat="44.60483" lon="5.94538">
        <ele>1780.2</ele>
        <time>2023-05-19T11:37:53Z</time>
      </trkpt>
      <trkpt lat="44.60482" lon="5.94541">
        <ele>1780.2</ele>
        <time>2023-05-19T11:37:54Z</time>
      </trkpt>
      <trkpt lat="44.60481" lon="5.94545">
        <ele>1780.4</ele>
        <time>2023-05-19T11:37:56Z</time>
      </trkpt>
      <trkpt lat="44.60477" lon="5.94553">
        <ele>1780.4</ele>
        <time>2023-05-19T11:37:59Z</time>
      </trkpt>
      <trkpt lat="44.60475" lon="5.94556">
        <ele>1780.6</ele>
        <time>2023-05-19T11:38:01Z</time>
      </trkpt>
      <trkpt lat="44.60473" lon="5.94559">
        <ele>1780.8</ele>
        <time>2023-05-19T11:38:02Z</time>
      </trkpt>
      <trkpt lat="44.60465" lon="5.94569">
        <ele>1781.2</ele>
        <time>2023-05-19T11:38:08Z</time>
      </trkpt>
      <trkpt lat="44.60464" lon="5.9457">
        <ele>1781.2</ele>
        <time>2023-05-19T11:38:09Z</time>
      </trkpt>
      <trkpt lat="44.60463" lon="5.94571">
        <ele>1781.2</ele>
        <time>2023-05-19T11:38:10Z</time>
      </trkpt>
      <trkpt lat="44.60461" lon="5.94571">
        <ele>1781.4</ele>
        <time>2023-05-19T11:38:11Z</time>
      </trkpt>
      <trkpt lat="44.6046" lon="5.94571">
        <ele>1781.4</ele>
        <time>2023-05-19T11:38:12Z</time>
      </trkpt>
      <trkpt lat="44.60459" lon="5.9457">
        <ele>1781.4</ele>
        <time>2023-05-19T11:38:13Z</time>
      </trkpt>
      <trkpt lat="44.60458" lon="5.9457">
        <ele>1781.4</ele>
        <time>2023-05-19T11:38:14Z</time>
      </trkpt>
      <trkpt lat="44.60458" lon="5.9457">
        <ele>1781.6</ele>
        <time>2023-05-19T11:38:15Z</time>
      </trkpt>
      <trkpt lat="44.60458" lon="5.9457">
        <ele>1781.6</ele>
        <time>2023-05-19T11:38:16Z</time>
      </trkpt>
      <trkpt lat="44.60458" lon="5.9457">
        <ele>1781.8</ele>
        <time>2023-05-19T11:38:17Z</time>
      </trkpt>
      <trkpt lat="44.60457" lon="5.9457">
        <ele>1782.8</ele>
        <time>2023-05-19T11:38:24Z</time>
      </trkpt>
      <trkpt lat="44.60457" lon="5.9457">
        <ele>1783.6</ele>
        <time>2023-05-19T11:38:25Z</time>
      </trkpt>
      <trkpt lat="44.60457" lon="5.9457">
        <ele>1784</ele>
        <time>2023-05-19T11:38:28Z</time>
      </trkpt>
      <trkpt lat="44.60458" lon="5.94571">
        <ele>1783.8</ele>
        <time>2023-05-19T11:38:31Z</time>
      </trkpt>
      <trkpt lat="44.60458" lon="5.94572">
        <ele>1782.8</ele>
        <time>2023-05-19T11:38:34Z</time>
      </trkpt>
      <trkpt lat="44.60458" lon="5.94572">
        <ele>1782</ele>
        <time>2023-05-19T11:38:44Z</time>
      </trkpt>
      <trkpt lat="44.60458" lon="5.94572">
        <ele>1782</ele>
        <time>2023-05-19T11:38:46Z</time>
      </trkpt>
      <trkpt lat="44.60459" lon="5.94574">
        <ele>1781.8</ele>
        <time>2023-05-19T11:39:02Z</time>
      </trkpt>
      <trkpt lat="44.6046" lon="5.94576">
        <ele>1781.8</ele>
        <time>2023-05-19T11:39:03Z</time>
      </trkpt>
      <trkpt lat="44.60462" lon="5.94579">
        <ele>1781.8</ele>
        <time>2023-05-19T11:39:04Z</time>
      </trkpt>
      <trkpt lat="44.60463" lon="5.94581">
        <ele>1781.8</ele>
        <time>2023-05-19T11:39:05Z</time>
      </trkpt>
      <trkpt lat="44.60466" lon="5.94588">
        <ele>1781.8</ele>
        <time>2023-05-19T11:39:08Z</time>
      </trkpt>
      <trkpt lat="44.6047" lon="5.94595">
        <ele>1781.8</ele>
        <time>2023-05-19T11:39:10Z</time>
      </trkpt>
      <trkpt lat="44.60474" lon="5.94602">
        <ele>1781.8</ele>
        <time>2023-05-19T11:39:12Z</time>
      </trkpt>
      <trkpt lat="44.60475" lon="5.94605">
        <ele>1781.8</ele>
        <time>2023-05-19T11:39:13Z</time>
      </trkpt>
      <trkpt lat="44.60476" lon="5.94608">
        <ele>1781.8</ele>
        <time>2023-05-19T11:39:14Z</time>
      </trkpt>
      <trkpt lat="44.60476" lon="5.94611">
        <ele>1781.8</ele>
        <time>2023-05-19T11:39:15Z</time>
      </trkpt>
      <trkpt lat="44.60477" lon="5.94614">
        <ele>1781.8</ele>
        <time>2023-05-19T11:39:16Z</time>
      </trkpt>
      <trkpt lat="44.60478" lon="5.94617">
        <ele>1782</ele>
        <time>2023-05-19T11:39:17Z</time>
      </trkpt>
      <trkpt lat="44.60482" lon="5.94625">
        <ele>1782.2</ele>
        <time>2023-05-19T11:39:20Z</time>
      </trkpt>
      <trkpt lat="44.60483" lon="5.94627">
        <ele>1782.2</ele>
        <time>2023-05-19T11:39:21Z</time>
      </trkpt>
      <trkpt lat="44.60485" lon="5.94629">
        <ele>1782.4</ele>
        <time>2023-05-19T11:39:22Z</time>
      </trkpt>
      <trkpt lat="44.60487" lon="5.94631">
        <ele>1782.4</ele>
        <time>2023-05-19T11:39:23Z</time>
      </trkpt>
      <trkpt lat="44.60493" lon="5.9464">
        <ele>1782.8</ele>
        <time>2023-05-19T11:39:27Z</time>
      </trkpt>
      <trkpt lat="44.60494" lon="5.94643">
        <ele>1782.8</ele>
        <time>2023-05-19T11:39:28Z</time>
      </trkpt>
      <trkpt lat="44.60495" lon="5.94645">
        <ele>1782.8</ele>
        <time>2023-05-19T11:39:29Z</time>
      </trkpt>
      <trkpt lat="44.60495" lon="5.94647">
        <ele>1783</ele>
        <time>2023-05-19T11:39:30Z</time>
      </trkpt>
      <trkpt lat="44.60496" lon="5.94649">
        <ele>1783</ele>
        <time>2023-05-19T11:39:31Z</time>
      </trkpt>
      <trkpt lat="44.60497" lon="5.94652">
        <ele>1783.2</ele>
        <time>2023-05-19T11:39:32Z</time>
      </trkpt>
      <trkpt lat="44.60498" lon="5.94654">
        <ele>1783.2</ele>
        <time>2023-05-19T11:39:33Z</time>
      </trkpt>
      <trkpt lat="44.605" lon="5.94656">
        <ele>1783.2</ele>
        <time>2023-05-19T11:39:34Z</time>
      </trkpt>
      <trkpt lat="44.60501" lon="5.94658">
        <ele>1783.2</ele>
        <time>2023-05-19T11:39:35Z</time>
      </trkpt>
      <trkpt lat="44.60505" lon="5.94666">
        <ele>1783.4</ele>
        <time>2023-05-19T11:39:38Z</time>
      </trkpt>
      <trkpt lat="44.60506" lon="5.94668">
        <ele>1783.4</ele>
        <time>2023-05-19T11:39:39Z</time>
      </trkpt>
      <trkpt lat="44.60507" lon="5.9467">
        <ele>1783.4</ele>
        <time>2023-05-19T11:39:40Z</time>
      </trkpt>
      <trkpt lat="44.60508" lon="5.94672">
        <ele>1783.4</ele>
        <time>2023-05-19T11:39:41Z</time>
      </trkpt>
      <trkpt lat="44.60511" lon="5.94676">
        <ele>1783.4</ele>
        <time>2023-05-19T11:39:43Z</time>
      </trkpt>
      <trkpt lat="44.60517" lon="5.94688">
        <ele>1783.2</ele>
        <time>2023-05-19T11:39:48Z</time>
      </trkpt>
      <trkpt lat="44.60531" lon="5.94713">
        <ele>1783.6</ele>
        <time>2023-05-19T11:39:57Z</time>
      </trkpt>
      <trkpt lat="44.6054" lon="5.94718">
        <ele>1783.8</ele>
        <time>2023-05-19T11:40:01Z</time>
      </trkpt>
      <trkpt lat="44.60542" lon="5.94719">
        <ele>1783.8</ele>
        <time>2023-05-19T11:40:02Z</time>
      </trkpt>
      <trkpt lat="44.60544" lon="5.9472">
        <ele>1783.8</ele>
        <time>2023-05-19T11:40:03Z</time>
      </trkpt>
      <trkpt lat="44.60546" lon="5.94722">
        <ele>1784</ele>
        <time>2023-05-19T11:40:04Z</time>
      </trkpt>
      <trkpt lat="44.6056" lon="5.94733">
        <ele>1784.4</ele>
        <time>2023-05-19T11:40:11Z</time>
      </trkpt>
      <trkpt lat="44.60566" lon="5.94733">
        <ele>1784.8</ele>
        <time>2023-05-19T11:40:14Z</time>
      </trkpt>
      <trkpt lat="44.60568" lon="5.94733">
        <ele>1784.8</ele>
        <time>2023-05-19T11:40:15Z</time>
      </trkpt>
      <trkpt lat="44.6057" lon="5.94733">
        <ele>1784.8</ele>
        <time>2023-05-19T11:40:16Z</time>
      </trkpt>
      <trkpt lat="44.60572" lon="5.94734">
        <ele>1785</ele>
        <time>2023-05-19T11:40:17Z</time>
      </trkpt>
      <trkpt lat="44.60574" lon="5.94735">
        <ele>1785</ele>
        <time>2023-05-19T11:40:18Z</time>
      </trkpt>
      <trkpt lat="44.60575" lon="5.94737">
        <ele>1785</ele>
        <time>2023-05-19T11:40:19Z</time>
      </trkpt>
      <trkpt lat="44.60576" lon="5.94738">
        <ele>1785.2</ele>
        <time>2023-05-19T11:40:20Z</time>
      </trkpt>
      <trkpt lat="44.60577" lon="5.94738">
        <ele>1785.2</ele>
        <time>2023-05-19T11:40:21Z</time>
      </trkpt>
      <trkpt lat="44.60578" lon="5.94739">
        <ele>1785.2</ele>
        <time>2023-05-19T11:40:22Z</time>
      </trkpt>
      <trkpt lat="44.60579" lon="5.94739">
        <ele>1785.6</ele>
        <time>2023-05-19T11:40:26Z</time>
      </trkpt>
      <trkpt lat="44.60581" lon="5.9474">
        <ele>1785.6</ele>
        <time>2023-05-19T11:40:29Z</time>
      </trkpt>
      <trkpt lat="44.60582" lon="5.9474">
        <ele>1785.8</ele>
        <time>2023-05-19T11:40:30Z</time>
      </trkpt>
      <trkpt lat="44.60584" lon="5.94741">
        <ele>1785.8</ele>
        <time>2023-05-19T11:40:32Z</time>
      </trkpt>
      <trkpt lat="44.60584" lon="5.94742">
        <ele>1785.8</ele>
        <time>2023-05-19T11:40:33Z</time>
      </trkpt>
      <trkpt lat="44.60585" lon="5.94743">
        <ele>1785.8</ele>
        <time>2023-05-19T11:40:34Z</time>
      </trkpt>
      <trkpt lat="44.60587" lon="5.94743">
        <ele>1785.6</ele>
        <time>2023-05-19T11:40:37Z</time>
      </trkpt>
      <trkpt lat="44.60587" lon="5.94744">
        <ele>1785.6</ele>
        <time>2023-05-19T11:40:38Z</time>
      </trkpt>
      <trkpt lat="44.60587" lon="5.94743">
        <ele>1785.8</ele>
        <time>2023-05-19T11:40:39Z</time>
      </trkpt>
      <trkpt lat="44.60589" lon="5.94743">
        <ele>1785.6</ele>
        <time>2023-05-19T11:40:41Z</time>
      </trkpt>
      <trkpt lat="44.60592" lon="5.94744">
        <ele>1785.8</ele>
        <time>2023-05-19T11:40:44Z</time>
      </trkpt>
      <trkpt lat="44.60593" lon="5.94745">
        <ele>1785.8</ele>
        <time>2023-05-19T11:40:45Z</time>
      </trkpt>
      <trkpt lat="44.60593" lon="5.94747">
        <ele>1785.8</ele>
        <time>2023-05-19T11:40:46Z</time>
      </trkpt>
      <trkpt lat="44.60593" lon="5.94748">
        <ele>1785.8</ele>
        <time>2023-05-19T11:40:47Z</time>
      </trkpt>
      <trkpt lat="44.60593" lon="5.9475">
        <ele>1786</ele>
        <time>2023-05-19T11:40:49Z</time>
      </trkpt>
      <trkpt lat="44.60593" lon="5.94751">
        <ele>1786</ele>
        <time>2023-05-19T11:40:50Z</time>
      </trkpt>
      <trkpt lat="44.60594" lon="5.94754">
        <ele>1786</ele>
        <time>2023-05-19T11:40:52Z</time>
      </trkpt>
      <trkpt lat="44.60594" lon="5.94755">
        <ele>1786</ele>
        <time>2023-05-19T11:40:53Z</time>
      </trkpt>
      <trkpt lat="44.60594" lon="5.94759">
        <ele>1786</ele>
        <time>2023-05-19T11:40:56Z</time>
      </trkpt>
      <trkpt lat="44.60594" lon="5.9476">
        <ele>1786.4</ele>
        <time>2023-05-19T11:40:59Z</time>
      </trkpt>
      <trkpt lat="44.60594" lon="5.94762">
        <ele>1786.6</ele>
        <time>2023-05-19T11:41:00Z</time>
      </trkpt>
      <trkpt lat="44.60594" lon="5.94769">
        <ele>1786.8</ele>
        <time>2023-05-19T11:41:03Z</time>
      </trkpt>
      <trkpt lat="44.60593" lon="5.94771">
        <ele>1786.8</ele>
        <time>2023-05-19T11:41:04Z</time>
      </trkpt>
      <trkpt lat="44.60592" lon="5.94773">
        <ele>1786.8</ele>
        <time>2023-05-19T11:41:05Z</time>
      </trkpt>
      <trkpt lat="44.60592" lon="5.94775">
        <ele>1787</ele>
        <time>2023-05-19T11:41:06Z</time>
      </trkpt>
      <trkpt lat="44.6059" lon="5.94781">
        <ele>1787</ele>
        <time>2023-05-19T11:41:08Z</time>
      </trkpt>
      <trkpt lat="44.6059" lon="5.94785">
        <ele>1787</ele>
        <time>2023-05-19T11:41:09Z</time>
      </trkpt>
      <trkpt lat="44.60591" lon="5.94789">
        <ele>1787</ele>
        <time>2023-05-19T11:41:10Z</time>
      </trkpt>
      <trkpt lat="44.60591" lon="5.94793">
        <ele>1787</ele>
        <time>2023-05-19T11:41:11Z</time>
      </trkpt>
      <trkpt lat="44.60593" lon="5.94796">
        <ele>1787</ele>
        <time>2023-05-19T11:41:12Z</time>
      </trkpt>
      <trkpt lat="44.60596" lon="5.94798">
        <ele>1786.8</ele>
        <time>2023-05-19T11:41:13Z</time>
      </trkpt>
      <trkpt lat="44.60602" lon="5.94801">
        <ele>1786.6</ele>
        <time>2023-05-19T11:41:15Z</time>
      </trkpt>
      <trkpt lat="44.60603" lon="5.94801">
        <ele>1786.6</ele>
        <time>2023-05-19T11:41:16Z</time>
      </trkpt>
      <trkpt lat="44.60606" lon="5.94802">
        <ele>1786.4</ele>
        <time>2023-05-19T11:41:17Z</time>
      </trkpt>
      <trkpt lat="44.60608" lon="5.94802">
        <ele>1786.2</ele>
        <time>2023-05-19T11:41:18Z</time>
      </trkpt>
      <trkpt lat="44.6061" lon="5.94802">
        <ele>1786.2</ele>
        <time>2023-05-19T11:41:19Z</time>
      </trkpt>
      <trkpt lat="44.60612" lon="5.94801">
        <ele>1786</ele>
        <time>2023-05-19T11:41:20Z</time>
      </trkpt>
      <trkpt lat="44.60614" lon="5.94801">
        <ele>1786</ele>
        <time>2023-05-19T11:41:21Z</time>
      </trkpt>
      <trkpt lat="44.60615" lon="5.94801">
        <ele>1786</ele>
        <time>2023-05-19T11:41:22Z</time>
      </trkpt>
      <trkpt lat="44.60617" lon="5.948">
        <ele>1786</ele>
        <time>2023-05-19T11:41:23Z</time>
      </trkpt>
      <trkpt lat="44.6062" lon="5.948">
        <ele>1786.2</ele>
        <time>2023-05-19T11:41:25Z</time>
      </trkpt>
      <trkpt lat="44.60621" lon="5.94802">
        <ele>1786.2</ele>
        <time>2023-05-19T11:41:26Z</time>
      </trkpt>
      <trkpt lat="44.60622" lon="5.94804">
        <ele>1786.2</ele>
        <time>2023-05-19T11:41:27Z</time>
      </trkpt>
      <trkpt lat="44.60622" lon="5.94823">
        <ele>1786.8</ele>
        <time>2023-05-19T11:41:32Z</time>
      </trkpt>
      <trkpt lat="44.60622" lon="5.94826">
        <ele>1787</ele>
        <time>2023-05-19T11:41:33Z</time>
      </trkpt>
      <trkpt lat="44.60622" lon="5.94829">
        <ele>1787</ele>
        <time>2023-05-19T11:41:34Z</time>
      </trkpt>
      <trkpt lat="44.60623" lon="5.94831">
        <ele>1787</ele>
        <time>2023-05-19T11:41:35Z</time>
      </trkpt>
      <trkpt lat="44.60625" lon="5.94833">
        <ele>1787</ele>
        <time>2023-05-19T11:41:36Z</time>
      </trkpt>
      <trkpt lat="44.60626" lon="5.94834">
        <ele>1787.2</ele>
        <time>2023-05-19T11:41:37Z</time>
      </trkpt>
      <trkpt lat="44.60631" lon="5.94835">
        <ele>1787</ele>
        <time>2023-05-19T11:41:39Z</time>
      </trkpt>
      <trkpt lat="44.60633" lon="5.94836">
        <ele>1787</ele>
        <time>2023-05-19T11:41:40Z</time>
      </trkpt>
      <trkpt lat="44.60635" lon="5.94836">
        <ele>1787.2</ele>
        <time>2023-05-19T11:41:41Z</time>
      </trkpt>
      <trkpt lat="44.60636" lon="5.94837">
        <ele>1787.2</ele>
        <time>2023-05-19T11:41:42Z</time>
      </trkpt>
      <trkpt lat="44.60638" lon="5.94838">
        <ele>1787</ele>
        <time>2023-05-19T11:41:43Z</time>
      </trkpt>
      <trkpt lat="44.6064" lon="5.94839">
        <ele>1787.2</ele>
        <time>2023-05-19T11:41:44Z</time>
      </trkpt>
      <trkpt lat="44.60642" lon="5.9484">
        <ele>1787.2</ele>
        <time>2023-05-19T11:41:45Z</time>
      </trkpt>
      <trkpt lat="44.60644" lon="5.9484">
        <ele>1787.4</ele>
        <time>2023-05-19T11:41:46Z</time>
      </trkpt>
      <trkpt lat="44.60645" lon="5.94841">
        <ele>1787.4</ele>
        <time>2023-05-19T11:41:47Z</time>
      </trkpt>
      <trkpt lat="44.60647" lon="5.94842">
        <ele>1787.4</ele>
        <time>2023-05-19T11:41:48Z</time>
      </trkpt>
      <trkpt lat="44.60648" lon="5.94843">
        <ele>1787.6</ele>
        <time>2023-05-19T11:41:49Z</time>
      </trkpt>
      <trkpt lat="44.6065" lon="5.94845">
        <ele>1788</ele>
        <time>2023-05-19T11:41:50Z</time>
      </trkpt>
      <trkpt lat="44.60651" lon="5.94847">
        <ele>1788.2</ele>
        <time>2023-05-19T11:41:51Z</time>
      </trkpt>
      <trkpt lat="44.60652" lon="5.9485">
        <ele>1788.4</ele>
        <time>2023-05-19T11:41:52Z</time>
      </trkpt>
      <trkpt lat="44.60652" lon="5.94852">
        <ele>1788.4</ele>
        <time>2023-05-19T11:41:53Z</time>
      </trkpt>
      <trkpt lat="44.60653" lon="5.94854">
        <ele>1788.6</ele>
        <time>2023-05-19T11:41:54Z</time>
      </trkpt>
      <trkpt lat="44.60653" lon="5.94854">
        <ele>1788.8</ele>
        <time>2023-05-19T11:41:55Z</time>
      </trkpt>
      <trkpt lat="44.60653" lon="5.94854">
        <ele>1789</ele>
        <time>2023-05-19T11:41:57Z</time>
      </trkpt>
      <trkpt lat="44.60656" lon="5.94857">
        <ele>1789.4</ele>
        <time>2023-05-19T11:42:03Z</time>
      </trkpt>
      <trkpt lat="44.60655" lon="5.94859">
        <ele>1789.6</ele>
        <time>2023-05-19T11:42:05Z</time>
      </trkpt>
      <trkpt lat="44.60655" lon="5.9486">
        <ele>1789.6</ele>
        <time>2023-05-19T11:42:06Z</time>
      </trkpt>
      <trkpt lat="44.60655" lon="5.94861">
        <ele>1789.6</ele>
        <time>2023-05-19T11:42:07Z</time>
      </trkpt>
      <trkpt lat="44.60655" lon="5.94864">
        <ele>1789.6</ele>
        <time>2023-05-19T11:42:10Z</time>
      </trkpt>
      <trkpt lat="44.60655" lon="5.94866">
        <ele>1789.6</ele>
        <time>2023-05-19T11:42:11Z</time>
      </trkpt>
      <trkpt lat="44.60656" lon="5.94867">
        <ele>1789.8</ele>
        <time>2023-05-19T11:42:12Z</time>
      </trkpt>
      <trkpt lat="44.60657" lon="5.94868">
        <ele>1789.8</ele>
        <time>2023-05-19T11:42:13Z</time>
      </trkpt>
      <trkpt lat="44.60657" lon="5.94869">
        <ele>1789.8</ele>
        <time>2023-05-19T11:42:14Z</time>
      </trkpt>
      <trkpt lat="44.60658" lon="5.94875">
        <ele>1789.8</ele>
        <time>2023-05-19T11:42:17Z</time>
      </trkpt>
      <trkpt lat="44.60658" lon="5.94876">
        <ele>1789.8</ele>
        <time>2023-05-19T11:42:18Z</time>
      </trkpt>
      <trkpt lat="44.60658" lon="5.94877">
        <ele>1790</ele>
        <time>2023-05-19T11:42:19Z</time>
      </trkpt>
      <trkpt lat="44.60657" lon="5.94878">
        <ele>1790</ele>
        <time>2023-05-19T11:42:20Z</time>
      </trkpt>
      <trkpt lat="44.60657" lon="5.94879">
        <ele>1790</ele>
        <time>2023-05-19T11:42:21Z</time>
      </trkpt>
      <trkpt lat="44.60657" lon="5.9488">
        <ele>1790.2</ele>
        <time>2023-05-19T11:42:22Z</time>
      </trkpt>
      <trkpt lat="44.60657" lon="5.94881">
        <ele>1790.2</ele>
        <time>2023-05-19T11:42:23Z</time>
      </trkpt>
      <trkpt lat="44.60657" lon="5.94882">
        <ele>1790.2</ele>
        <time>2023-05-19T11:42:24Z</time>
      </trkpt>
      <trkpt lat="44.60656" lon="5.94884">
        <ele>1790.2</ele>
        <time>2023-05-19T11:42:25Z</time>
      </trkpt>
      <trkpt lat="44.60655" lon="5.94885">
        <ele>1790.4</ele>
        <time>2023-05-19T11:42:26Z</time>
      </trkpt>
      <trkpt lat="44.60654" lon="5.94886">
        <ele>1790.2</ele>
        <time>2023-05-19T11:42:27Z</time>
      </trkpt>
      <trkpt lat="44.60653" lon="5.94888">
        <ele>1790.2</ele>
        <time>2023-05-19T11:42:28Z</time>
      </trkpt>
      <trkpt lat="44.6065" lon="5.94892">
        <ele>1790.4</ele>
        <time>2023-05-19T11:42:30Z</time>
      </trkpt>
      <trkpt lat="44.6065" lon="5.94894">
        <ele>1790.6</ele>
        <time>2023-05-19T11:42:31Z</time>
      </trkpt>
      <trkpt lat="44.60649" lon="5.94895">
        <ele>1790.6</ele>
        <time>2023-05-19T11:42:32Z</time>
      </trkpt>
      <trkpt lat="44.60649" lon="5.94897">
        <ele>1790.8</ele>
        <time>2023-05-19T11:42:33Z</time>
      </trkpt>
      <trkpt lat="44.60648" lon="5.94899">
        <ele>1790.8</ele>
        <time>2023-05-19T11:42:34Z</time>
      </trkpt>
      <trkpt lat="44.60648" lon="5.94902">
        <ele>1790.8</ele>
        <time>2023-05-19T11:42:35Z</time>
      </trkpt>
      <trkpt lat="44.60648" lon="5.94905">
        <ele>1790.8</ele>
        <time>2023-05-19T11:42:36Z</time>
      </trkpt>
      <trkpt lat="44.60647" lon="5.94911">
        <ele>1791</ele>
        <time>2023-05-19T11:42:38Z</time>
      </trkpt>
      <trkpt lat="44.60646" lon="5.94914">
        <ele>1791</ele>
        <time>2023-05-19T11:42:39Z</time>
      </trkpt>
      <trkpt lat="44.60644" lon="5.94916">
        <ele>1791.2</ele>
        <time>2023-05-19T11:42:40Z</time>
      </trkpt>
      <trkpt lat="44.60642" lon="5.94918">
        <ele>1791.2</ele>
        <time>2023-05-19T11:42:41Z</time>
      </trkpt>
      <trkpt lat="44.60641" lon="5.94921">
        <ele>1791.4</ele>
        <time>2023-05-19T11:42:42Z</time>
      </trkpt>
      <trkpt lat="44.60639" lon="5.94925">
        <ele>1791.6</ele>
        <time>2023-05-19T11:42:44Z</time>
      </trkpt>
      <trkpt lat="44.60636" lon="5.94931">
        <ele>1791.6</ele>
        <time>2023-05-19T11:42:47Z</time>
      </trkpt>
      <trkpt lat="44.60635" lon="5.94933">
        <ele>1791.6</ele>
        <time>2023-05-19T11:42:48Z</time>
      </trkpt>
      <trkpt lat="44.60634" lon="5.94935">
        <ele>1791.8</ele>
        <time>2023-05-19T11:42:49Z</time>
      </trkpt>
      <trkpt lat="44.60633" lon="5.94937">
        <ele>1792</ele>
        <time>2023-05-19T11:42:50Z</time>
      </trkpt>
      <trkpt lat="44.60633" lon="5.94939">
        <ele>1792.2</ele>
        <time>2023-05-19T11:42:51Z</time>
      </trkpt>
      <trkpt lat="44.60632" lon="5.94942">
        <ele>1792.4</ele>
        <time>2023-05-19T11:42:52Z</time>
      </trkpt>
      <trkpt lat="44.60632" lon="5.94944">
        <ele>1792.6</ele>
        <time>2023-05-19T11:42:53Z</time>
      </trkpt>
      <trkpt lat="44.60632" lon="5.94946">
        <ele>1792.8</ele>
        <time>2023-05-19T11:42:54Z</time>
      </trkpt>
      <trkpt lat="44.60631" lon="5.94947">
        <ele>1792.8</ele>
        <time>2023-05-19T11:42:55Z</time>
      </trkpt>
      <trkpt lat="44.60631" lon="5.94949">
        <ele>1793</ele>
        <time>2023-05-19T11:42:56Z</time>
      </trkpt>
      <trkpt lat="44.6063" lon="5.9495">
        <ele>1793.2</ele>
        <time>2023-05-19T11:42:57Z</time>
      </trkpt>
      <trkpt lat="44.6063" lon="5.94953">
        <ele>1793.4</ele>
        <time>2023-05-19T11:42:58Z</time>
      </trkpt>
      <trkpt lat="44.60631" lon="5.94956">
        <ele>1793.4</ele>
        <time>2023-05-19T11:42:59Z</time>
      </trkpt>
      <trkpt lat="44.60632" lon="5.94957">
        <ele>1793.6</ele>
        <time>2023-05-19T11:43:00Z</time>
      </trkpt>
      <trkpt lat="44.60632" lon="5.9496">
        <ele>1793.6</ele>
        <time>2023-05-19T11:43:01Z</time>
      </trkpt>
      <trkpt lat="44.60632" lon="5.94963">
        <ele>1793.8</ele>
        <time>2023-05-19T11:43:02Z</time>
      </trkpt>
      <trkpt lat="44.60632" lon="5.94965">
        <ele>1794</ele>
        <time>2023-05-19T11:43:03Z</time>
      </trkpt>
      <trkpt lat="44.60633" lon="5.94968">
        <ele>1794</ele>
        <time>2023-05-19T11:43:04Z</time>
      </trkpt>
      <trkpt lat="44.60632" lon="5.9497">
        <ele>1794.2</ele>
        <time>2023-05-19T11:43:05Z</time>
      </trkpt>
      <trkpt lat="44.60631" lon="5.94972">
        <ele>1794.2</ele>
        <time>2023-05-19T11:43:06Z</time>
      </trkpt>
      <trkpt lat="44.60631" lon="5.94974">
        <ele>1794.4</ele>
        <time>2023-05-19T11:43:07Z</time>
      </trkpt>
      <trkpt lat="44.60631" lon="5.94976">
        <ele>1794.4</ele>
        <time>2023-05-19T11:43:08Z</time>
      </trkpt>
      <trkpt lat="44.60631" lon="5.94978">
        <ele>1794.4</ele>
        <time>2023-05-19T11:43:09Z</time>
      </trkpt>
      <trkpt lat="44.6063" lon="5.94979">
        <ele>1794.4</ele>
        <time>2023-05-19T11:43:10Z</time>
      </trkpt>
      <trkpt lat="44.6063" lon="5.94981">
        <ele>1794.6</ele>
        <time>2023-05-19T11:43:11Z</time>
      </trkpt>
      <trkpt lat="44.60629" lon="5.94984">
        <ele>1795</ele>
        <time>2023-05-19T11:43:12Z</time>
      </trkpt>
      <trkpt lat="44.60628" lon="5.94986">
        <ele>1795</ele>
        <time>2023-05-19T11:43:13Z</time>
      </trkpt>
      <trkpt lat="44.60627" lon="5.94988">
        <ele>1795.2</ele>
        <time>2023-05-19T11:43:14Z</time>
      </trkpt>
      <trkpt lat="44.60625" lon="5.94992">
        <ele>1795.4</ele>
        <time>2023-05-19T11:43:15Z</time>
      </trkpt>
      <trkpt lat="44.60623" lon="5.94995">
        <ele>1795.8</ele>
        <time>2023-05-19T11:43:16Z</time>
      </trkpt>
      <trkpt lat="44.60622" lon="5.94997">
        <ele>1796</ele>
        <time>2023-05-19T11:43:17Z</time>
      </trkpt>
      <trkpt lat="44.6062" lon="5.94999">
        <ele>1796.2</ele>
        <time>2023-05-19T11:43:18Z</time>
      </trkpt>
      <trkpt lat="44.60619" lon="5.95">
        <ele>1796.2</ele>
        <time>2023-05-19T11:43:19Z</time>
      </trkpt>
      <trkpt lat="44.60618" lon="5.95002">
        <ele>1796.4</ele>
        <time>2023-05-19T11:43:20Z</time>
      </trkpt>
      <trkpt lat="44.60617" lon="5.95003">
        <ele>1796.4</ele>
        <time>2023-05-19T11:43:21Z</time>
      </trkpt>
      <trkpt lat="44.60615" lon="5.95005">
        <ele>1796.6</ele>
        <time>2023-05-19T11:43:22Z</time>
      </trkpt>
      <trkpt lat="44.60614" lon="5.95007">
        <ele>1796.6</ele>
        <time>2023-05-19T11:43:23Z</time>
      </trkpt>
      <trkpt lat="44.60612" lon="5.95009">
        <ele>1796.6</ele>
        <time>2023-05-19T11:43:24Z</time>
      </trkpt>
      <trkpt lat="44.60611" lon="5.9501">
        <ele>1796.8</ele>
        <time>2023-05-19T11:43:25Z</time>
      </trkpt>
      <trkpt lat="44.6061" lon="5.95011">
        <ele>1796.8</ele>
        <time>2023-05-19T11:43:26Z</time>
      </trkpt>
      <trkpt lat="44.60608" lon="5.95012">
        <ele>1796.8</ele>
        <time>2023-05-19T11:43:27Z</time>
      </trkpt>
      <trkpt lat="44.60607" lon="5.95013">
        <ele>1797</ele>
        <time>2023-05-19T11:43:28Z</time>
      </trkpt>
      <trkpt lat="44.60607" lon="5.95015">
        <ele>1797</ele>
        <time>2023-05-19T11:43:29Z</time>
      </trkpt>
      <trkpt lat="44.60606" lon="5.95016">
        <ele>1797.2</ele>
        <time>2023-05-19T11:43:30Z</time>
      </trkpt>
      <trkpt lat="44.60606" lon="5.95017">
        <ele>1797.2</ele>
        <time>2023-05-19T11:43:31Z</time>
      </trkpt>
      <trkpt lat="44.60606" lon="5.95019">
        <ele>1797.4</ele>
        <time>2023-05-19T11:43:32Z</time>
      </trkpt>
      <trkpt lat="44.60605" lon="5.95021">
        <ele>1797.4</ele>
        <time>2023-05-19T11:43:33Z</time>
      </trkpt>
      <trkpt lat="44.60604" lon="5.95022">
        <ele>1797.6</ele>
        <time>2023-05-19T11:43:34Z</time>
      </trkpt>
      <trkpt lat="44.60603" lon="5.95024">
        <ele>1797.6</ele>
        <time>2023-05-19T11:43:35Z</time>
      </trkpt>
      <trkpt lat="44.60603" lon="5.95025">
        <ele>1797.8</ele>
        <time>2023-05-19T11:43:36Z</time>
      </trkpt>
      <trkpt lat="44.60603" lon="5.95026">
        <ele>1798</ele>
        <time>2023-05-19T11:43:37Z</time>
      </trkpt>
      <trkpt lat="44.60602" lon="5.95027">
        <ele>1798</ele>
        <time>2023-05-19T11:43:38Z</time>
      </trkpt>
      <trkpt lat="44.60602" lon="5.95029">
        <ele>1798</ele>
        <time>2023-05-19T11:43:39Z</time>
      </trkpt>
      <trkpt lat="44.60602" lon="5.9503">
        <ele>1798</ele>
        <time>2023-05-19T11:43:40Z</time>
      </trkpt>
      <trkpt lat="44.60601" lon="5.95032">
        <ele>1798.4</ele>
        <time>2023-05-19T11:43:41Z</time>
      </trkpt>
      <trkpt lat="44.606" lon="5.95033">
        <ele>1798.4</ele>
        <time>2023-05-19T11:43:42Z</time>
      </trkpt>
      <trkpt lat="44.606" lon="5.95034">
        <ele>1798.6</ele>
        <time>2023-05-19T11:43:43Z</time>
      </trkpt>
      <trkpt lat="44.60599" lon="5.95035">
        <ele>1798.8</ele>
        <time>2023-05-19T11:43:44Z</time>
      </trkpt>
      <trkpt lat="44.60599" lon="5.95035">
        <ele>1799</ele>
        <time>2023-05-19T11:43:45Z</time>
      </trkpt>
      <trkpt lat="44.60599" lon="5.95037">
        <ele>1799.2</ele>
        <time>2023-05-19T11:43:46Z</time>
      </trkpt>
      <trkpt lat="44.60599" lon="5.95038">
        <ele>1799.2</ele>
        <time>2023-05-19T11:43:47Z</time>
      </trkpt>
      <trkpt lat="44.60598" lon="5.95039">
        <ele>1799.4</ele>
        <time>2023-05-19T11:43:48Z</time>
      </trkpt>
      <trkpt lat="44.60598" lon="5.95041">
        <ele>1799.4</ele>
        <time>2023-05-19T11:43:49Z</time>
      </trkpt>
      <trkpt lat="44.60597" lon="5.95043">
        <ele>1799.6</ele>
        <time>2023-05-19T11:43:50Z</time>
      </trkpt>
      <trkpt lat="44.60597" lon="5.95044">
        <ele>1799.6</ele>
        <time>2023-05-19T11:43:51Z</time>
      </trkpt>
      <trkpt lat="44.60597" lon="5.95046">
        <ele>1799.8</ele>
        <time>2023-05-19T11:43:52Z</time>
      </trkpt>
      <trkpt lat="44.60598" lon="5.95048">
        <ele>1799.8</ele>
        <time>2023-05-19T11:43:53Z</time>
      </trkpt>
      <trkpt lat="44.60598" lon="5.9505">
        <ele>1800</ele>
        <time>2023-05-19T11:43:54Z</time>
      </trkpt>
      <trkpt lat="44.60598" lon="5.95051">
        <ele>1800</ele>
        <time>2023-05-19T11:43:55Z</time>
      </trkpt>
      <trkpt lat="44.60598" lon="5.95053">
        <ele>1800</ele>
        <time>2023-05-19T11:43:56Z</time>
      </trkpt>
      <trkpt lat="44.60599" lon="5.95054">
        <ele>1800.2</ele>
        <time>2023-05-19T11:43:57Z</time>
      </trkpt>
      <trkpt lat="44.60599" lon="5.95056">
        <ele>1800.2</ele>
        <time>2023-05-19T11:43:58Z</time>
      </trkpt>
      <trkpt lat="44.60599" lon="5.95058">
        <ele>1800.4</ele>
        <time>2023-05-19T11:43:59Z</time>
      </trkpt>
      <trkpt lat="44.606" lon="5.95059">
        <ele>1800.4</ele>
        <time>2023-05-19T11:44:00Z</time>
      </trkpt>
      <trkpt lat="44.606" lon="5.9506">
        <ele>1800.4</ele>
        <time>2023-05-19T11:44:01Z</time>
      </trkpt>
      <trkpt lat="44.60601" lon="5.9506">
        <ele>1800.6</ele>
        <time>2023-05-19T11:44:02Z</time>
      </trkpt>
      <trkpt lat="44.60601" lon="5.95061">
        <ele>1800.8</ele>
        <time>2023-05-19T11:44:03Z</time>
      </trkpt>
      <trkpt lat="44.60601" lon="5.95061">
        <ele>1801</ele>
        <time>2023-05-19T11:44:04Z</time>
      </trkpt>
      <trkpt lat="44.60601" lon="5.9506">
        <ele>1801.2</ele>
        <time>2023-05-19T11:44:12Z</time>
      </trkpt>
      <trkpt lat="44.60602" lon="5.95064">
        <ele>1801.8</ele>
        <time>2023-05-19T11:48:32Z</time>
      </trkpt>
      <trkpt lat="44.60602" lon="5.95064">
        <ele>1801.8</ele>
        <time>2023-05-19T11:48:46Z</time>
      </trkpt>
      <trkpt lat="44.60602" lon="5.95069">
        <ele>1802.4</ele>
        <time>2023-05-19T11:49:30Z</time>
      </trkpt>
      <trkpt lat="44.60607" lon="5.95071">
        <ele>1802.6</ele>
        <time>2023-05-19T11:49:34Z</time>
      </trkpt>
      <trkpt lat="44.60609" lon="5.95071">
        <ele>1802.6</ele>
        <time>2023-05-19T11:49:35Z</time>
      </trkpt>
      <trkpt lat="44.6061" lon="5.95072">
        <ele>1802.6</ele>
        <time>2023-05-19T11:49:36Z</time>
      </trkpt>
      <trkpt lat="44.60612" lon="5.95072">
        <ele>1802.8</ele>
        <time>2023-05-19T11:49:37Z</time>
      </trkpt>
      <trkpt lat="44.60622" lon="5.95082">
        <ele>1803.2</ele>
        <time>2023-05-19T11:49:45Z</time>
      </trkpt>
      <trkpt lat="44.60624" lon="5.95086">
        <ele>1803.2</ele>
        <time>2023-05-19T11:49:47Z</time>
      </trkpt>
      <trkpt lat="44.60627" lon="5.95091">
        <ele>1803.2</ele>
        <time>2023-05-19T11:49:50Z</time>
      </trkpt>
      <trkpt lat="44.60628" lon="5.95093">
        <ele>1803.2</ele>
        <time>2023-05-19T11:49:51Z</time>
      </trkpt>
      <trkpt lat="44.60631" lon="5.95096">
        <ele>1803.2</ele>
        <time>2023-05-19T11:49:53Z</time>
      </trkpt>
      <trkpt lat="44.60639" lon="5.95101">
        <ele>1803</ele>
        <time>2023-05-19T11:49:57Z</time>
      </trkpt>
      <trkpt lat="44.60646" lon="5.95103">
        <ele>1802.4</ele>
        <time>2023-05-19T11:49:59Z</time>
      </trkpt>
      <trkpt lat="44.60663" lon="5.95109">
        <ele>1801.4</ele>
        <time>2023-05-19T11:50:04Z</time>
      </trkpt>
      <trkpt lat="44.60667" lon="5.9511">
        <ele>1801.2</ele>
        <time>2023-05-19T11:50:05Z</time>
      </trkpt>
      <trkpt lat="44.60679" lon="5.95114">
        <ele>1800.4</ele>
        <time>2023-05-19T11:50:09Z</time>
      </trkpt>
      <trkpt lat="44.60683" lon="5.95116">
        <ele>1800</ele>
        <time>2023-05-19T11:50:10Z</time>
      </trkpt>
      <trkpt lat="44.6069" lon="5.95118">
        <ele>1799.2</ele>
        <time>2023-05-19T11:50:12Z</time>
      </trkpt>
      <trkpt lat="44.60696" lon="5.95121">
        <ele>1798.4</ele>
        <time>2023-05-19T11:50:14Z</time>
      </trkpt>
      <trkpt lat="44.60699" lon="5.95124">
        <ele>1797.6</ele>
        <time>2023-05-19T11:50:15Z</time>
      </trkpt>
      <trkpt lat="44.60701" lon="5.95127">
        <ele>1797.4</ele>
        <time>2023-05-19T11:50:16Z</time>
      </trkpt>
      <trkpt lat="44.60705" lon="5.95131">
        <ele>1797</ele>
        <time>2023-05-19T11:50:17Z</time>
      </trkpt>
      <trkpt lat="44.60708" lon="5.95134">
        <ele>1796.8</ele>
        <time>2023-05-19T11:50:18Z</time>
      </trkpt>
      <trkpt lat="44.60712" lon="5.95137">
        <ele>1796</ele>
        <time>2023-05-19T11:50:19Z</time>
      </trkpt>
      <trkpt lat="44.60718" lon="5.9514">
        <ele>1795.4</ele>
        <time>2023-05-19T11:50:20Z</time>
      </trkpt>
      <trkpt lat="44.60723" lon="5.95143">
        <ele>1794.8</ele>
        <time>2023-05-19T11:50:21Z</time>
      </trkpt>
      <trkpt lat="44.60728" lon="5.95144">
        <ele>1794</ele>
        <time>2023-05-19T11:50:22Z</time>
      </trkpt>
      <trkpt lat="44.60733" lon="5.95145">
        <ele>1793.6</ele>
        <time>2023-05-19T11:50:23Z</time>
      </trkpt>
      <trkpt lat="44.60737" lon="5.95147">
        <ele>1792.6</ele>
        <time>2023-05-19T11:50:24Z</time>
      </trkpt>
      <trkpt lat="44.60741" lon="5.95148">
        <ele>1792.2</ele>
        <time>2023-05-19T11:50:25Z</time>
      </trkpt>
      <trkpt lat="44.60745" lon="5.9515">
        <ele>1791.2</ele>
        <time>2023-05-19T11:50:26Z</time>
      </trkpt>
      <trkpt lat="44.60748" lon="5.95151">
        <ele>1790.6</ele>
        <time>2023-05-19T11:50:27Z</time>
      </trkpt>
      <trkpt lat="44.60753" lon="5.95152">
        <ele>1790</ele>
        <time>2023-05-19T11:50:28Z</time>
      </trkpt>
      <trkpt lat="44.60757" lon="5.95153">
        <ele>1789.6</ele>
        <time>2023-05-19T11:50:29Z</time>
      </trkpt>
      <trkpt lat="44.60763" lon="5.95154">
        <ele>1789.4</ele>
        <time>2023-05-19T11:50:30Z</time>
      </trkpt>
      <trkpt lat="44.60769" lon="5.95154">
        <ele>1788.8</ele>
        <time>2023-05-19T11:50:31Z</time>
      </trkpt>
      <trkpt lat="44.6078" lon="5.95155">
        <ele>1788.2</ele>
        <time>2023-05-19T11:50:33Z</time>
      </trkpt>
      <trkpt lat="44.60791" lon="5.95156">
        <ele>1787</ele>
        <time>2023-05-19T11:50:35Z</time>
      </trkpt>
      <trkpt lat="44.60797" lon="5.95156">
        <ele>1785.6</ele>
        <time>2023-05-19T11:50:36Z</time>
      </trkpt>
      <trkpt lat="44.60801" lon="5.95157">
        <ele>1785</ele>
        <time>2023-05-19T11:50:37Z</time>
      </trkpt>
      <trkpt lat="44.60807" lon="5.95157">
        <ele>1784.4</ele>
        <time>2023-05-19T11:50:38Z</time>
      </trkpt>
      <trkpt lat="44.60818" lon="5.95161">
        <ele>1782.8</ele>
        <time>2023-05-19T11:50:40Z</time>
      </trkpt>
      <trkpt lat="44.60824" lon="5.95163">
        <ele>1782.2</ele>
        <time>2023-05-19T11:50:41Z</time>
      </trkpt>
      <trkpt lat="44.60829" lon="5.95165">
        <ele>1781.4</ele>
        <time>2023-05-19T11:50:42Z</time>
      </trkpt>
      <trkpt lat="44.6084" lon="5.95169">
        <ele>1779.8</ele>
        <time>2023-05-19T11:50:44Z</time>
      </trkpt>
      <trkpt lat="44.60844" lon="5.95171">
        <ele>1778.8</ele>
        <time>2023-05-19T11:50:45Z</time>
      </trkpt>
      <trkpt lat="44.60847" lon="5.95176">
        <ele>1778.4</ele>
        <time>2023-05-19T11:50:46Z</time>
      </trkpt>
      <trkpt lat="44.60852" lon="5.95181">
        <ele>1777.6</ele>
        <time>2023-05-19T11:50:47Z</time>
      </trkpt>
      <trkpt lat="44.60857" lon="5.95187">
        <ele>1777</ele>
        <time>2023-05-19T11:50:48Z</time>
      </trkpt>
      <trkpt lat="44.60863" lon="5.9519">
        <ele>1776.2</ele>
        <time>2023-05-19T11:50:49Z</time>
      </trkpt>
      <trkpt lat="44.60866" lon="5.95193">
        <ele>1775.4</ele>
        <time>2023-05-19T11:50:50Z</time>
      </trkpt>
      <trkpt lat="44.6087" lon="5.95196">
        <ele>1774.4</ele>
        <time>2023-05-19T11:50:51Z</time>
      </trkpt>
      <trkpt lat="44.60875" lon="5.95198">
        <ele>1772.4</ele>
        <time>2023-05-19T11:50:52Z</time>
      </trkpt>
      <trkpt lat="44.6088" lon="5.95202">
        <ele>1772</ele>
        <time>2023-05-19T11:50:53Z</time>
      </trkpt>
      <trkpt lat="44.60885" lon="5.95206">
        <ele>1770.8</ele>
        <time>2023-05-19T11:50:54Z</time>
      </trkpt>
      <trkpt lat="44.60891" lon="5.95215">
        <ele>1769.6</ele>
        <time>2023-05-19T11:50:56Z</time>
      </trkpt>
      <trkpt lat="44.60894" lon="5.9522">
        <ele>1769.2</ele>
        <time>2023-05-19T11:50:57Z</time>
      </trkpt>
      <trkpt lat="44.60897" lon="5.95223">
        <ele>1768</ele>
        <time>2023-05-19T11:50:58Z</time>
      </trkpt>
      <trkpt lat="44.60901" lon="5.95227">
        <ele>1767.4</ele>
        <time>2023-05-19T11:50:59Z</time>
      </trkpt>
      <trkpt lat="44.60904" lon="5.9523">
        <ele>1766.8</ele>
        <time>2023-05-19T11:51:00Z</time>
      </trkpt>
      <trkpt lat="44.60908" lon="5.95235">
        <ele>1766</ele>
        <time>2023-05-19T11:51:01Z</time>
      </trkpt>
      <trkpt lat="44.60912" lon="5.95238">
        <ele>1765.6</ele>
        <time>2023-05-19T11:51:02Z</time>
      </trkpt>
      <trkpt lat="44.6092" lon="5.95244">
        <ele>1764.4</ele>
        <time>2023-05-19T11:51:04Z</time>
      </trkpt>
      <trkpt lat="44.60934" lon="5.95252">
        <ele>1762.8</ele>
        <time>2023-05-19T11:51:07Z</time>
      </trkpt>
      <trkpt lat="44.60938" lon="5.95254">
        <ele>1762.6</ele>
        <time>2023-05-19T11:51:08Z</time>
      </trkpt>
      <trkpt lat="44.60941" lon="5.95257">
        <ele>1761.8</ele>
        <time>2023-05-19T11:51:09Z</time>
      </trkpt>
      <trkpt lat="44.60944" lon="5.95259">
        <ele>1760.6</ele>
        <time>2023-05-19T11:51:10Z</time>
      </trkpt>
      <trkpt lat="44.60946" lon="5.95261">
        <ele>1760.2</ele>
        <time>2023-05-19T11:51:11Z</time>
      </trkpt>
      <trkpt lat="44.60949" lon="5.95262">
        <ele>1759.4</ele>
        <time>2023-05-19T11:51:12Z</time>
      </trkpt>
      <trkpt lat="44.6095" lon="5.95262">
        <ele>1759</ele>
        <time>2023-05-19T11:51:13Z</time>
      </trkpt>
      <trkpt lat="44.60951" lon="5.95263">
        <ele>1758</ele>
        <time>2023-05-19T11:51:14Z</time>
      </trkpt>
      <trkpt lat="44.60953" lon="5.95262">
        <ele>1757.4</ele>
        <time>2023-05-19T11:51:15Z</time>
      </trkpt>
      <trkpt lat="44.60955" lon="5.9526">
        <ele>1756.6</ele>
        <time>2023-05-19T11:51:16Z</time>
      </trkpt>
      <trkpt lat="44.60954" lon="5.95254">
        <ele>1755.6</ele>
        <time>2023-05-19T11:51:18Z</time>
      </trkpt>
      <trkpt lat="44.6095" lon="5.95244">
        <ele>1754</ele>
        <time>2023-05-19T11:51:21Z</time>
      </trkpt>
      <trkpt lat="44.60945" lon="5.95235">
        <ele>1752.8</ele>
        <time>2023-05-19T11:51:24Z</time>
      </trkpt>
      <trkpt lat="44.60944" lon="5.95232">
        <ele>1752.2</ele>
        <time>2023-05-19T11:51:25Z</time>
      </trkpt>
      <trkpt lat="44.60943" lon="5.95232">
        <ele>1751.8</ele>
        <time>2023-05-19T11:51:26Z</time>
      </trkpt>
      <trkpt lat="44.60943" lon="5.95232">
        <ele>1751.6</ele>
        <time>2023-05-19T11:51:27Z</time>
      </trkpt>
      <trkpt lat="44.60943" lon="5.95232">
        <ele>1750.4</ele>
        <time>2023-05-19T11:51:30Z</time>
      </trkpt>
      <trkpt lat="44.60943" lon="5.95232">
        <ele>1749.4</ele>
        <time>2023-05-19T11:51:34Z</time>
      </trkpt>
      <trkpt lat="44.60943" lon="5.95232">
        <ele>1749</ele>
        <time>2023-05-19T11:51:36Z</time>
      </trkpt>
      <trkpt lat="44.60943" lon="5.95232">
        <ele>1748.8</ele>
        <time>2023-05-19T11:51:44Z</time>
      </trkpt>
      <trkpt lat="44.60945" lon="5.95234">
        <ele>1749.2</ele>
        <time>2023-05-19T11:51:57Z</time>
      </trkpt>
      <trkpt lat="44.60945" lon="5.95235">
        <ele>1749.2</ele>
        <time>2023-05-19T11:51:58Z</time>
      </trkpt>
      <trkpt lat="44.60947" lon="5.9524">
        <ele>1749.2</ele>
        <time>2023-05-19T11:52:02Z</time>
      </trkpt>
      <trkpt lat="44.60948" lon="5.95241">
        <ele>1749.2</ele>
        <time>2023-05-19T11:52:03Z</time>
      </trkpt>
      <trkpt lat="44.60948" lon="5.95242">
        <ele>1749.2</ele>
        <time>2023-05-19T11:52:04Z</time>
      </trkpt>
      <trkpt lat="44.60949" lon="5.95244">
        <ele>1749.2</ele>
        <time>2023-05-19T11:52:05Z</time>
      </trkpt>
      <trkpt lat="44.60949" lon="5.95244">
        <ele>1749.4</ele>
        <time>2023-05-19T11:52:06Z</time>
      </trkpt>
      <trkpt lat="44.60949" lon="5.95244">
        <ele>1749.4</ele>
        <time>2023-05-19T11:52:07Z</time>
      </trkpt>
      <trkpt lat="44.60949" lon="5.95244">
        <ele>1749.4</ele>
        <time>2023-05-19T11:52:08Z</time>
      </trkpt>
      <trkpt lat="44.60949" lon="5.95245">
        <ele>1749.6</ele>
        <time>2023-05-19T11:52:12Z</time>
      </trkpt>
      <trkpt lat="44.6095" lon="5.95248">
        <ele>1750</ele>
        <time>2023-05-19T11:52:18Z</time>
      </trkpt>
      <trkpt lat="44.60951" lon="5.95249">
        <ele>1750.2</ele>
        <time>2023-05-19T11:52:19Z</time>
      </trkpt>
      <trkpt lat="44.60951" lon="5.9525">
        <ele>1750.2</ele>
        <time>2023-05-19T11:52:20Z</time>
      </trkpt>
      <trkpt lat="44.60951" lon="5.95252">
        <ele>1750.4</ele>
        <time>2023-05-19T11:52:21Z</time>
      </trkpt>
      <trkpt lat="44.60951" lon="5.95253">
        <ele>1750.4</ele>
        <time>2023-05-19T11:52:22Z</time>
      </trkpt>
      <trkpt lat="44.60951" lon="5.95254">
        <ele>1750.6</ele>
        <time>2023-05-19T11:52:23Z</time>
      </trkpt>
      <trkpt lat="44.60951" lon="5.95255">
        <ele>1750.8</ele>
        <time>2023-05-19T11:52:24Z</time>
      </trkpt>
      <trkpt lat="44.6095" lon="5.95256">
        <ele>1750.8</ele>
        <time>2023-05-19T11:52:25Z</time>
      </trkpt>
      <trkpt lat="44.6095" lon="5.95257">
        <ele>1751</ele>
        <time>2023-05-19T11:52:27Z</time>
      </trkpt>
      <trkpt lat="44.6095" lon="5.9526">
        <ele>1751</ele>
        <time>2023-05-19T11:52:28Z</time>
      </trkpt>
      <trkpt lat="44.6095" lon="5.9526">
        <ele>1751.2</ele>
        <time>2023-05-19T11:52:29Z</time>
      </trkpt>
      <trkpt lat="44.6095" lon="5.9526">
        <ele>1751.2</ele>
        <time>2023-05-19T11:52:30Z</time>
      </trkpt>
      <trkpt lat="44.6095" lon="5.9526">
        <ele>1751.4</ele>
        <time>2023-05-19T11:52:31Z</time>
      </trkpt>
      <trkpt lat="44.6095" lon="5.9526">
        <ele>1751.8</ele>
        <time>2023-05-19T11:52:33Z</time>
      </trkpt>
      <trkpt lat="44.60951" lon="5.95261">
        <ele>1752.2</ele>
        <time>2023-05-19T11:52:37Z</time>
      </trkpt>
      <trkpt lat="44.60951" lon="5.95261">
        <ele>1752.6</ele>
        <time>2023-05-19T11:52:59Z</time>
      </trkpt>
      <trkpt lat="44.60951" lon="5.95261">
        <ele>1752.2</ele>
        <time>2023-05-19T11:53:17Z</time>
      </trkpt>
      <trkpt lat="44.60951" lon="5.95261">
        <ele>1752.6</ele>
        <time>2023-05-19T11:53:28Z</time>
      </trkpt>
      <trkpt lat="44.60951" lon="5.95261">
        <ele>1752.4</ele>
        <time>2023-05-19T11:53:46Z</time>
      </trkpt>
      <trkpt lat="44.60949" lon="5.95263">
        <ele>1752.2</ele>
        <time>2023-05-19T11:53:49Z</time>
      </trkpt>
      <trkpt lat="44.60948" lon="5.95264">
        <ele>1752.2</ele>
        <time>2023-05-19T11:53:50Z</time>
      </trkpt>
      <trkpt lat="44.60946" lon="5.95265">
        <ele>1752.2</ele>
        <time>2023-05-19T11:53:51Z</time>
      </trkpt>
      <trkpt lat="44.60944" lon="5.95265">
        <ele>1752.2</ele>
        <time>2023-05-19T11:53:52Z</time>
      </trkpt>
      <trkpt lat="44.60942" lon="5.95266">
        <ele>1752.2</ele>
        <time>2023-05-19T11:53:53Z</time>
      </trkpt>
      <trkpt lat="44.60937" lon="5.95267">
        <ele>1752</ele>
        <time>2023-05-19T11:53:55Z</time>
      </trkpt>
      <trkpt lat="44.60928" lon="5.95269">
        <ele>1751.4</ele>
        <time>2023-05-19T11:53:58Z</time>
      </trkpt>
      <trkpt lat="44.60927" lon="5.95269">
        <ele>1751.2</ele>
        <time>2023-05-19T11:53:59Z</time>
      </trkpt>
      <trkpt lat="44.60923" lon="5.9527">
        <ele>1751</ele>
        <time>2023-05-19T11:54:00Z</time>
      </trkpt>
      <trkpt lat="44.60921" lon="5.95272">
        <ele>1751</ele>
        <time>2023-05-19T11:54:01Z</time>
      </trkpt>
      <trkpt lat="44.60917" lon="5.95273">
        <ele>1750.8</ele>
        <time>2023-05-19T11:54:02Z</time>
      </trkpt>
      <trkpt lat="44.60913" lon="5.95274">
        <ele>1750.2</ele>
        <time>2023-05-19T11:54:03Z</time>
      </trkpt>
      <trkpt lat="44.60898" lon="5.95277">
        <ele>1749.2</ele>
        <time>2023-05-19T11:54:07Z</time>
      </trkpt>
      <trkpt lat="44.60894" lon="5.95277">
        <ele>1748.8</ele>
        <time>2023-05-19T11:54:08Z</time>
      </trkpt>
      <trkpt lat="44.60892" lon="5.95277">
        <ele>1748.2</ele>
        <time>2023-05-19T11:54:09Z</time>
      </trkpt>
      <trkpt lat="44.60889" lon="5.95276">
        <ele>1747.6</ele>
        <time>2023-05-19T11:54:10Z</time>
      </trkpt>
      <trkpt lat="44.60887" lon="5.95276">
        <ele>1747.4</ele>
        <time>2023-05-19T11:54:11Z</time>
      </trkpt>
      <trkpt lat="44.60885" lon="5.95277">
        <ele>1746.6</ele>
        <time>2023-05-19T11:54:12Z</time>
      </trkpt>
      <trkpt lat="44.60884" lon="5.95277">
        <ele>1746</ele>
        <time>2023-05-19T11:54:13Z</time>
      </trkpt>
      <trkpt lat="44.60883" lon="5.95277">
        <ele>1745.2</ele>
        <time>2023-05-19T11:54:14Z</time>
      </trkpt>
      <trkpt lat="44.60883" lon="5.95277">
        <ele>1744.8</ele>
        <time>2023-05-19T11:54:15Z</time>
      </trkpt>
      <trkpt lat="44.60883" lon="5.95277">
        <ele>1744.2</ele>
        <time>2023-05-19T11:54:16Z</time>
      </trkpt>
      <trkpt lat="44.60883" lon="5.95277">
        <ele>1744</ele>
        <time>2023-05-19T11:54:17Z</time>
      </trkpt>
      <trkpt lat="44.60881" lon="5.95277">
        <ele>1742.6</ele>
        <time>2023-05-19T11:54:19Z</time>
      </trkpt>
      <trkpt lat="44.60876" lon="5.95276">
        <ele>1742.2</ele>
        <time>2023-05-19T11:54:21Z</time>
      </trkpt>
      <trkpt lat="44.60864" lon="5.95273">
        <ele>1741.2</ele>
        <time>2023-05-19T11:54:25Z</time>
      </trkpt>
      <trkpt lat="44.60862" lon="5.95272">
        <ele>1741</ele>
        <time>2023-05-19T11:54:26Z</time>
      </trkpt>
      <trkpt lat="44.6086" lon="5.95272">
        <ele>1740.8</ele>
        <time>2023-05-19T11:54:27Z</time>
      </trkpt>
      <trkpt lat="44.60854" lon="5.95272">
        <ele>1740</ele>
        <time>2023-05-19T11:54:29Z</time>
      </trkpt>
      <trkpt lat="44.60851" lon="5.95273">
        <ele>1739.4</ele>
        <time>2023-05-19T11:54:30Z</time>
      </trkpt>
      <trkpt lat="44.60846" lon="5.95276">
        <ele>1738.2</ele>
        <time>2023-05-19T11:54:32Z</time>
      </trkpt>
      <trkpt lat="44.60841" lon="5.95277">
        <ele>1737.8</ele>
        <time>2023-05-19T11:54:33Z</time>
      </trkpt>
      <trkpt lat="44.60838" lon="5.95277">
        <ele>1737</ele>
        <time>2023-05-19T11:54:34Z</time>
      </trkpt>
      <trkpt lat="44.60836" lon="5.95279">
        <ele>1736.4</ele>
        <time>2023-05-19T11:54:35Z</time>
      </trkpt>
      <trkpt lat="44.60834" lon="5.95281">
        <ele>1736.2</ele>
        <time>2023-05-19T11:54:36Z</time>
      </trkpt>
      <trkpt lat="44.60833" lon="5.95284">
        <ele>1736</ele>
        <time>2023-05-19T11:54:37Z</time>
      </trkpt>
      <trkpt lat="44.60831" lon="5.95285">
        <ele>1735.6</ele>
        <time>2023-05-19T11:54:38Z</time>
      </trkpt>
      <trkpt lat="44.60829" lon="5.95288">
        <ele>1735</ele>
        <time>2023-05-19T11:54:39Z</time>
      </trkpt>
      <trkpt lat="44.60827" lon="5.95291">
        <ele>1734.6</ele>
        <time>2023-05-19T11:54:40Z</time>
      </trkpt>
      <trkpt lat="44.60824" lon="5.95294">
        <ele>1734.4</ele>
        <time>2023-05-19T11:54:41Z</time>
      </trkpt>
      <trkpt lat="44.60822" lon="5.95295">
        <ele>1734</ele>
        <time>2023-05-19T11:54:42Z</time>
      </trkpt>
      <trkpt lat="44.60821" lon="5.95297">
        <ele>1733.6</ele>
        <time>2023-05-19T11:54:43Z</time>
      </trkpt>
      <trkpt lat="44.6082" lon="5.95298">
        <ele>1733.2</ele>
        <time>2023-05-19T11:54:44Z</time>
      </trkpt>
      <trkpt lat="44.6082" lon="5.95299">
        <ele>1733</ele>
        <time>2023-05-19T11:54:45Z</time>
      </trkpt>
      <trkpt lat="44.6082" lon="5.95299">
        <ele>1732.2</ele>
        <time>2023-05-19T11:54:46Z</time>
      </trkpt>
      <trkpt lat="44.60819" lon="5.953">
        <ele>1731.4</ele>
        <time>2023-05-19T11:54:49Z</time>
      </trkpt>
      <trkpt lat="44.60818" lon="5.953">
        <ele>1731</ele>
        <time>2023-05-19T11:54:50Z</time>
      </trkpt>
      <trkpt lat="44.60818" lon="5.953">
        <ele>1730.6</ele>
        <time>2023-05-19T11:54:51Z</time>
      </trkpt>
      <trkpt lat="44.60816" lon="5.95302">
        <ele>1730</ele>
        <time>2023-05-19T11:54:54Z</time>
      </trkpt>
      <trkpt lat="44.60816" lon="5.95303">
        <ele>1729.6</ele>
        <time>2023-05-19T11:54:55Z</time>
      </trkpt>
      <trkpt lat="44.60816" lon="5.95303">
        <ele>1729.4</ele>
        <time>2023-05-19T11:54:56Z</time>
      </trkpt>
      <trkpt lat="44.60814" lon="5.95304">
        <ele>1728.4</ele>
        <time>2023-05-19T11:54:59Z</time>
      </trkpt>
      <trkpt lat="44.60814" lon="5.95305">
        <ele>1728</ele>
        <time>2023-05-19T11:55:01Z</time>
      </trkpt>
      <trkpt lat="44.60813" lon="5.95307">
        <ele>1727.4</ele>
        <time>2023-05-19T11:55:06Z</time>
      </trkpt>
      <trkpt lat="44.60813" lon="5.95309">
        <ele>1727.4</ele>
        <time>2023-05-19T11:55:07Z</time>
      </trkpt>
      <trkpt lat="44.60812" lon="5.9531">
        <ele>1727.4</ele>
        <time>2023-05-19T11:55:08Z</time>
      </trkpt>
      <trkpt lat="44.60811" lon="5.95312">
        <ele>1727.4</ele>
        <time>2023-05-19T11:55:09Z</time>
      </trkpt>
      <trkpt lat="44.60809" lon="5.95315">
        <ele>1727.4</ele>
        <time>2023-05-19T11:55:10Z</time>
      </trkpt>
      <trkpt lat="44.60807" lon="5.95321">
        <ele>1727.2</ele>
        <time>2023-05-19T11:55:12Z</time>
      </trkpt>
      <trkpt lat="44.60806" lon="5.95324">
        <ele>1727</ele>
        <time>2023-05-19T11:55:13Z</time>
      </trkpt>
      <trkpt lat="44.60803" lon="5.95334">
        <ele>1726.6</ele>
        <time>2023-05-19T11:55:16Z</time>
      </trkpt>
      <trkpt lat="44.60803" lon="5.95337">
        <ele>1726.6</ele>
        <time>2023-05-19T11:55:17Z</time>
      </trkpt>
      <trkpt lat="44.60803" lon="5.95339">
        <ele>1726.2</ele>
        <time>2023-05-19T11:55:18Z</time>
      </trkpt>
      <trkpt lat="44.60802" lon="5.9534">
        <ele>1726</ele>
        <time>2023-05-19T11:55:19Z</time>
      </trkpt>
      <trkpt lat="44.60802" lon="5.95345">
        <ele>1725</ele>
        <time>2023-05-19T11:55:21Z</time>
      </trkpt>
      <trkpt lat="44.60802" lon="5.95348">
        <ele>1724.6</ele>
        <time>2023-05-19T11:55:22Z</time>
      </trkpt>
      <trkpt lat="44.60802" lon="5.95355">
        <ele>1723.8</ele>
        <time>2023-05-19T11:55:24Z</time>
      </trkpt>
      <trkpt lat="44.60803" lon="5.95366">
        <ele>1722.8</ele>
        <time>2023-05-19T11:55:27Z</time>
      </trkpt>
      <trkpt lat="44.60804" lon="5.95369">
        <ele>1722.4</ele>
        <time>2023-05-19T11:55:28Z</time>
      </trkpt>
      <trkpt lat="44.60804" lon="5.95372">
        <ele>1722.2</ele>
        <time>2023-05-19T11:55:29Z</time>
      </trkpt>
      <trkpt lat="44.60806" lon="5.95378">
        <ele>1721.4</ele>
        <time>2023-05-19T11:55:31Z</time>
      </trkpt>
      <trkpt lat="44.60805" lon="5.95387">
        <ele>1720.2</ele>
        <time>2023-05-19T11:55:34Z</time>
      </trkpt>
      <trkpt lat="44.60805" lon="5.95391">
        <ele>1720.2</ele>
        <time>2023-05-19T11:55:35Z</time>
      </trkpt>
      <trkpt lat="44.60805" lon="5.95395">
        <ele>1719.6</ele>
        <time>2023-05-19T11:55:36Z</time>
      </trkpt>
      <trkpt lat="44.60803" lon="5.95401">
        <ele>1719</ele>
        <time>2023-05-19T11:55:38Z</time>
      </trkpt>
      <trkpt lat="44.60803" lon="5.95401">
        <ele>1718.8</ele>
        <time>2023-05-19T11:55:39Z</time>
      </trkpt>
      <trkpt lat="44.60804" lon="5.95401">
        <ele>1718.2</ele>
        <time>2023-05-19T11:55:40Z</time>
      </trkpt>
      <trkpt lat="44.60805" lon="5.95401">
        <ele>1717.8</ele>
        <time>2023-05-19T11:55:41Z</time>
      </trkpt>
      <trkpt lat="44.60806" lon="5.95401">
        <ele>1717.6</ele>
        <time>2023-05-19T11:55:42Z</time>
      </trkpt>
      <trkpt lat="44.60806" lon="5.954">
        <ele>1717.2</ele>
        <time>2023-05-19T11:55:43Z</time>
      </trkpt>
      <trkpt lat="44.60807" lon="5.95399">
        <ele>1716.8</ele>
        <time>2023-05-19T11:55:44Z</time>
      </trkpt>
      <trkpt lat="44.60808" lon="5.95397">
        <ele>1716.4</ele>
        <time>2023-05-19T11:55:45Z</time>
      </trkpt>
      <trkpt lat="44.60809" lon="5.95394">
        <ele>1716.2</ele>
        <time>2023-05-19T11:55:46Z</time>
      </trkpt>
      <trkpt lat="44.6081" lon="5.95391">
        <ele>1715.8</ele>
        <time>2023-05-19T11:55:47Z</time>
      </trkpt>
      <trkpt lat="44.60811" lon="5.95389">
        <ele>1715.6</ele>
        <time>2023-05-19T11:55:48Z</time>
      </trkpt>
      <trkpt lat="44.60812" lon="5.95388">
        <ele>1715.2</ele>
        <time>2023-05-19T11:55:49Z</time>
      </trkpt>
      <trkpt lat="44.60813" lon="5.95386">
        <ele>1714.8</ele>
        <time>2023-05-19T11:55:50Z</time>
      </trkpt>
      <trkpt lat="44.60815" lon="5.95383">
        <ele>1714.8</ele>
        <time>2023-05-19T11:55:51Z</time>
      </trkpt>
      <trkpt lat="44.60817" lon="5.9538">
        <ele>1714.4</ele>
        <time>2023-05-19T11:55:52Z</time>
      </trkpt>
      <trkpt lat="44.60819" lon="5.95373">
        <ele>1713.6</ele>
        <time>2023-05-19T11:55:54Z</time>
      </trkpt>
      <trkpt lat="44.60823" lon="5.95364">
        <ele>1713</ele>
        <time>2023-05-19T11:55:57Z</time>
      </trkpt>
      <trkpt lat="44.60825" lon="5.95362">
        <ele>1712.6</ele>
        <time>2023-05-19T11:55:58Z</time>
      </trkpt>
      <trkpt lat="44.60827" lon="5.95359">
        <ele>1712</ele>
        <time>2023-05-19T11:55:59Z</time>
      </trkpt>
      <trkpt lat="44.60828" lon="5.95357">
        <ele>1711.8</ele>
        <time>2023-05-19T11:56:00Z</time>
      </trkpt>
      <trkpt lat="44.60829" lon="5.95356">
        <ele>1710.8</ele>
        <time>2023-05-19T11:56:01Z</time>
      </trkpt>
      <trkpt lat="44.60829" lon="5.95355">
        <ele>1710.4</ele>
        <time>2023-05-19T11:56:02Z</time>
      </trkpt>
      <trkpt lat="44.60829" lon="5.95354">
        <ele>1709.6</ele>
        <time>2023-05-19T11:56:03Z</time>
      </trkpt>
      <trkpt lat="44.60829" lon="5.95353">
        <ele>1709.4</ele>
        <time>2023-05-19T11:56:04Z</time>
      </trkpt>
      <trkpt lat="44.60829" lon="5.95353">
        <ele>1709</ele>
        <time>2023-05-19T11:56:05Z</time>
      </trkpt>
      <trkpt lat="44.60829" lon="5.95353">
        <ele>1708</ele>
        <time>2023-05-19T11:56:06Z</time>
      </trkpt>
      <trkpt lat="44.60829" lon="5.95353">
        <ele>1707.6</ele>
        <time>2023-05-19T11:56:07Z</time>
      </trkpt>
      <trkpt lat="44.60829" lon="5.95353">
        <ele>1706.8</ele>
        <time>2023-05-19T11:56:08Z</time>
      </trkpt>
      <trkpt lat="44.60829" lon="5.95353">
        <ele>1705.8</ele>
        <time>2023-05-19T11:56:12Z</time>
      </trkpt>
      <trkpt lat="44.6083" lon="5.95354">
        <ele>1705.8</ele>
        <time>2023-05-19T11:56:13Z</time>
      </trkpt>
      <trkpt lat="44.6083" lon="5.95354">
        <ele>1705.6</ele>
        <time>2023-05-19T11:56:14Z</time>
      </trkpt>
      <trkpt lat="44.60831" lon="5.95356">
        <ele>1705.4</ele>
        <time>2023-05-19T11:56:19Z</time>
      </trkpt>
      <trkpt lat="44.60831" lon="5.95357">
        <ele>1705.2</ele>
        <time>2023-05-19T11:56:20Z</time>
      </trkpt>
      <trkpt lat="44.60831" lon="5.95358">
        <ele>1705.2</ele>
        <time>2023-05-19T11:56:21Z</time>
      </trkpt>
      <trkpt lat="44.60831" lon="5.95359">
        <ele>1704.6</ele>
        <time>2023-05-19T11:56:22Z</time>
      </trkpt>
      <trkpt lat="44.60832" lon="5.95361">
        <ele>1704.2</ele>
        <time>2023-05-19T11:56:26Z</time>
      </trkpt>
      <trkpt lat="44.60832" lon="5.95363">
        <ele>1704</ele>
        <time>2023-05-19T11:56:27Z</time>
      </trkpt>
      <trkpt lat="44.60832" lon="5.95364">
        <ele>1703.8</ele>
        <time>2023-05-19T11:56:28Z</time>
      </trkpt>
      <trkpt lat="44.60832" lon="5.95365">
        <ele>1703.6</ele>
        <time>2023-05-19T11:56:29Z</time>
      </trkpt>
      <trkpt lat="44.60832" lon="5.95366">
        <ele>1703.4</ele>
        <time>2023-05-19T11:56:30Z</time>
      </trkpt>
      <trkpt lat="44.60831" lon="5.9538">
        <ele>1702.6</ele>
        <time>2023-05-19T11:56:33Z</time>
      </trkpt>
      <trkpt lat="44.60831" lon="5.95384">
        <ele>1702.4</ele>
        <time>2023-05-19T11:56:34Z</time>
      </trkpt>
      <trkpt lat="44.6083" lon="5.95387">
        <ele>1702.2</ele>
        <time>2023-05-19T11:56:35Z</time>
      </trkpt>
      <trkpt lat="44.6083" lon="5.95389">
        <ele>1702.2</ele>
        <time>2023-05-19T11:56:36Z</time>
      </trkpt>
      <trkpt lat="44.6083" lon="5.95393">
        <ele>1702.2</ele>
        <time>2023-05-19T11:56:37Z</time>
      </trkpt>
      <trkpt lat="44.6083" lon="5.95396">
        <ele>1702</ele>
        <time>2023-05-19T11:56:38Z</time>
      </trkpt>
      <trkpt lat="44.6083" lon="5.95401">
        <ele>1702</ele>
        <time>2023-05-19T11:56:39Z</time>
      </trkpt>
      <trkpt lat="44.60831" lon="5.95417">
        <ele>1701.6</ele>
        <time>2023-05-19T11:56:42Z</time>
      </trkpt>
      <trkpt lat="44.6083" lon="5.95432">
        <ele>1701.4</ele>
        <time>2023-05-19T11:56:45Z</time>
      </trkpt>
      <trkpt lat="44.6083" lon="5.95437">
        <ele>1701.2</ele>
        <time>2023-05-19T11:56:46Z</time>
      </trkpt>
      <trkpt lat="44.60829" lon="5.95441">
        <ele>1701</ele>
        <time>2023-05-19T11:56:47Z</time>
      </trkpt>
      <trkpt lat="44.60828" lon="5.95445">
        <ele>1700.8</ele>
        <time>2023-05-19T11:56:48Z</time>
      </trkpt>
      <trkpt lat="44.60826" lon="5.95448">
        <ele>1700.4</ele>
        <time>2023-05-19T11:56:49Z</time>
      </trkpt>
      <trkpt lat="44.60826" lon="5.95451">
        <ele>1700.2</ele>
        <time>2023-05-19T11:56:50Z</time>
      </trkpt>
      <trkpt lat="44.60825" lon="5.95454">
        <ele>1699.6</ele>
        <time>2023-05-19T11:56:51Z</time>
      </trkpt>
      <trkpt lat="44.60825" lon="5.95459">
        <ele>1699.4</ele>
        <time>2023-05-19T11:56:52Z</time>
      </trkpt>
      <trkpt lat="44.60825" lon="5.95464">
        <ele>1698.8</ele>
        <time>2023-05-19T11:56:53Z</time>
      </trkpt>
      <trkpt lat="44.60825" lon="5.95477">
        <ele>1698</ele>
        <time>2023-05-19T11:56:55Z</time>
      </trkpt>
      <trkpt lat="44.60824" lon="5.95484">
        <ele>1697.4</ele>
        <time>2023-05-19T11:56:56Z</time>
      </trkpt>
      <trkpt lat="44.60823" lon="5.955">
        <ele>1696.2</ele>
        <time>2023-05-19T11:56:58Z</time>
      </trkpt>
      <trkpt lat="44.60817" lon="5.95513">
        <ele>1695.2</ele>
        <time>2023-05-19T11:57:00Z</time>
      </trkpt>
      <trkpt lat="44.60815" lon="5.95519">
        <ele>1695</ele>
        <time>2023-05-19T11:57:01Z</time>
      </trkpt>
      <trkpt lat="44.60814" lon="5.95526">
        <ele>1694.4</ele>
        <time>2023-05-19T11:57:02Z</time>
      </trkpt>
      <trkpt lat="44.60813" lon="5.95533">
        <ele>1693.6</ele>
        <time>2023-05-19T11:57:03Z</time>
      </trkpt>
      <trkpt lat="44.60815" lon="5.95548">
        <ele>1692.4</ele>
        <time>2023-05-19T11:57:05Z</time>
      </trkpt>
      <trkpt lat="44.60815" lon="5.95561">
        <ele>1691.6</ele>
        <time>2023-05-19T11:57:07Z</time>
      </trkpt>
      <trkpt lat="44.60817" lon="5.95568">
        <ele>1691.4</ele>
        <time>2023-05-19T11:57:08Z</time>
      </trkpt>
      <trkpt lat="44.60817" lon="5.95574">
        <ele>1690.4</ele>
        <time>2023-05-19T11:57:09Z</time>
      </trkpt>
      <trkpt lat="44.60814" lon="5.9558">
        <ele>1689.8</ele>
        <time>2023-05-19T11:57:10Z</time>
      </trkpt>
      <trkpt lat="44.60809" lon="5.95586">
        <ele>1689.2</ele>
        <time>2023-05-19T11:57:11Z</time>
      </trkpt>
      <trkpt lat="44.60805" lon="5.95593">
        <ele>1687.8</ele>
        <time>2023-05-19T11:57:12Z</time>
      </trkpt>
      <trkpt lat="44.60803" lon="5.95608">
        <ele>1686.4</ele>
        <time>2023-05-19T11:57:14Z</time>
      </trkpt>
      <trkpt lat="44.60802" lon="5.95617">
        <ele>1685.8</ele>
        <time>2023-05-19T11:57:15Z</time>
      </trkpt>
      <trkpt lat="44.60802" lon="5.95624">
        <ele>1685.2</ele>
        <time>2023-05-19T11:57:16Z</time>
      </trkpt>
      <trkpt lat="44.60802" lon="5.9563">
        <ele>1685</ele>
        <time>2023-05-19T11:57:17Z</time>
      </trkpt>
      <trkpt lat="44.60802" lon="5.95635">
        <ele>1684.6</ele>
        <time>2023-05-19T11:57:18Z</time>
      </trkpt>
      <trkpt lat="44.60801" lon="5.9564">
        <ele>1684.4</ele>
        <time>2023-05-19T11:57:19Z</time>
      </trkpt>
      <trkpt lat="44.608" lon="5.95647">
        <ele>1683</ele>
        <time>2023-05-19T11:57:20Z</time>
      </trkpt>
      <trkpt lat="44.60799" lon="5.95653">
        <ele>1682</ele>
        <time>2023-05-19T11:57:21Z</time>
      </trkpt>
      <trkpt lat="44.60797" lon="5.95658">
        <ele>1681.6</ele>
        <time>2023-05-19T11:57:22Z</time>
      </trkpt>
      <trkpt lat="44.60797" lon="5.95663">
        <ele>1680.6</ele>
        <time>2023-05-19T11:57:23Z</time>
      </trkpt>
      <trkpt lat="44.60798" lon="5.95668">
        <ele>1680.2</ele>
        <time>2023-05-19T11:57:24Z</time>
      </trkpt>
      <trkpt lat="44.60798" lon="5.95672">
        <ele>1679.2</ele>
        <time>2023-05-19T11:57:25Z</time>
      </trkpt>
      <trkpt lat="44.60797" lon="5.95675">
        <ele>1679</ele>
        <time>2023-05-19T11:57:26Z</time>
      </trkpt>
      <trkpt lat="44.60797" lon="5.95679">
        <ele>1678.4</ele>
        <time>2023-05-19T11:57:27Z</time>
      </trkpt>
      <trkpt lat="44.60795" lon="5.95684">
        <ele>1678</ele>
        <time>2023-05-19T11:57:28Z</time>
      </trkpt>
      <trkpt lat="44.60795" lon="5.95688">
        <ele>1677.6</ele>
        <time>2023-05-19T11:57:29Z</time>
      </trkpt>
      <trkpt lat="44.60794" lon="5.95691">
        <ele>1677</ele>
        <time>2023-05-19T11:57:30Z</time>
      </trkpt>
      <trkpt lat="44.60793" lon="5.95694">
        <ele>1676.6</ele>
        <time>2023-05-19T11:57:31Z</time>
      </trkpt>
      <trkpt lat="44.60793" lon="5.95697">
        <ele>1676</ele>
        <time>2023-05-19T11:57:32Z</time>
      </trkpt>
      <trkpt lat="44.60793" lon="5.957">
        <ele>1675.8</ele>
        <time>2023-05-19T11:57:33Z</time>
      </trkpt>
      <trkpt lat="44.60793" lon="5.95703">
        <ele>1675.4</ele>
        <time>2023-05-19T11:57:34Z</time>
      </trkpt>
      <trkpt lat="44.60792" lon="5.95706">
        <ele>1675</ele>
        <time>2023-05-19T11:57:35Z</time>
      </trkpt>
      <trkpt lat="44.60792" lon="5.9571">
        <ele>1674.4</ele>
        <time>2023-05-19T11:57:36Z</time>
      </trkpt>
      <trkpt lat="44.60792" lon="5.95719">
        <ele>1673.6</ele>
        <time>2023-05-19T11:57:38Z</time>
      </trkpt>
      <trkpt lat="44.60792" lon="5.95722">
        <ele>1673.4</ele>
        <time>2023-05-19T11:57:39Z</time>
      </trkpt>
      <trkpt lat="44.60791" lon="5.95724">
        <ele>1673.2</ele>
        <time>2023-05-19T11:57:40Z</time>
      </trkpt>
      <trkpt lat="44.60791" lon="5.95725">
        <ele>1672.8</ele>
        <time>2023-05-19T11:57:41Z</time>
      </trkpt>
      <trkpt lat="44.60791" lon="5.95727">
        <ele>1672.6</ele>
        <time>2023-05-19T11:57:42Z</time>
      </trkpt>
      <trkpt lat="44.60791" lon="5.9573">
        <ele>1672.4</ele>
        <time>2023-05-19T11:57:43Z</time>
      </trkpt>
      <trkpt lat="44.60791" lon="5.95732">
        <ele>1672</ele>
        <time>2023-05-19T11:57:44Z</time>
      </trkpt>
      <trkpt lat="44.60791" lon="5.95736">
        <ele>1671.4</ele>
        <time>2023-05-19T11:57:45Z</time>
      </trkpt>
      <trkpt lat="44.60792" lon="5.95741">
        <ele>1671.2</ele>
        <time>2023-05-19T11:57:46Z</time>
      </trkpt>
      <trkpt lat="44.60792" lon="5.95755">
        <ele>1670.2</ele>
        <time>2023-05-19T11:57:50Z</time>
      </trkpt>
      <trkpt lat="44.60792" lon="5.95759">
        <ele>1670</ele>
        <time>2023-05-19T11:57:51Z</time>
      </trkpt>
      <trkpt lat="44.60793" lon="5.95763">
        <ele>1669.8</ele>
        <time>2023-05-19T11:57:52Z</time>
      </trkpt>
      <trkpt lat="44.60792" lon="5.95768">
        <ele>1669.6</ele>
        <time>2023-05-19T11:57:53Z</time>
      </trkpt>
      <trkpt lat="44.6079" lon="5.95774">
        <ele>1669</ele>
        <time>2023-05-19T11:57:55Z</time>
      </trkpt>
      <trkpt lat="44.60788" lon="5.95777">
        <ele>1668.8</ele>
        <time>2023-05-19T11:57:56Z</time>
      </trkpt>
      <trkpt lat="44.60787" lon="5.9578">
        <ele>1668.6</ele>
        <time>2023-05-19T11:57:57Z</time>
      </trkpt>
      <trkpt lat="44.60785" lon="5.95787">
        <ele>1668</ele>
        <time>2023-05-19T11:58:00Z</time>
      </trkpt>
      <trkpt lat="44.60785" lon="5.9579">
        <ele>1667.8</ele>
        <time>2023-05-19T11:58:01Z</time>
      </trkpt>
      <trkpt lat="44.60784" lon="5.95794">
        <ele>1667.6</ele>
        <time>2023-05-19T11:58:02Z</time>
      </trkpt>
      <trkpt lat="44.60783" lon="5.95798">
        <ele>1667.6</ele>
        <time>2023-05-19T11:58:03Z</time>
      </trkpt>
      <trkpt lat="44.60777" lon="5.95809">
        <ele>1667</ele>
        <time>2023-05-19T11:58:07Z</time>
      </trkpt>
      <trkpt lat="44.60777" lon="5.95811">
        <ele>1666.8</ele>
        <time>2023-05-19T11:58:08Z</time>
      </trkpt>
      <trkpt lat="44.60775" lon="5.95812">
        <ele>1666.6</ele>
        <time>2023-05-19T11:58:09Z</time>
      </trkpt>
      <trkpt lat="44.60775" lon="5.95814">
        <ele>1666.4</ele>
        <time>2023-05-19T11:58:10Z</time>
      </trkpt>
      <trkpt lat="44.60772" lon="5.95817">
        <ele>1665.8</ele>
        <time>2023-05-19T11:58:14Z</time>
      </trkpt>
      <trkpt lat="44.60772" lon="5.95817">
        <ele>1665.6</ele>
        <time>2023-05-19T11:58:16Z</time>
      </trkpt>
      <trkpt lat="44.60771" lon="5.95818">
        <ele>1665.4</ele>
        <time>2023-05-19T11:58:18Z</time>
      </trkpt>
      <trkpt lat="44.6077" lon="5.95818">
        <ele>1665.4</ele>
        <time>2023-05-19T11:58:19Z</time>
      </trkpt>
      <trkpt lat="44.60769" lon="5.95817">
        <ele>1665.4</ele>
        <time>2023-05-19T11:58:21Z</time>
      </trkpt>
      <trkpt lat="44.60769" lon="5.95817">
        <ele>1665.4</ele>
        <time>2023-05-19T11:58:22Z</time>
      </trkpt>
      <trkpt lat="44.60769" lon="5.95817">
        <ele>1665.4</ele>
        <time>2023-05-19T11:58:23Z</time>
      </trkpt>
      <trkpt lat="44.60769" lon="5.95817">
        <ele>1665.4</ele>
        <time>2023-05-19T11:58:24Z</time>
      </trkpt>
      <trkpt lat="44.60768" lon="5.95819">
        <ele>1665.6</ele>
        <time>2023-05-19T11:58:29Z</time>
      </trkpt>
      <trkpt lat="44.60767" lon="5.9582">
        <ele>1665.6</ele>
        <time>2023-05-19T11:58:30Z</time>
      </trkpt>
      <trkpt lat="44.60766" lon="5.95821">
        <ele>1665.8</ele>
        <time>2023-05-19T11:58:31Z</time>
      </trkpt>
      <trkpt lat="44.60766" lon="5.95821">
        <ele>1665.8</ele>
        <time>2023-05-19T11:58:32Z</time>
      </trkpt>
      <trkpt lat="44.60765" lon="5.95823">
        <ele>1666.2</ele>
        <time>2023-05-19T11:58:36Z</time>
      </trkpt>
      <trkpt lat="44.60763" lon="5.95826">
        <ele>1666</ele>
        <time>2023-05-19T11:58:39Z</time>
      </trkpt>
      <trkpt lat="44.60762" lon="5.95827">
        <ele>1666</ele>
        <time>2023-05-19T11:58:40Z</time>
      </trkpt>
      <trkpt lat="44.60762" lon="5.95828">
        <ele>1666</ele>
        <time>2023-05-19T11:58:41Z</time>
      </trkpt>
      <trkpt lat="44.60762" lon="5.95828">
        <ele>1666</ele>
        <time>2023-05-19T11:58:42Z</time>
      </trkpt>
      <trkpt lat="44.60761" lon="5.95828">
        <ele>1665.8</ele>
        <time>2023-05-19T11:58:43Z</time>
      </trkpt>
      <trkpt lat="44.60758" lon="5.95831">
        <ele>1665.6</ele>
        <time>2023-05-19T11:58:49Z</time>
      </trkpt>
      <trkpt lat="44.60757" lon="5.95831">
        <ele>1665.6</ele>
        <time>2023-05-19T11:58:50Z</time>
      </trkpt>
      <trkpt lat="44.60757" lon="5.95831">
        <ele>1665.6</ele>
        <time>2023-05-19T11:58:51Z</time>
      </trkpt>
      <trkpt lat="44.60752" lon="5.95838">
        <ele>1665.2</ele>
        <time>2023-05-19T11:58:59Z</time>
      </trkpt>
      <trkpt lat="44.60751" lon="5.95838">
        <ele>1665</ele>
        <time>2023-05-19T11:59:00Z</time>
      </trkpt>
      <trkpt lat="44.60751" lon="5.95839">
        <ele>1665</ele>
        <time>2023-05-19T11:59:02Z</time>
      </trkpt>
      <trkpt lat="44.6075" lon="5.95841">
        <ele>1665</ele>
        <time>2023-05-19T11:59:04Z</time>
      </trkpt>
      <trkpt lat="44.60749" lon="5.95842">
        <ele>1664.8</ele>
        <time>2023-05-19T11:59:05Z</time>
      </trkpt>
      <trkpt lat="44.60747" lon="5.95843">
        <ele>1664.8</ele>
        <time>2023-05-19T11:59:06Z</time>
      </trkpt>
      <trkpt lat="44.60745" lon="5.95846">
        <ele>1664.8</ele>
        <time>2023-05-19T11:59:08Z</time>
      </trkpt>
      <trkpt lat="44.60744" lon="5.95847">
        <ele>1664.8</ele>
        <time>2023-05-19T11:59:09Z</time>
      </trkpt>
      <trkpt lat="44.60741" lon="5.95848">
        <ele>1664.6</ele>
        <time>2023-05-19T11:59:11Z</time>
      </trkpt>
      <trkpt lat="44.60741" lon="5.95849">
        <ele>1664.6</ele>
        <time>2023-05-19T11:59:12Z</time>
      </trkpt>
      <trkpt lat="44.6074" lon="5.95849">
        <ele>1664.6</ele>
        <time>2023-05-19T11:59:13Z</time>
      </trkpt>
      <trkpt lat="44.6074" lon="5.9585">
        <ele>1664.4</ele>
        <time>2023-05-19T11:59:14Z</time>
      </trkpt>
      <trkpt lat="44.6074" lon="5.95851">
        <ele>1664.2</ele>
        <time>2023-05-19T11:59:15Z</time>
      </trkpt>
      <trkpt lat="44.6074" lon="5.95852">
        <ele>1664.2</ele>
        <time>2023-05-19T11:59:16Z</time>
      </trkpt>
      <trkpt lat="44.6074" lon="5.95854">
        <ele>1664</ele>
        <time>2023-05-19T11:59:17Z</time>
      </trkpt>
      <trkpt lat="44.6074" lon="5.95854">
        <ele>1663.8</ele>
        <time>2023-05-19T11:59:18Z</time>
      </trkpt>
      <trkpt lat="44.60739" lon="5.95856">
        <ele>1663.4</ele>
        <time>2023-05-19T11:59:20Z</time>
      </trkpt>
      <trkpt lat="44.60737" lon="5.9586">
        <ele>1663.2</ele>
        <time>2023-05-19T11:59:22Z</time>
      </trkpt>
      <trkpt lat="44.60736" lon="5.95862">
        <ele>1663</ele>
        <time>2023-05-19T11:59:23Z</time>
      </trkpt>
      <trkpt lat="44.60735" lon="5.95863">
        <ele>1663</ele>
        <time>2023-05-19T11:59:24Z</time>
      </trkpt>
      <trkpt lat="44.60735" lon="5.95863">
        <ele>1662.8</ele>
        <time>2023-05-19T11:59:25Z</time>
      </trkpt>
      <trkpt lat="44.60735" lon="5.95864">
        <ele>1662.8</ele>
        <time>2023-05-19T11:59:26Z</time>
      </trkpt>
      <trkpt lat="44.60734" lon="5.95865">
        <ele>1662.8</ele>
        <time>2023-05-19T11:59:27Z</time>
      </trkpt>
      <trkpt lat="44.60733" lon="5.95867">
        <ele>1662.4</ele>
        <time>2023-05-19T11:59:28Z</time>
      </trkpt>
      <trkpt lat="44.60733" lon="5.95868">
        <ele>1662.4</ele>
        <time>2023-05-19T11:59:29Z</time>
      </trkpt>
      <trkpt lat="44.60733" lon="5.95868">
        <ele>1662.4</ele>
        <time>2023-05-19T11:59:30Z</time>
      </trkpt>
      <trkpt lat="44.60732" lon="5.95869">
        <ele>1662.4</ele>
        <time>2023-05-19T11:59:31Z</time>
      </trkpt>
      <trkpt lat="44.60732" lon="5.95869">
        <ele>1662.4</ele>
        <time>2023-05-19T11:59:32Z</time>
      </trkpt>
      <trkpt lat="44.60731" lon="5.95869">
        <ele>1662.4</ele>
        <time>2023-05-19T11:59:33Z</time>
      </trkpt>
      <trkpt lat="44.60731" lon="5.9587">
        <ele>1662.4</ele>
        <time>2023-05-19T11:59:34Z</time>
      </trkpt>
      <trkpt lat="44.60729" lon="5.95871">
        <ele>1662.4</ele>
        <time>2023-05-19T11:59:35Z</time>
      </trkpt>
      <trkpt lat="44.60729" lon="5.95872">
        <ele>1662.2</ele>
        <time>2023-05-19T11:59:37Z</time>
      </trkpt>
      <trkpt lat="44.60729" lon="5.95872">
        <ele>1662.2</ele>
        <time>2023-05-19T11:59:38Z</time>
      </trkpt>
      <trkpt lat="44.60728" lon="5.95873">
        <ele>1662.2</ele>
        <time>2023-05-19T11:59:39Z</time>
      </trkpt>
      <trkpt lat="44.60728" lon="5.95873">
        <ele>1662.2</ele>
        <time>2023-05-19T11:59:40Z</time>
      </trkpt>
      <trkpt lat="44.60726" lon="5.95877">
        <ele>1661.8</ele>
        <time>2023-05-19T11:59:46Z</time>
      </trkpt>
      <trkpt lat="44.60726" lon="5.95877">
        <ele>1661.6</ele>
        <time>2023-05-19T11:59:47Z</time>
      </trkpt>
      <trkpt lat="44.60724" lon="5.9588">
        <ele>1661.2</ele>
        <time>2023-05-19T11:59:52Z</time>
      </trkpt>
      <trkpt lat="44.60717" lon="5.95892">
        <ele>1661.4</ele>
        <time>2023-05-19T11:59:57Z</time>
      </trkpt>
      <trkpt lat="44.60714" lon="5.95896">
        <ele>1661.4</ele>
        <time>2023-05-19T11:59:59Z</time>
      </trkpt>
      <trkpt lat="44.60712" lon="5.95898">
        <ele>1661.4</ele>
        <time>2023-05-19T12:00:00Z</time>
      </trkpt>
      <trkpt lat="44.6071" lon="5.95901">
        <ele>1661.4</ele>
        <time>2023-05-19T12:00:01Z</time>
      </trkpt>
      <trkpt lat="44.60709" lon="5.95902">
        <ele>1661.4</ele>
        <time>2023-05-19T12:00:02Z</time>
      </trkpt>
      <trkpt lat="44.60708" lon="5.95904">
        <ele>1661.4</ele>
        <time>2023-05-19T12:00:03Z</time>
      </trkpt>
      <trkpt lat="44.60707" lon="5.95904">
        <ele>1661.2</ele>
        <time>2023-05-19T12:00:04Z</time>
      </trkpt>
      <trkpt lat="44.60706" lon="5.95905">
        <ele>1661</ele>
        <time>2023-05-19T12:00:05Z</time>
      </trkpt>
      <trkpt lat="44.60706" lon="5.95906">
        <ele>1660.8</ele>
        <time>2023-05-19T12:00:06Z</time>
      </trkpt>
      <trkpt lat="44.60705" lon="5.95908">
        <ele>1660.6</ele>
        <time>2023-05-19T12:00:07Z</time>
      </trkpt>
      <trkpt lat="44.60704" lon="5.95911">
        <ele>1660.6</ele>
        <time>2023-05-19T12:00:08Z</time>
      </trkpt>
      <trkpt lat="44.607" lon="5.95915">
        <ele>1660.6</ele>
        <time>2023-05-19T12:00:09Z</time>
      </trkpt>
      <trkpt lat="44.60697" lon="5.95919">
        <ele>1660.4</ele>
        <time>2023-05-19T12:00:11Z</time>
      </trkpt>
      <trkpt lat="44.60696" lon="5.95922">
        <ele>1660.4</ele>
        <time>2023-05-19T12:00:12Z</time>
      </trkpt>
      <trkpt lat="44.60695" lon="5.95924">
        <ele>1660.2</ele>
        <time>2023-05-19T12:00:13Z</time>
      </trkpt>
      <trkpt lat="44.60693" lon="5.95926">
        <ele>1660</ele>
        <time>2023-05-19T12:00:14Z</time>
      </trkpt>
      <trkpt lat="44.60692" lon="5.95929">
        <ele>1659.8</ele>
        <time>2023-05-19T12:00:15Z</time>
      </trkpt>
      <trkpt lat="44.60689" lon="5.95934">
        <ele>1659.6</ele>
        <time>2023-05-19T12:00:17Z</time>
      </trkpt>
      <trkpt lat="44.60686" lon="5.95941">
        <ele>1659</ele>
        <time>2023-05-19T12:00:19Z</time>
      </trkpt>
      <trkpt lat="44.60685" lon="5.95944">
        <ele>1658.8</ele>
        <time>2023-05-19T12:00:20Z</time>
      </trkpt>
      <trkpt lat="44.60684" lon="5.95946">
        <ele>1657.8</ele>
        <time>2023-05-19T12:00:23Z</time>
      </trkpt>
      <trkpt lat="44.60684" lon="5.95946">
        <ele>1657.6</ele>
        <time>2023-05-19T12:00:24Z</time>
      </trkpt>
      <trkpt lat="44.60684" lon="5.95946">
        <ele>1657.4</ele>
        <time>2023-05-19T12:00:25Z</time>
      </trkpt>
      <trkpt lat="44.6068" lon="5.95951">
        <ele>1656.8</ele>
        <time>2023-05-19T12:00:31Z</time>
      </trkpt>
      <trkpt lat="44.60679" lon="5.95952">
        <ele>1656.8</ele>
        <time>2023-05-19T12:00:32Z</time>
      </trkpt>
      <trkpt lat="44.60678" lon="5.95952">
        <ele>1656.6</ele>
        <time>2023-05-19T12:00:33Z</time>
      </trkpt>
      <trkpt lat="44.60678" lon="5.95952">
        <ele>1656.6</ele>
        <time>2023-05-19T12:00:34Z</time>
      </trkpt>
      <trkpt lat="44.60676" lon="5.95955">
        <ele>1656.4</ele>
        <time>2023-05-19T12:00:37Z</time>
      </trkpt>
      <trkpt lat="44.60675" lon="5.95956">
        <ele>1656.2</ele>
        <time>2023-05-19T12:00:43Z</time>
      </trkpt>
      <trkpt lat="44.60674" lon="5.95957">
        <ele>1656.2</ele>
        <time>2023-05-19T12:00:45Z</time>
      </trkpt>
      <trkpt lat="44.60669" lon="5.95963">
        <ele>1656.2</ele>
        <time>2023-05-19T12:00:49Z</time>
      </trkpt>
      <trkpt lat="44.60668" lon="5.95965">
        <ele>1656.2</ele>
        <time>2023-05-19T12:00:51Z</time>
      </trkpt>
      <trkpt lat="44.60668" lon="5.95965">
        <ele>1656</ele>
        <time>2023-05-19T12:00:52Z</time>
      </trkpt>
      <trkpt lat="44.60668" lon="5.95965">
        <ele>1656</ele>
        <time>2023-05-19T12:00:53Z</time>
      </trkpt>
      <trkpt lat="44.60666" lon="5.95966">
        <ele>1656</ele>
        <time>2023-05-19T12:00:56Z</time>
      </trkpt>
      <trkpt lat="44.60665" lon="5.95968">
        <ele>1656</ele>
        <time>2023-05-19T12:00:57Z</time>
      </trkpt>
      <trkpt lat="44.60663" lon="5.95969">
        <ele>1656</ele>
        <time>2023-05-19T12:00:58Z</time>
      </trkpt>
      <trkpt lat="44.60661" lon="5.95971">
        <ele>1656</ele>
        <time>2023-05-19T12:01:00Z</time>
      </trkpt>
      <trkpt lat="44.6066" lon="5.95972">
        <ele>1656</ele>
        <time>2023-05-19T12:01:01Z</time>
      </trkpt>
      <trkpt lat="44.6066" lon="5.95972">
        <ele>1656</ele>
        <time>2023-05-19T12:01:02Z</time>
      </trkpt>
      <trkpt lat="44.60659" lon="5.95973">
        <ele>1656</ele>
        <time>2023-05-19T12:01:03Z</time>
      </trkpt>
      <trkpt lat="44.60658" lon="5.95974">
        <ele>1655.8</ele>
        <time>2023-05-19T12:01:04Z</time>
      </trkpt>
      <trkpt lat="44.60654" lon="5.95978">
        <ele>1655.8</ele>
        <time>2023-05-19T12:01:06Z</time>
      </trkpt>
      <trkpt lat="44.60651" lon="5.9598">
        <ele>1655.8</ele>
        <time>2023-05-19T12:01:08Z</time>
      </trkpt>
      <trkpt lat="44.6065" lon="5.95981">
        <ele>1655.6</ele>
        <time>2023-05-19T12:01:09Z</time>
      </trkpt>
      <trkpt lat="44.60648" lon="5.95983">
        <ele>1655.6</ele>
        <time>2023-05-19T12:01:10Z</time>
      </trkpt>
      <trkpt lat="44.60645" lon="5.95985">
        <ele>1655.6</ele>
        <time>2023-05-19T12:01:12Z</time>
      </trkpt>
      <trkpt lat="44.60644" lon="5.95987">
        <ele>1655.4</ele>
        <time>2023-05-19T12:01:13Z</time>
      </trkpt>
      <trkpt lat="44.60643" lon="5.9599">
        <ele>1655.4</ele>
        <time>2023-05-19T12:01:14Z</time>
      </trkpt>
      <trkpt lat="44.60633" lon="5.95998">
        <ele>1655.2</ele>
        <time>2023-05-19T12:01:18Z</time>
      </trkpt>
      <trkpt lat="44.60628" lon="5.96003">
        <ele>1655.2</ele>
        <time>2023-05-19T12:01:20Z</time>
      </trkpt>
      <trkpt lat="44.60627" lon="5.96007">
        <ele>1655.2</ele>
        <time>2023-05-19T12:01:21Z</time>
      </trkpt>
      <trkpt lat="44.60624" lon="5.9601">
        <ele>1655.2</ele>
        <time>2023-05-19T12:01:23Z</time>
      </trkpt>
      <trkpt lat="44.60622" lon="5.96012">
        <ele>1655</ele>
        <time>2023-05-19T12:01:24Z</time>
      </trkpt>
      <trkpt lat="44.60618" lon="5.96017">
        <ele>1654.6</ele>
        <time>2023-05-19T12:01:26Z</time>
      </trkpt>
      <trkpt lat="44.60616" lon="5.96019">
        <ele>1654.4</ele>
        <time>2023-05-19T12:01:27Z</time>
      </trkpt>
      <trkpt lat="44.60616" lon="5.96019">
        <ele>1654.2</ele>
        <time>2023-05-19T12:01:28Z</time>
      </trkpt>
      <trkpt lat="44.60616" lon="5.96019">
        <ele>1653.8</ele>
        <time>2023-05-19T12:01:29Z</time>
      </trkpt>
      <trkpt lat="44.60614" lon="5.96019">
        <ele>1653.6</ele>
        <time>2023-05-19T12:01:30Z</time>
      </trkpt>
      <trkpt lat="44.60613" lon="5.96021">
        <ele>1653.6</ele>
        <time>2023-05-19T12:01:31Z</time>
      </trkpt>
      <trkpt lat="44.60613" lon="5.96022">
        <ele>1653.4</ele>
        <time>2023-05-19T12:01:32Z</time>
      </trkpt>
      <trkpt lat="44.60609" lon="5.96026">
        <ele>1653.2</ele>
        <time>2023-05-19T12:01:35Z</time>
      </trkpt>
      <trkpt lat="44.60608" lon="5.96027">
        <ele>1653.2</ele>
        <time>2023-05-19T12:01:36Z</time>
      </trkpt>
      <trkpt lat="44.60607" lon="5.96028">
        <ele>1653.2</ele>
        <time>2023-05-19T12:01:37Z</time>
      </trkpt>
      <trkpt lat="44.60606" lon="5.96029">
        <ele>1653</ele>
        <time>2023-05-19T12:01:38Z</time>
      </trkpt>
      <trkpt lat="44.60605" lon="5.9603">
        <ele>1653</ele>
        <time>2023-05-19T12:01:39Z</time>
      </trkpt>
      <trkpt lat="44.60602" lon="5.96033">
        <ele>1652.6</ele>
        <time>2023-05-19T12:01:41Z</time>
      </trkpt>
      <trkpt lat="44.60589" lon="5.96045">
        <ele>1652.2</ele>
        <time>2023-05-19T12:01:46Z</time>
      </trkpt>
      <trkpt lat="44.60589" lon="5.96045">
        <ele>1652.2</ele>
        <time>2023-05-19T12:01:47Z</time>
      </trkpt>
      <trkpt lat="44.60589" lon="5.96045">
        <ele>1651.8</ele>
        <time>2023-05-19T12:01:48Z</time>
      </trkpt>
      <trkpt lat="44.60589" lon="5.96046">
        <ele>1651</ele>
        <time>2023-05-19T12:01:51Z</time>
      </trkpt>
      <trkpt lat="44.60588" lon="5.96049">
        <ele>1650.6</ele>
        <time>2023-05-19T12:01:54Z</time>
      </trkpt>
      <trkpt lat="44.60588" lon="5.96049">
        <ele>1650.6</ele>
        <time>2023-05-19T12:01:55Z</time>
      </trkpt>
      <trkpt lat="44.60588" lon="5.96049">
        <ele>1650.4</ele>
        <time>2023-05-19T12:01:56Z</time>
      </trkpt>
      <trkpt lat="44.60587" lon="5.96049">
        <ele>1650.4</ele>
        <time>2023-05-19T12:01:57Z</time>
      </trkpt>
      <trkpt lat="44.60587" lon="5.96049">
        <ele>1650.2</ele>
        <time>2023-05-19T12:01:59Z</time>
      </trkpt>
      <trkpt lat="44.60586" lon="5.96049">
        <ele>1650</ele>
        <time>2023-05-19T12:02:00Z</time>
      </trkpt>
      <trkpt lat="44.60584" lon="5.96051">
        <ele>1650</ele>
        <time>2023-05-19T12:02:02Z</time>
      </trkpt>
      <trkpt lat="44.60583" lon="5.96052">
        <ele>1650</ele>
        <time>2023-05-19T12:02:03Z</time>
      </trkpt>
      <trkpt lat="44.60582" lon="5.96053">
        <ele>1650</ele>
        <time>2023-05-19T12:02:04Z</time>
      </trkpt>
      <trkpt lat="44.60581" lon="5.96055">
        <ele>1650</ele>
        <time>2023-05-19T12:02:05Z</time>
      </trkpt>
      <trkpt lat="44.6058" lon="5.96057">
        <ele>1650</ele>
        <time>2023-05-19T12:02:06Z</time>
      </trkpt>
      <trkpt lat="44.60579" lon="5.96059">
        <ele>1649.8</ele>
        <time>2023-05-19T12:02:07Z</time>
      </trkpt>
      <trkpt lat="44.60579" lon="5.96061">
        <ele>1649.8</ele>
        <time>2023-05-19T12:02:08Z</time>
      </trkpt>
      <trkpt lat="44.60577" lon="5.96063">
        <ele>1649.6</ele>
        <time>2023-05-19T12:02:09Z</time>
      </trkpt>
      <trkpt lat="44.60576" lon="5.96065">
        <ele>1649.6</ele>
        <time>2023-05-19T12:02:10Z</time>
      </trkpt>
      <trkpt lat="44.60574" lon="5.96066">
        <ele>1649.6</ele>
        <time>2023-05-19T12:02:11Z</time>
      </trkpt>
      <trkpt lat="44.6057" lon="5.96072">
        <ele>1649.4</ele>
        <time>2023-05-19T12:02:14Z</time>
      </trkpt>
      <trkpt lat="44.60567" lon="5.96074">
        <ele>1649.4</ele>
        <time>2023-05-19T12:02:15Z</time>
      </trkpt>
      <trkpt lat="44.6055" lon="5.96092">
        <ele>1649</ele>
        <time>2023-05-19T12:02:24Z</time>
      </trkpt>
      <trkpt lat="44.60545" lon="5.96098">
        <ele>1648.8</ele>
        <time>2023-05-19T12:02:27Z</time>
      </trkpt>
      <trkpt lat="44.60543" lon="5.96103">
        <ele>1648.8</ele>
        <time>2023-05-19T12:02:29Z</time>
      </trkpt>
      <trkpt lat="44.60541" lon="5.96105">
        <ele>1648.8</ele>
        <time>2023-05-19T12:02:30Z</time>
      </trkpt>
      <trkpt lat="44.60541" lon="5.96108">
        <ele>1648.8</ele>
        <time>2023-05-19T12:02:31Z</time>
      </trkpt>
      <trkpt lat="44.60541" lon="5.96111">
        <ele>1648.8</ele>
        <time>2023-05-19T12:02:32Z</time>
      </trkpt>
      <trkpt lat="44.6054" lon="5.96113">
        <ele>1648.8</ele>
        <time>2023-05-19T12:02:33Z</time>
      </trkpt>
      <trkpt lat="44.60537" lon="5.96115">
        <ele>1648.8</ele>
        <time>2023-05-19T12:02:34Z</time>
      </trkpt>
      <trkpt lat="44.60535" lon="5.96117">
        <ele>1648.8</ele>
        <time>2023-05-19T12:02:35Z</time>
      </trkpt>
      <trkpt lat="44.60529" lon="5.96125">
        <ele>1648.6</ele>
        <time>2023-05-19T12:02:38Z</time>
      </trkpt>
      <trkpt lat="44.60526" lon="5.96128">
        <ele>1648</ele>
        <time>2023-05-19T12:02:39Z</time>
      </trkpt>
      <trkpt lat="44.60525" lon="5.96132">
        <ele>1647.8</ele>
        <time>2023-05-19T12:02:40Z</time>
      </trkpt>
      <trkpt lat="44.60523" lon="5.96135">
        <ele>1647.6</ele>
        <time>2023-05-19T12:02:41Z</time>
      </trkpt>
      <trkpt lat="44.60519" lon="5.96137">
        <ele>1647.6</ele>
        <time>2023-05-19T12:02:42Z</time>
      </trkpt>
      <trkpt lat="44.60516" lon="5.96137">
        <ele>1647.4</ele>
        <time>2023-05-19T12:02:44Z</time>
      </trkpt>
      <trkpt lat="44.60516" lon="5.96138">
        <ele>1647.2</ele>
        <time>2023-05-19T12:02:45Z</time>
      </trkpt>
      <trkpt lat="44.60515" lon="5.96138">
        <ele>1647</ele>
        <time>2023-05-19T12:02:46Z</time>
      </trkpt>
      <trkpt lat="44.60514" lon="5.96139">
        <ele>1647</ele>
        <time>2023-05-19T12:02:47Z</time>
      </trkpt>
      <trkpt lat="44.60513" lon="5.96141">
        <ele>1646.6</ele>
        <time>2023-05-19T12:02:48Z</time>
      </trkpt>
      <trkpt lat="44.60512" lon="5.96142">
        <ele>1646.6</ele>
        <time>2023-05-19T12:02:49Z</time>
      </trkpt>
      <trkpt lat="44.60511" lon="5.96145">
        <ele>1646.4</ele>
        <time>2023-05-19T12:02:50Z</time>
      </trkpt>
      <trkpt lat="44.60507" lon="5.9615">
        <ele>1646</ele>
        <time>2023-05-19T12:02:53Z</time>
      </trkpt>
      <trkpt lat="44.60506" lon="5.96152">
        <ele>1646</ele>
        <time>2023-05-19T12:02:54Z</time>
      </trkpt>
      <trkpt lat="44.60505" lon="5.96153">
        <ele>1645.8</ele>
        <time>2023-05-19T12:02:55Z</time>
      </trkpt>
      <trkpt lat="44.60503" lon="5.96154">
        <ele>1645.8</ele>
        <time>2023-05-19T12:02:56Z</time>
      </trkpt>
      <trkpt lat="44.60503" lon="5.96155">
        <ele>1645.6</ele>
        <time>2023-05-19T12:02:57Z</time>
      </trkpt>
      <trkpt lat="44.60502" lon="5.96155">
        <ele>1645.2</ele>
        <time>2023-05-19T12:02:59Z</time>
      </trkpt>
      <trkpt lat="44.60502" lon="5.96155">
        <ele>1645.2</ele>
        <time>2023-05-19T12:03:00Z</time>
      </trkpt>
      <trkpt lat="44.60501" lon="5.96156">
        <ele>1645</ele>
        <time>2023-05-19T12:03:01Z</time>
      </trkpt>
      <trkpt lat="44.60501" lon="5.96156">
        <ele>1645</ele>
        <time>2023-05-19T12:03:02Z</time>
      </trkpt>
      <trkpt lat="44.60501" lon="5.96157">
        <ele>1645</ele>
        <time>2023-05-19T12:03:03Z</time>
      </trkpt>
      <trkpt lat="44.605" lon="5.96158">
        <ele>1644.8</ele>
        <time>2023-05-19T12:03:04Z</time>
      </trkpt>
      <trkpt lat="44.60499" lon="5.96158">
        <ele>1644.8</ele>
        <time>2023-05-19T12:03:05Z</time>
      </trkpt>
      <trkpt lat="44.60498" lon="5.96159">
        <ele>1644.8</ele>
        <time>2023-05-19T12:03:06Z</time>
      </trkpt>
      <trkpt lat="44.60497" lon="5.9616">
        <ele>1644.8</ele>
        <time>2023-05-19T12:03:07Z</time>
      </trkpt>
      <trkpt lat="44.60496" lon="5.96162">
        <ele>1644.6</ele>
        <time>2023-05-19T12:03:08Z</time>
      </trkpt>
      <trkpt lat="44.60494" lon="5.96164">
        <ele>1644.4</ele>
        <time>2023-05-19T12:03:09Z</time>
      </trkpt>
      <trkpt lat="44.60487" lon="5.96172">
        <ele>1644</ele>
        <time>2023-05-19T12:03:13Z</time>
      </trkpt>
      <trkpt lat="44.60484" lon="5.96175">
        <ele>1643.8</ele>
        <time>2023-05-19T12:03:14Z</time>
      </trkpt>
      <trkpt lat="44.60481" lon="5.96178">
        <ele>1643.6</ele>
        <time>2023-05-19T12:03:15Z</time>
      </trkpt>
      <trkpt lat="44.60478" lon="5.96183">
        <ele>1643.4</ele>
        <time>2023-05-19T12:03:16Z</time>
      </trkpt>
      <trkpt lat="44.60473" lon="5.96193">
        <ele>1642.8</ele>
        <time>2023-05-19T12:03:19Z</time>
      </trkpt>
      <trkpt lat="44.60471" lon="5.96195">
        <ele>1642.4</ele>
        <time>2023-05-19T12:03:20Z</time>
      </trkpt>
      <trkpt lat="44.6047" lon="5.96197">
        <ele>1642</ele>
        <time>2023-05-19T12:03:21Z</time>
      </trkpt>
      <trkpt lat="44.60467" lon="5.96203">
        <ele>1641.2</ele>
        <time>2023-05-19T12:03:24Z</time>
      </trkpt>
      <trkpt lat="44.60467" lon="5.96203">
        <ele>1640.8</ele>
        <time>2023-05-19T12:03:25Z</time>
      </trkpt>
      <trkpt lat="44.60466" lon="5.96205">
        <ele>1640.6</ele>
        <time>2023-05-19T12:03:26Z</time>
      </trkpt>
      <trkpt lat="44.60464" lon="5.96207">
        <ele>1640.4</ele>
        <time>2023-05-19T12:03:27Z</time>
      </trkpt>
      <trkpt lat="44.60462" lon="5.96209">
        <ele>1640.4</ele>
        <time>2023-05-19T12:03:28Z</time>
      </trkpt>
      <trkpt lat="44.6046" lon="5.96209">
        <ele>1640.2</ele>
        <time>2023-05-19T12:03:29Z</time>
      </trkpt>
      <trkpt lat="44.60458" lon="5.9621">
        <ele>1640</ele>
        <time>2023-05-19T12:03:30Z</time>
      </trkpt>
      <trkpt lat="44.60458" lon="5.96212">
        <ele>1639.8</ele>
        <time>2023-05-19T12:03:31Z</time>
      </trkpt>
      <trkpt lat="44.60456" lon="5.96215">
        <ele>1639.8</ele>
        <time>2023-05-19T12:03:32Z</time>
      </trkpt>
      <trkpt lat="44.60455" lon="5.96217">
        <ele>1639.6</ele>
        <time>2023-05-19T12:03:33Z</time>
      </trkpt>
      <trkpt lat="44.60453" lon="5.96221">
        <ele>1639.4</ele>
        <time>2023-05-19T12:03:34Z</time>
      </trkpt>
      <trkpt lat="44.60453" lon="5.96223">
        <ele>1639.4</ele>
        <time>2023-05-19T12:03:35Z</time>
      </trkpt>
      <trkpt lat="44.60452" lon="5.96225">
        <ele>1639.2</ele>
        <time>2023-05-19T12:03:36Z</time>
      </trkpt>
      <trkpt lat="44.6045" lon="5.96228">
        <ele>1639.2</ele>
        <time>2023-05-19T12:03:37Z</time>
      </trkpt>
      <trkpt lat="44.60448" lon="5.96228">
        <ele>1639</ele>
        <time>2023-05-19T12:03:38Z</time>
      </trkpt>
      <trkpt lat="44.60447" lon="5.96228">
        <ele>1639</ele>
        <time>2023-05-19T12:03:39Z</time>
      </trkpt>
      <trkpt lat="44.60446" lon="5.96229">
        <ele>1639</ele>
        <time>2023-05-19T12:03:40Z</time>
      </trkpt>
      <trkpt lat="44.60445" lon="5.96231">
        <ele>1638.8</ele>
        <time>2023-05-19T12:03:41Z</time>
      </trkpt>
      <trkpt lat="44.60443" lon="5.96232">
        <ele>1638.8</ele>
        <time>2023-05-19T12:03:42Z</time>
      </trkpt>
      <trkpt lat="44.60441" lon="5.96233">
        <ele>1638.8</ele>
        <time>2023-05-19T12:03:43Z</time>
      </trkpt>
      <trkpt lat="44.60437" lon="5.96235">
        <ele>1638.6</ele>
        <time>2023-05-19T12:03:45Z</time>
      </trkpt>
      <trkpt lat="44.60436" lon="5.96238">
        <ele>1638.6</ele>
        <time>2023-05-19T12:03:46Z</time>
      </trkpt>
      <trkpt lat="44.60435" lon="5.96239">
        <ele>1638.2</ele>
        <time>2023-05-19T12:03:47Z</time>
      </trkpt>
      <trkpt lat="44.60434" lon="5.96242">
        <ele>1638.2</ele>
        <time>2023-05-19T12:03:48Z</time>
      </trkpt>
      <trkpt lat="44.60432" lon="5.96246">
        <ele>1638</ele>
        <time>2023-05-19T12:03:49Z</time>
      </trkpt>
      <trkpt lat="44.6043" lon="5.96248">
        <ele>1638</ele>
        <time>2023-05-19T12:03:50Z</time>
      </trkpt>
      <trkpt lat="44.60426" lon="5.96256">
        <ele>1637.8</ele>
        <time>2023-05-19T12:03:54Z</time>
      </trkpt>
      <trkpt lat="44.60425" lon="5.96259">
        <ele>1637.8</ele>
        <time>2023-05-19T12:03:55Z</time>
      </trkpt>
      <trkpt lat="44.60424" lon="5.9626">
        <ele>1637.8</ele>
        <time>2023-05-19T12:03:56Z</time>
      </trkpt>
      <trkpt lat="44.60423" lon="5.96262">
        <ele>1637.8</ele>
        <time>2023-05-19T12:03:57Z</time>
      </trkpt>
      <trkpt lat="44.60423" lon="5.96263">
        <ele>1637.8</ele>
        <time>2023-05-19T12:03:58Z</time>
      </trkpt>
      <trkpt lat="44.60423" lon="5.96263">
        <ele>1637.8</ele>
        <time>2023-05-19T12:03:59Z</time>
      </trkpt>
      <trkpt lat="44.60423" lon="5.96263">
        <ele>1637.8</ele>
        <time>2023-05-19T12:04:01Z</time>
      </trkpt>
      <trkpt lat="44.60423" lon="5.96263">
        <ele>1637.8</ele>
        <time>2023-05-19T12:04:02Z</time>
      </trkpt>
      <trkpt lat="44.60423" lon="5.96263">
        <ele>1638</ele>
        <time>2023-05-19T12:04:03Z</time>
      </trkpt>
      <trkpt lat="44.60422" lon="5.96263">
        <ele>1638.4</ele>
        <time>2023-05-19T12:04:07Z</time>
      </trkpt>
      <trkpt lat="44.60421" lon="5.96263">
        <ele>1638.8</ele>
        <time>2023-05-19T12:04:10Z</time>
      </trkpt>
      <trkpt lat="44.60421" lon="5.96264">
        <ele>1639</ele>
        <time>2023-05-19T12:04:11Z</time>
      </trkpt>
      <trkpt lat="44.60419" lon="5.96265">
        <ele>1639</ele>
        <time>2023-05-19T12:04:12Z</time>
      </trkpt>
      <trkpt lat="44.60418" lon="5.9627">
        <ele>1639.4</ele>
        <time>2023-05-19T12:04:15Z</time>
      </trkpt>
      <trkpt lat="44.60417" lon="5.96273">
        <ele>1639.6</ele>
        <time>2023-05-19T12:04:16Z</time>
      </trkpt>
      <trkpt lat="44.60417" lon="5.96273">
        <ele>1639.6</ele>
        <time>2023-05-19T12:04:17Z</time>
      </trkpt>
      <trkpt lat="44.60417" lon="5.96273">
        <ele>1639.8</ele>
        <time>2023-05-19T12:04:18Z</time>
      </trkpt>
      <trkpt lat="44.60416" lon="5.96276">
        <ele>1640.4</ele>
        <time>2023-05-19T12:04:21Z</time>
      </trkpt>
      <trkpt lat="44.60416" lon="5.96276">
        <ele>1640.2</ele>
        <time>2023-05-19T12:04:22Z</time>
      </trkpt>
      <trkpt lat="44.60415" lon="5.96278">
        <ele>1640.4</ele>
        <time>2023-05-19T12:04:24Z</time>
      </trkpt>
      <trkpt lat="44.60415" lon="5.96278">
        <ele>1640.4</ele>
        <time>2023-05-19T12:04:25Z</time>
      </trkpt>
      <trkpt lat="44.60414" lon="5.9628">
        <ele>1640.4</ele>
        <time>2023-05-19T12:04:26Z</time>
      </trkpt>
      <trkpt lat="44.60414" lon="5.96282">
        <ele>1640.6</ele>
        <time>2023-05-19T12:04:27Z</time>
      </trkpt>
      <trkpt lat="44.60413" lon="5.96284">
        <ele>1640.8</ele>
        <time>2023-05-19T12:04:28Z</time>
      </trkpt>
      <trkpt lat="44.60412" lon="5.96287">
        <ele>1640.8</ele>
        <time>2023-05-19T12:04:29Z</time>
      </trkpt>
      <trkpt lat="44.60411" lon="5.96291">
        <ele>1641</ele>
        <time>2023-05-19T12:04:31Z</time>
      </trkpt>
      <trkpt lat="44.60411" lon="5.96292">
        <ele>1641</ele>
        <time>2023-05-19T12:04:32Z</time>
      </trkpt>
      <trkpt lat="44.60411" lon="5.96293">
        <ele>1641.2</ele>
        <time>2023-05-19T12:04:33Z</time>
      </trkpt>
      <trkpt lat="44.60411" lon="5.96293">
        <ele>1641.2</ele>
        <time>2023-05-19T12:04:34Z</time>
      </trkpt>
      <trkpt lat="44.6041" lon="5.96295">
        <ele>1641.4</ele>
        <time>2023-05-19T12:04:35Z</time>
      </trkpt>
      <trkpt lat="44.60409" lon="5.96297">
        <ele>1641.4</ele>
        <time>2023-05-19T12:04:36Z</time>
      </trkpt>
      <trkpt lat="44.60407" lon="5.963">
        <ele>1641.6</ele>
        <time>2023-05-19T12:04:38Z</time>
      </trkpt>
      <trkpt lat="44.60406" lon="5.96301">
        <ele>1641.6</ele>
        <time>2023-05-19T12:04:39Z</time>
      </trkpt>
      <trkpt lat="44.60406" lon="5.96301">
        <ele>1641.8</ele>
        <time>2023-05-19T12:04:40Z</time>
      </trkpt>
      <trkpt lat="44.60405" lon="5.96303">
        <ele>1641.8</ele>
        <time>2023-05-19T12:04:41Z</time>
      </trkpt>
      <trkpt lat="44.60405" lon="5.96305">
        <ele>1641.8</ele>
        <time>2023-05-19T12:04:42Z</time>
      </trkpt>
      <trkpt lat="44.60404" lon="5.96307">
        <ele>1642</ele>
        <time>2023-05-19T12:04:43Z</time>
      </trkpt>
      <trkpt lat="44.60405" lon="5.96309">
        <ele>1642</ele>
        <time>2023-05-19T12:04:44Z</time>
      </trkpt>
      <trkpt lat="44.60406" lon="5.96312">
        <ele>1642</ele>
        <time>2023-05-19T12:04:45Z</time>
      </trkpt>
      <trkpt lat="44.60406" lon="5.96316">
        <ele>1642</ele>
        <time>2023-05-19T12:04:46Z</time>
      </trkpt>
      <trkpt lat="44.60406" lon="5.96319">
        <ele>1642</ele>
        <time>2023-05-19T12:04:47Z</time>
      </trkpt>
      <trkpt lat="44.60404" lon="5.96323">
        <ele>1642</ele>
        <time>2023-05-19T12:04:49Z</time>
      </trkpt>
      <trkpt lat="44.60404" lon="5.96325">
        <ele>1642</ele>
        <time>2023-05-19T12:04:50Z</time>
      </trkpt>
      <trkpt lat="44.60402" lon="5.96327">
        <ele>1642</ele>
        <time>2023-05-19T12:04:51Z</time>
      </trkpt>
      <trkpt lat="44.60402" lon="5.96327">
        <ele>1642</ele>
        <time>2023-05-19T12:04:52Z</time>
      </trkpt>
      <trkpt lat="44.60402" lon="5.96327">
        <ele>1642</ele>
        <time>2023-05-19T12:04:53Z</time>
      </trkpt>
      <trkpt lat="44.60402" lon="5.96329">
        <ele>1642</ele>
        <time>2023-05-19T12:04:54Z</time>
      </trkpt>
      <trkpt lat="44.60402" lon="5.96333">
        <ele>1642</ele>
        <time>2023-05-19T12:04:56Z</time>
      </trkpt>
      <trkpt lat="44.60401" lon="5.96335">
        <ele>1642</ele>
        <time>2023-05-19T12:04:57Z</time>
      </trkpt>
      <trkpt lat="44.604" lon="5.96338">
        <ele>1642.2</ele>
        <time>2023-05-19T12:04:59Z</time>
      </trkpt>
      <trkpt lat="44.60399" lon="5.96341">
        <ele>1642.2</ele>
        <time>2023-05-19T12:05:00Z</time>
      </trkpt>
      <trkpt lat="44.60399" lon="5.96346">
        <ele>1642.2</ele>
        <time>2023-05-19T12:05:02Z</time>
      </trkpt>
      <trkpt lat="44.60398" lon="5.9635">
        <ele>1642.2</ele>
        <time>2023-05-19T12:05:03Z</time>
      </trkpt>
      <trkpt lat="44.60398" lon="5.96351">
        <ele>1642.4</ele>
        <time>2023-05-19T12:05:04Z</time>
      </trkpt>
      <trkpt lat="44.60398" lon="5.96353">
        <ele>1642.4</ele>
        <time>2023-05-19T12:05:05Z</time>
      </trkpt>
      <trkpt lat="44.60397" lon="5.96356">
        <ele>1642.4</ele>
        <time>2023-05-19T12:05:06Z</time>
      </trkpt>
      <trkpt lat="44.60395" lon="5.9636">
        <ele>1642.6</ele>
        <time>2023-05-19T12:05:09Z</time>
      </trkpt>
      <trkpt lat="44.60395" lon="5.9636">
        <ele>1642.6</ele>
        <time>2023-05-19T12:05:10Z</time>
      </trkpt>
      <trkpt lat="44.60393" lon="5.96364">
        <ele>1642.6</ele>
        <time>2023-05-19T12:05:14Z</time>
      </trkpt>
      <trkpt lat="44.60391" lon="5.96366">
        <ele>1642.4</ele>
        <time>2023-05-19T12:05:16Z</time>
      </trkpt>
      <trkpt lat="44.60391" lon="5.96366">
        <ele>1642.4</ele>
        <time>2023-05-19T12:05:17Z</time>
      </trkpt>
      <trkpt lat="44.60391" lon="5.96366">
        <ele>1642.2</ele>
        <time>2023-05-19T12:05:19Z</time>
      </trkpt>
      <trkpt lat="44.60391" lon="5.96366">
        <ele>1642.2</ele>
        <time>2023-05-19T12:05:20Z</time>
      </trkpt>
      <trkpt lat="44.60391" lon="5.96366">
        <ele>1642</ele>
        <time>2023-05-19T12:05:25Z</time>
      </trkpt>
      <trkpt lat="44.60391" lon="5.96366">
        <ele>1641.8</ele>
        <time>2023-05-19T12:05:26Z</time>
      </trkpt>
      <trkpt lat="44.6039" lon="5.96368">
        <ele>1641.8</ele>
        <time>2023-05-19T12:05:27Z</time>
      </trkpt>
      <trkpt lat="44.60388" lon="5.96371">
        <ele>1641.4</ele>
        <time>2023-05-19T12:05:29Z</time>
      </trkpt>
      <trkpt lat="44.60387" lon="5.96372">
        <ele>1641.4</ele>
        <time>2023-05-19T12:05:30Z</time>
      </trkpt>
      <trkpt lat="44.60386" lon="5.96373">
        <ele>1641.4</ele>
        <time>2023-05-19T12:05:31Z</time>
      </trkpt>
      <trkpt lat="44.60386" lon="5.96373">
        <ele>1641</ele>
        <time>2023-05-19T12:05:32Z</time>
      </trkpt>
      <trkpt lat="44.60386" lon="5.96373">
        <ele>1641</ele>
        <time>2023-05-19T12:05:33Z</time>
      </trkpt>
      <trkpt lat="44.60385" lon="5.96376">
        <ele>1640.8</ele>
        <time>2023-05-19T12:05:34Z</time>
      </trkpt>
      <trkpt lat="44.60384" lon="5.96378">
        <ele>1640.8</ele>
        <time>2023-05-19T12:05:35Z</time>
      </trkpt>
      <trkpt lat="44.6038" lon="5.96387">
        <ele>1640.6</ele>
        <time>2023-05-19T12:05:40Z</time>
      </trkpt>
      <trkpt lat="44.60379" lon="5.96389">
        <ele>1640.6</ele>
        <time>2023-05-19T12:05:41Z</time>
      </trkpt>
      <trkpt lat="44.60377" lon="5.9639">
        <ele>1640.6</ele>
        <time>2023-05-19T12:05:42Z</time>
      </trkpt>
      <trkpt lat="44.60376" lon="5.96391">
        <ele>1640.4</ele>
        <time>2023-05-19T12:05:43Z</time>
      </trkpt>
      <trkpt lat="44.60374" lon="5.96393">
        <ele>1640.4</ele>
        <time>2023-05-19T12:05:45Z</time>
      </trkpt>
      <trkpt lat="44.60373" lon="5.96395">
        <ele>1640.4</ele>
        <time>2023-05-19T12:05:46Z</time>
      </trkpt>
      <trkpt lat="44.60372" lon="5.96395">
        <ele>1640.4</ele>
        <time>2023-05-19T12:05:48Z</time>
      </trkpt>
      <trkpt lat="44.60372" lon="5.96395">
        <ele>1640.4</ele>
        <time>2023-05-19T12:05:49Z</time>
      </trkpt>
      <trkpt lat="44.60371" lon="5.96395">
        <ele>1640.4</ele>
        <time>2023-05-19T12:05:50Z</time>
      </trkpt>
      <trkpt lat="44.60371" lon="5.96395">
        <ele>1640.4</ele>
        <time>2023-05-19T12:05:51Z</time>
      </trkpt>
      <trkpt lat="44.60371" lon="5.96395">
        <ele>1640.4</ele>
        <time>2023-05-19T12:05:52Z</time>
      </trkpt>
      <trkpt lat="44.60371" lon="5.96397">
        <ele>1640.4</ele>
        <time>2023-05-19T12:05:53Z</time>
      </trkpt>
      <trkpt lat="44.60371" lon="5.96397">
        <ele>1640.4</ele>
        <time>2023-05-19T12:05:54Z</time>
      </trkpt>
      <trkpt lat="44.6037" lon="5.96399">
        <ele>1640.6</ele>
        <time>2023-05-19T12:05:55Z</time>
      </trkpt>
      <trkpt lat="44.6037" lon="5.96399">
        <ele>1640.6</ele>
        <time>2023-05-19T12:05:56Z</time>
      </trkpt>
      <trkpt lat="44.6037" lon="5.96401">
        <ele>1640.6</ele>
        <time>2023-05-19T12:05:57Z</time>
      </trkpt>
      <trkpt lat="44.6037" lon="5.96403">
        <ele>1640.6</ele>
        <time>2023-05-19T12:05:58Z</time>
      </trkpt>
      <trkpt lat="44.60369" lon="5.96406">
        <ele>1640.6</ele>
        <time>2023-05-19T12:05:59Z</time>
      </trkpt>
      <trkpt lat="44.60368" lon="5.96409">
        <ele>1640.6</ele>
        <time>2023-05-19T12:06:00Z</time>
      </trkpt>
      <trkpt lat="44.60367" lon="5.96413">
        <ele>1640.8</ele>
        <time>2023-05-19T12:06:02Z</time>
      </trkpt>
      <trkpt lat="44.60367" lon="5.96415">
        <ele>1640.8</ele>
        <time>2023-05-19T12:06:03Z</time>
      </trkpt>
      <trkpt lat="44.60368" lon="5.96416">
        <ele>1640.8</ele>
        <time>2023-05-19T12:06:04Z</time>
      </trkpt>
      <trkpt lat="44.60368" lon="5.96416">
        <ele>1640.8</ele>
        <time>2023-05-19T12:06:05Z</time>
      </trkpt>
      <trkpt lat="44.60368" lon="5.96416">
        <ele>1640.6</ele>
        <time>2023-05-19T12:06:06Z</time>
      </trkpt>
      <trkpt lat="44.60367" lon="5.96418">
        <ele>1640.6</ele>
        <time>2023-05-19T12:06:07Z</time>
      </trkpt>
      <trkpt lat="44.60366" lon="5.9642">
        <ele>1640.6</ele>
        <time>2023-05-19T12:06:08Z</time>
      </trkpt>
      <trkpt lat="44.60363" lon="5.96424">
        <ele>1640.8</ele>
        <time>2023-05-19T12:06:11Z</time>
      </trkpt>
      <trkpt lat="44.60361" lon="5.96427">
        <ele>1640.8</ele>
        <time>2023-05-19T12:06:12Z</time>
      </trkpt>
      <trkpt lat="44.60353" lon="5.96443">
        <ele>1641</ele>
        <time>2023-05-19T12:06:18Z</time>
      </trkpt>
      <trkpt lat="44.60353" lon="5.96447">
        <ele>1641</ele>
        <time>2023-05-19T12:06:19Z</time>
      </trkpt>
      <trkpt lat="44.60349" lon="5.96459">
        <ele>1640.8</ele>
        <time>2023-05-19T12:06:23Z</time>
      </trkpt>
      <trkpt lat="44.60346" lon="5.96468">
        <ele>1640.6</ele>
        <time>2023-05-19T12:06:25Z</time>
      </trkpt>
      <trkpt lat="44.60342" lon="5.96476">
        <ele>1640.4</ele>
        <time>2023-05-19T12:06:27Z</time>
      </trkpt>
      <trkpt lat="44.6034" lon="5.96479">
        <ele>1640.4</ele>
        <time>2023-05-19T12:06:28Z</time>
      </trkpt>
      <trkpt lat="44.60339" lon="5.96482">
        <ele>1640.2</ele>
        <time>2023-05-19T12:06:29Z</time>
      </trkpt>
      <trkpt lat="44.60338" lon="5.96485">
        <ele>1640</ele>
        <time>2023-05-19T12:06:30Z</time>
      </trkpt>
      <trkpt lat="44.60336" lon="5.96487">
        <ele>1640</ele>
        <time>2023-05-19T12:06:31Z</time>
      </trkpt>
      <trkpt lat="44.60331" lon="5.96491">
        <ele>1639.6</ele>
        <time>2023-05-19T12:06:33Z</time>
      </trkpt>
      <trkpt lat="44.60331" lon="5.96491">
        <ele>1639.4</ele>
        <time>2023-05-19T12:06:34Z</time>
      </trkpt>
      <trkpt lat="44.60331" lon="5.96493">
        <ele>1639.2</ele>
        <time>2023-05-19T12:06:35Z</time>
      </trkpt>
      <trkpt lat="44.60332" lon="5.96495">
        <ele>1638.8</ele>
        <time>2023-05-19T12:06:36Z</time>
      </trkpt>
      <trkpt lat="44.60335" lon="5.965">
        <ele>1638.4</ele>
        <time>2023-05-19T12:06:39Z</time>
      </trkpt>
      <trkpt lat="44.60335" lon="5.96501">
        <ele>1638.4</ele>
        <time>2023-05-19T12:06:40Z</time>
      </trkpt>
      <trkpt lat="44.60335" lon="5.96501">
        <ele>1638.2</ele>
        <time>2023-05-19T12:06:41Z</time>
      </trkpt>
      <trkpt lat="44.60334" lon="5.96501">
        <ele>1638</ele>
        <time>2023-05-19T12:06:42Z</time>
      </trkpt>
      <trkpt lat="44.60335" lon="5.96503">
        <ele>1637.6</ele>
        <time>2023-05-19T12:06:44Z</time>
      </trkpt>
      <trkpt lat="44.60335" lon="5.96504">
        <ele>1637.4</ele>
        <time>2023-05-19T12:06:45Z</time>
      </trkpt>
      <trkpt lat="44.60336" lon="5.96506">
        <ele>1637.4</ele>
        <time>2023-05-19T12:06:46Z</time>
      </trkpt>
      <trkpt lat="44.60338" lon="5.96508">
        <ele>1637.2</ele>
        <time>2023-05-19T12:06:48Z</time>
      </trkpt>
      <trkpt lat="44.60342" lon="5.96515">
        <ele>1637</ele>
        <time>2023-05-19T12:06:50Z</time>
      </trkpt>
      <trkpt lat="44.60341" lon="5.96524">
        <ele>1636.6</ele>
        <time>2023-05-19T12:06:53Z</time>
      </trkpt>
      <trkpt lat="44.6034" lon="5.96526">
        <ele>1636.4</ele>
        <time>2023-05-19T12:06:54Z</time>
      </trkpt>
      <trkpt lat="44.6034" lon="5.96526">
        <ele>1636.4</ele>
        <time>2023-05-19T12:06:55Z</time>
      </trkpt>
      <trkpt lat="44.6034" lon="5.96527">
        <ele>1636</ele>
        <time>2023-05-19T12:06:56Z</time>
      </trkpt>
      <trkpt lat="44.6034" lon="5.96527">
        <ele>1636</ele>
        <time>2023-05-19T12:06:57Z</time>
      </trkpt>
      <trkpt lat="44.60339" lon="5.96532">
        <ele>1635.6</ele>
        <time>2023-05-19T12:07:02Z</time>
      </trkpt>
      <trkpt lat="44.60339" lon="5.96532">
        <ele>1635.6</ele>
        <time>2023-05-19T12:07:03Z</time>
      </trkpt>
      <trkpt lat="44.60339" lon="5.96532">
        <ele>1635.6</ele>
        <time>2023-05-19T12:07:04Z</time>
      </trkpt>
      <trkpt lat="44.60339" lon="5.96532">
        <ele>1635.6</ele>
        <time>2023-05-19T12:07:05Z</time>
      </trkpt>
      <trkpt lat="44.60339" lon="5.96532">
        <ele>1635.8</ele>
        <time>2023-05-19T12:07:06Z</time>
      </trkpt>
      <trkpt lat="44.60339" lon="5.96532">
        <ele>1635.8</ele>
        <time>2023-05-19T12:07:07Z</time>
      </trkpt>
      <trkpt lat="44.60338" lon="5.96533">
        <ele>1636</ele>
        <time>2023-05-19T12:07:08Z</time>
      </trkpt>
      <trkpt lat="44.60338" lon="5.96534">
        <ele>1636.2</ele>
        <time>2023-05-19T12:07:09Z</time>
      </trkpt>
      <trkpt lat="44.60336" lon="5.96541">
        <ele>1636.6</ele>
        <time>2023-05-19T12:07:13Z</time>
      </trkpt>
      <trkpt lat="44.60335" lon="5.96543">
        <ele>1636.6</ele>
        <time>2023-05-19T12:07:14Z</time>
      </trkpt>
      <trkpt lat="44.60334" lon="5.96549">
        <ele>1636.8</ele>
        <time>2023-05-19T12:07:16Z</time>
      </trkpt>
      <trkpt lat="44.60335" lon="5.96551">
        <ele>1636.8</ele>
        <time>2023-05-19T12:07:17Z</time>
      </trkpt>
      <trkpt lat="44.60335" lon="5.96554">
        <ele>1636.8</ele>
        <time>2023-05-19T12:07:18Z</time>
      </trkpt>
      <trkpt lat="44.60335" lon="5.96558">
        <ele>1636.8</ele>
        <time>2023-05-19T12:07:19Z</time>
      </trkpt>
      <trkpt lat="44.60336" lon="5.96563">
        <ele>1636.6</ele>
        <time>2023-05-19T12:07:20Z</time>
      </trkpt>
      <trkpt lat="44.60339" lon="5.96569">
        <ele>1636.4</ele>
        <time>2023-05-19T12:07:22Z</time>
      </trkpt>
      <trkpt lat="44.60339" lon="5.96572">
        <ele>1636.2</ele>
        <time>2023-05-19T12:07:23Z</time>
      </trkpt>
      <trkpt lat="44.60339" lon="5.96574">
        <ele>1636.2</ele>
        <time>2023-05-19T12:07:24Z</time>
      </trkpt>
      <trkpt lat="44.60339" lon="5.96577">
        <ele>1636</ele>
        <time>2023-05-19T12:07:25Z</time>
      </trkpt>
      <trkpt lat="44.6034" lon="5.9658">
        <ele>1635.6</ele>
        <time>2023-05-19T12:07:26Z</time>
      </trkpt>
      <trkpt lat="44.60342" lon="5.96583">
        <ele>1635.2</ele>
        <time>2023-05-19T12:07:27Z</time>
      </trkpt>
      <trkpt lat="44.60342" lon="5.96586">
        <ele>1635</ele>
        <time>2023-05-19T12:07:28Z</time>
      </trkpt>
      <trkpt lat="44.60342" lon="5.96588">
        <ele>1635</ele>
        <time>2023-05-19T12:07:29Z</time>
      </trkpt>
      <trkpt lat="44.60343" lon="5.96598">
        <ele>1634.8</ele>
        <time>2023-05-19T12:07:32Z</time>
      </trkpt>
      <trkpt lat="44.60344" lon="5.96607">
        <ele>1634.6</ele>
        <time>2023-05-19T12:07:34Z</time>
      </trkpt>
      <trkpt lat="44.60349" lon="5.96618">
        <ele>1634.6</ele>
        <time>2023-05-19T12:07:36Z</time>
      </trkpt>
      <trkpt lat="44.60351" lon="5.96627">
        <ele>1634.4</ele>
        <time>2023-05-19T12:07:38Z</time>
      </trkpt>
      <trkpt lat="44.60352" lon="5.96631">
        <ele>1634.2</ele>
        <time>2023-05-19T12:07:39Z</time>
      </trkpt>
      <trkpt lat="44.60356" lon="5.96637">
        <ele>1634</ele>
        <time>2023-05-19T12:07:40Z</time>
      </trkpt>
      <trkpt lat="44.60363" lon="5.96659">
        <ele>1633</ele>
        <time>2023-05-19T12:07:44Z</time>
      </trkpt>
      <trkpt lat="44.60367" lon="5.96676">
        <ele>1631.8</ele>
        <time>2023-05-19T12:07:48Z</time>
      </trkpt>
      <trkpt lat="44.6037" lon="5.96682">
        <ele>1631.4</ele>
        <time>2023-05-19T12:07:49Z</time>
      </trkpt>
      <trkpt lat="44.60369" lon="5.96685">
        <ele>1631.2</ele>
        <time>2023-05-19T12:07:50Z</time>
      </trkpt>
      <trkpt lat="44.60369" lon="5.96687">
        <ele>1630.8</ele>
        <time>2023-05-19T12:07:51Z</time>
      </trkpt>
      <trkpt lat="44.6037" lon="5.96691">
        <ele>1630.8</ele>
        <time>2023-05-19T12:07:52Z</time>
      </trkpt>
      <trkpt lat="44.60371" lon="5.96695">
        <ele>1630.6</ele>
        <time>2023-05-19T12:07:53Z</time>
      </trkpt>
      <trkpt lat="44.60373" lon="5.967">
        <ele>1630.4</ele>
        <time>2023-05-19T12:07:54Z</time>
      </trkpt>
      <trkpt lat="44.60383" lon="5.96723">
        <ele>1630</ele>
        <time>2023-05-19T12:07:59Z</time>
      </trkpt>
      <trkpt lat="44.60383" lon="5.96728">
        <ele>1629.8</ele>
        <time>2023-05-19T12:08:00Z</time>
      </trkpt>
      <trkpt lat="44.60385" lon="5.96735">
        <ele>1629.4</ele>
        <time>2023-05-19T12:08:01Z</time>
      </trkpt>
      <trkpt lat="44.60387" lon="5.9674">
        <ele>1629.6</ele>
        <time>2023-05-19T12:08:02Z</time>
      </trkpt>
      <trkpt lat="44.60389" lon="5.96744">
        <ele>1629.4</ele>
        <time>2023-05-19T12:08:03Z</time>
      </trkpt>
      <trkpt lat="44.60391" lon="5.9675">
        <ele>1629</ele>
        <time>2023-05-19T12:08:06Z</time>
      </trkpt>
      <trkpt lat="44.60391" lon="5.9675">
        <ele>1629</ele>
        <time>2023-05-19T12:08:07Z</time>
      </trkpt>
      <trkpt lat="44.60391" lon="5.9675">
        <ele>1628.4</ele>
        <time>2023-05-19T12:08:09Z</time>
      </trkpt>
      <trkpt lat="44.60391" lon="5.9675">
        <ele>1628.2</ele>
        <time>2023-05-19T12:08:15Z</time>
      </trkpt>
      <trkpt lat="44.60391" lon="5.9675">
        <ele>1627.4</ele>
        <time>2023-05-19T12:08:25Z</time>
      </trkpt>
      <trkpt lat="44.60391" lon="5.9675">
        <ele>1627.2</ele>
        <time>2023-05-19T12:08:29Z</time>
      </trkpt>
      <trkpt lat="44.60391" lon="5.9675">
        <ele>1627.8</ele>
        <time>2023-05-19T12:08:52Z</time>
      </trkpt>
      <trkpt lat="44.60391" lon="5.96752">
        <ele>1628</ele>
        <time>2023-05-19T12:08:55Z</time>
      </trkpt>
      <trkpt lat="44.60392" lon="5.9676">
        <ele>1628</ele>
        <time>2023-05-19T12:08:58Z</time>
      </trkpt>
      <trkpt lat="44.60393" lon="5.96788">
        <ele>1627.6</ele>
        <time>2023-05-19T12:09:04Z</time>
      </trkpt>
      <trkpt lat="44.60393" lon="5.96795">
        <ele>1627.4</ele>
        <time>2023-05-19T12:09:05Z</time>
      </trkpt>
      <trkpt lat="44.60395" lon="5.96808">
        <ele>1627.2</ele>
        <time>2023-05-19T12:09:07Z</time>
      </trkpt>
      <trkpt lat="44.60396" lon="5.96818">
        <ele>1626.6</ele>
        <time>2023-05-19T12:09:09Z</time>
      </trkpt>
      <trkpt lat="44.60396" lon="5.96824">
        <ele>1626.4</ele>
        <time>2023-05-19T12:09:10Z</time>
      </trkpt>
      <trkpt lat="44.60396" lon="5.9683">
        <ele>1626.2</ele>
        <time>2023-05-19T12:09:11Z</time>
      </trkpt>
      <trkpt lat="44.60395" lon="5.96855">
        <ele>1625.6</ele>
        <time>2023-05-19T12:09:16Z</time>
      </trkpt>
      <trkpt lat="44.60395" lon="5.9686">
        <ele>1625.4</ele>
        <time>2023-05-19T12:09:17Z</time>
      </trkpt>
      <trkpt lat="44.60394" lon="5.96865">
        <ele>1625.4</ele>
        <time>2023-05-19T12:09:18Z</time>
      </trkpt>
      <trkpt lat="44.60395" lon="5.9687">
        <ele>1625.4</ele>
        <time>2023-05-19T12:09:19Z</time>
      </trkpt>
      <trkpt lat="44.60395" lon="5.96875">
        <ele>1625.2</ele>
        <time>2023-05-19T12:09:20Z</time>
      </trkpt>
      <trkpt lat="44.60396" lon="5.96883">
        <ele>1625</ele>
        <time>2023-05-19T12:09:22Z</time>
      </trkpt>
      <trkpt lat="44.60396" lon="5.96889">
        <ele>1625</ele>
        <time>2023-05-19T12:09:23Z</time>
      </trkpt>
      <trkpt lat="44.60398" lon="5.96894">
        <ele>1625</ele>
        <time>2023-05-19T12:09:24Z</time>
      </trkpt>
      <trkpt lat="44.60399" lon="5.96901">
        <ele>1625</ele>
        <time>2023-05-19T12:09:25Z</time>
      </trkpt>
      <trkpt lat="44.604" lon="5.96907">
        <ele>1625</ele>
        <time>2023-05-19T12:09:26Z</time>
      </trkpt>
      <trkpt lat="44.604" lon="5.9692">
        <ele>1624.8</ele>
        <time>2023-05-19T12:09:28Z</time>
      </trkpt>
      <trkpt lat="44.60401" lon="5.96926">
        <ele>1624.6</ele>
        <time>2023-05-19T12:09:29Z</time>
      </trkpt>
      <trkpt lat="44.60404" lon="5.96933">
        <ele>1624.6</ele>
        <time>2023-05-19T12:09:30Z</time>
      </trkpt>
      <trkpt lat="44.60406" lon="5.96939">
        <ele>1624.4</ele>
        <time>2023-05-19T12:09:31Z</time>
      </trkpt>
      <trkpt lat="44.60405" lon="5.96944">
        <ele>1624.4</ele>
        <time>2023-05-19T12:09:32Z</time>
      </trkpt>
      <trkpt lat="44.60405" lon="5.96947">
        <ele>1624.2</ele>
        <time>2023-05-19T12:09:33Z</time>
      </trkpt>
      <trkpt lat="44.60404" lon="5.9695">
        <ele>1624</ele>
        <time>2023-05-19T12:09:34Z</time>
      </trkpt>
      <trkpt lat="44.60404" lon="5.96953">
        <ele>1624</ele>
        <time>2023-05-19T12:09:35Z</time>
      </trkpt>
      <trkpt lat="44.60408" lon="5.96954">
        <ele>1624</ele>
        <time>2023-05-19T12:09:36Z</time>
      </trkpt>
      <trkpt lat="44.60409" lon="5.96957">
        <ele>1623.8</ele>
        <time>2023-05-19T12:09:37Z</time>
      </trkpt>
      <trkpt lat="44.6041" lon="5.96961">
        <ele>1623.8</ele>
        <time>2023-05-19T12:09:38Z</time>
      </trkpt>
      <trkpt lat="44.60412" lon="5.96964">
        <ele>1623.8</ele>
        <time>2023-05-19T12:09:39Z</time>
      </trkpt>
      <trkpt lat="44.60414" lon="5.96967">
        <ele>1623.8</ele>
        <time>2023-05-19T12:09:40Z</time>
      </trkpt>
      <trkpt lat="44.60415" lon="5.96971">
        <ele>1623.8</ele>
        <time>2023-05-19T12:09:41Z</time>
      </trkpt>
      <trkpt lat="44.60423" lon="5.96992">
        <ele>1624.2</ele>
        <time>2023-05-19T12:09:47Z</time>
      </trkpt>
      <trkpt lat="44.60424" lon="5.96995">
        <ele>1624.2</ele>
        <time>2023-05-19T12:09:48Z</time>
      </trkpt>
      <trkpt lat="44.60425" lon="5.96998">
        <ele>1624.4</ele>
        <time>2023-05-19T12:09:49Z</time>
      </trkpt>
      <trkpt lat="44.60427" lon="5.97002">
        <ele>1624.4</ele>
        <time>2023-05-19T12:09:50Z</time>
      </trkpt>
      <trkpt lat="44.60428" lon="5.97005">
        <ele>1624.4</ele>
        <time>2023-05-19T12:09:51Z</time>
      </trkpt>
      <trkpt lat="44.60429" lon="5.97008">
        <ele>1624.4</ele>
        <time>2023-05-19T12:09:52Z</time>
      </trkpt>
      <trkpt lat="44.60431" lon="5.97016">
        <ele>1624.6</ele>
        <time>2023-05-19T12:09:54Z</time>
      </trkpt>
      <trkpt lat="44.60433" lon="5.9702">
        <ele>1624.6</ele>
        <time>2023-05-19T12:09:55Z</time>
      </trkpt>
      <trkpt lat="44.60434" lon="5.97024">
        <ele>1624.8</ele>
        <time>2023-05-19T12:09:56Z</time>
      </trkpt>
      <trkpt lat="44.60435" lon="5.97027">
        <ele>1624.8</ele>
        <time>2023-05-19T12:09:57Z</time>
      </trkpt>
      <trkpt lat="44.60435" lon="5.9703">
        <ele>1624.8</ele>
        <time>2023-05-19T12:09:58Z</time>
      </trkpt>
      <trkpt lat="44.60435" lon="5.97032">
        <ele>1624.8</ele>
        <time>2023-05-19T12:09:59Z</time>
      </trkpt>
      <trkpt lat="44.60435" lon="5.97035">
        <ele>1624.8</ele>
        <time>2023-05-19T12:10:00Z</time>
      </trkpt>
      <trkpt lat="44.60436" lon="5.97035">
        <ele>1625</ele>
        <time>2023-05-19T12:10:01Z</time>
      </trkpt>
      <trkpt lat="44.60436" lon="5.97037">
        <ele>1625</ele>
        <time>2023-05-19T12:10:02Z</time>
      </trkpt>
      <trkpt lat="44.60437" lon="5.97039">
        <ele>1625.2</ele>
        <time>2023-05-19T12:10:03Z</time>
      </trkpt>
      <trkpt lat="44.60437" lon="5.97041">
        <ele>1625.2</ele>
        <time>2023-05-19T12:10:04Z</time>
      </trkpt>
      <trkpt lat="44.60437" lon="5.97043">
        <ele>1625.4</ele>
        <time>2023-05-19T12:10:05Z</time>
      </trkpt>
      <trkpt lat="44.60437" lon="5.97046">
        <ele>1625.4</ele>
        <time>2023-05-19T12:10:06Z</time>
      </trkpt>
      <trkpt lat="44.60438" lon="5.97047">
        <ele>1625.6</ele>
        <time>2023-05-19T12:10:07Z</time>
      </trkpt>
      <trkpt lat="44.60438" lon="5.97048">
        <ele>1625.6</ele>
        <time>2023-05-19T12:10:08Z</time>
      </trkpt>
      <trkpt lat="44.60439" lon="5.9705">
        <ele>1625.8</ele>
        <time>2023-05-19T12:10:09Z</time>
      </trkpt>
      <trkpt lat="44.6044" lon="5.97056">
        <ele>1626.4</ele>
        <time>2023-05-19T12:10:12Z</time>
      </trkpt>
      <trkpt lat="44.6044" lon="5.97058">
        <ele>1626.6</ele>
        <time>2023-05-19T12:10:13Z</time>
      </trkpt>
      <trkpt lat="44.6044" lon="5.9706">
        <ele>1626.8</ele>
        <time>2023-05-19T12:10:14Z</time>
      </trkpt>
      <trkpt lat="44.6044" lon="5.97062">
        <ele>1626.8</ele>
        <time>2023-05-19T12:10:15Z</time>
      </trkpt>
      <trkpt lat="44.6044" lon="5.97064">
        <ele>1627</ele>
        <time>2023-05-19T12:10:16Z</time>
      </trkpt>
      <trkpt lat="44.60442" lon="5.97069">
        <ele>1627.4</ele>
        <time>2023-05-19T12:10:18Z</time>
      </trkpt>
      <trkpt lat="44.60443" lon="5.97071">
        <ele>1627.4</ele>
        <time>2023-05-19T12:10:19Z</time>
      </trkpt>
      <trkpt lat="44.60444" lon="5.97074">
        <ele>1627.6</ele>
        <time>2023-05-19T12:10:20Z</time>
      </trkpt>
      <trkpt lat="44.60447" lon="5.97082">
        <ele>1627.8</ele>
        <time>2023-05-19T12:10:23Z</time>
      </trkpt>
      <trkpt lat="44.60447" lon="5.97084">
        <ele>1627.8</ele>
        <time>2023-05-19T12:10:24Z</time>
      </trkpt>
      <trkpt lat="44.60446" lon="5.97086">
        <ele>1628</ele>
        <time>2023-05-19T12:10:25Z</time>
      </trkpt>
      <trkpt lat="44.60446" lon="5.97089">
        <ele>1628.2</ele>
        <time>2023-05-19T12:10:26Z</time>
      </trkpt>
      <trkpt lat="44.60445" lon="5.97091">
        <ele>1628.2</ele>
        <time>2023-05-19T12:10:27Z</time>
      </trkpt>
      <trkpt lat="44.60445" lon="5.97094">
        <ele>1628.4</ele>
        <time>2023-05-19T12:10:28Z</time>
      </trkpt>
      <trkpt lat="44.60445" lon="5.97095">
        <ele>1628.4</ele>
        <time>2023-05-19T12:10:29Z</time>
      </trkpt>
      <trkpt lat="44.60445" lon="5.97096">
        <ele>1628.6</ele>
        <time>2023-05-19T12:10:30Z</time>
      </trkpt>
      <trkpt lat="44.60446" lon="5.97098">
        <ele>1628.6</ele>
        <time>2023-05-19T12:10:31Z</time>
      </trkpt>
      <trkpt lat="44.60446" lon="5.971">
        <ele>1628.8</ele>
        <time>2023-05-19T12:10:32Z</time>
      </trkpt>
      <trkpt lat="44.60446" lon="5.97102">
        <ele>1628.8</ele>
        <time>2023-05-19T12:10:33Z</time>
      </trkpt>
      <trkpt lat="44.60447" lon="5.97104">
        <ele>1628.8</ele>
        <time>2023-05-19T12:10:34Z</time>
      </trkpt>
      <trkpt lat="44.60447" lon="5.97105">
        <ele>1629</ele>
        <time>2023-05-19T12:10:35Z</time>
      </trkpt>
      <trkpt lat="44.60447" lon="5.97107">
        <ele>1629.2</ele>
        <time>2023-05-19T12:10:36Z</time>
      </trkpt>
      <trkpt lat="44.60447" lon="5.97108">
        <ele>1629.4</ele>
        <time>2023-05-19T12:10:37Z</time>
      </trkpt>
      <trkpt lat="44.60447" lon="5.97108">
        <ele>1629.4</ele>
        <time>2023-05-19T12:10:38Z</time>
      </trkpt>
      <trkpt lat="44.60447" lon="5.97109">
        <ele>1629.6</ele>
        <time>2023-05-19T12:10:39Z</time>
      </trkpt>
      <trkpt lat="44.60446" lon="5.97111">
        <ele>1629.8</ele>
        <time>2023-05-19T12:10:40Z</time>
      </trkpt>
      <trkpt lat="44.60446" lon="5.97112">
        <ele>1629.8</ele>
        <time>2023-05-19T12:10:41Z</time>
      </trkpt>
      <trkpt lat="44.60445" lon="5.97114">
        <ele>1630</ele>
        <time>2023-05-19T12:10:42Z</time>
      </trkpt>
      <trkpt lat="44.60446" lon="5.97117">
        <ele>1630</ele>
        <time>2023-05-19T12:10:43Z</time>
      </trkpt>
      <trkpt lat="44.60447" lon="5.97119">
        <ele>1630.2</ele>
        <time>2023-05-19T12:10:44Z</time>
      </trkpt>
      <trkpt lat="44.60447" lon="5.97121">
        <ele>1630.4</ele>
        <time>2023-05-19T12:10:45Z</time>
      </trkpt>
      <trkpt lat="44.60448" lon="5.97123">
        <ele>1630.4</ele>
        <time>2023-05-19T12:10:46Z</time>
      </trkpt>
      <trkpt lat="44.60449" lon="5.97125">
        <ele>1630.6</ele>
        <time>2023-05-19T12:10:47Z</time>
      </trkpt>
      <trkpt lat="44.60449" lon="5.97127">
        <ele>1630.6</ele>
        <time>2023-05-19T12:10:48Z</time>
      </trkpt>
      <trkpt lat="44.6045" lon="5.97129">
        <ele>1630.8</ele>
        <time>2023-05-19T12:10:49Z</time>
      </trkpt>
      <trkpt lat="44.6045" lon="5.97131">
        <ele>1630.8</ele>
        <time>2023-05-19T12:10:50Z</time>
      </trkpt>
      <trkpt lat="44.6045" lon="5.97133">
        <ele>1630.8</ele>
        <time>2023-05-19T12:10:51Z</time>
      </trkpt>
      <trkpt lat="44.6045" lon="5.97135">
        <ele>1631</ele>
        <time>2023-05-19T12:10:52Z</time>
      </trkpt>
      <trkpt lat="44.6045" lon="5.97137">
        <ele>1631.2</ele>
        <time>2023-05-19T12:10:53Z</time>
      </trkpt>
      <trkpt lat="44.60451" lon="5.97139">
        <ele>1631.2</ele>
        <time>2023-05-19T12:10:54Z</time>
      </trkpt>
      <trkpt lat="44.60451" lon="5.97141">
        <ele>1631.4</ele>
        <time>2023-05-19T12:10:55Z</time>
      </trkpt>
      <trkpt lat="44.60452" lon="5.97143">
        <ele>1631.4</ele>
        <time>2023-05-19T12:10:56Z</time>
      </trkpt>
      <trkpt lat="44.60453" lon="5.97145">
        <ele>1631.6</ele>
        <time>2023-05-19T12:10:57Z</time>
      </trkpt>
      <trkpt lat="44.60453" lon="5.97146">
        <ele>1631.6</ele>
        <time>2023-05-19T12:10:58Z</time>
      </trkpt>
      <trkpt lat="44.60454" lon="5.97147">
        <ele>1631.6</ele>
        <time>2023-05-19T12:10:59Z</time>
      </trkpt>
      <trkpt lat="44.60455" lon="5.97149">
        <ele>1631.6</ele>
        <time>2023-05-19T12:11:00Z</time>
      </trkpt>
      <trkpt lat="44.60455" lon="5.97151">
        <ele>1631.6</ele>
        <time>2023-05-19T12:11:01Z</time>
      </trkpt>
      <trkpt lat="44.60457" lon="5.97152">
        <ele>1631.6</ele>
        <time>2023-05-19T12:11:02Z</time>
      </trkpt>
      <trkpt lat="44.60457" lon="5.97155">
        <ele>1631.6</ele>
        <time>2023-05-19T12:11:03Z</time>
      </trkpt>
      <trkpt lat="44.60457" lon="5.97157">
        <ele>1631.8</ele>
        <time>2023-05-19T12:11:04Z</time>
      </trkpt>
      <trkpt lat="44.60457" lon="5.97159">
        <ele>1631.8</ele>
        <time>2023-05-19T12:11:05Z</time>
      </trkpt>
      <trkpt lat="44.60457" lon="5.97161">
        <ele>1632</ele>
        <time>2023-05-19T12:11:06Z</time>
      </trkpt>
      <trkpt lat="44.60457" lon="5.97162">
        <ele>1632.2</ele>
        <time>2023-05-19T12:11:07Z</time>
      </trkpt>
      <trkpt lat="44.60457" lon="5.97163">
        <ele>1632.2</ele>
        <time>2023-05-19T12:11:08Z</time>
      </trkpt>
      <trkpt lat="44.60458" lon="5.97165">
        <ele>1632.4</ele>
        <time>2023-05-19T12:11:10Z</time>
      </trkpt>
      <trkpt lat="44.60458" lon="5.97166">
        <ele>1632.8</ele>
        <time>2023-05-19T12:11:11Z</time>
      </trkpt>
      <trkpt lat="44.60459" lon="5.97168">
        <ele>1632.6</ele>
        <time>2023-05-19T12:11:12Z</time>
      </trkpt>
      <trkpt lat="44.60459" lon="5.97168">
        <ele>1633</ele>
        <time>2023-05-19T12:11:13Z</time>
      </trkpt>
      <trkpt lat="44.60459" lon="5.97169">
        <ele>1633</ele>
        <time>2023-05-19T12:11:14Z</time>
      </trkpt>
      <trkpt lat="44.60462" lon="5.97182">
        <ele>1633.6</ele>
        <time>2023-05-19T12:11:21Z</time>
      </trkpt>
      <trkpt lat="44.60462" lon="5.97184">
        <ele>1633.8</ele>
        <time>2023-05-19T12:11:22Z</time>
      </trkpt>
      <trkpt lat="44.60463" lon="5.97187">
        <ele>1634</ele>
        <time>2023-05-19T12:11:24Z</time>
      </trkpt>
      <trkpt lat="44.60464" lon="5.9719">
        <ele>1634.2</ele>
        <time>2023-05-19T12:11:26Z</time>
      </trkpt>
      <trkpt lat="44.60464" lon="5.97194">
        <ele>1634.4</ele>
        <time>2023-05-19T12:11:28Z</time>
      </trkpt>
      <trkpt lat="44.60464" lon="5.97196">
        <ele>1634.6</ele>
        <time>2023-05-19T12:11:30Z</time>
      </trkpt>
      <trkpt lat="44.60465" lon="5.972">
        <ele>1635</ele>
        <time>2023-05-19T12:11:32Z</time>
      </trkpt>
      <trkpt lat="44.60465" lon="5.97202">
        <ele>1635</ele>
        <time>2023-05-19T12:11:33Z</time>
      </trkpt>
      <trkpt lat="44.60465" lon="5.97204">
        <ele>1635.2</ele>
        <time>2023-05-19T12:11:34Z</time>
      </trkpt>
      <trkpt lat="44.60465" lon="5.97205">
        <ele>1635.2</ele>
        <time>2023-05-19T12:11:35Z</time>
      </trkpt>
      <trkpt lat="44.60466" lon="5.97206">
        <ele>1635.4</ele>
        <time>2023-05-19T12:11:36Z</time>
      </trkpt>
      <trkpt lat="44.60466" lon="5.97206">
        <ele>1635.4</ele>
        <time>2023-05-19T12:11:37Z</time>
      </trkpt>
      <trkpt lat="44.60466" lon="5.97207">
        <ele>1635.6</ele>
        <time>2023-05-19T12:11:38Z</time>
      </trkpt>
      <trkpt lat="44.60466" lon="5.97208">
        <ele>1635.6</ele>
        <time>2023-05-19T12:11:39Z</time>
      </trkpt>
      <trkpt lat="44.60466" lon="5.9721">
        <ele>1636</ele>
        <time>2023-05-19T12:11:40Z</time>
      </trkpt>
      <trkpt lat="44.60467" lon="5.97211">
        <ele>1636.2</ele>
        <time>2023-05-19T12:11:41Z</time>
      </trkpt>
      <trkpt lat="44.60468" lon="5.97212">
        <ele>1636.2</ele>
        <time>2023-05-19T12:11:42Z</time>
      </trkpt>
      <trkpt lat="44.60468" lon="5.97214">
        <ele>1636.4</ele>
        <time>2023-05-19T12:11:43Z</time>
      </trkpt>
      <trkpt lat="44.60467" lon="5.97215">
        <ele>1636.4</ele>
        <time>2023-05-19T12:11:44Z</time>
      </trkpt>
      <trkpt lat="44.60468" lon="5.97218">
        <ele>1636.6</ele>
        <time>2023-05-19T12:11:45Z</time>
      </trkpt>
      <trkpt lat="44.60468" lon="5.97219">
        <ele>1636.8</ele>
        <time>2023-05-19T12:11:46Z</time>
      </trkpt>
      <trkpt lat="44.60468" lon="5.9722">
        <ele>1637</ele>
        <time>2023-05-19T12:11:47Z</time>
      </trkpt>
      <trkpt lat="44.60468" lon="5.97221">
        <ele>1637.2</ele>
        <time>2023-05-19T12:11:48Z</time>
      </trkpt>
      <trkpt lat="44.60469" lon="5.97222">
        <ele>1637.2</ele>
        <time>2023-05-19T12:11:49Z</time>
      </trkpt>
      <trkpt lat="44.60469" lon="5.97223">
        <ele>1637.4</ele>
        <time>2023-05-19T12:11:50Z</time>
      </trkpt>
      <trkpt lat="44.6047" lon="5.97225">
        <ele>1637.4</ele>
        <time>2023-05-19T12:11:51Z</time>
      </trkpt>
      <trkpt lat="44.60471" lon="5.97227">
        <ele>1637.8</ele>
        <time>2023-05-19T12:11:52Z</time>
      </trkpt>
      <trkpt lat="44.60471" lon="5.97229">
        <ele>1637.8</ele>
        <time>2023-05-19T12:11:53Z</time>
      </trkpt>
      <trkpt lat="44.60472" lon="5.9723">
        <ele>1638</ele>
        <time>2023-05-19T12:11:54Z</time>
      </trkpt>
      <trkpt lat="44.60472" lon="5.97233">
        <ele>1638.2</ele>
        <time>2023-05-19T12:11:55Z</time>
      </trkpt>
      <trkpt lat="44.60471" lon="5.97235">
        <ele>1638.4</ele>
        <time>2023-05-19T12:11:56Z</time>
      </trkpt>
      <trkpt lat="44.60471" lon="5.97237">
        <ele>1638.6</ele>
        <time>2023-05-19T12:11:57Z</time>
      </trkpt>
      <trkpt lat="44.60472" lon="5.97239">
        <ele>1638.8</ele>
        <time>2023-05-19T12:11:58Z</time>
      </trkpt>
      <trkpt lat="44.60472" lon="5.97241">
        <ele>1638.8</ele>
        <time>2023-05-19T12:11:59Z</time>
      </trkpt>
      <trkpt lat="44.60472" lon="5.97243">
        <ele>1639</ele>
        <time>2023-05-19T12:12:00Z</time>
      </trkpt>
      <trkpt lat="44.60472" lon="5.97245">
        <ele>1639</ele>
        <time>2023-05-19T12:12:01Z</time>
      </trkpt>
      <trkpt lat="44.60472" lon="5.97247">
        <ele>1639.2</ele>
        <time>2023-05-19T12:12:02Z</time>
      </trkpt>
      <trkpt lat="44.60471" lon="5.97249">
        <ele>1639.4</ele>
        <time>2023-05-19T12:12:03Z</time>
      </trkpt>
      <trkpt lat="44.60471" lon="5.9725">
        <ele>1639.4</ele>
        <time>2023-05-19T12:12:04Z</time>
      </trkpt>
      <trkpt lat="44.6047" lon="5.97251">
        <ele>1639.6</ele>
        <time>2023-05-19T12:12:05Z</time>
      </trkpt>
      <trkpt lat="44.6047" lon="5.97252">
        <ele>1639.8</ele>
        <time>2023-05-19T12:12:06Z</time>
      </trkpt>
      <trkpt lat="44.6047" lon="5.97253">
        <ele>1640</ele>
        <time>2023-05-19T12:12:07Z</time>
      </trkpt>
      <trkpt lat="44.60469" lon="5.97254">
        <ele>1640.2</ele>
        <time>2023-05-19T12:12:08Z</time>
      </trkpt>
      <trkpt lat="44.60469" lon="5.97255">
        <ele>1640.2</ele>
        <time>2023-05-19T12:12:09Z</time>
      </trkpt>
      <trkpt lat="44.6047" lon="5.97258">
        <ele>1640.4</ele>
        <time>2023-05-19T12:12:10Z</time>
      </trkpt>
      <trkpt lat="44.6047" lon="5.97259">
        <ele>1640.4</ele>
        <time>2023-05-19T12:12:11Z</time>
      </trkpt>
      <trkpt lat="44.6047" lon="5.97261">
        <ele>1640.4</ele>
        <time>2023-05-19T12:12:12Z</time>
      </trkpt>
      <trkpt lat="44.6047" lon="5.97262">
        <ele>1640.8</ele>
        <time>2023-05-19T12:12:13Z</time>
      </trkpt>
      <trkpt lat="44.6047" lon="5.97263">
        <ele>1641</ele>
        <time>2023-05-19T12:12:14Z</time>
      </trkpt>
      <trkpt lat="44.6047" lon="5.97265">
        <ele>1641.2</ele>
        <time>2023-05-19T12:12:15Z</time>
      </trkpt>
      <trkpt lat="44.6047" lon="5.97267">
        <ele>1641.4</ele>
        <time>2023-05-19T12:12:16Z</time>
      </trkpt>
      <trkpt lat="44.6047" lon="5.97268">
        <ele>1641.6</ele>
        <time>2023-05-19T12:12:17Z</time>
      </trkpt>
      <trkpt lat="44.60471" lon="5.9727">
        <ele>1641.8</ele>
        <time>2023-05-19T12:12:18Z</time>
      </trkpt>
      <trkpt lat="44.60471" lon="5.97271">
        <ele>1642</ele>
        <time>2023-05-19T12:12:19Z</time>
      </trkpt>
      <trkpt lat="44.60471" lon="5.97272">
        <ele>1642.2</ele>
        <time>2023-05-19T12:12:20Z</time>
      </trkpt>
      <trkpt lat="44.60471" lon="5.97274">
        <ele>1642.4</ele>
        <time>2023-05-19T12:12:21Z</time>
      </trkpt>
      <trkpt lat="44.60471" lon="5.97274">
        <ele>1642.6</ele>
        <time>2023-05-19T12:12:22Z</time>
      </trkpt>
      <trkpt lat="44.60471" lon="5.97275">
        <ele>1642.8</ele>
        <time>2023-05-19T12:12:23Z</time>
      </trkpt>
      <trkpt lat="44.60471" lon="5.97276">
        <ele>1642.8</ele>
        <time>2023-05-19T12:12:24Z</time>
      </trkpt>
      <trkpt lat="44.60471" lon="5.97278">
        <ele>1643</ele>
        <time>2023-05-19T12:12:25Z</time>
      </trkpt>
      <trkpt lat="44.60472" lon="5.97281">
        <ele>1643.2</ele>
        <time>2023-05-19T12:12:26Z</time>
      </trkpt>
      <trkpt lat="44.60472" lon="5.97282">
        <ele>1643.4</ele>
        <time>2023-05-19T12:12:27Z</time>
      </trkpt>
      <trkpt lat="44.60472" lon="5.97284">
        <ele>1643.6</ele>
        <time>2023-05-19T12:12:28Z</time>
      </trkpt>
      <trkpt lat="44.60473" lon="5.97285">
        <ele>1643.8</ele>
        <time>2023-05-19T12:12:29Z</time>
      </trkpt>
      <trkpt lat="44.60473" lon="5.97287">
        <ele>1644</ele>
        <time>2023-05-19T12:12:30Z</time>
      </trkpt>
      <trkpt lat="44.60474" lon="5.97289">
        <ele>1644.2</ele>
        <time>2023-05-19T12:12:31Z</time>
      </trkpt>
      <trkpt lat="44.60475" lon="5.9729">
        <ele>1644.4</ele>
        <time>2023-05-19T12:12:32Z</time>
      </trkpt>
      <trkpt lat="44.60475" lon="5.97292">
        <ele>1645</ele>
        <time>2023-05-19T12:12:33Z</time>
      </trkpt>
      <trkpt lat="44.60475" lon="5.97293">
        <ele>1645</ele>
        <time>2023-05-19T12:12:34Z</time>
      </trkpt>
      <trkpt lat="44.60473" lon="5.97294">
        <ele>1645.2</ele>
        <time>2023-05-19T12:12:35Z</time>
      </trkpt>
      <trkpt lat="44.60473" lon="5.97296">
        <ele>1645.2</ele>
        <time>2023-05-19T12:12:36Z</time>
      </trkpt>
      <trkpt lat="44.60473" lon="5.97297">
        <ele>1645.2</ele>
        <time>2023-05-19T12:12:37Z</time>
      </trkpt>
      <trkpt lat="44.60474" lon="5.97299">
        <ele>1645.6</ele>
        <time>2023-05-19T12:12:38Z</time>
      </trkpt>
      <trkpt lat="44.60474" lon="5.97301">
        <ele>1645.6</ele>
        <time>2023-05-19T12:12:39Z</time>
      </trkpt>
      <trkpt lat="44.60473" lon="5.97303">
        <ele>1645.8</ele>
        <time>2023-05-19T12:12:40Z</time>
      </trkpt>
      <trkpt lat="44.60474" lon="5.97305">
        <ele>1645.8</ele>
        <time>2023-05-19T12:12:41Z</time>
      </trkpt>
      <trkpt lat="44.60474" lon="5.97307">
        <ele>1646</ele>
        <time>2023-05-19T12:12:42Z</time>
      </trkpt>
      <trkpt lat="44.60474" lon="5.97308">
        <ele>1646</ele>
        <time>2023-05-19T12:12:43Z</time>
      </trkpt>
      <trkpt lat="44.60475" lon="5.9731">
        <ele>1646.2</ele>
        <time>2023-05-19T12:12:44Z</time>
      </trkpt>
      <trkpt lat="44.60475" lon="5.97311">
        <ele>1646.2</ele>
        <time>2023-05-19T12:12:45Z</time>
      </trkpt>
      <trkpt lat="44.60474" lon="5.97312">
        <ele>1646.4</ele>
        <time>2023-05-19T12:12:46Z</time>
      </trkpt>
      <trkpt lat="44.60474" lon="5.97314">
        <ele>1646.4</ele>
        <time>2023-05-19T12:12:47Z</time>
      </trkpt>
      <trkpt lat="44.60474" lon="5.97315">
        <ele>1646.6</ele>
        <time>2023-05-19T12:12:48Z</time>
      </trkpt>
      <trkpt lat="44.60474" lon="5.97316">
        <ele>1646.6</ele>
        <time>2023-05-19T12:12:49Z</time>
      </trkpt>
      <trkpt lat="44.60474" lon="5.97317">
        <ele>1646.8</ele>
        <time>2023-05-19T12:12:50Z</time>
      </trkpt>
      <trkpt lat="44.60475" lon="5.97319">
        <ele>1647</ele>
        <time>2023-05-19T12:12:51Z</time>
      </trkpt>
      <trkpt lat="44.60474" lon="5.9732">
        <ele>1647</ele>
        <time>2023-05-19T12:12:52Z</time>
      </trkpt>
      <trkpt lat="44.60475" lon="5.97321">
        <ele>1647.2</ele>
        <time>2023-05-19T12:12:53Z</time>
      </trkpt>
      <trkpt lat="44.60476" lon="5.97323">
        <ele>1647.2</ele>
        <time>2023-05-19T12:12:54Z</time>
      </trkpt>
      <trkpt lat="44.60475" lon="5.97324">
        <ele>1647.2</ele>
        <time>2023-05-19T12:12:55Z</time>
      </trkpt>
      <trkpt lat="44.60475" lon="5.97325">
        <ele>1647.4</ele>
        <time>2023-05-19T12:12:56Z</time>
      </trkpt>
      <trkpt lat="44.60475" lon="5.97326">
        <ele>1647.4</ele>
        <time>2023-05-19T12:12:57Z</time>
      </trkpt>
      <trkpt lat="44.60475" lon="5.97327">
        <ele>1647.6</ele>
        <time>2023-05-19T12:12:58Z</time>
      </trkpt>
      <trkpt lat="44.60475" lon="5.97329">
        <ele>1647.6</ele>
        <time>2023-05-19T12:12:59Z</time>
      </trkpt>
      <trkpt lat="44.60474" lon="5.9733">
        <ele>1647.8</ele>
        <time>2023-05-19T12:13:00Z</time>
      </trkpt>
      <trkpt lat="44.60474" lon="5.97331">
        <ele>1647.8</ele>
        <time>2023-05-19T12:13:01Z</time>
      </trkpt>
      <trkpt lat="44.60474" lon="5.97333">
        <ele>1648.2</ele>
        <time>2023-05-19T12:13:02Z</time>
      </trkpt>
      <trkpt lat="44.60474" lon="5.97335">
        <ele>1648.4</ele>
        <time>2023-05-19T12:13:03Z</time>
      </trkpt>
      <trkpt lat="44.60474" lon="5.97337">
        <ele>1648.4</ele>
        <time>2023-05-19T12:13:04Z</time>
      </trkpt>
      <trkpt lat="44.60474" lon="5.9734">
        <ele>1648.4</ele>
        <time>2023-05-19T12:13:05Z</time>
      </trkpt>
      <trkpt lat="44.60474" lon="5.97342">
        <ele>1648.6</ele>
        <time>2023-05-19T12:13:06Z</time>
      </trkpt>
      <trkpt lat="44.60474" lon="5.97344">
        <ele>1648.6</ele>
        <time>2023-05-19T12:13:07Z</time>
      </trkpt>
      <trkpt lat="44.60475" lon="5.97346">
        <ele>1648.8</ele>
        <time>2023-05-19T12:13:08Z</time>
      </trkpt>
      <trkpt lat="44.60475" lon="5.97348">
        <ele>1648.8</ele>
        <time>2023-05-19T12:13:09Z</time>
      </trkpt>
      <trkpt lat="44.60475" lon="5.9735">
        <ele>1648.8</ele>
        <time>2023-05-19T12:13:10Z</time>
      </trkpt>
      <trkpt lat="44.60475" lon="5.97352">
        <ele>1649</ele>
        <time>2023-05-19T12:13:11Z</time>
      </trkpt>
      <trkpt lat="44.60475" lon="5.97353">
        <ele>1649</ele>
        <time>2023-05-19T12:13:12Z</time>
      </trkpt>
      <trkpt lat="44.60475" lon="5.97354">
        <ele>1649</ele>
        <time>2023-05-19T12:13:13Z</time>
      </trkpt>
      <trkpt lat="44.60475" lon="5.97356">
        <ele>1649.2</ele>
        <time>2023-05-19T12:13:14Z</time>
      </trkpt>
      <trkpt lat="44.60475" lon="5.97358">
        <ele>1649.2</ele>
        <time>2023-05-19T12:13:15Z</time>
      </trkpt>
      <trkpt lat="44.60475" lon="5.9736">
        <ele>1649.2</ele>
        <time>2023-05-19T12:13:16Z</time>
      </trkpt>
      <trkpt lat="44.60475" lon="5.97362">
        <ele>1649.4</ele>
        <time>2023-05-19T12:13:17Z</time>
      </trkpt>
      <trkpt lat="44.60475" lon="5.97364">
        <ele>1649.6</ele>
        <time>2023-05-19T12:13:18Z</time>
      </trkpt>
      <trkpt lat="44.60474" lon="5.97365">
        <ele>1649.8</ele>
        <time>2023-05-19T12:13:20Z</time>
      </trkpt>
      <trkpt lat="44.60474" lon="5.97365">
        <ele>1650</ele>
        <time>2023-05-19T12:13:21Z</time>
      </trkpt>
      <trkpt lat="44.60474" lon="5.97366">
        <ele>1650</ele>
        <time>2023-05-19T12:13:22Z</time>
      </trkpt>
      <trkpt lat="44.60474" lon="5.97367">
        <ele>1650.2</ele>
        <time>2023-05-19T12:13:23Z</time>
      </trkpt>
      <trkpt lat="44.60474" lon="5.97368">
        <ele>1650.4</ele>
        <time>2023-05-19T12:13:24Z</time>
      </trkpt>
      <trkpt lat="44.60474" lon="5.97369">
        <ele>1650.6</ele>
        <time>2023-05-19T12:13:25Z</time>
      </trkpt>
      <trkpt lat="44.60474" lon="5.97371">
        <ele>1650.6</ele>
        <time>2023-05-19T12:13:26Z</time>
      </trkpt>
      <trkpt lat="44.60474" lon="5.97373">
        <ele>1650.8</ele>
        <time>2023-05-19T12:13:27Z</time>
      </trkpt>
      <trkpt lat="44.60475" lon="5.97375">
        <ele>1651</ele>
        <time>2023-05-19T12:13:28Z</time>
      </trkpt>
      <trkpt lat="44.60475" lon="5.97377">
        <ele>1651.2</ele>
        <time>2023-05-19T12:13:29Z</time>
      </trkpt>
      <trkpt lat="44.60474" lon="5.97378">
        <ele>1651.4</ele>
        <time>2023-05-19T12:13:30Z</time>
      </trkpt>
      <trkpt lat="44.60474" lon="5.9738">
        <ele>1651.6</ele>
        <time>2023-05-19T12:13:31Z</time>
      </trkpt>
      <trkpt lat="44.60474" lon="5.97382">
        <ele>1652</ele>
        <time>2023-05-19T12:13:32Z</time>
      </trkpt>
      <trkpt lat="44.60474" lon="5.97384">
        <ele>1652</ele>
        <time>2023-05-19T12:13:33Z</time>
      </trkpt>
      <trkpt lat="44.60474" lon="5.97386">
        <ele>1652.2</ele>
        <time>2023-05-19T12:13:34Z</time>
      </trkpt>
      <trkpt lat="44.60474" lon="5.97388">
        <ele>1652.4</ele>
        <time>2023-05-19T12:13:35Z</time>
      </trkpt>
      <trkpt lat="44.60473" lon="5.9739">
        <ele>1652.6</ele>
        <time>2023-05-19T12:13:36Z</time>
      </trkpt>
      <trkpt lat="44.60473" lon="5.97392">
        <ele>1652.8</ele>
        <time>2023-05-19T12:13:37Z</time>
      </trkpt>
      <trkpt lat="44.60473" lon="5.97394">
        <ele>1652.8</ele>
        <time>2023-05-19T12:13:38Z</time>
      </trkpt>
      <trkpt lat="44.60473" lon="5.97396">
        <ele>1653</ele>
        <time>2023-05-19T12:13:39Z</time>
      </trkpt>
      <trkpt lat="44.60473" lon="5.97398">
        <ele>1653.2</ele>
        <time>2023-05-19T12:13:40Z</time>
      </trkpt>
      <trkpt lat="44.60472" lon="5.97399">
        <ele>1653.2</ele>
        <time>2023-05-19T12:13:41Z</time>
      </trkpt>
      <trkpt lat="44.60471" lon="5.97401">
        <ele>1653.2</ele>
        <time>2023-05-19T12:13:42Z</time>
      </trkpt>
      <trkpt lat="44.6047" lon="5.97402">
        <ele>1653.4</ele>
        <time>2023-05-19T12:13:43Z</time>
      </trkpt>
      <trkpt lat="44.6047" lon="5.97404">
        <ele>1653.6</ele>
        <time>2023-05-19T12:13:44Z</time>
      </trkpt>
      <trkpt lat="44.6047" lon="5.97405">
        <ele>1653.6</ele>
        <time>2023-05-19T12:13:45Z</time>
      </trkpt>
      <trkpt lat="44.6047" lon="5.97407">
        <ele>1653.8</ele>
        <time>2023-05-19T12:13:46Z</time>
      </trkpt>
      <trkpt lat="44.60469" lon="5.97409">
        <ele>1654</ele>
        <time>2023-05-19T12:13:47Z</time>
      </trkpt>
      <trkpt lat="44.60469" lon="5.97411">
        <ele>1654</ele>
        <time>2023-05-19T12:13:48Z</time>
      </trkpt>
      <trkpt lat="44.60469" lon="5.97413">
        <ele>1654.2</ele>
        <time>2023-05-19T12:13:49Z</time>
      </trkpt>
      <trkpt lat="44.60469" lon="5.97414">
        <ele>1654.2</ele>
        <time>2023-05-19T12:13:50Z</time>
      </trkpt>
      <trkpt lat="44.60469" lon="5.97416">
        <ele>1654.4</ele>
        <time>2023-05-19T12:13:51Z</time>
      </trkpt>
      <trkpt lat="44.60469" lon="5.97418">
        <ele>1654.8</ele>
        <time>2023-05-19T12:13:52Z</time>
      </trkpt>
      <trkpt lat="44.60469" lon="5.9742">
        <ele>1655</ele>
        <time>2023-05-19T12:13:53Z</time>
      </trkpt>
      <trkpt lat="44.60469" lon="5.97422">
        <ele>1655</ele>
        <time>2023-05-19T12:13:54Z</time>
      </trkpt>
      <trkpt lat="44.60469" lon="5.97424">
        <ele>1655.4</ele>
        <time>2023-05-19T12:13:55Z</time>
      </trkpt>
      <trkpt lat="44.60469" lon="5.97426">
        <ele>1655.4</ele>
        <time>2023-05-19T12:13:56Z</time>
      </trkpt>
      <trkpt lat="44.60469" lon="5.97428">
        <ele>1655.6</ele>
        <time>2023-05-19T12:13:57Z</time>
      </trkpt>
      <trkpt lat="44.60469" lon="5.97429">
        <ele>1655.6</ele>
        <time>2023-05-19T12:13:58Z</time>
      </trkpt>
      <trkpt lat="44.60469" lon="5.97431">
        <ele>1655.8</ele>
        <time>2023-05-19T12:13:59Z</time>
      </trkpt>
      <trkpt lat="44.60468" lon="5.97433">
        <ele>1656</ele>
        <time>2023-05-19T12:14:00Z</time>
      </trkpt>
      <trkpt lat="44.60468" lon="5.97434">
        <ele>1656</ele>
        <time>2023-05-19T12:14:01Z</time>
      </trkpt>
      <trkpt lat="44.60467" lon="5.97435">
        <ele>1656</ele>
        <time>2023-05-19T12:14:02Z</time>
      </trkpt>
      <trkpt lat="44.60467" lon="5.97436">
        <ele>1656.2</ele>
        <time>2023-05-19T12:14:03Z</time>
      </trkpt>
      <trkpt lat="44.60466" lon="5.97437">
        <ele>1656.4</ele>
        <time>2023-05-19T12:14:04Z</time>
      </trkpt>
      <trkpt lat="44.60466" lon="5.97438">
        <ele>1656.4</ele>
        <time>2023-05-19T12:14:05Z</time>
      </trkpt>
      <trkpt lat="44.60465" lon="5.97438">
        <ele>1656.6</ele>
        <time>2023-05-19T12:14:06Z</time>
      </trkpt>
      <trkpt lat="44.60465" lon="5.9744">
        <ele>1656.6</ele>
        <time>2023-05-19T12:14:07Z</time>
      </trkpt>
      <trkpt lat="44.60464" lon="5.97441">
        <ele>1656.8</ele>
        <time>2023-05-19T12:14:08Z</time>
      </trkpt>
      <trkpt lat="44.60464" lon="5.97443">
        <ele>1657</ele>
        <time>2023-05-19T12:14:09Z</time>
      </trkpt>
      <trkpt lat="44.60464" lon="5.97444">
        <ele>1657</ele>
        <time>2023-05-19T12:14:10Z</time>
      </trkpt>
      <trkpt lat="44.60464" lon="5.97445">
        <ele>1657.4</ele>
        <time>2023-05-19T12:14:11Z</time>
      </trkpt>
      <trkpt lat="44.60463" lon="5.97447">
        <ele>1657.4</ele>
        <time>2023-05-19T12:14:12Z</time>
      </trkpt>
      <trkpt lat="44.60463" lon="5.97448">
        <ele>1657.8</ele>
        <time>2023-05-19T12:14:13Z</time>
      </trkpt>
      <trkpt lat="44.60462" lon="5.97449">
        <ele>1657.8</ele>
        <time>2023-05-19T12:14:14Z</time>
      </trkpt>
      <trkpt lat="44.60461" lon="5.9745">
        <ele>1658.4</ele>
        <time>2023-05-19T12:14:15Z</time>
      </trkpt>
      <trkpt lat="44.6046" lon="5.97451">
        <ele>1658.4</ele>
        <time>2023-05-19T12:14:16Z</time>
      </trkpt>
      <trkpt lat="44.6046" lon="5.97452">
        <ele>1658.6</ele>
        <time>2023-05-19T12:14:17Z</time>
      </trkpt>
      <trkpt lat="44.60459" lon="5.97453">
        <ele>1658.8</ele>
        <time>2023-05-19T12:14:18Z</time>
      </trkpt>
      <trkpt lat="44.60458" lon="5.97454">
        <ele>1658.8</ele>
        <time>2023-05-19T12:14:19Z</time>
      </trkpt>
      <trkpt lat="44.60458" lon="5.97455">
        <ele>1659</ele>
        <time>2023-05-19T12:14:20Z</time>
      </trkpt>
      <trkpt lat="44.60458" lon="5.97456">
        <ele>1659</ele>
        <time>2023-05-19T12:14:21Z</time>
      </trkpt>
      <trkpt lat="44.60458" lon="5.97458">
        <ele>1659.2</ele>
        <time>2023-05-19T12:14:22Z</time>
      </trkpt>
      <trkpt lat="44.60458" lon="5.97459">
        <ele>1659.4</ele>
        <time>2023-05-19T12:14:23Z</time>
      </trkpt>
      <trkpt lat="44.60458" lon="5.97461">
        <ele>1659.8</ele>
        <time>2023-05-19T12:14:24Z</time>
      </trkpt>
      <trkpt lat="44.60457" lon="5.97462">
        <ele>1660</ele>
        <time>2023-05-19T12:14:25Z</time>
      </trkpt>
      <trkpt lat="44.60457" lon="5.97464">
        <ele>1660</ele>
        <time>2023-05-19T12:14:26Z</time>
      </trkpt>
      <trkpt lat="44.60456" lon="5.97465">
        <ele>1660.4</ele>
        <time>2023-05-19T12:14:27Z</time>
      </trkpt>
      <trkpt lat="44.60456" lon="5.97467">
        <ele>1660.4</ele>
        <time>2023-05-19T12:14:28Z</time>
      </trkpt>
      <trkpt lat="44.60456" lon="5.97468">
        <ele>1660.6</ele>
        <time>2023-05-19T12:14:29Z</time>
      </trkpt>
      <trkpt lat="44.60455" lon="5.97469">
        <ele>1660.8</ele>
        <time>2023-05-19T12:14:30Z</time>
      </trkpt>
      <trkpt lat="44.60456" lon="5.9747">
        <ele>1661</ele>
        <time>2023-05-19T12:14:31Z</time>
      </trkpt>
      <trkpt lat="44.60456" lon="5.9747">
        <ele>1661.2</ele>
        <time>2023-05-19T12:14:32Z</time>
      </trkpt>
      <trkpt lat="44.60456" lon="5.9747">
        <ele>1661.6</ele>
        <time>2023-05-19T12:14:34Z</time>
      </trkpt>
      <trkpt lat="44.60456" lon="5.9747">
        <ele>1661.6</ele>
        <time>2023-05-19T12:14:35Z</time>
      </trkpt>
      <trkpt lat="44.60456" lon="5.9747">
        <ele>1662.2</ele>
        <time>2023-05-19T12:14:45Z</time>
      </trkpt>
      <trkpt lat="44.60456" lon="5.9747">
        <ele>1662.2</ele>
        <time>2023-05-19T12:14:57Z</time>
      </trkpt>
      <trkpt lat="44.60456" lon="5.9747">
        <ele>1662</ele>
        <time>2023-05-19T12:15:31Z</time>
      </trkpt>
      <trkpt lat="44.60455" lon="5.97472">
        <ele>1662.4</ele>
        <time>2023-05-19T12:15:49Z</time>
      </trkpt>
      <trkpt lat="44.60455" lon="5.97474">
        <ele>1662.4</ele>
        <time>2023-05-19T12:15:50Z</time>
      </trkpt>
      <trkpt lat="44.60454" lon="5.97478">
        <ele>1662.6</ele>
        <time>2023-05-19T12:15:53Z</time>
      </trkpt>
      <trkpt lat="44.60452" lon="5.97482">
        <ele>1662.6</ele>
        <time>2023-05-19T12:15:57Z</time>
      </trkpt>
      <trkpt lat="44.60451" lon="5.97483">
        <ele>1662.8</ele>
        <time>2023-05-19T12:15:58Z</time>
      </trkpt>
      <trkpt lat="44.60451" lon="5.97484">
        <ele>1662.8</ele>
        <time>2023-05-19T12:15:59Z</time>
      </trkpt>
      <trkpt lat="44.6045" lon="5.97486">
        <ele>1663</ele>
        <time>2023-05-19T12:16:01Z</time>
      </trkpt>
      <trkpt lat="44.60448" lon="5.97491">
        <ele>1664</ele>
        <time>2023-05-19T12:16:05Z</time>
      </trkpt>
      <trkpt lat="44.60447" lon="5.97493">
        <ele>1664.2</ele>
        <time>2023-05-19T12:16:06Z</time>
      </trkpt>
      <trkpt lat="44.60447" lon="5.97494">
        <ele>1664.6</ele>
        <time>2023-05-19T12:16:07Z</time>
      </trkpt>
      <trkpt lat="44.60446" lon="5.97495">
        <ele>1664.8</ele>
        <time>2023-05-19T12:16:08Z</time>
      </trkpt>
      <trkpt lat="44.60446" lon="5.97497">
        <ele>1664.8</ele>
        <time>2023-05-19T12:16:09Z</time>
      </trkpt>
      <trkpt lat="44.60445" lon="5.97499">
        <ele>1665.4</ele>
        <time>2023-05-19T12:16:11Z</time>
      </trkpt>
      <trkpt lat="44.60445" lon="5.975">
        <ele>1665.8</ele>
        <time>2023-05-19T12:16:12Z</time>
      </trkpt>
      <trkpt lat="44.60445" lon="5.97501">
        <ele>1666</ele>
        <time>2023-05-19T12:16:13Z</time>
      </trkpt>
      <trkpt lat="44.60444" lon="5.97502">
        <ele>1666.2</ele>
        <time>2023-05-19T12:16:14Z</time>
      </trkpt>
      <trkpt lat="44.60444" lon="5.97503">
        <ele>1666.2</ele>
        <time>2023-05-19T12:16:15Z</time>
      </trkpt>
      <trkpt lat="44.60443" lon="5.97504">
        <ele>1666.4</ele>
        <time>2023-05-19T12:16:16Z</time>
      </trkpt>
      <trkpt lat="44.60443" lon="5.97505">
        <ele>1666.4</ele>
        <time>2023-05-19T12:16:17Z</time>
      </trkpt>
      <trkpt lat="44.60442" lon="5.97506">
        <ele>1666.6</ele>
        <time>2023-05-19T12:16:18Z</time>
      </trkpt>
      <trkpt lat="44.60442" lon="5.97507">
        <ele>1666.8</ele>
        <time>2023-05-19T12:16:19Z</time>
      </trkpt>
      <trkpt lat="44.60441" lon="5.97508">
        <ele>1666.8</ele>
        <time>2023-05-19T12:16:20Z</time>
      </trkpt>
      <trkpt lat="44.60441" lon="5.9751">
        <ele>1667.2</ele>
        <time>2023-05-19T12:16:21Z</time>
      </trkpt>
      <trkpt lat="44.60441" lon="5.97511">
        <ele>1667.4</ele>
        <time>2023-05-19T12:16:22Z</time>
      </trkpt>
      <trkpt lat="44.6044" lon="5.97512">
        <ele>1667.8</ele>
        <time>2023-05-19T12:16:23Z</time>
      </trkpt>
      <trkpt lat="44.6044" lon="5.97513">
        <ele>1667.8</ele>
        <time>2023-05-19T12:16:24Z</time>
      </trkpt>
      <trkpt lat="44.60439" lon="5.97514">
        <ele>1668</ele>
        <time>2023-05-19T12:16:25Z</time>
      </trkpt>
      <trkpt lat="44.60439" lon="5.97515">
        <ele>1668.2</ele>
        <time>2023-05-19T12:16:26Z</time>
      </trkpt>
      <trkpt lat="44.60438" lon="5.97516">
        <ele>1668.4</ele>
        <time>2023-05-19T12:16:27Z</time>
      </trkpt>
      <trkpt lat="44.60438" lon="5.97517">
        <ele>1668.6</ele>
        <time>2023-05-19T12:16:28Z</time>
      </trkpt>
      <trkpt lat="44.60437" lon="5.97518">
        <ele>1668.8</ele>
        <time>2023-05-19T12:16:29Z</time>
      </trkpt>
      <trkpt lat="44.60437" lon="5.97519">
        <ele>1669</ele>
        <time>2023-05-19T12:16:30Z</time>
      </trkpt>
      <trkpt lat="44.60437" lon="5.97519">
        <ele>1669</ele>
        <time>2023-05-19T12:16:31Z</time>
      </trkpt>
      <trkpt lat="44.60437" lon="5.9752">
        <ele>1669.2</ele>
        <time>2023-05-19T12:16:32Z</time>
      </trkpt>
      <trkpt lat="44.60437" lon="5.97521">
        <ele>1669.4</ele>
        <time>2023-05-19T12:16:33Z</time>
      </trkpt>
      <trkpt lat="44.60437" lon="5.97522">
        <ele>1669.6</ele>
        <time>2023-05-19T12:16:34Z</time>
      </trkpt>
      <trkpt lat="44.60437" lon="5.97522">
        <ele>1669.8</ele>
        <time>2023-05-19T12:16:35Z</time>
      </trkpt>
      <trkpt lat="44.60436" lon="5.97523">
        <ele>1669.8</ele>
        <time>2023-05-19T12:16:36Z</time>
      </trkpt>
      <trkpt lat="44.60436" lon="5.97523">
        <ele>1670</ele>
        <time>2023-05-19T12:16:37Z</time>
      </trkpt>
      <trkpt lat="44.60435" lon="5.97525">
        <ele>1670.2</ele>
        <time>2023-05-19T12:16:38Z</time>
      </trkpt>
      <trkpt lat="44.60435" lon="5.97525">
        <ele>1670.4</ele>
        <time>2023-05-19T12:16:39Z</time>
      </trkpt>
      <trkpt lat="44.60435" lon="5.97526">
        <ele>1670.6</ele>
        <time>2023-05-19T12:16:40Z</time>
      </trkpt>
      <trkpt lat="44.60434" lon="5.97527">
        <ele>1670.8</ele>
        <time>2023-05-19T12:16:41Z</time>
      </trkpt>
      <trkpt lat="44.60434" lon="5.97528">
        <ele>1671</ele>
        <time>2023-05-19T12:16:42Z</time>
      </trkpt>
      <trkpt lat="44.60433" lon="5.97529">
        <ele>1671</ele>
        <time>2023-05-19T12:16:43Z</time>
      </trkpt>
      <trkpt lat="44.60433" lon="5.9753">
        <ele>1671.2</ele>
        <time>2023-05-19T12:16:44Z</time>
      </trkpt>
      <trkpt lat="44.60433" lon="5.9753">
        <ele>1671.4</ele>
        <time>2023-05-19T12:16:45Z</time>
      </trkpt>
      <trkpt lat="44.60432" lon="5.9753">
        <ele>1671.6</ele>
        <time>2023-05-19T12:16:46Z</time>
      </trkpt>
      <trkpt lat="44.60432" lon="5.9753">
        <ele>1671.8</ele>
        <time>2023-05-19T12:16:47Z</time>
      </trkpt>
      <trkpt lat="44.60432" lon="5.97531">
        <ele>1672</ele>
        <time>2023-05-19T12:16:48Z</time>
      </trkpt>
      <trkpt lat="44.60432" lon="5.97532">
        <ele>1672.2</ele>
        <time>2023-05-19T12:16:49Z</time>
      </trkpt>
      <trkpt lat="44.60432" lon="5.97532">
        <ele>1672.2</ele>
        <time>2023-05-19T12:16:50Z</time>
      </trkpt>
      <trkpt lat="44.60432" lon="5.97532">
        <ele>1672.4</ele>
        <time>2023-05-19T12:16:51Z</time>
      </trkpt>
      <trkpt lat="44.6043" lon="5.97533">
        <ele>1672.4</ele>
        <time>2023-05-19T12:16:52Z</time>
      </trkpt>
      <trkpt lat="44.6043" lon="5.97533">
        <ele>1672.8</ele>
        <time>2023-05-19T12:16:53Z</time>
      </trkpt>
      <trkpt lat="44.60429" lon="5.97534">
        <ele>1673</ele>
        <time>2023-05-19T12:16:54Z</time>
      </trkpt>
      <trkpt lat="44.60429" lon="5.97536">
        <ele>1673.2</ele>
        <time>2023-05-19T12:16:55Z</time>
      </trkpt>
      <trkpt lat="44.60428" lon="5.97537">
        <ele>1673.2</ele>
        <time>2023-05-19T12:16:56Z</time>
      </trkpt>
      <trkpt lat="44.60427" lon="5.97539">
        <ele>1673.2</ele>
        <time>2023-05-19T12:16:57Z</time>
      </trkpt>
      <trkpt lat="44.60427" lon="5.9754">
        <ele>1673.4</ele>
        <time>2023-05-19T12:16:58Z</time>
      </trkpt>
      <trkpt lat="44.60426" lon="5.97542">
        <ele>1673.6</ele>
        <time>2023-05-19T12:16:59Z</time>
      </trkpt>
      <trkpt lat="44.60425" lon="5.97544">
        <ele>1673.6</ele>
        <time>2023-05-19T12:17:00Z</time>
      </trkpt>
      <trkpt lat="44.60424" lon="5.97545">
        <ele>1673.8</ele>
        <time>2023-05-19T12:17:01Z</time>
      </trkpt>
      <trkpt lat="44.60424" lon="5.97545">
        <ele>1674</ele>
        <time>2023-05-19T12:17:02Z</time>
      </trkpt>
      <trkpt lat="44.60423" lon="5.97546">
        <ele>1674.2</ele>
        <time>2023-05-19T12:17:03Z</time>
      </trkpt>
      <trkpt lat="44.60423" lon="5.97547">
        <ele>1674.4</ele>
        <time>2023-05-19T12:17:04Z</time>
      </trkpt>
      <trkpt lat="44.60422" lon="5.9755">
        <ele>1674.8</ele>
        <time>2023-05-19T12:17:05Z</time>
      </trkpt>
      <trkpt lat="44.60421" lon="5.97551">
        <ele>1674.8</ele>
        <time>2023-05-19T12:17:06Z</time>
      </trkpt>
      <trkpt lat="44.60419" lon="5.97553">
        <ele>1674.8</ele>
        <time>2023-05-19T12:17:07Z</time>
      </trkpt>
      <trkpt lat="44.60419" lon="5.97554">
        <ele>1675.2</ele>
        <time>2023-05-19T12:17:08Z</time>
      </trkpt>
      <trkpt lat="44.60418" lon="5.97557">
        <ele>1675.4</ele>
        <time>2023-05-19T12:17:09Z</time>
      </trkpt>
      <trkpt lat="44.60418" lon="5.97558">
        <ele>1675.6</ele>
        <time>2023-05-19T12:17:10Z</time>
      </trkpt>
      <trkpt lat="44.60417" lon="5.97559">
        <ele>1675.6</ele>
        <time>2023-05-19T12:17:11Z</time>
      </trkpt>
      <trkpt lat="44.60416" lon="5.9756">
        <ele>1675.6</ele>
        <time>2023-05-19T12:17:12Z</time>
      </trkpt>
      <trkpt lat="44.60416" lon="5.97562">
        <ele>1675.8</ele>
        <time>2023-05-19T12:17:13Z</time>
      </trkpt>
      <trkpt lat="44.60415" lon="5.97564">
        <ele>1676</ele>
        <time>2023-05-19T12:17:14Z</time>
      </trkpt>
      <trkpt lat="44.60414" lon="5.97565">
        <ele>1676.2</ele>
        <time>2023-05-19T12:17:15Z</time>
      </trkpt>
      <trkpt lat="44.60414" lon="5.97567">
        <ele>1676.2</ele>
        <time>2023-05-19T12:17:16Z</time>
      </trkpt>
      <trkpt lat="44.60414" lon="5.97569">
        <ele>1676.4</ele>
        <time>2023-05-19T12:17:17Z</time>
      </trkpt>
      <trkpt lat="44.60413" lon="5.9757">
        <ele>1676.6</ele>
        <time>2023-05-19T12:17:18Z</time>
      </trkpt>
      <trkpt lat="44.60413" lon="5.97571">
        <ele>1676.6</ele>
        <time>2023-05-19T12:17:19Z</time>
      </trkpt>
      <trkpt lat="44.60413" lon="5.97571">
        <ele>1676.8</ele>
        <time>2023-05-19T12:17:20Z</time>
      </trkpt>
      <trkpt lat="44.60413" lon="5.97573">
        <ele>1676.8</ele>
        <time>2023-05-19T12:17:21Z</time>
      </trkpt>
      <trkpt lat="44.60412" lon="5.97574">
        <ele>1677</ele>
        <time>2023-05-19T12:17:22Z</time>
      </trkpt>
      <trkpt lat="44.60411" lon="5.97575">
        <ele>1677</ele>
        <time>2023-05-19T12:17:23Z</time>
      </trkpt>
      <trkpt lat="44.60411" lon="5.97576">
        <ele>1677.2</ele>
        <time>2023-05-19T12:17:24Z</time>
      </trkpt>
      <trkpt lat="44.6041" lon="5.97577">
        <ele>1677.4</ele>
        <time>2023-05-19T12:17:25Z</time>
      </trkpt>
      <trkpt lat="44.60409" lon="5.97578">
        <ele>1677.4</ele>
        <time>2023-05-19T12:17:26Z</time>
      </trkpt>
      <trkpt lat="44.60409" lon="5.97579">
        <ele>1677.6</ele>
        <time>2023-05-19T12:17:27Z</time>
      </trkpt>
      <trkpt lat="44.60409" lon="5.9758">
        <ele>1677.6</ele>
        <time>2023-05-19T12:17:28Z</time>
      </trkpt>
      <trkpt lat="44.60408" lon="5.97581">
        <ele>1677.6</ele>
        <time>2023-05-19T12:17:29Z</time>
      </trkpt>
      <trkpt lat="44.60408" lon="5.97582">
        <ele>1677.8</ele>
        <time>2023-05-19T12:17:30Z</time>
      </trkpt>
      <trkpt lat="44.60407" lon="5.97583">
        <ele>1677.8</ele>
        <time>2023-05-19T12:17:31Z</time>
      </trkpt>
      <trkpt lat="44.60407" lon="5.97584">
        <ele>1677.8</ele>
        <time>2023-05-19T12:17:32Z</time>
      </trkpt>
      <trkpt lat="44.60407" lon="5.97584">
        <ele>1678</ele>
        <time>2023-05-19T12:17:33Z</time>
      </trkpt>
      <trkpt lat="44.60406" lon="5.97585">
        <ele>1678</ele>
        <time>2023-05-19T12:17:34Z</time>
      </trkpt>
      <trkpt lat="44.60405" lon="5.97586">
        <ele>1678.2</ele>
        <time>2023-05-19T12:17:35Z</time>
      </trkpt>
      <trkpt lat="44.60405" lon="5.97587">
        <ele>1678.2</ele>
        <time>2023-05-19T12:17:36Z</time>
      </trkpt>
      <trkpt lat="44.60404" lon="5.97588">
        <ele>1678.2</ele>
        <time>2023-05-19T12:17:37Z</time>
      </trkpt>
      <trkpt lat="44.60404" lon="5.97589">
        <ele>1678.2</ele>
        <time>2023-05-19T12:17:38Z</time>
      </trkpt>
      <trkpt lat="44.60403" lon="5.97591">
        <ele>1678.4</ele>
        <time>2023-05-19T12:17:39Z</time>
      </trkpt>
      <trkpt lat="44.60402" lon="5.97592">
        <ele>1678.4</ele>
        <time>2023-05-19T12:17:40Z</time>
      </trkpt>
      <trkpt lat="44.60401" lon="5.97594">
        <ele>1678.6</ele>
        <time>2023-05-19T12:17:41Z</time>
      </trkpt>
      <trkpt lat="44.60401" lon="5.97595">
        <ele>1678.8</ele>
        <time>2023-05-19T12:17:42Z</time>
      </trkpt>
      <trkpt lat="44.604" lon="5.97597">
        <ele>1679</ele>
        <time>2023-05-19T12:17:43Z</time>
      </trkpt>
      <trkpt lat="44.60399" lon="5.97599">
        <ele>1679.2</ele>
        <time>2023-05-19T12:17:44Z</time>
      </trkpt>
      <trkpt lat="44.60397" lon="5.97603">
        <ele>1680</ele>
        <time>2023-05-19T12:17:47Z</time>
      </trkpt>
      <trkpt lat="44.60396" lon="5.97605">
        <ele>1680</ele>
        <time>2023-05-19T12:17:48Z</time>
      </trkpt>
      <trkpt lat="44.60396" lon="5.97607">
        <ele>1680.2</ele>
        <time>2023-05-19T12:17:49Z</time>
      </trkpt>
      <trkpt lat="44.60395" lon="5.97609">
        <ele>1680.4</ele>
        <time>2023-05-19T12:17:50Z</time>
      </trkpt>
      <trkpt lat="44.60394" lon="5.97611">
        <ele>1680.4</ele>
        <time>2023-05-19T12:17:51Z</time>
      </trkpt>
      <trkpt lat="44.60394" lon="5.97612">
        <ele>1680.6</ele>
        <time>2023-05-19T12:17:52Z</time>
      </trkpt>
      <trkpt lat="44.60393" lon="5.97614">
        <ele>1680.8</ele>
        <time>2023-05-19T12:17:53Z</time>
      </trkpt>
      <trkpt lat="44.60393" lon="5.97615">
        <ele>1680.8</ele>
        <time>2023-05-19T12:17:54Z</time>
      </trkpt>
      <trkpt lat="44.60392" lon="5.97616">
        <ele>1680.8</ele>
        <time>2023-05-19T12:17:55Z</time>
      </trkpt>
      <trkpt lat="44.60392" lon="5.97617">
        <ele>1681.2</ele>
        <time>2023-05-19T12:17:56Z</time>
      </trkpt>
      <trkpt lat="44.60391" lon="5.97619">
        <ele>1681.2</ele>
        <time>2023-05-19T12:17:57Z</time>
      </trkpt>
      <trkpt lat="44.6039" lon="5.9762">
        <ele>1681.4</ele>
        <time>2023-05-19T12:17:58Z</time>
      </trkpt>
      <trkpt lat="44.6039" lon="5.97621">
        <ele>1681.6</ele>
        <time>2023-05-19T12:17:59Z</time>
      </trkpt>
      <trkpt lat="44.60389" lon="5.97623">
        <ele>1681.6</ele>
        <time>2023-05-19T12:18:00Z</time>
      </trkpt>
      <trkpt lat="44.60389" lon="5.97625">
        <ele>1681.6</ele>
        <time>2023-05-19T12:18:01Z</time>
      </trkpt>
      <trkpt lat="44.60389" lon="5.97628">
        <ele>1681.8</ele>
        <time>2023-05-19T12:18:02Z</time>
      </trkpt>
      <trkpt lat="44.60388" lon="5.97631">
        <ele>1682</ele>
        <time>2023-05-19T12:18:03Z</time>
      </trkpt>
      <trkpt lat="44.60387" lon="5.97632">
        <ele>1682</ele>
        <time>2023-05-19T12:18:04Z</time>
      </trkpt>
      <trkpt lat="44.60387" lon="5.97634">
        <ele>1682</ele>
        <time>2023-05-19T12:18:05Z</time>
      </trkpt>
      <trkpt lat="44.60386" lon="5.97636">
        <ele>1682.2</ele>
        <time>2023-05-19T12:18:06Z</time>
      </trkpt>
      <trkpt lat="44.60386" lon="5.97638">
        <ele>1682.4</ele>
        <time>2023-05-19T12:18:07Z</time>
      </trkpt>
      <trkpt lat="44.60385" lon="5.9764">
        <ele>1682.6</ele>
        <time>2023-05-19T12:18:08Z</time>
      </trkpt>
      <trkpt lat="44.60384" lon="5.97641">
        <ele>1682.6</ele>
        <time>2023-05-19T12:18:09Z</time>
      </trkpt>
      <trkpt lat="44.60384" lon="5.97643">
        <ele>1682.8</ele>
        <time>2023-05-19T12:18:10Z</time>
      </trkpt>
      <trkpt lat="44.60383" lon="5.97645">
        <ele>1682.8</ele>
        <time>2023-05-19T12:18:11Z</time>
      </trkpt>
      <trkpt lat="44.60382" lon="5.97646">
        <ele>1682.8</ele>
        <time>2023-05-19T12:18:12Z</time>
      </trkpt>
      <trkpt lat="44.60381" lon="5.97648">
        <ele>1683</ele>
        <time>2023-05-19T12:18:13Z</time>
      </trkpt>
      <trkpt lat="44.6038" lon="5.97649">
        <ele>1683</ele>
        <time>2023-05-19T12:18:14Z</time>
      </trkpt>
      <trkpt lat="44.60379" lon="5.97651">
        <ele>1683.2</ele>
        <time>2023-05-19T12:18:15Z</time>
      </trkpt>
      <trkpt lat="44.60379" lon="5.97652">
        <ele>1683.2</ele>
        <time>2023-05-19T12:18:16Z</time>
      </trkpt>
      <trkpt lat="44.60378" lon="5.97654">
        <ele>1683.4</ele>
        <time>2023-05-19T12:18:17Z</time>
      </trkpt>
      <trkpt lat="44.60377" lon="5.97656">
        <ele>1683.4</ele>
        <time>2023-05-19T12:18:18Z</time>
      </trkpt>
      <trkpt lat="44.60375" lon="5.97657">
        <ele>1683.6</ele>
        <time>2023-05-19T12:18:19Z</time>
      </trkpt>
      <trkpt lat="44.60374" lon="5.97659">
        <ele>1683.6</ele>
        <time>2023-05-19T12:18:20Z</time>
      </trkpt>
      <trkpt lat="44.60374" lon="5.97661">
        <ele>1683.6</ele>
        <time>2023-05-19T12:18:21Z</time>
      </trkpt>
      <trkpt lat="44.60373" lon="5.97662">
        <ele>1683.8</ele>
        <time>2023-05-19T12:18:22Z</time>
      </trkpt>
      <trkpt lat="44.60373" lon="5.97664">
        <ele>1683.8</ele>
        <time>2023-05-19T12:18:23Z</time>
      </trkpt>
      <trkpt lat="44.60372" lon="5.97666">
        <ele>1683.8</ele>
        <time>2023-05-19T12:18:24Z</time>
      </trkpt>
      <trkpt lat="44.60371" lon="5.97668">
        <ele>1684</ele>
        <time>2023-05-19T12:18:25Z</time>
      </trkpt>
      <trkpt lat="44.60368" lon="5.97677">
        <ele>1684.4</ele>
        <time>2023-05-19T12:18:31Z</time>
      </trkpt>
      <trkpt lat="44.60367" lon="5.97678">
        <ele>1684.4</ele>
        <time>2023-05-19T12:18:32Z</time>
      </trkpt>
      <trkpt lat="44.60367" lon="5.9768">
        <ele>1684.6</ele>
        <time>2023-05-19T12:18:33Z</time>
      </trkpt>
      <trkpt lat="44.60366" lon="5.97681">
        <ele>1684.6</ele>
        <time>2023-05-19T12:18:34Z</time>
      </trkpt>
      <trkpt lat="44.60366" lon="5.97682">
        <ele>1684.6</ele>
        <time>2023-05-19T12:18:35Z</time>
      </trkpt>
      <trkpt lat="44.60365" lon="5.97683">
        <ele>1684.6</ele>
        <time>2023-05-19T12:18:36Z</time>
      </trkpt>
      <trkpt lat="44.60365" lon="5.97684">
        <ele>1684.6</ele>
        <time>2023-05-19T12:18:37Z</time>
      </trkpt>
      <trkpt lat="44.60364" lon="5.97685">
        <ele>1684.6</ele>
        <time>2023-05-19T12:18:38Z</time>
      </trkpt>
      <trkpt lat="44.60363" lon="5.97686">
        <ele>1684.6</ele>
        <time>2023-05-19T12:18:39Z</time>
      </trkpt>
      <trkpt lat="44.60362" lon="5.97687">
        <ele>1684.6</ele>
        <time>2023-05-19T12:18:40Z</time>
      </trkpt>
      <trkpt lat="44.60361" lon="5.97688">
        <ele>1684.6</ele>
        <time>2023-05-19T12:18:41Z</time>
      </trkpt>
      <trkpt lat="44.60361" lon="5.9769">
        <ele>1684.6</ele>
        <time>2023-05-19T12:18:42Z</time>
      </trkpt>
      <trkpt lat="44.60356" lon="5.97698">
        <ele>1685</ele>
        <time>2023-05-19T12:18:48Z</time>
      </trkpt>
      <trkpt lat="44.60355" lon="5.97699">
        <ele>1685.2</ele>
        <time>2023-05-19T12:18:49Z</time>
      </trkpt>
      <trkpt lat="44.60351" lon="5.97703">
        <ele>1685.6</ele>
        <time>2023-05-19T12:18:53Z</time>
      </trkpt>
      <trkpt lat="44.60349" lon="5.97707">
        <ele>1686.2</ele>
        <time>2023-05-19T12:18:56Z</time>
      </trkpt>
      <trkpt lat="44.60348" lon="5.97708">
        <ele>1686.2</ele>
        <time>2023-05-19T12:18:57Z</time>
      </trkpt>
      <trkpt lat="44.60347" lon="5.9771">
        <ele>1686.6</ele>
        <time>2023-05-19T12:18:58Z</time>
      </trkpt>
      <trkpt lat="44.60346" lon="5.9771">
        <ele>1686.8</ele>
        <time>2023-05-19T12:18:59Z</time>
      </trkpt>
      <trkpt lat="44.60345" lon="5.97711">
        <ele>1687</ele>
        <time>2023-05-19T12:19:00Z</time>
      </trkpt>
      <trkpt lat="44.60345" lon="5.97713">
        <ele>1687</ele>
        <time>2023-05-19T12:19:01Z</time>
      </trkpt>
      <trkpt lat="44.60344" lon="5.97715">
        <ele>1687.2</ele>
        <time>2023-05-19T12:19:02Z</time>
      </trkpt>
      <trkpt lat="44.60343" lon="5.97717">
        <ele>1687.4</ele>
        <time>2023-05-19T12:19:04Z</time>
      </trkpt>
      <trkpt lat="44.60342" lon="5.97718">
        <ele>1687.6</ele>
        <time>2023-05-19T12:19:05Z</time>
      </trkpt>
      <trkpt lat="44.60341" lon="5.9772">
        <ele>1687.8</ele>
        <time>2023-05-19T12:19:06Z</time>
      </trkpt>
      <trkpt lat="44.6034" lon="5.97721">
        <ele>1688</ele>
        <time>2023-05-19T12:19:07Z</time>
      </trkpt>
      <trkpt lat="44.60339" lon="5.97722">
        <ele>1688.2</ele>
        <time>2023-05-19T12:19:08Z</time>
      </trkpt>
      <trkpt lat="44.60338" lon="5.97723">
        <ele>1688.4</ele>
        <time>2023-05-19T12:19:09Z</time>
      </trkpt>
      <trkpt lat="44.60337" lon="5.97725">
        <ele>1688.4</ele>
        <time>2023-05-19T12:19:10Z</time>
      </trkpt>
      <trkpt lat="44.60336" lon="5.97727">
        <ele>1688.6</ele>
        <time>2023-05-19T12:19:11Z</time>
      </trkpt>
      <trkpt lat="44.60335" lon="5.97729">
        <ele>1688.8</ele>
        <time>2023-05-19T12:19:12Z</time>
      </trkpt>
      <trkpt lat="44.60335" lon="5.9773">
        <ele>1688.8</ele>
        <time>2023-05-19T12:19:13Z</time>
      </trkpt>
      <trkpt lat="44.60334" lon="5.97732">
        <ele>1689.2</ele>
        <time>2023-05-19T12:19:14Z</time>
      </trkpt>
      <trkpt lat="44.60333" lon="5.97734">
        <ele>1689.2</ele>
        <time>2023-05-19T12:19:15Z</time>
      </trkpt>
      <trkpt lat="44.60332" lon="5.97737">
        <ele>1689.4</ele>
        <time>2023-05-19T12:19:16Z</time>
      </trkpt>
      <trkpt lat="44.60331" lon="5.97739">
        <ele>1689.6</ele>
        <time>2023-05-19T12:19:17Z</time>
      </trkpt>
      <trkpt lat="44.6033" lon="5.97741">
        <ele>1689.6</ele>
        <time>2023-05-19T12:19:18Z</time>
      </trkpt>
      <trkpt lat="44.60329" lon="5.97743">
        <ele>1689.8</ele>
        <time>2023-05-19T12:19:19Z</time>
      </trkpt>
      <trkpt lat="44.60328" lon="5.97744">
        <ele>1689.8</ele>
        <time>2023-05-19T12:19:20Z</time>
      </trkpt>
      <trkpt lat="44.60327" lon="5.97746">
        <ele>1689.8</ele>
        <time>2023-05-19T12:19:21Z</time>
      </trkpt>
      <trkpt lat="44.60326" lon="5.97748">
        <ele>1690</ele>
        <time>2023-05-19T12:19:22Z</time>
      </trkpt>
      <trkpt lat="44.60324" lon="5.97749">
        <ele>1690</ele>
        <time>2023-05-19T12:19:23Z</time>
      </trkpt>
      <trkpt lat="44.60323" lon="5.97751">
        <ele>1690</ele>
        <time>2023-05-19T12:19:24Z</time>
      </trkpt>
      <trkpt lat="44.60322" lon="5.97753">
        <ele>1690.2</ele>
        <time>2023-05-19T12:19:25Z</time>
      </trkpt>
      <trkpt lat="44.60321" lon="5.97756">
        <ele>1690.2</ele>
        <time>2023-05-19T12:19:26Z</time>
      </trkpt>
      <trkpt lat="44.60319" lon="5.97758">
        <ele>1690.2</ele>
        <time>2023-05-19T12:19:27Z</time>
      </trkpt>
      <trkpt lat="44.60318" lon="5.97761">
        <ele>1690.4</ele>
        <time>2023-05-19T12:19:28Z</time>
      </trkpt>
      <trkpt lat="44.60317" lon="5.97764">
        <ele>1690.4</ele>
        <time>2023-05-19T12:19:29Z</time>
      </trkpt>
      <trkpt lat="44.60315" lon="5.97766">
        <ele>1690.4</ele>
        <time>2023-05-19T12:19:30Z</time>
      </trkpt>
      <trkpt lat="44.60313" lon="5.97769">
        <ele>1690.4</ele>
        <time>2023-05-19T12:19:31Z</time>
      </trkpt>
      <trkpt lat="44.60312" lon="5.97772">
        <ele>1690.6</ele>
        <time>2023-05-19T12:19:32Z</time>
      </trkpt>
      <trkpt lat="44.60311" lon="5.97775">
        <ele>1690.6</ele>
        <time>2023-05-19T12:19:33Z</time>
      </trkpt>
      <trkpt lat="44.6031" lon="5.97777">
        <ele>1690.6</ele>
        <time>2023-05-19T12:19:34Z</time>
      </trkpt>
      <trkpt lat="44.60308" lon="5.9778">
        <ele>1690.6</ele>
        <time>2023-05-19T12:19:35Z</time>
      </trkpt>
      <trkpt lat="44.60307" lon="5.97783">
        <ele>1690.6</ele>
        <time>2023-05-19T12:19:36Z</time>
      </trkpt>
      <trkpt lat="44.60294" lon="5.97809">
        <ele>1690.4</ele>
        <time>2023-05-19T12:19:44Z</time>
      </trkpt>
      <trkpt lat="44.60285" lon="5.97839">
        <ele>1689.6</ele>
        <time>2023-05-19T12:19:50Z</time>
      </trkpt>
      <trkpt lat="44.60282" lon="5.9785">
        <ele>1689.4</ele>
        <time>2023-05-19T12:19:52Z</time>
      </trkpt>
      <trkpt lat="44.60279" lon="5.97856">
        <ele>1689.2</ele>
        <time>2023-05-19T12:19:54Z</time>
      </trkpt>
      <trkpt lat="44.60278" lon="5.97858">
        <ele>1688.8</ele>
        <time>2023-05-19T12:19:55Z</time>
      </trkpt>
      <trkpt lat="44.60277" lon="5.9786">
        <ele>1688.6</ele>
        <time>2023-05-19T12:19:56Z</time>
      </trkpt>
      <trkpt lat="44.60277" lon="5.97862">
        <ele>1688.4</ele>
        <time>2023-05-19T12:19:57Z</time>
      </trkpt>
      <trkpt lat="44.60275" lon="5.97864">
        <ele>1688.2</ele>
        <time>2023-05-19T12:19:58Z</time>
      </trkpt>
      <trkpt lat="44.6027" lon="5.97877">
        <ele>1687.6</ele>
        <time>2023-05-19T12:20:02Z</time>
      </trkpt>
      <trkpt lat="44.60266" lon="5.97887">
        <ele>1687.4</ele>
        <time>2023-05-19T12:20:05Z</time>
      </trkpt>
      <trkpt lat="44.60263" lon="5.97898">
        <ele>1687.2</ele>
        <time>2023-05-19T12:20:08Z</time>
      </trkpt>
      <trkpt lat="44.60261" lon="5.97901">
        <ele>1687.2</ele>
        <time>2023-05-19T12:20:09Z</time>
      </trkpt>
      <trkpt lat="44.6026" lon="5.97904">
        <ele>1687.2</ele>
        <time>2023-05-19T12:20:10Z</time>
      </trkpt>
      <trkpt lat="44.60258" lon="5.97908">
        <ele>1687</ele>
        <time>2023-05-19T12:20:12Z</time>
      </trkpt>
      <trkpt lat="44.60257" lon="5.9791">
        <ele>1687</ele>
        <time>2023-05-19T12:20:13Z</time>
      </trkpt>
      <trkpt lat="44.60256" lon="5.97913">
        <ele>1687</ele>
        <time>2023-05-19T12:20:14Z</time>
      </trkpt>
      <trkpt lat="44.60255" lon="5.97916">
        <ele>1687</ele>
        <time>2023-05-19T12:20:15Z</time>
      </trkpt>
      <trkpt lat="44.60253" lon="5.97917">
        <ele>1687</ele>
        <time>2023-05-19T12:20:16Z</time>
      </trkpt>
      <trkpt lat="44.6025" lon="5.97923">
        <ele>1687</ele>
        <time>2023-05-19T12:20:18Z</time>
      </trkpt>
      <trkpt lat="44.60249" lon="5.97925">
        <ele>1687</ele>
        <time>2023-05-19T12:20:19Z</time>
      </trkpt>
      <trkpt lat="44.60248" lon="5.97927">
        <ele>1687</ele>
        <time>2023-05-19T12:20:20Z</time>
      </trkpt>
      <trkpt lat="44.60247" lon="5.97928">
        <ele>1687.2</ele>
        <time>2023-05-19T12:20:21Z</time>
      </trkpt>
      <trkpt lat="44.60246" lon="5.97931">
        <ele>1687.2</ele>
        <time>2023-05-19T12:20:22Z</time>
      </trkpt>
      <trkpt lat="44.60245" lon="5.97932">
        <ele>1687.2</ele>
        <time>2023-05-19T12:20:23Z</time>
      </trkpt>
      <trkpt lat="44.60245" lon="5.97935">
        <ele>1687.2</ele>
        <time>2023-05-19T12:20:24Z</time>
      </trkpt>
      <trkpt lat="44.60244" lon="5.97937">
        <ele>1687.2</ele>
        <time>2023-05-19T12:20:25Z</time>
      </trkpt>
      <trkpt lat="44.60244" lon="5.9794">
        <ele>1687.2</ele>
        <time>2023-05-19T12:20:26Z</time>
      </trkpt>
      <trkpt lat="44.60243" lon="5.97944">
        <ele>1687.2</ele>
        <time>2023-05-19T12:20:27Z</time>
      </trkpt>
      <trkpt lat="44.60243" lon="5.97947">
        <ele>1687.2</ele>
        <time>2023-05-19T12:20:28Z</time>
      </trkpt>
      <trkpt lat="44.60243" lon="5.9795">
        <ele>1687.4</ele>
        <time>2023-05-19T12:20:29Z</time>
      </trkpt>
      <trkpt lat="44.60242" lon="5.97952">
        <ele>1687.4</ele>
        <time>2023-05-19T12:20:30Z</time>
      </trkpt>
      <trkpt lat="44.60241" lon="5.97955">
        <ele>1687.4</ele>
        <time>2023-05-19T12:20:31Z</time>
      </trkpt>
      <trkpt lat="44.60237" lon="5.97959">
        <ele>1687.6</ele>
        <time>2023-05-19T12:20:33Z</time>
      </trkpt>
      <trkpt lat="44.60235" lon="5.97962">
        <ele>1687.6</ele>
        <time>2023-05-19T12:20:34Z</time>
      </trkpt>
      <trkpt lat="44.60233" lon="5.97963">
        <ele>1687.8</ele>
        <time>2023-05-19T12:20:35Z</time>
      </trkpt>
      <trkpt lat="44.60233" lon="5.97965">
        <ele>1687.8</ele>
        <time>2023-05-19T12:20:36Z</time>
      </trkpt>
      <trkpt lat="44.60233" lon="5.97968">
        <ele>1688</ele>
        <time>2023-05-19T12:20:37Z</time>
      </trkpt>
      <trkpt lat="44.6023" lon="5.97971">
        <ele>1688</ele>
        <time>2023-05-19T12:20:38Z</time>
      </trkpt>
      <trkpt lat="44.60229" lon="5.97975">
        <ele>1688</ele>
        <time>2023-05-19T12:20:39Z</time>
      </trkpt>
      <trkpt lat="44.60227" lon="5.97981">
        <ele>1688.4</ele>
        <time>2023-05-19T12:20:41Z</time>
      </trkpt>
      <trkpt lat="44.60227" lon="5.97983">
        <ele>1688.4</ele>
        <time>2023-05-19T12:20:42Z</time>
      </trkpt>
      <trkpt lat="44.60227" lon="5.97983">
        <ele>1688.6</ele>
        <time>2023-05-19T12:20:43Z</time>
      </trkpt>
      <trkpt lat="44.60226" lon="5.97985">
        <ele>1688.6</ele>
        <time>2023-05-19T12:20:44Z</time>
      </trkpt>
      <trkpt lat="44.60225" lon="5.97989">
        <ele>1688.6</ele>
        <time>2023-05-19T12:20:45Z</time>
      </trkpt>
      <trkpt lat="44.60224" lon="5.97993">
        <ele>1688.8</ele>
        <time>2023-05-19T12:20:46Z</time>
      </trkpt>
      <trkpt lat="44.60221" lon="5.97999">
        <ele>1688.8</ele>
        <time>2023-05-19T12:20:48Z</time>
      </trkpt>
      <trkpt lat="44.6022" lon="5.98">
        <ele>1689</ele>
        <time>2023-05-19T12:20:49Z</time>
      </trkpt>
      <trkpt lat="44.60219" lon="5.98002">
        <ele>1689</ele>
        <time>2023-05-19T12:20:50Z</time>
      </trkpt>
      <trkpt lat="44.60212" lon="5.98012">
        <ele>1689.6</ele>
        <time>2023-05-19T12:20:57Z</time>
      </trkpt>
      <trkpt lat="44.60211" lon="5.98014">
        <ele>1689.6</ele>
        <time>2023-05-19T12:20:59Z</time>
      </trkpt>
      <trkpt lat="44.6021" lon="5.98016">
        <ele>1689.6</ele>
        <time>2023-05-19T12:21:00Z</time>
      </trkpt>
      <trkpt lat="44.6021" lon="5.98018">
        <ele>1689.6</ele>
        <time>2023-05-19T12:21:01Z</time>
      </trkpt>
      <trkpt lat="44.60209" lon="5.9802">
        <ele>1689.8</ele>
        <time>2023-05-19T12:21:02Z</time>
      </trkpt>
      <trkpt lat="44.60206" lon="5.98025">
        <ele>1690.4</ele>
        <time>2023-05-19T12:21:05Z</time>
      </trkpt>
      <trkpt lat="44.60205" lon="5.98027">
        <ele>1690.4</ele>
        <time>2023-05-19T12:21:06Z</time>
      </trkpt>
      <trkpt lat="44.60199" lon="5.98043">
        <ele>1691</ele>
        <time>2023-05-19T12:21:14Z</time>
      </trkpt>
      <trkpt lat="44.60199" lon="5.98046">
        <ele>1691.2</ele>
        <time>2023-05-19T12:21:15Z</time>
      </trkpt>
      <trkpt lat="44.60191" lon="5.98065">
        <ele>1691.4</ele>
        <time>2023-05-19T12:21:24Z</time>
      </trkpt>
      <trkpt lat="44.6019" lon="5.98067">
        <ele>1691.4</ele>
        <time>2023-05-19T12:21:25Z</time>
      </trkpt>
      <trkpt lat="44.60187" lon="5.98076">
        <ele>1691.6</ele>
        <time>2023-05-19T12:21:29Z</time>
      </trkpt>
      <trkpt lat="44.60186" lon="5.98079">
        <ele>1691.6</ele>
        <time>2023-05-19T12:21:30Z</time>
      </trkpt>
      <trkpt lat="44.60185" lon="5.98081">
        <ele>1691.6</ele>
        <time>2023-05-19T12:21:31Z</time>
      </trkpt>
      <trkpt lat="44.6018" lon="5.98091">
        <ele>1692.2</ele>
        <time>2023-05-19T12:21:37Z</time>
      </trkpt>
      <trkpt lat="44.6018" lon="5.98094">
        <ele>1692.2</ele>
        <time>2023-05-19T12:21:38Z</time>
      </trkpt>
      <trkpt lat="44.60179" lon="5.98095">
        <ele>1692.4</ele>
        <time>2023-05-19T12:21:39Z</time>
      </trkpt>
      <trkpt lat="44.60177" lon="5.98097">
        <ele>1692.4</ele>
        <time>2023-05-19T12:21:40Z</time>
      </trkpt>
      <trkpt lat="44.60176" lon="5.98099">
        <ele>1692.6</ele>
        <time>2023-05-19T12:21:41Z</time>
      </trkpt>
      <trkpt lat="44.60175" lon="5.981">
        <ele>1692.6</ele>
        <time>2023-05-19T12:21:42Z</time>
      </trkpt>
      <trkpt lat="44.6017" lon="5.9811">
        <ele>1693.2</ele>
        <time>2023-05-19T12:21:47Z</time>
      </trkpt>
      <trkpt lat="44.60169" lon="5.98112">
        <ele>1693.4</ele>
        <time>2023-05-19T12:21:48Z</time>
      </trkpt>
      <trkpt lat="44.60159" lon="5.98132">
        <ele>1694</ele>
        <time>2023-05-19T12:21:57Z</time>
      </trkpt>
      <trkpt lat="44.60157" lon="5.98136">
        <ele>1694.4</ele>
        <time>2023-05-19T12:21:59Z</time>
      </trkpt>
      <trkpt lat="44.60151" lon="5.9815">
        <ele>1694.8</ele>
        <time>2023-05-19T12:22:05Z</time>
      </trkpt>
      <trkpt lat="44.6015" lon="5.98152">
        <ele>1695</ele>
        <time>2023-05-19T12:22:06Z</time>
      </trkpt>
      <trkpt lat="44.60149" lon="5.98154">
        <ele>1695</ele>
        <time>2023-05-19T12:22:07Z</time>
      </trkpt>
      <trkpt lat="44.60143" lon="5.98173">
        <ele>1695.2</ele>
        <time>2023-05-19T12:22:14Z</time>
      </trkpt>
      <trkpt lat="44.60139" lon="5.98193">
        <ele>1695.2</ele>
        <time>2023-05-19T12:22:20Z</time>
      </trkpt>
      <trkpt lat="44.60138" lon="5.98198">
        <ele>1695.2</ele>
        <time>2023-05-19T12:22:22Z</time>
      </trkpt>
      <trkpt lat="44.60136" lon="5.9821">
        <ele>1695.2</ele>
        <time>2023-05-19T12:22:26Z</time>
      </trkpt>
      <trkpt lat="44.60135" lon="5.98215">
        <ele>1695.2</ele>
        <time>2023-05-19T12:22:28Z</time>
      </trkpt>
      <trkpt lat="44.60134" lon="5.98217">
        <ele>1695.2</ele>
        <time>2023-05-19T12:22:29Z</time>
      </trkpt>
      <trkpt lat="44.60134" lon="5.98219">
        <ele>1695.2</ele>
        <time>2023-05-19T12:22:30Z</time>
      </trkpt>
      <trkpt lat="44.60133" lon="5.98221">
        <ele>1695.2</ele>
        <time>2023-05-19T12:22:31Z</time>
      </trkpt>
      <trkpt lat="44.60133" lon="5.98223">
        <ele>1695.2</ele>
        <time>2023-05-19T12:22:32Z</time>
      </trkpt>
      <trkpt lat="44.60132" lon="5.98225">
        <ele>1695.2</ele>
        <time>2023-05-19T12:22:33Z</time>
      </trkpt>
      <trkpt lat="44.60132" lon="5.98226">
        <ele>1695.2</ele>
        <time>2023-05-19T12:22:34Z</time>
      </trkpt>
      <trkpt lat="44.60132" lon="5.98226">
        <ele>1695.2</ele>
        <time>2023-05-19T12:22:35Z</time>
      </trkpt>
      <trkpt lat="44.60132" lon="5.98226">
        <ele>1695.4</ele>
        <time>2023-05-19T12:22:37Z</time>
      </trkpt>
      <trkpt lat="44.60132" lon="5.98226">
        <ele>1695.6</ele>
        <time>2023-05-19T12:22:40Z</time>
      </trkpt>
      <trkpt lat="44.60132" lon="5.98226">
        <ele>1695.8</ele>
        <time>2023-05-19T12:22:59Z</time>
      </trkpt>
      <trkpt lat="44.60132" lon="5.98228">
        <ele>1695.8</ele>
        <time>2023-05-19T12:23:01Z</time>
      </trkpt>
      <trkpt lat="44.60131" lon="5.98235">
        <ele>1695.8</ele>
        <time>2023-05-19T12:23:04Z</time>
      </trkpt>
      <trkpt lat="44.6013" lon="5.98239">
        <ele>1695.8</ele>
        <time>2023-05-19T12:23:06Z</time>
      </trkpt>
      <trkpt lat="44.6013" lon="5.98242">
        <ele>1695.8</ele>
        <time>2023-05-19T12:23:07Z</time>
      </trkpt>
      <trkpt lat="44.60129" lon="5.98249">
        <ele>1695.8</ele>
        <time>2023-05-19T12:23:10Z</time>
      </trkpt>
      <trkpt lat="44.60127" lon="5.98257">
        <ele>1696</ele>
        <time>2023-05-19T12:23:14Z</time>
      </trkpt>
      <trkpt lat="44.60126" lon="5.9826">
        <ele>1696.4</ele>
        <time>2023-05-19T12:23:16Z</time>
      </trkpt>
      <trkpt lat="44.60126" lon="5.98261">
        <ele>1696.4</ele>
        <time>2023-05-19T12:23:17Z</time>
      </trkpt>
      <trkpt lat="44.60126" lon="5.98262">
        <ele>1696.6</ele>
        <time>2023-05-19T12:23:18Z</time>
      </trkpt>
      <trkpt lat="44.60126" lon="5.98263">
        <ele>1696.8</ele>
        <time>2023-05-19T12:23:19Z</time>
      </trkpt>
      <trkpt lat="44.60126" lon="5.98263">
        <ele>1697</ele>
        <time>2023-05-19T12:23:20Z</time>
      </trkpt>
      <trkpt lat="44.60126" lon="5.98263">
        <ele>1697</ele>
        <time>2023-05-19T12:23:21Z</time>
      </trkpt>
      <trkpt lat="44.60126" lon="5.98263">
        <ele>1697.2</ele>
        <time>2023-05-19T12:23:22Z</time>
      </trkpt>
      <trkpt lat="44.60126" lon="5.98263">
        <ele>1697.6</ele>
        <time>2023-05-19T12:23:30Z</time>
      </trkpt>
      <trkpt lat="44.60126" lon="5.98263">
        <ele>1697.6</ele>
        <time>2023-05-19T12:23:33Z</time>
      </trkpt>
      <trkpt lat="44.60124" lon="5.98271">
        <ele>1697.8</ele>
        <time>2023-05-19T12:23:49Z</time>
      </trkpt>
      <trkpt lat="44.60124" lon="5.98278">
        <ele>1697.8</ele>
        <time>2023-05-19T12:23:52Z</time>
      </trkpt>
      <trkpt lat="44.60123" lon="5.9828">
        <ele>1698</ele>
        <time>2023-05-19T12:23:53Z</time>
      </trkpt>
      <trkpt lat="44.60121" lon="5.98283">
        <ele>1698</ele>
        <time>2023-05-19T12:23:55Z</time>
      </trkpt>
      <trkpt lat="44.60121" lon="5.98284">
        <ele>1698</ele>
        <time>2023-05-19T12:23:56Z</time>
      </trkpt>
      <trkpt lat="44.6012" lon="5.98285">
        <ele>1698</ele>
        <time>2023-05-19T12:23:57Z</time>
      </trkpt>
      <trkpt lat="44.6012" lon="5.98285">
        <ele>1698.2</ele>
        <time>2023-05-19T12:23:59Z</time>
      </trkpt>
      <trkpt lat="44.6012" lon="5.98287">
        <ele>1698.2</ele>
        <time>2023-05-19T12:24:00Z</time>
      </trkpt>
      <trkpt lat="44.60116" lon="5.98295">
        <ele>1698</ele>
        <time>2023-05-19T12:24:03Z</time>
      </trkpt>
      <trkpt lat="44.60115" lon="5.98297">
        <ele>1698</ele>
        <time>2023-05-19T12:24:04Z</time>
      </trkpt>
      <trkpt lat="44.60113" lon="5.98299">
        <ele>1697.8</ele>
        <time>2023-05-19T12:24:05Z</time>
      </trkpt>
      <trkpt lat="44.60111" lon="5.983">
        <ele>1697.8</ele>
        <time>2023-05-19T12:24:06Z</time>
      </trkpt>
      <trkpt lat="44.6011" lon="5.98301">
        <ele>1697.8</ele>
        <time>2023-05-19T12:24:07Z</time>
      </trkpt>
      <trkpt lat="44.6011" lon="5.98301">
        <ele>1697.6</ele>
        <time>2023-05-19T12:24:08Z</time>
      </trkpt>
      <trkpt lat="44.6011" lon="5.98301">
        <ele>1697.6</ele>
        <time>2023-05-19T12:24:09Z</time>
      </trkpt>
      <trkpt lat="44.6011" lon="5.98301">
        <ele>1697</ele>
        <time>2023-05-19T12:24:19Z</time>
      </trkpt>
      <trkpt lat="44.60111" lon="5.98301">
        <ele>1696.6</ele>
        <time>2023-05-19T12:25:48Z</time>
      </trkpt>
      <trkpt lat="44.60111" lon="5.98301">
        <ele>1696.4</ele>
        <time>2023-05-19T12:26:04Z</time>
      </trkpt>
      <trkpt lat="44.6011" lon="5.98302">
        <ele>1696.4</ele>
        <time>2023-05-19T12:26:14Z</time>
      </trkpt>
      <trkpt lat="44.60109" lon="5.98304">
        <ele>1696.6</ele>
        <time>2023-05-19T12:26:15Z</time>
      </trkpt>
      <trkpt lat="44.60108" lon="5.98305">
        <ele>1696.6</ele>
        <time>2023-05-19T12:26:16Z</time>
      </trkpt>
      <trkpt lat="44.60106" lon="5.98306">
        <ele>1696.6</ele>
        <time>2023-05-19T12:26:17Z</time>
      </trkpt>
      <trkpt lat="44.60101" lon="5.9831">
        <ele>1696.6</ele>
        <time>2023-05-19T12:26:21Z</time>
      </trkpt>
      <trkpt lat="44.60099" lon="5.98311">
        <ele>1696.8</ele>
        <time>2023-05-19T12:26:22Z</time>
      </trkpt>
      <trkpt lat="44.60094" lon="5.98315">
        <ele>1697</ele>
        <time>2023-05-19T12:26:26Z</time>
      </trkpt>
      <trkpt lat="44.60087" lon="5.98321">
        <ele>1697.2</ele>
        <time>2023-05-19T12:26:31Z</time>
      </trkpt>
      <trkpt lat="44.60085" lon="5.98322">
        <ele>1697.2</ele>
        <time>2023-05-19T12:26:33Z</time>
      </trkpt>
      <trkpt lat="44.60079" lon="5.98324">
        <ele>1697.4</ele>
        <time>2023-05-19T12:26:37Z</time>
      </trkpt>
      <trkpt lat="44.60076" lon="5.98325">
        <ele>1697.6</ele>
        <time>2023-05-19T12:26:39Z</time>
      </trkpt>
      <trkpt lat="44.60075" lon="5.98326">
        <ele>1697.8</ele>
        <time>2023-05-19T12:26:40Z</time>
      </trkpt>
      <trkpt lat="44.60074" lon="5.98326">
        <ele>1697.8</ele>
        <time>2023-05-19T12:26:41Z</time>
      </trkpt>
      <trkpt lat="44.60073" lon="5.98327">
        <ele>1698</ele>
        <time>2023-05-19T12:26:42Z</time>
      </trkpt>
      <trkpt lat="44.60072" lon="5.98327">
        <ele>1698</ele>
        <time>2023-05-19T12:26:43Z</time>
      </trkpt>
      <trkpt lat="44.60071" lon="5.98328">
        <ele>1698.2</ele>
        <time>2023-05-19T12:26:44Z</time>
      </trkpt>
      <trkpt lat="44.6007" lon="5.98328">
        <ele>1698.4</ele>
        <time>2023-05-19T12:26:45Z</time>
      </trkpt>
      <trkpt lat="44.60069" lon="5.98329">
        <ele>1698.4</ele>
        <time>2023-05-19T12:26:46Z</time>
      </trkpt>
      <trkpt lat="44.60068" lon="5.98329">
        <ele>1698.4</ele>
        <time>2023-05-19T12:26:47Z</time>
      </trkpt>
      <trkpt lat="44.60067" lon="5.98329">
        <ele>1698.6</ele>
        <time>2023-05-19T12:26:48Z</time>
      </trkpt>
      <trkpt lat="44.60067" lon="5.9833">
        <ele>1698.8</ele>
        <time>2023-05-19T12:26:49Z</time>
      </trkpt>
      <trkpt lat="44.60065" lon="5.9833">
        <ele>1698.8</ele>
        <time>2023-05-19T12:26:50Z</time>
      </trkpt>
      <trkpt lat="44.60064" lon="5.98331">
        <ele>1699</ele>
        <time>2023-05-19T12:26:51Z</time>
      </trkpt>
      <trkpt lat="44.60061" lon="5.98332">
        <ele>1699.2</ele>
        <time>2023-05-19T12:26:54Z</time>
      </trkpt>
      <trkpt lat="44.60053" lon="5.98335">
        <ele>1699.8</ele>
        <time>2023-05-19T12:27:01Z</time>
      </trkpt>
      <trkpt lat="44.6005" lon="5.98337">
        <ele>1700</ele>
        <time>2023-05-19T12:27:04Z</time>
      </trkpt>
      <trkpt lat="44.60049" lon="5.98337">
        <ele>1700.2</ele>
        <time>2023-05-19T12:27:05Z</time>
      </trkpt>
      <trkpt lat="44.60047" lon="5.98338">
        <ele>1700.4</ele>
        <time>2023-05-19T12:27:07Z</time>
      </trkpt>
      <trkpt lat="44.60046" lon="5.98339">
        <ele>1700.4</ele>
        <time>2023-05-19T12:27:08Z</time>
      </trkpt>
      <trkpt lat="44.60041" lon="5.9834">
        <ele>1700.6</ele>
        <time>2023-05-19T12:27:12Z</time>
      </trkpt>
      <trkpt lat="44.6004" lon="5.98341">
        <ele>1700.6</ele>
        <time>2023-05-19T12:27:13Z</time>
      </trkpt>
      <trkpt lat="44.60029" lon="5.98348">
        <ele>1700.8</ele>
        <time>2023-05-19T12:27:21Z</time>
      </trkpt>
      <trkpt lat="44.60026" lon="5.98349">
        <ele>1701</ele>
        <time>2023-05-19T12:27:23Z</time>
      </trkpt>
      <trkpt lat="44.60011" lon="5.98355">
        <ele>1701</ele>
        <time>2023-05-19T12:27:33Z</time>
      </trkpt>
      <trkpt lat="44.59999" lon="5.98359">
        <ele>1701.2</ele>
        <time>2023-05-19T12:27:41Z</time>
      </trkpt>
      <trkpt lat="44.59997" lon="5.9836">
        <ele>1701.2</ele>
        <time>2023-05-19T12:27:42Z</time>
      </trkpt>
      <trkpt lat="44.59996" lon="5.9836">
        <ele>1701.4</ele>
        <time>2023-05-19T12:27:43Z</time>
      </trkpt>
      <trkpt lat="44.59994" lon="5.9836">
        <ele>1701.4</ele>
        <time>2023-05-19T12:27:44Z</time>
      </trkpt>
      <trkpt lat="44.5999" lon="5.98361">
        <ele>1701.6</ele>
        <time>2023-05-19T12:27:47Z</time>
      </trkpt>
      <trkpt lat="44.59989" lon="5.98361">
        <ele>1701.6</ele>
        <time>2023-05-19T12:27:48Z</time>
      </trkpt>
      <trkpt lat="44.59988" lon="5.98362">
        <ele>1701.6</ele>
        <time>2023-05-19T12:27:49Z</time>
      </trkpt>
      <trkpt lat="44.59986" lon="5.98362">
        <ele>1701.6</ele>
        <time>2023-05-19T12:27:50Z</time>
      </trkpt>
      <trkpt lat="44.59985" lon="5.98362">
        <ele>1701.6</ele>
        <time>2023-05-19T12:27:51Z</time>
      </trkpt>
      <trkpt lat="44.59984" lon="5.98363">
        <ele>1701.6</ele>
        <time>2023-05-19T12:27:52Z</time>
      </trkpt>
      <trkpt lat="44.59982" lon="5.98363">
        <ele>1701.8</ele>
        <time>2023-05-19T12:27:53Z</time>
      </trkpt>
      <trkpt lat="44.59981" lon="5.98363">
        <ele>1701.8</ele>
        <time>2023-05-19T12:27:54Z</time>
      </trkpt>
      <trkpt lat="44.5998" lon="5.98363">
        <ele>1702</ele>
        <time>2023-05-19T12:27:55Z</time>
      </trkpt>
      <trkpt lat="44.59979" lon="5.98363">
        <ele>1702</ele>
        <time>2023-05-19T12:27:56Z</time>
      </trkpt>
      <trkpt lat="44.59977" lon="5.98362">
        <ele>1702</ele>
        <time>2023-05-19T12:27:57Z</time>
      </trkpt>
      <trkpt lat="44.59977" lon="5.98362">
        <ele>1702</ele>
        <time>2023-05-19T12:27:58Z</time>
      </trkpt>
      <trkpt lat="44.59975" lon="5.98362">
        <ele>1702.2</ele>
        <time>2023-05-19T12:27:59Z</time>
      </trkpt>
      <trkpt lat="44.59971" lon="5.98362">
        <ele>1702.4</ele>
        <time>2023-05-19T12:28:02Z</time>
      </trkpt>
      <trkpt lat="44.5997" lon="5.98362">
        <ele>1702.6</ele>
        <time>2023-05-19T12:28:03Z</time>
      </trkpt>
      <trkpt lat="44.59969" lon="5.98362">
        <ele>1703</ele>
        <time>2023-05-19T12:28:04Z</time>
      </trkpt>
      <trkpt lat="44.59968" lon="5.98362">
        <ele>1703.2</ele>
        <time>2023-05-19T12:28:05Z</time>
      </trkpt>
      <trkpt lat="44.59967" lon="5.98363">
        <ele>1703.4</ele>
        <time>2023-05-19T12:28:06Z</time>
      </trkpt>
      <trkpt lat="44.59966" lon="5.98363">
        <ele>1703.4</ele>
        <time>2023-05-19T12:28:07Z</time>
      </trkpt>
      <trkpt lat="44.59956" lon="5.98364">
        <ele>1704</ele>
        <time>2023-05-19T12:28:14Z</time>
      </trkpt>
      <trkpt lat="44.59952" lon="5.98364">
        <ele>1704.4</ele>
        <time>2023-05-19T12:28:17Z</time>
      </trkpt>
      <trkpt lat="44.59948" lon="5.98366">
        <ele>1704.8</ele>
        <time>2023-05-19T12:28:20Z</time>
      </trkpt>
      <trkpt lat="44.5993" lon="5.98367">
        <ele>1705.4</ele>
        <time>2023-05-19T12:28:31Z</time>
      </trkpt>
      <trkpt lat="44.59917" lon="5.9837">
        <ele>1705.6</ele>
        <time>2023-05-19T12:28:38Z</time>
      </trkpt>
      <trkpt lat="44.59916" lon="5.9837">
        <ele>1705.6</ele>
        <time>2023-05-19T12:28:39Z</time>
      </trkpt>
      <trkpt lat="44.59908" lon="5.98369">
        <ele>1705.8</ele>
        <time>2023-05-19T12:28:44Z</time>
      </trkpt>
      <trkpt lat="44.59906" lon="5.98369">
        <ele>1705.8</ele>
        <time>2023-05-19T12:28:45Z</time>
      </trkpt>
      <trkpt lat="44.59905" lon="5.98369">
        <ele>1705.8</ele>
        <time>2023-05-19T12:28:46Z</time>
      </trkpt>
      <trkpt lat="44.59903" lon="5.98369">
        <ele>1705.8</ele>
        <time>2023-05-19T12:28:47Z</time>
      </trkpt>
      <trkpt lat="44.59901" lon="5.98369">
        <ele>1705.8</ele>
        <time>2023-05-19T12:28:48Z</time>
      </trkpt>
      <trkpt lat="44.59899" lon="5.98369">
        <ele>1705.8</ele>
        <time>2023-05-19T12:28:49Z</time>
      </trkpt>
      <trkpt lat="44.59897" lon="5.98369">
        <ele>1705.8</ele>
        <time>2023-05-19T12:28:50Z</time>
      </trkpt>
      <trkpt lat="44.59887" lon="5.98369">
        <ele>1705.8</ele>
        <time>2023-05-19T12:28:55Z</time>
      </trkpt>
      <trkpt lat="44.59879" lon="5.9837">
        <ele>1706</ele>
        <time>2023-05-19T12:29:00Z</time>
      </trkpt>
      <trkpt lat="44.59877" lon="5.9837">
        <ele>1706.2</ele>
        <time>2023-05-19T12:29:01Z</time>
      </trkpt>
      <trkpt lat="44.59875" lon="5.98371">
        <ele>1706.2</ele>
        <time>2023-05-19T12:29:02Z</time>
      </trkpt>
      <trkpt lat="44.59874" lon="5.98371">
        <ele>1706.2</ele>
        <time>2023-05-19T12:29:03Z</time>
      </trkpt>
      <trkpt lat="44.59872" lon="5.98371">
        <ele>1706.2</ele>
        <time>2023-05-19T12:29:04Z</time>
      </trkpt>
      <trkpt lat="44.5987" lon="5.98371">
        <ele>1706.4</ele>
        <time>2023-05-19T12:29:05Z</time>
      </trkpt>
      <trkpt lat="44.59868" lon="5.98372">
        <ele>1706.4</ele>
        <time>2023-05-19T12:29:06Z</time>
      </trkpt>
      <trkpt lat="44.59866" lon="5.98372">
        <ele>1706.4</ele>
        <time>2023-05-19T12:29:07Z</time>
      </trkpt>
      <trkpt lat="44.59864" lon="5.98373">
        <ele>1706.4</ele>
        <time>2023-05-19T12:29:08Z</time>
      </trkpt>
      <trkpt lat="44.59858" lon="5.98374">
        <ele>1706.4</ele>
        <time>2023-05-19T12:29:11Z</time>
      </trkpt>
      <trkpt lat="44.59845" lon="5.98374">
        <ele>1706.4</ele>
        <time>2023-05-19T12:29:18Z</time>
      </trkpt>
      <trkpt lat="44.59841" lon="5.98375">
        <ele>1706.4</ele>
        <time>2023-05-19T12:29:21Z</time>
      </trkpt>
      <trkpt lat="44.59839" lon="5.98375">
        <ele>1706.4</ele>
        <time>2023-05-19T12:29:22Z</time>
      </trkpt>
      <trkpt lat="44.59838" lon="5.98375">
        <ele>1706.4</ele>
        <time>2023-05-19T12:29:23Z</time>
      </trkpt>
      <trkpt lat="44.59836" lon="5.98376">
        <ele>1706.4</ele>
        <time>2023-05-19T12:29:24Z</time>
      </trkpt>
      <trkpt lat="44.59835" lon="5.98376">
        <ele>1706.4</ele>
        <time>2023-05-19T12:29:25Z</time>
      </trkpt>
      <trkpt lat="44.59833" lon="5.98376">
        <ele>1706.4</ele>
        <time>2023-05-19T12:29:26Z</time>
      </trkpt>
      <trkpt lat="44.59832" lon="5.98376">
        <ele>1706.4</ele>
        <time>2023-05-19T12:29:27Z</time>
      </trkpt>
      <trkpt lat="44.59831" lon="5.98377">
        <ele>1706.6</ele>
        <time>2023-05-19T12:29:28Z</time>
      </trkpt>
      <trkpt lat="44.5983" lon="5.98377">
        <ele>1706.6</ele>
        <time>2023-05-19T12:29:29Z</time>
      </trkpt>
      <trkpt lat="44.59828" lon="5.98377">
        <ele>1706.8</ele>
        <time>2023-05-19T12:29:30Z</time>
      </trkpt>
      <trkpt lat="44.59827" lon="5.98377">
        <ele>1706.8</ele>
        <time>2023-05-19T12:29:31Z</time>
      </trkpt>
      <trkpt lat="44.59825" lon="5.98377">
        <ele>1707</ele>
        <time>2023-05-19T12:29:32Z</time>
      </trkpt>
      <trkpt lat="44.59823" lon="5.98377">
        <ele>1707</ele>
        <time>2023-05-19T12:29:33Z</time>
      </trkpt>
      <trkpt lat="44.59822" lon="5.98377">
        <ele>1707</ele>
        <time>2023-05-19T12:29:34Z</time>
      </trkpt>
      <trkpt lat="44.59808" lon="5.9838">
        <ele>1707.6</ele>
        <time>2023-05-19T12:29:42Z</time>
      </trkpt>
      <trkpt lat="44.59807" lon="5.9838">
        <ele>1707.6</ele>
        <time>2023-05-19T12:29:43Z</time>
      </trkpt>
      <trkpt lat="44.59805" lon="5.9838">
        <ele>1707.8</ele>
        <time>2023-05-19T12:29:44Z</time>
      </trkpt>
      <trkpt lat="44.59804" lon="5.9838">
        <ele>1708</ele>
        <time>2023-05-19T12:29:45Z</time>
      </trkpt>
      <trkpt lat="44.59802" lon="5.9838">
        <ele>1708</ele>
        <time>2023-05-19T12:29:46Z</time>
      </trkpt>
      <trkpt lat="44.598" lon="5.98379">
        <ele>1708.4</ele>
        <time>2023-05-19T12:29:48Z</time>
      </trkpt>
      <trkpt lat="44.59799" lon="5.9838">
        <ele>1708.6</ele>
        <time>2023-05-19T12:29:49Z</time>
      </trkpt>
      <trkpt lat="44.59797" lon="5.9838">
        <ele>1708.6</ele>
        <time>2023-05-19T12:29:50Z</time>
      </trkpt>
      <trkpt lat="44.59796" lon="5.9838">
        <ele>1709</ele>
        <time>2023-05-19T12:29:51Z</time>
      </trkpt>
      <trkpt lat="44.59794" lon="5.98381">
        <ele>1709</ele>
        <time>2023-05-19T12:29:52Z</time>
      </trkpt>
      <trkpt lat="44.59786" lon="5.98382">
        <ele>1709.8</ele>
        <time>2023-05-19T12:29:57Z</time>
      </trkpt>
      <trkpt lat="44.59784" lon="5.98382">
        <ele>1710</ele>
        <time>2023-05-19T12:29:58Z</time>
      </trkpt>
      <trkpt lat="44.59782" lon="5.98381">
        <ele>1710.2</ele>
        <time>2023-05-19T12:29:59Z</time>
      </trkpt>
      <trkpt lat="44.59781" lon="5.98381">
        <ele>1710.2</ele>
        <time>2023-05-19T12:30:00Z</time>
      </trkpt>
      <trkpt lat="44.59779" lon="5.98382">
        <ele>1710.2</ele>
        <time>2023-05-19T12:30:01Z</time>
      </trkpt>
      <trkpt lat="44.59778" lon="5.98383">
        <ele>1710.4</ele>
        <time>2023-05-19T12:30:02Z</time>
      </trkpt>
      <trkpt lat="44.59777" lon="5.98383">
        <ele>1710.4</ele>
        <time>2023-05-19T12:30:03Z</time>
      </trkpt>
      <trkpt lat="44.59775" lon="5.98383">
        <ele>1710.6</ele>
        <time>2023-05-19T12:30:04Z</time>
      </trkpt>
      <trkpt lat="44.59773" lon="5.98383">
        <ele>1710.6</ele>
        <time>2023-05-19T12:30:05Z</time>
      </trkpt>
      <trkpt lat="44.59772" lon="5.98384">
        <ele>1710.8</ele>
        <time>2023-05-19T12:30:06Z</time>
      </trkpt>
      <trkpt lat="44.5977" lon="5.98384">
        <ele>1710.8</ele>
        <time>2023-05-19T12:30:07Z</time>
      </trkpt>
      <trkpt lat="44.59769" lon="5.98384">
        <ele>1710.8</ele>
        <time>2023-05-19T12:30:08Z</time>
      </trkpt>
      <trkpt lat="44.59768" lon="5.98385">
        <ele>1711</ele>
        <time>2023-05-19T12:30:09Z</time>
      </trkpt>
      <trkpt lat="44.59767" lon="5.98386">
        <ele>1711</ele>
        <time>2023-05-19T12:30:10Z</time>
      </trkpt>
      <trkpt lat="44.59765" lon="5.98387">
        <ele>1711</ele>
        <time>2023-05-19T12:30:11Z</time>
      </trkpt>
      <trkpt lat="44.59763" lon="5.98388">
        <ele>1711.2</ele>
        <time>2023-05-19T12:30:12Z</time>
      </trkpt>
      <trkpt lat="44.59762" lon="5.98389">
        <ele>1711.2</ele>
        <time>2023-05-19T12:30:13Z</time>
      </trkpt>
      <trkpt lat="44.5976" lon="5.9839">
        <ele>1711.4</ele>
        <time>2023-05-19T12:30:14Z</time>
      </trkpt>
      <trkpt lat="44.59759" lon="5.9839">
        <ele>1711.4</ele>
        <time>2023-05-19T12:30:15Z</time>
      </trkpt>
      <trkpt lat="44.59757" lon="5.9839">
        <ele>1711.6</ele>
        <time>2023-05-19T12:30:16Z</time>
      </trkpt>
      <trkpt lat="44.59756" lon="5.98391">
        <ele>1711.6</ele>
        <time>2023-05-19T12:30:17Z</time>
      </trkpt>
      <trkpt lat="44.59755" lon="5.98391">
        <ele>1711.8</ele>
        <time>2023-05-19T12:30:18Z</time>
      </trkpt>
      <trkpt lat="44.59754" lon="5.98391">
        <ele>1711.8</ele>
        <time>2023-05-19T12:30:19Z</time>
      </trkpt>
      <trkpt lat="44.59752" lon="5.98392">
        <ele>1711.8</ele>
        <time>2023-05-19T12:30:20Z</time>
      </trkpt>
      <trkpt lat="44.59751" lon="5.98392">
        <ele>1711.8</ele>
        <time>2023-05-19T12:30:21Z</time>
      </trkpt>
      <trkpt lat="44.59749" lon="5.98392">
        <ele>1712</ele>
        <time>2023-05-19T12:30:22Z</time>
      </trkpt>
      <trkpt lat="44.59748" lon="5.98392">
        <ele>1712.2</ele>
        <time>2023-05-19T12:30:23Z</time>
      </trkpt>
      <trkpt lat="44.59747" lon="5.98392">
        <ele>1712.2</ele>
        <time>2023-05-19T12:30:24Z</time>
      </trkpt>
      <trkpt lat="44.59746" lon="5.98392">
        <ele>1712.4</ele>
        <time>2023-05-19T12:30:25Z</time>
      </trkpt>
      <trkpt lat="44.59744" lon="5.98391">
        <ele>1712.4</ele>
        <time>2023-05-19T12:30:26Z</time>
      </trkpt>
      <trkpt lat="44.59743" lon="5.98391">
        <ele>1712.4</ele>
        <time>2023-05-19T12:30:27Z</time>
      </trkpt>
      <trkpt lat="44.59741" lon="5.98391">
        <ele>1712.6</ele>
        <time>2023-05-19T12:30:29Z</time>
      </trkpt>
      <trkpt lat="44.59739" lon="5.9839">
        <ele>1713</ele>
        <time>2023-05-19T12:30:31Z</time>
      </trkpt>
      <trkpt lat="44.59738" lon="5.98391">
        <ele>1713.2</ele>
        <time>2023-05-19T12:30:32Z</time>
      </trkpt>
      <trkpt lat="44.59737" lon="5.98391">
        <ele>1713.2</ele>
        <time>2023-05-19T12:30:33Z</time>
      </trkpt>
      <trkpt lat="44.59736" lon="5.98391">
        <ele>1713.6</ele>
        <time>2023-05-19T12:30:34Z</time>
      </trkpt>
      <trkpt lat="44.59735" lon="5.98391">
        <ele>1713.6</ele>
        <time>2023-05-19T12:30:35Z</time>
      </trkpt>
      <trkpt lat="44.59735" lon="5.9839">
        <ele>1713.8</ele>
        <time>2023-05-19T12:30:36Z</time>
      </trkpt>
      <trkpt lat="44.59734" lon="5.9839">
        <ele>1714</ele>
        <time>2023-05-19T12:30:37Z</time>
      </trkpt>
      <trkpt lat="44.59733" lon="5.98391">
        <ele>1714.2</ele>
        <time>2023-05-19T12:30:38Z</time>
      </trkpt>
      <trkpt lat="44.59732" lon="5.98391">
        <ele>1714.6</ele>
        <time>2023-05-19T12:30:39Z</time>
      </trkpt>
      <trkpt lat="44.59731" lon="5.98391">
        <ele>1714.8</ele>
        <time>2023-05-19T12:30:40Z</time>
      </trkpt>
      <trkpt lat="44.59731" lon="5.9839">
        <ele>1715.2</ele>
        <time>2023-05-19T12:30:41Z</time>
      </trkpt>
      <trkpt lat="44.5973" lon="5.9839">
        <ele>1715.4</ele>
        <time>2023-05-19T12:30:42Z</time>
      </trkpt>
      <trkpt lat="44.59729" lon="5.98391">
        <ele>1715.6</ele>
        <time>2023-05-19T12:30:43Z</time>
      </trkpt>
      <trkpt lat="44.59728" lon="5.98391">
        <ele>1715.6</ele>
        <time>2023-05-19T12:30:44Z</time>
      </trkpt>
      <trkpt lat="44.59727" lon="5.98391">
        <ele>1715.6</ele>
        <time>2023-05-19T12:30:45Z</time>
      </trkpt>
      <trkpt lat="44.59726" lon="5.98391">
        <ele>1715.8</ele>
        <time>2023-05-19T12:30:46Z</time>
      </trkpt>
      <trkpt lat="44.59725" lon="5.98391">
        <ele>1716</ele>
        <time>2023-05-19T12:30:47Z</time>
      </trkpt>
      <trkpt lat="44.59725" lon="5.98392">
        <ele>1716</ele>
        <time>2023-05-19T12:30:48Z</time>
      </trkpt>
      <trkpt lat="44.59724" lon="5.98392">
        <ele>1716.2</ele>
        <time>2023-05-19T12:30:49Z</time>
      </trkpt>
      <trkpt lat="44.59723" lon="5.98392">
        <ele>1716.4</ele>
        <time>2023-05-19T12:30:50Z</time>
      </trkpt>
      <trkpt lat="44.59722" lon="5.98391">
        <ele>1716.4</ele>
        <time>2023-05-19T12:30:51Z</time>
      </trkpt>
      <trkpt lat="44.59721" lon="5.98392">
        <ele>1716.6</ele>
        <time>2023-05-19T12:30:52Z</time>
      </trkpt>
      <trkpt lat="44.59721" lon="5.98392">
        <ele>1716.6</ele>
        <time>2023-05-19T12:30:53Z</time>
      </trkpt>
      <trkpt lat="44.5972" lon="5.98392">
        <ele>1716.8</ele>
        <time>2023-05-19T12:30:54Z</time>
      </trkpt>
      <trkpt lat="44.59719" lon="5.98392">
        <ele>1716.8</ele>
        <time>2023-05-19T12:30:55Z</time>
      </trkpt>
      <trkpt lat="44.59718" lon="5.98392">
        <ele>1716.8</ele>
        <time>2023-05-19T12:30:56Z</time>
      </trkpt>
      <trkpt lat="44.59718" lon="5.98392">
        <ele>1717</ele>
        <time>2023-05-19T12:30:57Z</time>
      </trkpt>
      <trkpt lat="44.59717" lon="5.98392">
        <ele>1717</ele>
        <time>2023-05-19T12:30:58Z</time>
      </trkpt>
      <trkpt lat="44.59716" lon="5.98392">
        <ele>1717.2</ele>
        <time>2023-05-19T12:30:59Z</time>
      </trkpt>
      <trkpt lat="44.59716" lon="5.98392">
        <ele>1717.2</ele>
        <time>2023-05-19T12:31:00Z</time>
      </trkpt>
      <trkpt lat="44.59716" lon="5.98392">
        <ele>1717.4</ele>
        <time>2023-05-19T12:31:01Z</time>
      </trkpt>
      <trkpt lat="44.59716" lon="5.98392">
        <ele>1717.6</ele>
        <time>2023-05-19T12:31:02Z</time>
      </trkpt>
      <trkpt lat="44.59714" lon="5.98393">
        <ele>1718.6</ele>
        <time>2023-05-19T12:31:14Z</time>
      </trkpt>
      <trkpt lat="44.59714" lon="5.98392">
        <ele>1718.6</ele>
        <time>2023-05-19T12:31:15Z</time>
      </trkpt>
      <trkpt lat="44.59714" lon="5.98392">
        <ele>1718.6</ele>
        <time>2023-05-19T12:31:16Z</time>
      </trkpt>
      <trkpt lat="44.59713" lon="5.98392">
        <ele>1718.6</ele>
        <time>2023-05-19T12:31:17Z</time>
      </trkpt>
      <trkpt lat="44.59713" lon="5.98392">
        <ele>1718.6</ele>
        <time>2023-05-19T12:31:18Z</time>
      </trkpt>
      <trkpt lat="44.5971" lon="5.98391">
        <ele>1718.6</ele>
        <time>2023-05-19T12:31:22Z</time>
      </trkpt>
      <trkpt lat="44.59709" lon="5.98391">
        <ele>1718.6</ele>
        <time>2023-05-19T12:31:23Z</time>
      </trkpt>
      <trkpt lat="44.59708" lon="5.98391">
        <ele>1718.6</ele>
        <time>2023-05-19T12:31:24Z</time>
      </trkpt>
      <trkpt lat="44.59707" lon="5.9839">
        <ele>1718.6</ele>
        <time>2023-05-19T12:31:26Z</time>
      </trkpt>
      <trkpt lat="44.59707" lon="5.9839">
        <ele>1719</ele>
        <time>2023-05-19T12:31:28Z</time>
      </trkpt>
      <trkpt lat="44.59707" lon="5.9839">
        <ele>1719</ele>
        <time>2023-05-19T12:31:29Z</time>
      </trkpt>
      <trkpt lat="44.59707" lon="5.9839">
        <ele>1719.2</ele>
        <time>2023-05-19T12:31:30Z</time>
      </trkpt>
      <trkpt lat="44.59707" lon="5.9839">
        <ele>1719.8</ele>
        <time>2023-05-19T12:31:34Z</time>
      </trkpt>
      <trkpt lat="44.59702" lon="5.98389">
        <ele>1720.6</ele>
        <time>2023-05-19T12:31:42Z</time>
      </trkpt>
      <trkpt lat="44.597" lon="5.98389">
        <ele>1720.6</ele>
        <time>2023-05-19T12:31:44Z</time>
      </trkpt>
      <trkpt lat="44.597" lon="5.98389">
        <ele>1720.6</ele>
        <time>2023-05-19T12:31:45Z</time>
      </trkpt>
      <trkpt lat="44.59695" lon="5.98386">
        <ele>1720.8</ele>
        <time>2023-05-19T12:31:50Z</time>
      </trkpt>
      <trkpt lat="44.59694" lon="5.98386">
        <ele>1721</ele>
        <time>2023-05-19T12:31:51Z</time>
      </trkpt>
      <trkpt lat="44.59693" lon="5.98386">
        <ele>1721</ele>
        <time>2023-05-19T12:31:52Z</time>
      </trkpt>
      <trkpt lat="44.59691" lon="5.98385">
        <ele>1721.2</ele>
        <time>2023-05-19T12:31:54Z</time>
      </trkpt>
      <trkpt lat="44.5969" lon="5.98385">
        <ele>1721.4</ele>
        <time>2023-05-19T12:31:55Z</time>
      </trkpt>
      <trkpt lat="44.5969" lon="5.98384">
        <ele>1721.6</ele>
        <time>2023-05-19T12:31:56Z</time>
      </trkpt>
      <trkpt lat="44.59689" lon="5.98384">
        <ele>1721.6</ele>
        <time>2023-05-19T12:31:57Z</time>
      </trkpt>
      <trkpt lat="44.59688" lon="5.98384">
        <ele>1721.6</ele>
        <time>2023-05-19T12:31:58Z</time>
      </trkpt>
      <trkpt lat="44.59687" lon="5.98385">
        <ele>1722</ele>
        <time>2023-05-19T12:32:00Z</time>
      </trkpt>
      <trkpt lat="44.59686" lon="5.98384">
        <ele>1722.2</ele>
        <time>2023-05-19T12:32:01Z</time>
      </trkpt>
      <trkpt lat="44.59685" lon="5.98385">
        <ele>1722.2</ele>
        <time>2023-05-19T12:32:02Z</time>
      </trkpt>
      <trkpt lat="44.59685" lon="5.98384">
        <ele>1722.4</ele>
        <time>2023-05-19T12:32:03Z</time>
      </trkpt>
      <trkpt lat="44.59684" lon="5.98385">
        <ele>1722.4</ele>
        <time>2023-05-19T12:32:04Z</time>
      </trkpt>
      <trkpt lat="44.59683" lon="5.98384">
        <ele>1722.6</ele>
        <time>2023-05-19T12:32:05Z</time>
      </trkpt>
      <trkpt lat="44.59681" lon="5.98383">
        <ele>1723</ele>
        <time>2023-05-19T12:32:07Z</time>
      </trkpt>
      <trkpt lat="44.59681" lon="5.98383">
        <ele>1723</ele>
        <time>2023-05-19T12:32:08Z</time>
      </trkpt>
      <trkpt lat="44.5968" lon="5.98382">
        <ele>1723.2</ele>
        <time>2023-05-19T12:32:09Z</time>
      </trkpt>
      <trkpt lat="44.59678" lon="5.98381">
        <ele>1723.6</ele>
        <time>2023-05-19T12:32:12Z</time>
      </trkpt>
      <trkpt lat="44.59677" lon="5.9838">
        <ele>1723.6</ele>
        <time>2023-05-19T12:32:13Z</time>
      </trkpt>
      <trkpt lat="44.59677" lon="5.9838">
        <ele>1724</ele>
        <time>2023-05-19T12:32:14Z</time>
      </trkpt>
      <trkpt lat="44.59676" lon="5.9838">
        <ele>1724</ele>
        <time>2023-05-19T12:32:15Z</time>
      </trkpt>
      <trkpt lat="44.59676" lon="5.98379">
        <ele>1724.2</ele>
        <time>2023-05-19T12:32:16Z</time>
      </trkpt>
      <trkpt lat="44.59675" lon="5.98379">
        <ele>1724.4</ele>
        <time>2023-05-19T12:32:17Z</time>
      </trkpt>
      <trkpt lat="44.59674" lon="5.98379">
        <ele>1724.6</ele>
        <time>2023-05-19T12:32:18Z</time>
      </trkpt>
      <trkpt lat="44.59673" lon="5.98378">
        <ele>1725</ele>
        <time>2023-05-19T12:32:19Z</time>
      </trkpt>
      <trkpt lat="44.59673" lon="5.98378">
        <ele>1725</ele>
        <time>2023-05-19T12:32:20Z</time>
      </trkpt>
      <trkpt lat="44.59672" lon="5.98378">
        <ele>1725.4</ele>
        <time>2023-05-19T12:32:21Z</time>
      </trkpt>
      <trkpt lat="44.59671" lon="5.98378">
        <ele>1725.4</ele>
        <time>2023-05-19T12:32:22Z</time>
      </trkpt>
      <trkpt lat="44.59671" lon="5.98377">
        <ele>1725.6</ele>
        <time>2023-05-19T12:32:23Z</time>
      </trkpt>
      <trkpt lat="44.5967" lon="5.98376">
        <ele>1725.6</ele>
        <time>2023-05-19T12:32:24Z</time>
      </trkpt>
      <trkpt lat="44.59669" lon="5.98376">
        <ele>1725.8</ele>
        <time>2023-05-19T12:32:25Z</time>
      </trkpt>
      <trkpt lat="44.59668" lon="5.98375">
        <ele>1726</ele>
        <time>2023-05-19T12:32:26Z</time>
      </trkpt>
      <trkpt lat="44.59668" lon="5.98375">
        <ele>1726.2</ele>
        <time>2023-05-19T12:32:27Z</time>
      </trkpt>
      <trkpt lat="44.59667" lon="5.98374">
        <ele>1726.4</ele>
        <time>2023-05-19T12:32:28Z</time>
      </trkpt>
      <trkpt lat="44.59666" lon="5.98374">
        <ele>1726.4</ele>
        <time>2023-05-19T12:32:29Z</time>
      </trkpt>
      <trkpt lat="44.59666" lon="5.98373">
        <ele>1726.8</ele>
        <time>2023-05-19T12:32:30Z</time>
      </trkpt>
      <trkpt lat="44.59665" lon="5.98373">
        <ele>1726.8</ele>
        <time>2023-05-19T12:32:31Z</time>
      </trkpt>
      <trkpt lat="44.59665" lon="5.98373">
        <ele>1727</ele>
        <time>2023-05-19T12:32:32Z</time>
      </trkpt>
      <trkpt lat="44.59664" lon="5.98372">
        <ele>1727.2</ele>
        <time>2023-05-19T12:32:33Z</time>
      </trkpt>
      <trkpt lat="44.59663" lon="5.98372">
        <ele>1727.2</ele>
        <time>2023-05-19T12:32:34Z</time>
      </trkpt>
      <trkpt lat="44.59663" lon="5.98372">
        <ele>1727.4</ele>
        <time>2023-05-19T12:32:35Z</time>
      </trkpt>
      <trkpt lat="44.59662" lon="5.98372">
        <ele>1727.4</ele>
        <time>2023-05-19T12:32:36Z</time>
      </trkpt>
      <trkpt lat="44.59662" lon="5.98371">
        <ele>1727.6</ele>
        <time>2023-05-19T12:32:37Z</time>
      </trkpt>
      <trkpt lat="44.59661" lon="5.98371">
        <ele>1727.6</ele>
        <time>2023-05-19T12:32:38Z</time>
      </trkpt>
      <trkpt lat="44.5966" lon="5.98371">
        <ele>1727.8</ele>
        <time>2023-05-19T12:32:39Z</time>
      </trkpt>
      <trkpt lat="44.5966" lon="5.98371">
        <ele>1728</ele>
        <time>2023-05-19T12:32:40Z</time>
      </trkpt>
      <trkpt lat="44.59659" lon="5.98371">
        <ele>1728.2</ele>
        <time>2023-05-19T12:32:41Z</time>
      </trkpt>
      <trkpt lat="44.59658" lon="5.98371">
        <ele>1728.4</ele>
        <time>2023-05-19T12:32:42Z</time>
      </trkpt>
      <trkpt lat="44.59657" lon="5.9837">
        <ele>1728.6</ele>
        <time>2023-05-19T12:32:43Z</time>
      </trkpt>
      <trkpt lat="44.59657" lon="5.98371">
        <ele>1728.6</ele>
        <time>2023-05-19T12:32:44Z</time>
      </trkpt>
      <trkpt lat="44.59656" lon="5.9837">
        <ele>1728.8</ele>
        <time>2023-05-19T12:32:45Z</time>
      </trkpt>
      <trkpt lat="44.59655" lon="5.9837">
        <ele>1728.8</ele>
        <time>2023-05-19T12:32:46Z</time>
      </trkpt>
      <trkpt lat="44.59655" lon="5.9837">
        <ele>1729</ele>
        <time>2023-05-19T12:32:47Z</time>
      </trkpt>
      <trkpt lat="44.59654" lon="5.9837">
        <ele>1729.2</ele>
        <time>2023-05-19T12:32:48Z</time>
      </trkpt>
      <trkpt lat="44.59654" lon="5.98369">
        <ele>1729.4</ele>
        <time>2023-05-19T12:32:49Z</time>
      </trkpt>
      <trkpt lat="44.59654" lon="5.98369">
        <ele>1729.6</ele>
        <time>2023-05-19T12:32:50Z</time>
      </trkpt>
      <trkpt lat="44.59653" lon="5.98369">
        <ele>1729.8</ele>
        <time>2023-05-19T12:32:51Z</time>
      </trkpt>
      <trkpt lat="44.59653" lon="5.98369">
        <ele>1730</ele>
        <time>2023-05-19T12:32:52Z</time>
      </trkpt>
      <trkpt lat="44.59652" lon="5.98369">
        <ele>1730</ele>
        <time>2023-05-19T12:32:53Z</time>
      </trkpt>
      <trkpt lat="44.59651" lon="5.98369">
        <ele>1730.2</ele>
        <time>2023-05-19T12:32:54Z</time>
      </trkpt>
      <trkpt lat="44.59651" lon="5.98369">
        <ele>1730.4</ele>
        <time>2023-05-19T12:32:55Z</time>
      </trkpt>
      <trkpt lat="44.5965" lon="5.98369">
        <ele>1730.4</ele>
        <time>2023-05-19T12:32:56Z</time>
      </trkpt>
      <trkpt lat="44.5965" lon="5.98369">
        <ele>1730.6</ele>
        <time>2023-05-19T12:32:57Z</time>
      </trkpt>
      <trkpt lat="44.59649" lon="5.98368">
        <ele>1730.6</ele>
        <time>2023-05-19T12:32:58Z</time>
      </trkpt>
      <trkpt lat="44.59648" lon="5.98368">
        <ele>1730.8</ele>
        <time>2023-05-19T12:32:59Z</time>
      </trkpt>
      <trkpt lat="44.59648" lon="5.98368">
        <ele>1730.8</ele>
        <time>2023-05-19T12:33:00Z</time>
      </trkpt>
      <trkpt lat="44.59648" lon="5.98368">
        <ele>1731</ele>
        <time>2023-05-19T12:33:01Z</time>
      </trkpt>
      <trkpt lat="44.59647" lon="5.98368">
        <ele>1731</ele>
        <time>2023-05-19T12:33:02Z</time>
      </trkpt>
      <trkpt lat="44.59646" lon="5.98367">
        <ele>1731.2</ele>
        <time>2023-05-19T12:33:03Z</time>
      </trkpt>
      <trkpt lat="44.59646" lon="5.98367">
        <ele>1731.2</ele>
        <time>2023-05-19T12:33:04Z</time>
      </trkpt>
      <trkpt lat="44.59646" lon="5.98367">
        <ele>1731.4</ele>
        <time>2023-05-19T12:33:05Z</time>
      </trkpt>
      <trkpt lat="44.59645" lon="5.98366">
        <ele>1731.6</ele>
        <time>2023-05-19T12:33:06Z</time>
      </trkpt>
      <trkpt lat="44.59644" lon="5.98366">
        <ele>1731.6</ele>
        <time>2023-05-19T12:33:07Z</time>
      </trkpt>
      <trkpt lat="44.59644" lon="5.98366">
        <ele>1731.8</ele>
        <time>2023-05-19T12:33:08Z</time>
      </trkpt>
      <trkpt lat="44.59643" lon="5.98366">
        <ele>1731.8</ele>
        <time>2023-05-19T12:33:09Z</time>
      </trkpt>
      <trkpt lat="44.59643" lon="5.98366">
        <ele>1732</ele>
        <time>2023-05-19T12:33:10Z</time>
      </trkpt>
      <trkpt lat="44.59642" lon="5.98365">
        <ele>1732.2</ele>
        <time>2023-05-19T12:33:11Z</time>
      </trkpt>
      <trkpt lat="44.59642" lon="5.98365">
        <ele>1732.2</ele>
        <time>2023-05-19T12:33:12Z</time>
      </trkpt>
      <trkpt lat="44.59641" lon="5.98365">
        <ele>1732.4</ele>
        <time>2023-05-19T12:33:13Z</time>
      </trkpt>
      <trkpt lat="44.5964" lon="5.98365">
        <ele>1732.6</ele>
        <time>2023-05-19T12:33:14Z</time>
      </trkpt>
      <trkpt lat="44.5964" lon="5.98364">
        <ele>1732.6</ele>
        <time>2023-05-19T12:33:15Z</time>
      </trkpt>
      <trkpt lat="44.59639" lon="5.98364">
        <ele>1732.8</ele>
        <time>2023-05-19T12:33:16Z</time>
      </trkpt>
      <trkpt lat="44.59639" lon="5.98364">
        <ele>1732.8</ele>
        <time>2023-05-19T12:33:17Z</time>
      </trkpt>
      <trkpt lat="44.59639" lon="5.98364">
        <ele>1733</ele>
        <time>2023-05-19T12:33:18Z</time>
      </trkpt>
      <trkpt lat="44.59639" lon="5.98364">
        <ele>1733.2</ele>
        <time>2023-05-19T12:33:19Z</time>
      </trkpt>
      <trkpt lat="44.59638" lon="5.98364">
        <ele>1733.4</ele>
        <time>2023-05-19T12:33:20Z</time>
      </trkpt>
      <trkpt lat="44.59638" lon="5.98364">
        <ele>1733.4</ele>
        <time>2023-05-19T12:33:21Z</time>
      </trkpt>
      <trkpt lat="44.59637" lon="5.98364">
        <ele>1733.6</ele>
        <time>2023-05-19T12:33:22Z</time>
      </trkpt>
      <trkpt lat="44.59637" lon="5.98363">
        <ele>1733.8</ele>
        <time>2023-05-19T12:33:23Z</time>
      </trkpt>
      <trkpt lat="44.59637" lon="5.98363">
        <ele>1733.8</ele>
        <time>2023-05-19T12:33:24Z</time>
      </trkpt>
      <trkpt lat="44.59637" lon="5.98363">
        <ele>1733.8</ele>
        <time>2023-05-19T12:33:25Z</time>
      </trkpt>
      <trkpt lat="44.59636" lon="5.98363">
        <ele>1734</ele>
        <time>2023-05-19T12:33:26Z</time>
      </trkpt>
      <trkpt lat="44.59636" lon="5.98363">
        <ele>1734</ele>
        <time>2023-05-19T12:33:27Z</time>
      </trkpt>
      <trkpt lat="44.59635" lon="5.98363">
        <ele>1734.2</ele>
        <time>2023-05-19T12:33:28Z</time>
      </trkpt>
      <trkpt lat="44.59635" lon="5.98363">
        <ele>1734.4</ele>
        <time>2023-05-19T12:33:29Z</time>
      </trkpt>
      <trkpt lat="44.59634" lon="5.98362">
        <ele>1734.4</ele>
        <time>2023-05-19T12:33:30Z</time>
      </trkpt>
      <trkpt lat="44.59634" lon="5.98362">
        <ele>1734.8</ele>
        <time>2023-05-19T12:33:31Z</time>
      </trkpt>
      <trkpt lat="44.59634" lon="5.98362">
        <ele>1735</ele>
        <time>2023-05-19T12:33:32Z</time>
      </trkpt>
      <trkpt lat="44.59634" lon="5.98362">
        <ele>1735.2</ele>
        <time>2023-05-19T12:33:33Z</time>
      </trkpt>
      <trkpt lat="44.59633" lon="5.98361">
        <ele>1735.2</ele>
        <time>2023-05-19T12:33:34Z</time>
      </trkpt>
      <trkpt lat="44.59632" lon="5.98361">
        <ele>1735.2</ele>
        <time>2023-05-19T12:33:35Z</time>
      </trkpt>
      <trkpt lat="44.59631" lon="5.98361">
        <ele>1735.4</ele>
        <time>2023-05-19T12:33:36Z</time>
      </trkpt>
      <trkpt lat="44.59631" lon="5.98361">
        <ele>1735.4</ele>
        <time>2023-05-19T12:33:37Z</time>
      </trkpt>
      <trkpt lat="44.5963" lon="5.98361">
        <ele>1735.6</ele>
        <time>2023-05-19T12:33:38Z</time>
      </trkpt>
      <trkpt lat="44.59629" lon="5.9836">
        <ele>1735.8</ele>
        <time>2023-05-19T12:33:39Z</time>
      </trkpt>
      <trkpt lat="44.59629" lon="5.9836">
        <ele>1736</ele>
        <time>2023-05-19T12:33:40Z</time>
      </trkpt>
      <trkpt lat="44.59629" lon="5.9836">
        <ele>1736</ele>
        <time>2023-05-19T12:33:41Z</time>
      </trkpt>
      <trkpt lat="44.59628" lon="5.9836">
        <ele>1736.2</ele>
        <time>2023-05-19T12:33:42Z</time>
      </trkpt>
      <trkpt lat="44.59627" lon="5.9836">
        <ele>1736.2</ele>
        <time>2023-05-19T12:33:43Z</time>
      </trkpt>
      <trkpt lat="44.59627" lon="5.9836">
        <ele>1736.4</ele>
        <time>2023-05-19T12:33:44Z</time>
      </trkpt>
      <trkpt lat="44.59626" lon="5.98361">
        <ele>1736.4</ele>
        <time>2023-05-19T12:33:45Z</time>
      </trkpt>
      <trkpt lat="44.59624" lon="5.98361">
        <ele>1736.4</ele>
        <time>2023-05-19T12:33:46Z</time>
      </trkpt>
      <trkpt lat="44.59623" lon="5.98361">
        <ele>1736.6</ele>
        <time>2023-05-19T12:33:47Z</time>
      </trkpt>
      <trkpt lat="44.59622" lon="5.98361">
        <ele>1736.8</ele>
        <time>2023-05-19T12:33:48Z</time>
      </trkpt>
      <trkpt lat="44.59621" lon="5.98361">
        <ele>1736.8</ele>
        <time>2023-05-19T12:33:49Z</time>
      </trkpt>
      <trkpt lat="44.59621" lon="5.98361">
        <ele>1737</ele>
        <time>2023-05-19T12:33:50Z</time>
      </trkpt>
      <trkpt lat="44.5962" lon="5.98361">
        <ele>1737</ele>
        <time>2023-05-19T12:33:51Z</time>
      </trkpt>
      <trkpt lat="44.59619" lon="5.98361">
        <ele>1737.2</ele>
        <time>2023-05-19T12:33:52Z</time>
      </trkpt>
      <trkpt lat="44.59619" lon="5.98362">
        <ele>1737.2</ele>
        <time>2023-05-19T12:33:53Z</time>
      </trkpt>
      <trkpt lat="44.59618" lon="5.98362">
        <ele>1737.4</ele>
        <time>2023-05-19T12:33:54Z</time>
      </trkpt>
      <trkpt lat="44.59617" lon="5.98362">
        <ele>1737.8</ele>
        <time>2023-05-19T12:33:55Z</time>
      </trkpt>
      <trkpt lat="44.59616" lon="5.98363">
        <ele>1737.8</ele>
        <time>2023-05-19T12:33:56Z</time>
      </trkpt>
      <trkpt lat="44.59615" lon="5.98363">
        <ele>1737.8</ele>
        <time>2023-05-19T12:33:57Z</time>
      </trkpt>
      <trkpt lat="44.59614" lon="5.98363">
        <ele>1737.8</ele>
        <time>2023-05-19T12:33:58Z</time>
      </trkpt>
      <trkpt lat="44.59613" lon="5.98363">
        <ele>1738</ele>
        <time>2023-05-19T12:33:59Z</time>
      </trkpt>
      <trkpt lat="44.59612" lon="5.98363">
        <ele>1738.2</ele>
        <time>2023-05-19T12:34:00Z</time>
      </trkpt>
      <trkpt lat="44.59612" lon="5.98363">
        <ele>1738.2</ele>
        <time>2023-05-19T12:34:01Z</time>
      </trkpt>
      <trkpt lat="44.59611" lon="5.98363">
        <ele>1738.4</ele>
        <time>2023-05-19T12:34:02Z</time>
      </trkpt>
      <trkpt lat="44.5961" lon="5.98362">
        <ele>1738.4</ele>
        <time>2023-05-19T12:34:03Z</time>
      </trkpt>
      <trkpt lat="44.59609" lon="5.98362">
        <ele>1738.6</ele>
        <time>2023-05-19T12:34:04Z</time>
      </trkpt>
      <trkpt lat="44.59608" lon="5.98362">
        <ele>1738.6</ele>
        <time>2023-05-19T12:34:05Z</time>
      </trkpt>
      <trkpt lat="44.59608" lon="5.98362">
        <ele>1738.6</ele>
        <time>2023-05-19T12:34:06Z</time>
      </trkpt>
      <trkpt lat="44.59607" lon="5.98362">
        <ele>1738.6</ele>
        <time>2023-05-19T12:34:07Z</time>
      </trkpt>
      <trkpt lat="44.59606" lon="5.98361">
        <ele>1738.8</ele>
        <time>2023-05-19T12:34:08Z</time>
      </trkpt>
      <trkpt lat="44.59606" lon="5.98361">
        <ele>1739</ele>
        <time>2023-05-19T12:34:09Z</time>
      </trkpt>
      <trkpt lat="44.59606" lon="5.98361">
        <ele>1739</ele>
        <time>2023-05-19T12:34:10Z</time>
      </trkpt>
      <trkpt lat="44.59605" lon="5.98361">
        <ele>1739.2</ele>
        <time>2023-05-19T12:34:11Z</time>
      </trkpt>
      <trkpt lat="44.59604" lon="5.98361">
        <ele>1739.2</ele>
        <time>2023-05-19T12:34:12Z</time>
      </trkpt>
      <trkpt lat="44.59604" lon="5.98361">
        <ele>1739.4</ele>
        <time>2023-05-19T12:34:13Z</time>
      </trkpt>
      <trkpt lat="44.59603" lon="5.98361">
        <ele>1739.6</ele>
        <time>2023-05-19T12:34:14Z</time>
      </trkpt>
      <trkpt lat="44.59602" lon="5.98361">
        <ele>1739.8</ele>
        <time>2023-05-19T12:34:15Z</time>
      </trkpt>
      <trkpt lat="44.596" lon="5.9836">
        <ele>1740</ele>
        <time>2023-05-19T12:34:17Z</time>
      </trkpt>
      <trkpt lat="44.596" lon="5.9836">
        <ele>1740</ele>
        <time>2023-05-19T12:34:18Z</time>
      </trkpt>
      <trkpt lat="44.59598" lon="5.9836">
        <ele>1740.2</ele>
        <time>2023-05-19T12:34:19Z</time>
      </trkpt>
      <trkpt lat="44.59597" lon="5.98359">
        <ele>1740.4</ele>
        <time>2023-05-19T12:34:20Z</time>
      </trkpt>
      <trkpt lat="44.59597" lon="5.98359">
        <ele>1740.4</ele>
        <time>2023-05-19T12:34:21Z</time>
      </trkpt>
      <trkpt lat="44.59596" lon="5.98359">
        <ele>1740.6</ele>
        <time>2023-05-19T12:34:22Z</time>
      </trkpt>
      <trkpt lat="44.59595" lon="5.98358">
        <ele>1740.6</ele>
        <time>2023-05-19T12:34:23Z</time>
      </trkpt>
      <trkpt lat="44.59595" lon="5.98358">
        <ele>1740.8</ele>
        <time>2023-05-19T12:34:24Z</time>
      </trkpt>
      <trkpt lat="44.59595" lon="5.98358">
        <ele>1741</ele>
        <time>2023-05-19T12:34:28Z</time>
      </trkpt>
      <trkpt lat="44.59592" lon="5.98358">
        <ele>1741.4</ele>
        <time>2023-05-19T12:34:31Z</time>
      </trkpt>
      <trkpt lat="44.59591" lon="5.98358">
        <ele>1741.6</ele>
        <time>2023-05-19T12:34:32Z</time>
      </trkpt>
      <trkpt lat="44.59589" lon="5.98357">
        <ele>1741.6</ele>
        <time>2023-05-19T12:34:33Z</time>
      </trkpt>
      <trkpt lat="44.59588" lon="5.98357">
        <ele>1741.6</ele>
        <time>2023-05-19T12:34:34Z</time>
      </trkpt>
      <trkpt lat="44.59587" lon="5.98356">
        <ele>1741.8</ele>
        <time>2023-05-19T12:34:35Z</time>
      </trkpt>
      <trkpt lat="44.59585" lon="5.98356">
        <ele>1741.8</ele>
        <time>2023-05-19T12:34:36Z</time>
      </trkpt>
      <trkpt lat="44.59584" lon="5.98355">
        <ele>1741.8</ele>
        <time>2023-05-19T12:34:37Z</time>
      </trkpt>
      <trkpt lat="44.59574" lon="5.98352">
        <ele>1742</ele>
        <time>2023-05-19T12:34:43Z</time>
      </trkpt>
      <trkpt lat="44.59565" lon="5.98347">
        <ele>1742.8</ele>
        <time>2023-05-19T12:34:49Z</time>
      </trkpt>
      <trkpt lat="44.59562" lon="5.98346">
        <ele>1742.8</ele>
        <time>2023-05-19T12:34:51Z</time>
      </trkpt>
      <trkpt lat="44.59561" lon="5.98343">
        <ele>1743</ele>
        <time>2023-05-19T12:34:53Z</time>
      </trkpt>
      <trkpt lat="44.59559" lon="5.98343">
        <ele>1743.2</ele>
        <time>2023-05-19T12:34:54Z</time>
      </trkpt>
      <trkpt lat="44.59558" lon="5.98342">
        <ele>1743.2</ele>
        <time>2023-05-19T12:34:55Z</time>
      </trkpt>
      <trkpt lat="44.59557" lon="5.98341">
        <ele>1743.4</ele>
        <time>2023-05-19T12:34:56Z</time>
      </trkpt>
      <trkpt lat="44.59556" lon="5.98341">
        <ele>1743.6</ele>
        <time>2023-05-19T12:34:57Z</time>
      </trkpt>
      <trkpt lat="44.59555" lon="5.9834">
        <ele>1744</ele>
        <time>2023-05-19T12:34:58Z</time>
      </trkpt>
      <trkpt lat="44.59554" lon="5.98339">
        <ele>1744.2</ele>
        <time>2023-05-19T12:34:59Z</time>
      </trkpt>
      <trkpt lat="44.59552" lon="5.98338">
        <ele>1744.4</ele>
        <time>2023-05-19T12:35:00Z</time>
      </trkpt>
      <trkpt lat="44.59551" lon="5.98338">
        <ele>1744.6</ele>
        <time>2023-05-19T12:35:01Z</time>
      </trkpt>
      <trkpt lat="44.5955" lon="5.98337">
        <ele>1744.6</ele>
        <time>2023-05-19T12:35:02Z</time>
      </trkpt>
      <trkpt lat="44.59548" lon="5.98336">
        <ele>1744.8</ele>
        <time>2023-05-19T12:35:03Z</time>
      </trkpt>
      <trkpt lat="44.59547" lon="5.98335">
        <ele>1744.8</ele>
        <time>2023-05-19T12:35:04Z</time>
      </trkpt>
      <trkpt lat="44.59546" lon="5.98334">
        <ele>1745</ele>
        <time>2023-05-19T12:35:05Z</time>
      </trkpt>
      <trkpt lat="44.59545" lon="5.98334">
        <ele>1745</ele>
        <time>2023-05-19T12:35:06Z</time>
      </trkpt>
      <trkpt lat="44.59543" lon="5.98333">
        <ele>1745.2</ele>
        <time>2023-05-19T12:35:07Z</time>
      </trkpt>
      <trkpt lat="44.5954" lon="5.98333">
        <ele>1745.4</ele>
        <time>2023-05-19T12:35:08Z</time>
      </trkpt>
      <trkpt lat="44.59538" lon="5.98333">
        <ele>1745.4</ele>
        <time>2023-05-19T12:35:09Z</time>
      </trkpt>
      <trkpt lat="44.59536" lon="5.98334">
        <ele>1745.6</ele>
        <time>2023-05-19T12:35:10Z</time>
      </trkpt>
      <trkpt lat="44.59533" lon="5.98335">
        <ele>1745.6</ele>
        <time>2023-05-19T12:35:11Z</time>
      </trkpt>
      <trkpt lat="44.59529" lon="5.98336">
        <ele>1745.6</ele>
        <time>2023-05-19T12:35:12Z</time>
      </trkpt>
      <trkpt lat="44.59525" lon="5.98337">
        <ele>1745.6</ele>
        <time>2023-05-19T12:35:13Z</time>
      </trkpt>
      <trkpt lat="44.59522" lon="5.98339">
        <ele>1746</ele>
        <time>2023-05-19T12:35:14Z</time>
      </trkpt>
      <trkpt lat="44.59518" lon="5.98341">
        <ele>1746</ele>
        <time>2023-05-19T12:35:15Z</time>
      </trkpt>
      <trkpt lat="44.59515" lon="5.98342">
        <ele>1746</ele>
        <time>2023-05-19T12:35:16Z</time>
      </trkpt>
      <trkpt lat="44.59513" lon="5.98342">
        <ele>1746</ele>
        <time>2023-05-19T12:35:17Z</time>
      </trkpt>
      <trkpt lat="44.59511" lon="5.98343">
        <ele>1746</ele>
        <time>2023-05-19T12:35:18Z</time>
      </trkpt>
      <trkpt lat="44.59509" lon="5.98343">
        <ele>1746</ele>
        <time>2023-05-19T12:35:19Z</time>
      </trkpt>
      <trkpt lat="44.59507" lon="5.98344">
        <ele>1745.6</ele>
        <time>2023-05-19T12:35:20Z</time>
      </trkpt>
      <trkpt lat="44.59506" lon="5.98344">
        <ele>1745.6</ele>
        <time>2023-05-19T12:35:21Z</time>
      </trkpt>
      <trkpt lat="44.59504" lon="5.98344">
        <ele>1745.6</ele>
        <time>2023-05-19T12:35:22Z</time>
      </trkpt>
      <trkpt lat="44.59502" lon="5.98346">
        <ele>1746</ele>
        <time>2023-05-19T12:35:24Z</time>
      </trkpt>
      <trkpt lat="44.595" lon="5.98346">
        <ele>1746</ele>
        <time>2023-05-19T12:35:25Z</time>
      </trkpt>
      <trkpt lat="44.59499" lon="5.98348">
        <ele>1746.2</ele>
        <time>2023-05-19T12:35:26Z</time>
      </trkpt>
      <trkpt lat="44.59497" lon="5.98348">
        <ele>1746.2</ele>
        <time>2023-05-19T12:35:27Z</time>
      </trkpt>
      <trkpt lat="44.59495" lon="5.98349">
        <ele>1746.4</ele>
        <time>2023-05-19T12:35:28Z</time>
      </trkpt>
      <trkpt lat="44.59492" lon="5.98351">
        <ele>1746.4</ele>
        <time>2023-05-19T12:35:30Z</time>
      </trkpt>
      <trkpt lat="44.59491" lon="5.98352">
        <ele>1746.6</ele>
        <time>2023-05-19T12:35:31Z</time>
      </trkpt>
      <trkpt lat="44.59489" lon="5.98354">
        <ele>1746.6</ele>
        <time>2023-05-19T12:35:32Z</time>
      </trkpt>
      <trkpt lat="44.59487" lon="5.98357">
        <ele>1746.6</ele>
        <time>2023-05-19T12:35:33Z</time>
      </trkpt>
      <trkpt lat="44.59485" lon="5.9836">
        <ele>1746.6</ele>
        <time>2023-05-19T12:35:34Z</time>
      </trkpt>
      <trkpt lat="44.59482" lon="5.98364">
        <ele>1746.6</ele>
        <time>2023-05-19T12:35:35Z</time>
      </trkpt>
      <trkpt lat="44.59467" lon="5.98381">
        <ele>1746.4</ele>
        <time>2023-05-19T12:35:40Z</time>
      </trkpt>
      <trkpt lat="44.59464" lon="5.98383">
        <ele>1746.2</ele>
        <time>2023-05-19T12:35:41Z</time>
      </trkpt>
      <trkpt lat="44.59463" lon="5.98384">
        <ele>1745.6</ele>
        <time>2023-05-19T12:35:42Z</time>
      </trkpt>
      <trkpt lat="44.59462" lon="5.98384">
        <ele>1745.6</ele>
        <time>2023-05-19T12:35:43Z</time>
      </trkpt>
      <trkpt lat="44.59462" lon="5.98384">
        <ele>1745</ele>
        <time>2023-05-19T12:35:45Z</time>
      </trkpt>
      <trkpt lat="44.59462" lon="5.98385">
        <ele>1744</ele>
        <time>2023-05-19T12:35:48Z</time>
      </trkpt>
      <trkpt lat="44.5946" lon="5.98387">
        <ele>1744</ele>
        <time>2023-05-19T12:35:49Z</time>
      </trkpt>
      <trkpt lat="44.59458" lon="5.9839">
        <ele>1743.8</ele>
        <time>2023-05-19T12:35:50Z</time>
      </trkpt>
      <trkpt lat="44.59456" lon="5.98393">
        <ele>1743.6</ele>
        <time>2023-05-19T12:35:51Z</time>
      </trkpt>
      <trkpt lat="44.59452" lon="5.98397">
        <ele>1743.6</ele>
        <time>2023-05-19T12:35:52Z</time>
      </trkpt>
      <trkpt lat="44.59449" lon="5.98401">
        <ele>1743.4</ele>
        <time>2023-05-19T12:35:53Z</time>
      </trkpt>
      <trkpt lat="44.59445" lon="5.98405">
        <ele>1743.4</ele>
        <time>2023-05-19T12:35:54Z</time>
      </trkpt>
      <trkpt lat="44.59432" lon="5.98419">
        <ele>1742.8</ele>
        <time>2023-05-19T12:35:57Z</time>
      </trkpt>
      <trkpt lat="44.59418" lon="5.98432">
        <ele>1741.4</ele>
        <time>2023-05-19T12:36:00Z</time>
      </trkpt>
      <trkpt lat="44.59415" lon="5.98436">
        <ele>1740.8</ele>
        <time>2023-05-19T12:36:01Z</time>
      </trkpt>
      <trkpt lat="44.59412" lon="5.98439">
        <ele>1739.2</ele>
        <time>2023-05-19T12:36:02Z</time>
      </trkpt>
      <trkpt lat="44.5941" lon="5.98441">
        <ele>1738.4</ele>
        <time>2023-05-19T12:36:03Z</time>
      </trkpt>
      <trkpt lat="44.59408" lon="5.98444">
        <ele>1737.6</ele>
        <time>2023-05-19T12:36:04Z</time>
      </trkpt>
      <trkpt lat="44.59407" lon="5.98447">
        <ele>1737.2</ele>
        <time>2023-05-19T12:36:05Z</time>
      </trkpt>
      <trkpt lat="44.59406" lon="5.98451">
        <ele>1736.6</ele>
        <time>2023-05-19T12:36:06Z</time>
      </trkpt>
      <trkpt lat="44.59404" lon="5.98454">
        <ele>1736.2</ele>
        <time>2023-05-19T12:36:07Z</time>
      </trkpt>
      <trkpt lat="44.59398" lon="5.98462">
        <ele>1735</ele>
        <time>2023-05-19T12:36:09Z</time>
      </trkpt>
      <trkpt lat="44.59395" lon="5.98468">
        <ele>1734.6</ele>
        <time>2023-05-19T12:36:10Z</time>
      </trkpt>
      <trkpt lat="44.59391" lon="5.98474">
        <ele>1734</ele>
        <time>2023-05-19T12:36:11Z</time>
      </trkpt>
      <trkpt lat="44.59387" lon="5.98479">
        <ele>1733.8</ele>
        <time>2023-05-19T12:36:12Z</time>
      </trkpt>
      <trkpt lat="44.59383" lon="5.98482">
        <ele>1732.6</ele>
        <time>2023-05-19T12:36:13Z</time>
      </trkpt>
      <trkpt lat="44.5938" lon="5.98486">
        <ele>1732</ele>
        <time>2023-05-19T12:36:14Z</time>
      </trkpt>
      <trkpt lat="44.59378" lon="5.98489">
        <ele>1730.4</ele>
        <time>2023-05-19T12:36:15Z</time>
      </trkpt>
      <trkpt lat="44.59376" lon="5.98493">
        <ele>1728.4</ele>
        <time>2023-05-19T12:36:16Z</time>
      </trkpt>
      <trkpt lat="44.59374" lon="5.98497">
        <ele>1727.6</ele>
        <time>2023-05-19T12:36:17Z</time>
      </trkpt>
      <trkpt lat="44.59371" lon="5.98502">
        <ele>1726.6</ele>
        <time>2023-05-19T12:36:18Z</time>
      </trkpt>
      <trkpt lat="44.59365" lon="5.9851">
        <ele>1724.8</ele>
        <time>2023-05-19T12:36:20Z</time>
      </trkpt>
      <trkpt lat="44.59361" lon="5.98514">
        <ele>1724.4</ele>
        <time>2023-05-19T12:36:21Z</time>
      </trkpt>
      <trkpt lat="44.59357" lon="5.98518">
        <ele>1722.4</ele>
        <time>2023-05-19T12:36:22Z</time>
      </trkpt>
      <trkpt lat="44.59353" lon="5.98523">
        <ele>1721.4</ele>
        <time>2023-05-19T12:36:23Z</time>
      </trkpt>
      <trkpt lat="44.59349" lon="5.98528">
        <ele>1720.6</ele>
        <time>2023-05-19T12:36:24Z</time>
      </trkpt>
      <trkpt lat="44.59345" lon="5.98534">
        <ele>1719.2</ele>
        <time>2023-05-19T12:36:25Z</time>
      </trkpt>
      <trkpt lat="44.5934" lon="5.98539">
        <ele>1718.6</ele>
        <time>2023-05-19T12:36:26Z</time>
      </trkpt>
      <trkpt lat="44.59335" lon="5.98545">
        <ele>1717.6</ele>
        <time>2023-05-19T12:36:27Z</time>
      </trkpt>
      <trkpt lat="44.59324" lon="5.98557">
        <ele>1716</ele>
        <time>2023-05-19T12:36:29Z</time>
      </trkpt>
      <trkpt lat="44.59312" lon="5.9857">
        <ele>1714.4</ele>
        <time>2023-05-19T12:36:31Z</time>
      </trkpt>
      <trkpt lat="44.59306" lon="5.98577">
        <ele>1713</ele>
        <time>2023-05-19T12:36:32Z</time>
      </trkpt>
      <trkpt lat="44.59293" lon="5.98588">
        <ele>1710</ele>
        <time>2023-05-19T12:36:34Z</time>
      </trkpt>
      <trkpt lat="44.59289" lon="5.98593">
        <ele>1709.4</ele>
        <time>2023-05-19T12:36:35Z</time>
      </trkpt>
      <trkpt lat="44.59287" lon="5.98598">
        <ele>1708.4</ele>
        <time>2023-05-19T12:36:36Z</time>
      </trkpt>
      <trkpt lat="44.59285" lon="5.98601">
        <ele>1707.6</ele>
        <time>2023-05-19T12:36:37Z</time>
      </trkpt>
      <trkpt lat="44.59284" lon="5.98601">
        <ele>1705.6</ele>
        <time>2023-05-19T12:36:38Z</time>
      </trkpt>
      <trkpt lat="44.59284" lon="5.98601">
        <ele>1704.4</ele>
        <time>2023-05-19T12:36:39Z</time>
      </trkpt>
      <trkpt lat="44.59284" lon="5.98601">
        <ele>1702.8</ele>
        <time>2023-05-19T12:36:40Z</time>
      </trkpt>
      <trkpt lat="44.59284" lon="5.98601">
        <ele>1701.8</ele>
        <time>2023-05-19T12:36:41Z</time>
      </trkpt>
      <trkpt lat="44.59284" lon="5.98601">
        <ele>1699.6</ele>
        <time>2023-05-19T12:36:43Z</time>
      </trkpt>
      <trkpt lat="44.59284" lon="5.98601">
        <ele>1697.4</ele>
        <time>2023-05-19T12:36:45Z</time>
      </trkpt>
      <trkpt lat="44.59284" lon="5.98601">
        <ele>1696.2</ele>
        <time>2023-05-19T12:36:47Z</time>
      </trkpt>
      <trkpt lat="44.59284" lon="5.98601">
        <ele>1695.2</ele>
        <time>2023-05-19T12:36:56Z</time>
      </trkpt>
      <trkpt lat="44.59284" lon="5.98604">
        <ele>1694.6</ele>
        <time>2023-05-19T12:37:36Z</time>
      </trkpt>
      <trkpt lat="44.59283" lon="5.98605">
        <ele>1694.6</ele>
        <time>2023-05-19T12:37:37Z</time>
      </trkpt>
      <trkpt lat="44.59282" lon="5.98605">
        <ele>1694.4</ele>
        <time>2023-05-19T12:37:40Z</time>
      </trkpt>
      <trkpt lat="44.59281" lon="5.98606">
        <ele>1694.2</ele>
        <time>2023-05-19T12:37:41Z</time>
      </trkpt>
      <trkpt lat="44.59279" lon="5.98608">
        <ele>1694.2</ele>
        <time>2023-05-19T12:37:42Z</time>
      </trkpt>
      <trkpt lat="44.59276" lon="5.98611">
        <ele>1694.2</ele>
        <time>2023-05-19T12:37:43Z</time>
      </trkpt>
      <trkpt lat="44.59274" lon="5.98614">
        <ele>1694.2</ele>
        <time>2023-05-19T12:37:44Z</time>
      </trkpt>
      <trkpt lat="44.59267" lon="5.98621">
        <ele>1694</ele>
        <time>2023-05-19T12:37:46Z</time>
      </trkpt>
      <trkpt lat="44.59264" lon="5.98625">
        <ele>1694</ele>
        <time>2023-05-19T12:37:47Z</time>
      </trkpt>
      <trkpt lat="44.59258" lon="5.9863">
        <ele>1693.8</ele>
        <time>2023-05-19T12:37:49Z</time>
      </trkpt>
      <trkpt lat="44.59255" lon="5.98634">
        <ele>1693.6</ele>
        <time>2023-05-19T12:37:50Z</time>
      </trkpt>
      <trkpt lat="44.59252" lon="5.98639">
        <ele>1693.2</ele>
        <time>2023-05-19T12:37:51Z</time>
      </trkpt>
      <trkpt lat="44.59246" lon="5.98648">
        <ele>1692.2</ele>
        <time>2023-05-19T12:37:53Z</time>
      </trkpt>
      <trkpt lat="44.59243" lon="5.98652">
        <ele>1691.2</ele>
        <time>2023-05-19T12:37:54Z</time>
      </trkpt>
      <trkpt lat="44.59241" lon="5.98656">
        <ele>1691</ele>
        <time>2023-05-19T12:37:55Z</time>
      </trkpt>
      <trkpt lat="44.59238" lon="5.98661">
        <ele>1690.4</ele>
        <time>2023-05-19T12:37:56Z</time>
      </trkpt>
      <trkpt lat="44.59236" lon="5.98666">
        <ele>1690</ele>
        <time>2023-05-19T12:37:57Z</time>
      </trkpt>
      <trkpt lat="44.59232" lon="5.98671">
        <ele>1688.8</ele>
        <time>2023-05-19T12:37:58Z</time>
      </trkpt>
      <trkpt lat="44.59226" lon="5.98683">
        <ele>1686.6</ele>
        <time>2023-05-19T12:38:00Z</time>
      </trkpt>
      <trkpt lat="44.59223" lon="5.98688">
        <ele>1685.6</ele>
        <time>2023-05-19T12:38:01Z</time>
      </trkpt>
      <trkpt lat="44.59219" lon="5.98692">
        <ele>1683.6</ele>
        <time>2023-05-19T12:38:02Z</time>
      </trkpt>
      <trkpt lat="44.59216" lon="5.98697">
        <ele>1682.2</ele>
        <time>2023-05-19T12:38:03Z</time>
      </trkpt>
      <trkpt lat="44.59212" lon="5.98701">
        <ele>1681.8</ele>
        <time>2023-05-19T12:38:04Z</time>
      </trkpt>
      <trkpt lat="44.59209" lon="5.98705">
        <ele>1681</ele>
        <time>2023-05-19T12:38:05Z</time>
      </trkpt>
      <trkpt lat="44.59206" lon="5.98709">
        <ele>1680.4</ele>
        <time>2023-05-19T12:38:06Z</time>
      </trkpt>
      <trkpt lat="44.59202" lon="5.98712">
        <ele>1678.4</ele>
        <time>2023-05-19T12:38:07Z</time>
      </trkpt>
      <trkpt lat="44.59199" lon="5.98716">
        <ele>1677.4</ele>
        <time>2023-05-19T12:38:08Z</time>
      </trkpt>
      <trkpt lat="44.59196" lon="5.98721">
        <ele>1675.8</ele>
        <time>2023-05-19T12:38:09Z</time>
      </trkpt>
      <trkpt lat="44.59194" lon="5.98726">
        <ele>1674.6</ele>
        <time>2023-05-19T12:38:10Z</time>
      </trkpt>
      <trkpt lat="44.59186" lon="5.98736">
        <ele>1672.8</ele>
        <time>2023-05-19T12:38:12Z</time>
      </trkpt>
      <trkpt lat="44.59178" lon="5.98744">
        <ele>1671.2</ele>
        <time>2023-05-19T12:38:14Z</time>
      </trkpt>
      <trkpt lat="44.59175" lon="5.98748">
        <ele>1670.6</ele>
        <time>2023-05-19T12:38:15Z</time>
      </trkpt>
      <trkpt lat="44.59174" lon="5.98753">
        <ele>1669</ele>
        <time>2023-05-19T12:38:16Z</time>
      </trkpt>
      <trkpt lat="44.59171" lon="5.98758">
        <ele>1668.2</ele>
        <time>2023-05-19T12:38:17Z</time>
      </trkpt>
      <trkpt lat="44.59168" lon="5.98763">
        <ele>1667</ele>
        <time>2023-05-19T12:38:18Z</time>
      </trkpt>
      <trkpt lat="44.59164" lon="5.98769">
        <ele>1665.8</ele>
        <time>2023-05-19T12:38:19Z</time>
      </trkpt>
      <trkpt lat="44.5916" lon="5.98775">
        <ele>1665.4</ele>
        <time>2023-05-19T12:38:20Z</time>
      </trkpt>
      <trkpt lat="44.59155" lon="5.98781">
        <ele>1663.8</ele>
        <time>2023-05-19T12:38:21Z</time>
      </trkpt>
      <trkpt lat="44.5915" lon="5.98786">
        <ele>1663</ele>
        <time>2023-05-19T12:38:22Z</time>
      </trkpt>
      <trkpt lat="44.59144" lon="5.98791">
        <ele>1661.6</ele>
        <time>2023-05-19T12:38:23Z</time>
      </trkpt>
      <trkpt lat="44.59137" lon="5.98795">
        <ele>1661.2</ele>
        <time>2023-05-19T12:38:24Z</time>
      </trkpt>
      <trkpt lat="44.59131" lon="5.98799">
        <ele>1659.8</ele>
        <time>2023-05-19T12:38:25Z</time>
      </trkpt>
      <trkpt lat="44.5912" lon="5.98805">
        <ele>1657.6</ele>
        <time>2023-05-19T12:38:27Z</time>
      </trkpt>
      <trkpt lat="44.59115" lon="5.98808">
        <ele>1655.6</ele>
        <time>2023-05-19T12:38:28Z</time>
      </trkpt>
      <trkpt lat="44.59111" lon="5.9881">
        <ele>1654.6</ele>
        <time>2023-05-19T12:38:29Z</time>
      </trkpt>
      <trkpt lat="44.59106" lon="5.98812">
        <ele>1653.6</ele>
        <time>2023-05-19T12:38:30Z</time>
      </trkpt>
      <trkpt lat="44.59102" lon="5.98815">
        <ele>1653.2</ele>
        <time>2023-05-19T12:38:31Z</time>
      </trkpt>
      <trkpt lat="44.59098" lon="5.98816">
        <ele>1652.4</ele>
        <time>2023-05-19T12:38:32Z</time>
      </trkpt>
      <trkpt lat="44.59094" lon="5.98818">
        <ele>1652</ele>
        <time>2023-05-19T12:38:33Z</time>
      </trkpt>
      <trkpt lat="44.59091" lon="5.98819">
        <ele>1651.8</ele>
        <time>2023-05-19T12:38:34Z</time>
      </trkpt>
      <trkpt lat="44.59088" lon="5.9882">
        <ele>1651</ele>
        <time>2023-05-19T12:38:35Z</time>
      </trkpt>
      <trkpt lat="44.59085" lon="5.9882">
        <ele>1650.8</ele>
        <time>2023-05-19T12:38:36Z</time>
      </trkpt>
      <trkpt lat="44.59083" lon="5.9882">
        <ele>1650</ele>
        <time>2023-05-19T12:38:37Z</time>
      </trkpt>
      <trkpt lat="44.59081" lon="5.98819">
        <ele>1649.6</ele>
        <time>2023-05-19T12:38:38Z</time>
      </trkpt>
      <trkpt lat="44.59079" lon="5.98818">
        <ele>1649.2</ele>
        <time>2023-05-19T12:38:39Z</time>
      </trkpt>
      <trkpt lat="44.59078" lon="5.98817">
        <ele>1649.2</ele>
        <time>2023-05-19T12:38:40Z</time>
      </trkpt>
      <trkpt lat="44.59077" lon="5.98817">
        <ele>1649</ele>
        <time>2023-05-19T12:38:41Z</time>
      </trkpt>
      <trkpt lat="44.59077" lon="5.98817">
        <ele>1649</ele>
        <time>2023-05-19T12:38:42Z</time>
      </trkpt>
      <trkpt lat="44.59077" lon="5.98817">
        <ele>1649</ele>
        <time>2023-05-19T12:38:43Z</time>
      </trkpt>
      <trkpt lat="44.59077" lon="5.98817">
        <ele>1648.6</ele>
        <time>2023-05-19T12:38:56Z</time>
      </trkpt>
      <trkpt lat="44.59076" lon="5.98816">
        <ele>1648.6</ele>
        <time>2023-05-19T12:38:59Z</time>
      </trkpt>
      <trkpt lat="44.59076" lon="5.98812">
        <ele>1648.8</ele>
        <time>2023-05-19T12:39:01Z</time>
      </trkpt>
      <trkpt lat="44.59077" lon="5.9881">
        <ele>1648.8</ele>
        <time>2023-05-19T12:39:02Z</time>
      </trkpt>
      <trkpt lat="44.59078" lon="5.98803">
        <ele>1648.6</ele>
        <time>2023-05-19T12:39:05Z</time>
      </trkpt>
      <trkpt lat="44.5908" lon="5.988">
        <ele>1648.4</ele>
        <time>2023-05-19T12:39:06Z</time>
      </trkpt>
      <trkpt lat="44.59081" lon="5.98798">
        <ele>1648.4</ele>
        <time>2023-05-19T12:39:07Z</time>
      </trkpt>
      <trkpt lat="44.59082" lon="5.98795">
        <ele>1648.2</ele>
        <time>2023-05-19T12:39:08Z</time>
      </trkpt>
      <trkpt lat="44.59084" lon="5.98792">
        <ele>1648</ele>
        <time>2023-05-19T12:39:09Z</time>
      </trkpt>
      <trkpt lat="44.59085" lon="5.98788">
        <ele>1647.8</ele>
        <time>2023-05-19T12:39:11Z</time>
      </trkpt>
      <trkpt lat="44.59086" lon="5.98788">
        <ele>1647.6</ele>
        <time>2023-05-19T12:39:12Z</time>
      </trkpt>
      <trkpt lat="44.59086" lon="5.98788">
        <ele>1647.2</ele>
        <time>2023-05-19T12:39:13Z</time>
      </trkpt>
      <trkpt lat="44.59086" lon="5.98788">
        <ele>1646.8</ele>
        <time>2023-05-19T12:39:14Z</time>
      </trkpt>
      <trkpt lat="44.59086" lon="5.98788">
        <ele>1645.4</ele>
        <time>2023-05-19T12:39:16Z</time>
      </trkpt>
      <trkpt lat="44.59086" lon="5.98788">
        <ele>1644.6</ele>
        <time>2023-05-19T12:39:18Z</time>
      </trkpt>
      <trkpt lat="44.59086" lon="5.98788">
        <ele>1644</ele>
        <time>2023-05-19T12:39:20Z</time>
      </trkpt>
      <trkpt lat="44.59086" lon="5.98788">
        <ele>1643</ele>
        <time>2023-05-19T12:39:27Z</time>
      </trkpt>
      <trkpt lat="44.59087" lon="5.98782">
        <ele>1642.8</ele>
        <time>2023-05-19T12:39:58Z</time>
      </trkpt>
      <trkpt lat="44.59088" lon="5.98779">
        <ele>1642.8</ele>
        <time>2023-05-19T12:39:59Z</time>
      </trkpt>
      <trkpt lat="44.59088" lon="5.98776">
        <ele>1642.8</ele>
        <time>2023-05-19T12:40:00Z</time>
      </trkpt>
      <trkpt lat="44.59089" lon="5.98768">
        <ele>1642.4</ele>
        <time>2023-05-19T12:40:02Z</time>
      </trkpt>
      <trkpt lat="44.59088" lon="5.98764">
        <ele>1642.4</ele>
        <time>2023-05-19T12:40:03Z</time>
      </trkpt>
      <trkpt lat="44.59087" lon="5.9876">
        <ele>1642.2</ele>
        <time>2023-05-19T12:40:04Z</time>
      </trkpt>
      <trkpt lat="44.59087" lon="5.98756">
        <ele>1641.8</ele>
        <time>2023-05-19T12:40:05Z</time>
      </trkpt>
      <trkpt lat="44.59087" lon="5.98751">
        <ele>1641.4</ele>
        <time>2023-05-19T12:40:06Z</time>
      </trkpt>
      <trkpt lat="44.59089" lon="5.9874">
        <ele>1640</ele>
        <time>2023-05-19T12:40:08Z</time>
      </trkpt>
      <trkpt lat="44.59091" lon="5.98735">
        <ele>1639.6</ele>
        <time>2023-05-19T12:40:09Z</time>
      </trkpt>
      <trkpt lat="44.59092" lon="5.98731">
        <ele>1639</ele>
        <time>2023-05-19T12:40:10Z</time>
      </trkpt>
      <trkpt lat="44.59093" lon="5.9873">
        <ele>1638.4</ele>
        <time>2023-05-19T12:40:11Z</time>
      </trkpt>
      <trkpt lat="44.59093" lon="5.9873">
        <ele>1637.4</ele>
        <time>2023-05-19T12:40:12Z</time>
      </trkpt>
      <trkpt lat="44.59093" lon="5.9873">
        <ele>1636.2</ele>
        <time>2023-05-19T12:40:14Z</time>
      </trkpt>
      <trkpt lat="44.59093" lon="5.9873">
        <ele>1634.8</ele>
        <time>2023-05-19T12:40:16Z</time>
      </trkpt>
      <trkpt lat="44.59094" lon="5.98728">
        <ele>1633.8</ele>
        <time>2023-05-19T12:40:19Z</time>
      </trkpt>
      <trkpt lat="44.59094" lon="5.98726">
        <ele>1633.6</ele>
        <time>2023-05-19T12:40:20Z</time>
      </trkpt>
      <trkpt lat="44.59096" lon="5.9872">
        <ele>1633</ele>
        <time>2023-05-19T12:40:22Z</time>
      </trkpt>
      <trkpt lat="44.59096" lon="5.98716">
        <ele>1632.8</ele>
        <time>2023-05-19T12:40:24Z</time>
      </trkpt>
      <trkpt lat="44.59096" lon="5.98715">
        <ele>1632.6</ele>
        <time>2023-05-19T12:40:25Z</time>
      </trkpt>
      <trkpt lat="44.59096" lon="5.98715">
        <ele>1632.4</ele>
        <time>2023-05-19T12:40:26Z</time>
      </trkpt>
      <trkpt lat="44.59096" lon="5.98715">
        <ele>1632.2</ele>
        <time>2023-05-19T12:40:27Z</time>
      </trkpt>
      <trkpt lat="44.59096" lon="5.98715">
        <ele>1631.6</ele>
        <time>2023-05-19T12:40:29Z</time>
      </trkpt>
      <trkpt lat="44.59096" lon="5.98715">
        <ele>1630.4</ele>
        <time>2023-05-19T12:40:33Z</time>
      </trkpt>
      <trkpt lat="44.59096" lon="5.98715">
        <ele>1630</ele>
        <time>2023-05-19T12:40:35Z</time>
      </trkpt>
      <trkpt lat="44.59098" lon="5.98712">
        <ele>1629.6</ele>
        <time>2023-05-19T12:40:47Z</time>
      </trkpt>
      <trkpt lat="44.591" lon="5.98708">
        <ele>1629.6</ele>
        <time>2023-05-19T12:40:49Z</time>
      </trkpt>
      <trkpt lat="44.591" lon="5.98703">
        <ele>1629.2</ele>
        <time>2023-05-19T12:40:51Z</time>
      </trkpt>
      <trkpt lat="44.591" lon="5.98701">
        <ele>1629.2</ele>
        <time>2023-05-19T12:40:52Z</time>
      </trkpt>
      <trkpt lat="44.591" lon="5.98699">
        <ele>1628.8</ele>
        <time>2023-05-19T12:40:53Z</time>
      </trkpt>
      <trkpt lat="44.591" lon="5.98697">
        <ele>1628.6</ele>
        <time>2023-05-19T12:40:54Z</time>
      </trkpt>
      <trkpt lat="44.591" lon="5.98696">
        <ele>1628</ele>
        <time>2023-05-19T12:40:56Z</time>
      </trkpt>
      <trkpt lat="44.59099" lon="5.98697">
        <ele>1627.8</ele>
        <time>2023-05-19T12:40:57Z</time>
      </trkpt>
      <trkpt lat="44.59099" lon="5.98697">
        <ele>1627.6</ele>
        <time>2023-05-19T12:40:58Z</time>
      </trkpt>
      <trkpt lat="44.59098" lon="5.98697">
        <ele>1627.4</ele>
        <time>2023-05-19T12:40:59Z</time>
      </trkpt>
      <trkpt lat="44.59098" lon="5.98697">
        <ele>1627.2</ele>
        <time>2023-05-19T12:41:00Z</time>
      </trkpt>
      <trkpt lat="44.59097" lon="5.98698">
        <ele>1627.2</ele>
        <time>2023-05-19T12:41:01Z</time>
      </trkpt>
      <trkpt lat="44.59096" lon="5.987">
        <ele>1627</ele>
        <time>2023-05-19T12:41:02Z</time>
      </trkpt>
      <trkpt lat="44.59095" lon="5.98702">
        <ele>1627.2</ele>
        <time>2023-05-19T12:41:03Z</time>
      </trkpt>
      <trkpt lat="44.59093" lon="5.98705">
        <ele>1627.2</ele>
        <time>2023-05-19T12:41:04Z</time>
      </trkpt>
      <trkpt lat="44.59091" lon="5.98707">
        <ele>1627</ele>
        <time>2023-05-19T12:41:05Z</time>
      </trkpt>
      <trkpt lat="44.5909" lon="5.98709">
        <ele>1626.8</ele>
        <time>2023-05-19T12:41:06Z</time>
      </trkpt>
      <trkpt lat="44.59087" lon="5.98713">
        <ele>1626.2</ele>
        <time>2023-05-19T12:41:09Z</time>
      </trkpt>
      <trkpt lat="44.59087" lon="5.98713">
        <ele>1626</ele>
        <time>2023-05-19T12:41:10Z</time>
      </trkpt>
      <trkpt lat="44.59087" lon="5.98713">
        <ele>1625</ele>
        <time>2023-05-19T12:41:13Z</time>
      </trkpt>
      <trkpt lat="44.59085" lon="5.98717">
        <ele>1624.6</ele>
        <time>2023-05-19T12:41:17Z</time>
      </trkpt>
      <trkpt lat="44.59084" lon="5.9872">
        <ele>1624.4</ele>
        <time>2023-05-19T12:41:18Z</time>
      </trkpt>
      <trkpt lat="44.59083" lon="5.98723">
        <ele>1624.2</ele>
        <time>2023-05-19T12:41:19Z</time>
      </trkpt>
      <trkpt lat="44.59082" lon="5.98724">
        <ele>1624</ele>
        <time>2023-05-19T12:41:20Z</time>
      </trkpt>
      <trkpt lat="44.59082" lon="5.98724">
        <ele>1623.6</ele>
        <time>2023-05-19T12:41:22Z</time>
      </trkpt>
      <trkpt lat="44.59082" lon="5.98724">
        <ele>1623</ele>
        <time>2023-05-19T12:41:24Z</time>
      </trkpt>
      <trkpt lat="44.59079" lon="5.98733">
        <ele>1622.4</ele>
        <time>2023-05-19T12:41:29Z</time>
      </trkpt>
      <trkpt lat="44.59077" lon="5.98736">
        <ele>1622.4</ele>
        <time>2023-05-19T12:41:30Z</time>
      </trkpt>
      <trkpt lat="44.59075" lon="5.9874">
        <ele>1622.4</ele>
        <time>2023-05-19T12:41:31Z</time>
      </trkpt>
      <trkpt lat="44.5907" lon="5.98744">
        <ele>1622.2</ele>
        <time>2023-05-19T12:41:33Z</time>
      </trkpt>
      <trkpt lat="44.59069" lon="5.98745">
        <ele>1622</ele>
        <time>2023-05-19T12:41:34Z</time>
      </trkpt>
      <trkpt lat="44.59068" lon="5.98746">
        <ele>1621.8</ele>
        <time>2023-05-19T12:41:35Z</time>
      </trkpt>
      <trkpt lat="44.59068" lon="5.98746">
        <ele>1621.6</ele>
        <time>2023-05-19T12:41:36Z</time>
      </trkpt>
      <trkpt lat="44.59067" lon="5.98746">
        <ele>1620.8</ele>
        <time>2023-05-19T12:41:37Z</time>
      </trkpt>
      <trkpt lat="44.59067" lon="5.98745">
        <ele>1620.4</ele>
        <time>2023-05-19T12:41:38Z</time>
      </trkpt>
      <trkpt lat="44.59067" lon="5.98744">
        <ele>1619.6</ele>
        <time>2023-05-19T12:41:39Z</time>
      </trkpt>
      <trkpt lat="44.59067" lon="5.98742">
        <ele>1618.6</ele>
        <time>2023-05-19T12:41:42Z</time>
      </trkpt>
      <trkpt lat="44.59067" lon="5.98742">
        <ele>1618</ele>
        <time>2023-05-19T12:41:43Z</time>
      </trkpt>
      <trkpt lat="44.59068" lon="5.98738">
        <ele>1616.8</ele>
        <time>2023-05-19T12:41:46Z</time>
      </trkpt>
      <trkpt lat="44.59068" lon="5.98738">
        <ele>1616.6</ele>
        <time>2023-05-19T12:41:47Z</time>
      </trkpt>
      <trkpt lat="44.59068" lon="5.98738">
        <ele>1615.6</ele>
        <time>2023-05-19T12:41:50Z</time>
      </trkpt>
      <trkpt lat="44.59068" lon="5.98738">
        <ele>1614.6</ele>
        <time>2023-05-19T12:41:56Z</time>
      </trkpt>
      <trkpt lat="44.59068" lon="5.98733">
        <ele>1614</ele>
        <time>2023-05-19T12:42:32Z</time>
      </trkpt>
      <trkpt lat="44.59068" lon="5.9873">
        <ele>1614</ele>
        <time>2023-05-19T12:42:33Z</time>
      </trkpt>
      <trkpt lat="44.5907" lon="5.98726">
        <ele>1614</ele>
        <time>2023-05-19T12:42:35Z</time>
      </trkpt>
      <trkpt lat="44.5907" lon="5.98723">
        <ele>1614</ele>
        <time>2023-05-19T12:42:36Z</time>
      </trkpt>
      <trkpt lat="44.59071" lon="5.9872">
        <ele>1614</ele>
        <time>2023-05-19T12:42:37Z</time>
      </trkpt>
      <trkpt lat="44.59072" lon="5.98711">
        <ele>1613.6</ele>
        <time>2023-05-19T12:42:40Z</time>
      </trkpt>
      <trkpt lat="44.59072" lon="5.98707">
        <ele>1613.2</ele>
        <time>2023-05-19T12:42:41Z</time>
      </trkpt>
      <trkpt lat="44.59073" lon="5.98703">
        <ele>1613</ele>
        <time>2023-05-19T12:42:42Z</time>
      </trkpt>
      <trkpt lat="44.59076" lon="5.9869">
        <ele>1612.8</ele>
        <time>2023-05-19T12:42:45Z</time>
      </trkpt>
      <trkpt lat="44.59078" lon="5.98679">
        <ele>1612.2</ele>
        <time>2023-05-19T12:42:48Z</time>
      </trkpt>
      <trkpt lat="44.59079" lon="5.98675">
        <ele>1611.4</ele>
        <time>2023-05-19T12:42:49Z</time>
      </trkpt>
      <trkpt lat="44.5908" lon="5.98666">
        <ele>1610.4</ele>
        <time>2023-05-19T12:42:51Z</time>
      </trkpt>
      <trkpt lat="44.5908" lon="5.98661">
        <ele>1610</ele>
        <time>2023-05-19T12:42:52Z</time>
      </trkpt>
      <trkpt lat="44.59083" lon="5.98642">
        <ele>1608.2</ele>
        <time>2023-05-19T12:42:56Z</time>
      </trkpt>
      <trkpt lat="44.59084" lon="5.98635">
        <ele>1607</ele>
        <time>2023-05-19T12:42:58Z</time>
      </trkpt>
      <trkpt lat="44.59085" lon="5.98631">
        <ele>1606.2</ele>
        <time>2023-05-19T12:42:59Z</time>
      </trkpt>
      <trkpt lat="44.59086" lon="5.98627">
        <ele>1606</ele>
        <time>2023-05-19T12:43:00Z</time>
      </trkpt>
      <trkpt lat="44.59088" lon="5.98614">
        <ele>1604.2</ele>
        <time>2023-05-19T12:43:03Z</time>
      </trkpt>
      <trkpt lat="44.59089" lon="5.98606">
        <ele>1603.2</ele>
        <time>2023-05-19T12:43:05Z</time>
      </trkpt>
      <trkpt lat="44.5909" lon="5.98603">
        <ele>1602.8</ele>
        <time>2023-05-19T12:43:06Z</time>
      </trkpt>
      <trkpt lat="44.59091" lon="5.98594">
        <ele>1601.8</ele>
        <time>2023-05-19T12:43:08Z</time>
      </trkpt>
      <trkpt lat="44.59092" lon="5.98584">
        <ele>1600.6</ele>
        <time>2023-05-19T12:43:10Z</time>
      </trkpt>
      <trkpt lat="44.59094" lon="5.98567">
        <ele>1599.4</ele>
        <time>2023-05-19T12:43:13Z</time>
      </trkpt>
      <trkpt lat="44.59097" lon="5.98557">
        <ele>1598.2</ele>
        <time>2023-05-19T12:43:15Z</time>
      </trkpt>
      <trkpt lat="44.59097" lon="5.98553">
        <ele>1598</ele>
        <time>2023-05-19T12:43:16Z</time>
      </trkpt>
      <trkpt lat="44.59097" lon="5.98547">
        <ele>1597</ele>
        <time>2023-05-19T12:43:17Z</time>
      </trkpt>
      <trkpt lat="44.59097" lon="5.98536">
        <ele>1595.6</ele>
        <time>2023-05-19T12:43:19Z</time>
      </trkpt>
      <trkpt lat="44.59099" lon="5.98525">
        <ele>1594.8</ele>
        <time>2023-05-19T12:43:21Z</time>
      </trkpt>
      <trkpt lat="44.591" lon="5.98519">
        <ele>1594</ele>
        <time>2023-05-19T12:43:22Z</time>
      </trkpt>
      <trkpt lat="44.59103" lon="5.98506">
        <ele>1591.6</ele>
        <time>2023-05-19T12:43:24Z</time>
      </trkpt>
      <trkpt lat="44.59106" lon="5.98495">
        <ele>1589.6</ele>
        <time>2023-05-19T12:43:26Z</time>
      </trkpt>
      <trkpt lat="44.59107" lon="5.9849">
        <ele>1589</ele>
        <time>2023-05-19T12:43:27Z</time>
      </trkpt>
      <trkpt lat="44.59108" lon="5.98486">
        <ele>1588.2</ele>
        <time>2023-05-19T12:43:28Z</time>
      </trkpt>
      <trkpt lat="44.59108" lon="5.98482">
        <ele>1587.6</ele>
        <time>2023-05-19T12:43:29Z</time>
      </trkpt>
      <trkpt lat="44.59109" lon="5.98478">
        <ele>1586.6</ele>
        <time>2023-05-19T12:43:30Z</time>
      </trkpt>
      <trkpt lat="44.5911" lon="5.98473">
        <ele>1585.8</ele>
        <time>2023-05-19T12:43:31Z</time>
      </trkpt>
      <trkpt lat="44.59111" lon="5.98469">
        <ele>1585.6</ele>
        <time>2023-05-19T12:43:32Z</time>
      </trkpt>
      <trkpt lat="44.59112" lon="5.98458">
        <ele>1584.2</ele>
        <time>2023-05-19T12:43:34Z</time>
      </trkpt>
      <trkpt lat="44.59114" lon="5.98449">
        <ele>1582.8</ele>
        <time>2023-05-19T12:43:36Z</time>
      </trkpt>
      <trkpt lat="44.59115" lon="5.98447">
        <ele>1582</ele>
        <time>2023-05-19T12:43:37Z</time>
      </trkpt>
      <trkpt lat="44.59116" lon="5.98444">
        <ele>1581.6</ele>
        <time>2023-05-19T12:43:38Z</time>
      </trkpt>
      <trkpt lat="44.59116" lon="5.98443">
        <ele>1581</ele>
        <time>2023-05-19T12:43:39Z</time>
      </trkpt>
      <trkpt lat="44.59117" lon="5.9844">
        <ele>1580.4</ele>
        <time>2023-05-19T12:43:40Z</time>
      </trkpt>
      <trkpt lat="44.59117" lon="5.98437">
        <ele>1580</ele>
        <time>2023-05-19T12:43:41Z</time>
      </trkpt>
      <trkpt lat="44.59119" lon="5.98426">
        <ele>1579.2</ele>
        <time>2023-05-19T12:43:44Z</time>
      </trkpt>
      <trkpt lat="44.5912" lon="5.98422">
        <ele>1578.8</ele>
        <time>2023-05-19T12:43:45Z</time>
      </trkpt>
      <trkpt lat="44.5912" lon="5.98412">
        <ele>1578.2</ele>
        <time>2023-05-19T12:43:47Z</time>
      </trkpt>
      <trkpt lat="44.59121" lon="5.98401">
        <ele>1577</ele>
        <time>2023-05-19T12:43:50Z</time>
      </trkpt>
      <trkpt lat="44.59122" lon="5.98397">
        <ele>1576.6</ele>
        <time>2023-05-19T12:43:51Z</time>
      </trkpt>
      <trkpt lat="44.59125" lon="5.98389">
        <ele>1575.8</ele>
        <time>2023-05-19T12:43:53Z</time>
      </trkpt>
      <trkpt lat="44.59125" lon="5.98385">
        <ele>1575.4</ele>
        <time>2023-05-19T12:43:54Z</time>
      </trkpt>
      <trkpt lat="44.59126" lon="5.9838">
        <ele>1574.6</ele>
        <time>2023-05-19T12:43:55Z</time>
      </trkpt>
      <trkpt lat="44.59128" lon="5.9837">
        <ele>1573.4</ele>
        <time>2023-05-19T12:43:57Z</time>
      </trkpt>
      <trkpt lat="44.59128" lon="5.98361">
        <ele>1572.4</ele>
        <time>2023-05-19T12:43:59Z</time>
      </trkpt>
      <trkpt lat="44.59128" lon="5.98357">
        <ele>1571.8</ele>
        <time>2023-05-19T12:44:00Z</time>
      </trkpt>
      <trkpt lat="44.59132" lon="5.98342">
        <ele>1571</ele>
        <time>2023-05-19T12:44:03Z</time>
      </trkpt>
      <trkpt lat="44.59133" lon="5.98337">
        <ele>1570.6</ele>
        <time>2023-05-19T12:44:04Z</time>
      </trkpt>
      <trkpt lat="44.59135" lon="5.98331">
        <ele>1570.2</ele>
        <time>2023-05-19T12:44:05Z</time>
      </trkpt>
      <trkpt lat="44.59136" lon="5.98318">
        <ele>1569</ele>
        <time>2023-05-19T12:44:07Z</time>
      </trkpt>
      <trkpt lat="44.59136" lon="5.98312">
        <ele>1568.8</ele>
        <time>2023-05-19T12:44:08Z</time>
      </trkpt>
      <trkpt lat="44.59138" lon="5.98302">
        <ele>1568</ele>
        <time>2023-05-19T12:44:10Z</time>
      </trkpt>
      <trkpt lat="44.59139" lon="5.98295">
        <ele>1567.2</ele>
        <time>2023-05-19T12:44:11Z</time>
      </trkpt>
      <trkpt lat="44.59141" lon="5.98289">
        <ele>1566.4</ele>
        <time>2023-05-19T12:44:12Z</time>
      </trkpt>
      <trkpt lat="44.59143" lon="5.98277">
        <ele>1565.2</ele>
        <time>2023-05-19T12:44:14Z</time>
      </trkpt>
      <trkpt lat="44.59146" lon="5.98263">
        <ele>1563.8</ele>
        <time>2023-05-19T12:44:16Z</time>
      </trkpt>
      <trkpt lat="44.59147" lon="5.98256">
        <ele>1563.2</ele>
        <time>2023-05-19T12:44:17Z</time>
      </trkpt>
      <trkpt lat="44.59149" lon="5.9825">
        <ele>1562.2</ele>
        <time>2023-05-19T12:44:18Z</time>
      </trkpt>
      <trkpt lat="44.59149" lon="5.98238">
        <ele>1561</ele>
        <time>2023-05-19T12:44:20Z</time>
      </trkpt>
      <trkpt lat="44.59149" lon="5.98233">
        <ele>1559.6</ele>
        <time>2023-05-19T12:44:21Z</time>
      </trkpt>
      <trkpt lat="44.5915" lon="5.98228">
        <ele>1559</ele>
        <time>2023-05-19T12:44:22Z</time>
      </trkpt>
      <trkpt lat="44.59151" lon="5.98223">
        <ele>1558.4</ele>
        <time>2023-05-19T12:44:23Z</time>
      </trkpt>
      <trkpt lat="44.59152" lon="5.98217">
        <ele>1558.2</ele>
        <time>2023-05-19T12:44:24Z</time>
      </trkpt>
      <trkpt lat="44.59153" lon="5.98204">
        <ele>1557.2</ele>
        <time>2023-05-19T12:44:26Z</time>
      </trkpt>
      <trkpt lat="44.59155" lon="5.98198">
        <ele>1555.8</ele>
        <time>2023-05-19T12:44:27Z</time>
      </trkpt>
      <trkpt lat="44.59156" lon="5.98192">
        <ele>1555</ele>
        <time>2023-05-19T12:44:28Z</time>
      </trkpt>
      <trkpt lat="44.59156" lon="5.98186">
        <ele>1554.4</ele>
        <time>2023-05-19T12:44:29Z</time>
      </trkpt>
      <trkpt lat="44.59158" lon="5.98174">
        <ele>1553.4</ele>
        <time>2023-05-19T12:44:31Z</time>
      </trkpt>
      <trkpt lat="44.59159" lon="5.98168">
        <ele>1552.4</ele>
        <time>2023-05-19T12:44:32Z</time>
      </trkpt>
      <trkpt lat="44.5916" lon="5.98163">
        <ele>1551.8</ele>
        <time>2023-05-19T12:44:33Z</time>
      </trkpt>
      <trkpt lat="44.59161" lon="5.98156">
        <ele>1550.8</ele>
        <time>2023-05-19T12:44:34Z</time>
      </trkpt>
      <trkpt lat="44.59163" lon="5.98144">
        <ele>1549.4</ele>
        <time>2023-05-19T12:44:36Z</time>
      </trkpt>
      <trkpt lat="44.59164" lon="5.98138">
        <ele>1548</ele>
        <time>2023-05-19T12:44:37Z</time>
      </trkpt>
      <trkpt lat="44.59165" lon="5.98131">
        <ele>1547.6</ele>
        <time>2023-05-19T12:44:38Z</time>
      </trkpt>
      <trkpt lat="44.59167" lon="5.98126">
        <ele>1546.6</ele>
        <time>2023-05-19T12:44:39Z</time>
      </trkpt>
      <trkpt lat="44.59169" lon="5.98118">
        <ele>1544.8</ele>
        <time>2023-05-19T12:44:41Z</time>
      </trkpt>
      <trkpt lat="44.59169" lon="5.98115">
        <ele>1544</ele>
        <time>2023-05-19T12:44:42Z</time>
      </trkpt>
      <trkpt lat="44.59169" lon="5.98114">
        <ele>1543</ele>
        <time>2023-05-19T12:44:43Z</time>
      </trkpt>
      <trkpt lat="44.59169" lon="5.98112">
        <ele>1541.8</ele>
        <time>2023-05-19T12:44:44Z</time>
      </trkpt>
      <trkpt lat="44.5917" lon="5.98109">
        <ele>1540.4</ele>
        <time>2023-05-19T12:44:45Z</time>
      </trkpt>
      <trkpt lat="44.59171" lon="5.98104">
        <ele>1539.4</ele>
        <time>2023-05-19T12:44:46Z</time>
      </trkpt>
      <trkpt lat="44.59174" lon="5.98092">
        <ele>1538</ele>
        <time>2023-05-19T12:44:48Z</time>
      </trkpt>
      <trkpt lat="44.59176" lon="5.98081">
        <ele>1537</ele>
        <time>2023-05-19T12:44:50Z</time>
      </trkpt>
      <trkpt lat="44.59177" lon="5.98075">
        <ele>1536.4</ele>
        <time>2023-05-19T12:44:51Z</time>
      </trkpt>
      <trkpt lat="44.59178" lon="5.98069">
        <ele>1535.8</ele>
        <time>2023-05-19T12:44:52Z</time>
      </trkpt>
      <trkpt lat="44.59178" lon="5.98063">
        <ele>1535</ele>
        <time>2023-05-19T12:44:53Z</time>
      </trkpt>
      <trkpt lat="44.59179" lon="5.98051">
        <ele>1534.2</ele>
        <time>2023-05-19T12:44:55Z</time>
      </trkpt>
      <trkpt lat="44.5918" lon="5.98044">
        <ele>1533.8</ele>
        <time>2023-05-19T12:44:56Z</time>
      </trkpt>
      <trkpt lat="44.59182" lon="5.98036">
        <ele>1533.4</ele>
        <time>2023-05-19T12:44:57Z</time>
      </trkpt>
      <trkpt lat="44.59183" lon="5.98029">
        <ele>1533.2</ele>
        <time>2023-05-19T12:44:58Z</time>
      </trkpt>
      <trkpt lat="44.59185" lon="5.98014">
        <ele>1531.8</ele>
        <time>2023-05-19T12:45:00Z</time>
      </trkpt>
      <trkpt lat="44.59187" lon="5.98002">
        <ele>1530</ele>
        <time>2023-05-19T12:45:02Z</time>
      </trkpt>
      <trkpt lat="44.59188" lon="5.97996">
        <ele>1529.8</ele>
        <time>2023-05-19T12:45:03Z</time>
      </trkpt>
      <trkpt lat="44.59189" lon="5.97989">
        <ele>1528.8</ele>
        <time>2023-05-19T12:45:04Z</time>
      </trkpt>
      <trkpt lat="44.5919" lon="5.97982">
        <ele>1528</ele>
        <time>2023-05-19T12:45:05Z</time>
      </trkpt>
      <trkpt lat="44.59191" lon="5.97975">
        <ele>1527</ele>
        <time>2023-05-19T12:45:06Z</time>
      </trkpt>
      <trkpt lat="44.59192" lon="5.97968">
        <ele>1526.4</ele>
        <time>2023-05-19T12:45:07Z</time>
      </trkpt>
      <trkpt lat="44.59193" lon="5.9796">
        <ele>1525.4</ele>
        <time>2023-05-19T12:45:08Z</time>
      </trkpt>
      <trkpt lat="44.59194" lon="5.97953">
        <ele>1524.4</ele>
        <time>2023-05-19T12:45:09Z</time>
      </trkpt>
      <trkpt lat="44.59195" lon="5.97945">
        <ele>1523.8</ele>
        <time>2023-05-19T12:45:10Z</time>
      </trkpt>
      <trkpt lat="44.59196" lon="5.97937">
        <ele>1522.6</ele>
        <time>2023-05-19T12:45:11Z</time>
      </trkpt>
      <trkpt lat="44.59197" lon="5.97929">
        <ele>1522</ele>
        <time>2023-05-19T12:45:12Z</time>
      </trkpt>
      <trkpt lat="44.59198" lon="5.97922">
        <ele>1521</ele>
        <time>2023-05-19T12:45:13Z</time>
      </trkpt>
      <trkpt lat="44.59201" lon="5.97906">
        <ele>1519.2</ele>
        <time>2023-05-19T12:45:15Z</time>
      </trkpt>
      <trkpt lat="44.59202" lon="5.9789">
        <ele>1517.4</ele>
        <time>2023-05-19T12:45:17Z</time>
      </trkpt>
      <trkpt lat="44.59203" lon="5.97874">
        <ele>1516.2</ele>
        <time>2023-05-19T12:45:19Z</time>
      </trkpt>
      <trkpt lat="44.59204" lon="5.97867">
        <ele>1515.2</ele>
        <time>2023-05-19T12:45:20Z</time>
      </trkpt>
      <trkpt lat="44.59205" lon="5.9786">
        <ele>1514.6</ele>
        <time>2023-05-19T12:45:21Z</time>
      </trkpt>
      <trkpt lat="44.59205" lon="5.97854">
        <ele>1513.6</ele>
        <time>2023-05-19T12:45:22Z</time>
      </trkpt>
      <trkpt lat="44.59206" lon="5.97848">
        <ele>1513.4</ele>
        <time>2023-05-19T12:45:23Z</time>
      </trkpt>
      <trkpt lat="44.59206" lon="5.97843">
        <ele>1512</ele>
        <time>2023-05-19T12:45:24Z</time>
      </trkpt>
      <trkpt lat="44.59206" lon="5.97837">
        <ele>1511.6</ele>
        <time>2023-05-19T12:45:25Z</time>
      </trkpt>
      <trkpt lat="44.59207" lon="5.97831">
        <ele>1510.2</ele>
        <time>2023-05-19T12:45:26Z</time>
      </trkpt>
      <trkpt lat="44.59207" lon="5.97824">
        <ele>1509</ele>
        <time>2023-05-19T12:45:27Z</time>
      </trkpt>
      <trkpt lat="44.59207" lon="5.97809">
        <ele>1508</ele>
        <time>2023-05-19T12:45:29Z</time>
      </trkpt>
      <trkpt lat="44.59207" lon="5.97802">
        <ele>1507.8</ele>
        <time>2023-05-19T12:45:30Z</time>
      </trkpt>
      <trkpt lat="44.59207" lon="5.97787">
        <ele>1506.8</ele>
        <time>2023-05-19T12:45:32Z</time>
      </trkpt>
      <trkpt lat="44.59206" lon="5.97779">
        <ele>1505</ele>
        <time>2023-05-19T12:45:33Z</time>
      </trkpt>
      <trkpt lat="44.59205" lon="5.9777">
        <ele>1504</ele>
        <time>2023-05-19T12:45:34Z</time>
      </trkpt>
      <trkpt lat="44.59204" lon="5.97762">
        <ele>1503.6</ele>
        <time>2023-05-19T12:45:35Z</time>
      </trkpt>
      <trkpt lat="44.59203" lon="5.97754">
        <ele>1502.6</ele>
        <time>2023-05-19T12:45:36Z</time>
      </trkpt>
      <trkpt lat="44.59202" lon="5.97747">
        <ele>1502.2</ele>
        <time>2023-05-19T12:45:37Z</time>
      </trkpt>
      <trkpt lat="44.592" lon="5.97739">
        <ele>1501.6</ele>
        <time>2023-05-19T12:45:38Z</time>
      </trkpt>
      <trkpt lat="44.59194" lon="5.97715">
        <ele>1500.2</ele>
        <time>2023-05-19T12:45:41Z</time>
      </trkpt>
      <trkpt lat="44.59192" lon="5.97707">
        <ele>1498.8</ele>
        <time>2023-05-19T12:45:42Z</time>
      </trkpt>
      <trkpt lat="44.5919" lon="5.977">
        <ele>1497.6</ele>
        <time>2023-05-19T12:45:43Z</time>
      </trkpt>
      <trkpt lat="44.59189" lon="5.97695">
        <ele>1497</ele>
        <time>2023-05-19T12:45:44Z</time>
      </trkpt>
      <trkpt lat="44.59187" lon="5.9769">
        <ele>1496.2</ele>
        <time>2023-05-19T12:45:45Z</time>
      </trkpt>
      <trkpt lat="44.59186" lon="5.97685">
        <ele>1496</ele>
        <time>2023-05-19T12:45:46Z</time>
      </trkpt>
      <trkpt lat="44.59187" lon="5.97681">
        <ele>1494.8</ele>
        <time>2023-05-19T12:45:47Z</time>
      </trkpt>
      <trkpt lat="44.59189" lon="5.97677">
        <ele>1494.2</ele>
        <time>2023-05-19T12:45:48Z</time>
      </trkpt>
      <trkpt lat="44.59191" lon="5.97673">
        <ele>1493.2</ele>
        <time>2023-05-19T12:45:49Z</time>
      </trkpt>
      <trkpt lat="44.59192" lon="5.97669">
        <ele>1491.8</ele>
        <time>2023-05-19T12:45:50Z</time>
      </trkpt>
      <trkpt lat="44.5919" lon="5.97666">
        <ele>1491.2</ele>
        <time>2023-05-19T12:45:51Z</time>
      </trkpt>
      <trkpt lat="44.59188" lon="5.97664">
        <ele>1489.8</ele>
        <time>2023-05-19T12:45:52Z</time>
      </trkpt>
      <trkpt lat="44.59185" lon="5.97663">
        <ele>1489.4</ele>
        <time>2023-05-19T12:45:53Z</time>
      </trkpt>
      <trkpt lat="44.59182" lon="5.97661">
        <ele>1488.6</ele>
        <time>2023-05-19T12:45:54Z</time>
      </trkpt>
      <trkpt lat="44.5918" lon="5.9766">
        <ele>1488.4</ele>
        <time>2023-05-19T12:45:55Z</time>
      </trkpt>
      <trkpt lat="44.59176" lon="5.97658">
        <ele>1487.6</ele>
        <time>2023-05-19T12:45:56Z</time>
      </trkpt>
      <trkpt lat="44.59174" lon="5.97657">
        <ele>1487.4</ele>
        <time>2023-05-19T12:45:57Z</time>
      </trkpt>
      <trkpt lat="44.59171" lon="5.97656">
        <ele>1486.6</ele>
        <time>2023-05-19T12:45:58Z</time>
      </trkpt>
      <trkpt lat="44.59169" lon="5.97654">
        <ele>1486.2</ele>
        <time>2023-05-19T12:45:59Z</time>
      </trkpt>
      <trkpt lat="44.59167" lon="5.97652">
        <ele>1486</ele>
        <time>2023-05-19T12:46:00Z</time>
      </trkpt>
      <trkpt lat="44.59165" lon="5.97648">
        <ele>1485.4</ele>
        <time>2023-05-19T12:46:01Z</time>
      </trkpt>
      <trkpt lat="44.59162" lon="5.97644">
        <ele>1485</ele>
        <time>2023-05-19T12:46:02Z</time>
      </trkpt>
      <trkpt lat="44.59157" lon="5.97633">
        <ele>1483.8</ele>
        <time>2023-05-19T12:46:04Z</time>
      </trkpt>
      <trkpt lat="44.59154" lon="5.97627">
        <ele>1483.4</ele>
        <time>2023-05-19T12:46:05Z</time>
      </trkpt>
      <trkpt lat="44.59147" lon="5.97616">
        <ele>1482</ele>
        <time>2023-05-19T12:46:07Z</time>
      </trkpt>
      <trkpt lat="44.59143" lon="5.9761">
        <ele>1481.4</ele>
        <time>2023-05-19T12:46:08Z</time>
      </trkpt>
      <trkpt lat="44.5914" lon="5.97604">
        <ele>1481.2</ele>
        <time>2023-05-19T12:46:09Z</time>
      </trkpt>
      <trkpt lat="44.59138" lon="5.97599">
        <ele>1480.6</ele>
        <time>2023-05-19T12:46:10Z</time>
      </trkpt>
      <trkpt lat="44.59135" lon="5.97593">
        <ele>1480</ele>
        <time>2023-05-19T12:46:11Z</time>
      </trkpt>
      <trkpt lat="44.59132" lon="5.97587">
        <ele>1478.6</ele>
        <time>2023-05-19T12:46:12Z</time>
      </trkpt>
      <trkpt lat="44.59128" lon="5.9758">
        <ele>1477.8</ele>
        <time>2023-05-19T12:46:13Z</time>
      </trkpt>
      <trkpt lat="44.59125" lon="5.97574">
        <ele>1476.8</ele>
        <time>2023-05-19T12:46:14Z</time>
      </trkpt>
      <trkpt lat="44.59121" lon="5.97569">
        <ele>1476</ele>
        <time>2023-05-19T12:46:15Z</time>
      </trkpt>
      <trkpt lat="44.59116" lon="5.97564">
        <ele>1475.2</ele>
        <time>2023-05-19T12:46:16Z</time>
      </trkpt>
      <trkpt lat="44.59111" lon="5.9756">
        <ele>1474</ele>
        <time>2023-05-19T12:46:17Z</time>
      </trkpt>
      <trkpt lat="44.59106" lon="5.97555">
        <ele>1473.4</ele>
        <time>2023-05-19T12:46:18Z</time>
      </trkpt>
      <trkpt lat="44.59101" lon="5.97549">
        <ele>1472.4</ele>
        <time>2023-05-19T12:46:19Z</time>
      </trkpt>
      <trkpt lat="44.59097" lon="5.97543">
        <ele>1472</ele>
        <time>2023-05-19T12:46:20Z</time>
      </trkpt>
      <trkpt lat="44.59092" lon="5.97537">
        <ele>1470.8</ele>
        <time>2023-05-19T12:46:21Z</time>
      </trkpt>
      <trkpt lat="44.59088" lon="5.97532">
        <ele>1470.4</ele>
        <time>2023-05-19T12:46:22Z</time>
      </trkpt>
      <trkpt lat="44.59083" lon="5.97527">
        <ele>1469</ele>
        <time>2023-05-19T12:46:23Z</time>
      </trkpt>
      <trkpt lat="44.59077" lon="5.97521">
        <ele>1467.6</ele>
        <time>2023-05-19T12:46:25Z</time>
      </trkpt>
      <trkpt lat="44.59074" lon="5.97519">
        <ele>1466.2</ele>
        <time>2023-05-19T12:46:26Z</time>
      </trkpt>
      <trkpt lat="44.59071" lon="5.97515">
        <ele>1465.8</ele>
        <time>2023-05-19T12:46:27Z</time>
      </trkpt>
      <trkpt lat="44.59068" lon="5.97511">
        <ele>1464.4</ele>
        <time>2023-05-19T12:46:28Z</time>
      </trkpt>
      <trkpt lat="44.59066" lon="5.97507">
        <ele>1463.8</ele>
        <time>2023-05-19T12:46:29Z</time>
      </trkpt>
      <trkpt lat="44.59065" lon="5.97506">
        <ele>1462.6</ele>
        <time>2023-05-19T12:46:30Z</time>
      </trkpt>
      <trkpt lat="44.59063" lon="5.97505">
        <ele>1462</ele>
        <time>2023-05-19T12:46:31Z</time>
      </trkpt>
      <trkpt lat="44.59063" lon="5.97505">
        <ele>1461.6</ele>
        <time>2023-05-19T12:46:32Z</time>
      </trkpt>
      <trkpt lat="44.59063" lon="5.97505">
        <ele>1459.8</ele>
        <time>2023-05-19T12:46:33Z</time>
      </trkpt>
      <trkpt lat="44.59063" lon="5.97505">
        <ele>1458</ele>
        <time>2023-05-19T12:46:35Z</time>
      </trkpt>
      <trkpt lat="44.59063" lon="5.97505">
        <ele>1456.6</ele>
        <time>2023-05-19T12:46:37Z</time>
      </trkpt>
      <trkpt lat="44.59062" lon="5.97507">
        <ele>1455.6</ele>
        <time>2023-05-19T12:46:39Z</time>
      </trkpt>
      <trkpt lat="44.59062" lon="5.97508">
        <ele>1455.4</ele>
        <time>2023-05-19T12:46:40Z</time>
      </trkpt>
      <trkpt lat="44.59062" lon="5.97508">
        <ele>1454.8</ele>
        <time>2023-05-19T12:46:42Z</time>
      </trkpt>
      <trkpt lat="44.59062" lon="5.97508">
        <ele>1454.2</ele>
        <time>2023-05-19T12:46:44Z</time>
      </trkpt>
      <trkpt lat="44.59062" lon="5.97508">
        <ele>1453</ele>
        <time>2023-05-19T12:46:49Z</time>
      </trkpt>
      <trkpt lat="44.59062" lon="5.97508">
        <ele>1452.8</ele>
        <time>2023-05-19T12:46:58Z</time>
      </trkpt>
      <trkpt lat="44.5906" lon="5.9751">
        <ele>1452.8</ele>
        <time>2023-05-19T12:47:23Z</time>
      </trkpt>
      <trkpt lat="44.59055" lon="5.97513">
        <ele>1452.8</ele>
        <time>2023-05-19T12:47:25Z</time>
      </trkpt>
      <trkpt lat="44.59048" lon="5.97521">
        <ele>1452.8</ele>
        <time>2023-05-19T12:47:27Z</time>
      </trkpt>
      <trkpt lat="44.59044" lon="5.97528">
        <ele>1452.6</ele>
        <time>2023-05-19T12:47:28Z</time>
      </trkpt>
      <trkpt lat="44.59041" lon="5.97535">
        <ele>1452.4</ele>
        <time>2023-05-19T12:47:29Z</time>
      </trkpt>
      <trkpt lat="44.59037" lon="5.97544">
        <ele>1452</ele>
        <time>2023-05-19T12:47:30Z</time>
      </trkpt>
      <trkpt lat="44.59033" lon="5.97551">
        <ele>1451.8</ele>
        <time>2023-05-19T12:47:31Z</time>
      </trkpt>
      <trkpt lat="44.59029" lon="5.97558">
        <ele>1450.8</ele>
        <time>2023-05-19T12:47:32Z</time>
      </trkpt>
      <trkpt lat="44.5902" lon="5.97567">
        <ele>1449</ele>
        <time>2023-05-19T12:47:34Z</time>
      </trkpt>
      <trkpt lat="44.59016" lon="5.97571">
        <ele>1448.2</ele>
        <time>2023-05-19T12:47:35Z</time>
      </trkpt>
      <trkpt lat="44.59013" lon="5.97576">
        <ele>1446.8</ele>
        <time>2023-05-19T12:47:36Z</time>
      </trkpt>
      <trkpt lat="44.59009" lon="5.97581">
        <ele>1445</ele>
        <time>2023-05-19T12:47:37Z</time>
      </trkpt>
      <trkpt lat="44.59005" lon="5.97587">
        <ele>1443.6</ele>
        <time>2023-05-19T12:47:38Z</time>
      </trkpt>
      <trkpt lat="44.59002" lon="5.97594">
        <ele>1441.6</ele>
        <time>2023-05-19T12:47:39Z</time>
      </trkpt>
      <trkpt lat="44.58995" lon="5.97608">
        <ele>1438.8</ele>
        <time>2023-05-19T12:47:41Z</time>
      </trkpt>
      <trkpt lat="44.58991" lon="5.97613">
        <ele>1437.8</ele>
        <time>2023-05-19T12:47:42Z</time>
      </trkpt>
      <trkpt lat="44.58986" lon="5.97619">
        <ele>1435.4</ele>
        <time>2023-05-19T12:47:43Z</time>
      </trkpt>
      <trkpt lat="44.58982" lon="5.97623">
        <ele>1434.6</ele>
        <time>2023-05-19T12:47:44Z</time>
      </trkpt>
      <trkpt lat="44.58977" lon="5.97627">
        <ele>1432.8</ele>
        <time>2023-05-19T12:47:45Z</time>
      </trkpt>
      <trkpt lat="44.58971" lon="5.97629">
        <ele>1430.6</ele>
        <time>2023-05-19T12:47:46Z</time>
      </trkpt>
      <trkpt lat="44.58966" lon="5.9763">
        <ele>1428.8</ele>
        <time>2023-05-19T12:47:47Z</time>
      </trkpt>
      <trkpt lat="44.5896" lon="5.97631">
        <ele>1426.4</ele>
        <time>2023-05-19T12:47:48Z</time>
      </trkpt>
      <trkpt lat="44.58954" lon="5.97633">
        <ele>1425.6</ele>
        <time>2023-05-19T12:47:49Z</time>
      </trkpt>
      <trkpt lat="44.58947" lon="5.97636">
        <ele>1423.6</ele>
        <time>2023-05-19T12:47:50Z</time>
      </trkpt>
      <trkpt lat="44.58935" lon="5.97641">
        <ele>1419.6</ele>
        <time>2023-05-19T12:47:52Z</time>
      </trkpt>
      <trkpt lat="44.58923" lon="5.97647">
        <ele>1416.4</ele>
        <time>2023-05-19T12:47:54Z</time>
      </trkpt>
      <trkpt lat="44.58917" lon="5.9765">
        <ele>1413.2</ele>
        <time>2023-05-19T12:47:55Z</time>
      </trkpt>
      <trkpt lat="44.58911" lon="5.97653">
        <ele>1411.4</ele>
        <time>2023-05-19T12:47:56Z</time>
      </trkpt>
      <trkpt lat="44.58905" lon="5.97655">
        <ele>1409.2</ele>
        <time>2023-05-19T12:47:57Z</time>
      </trkpt>
      <trkpt lat="44.58899" lon="5.97656">
        <ele>1407.8</ele>
        <time>2023-05-19T12:47:58Z</time>
      </trkpt>
      <trkpt lat="44.58893" lon="5.97656">
        <ele>1404.8</ele>
        <time>2023-05-19T12:47:59Z</time>
      </trkpt>
      <trkpt lat="44.58887" lon="5.97656">
        <ele>1403.6</ele>
        <time>2023-05-19T12:48:00Z</time>
      </trkpt>
      <trkpt lat="44.58881" lon="5.97656">
        <ele>1400.8</ele>
        <time>2023-05-19T12:48:01Z</time>
      </trkpt>
      <trkpt lat="44.58875" lon="5.97657">
        <ele>1397.6</ele>
        <time>2023-05-19T12:48:02Z</time>
      </trkpt>
      <trkpt lat="44.58869" lon="5.97659">
        <ele>1396.6</ele>
        <time>2023-05-19T12:48:03Z</time>
      </trkpt>
      <trkpt lat="44.58864" lon="5.9766">
        <ele>1394</ele>
        <time>2023-05-19T12:48:04Z</time>
      </trkpt>
      <trkpt lat="44.58859" lon="5.97661">
        <ele>1392.6</ele>
        <time>2023-05-19T12:48:05Z</time>
      </trkpt>
      <trkpt lat="44.58855" lon="5.97663">
        <ele>1390.4</ele>
        <time>2023-05-19T12:48:06Z</time>
      </trkpt>
      <trkpt lat="44.58852" lon="5.97665">
        <ele>1389.2</ele>
        <time>2023-05-19T12:48:07Z</time>
      </trkpt>
      <trkpt lat="44.58848" lon="5.97668">
        <ele>1387.2</ele>
        <time>2023-05-19T12:48:08Z</time>
      </trkpt>
      <trkpt lat="44.58843" lon="5.97671">
        <ele>1385.8</ele>
        <time>2023-05-19T12:48:09Z</time>
      </trkpt>
      <trkpt lat="44.58837" lon="5.97674">
        <ele>1383.4</ele>
        <time>2023-05-19T12:48:10Z</time>
      </trkpt>
      <trkpt lat="44.58832" lon="5.97677">
        <ele>1381.2</ele>
        <time>2023-05-19T12:48:11Z</time>
      </trkpt>
      <trkpt lat="44.58826" lon="5.97679">
        <ele>1380.4</ele>
        <time>2023-05-19T12:48:12Z</time>
      </trkpt>
      <trkpt lat="44.5882" lon="5.97681">
        <ele>1378.2</ele>
        <time>2023-05-19T12:48:13Z</time>
      </trkpt>
      <trkpt lat="44.58813" lon="5.97684">
        <ele>1376.6</ele>
        <time>2023-05-19T12:48:14Z</time>
      </trkpt>
      <trkpt lat="44.58806" lon="5.97686">
        <ele>1374.6</ele>
        <time>2023-05-19T12:48:15Z</time>
      </trkpt>
      <trkpt lat="44.588" lon="5.97689">
        <ele>1373.4</ele>
        <time>2023-05-19T12:48:16Z</time>
      </trkpt>
      <trkpt lat="44.58794" lon="5.97691">
        <ele>1371.4</ele>
        <time>2023-05-19T12:48:17Z</time>
      </trkpt>
      <trkpt lat="44.58787" lon="5.97694">
        <ele>1368.8</ele>
        <time>2023-05-19T12:48:18Z</time>
      </trkpt>
      <trkpt lat="44.5878" lon="5.97698">
        <ele>1367.6</ele>
        <time>2023-05-19T12:48:19Z</time>
      </trkpt>
      <trkpt lat="44.58773" lon="5.97704">
        <ele>1364.6</ele>
        <time>2023-05-19T12:48:20Z</time>
      </trkpt>
      <trkpt lat="44.58765" lon="5.9771">
        <ele>1363.6</ele>
        <time>2023-05-19T12:48:21Z</time>
      </trkpt>
      <trkpt lat="44.58758" lon="5.97716">
        <ele>1362.2</ele>
        <time>2023-05-19T12:48:22Z</time>
      </trkpt>
      <trkpt lat="44.5875" lon="5.97721">
        <ele>1361.2</ele>
        <time>2023-05-19T12:48:23Z</time>
      </trkpt>
      <trkpt lat="44.58743" lon="5.97726">
        <ele>1358.6</ele>
        <time>2023-05-19T12:48:24Z</time>
      </trkpt>
      <trkpt lat="44.58735" lon="5.9773">
        <ele>1357.2</ele>
        <time>2023-05-19T12:48:25Z</time>
      </trkpt>
      <trkpt lat="44.58726" lon="5.97732">
        <ele>1354.4</ele>
        <time>2023-05-19T12:48:26Z</time>
      </trkpt>
      <trkpt lat="44.58717" lon="5.97734">
        <ele>1351.8</ele>
        <time>2023-05-19T12:48:27Z</time>
      </trkpt>
      <trkpt lat="44.58709" lon="5.97736">
        <ele>1350</ele>
        <time>2023-05-19T12:48:28Z</time>
      </trkpt>
      <trkpt lat="44.58701" lon="5.97739">
        <ele>1347.2</ele>
        <time>2023-05-19T12:48:29Z</time>
      </trkpt>
      <trkpt lat="44.58694" lon="5.97743">
        <ele>1345.8</ele>
        <time>2023-05-19T12:48:30Z</time>
      </trkpt>
      <trkpt lat="44.58687" lon="5.97746">
        <ele>1343.6</ele>
        <time>2023-05-19T12:48:31Z</time>
      </trkpt>
      <trkpt lat="44.5868" lon="5.97748">
        <ele>1342</ele>
        <time>2023-05-19T12:48:32Z</time>
      </trkpt>
      <trkpt lat="44.58672" lon="5.9775">
        <ele>1339.2</ele>
        <time>2023-05-19T12:48:33Z</time>
      </trkpt>
      <trkpt lat="44.58665" lon="5.97753">
        <ele>1338</ele>
        <time>2023-05-19T12:48:34Z</time>
      </trkpt>
      <trkpt lat="44.58658" lon="5.97756">
        <ele>1334.8</ele>
        <time>2023-05-19T12:48:35Z</time>
      </trkpt>
      <trkpt lat="44.58651" lon="5.97756">
        <ele>1332.6</ele>
        <time>2023-05-19T12:48:36Z</time>
      </trkpt>
      <trkpt lat="44.58635" lon="5.97755">
        <ele>1328.4</ele>
        <time>2023-05-19T12:48:38Z</time>
      </trkpt>
      <trkpt lat="44.58628" lon="5.97755">
        <ele>1327.4</ele>
        <time>2023-05-19T12:48:39Z</time>
      </trkpt>
      <trkpt lat="44.58621" lon="5.97756">
        <ele>1325</ele>
        <time>2023-05-19T12:48:40Z</time>
      </trkpt>
      <trkpt lat="44.58615" lon="5.97759">
        <ele>1324</ele>
        <time>2023-05-19T12:48:41Z</time>
      </trkpt>
      <trkpt lat="44.58608" lon="5.97763">
        <ele>1322.6</ele>
        <time>2023-05-19T12:48:42Z</time>
      </trkpt>
      <trkpt lat="44.58601" lon="5.97765">
        <ele>1321.2</ele>
        <time>2023-05-19T12:48:43Z</time>
      </trkpt>
      <trkpt lat="44.58595" lon="5.97764">
        <ele>1319.4</ele>
        <time>2023-05-19T12:48:44Z</time>
      </trkpt>
      <trkpt lat="44.58588" lon="5.97764">
        <ele>1316.8</ele>
        <time>2023-05-19T12:48:45Z</time>
      </trkpt>
      <trkpt lat="44.58583" lon="5.97766">
        <ele>1315.8</ele>
        <time>2023-05-19T12:48:46Z</time>
      </trkpt>
      <trkpt lat="44.58579" lon="5.9777">
        <ele>1314.4</ele>
        <time>2023-05-19T12:48:47Z</time>
      </trkpt>
      <trkpt lat="44.58576" lon="5.97776">
        <ele>1313.4</ele>
        <time>2023-05-19T12:48:48Z</time>
      </trkpt>
      <trkpt lat="44.58573" lon="5.97783">
        <ele>1311.4</ele>
        <time>2023-05-19T12:48:49Z</time>
      </trkpt>
      <trkpt lat="44.58567" lon="5.97788">
        <ele>1310.2</ele>
        <time>2023-05-19T12:48:50Z</time>
      </trkpt>
      <trkpt lat="44.58561" lon="5.9779">
        <ele>1308</ele>
        <time>2023-05-19T12:48:51Z</time>
      </trkpt>
      <trkpt lat="44.58557" lon="5.97791">
        <ele>1306.2</ele>
        <time>2023-05-19T12:48:52Z</time>
      </trkpt>
      <trkpt lat="44.58551" lon="5.97793">
        <ele>1305.4</ele>
        <time>2023-05-19T12:48:53Z</time>
      </trkpt>
      <trkpt lat="44.58545" lon="5.97794">
        <ele>1303.8</ele>
        <time>2023-05-19T12:48:54Z</time>
      </trkpt>
      <trkpt lat="44.58539" lon="5.97795">
        <ele>1303.2</ele>
        <time>2023-05-19T12:48:55Z</time>
      </trkpt>
      <trkpt lat="44.58533" lon="5.97796">
        <ele>1300.8</ele>
        <time>2023-05-19T12:48:56Z</time>
      </trkpt>
      <trkpt lat="44.58522" lon="5.97801">
        <ele>1298.6</ele>
        <time>2023-05-19T12:48:58Z</time>
      </trkpt>
      <trkpt lat="44.58517" lon="5.97803">
        <ele>1298</ele>
        <time>2023-05-19T12:48:59Z</time>
      </trkpt>
      <trkpt lat="44.58512" lon="5.97803">
        <ele>1296</ele>
        <time>2023-05-19T12:49:00Z</time>
      </trkpt>
      <trkpt lat="44.58508" lon="5.978">
        <ele>1294.6</ele>
        <time>2023-05-19T12:49:01Z</time>
      </trkpt>
      <trkpt lat="44.58504" lon="5.97795">
        <ele>1294</ele>
        <time>2023-05-19T12:49:02Z</time>
      </trkpt>
      <trkpt lat="44.58501" lon="5.97791">
        <ele>1293.2</ele>
        <time>2023-05-19T12:49:03Z</time>
      </trkpt>
      <trkpt lat="44.58498" lon="5.97789">
        <ele>1293</ele>
        <time>2023-05-19T12:49:04Z</time>
      </trkpt>
      <trkpt lat="44.58496" lon="5.97789">
        <ele>1291.4</ele>
        <time>2023-05-19T12:49:05Z</time>
      </trkpt>
      <trkpt lat="44.58495" lon="5.97789">
        <ele>1291</ele>
        <time>2023-05-19T12:49:06Z</time>
      </trkpt>
      <trkpt lat="44.58495" lon="5.97789">
        <ele>1289.4</ele>
        <time>2023-05-19T12:49:07Z</time>
      </trkpt>
      <trkpt lat="44.58495" lon="5.97789">
        <ele>1287.6</ele>
        <time>2023-05-19T12:49:08Z</time>
      </trkpt>
      <trkpt lat="44.58495" lon="5.97789">
        <ele>1286.4</ele>
        <time>2023-05-19T12:49:10Z</time>
      </trkpt>
      <trkpt lat="44.58495" lon="5.97786">
        <ele>1285.2</ele>
        <time>2023-05-19T12:49:12Z</time>
      </trkpt>
      <trkpt lat="44.58494" lon="5.97783">
        <ele>1284.2</ele>
        <time>2023-05-19T12:49:15Z</time>
      </trkpt>
      <trkpt lat="44.58494" lon="5.97782">
        <ele>1284</ele>
        <time>2023-05-19T12:49:16Z</time>
      </trkpt>
      <trkpt lat="44.58494" lon="5.97782">
        <ele>1283.8</ele>
        <time>2023-05-19T12:49:17Z</time>
      </trkpt>
      <trkpt lat="44.58494" lon="5.97782">
        <ele>1282.8</ele>
        <time>2023-05-19T12:49:21Z</time>
      </trkpt>
      <trkpt lat="44.58494" lon="5.97782">
        <ele>1282.6</ele>
        <time>2023-05-19T12:49:23Z</time>
      </trkpt>
      <trkpt lat="44.58492" lon="5.97774">
        <ele>1282.2</ele>
        <time>2023-05-19T12:49:41Z</time>
      </trkpt>
      <trkpt lat="44.58491" lon="5.97772">
        <ele>1282.2</ele>
        <time>2023-05-19T12:49:42Z</time>
      </trkpt>
      <trkpt lat="44.58486" lon="5.97765">
        <ele>1282.2</ele>
        <time>2023-05-19T12:49:45Z</time>
      </trkpt>
      <trkpt lat="44.58484" lon="5.97762">
        <ele>1282</ele>
        <time>2023-05-19T12:49:46Z</time>
      </trkpt>
      <trkpt lat="44.58479" lon="5.97757">
        <ele>1281.8</ele>
        <time>2023-05-19T12:49:48Z</time>
      </trkpt>
      <trkpt lat="44.58468" lon="5.97748">
        <ele>1281</ele>
        <time>2023-05-19T12:49:51Z</time>
      </trkpt>
      <trkpt lat="44.58463" lon="5.97744">
        <ele>1280.8</ele>
        <time>2023-05-19T12:49:52Z</time>
      </trkpt>
      <trkpt lat="44.58448" lon="5.97732">
        <ele>1279.6</ele>
        <time>2023-05-19T12:49:55Z</time>
      </trkpt>
      <trkpt lat="44.58442" lon="5.97728">
        <ele>1279.4</ele>
        <time>2023-05-19T12:49:56Z</time>
      </trkpt>
      <trkpt lat="44.58428" lon="5.97721">
        <ele>1278.2</ele>
        <time>2023-05-19T12:49:58Z</time>
      </trkpt>
      <trkpt lat="44.58421" lon="5.97717">
        <ele>1277</ele>
        <time>2023-05-19T12:49:59Z</time>
      </trkpt>
      <trkpt lat="44.58414" lon="5.97713">
        <ele>1275.6</ele>
        <time>2023-05-19T12:50:00Z</time>
      </trkpt>
      <trkpt lat="44.58402" lon="5.97704">
        <ele>1274.2</ele>
        <time>2023-05-19T12:50:02Z</time>
      </trkpt>
      <trkpt lat="44.58396" lon="5.97697">
        <ele>1274</ele>
        <time>2023-05-19T12:50:03Z</time>
      </trkpt>
      <trkpt lat="44.58392" lon="5.97691">
        <ele>1273.4</ele>
        <time>2023-05-19T12:50:04Z</time>
      </trkpt>
      <trkpt lat="44.58387" lon="5.97687">
        <ele>1271.6</ele>
        <time>2023-05-19T12:50:05Z</time>
      </trkpt>
      <trkpt lat="44.58381" lon="5.97685">
        <ele>1269.6</ele>
        <time>2023-05-19T12:50:06Z</time>
      </trkpt>
      <trkpt lat="44.58375" lon="5.97684">
        <ele>1268.4</ele>
        <time>2023-05-19T12:50:07Z</time>
      </trkpt>
      <trkpt lat="44.58369" lon="5.97685">
        <ele>1267.6</ele>
        <time>2023-05-19T12:50:08Z</time>
      </trkpt>
      <trkpt lat="44.58362" lon="5.97686">
        <ele>1265.6</ele>
        <time>2023-05-19T12:50:09Z</time>
      </trkpt>
      <trkpt lat="44.58355" lon="5.97686">
        <ele>1264.4</ele>
        <time>2023-05-19T12:50:10Z</time>
      </trkpt>
      <trkpt lat="44.58347" lon="5.97686">
        <ele>1262.8</ele>
        <time>2023-05-19T12:50:11Z</time>
      </trkpt>
      <trkpt lat="44.58339" lon="5.97686">
        <ele>1262.2</ele>
        <time>2023-05-19T12:50:12Z</time>
      </trkpt>
      <trkpt lat="44.5833" lon="5.97686">
        <ele>1260.4</ele>
        <time>2023-05-19T12:50:13Z</time>
      </trkpt>
      <trkpt lat="44.58322" lon="5.97684">
        <ele>1259.2</ele>
        <time>2023-05-19T12:50:14Z</time>
      </trkpt>
      <trkpt lat="44.58314" lon="5.97683">
        <ele>1258</ele>
        <time>2023-05-19T12:50:15Z</time>
      </trkpt>
      <trkpt lat="44.58305" lon="5.97683">
        <ele>1256.4</ele>
        <time>2023-05-19T12:50:16Z</time>
      </trkpt>
      <trkpt lat="44.58289" lon="5.97683">
        <ele>1253.8</ele>
        <time>2023-05-19T12:50:18Z</time>
      </trkpt>
      <trkpt lat="44.58281" lon="5.97684">
        <ele>1252</ele>
        <time>2023-05-19T12:50:19Z</time>
      </trkpt>
      <trkpt lat="44.58273" lon="5.97686">
        <ele>1249.6</ele>
        <time>2023-05-19T12:50:20Z</time>
      </trkpt>
      <trkpt lat="44.58257" lon="5.9769">
        <ele>1247.8</ele>
        <time>2023-05-19T12:50:22Z</time>
      </trkpt>
      <trkpt lat="44.58249" lon="5.97691">
        <ele>1245.6</ele>
        <time>2023-05-19T12:50:23Z</time>
      </trkpt>
      <trkpt lat="44.58241" lon="5.97692">
        <ele>1244.4</ele>
        <time>2023-05-19T12:50:24Z</time>
      </trkpt>
      <trkpt lat="44.58232" lon="5.97692">
        <ele>1241.8</ele>
        <time>2023-05-19T12:50:25Z</time>
      </trkpt>
      <trkpt lat="44.58222" lon="5.97692">
        <ele>1240.2</ele>
        <time>2023-05-19T12:50:26Z</time>
      </trkpt>
      <trkpt lat="44.58213" lon="5.97693">
        <ele>1238.6</ele>
        <time>2023-05-19T12:50:27Z</time>
      </trkpt>
      <trkpt lat="44.58203" lon="5.97693">
        <ele>1237.2</ele>
        <time>2023-05-19T12:50:28Z</time>
      </trkpt>
      <trkpt lat="44.58193" lon="5.97694">
        <ele>1234</ele>
        <time>2023-05-19T12:50:29Z</time>
      </trkpt>
      <trkpt lat="44.58183" lon="5.97695">
        <ele>1232</ele>
        <time>2023-05-19T12:50:30Z</time>
      </trkpt>
      <trkpt lat="44.58173" lon="5.97696">
        <ele>1229.8</ele>
        <time>2023-05-19T12:50:31Z</time>
      </trkpt>
      <trkpt lat="44.58165" lon="5.97698">
        <ele>1228.4</ele>
        <time>2023-05-19T12:50:32Z</time>
      </trkpt>
      <trkpt lat="44.58156" lon="5.97698">
        <ele>1227.8</ele>
        <time>2023-05-19T12:50:33Z</time>
      </trkpt>
      <trkpt lat="44.58148" lon="5.977">
        <ele>1225.2</ele>
        <time>2023-05-19T12:50:34Z</time>
      </trkpt>
      <trkpt lat="44.58139" lon="5.97702">
        <ele>1223.8</ele>
        <time>2023-05-19T12:50:35Z</time>
      </trkpt>
      <trkpt lat="44.5813" lon="5.97704">
        <ele>1221.8</ele>
        <time>2023-05-19T12:50:36Z</time>
      </trkpt>
      <trkpt lat="44.58112" lon="5.97709">
        <ele>1219.8</ele>
        <time>2023-05-19T12:50:38Z</time>
      </trkpt>
      <trkpt lat="44.58104" lon="5.9771">
        <ele>1218.6</ele>
        <time>2023-05-19T12:50:39Z</time>
      </trkpt>
      <trkpt lat="44.58096" lon="5.97711">
        <ele>1216.4</ele>
        <time>2023-05-19T12:50:40Z</time>
      </trkpt>
      <trkpt lat="44.58089" lon="5.97712">
        <ele>1214.8</ele>
        <time>2023-05-19T12:50:41Z</time>
      </trkpt>
      <trkpt lat="44.58083" lon="5.97714">
        <ele>1214.2</ele>
        <time>2023-05-19T12:50:42Z</time>
      </trkpt>
      <trkpt lat="44.58077" lon="5.97719">
        <ele>1212</ele>
        <time>2023-05-19T12:50:43Z</time>
      </trkpt>
      <trkpt lat="44.5807" lon="5.97725">
        <ele>1211.2</ele>
        <time>2023-05-19T12:50:44Z</time>
      </trkpt>
      <trkpt lat="44.58064" lon="5.97731">
        <ele>1209.6</ele>
        <time>2023-05-19T12:50:45Z</time>
      </trkpt>
      <trkpt lat="44.58057" lon="5.97736">
        <ele>1209</ele>
        <time>2023-05-19T12:50:46Z</time>
      </trkpt>
      <trkpt lat="44.5805" lon="5.97741">
        <ele>1206.6</ele>
        <time>2023-05-19T12:50:47Z</time>
      </trkpt>
      <trkpt lat="44.58043" lon="5.97743">
        <ele>1205.2</ele>
        <time>2023-05-19T12:50:48Z</time>
      </trkpt>
      <trkpt lat="44.58035" lon="5.97743">
        <ele>1204.6</ele>
        <time>2023-05-19T12:50:49Z</time>
      </trkpt>
      <trkpt lat="44.58028" lon="5.97742">
        <ele>1203.2</ele>
        <time>2023-05-19T12:50:50Z</time>
      </trkpt>
      <trkpt lat="44.58021" lon="5.97741">
        <ele>1202.4</ele>
        <time>2023-05-19T12:50:51Z</time>
      </trkpt>
      <trkpt lat="44.58014" lon="5.9774">
        <ele>1201.2</ele>
        <time>2023-05-19T12:50:52Z</time>
      </trkpt>
      <trkpt lat="44.58008" lon="5.97739">
        <ele>1201</ele>
        <time>2023-05-19T12:50:53Z</time>
      </trkpt>
      <trkpt lat="44.58003" lon="5.97738">
        <ele>1199.6</ele>
        <time>2023-05-19T12:50:54Z</time>
      </trkpt>
      <trkpt lat="44.57999" lon="5.97738">
        <ele>1199.2</ele>
        <time>2023-05-19T12:50:55Z</time>
      </trkpt>
      <trkpt lat="44.57997" lon="5.97737">
        <ele>1198.2</ele>
        <time>2023-05-19T12:50:56Z</time>
      </trkpt>
      <trkpt lat="44.57996" lon="5.97736">
        <ele>1197.8</ele>
        <time>2023-05-19T12:50:57Z</time>
      </trkpt>
      <trkpt lat="44.57996" lon="5.97736">
        <ele>1196.6</ele>
        <time>2023-05-19T12:50:58Z</time>
      </trkpt>
      <trkpt lat="44.57996" lon="5.97736">
        <ele>1195</ele>
        <time>2023-05-19T12:50:59Z</time>
      </trkpt>
      <trkpt lat="44.57996" lon="5.97735">
        <ele>1194</ele>
        <time>2023-05-19T12:51:01Z</time>
      </trkpt>
      <trkpt lat="44.57996" lon="5.97733">
        <ele>1193.8</ele>
        <time>2023-05-19T12:51:02Z</time>
      </trkpt>
      <trkpt lat="44.57996" lon="5.97732">
        <ele>1193</ele>
        <time>2023-05-19T12:51:03Z</time>
      </trkpt>
      <trkpt lat="44.57996" lon="5.9773">
        <ele>1192.8</ele>
        <time>2023-05-19T12:51:04Z</time>
      </trkpt>
      <trkpt lat="44.57996" lon="5.97727">
        <ele>1192.4</ele>
        <time>2023-05-19T12:51:05Z</time>
      </trkpt>
      <trkpt lat="44.57998" lon="5.97714">
        <ele>1191.6</ele>
        <time>2023-05-19T12:51:10Z</time>
      </trkpt>
      <trkpt lat="44.57999" lon="5.977">
        <ele>1191.4</ele>
        <time>2023-05-19T12:51:15Z</time>
      </trkpt>
      <trkpt lat="44.58" lon="5.97688">
        <ele>1191.4</ele>
        <time>2023-05-19T12:51:18Z</time>
      </trkpt>
      <trkpt lat="44.58001" lon="5.97676">
        <ele>1191.4</ele>
        <time>2023-05-19T12:51:21Z</time>
      </trkpt>
      <trkpt lat="44.58001" lon="5.97671">
        <ele>1191.4</ele>
        <time>2023-05-19T12:51:22Z</time>
      </trkpt>
      <trkpt lat="44.58001" lon="5.97668">
        <ele>1191.4</ele>
        <time>2023-05-19T12:51:23Z</time>
      </trkpt>
      <trkpt lat="44.58001" lon="5.97665">
        <ele>1191.4</ele>
        <time>2023-05-19T12:51:24Z</time>
      </trkpt>
      <trkpt lat="44.58" lon="5.97662">
        <ele>1191.4</ele>
        <time>2023-05-19T12:51:25Z</time>
      </trkpt>
      <trkpt lat="44.57998" lon="5.97661">
        <ele>1191.4</ele>
        <time>2023-05-19T12:51:26Z</time>
      </trkpt>
      <trkpt lat="44.57996" lon="5.9766">
        <ele>1191.6</ele>
        <time>2023-05-19T12:51:27Z</time>
      </trkpt>
      <trkpt lat="44.57993" lon="5.97661">
        <ele>1191.6</ele>
        <time>2023-05-19T12:51:28Z</time>
      </trkpt>
      <trkpt lat="44.57992" lon="5.97664">
        <ele>1191.6</ele>
        <time>2023-05-19T12:51:29Z</time>
      </trkpt>
      <trkpt lat="44.57987" lon="5.9768">
        <ele>1191.4</ele>
        <time>2023-05-19T12:51:33Z</time>
      </trkpt>
      <trkpt lat="44.57986" lon="5.97685">
        <ele>1191.4</ele>
        <time>2023-05-19T12:51:34Z</time>
      </trkpt>
      <trkpt lat="44.57984" lon="5.9769">
        <ele>1191.2</ele>
        <time>2023-05-19T12:51:35Z</time>
      </trkpt>
      <trkpt lat="44.5798" lon="5.97703">
        <ele>1190.8</ele>
        <time>2023-05-19T12:51:38Z</time>
      </trkpt>
      <trkpt lat="44.57978" lon="5.97707">
        <ele>1190.8</ele>
        <time>2023-05-19T12:51:39Z</time>
      </trkpt>
      <trkpt lat="44.57977" lon="5.97711">
        <ele>1190.6</ele>
        <time>2023-05-19T12:51:40Z</time>
      </trkpt>
      <trkpt lat="44.57975" lon="5.97715">
        <ele>1190.4</ele>
        <time>2023-05-19T12:51:41Z</time>
      </trkpt>
      <trkpt lat="44.57973" lon="5.97719">
        <ele>1190.2</ele>
        <time>2023-05-19T12:51:42Z</time>
      </trkpt>
      <trkpt lat="44.57971" lon="5.97723">
        <ele>1190</ele>
        <time>2023-05-19T12:51:44Z</time>
      </trkpt>
      <trkpt lat="44.5797" lon="5.97724">
        <ele>1189.8</ele>
        <time>2023-05-19T12:51:45Z</time>
      </trkpt>
      <trkpt lat="44.5797" lon="5.97724">
        <ele>1189.8</ele>
        <time>2023-05-19T12:51:46Z</time>
      </trkpt>
      <trkpt lat="44.5797" lon="5.97724">
        <ele>1189.4</ele>
        <time>2023-05-19T12:51:47Z</time>
      </trkpt>
      <trkpt lat="44.5797" lon="5.97724">
        <ele>1188.4</ele>
        <time>2023-05-19T12:51:53Z</time>
      </trkpt>
      <trkpt lat="44.57964" lon="5.9773">
        <ele>1188</ele>
        <time>2023-05-19T12:52:05Z</time>
      </trkpt>
      <trkpt lat="44.57946" lon="5.97748">
        <ele>1187.8</ele>
        <time>2023-05-19T12:52:11Z</time>
      </trkpt>
      <trkpt lat="44.57936" lon="5.97757">
        <ele>1187.4</ele>
        <time>2023-05-19T12:52:14Z</time>
      </trkpt>
      <trkpt lat="44.57916" lon="5.97769">
        <ele>1186.4</ele>
        <time>2023-05-19T12:52:19Z</time>
      </trkpt>
      <trkpt lat="44.57911" lon="5.9777">
        <ele>1186.4</ele>
        <time>2023-05-19T12:52:20Z</time>
      </trkpt>
      <trkpt lat="44.57891" lon="5.97775">
        <ele>1185.4</ele>
        <time>2023-05-19T12:52:25Z</time>
      </trkpt>
      <trkpt lat="44.57888" lon="5.97776">
        <ele>1185.4</ele>
        <time>2023-05-19T12:52:26Z</time>
      </trkpt>
      <trkpt lat="44.57886" lon="5.97776">
        <ele>1184.8</ele>
        <time>2023-05-19T12:52:27Z</time>
      </trkpt>
      <trkpt lat="44.57883" lon="5.97777">
        <ele>1184.6</ele>
        <time>2023-05-19T12:52:28Z</time>
      </trkpt>
      <trkpt lat="44.57881" lon="5.97777">
        <ele>1184.4</ele>
        <time>2023-05-19T12:52:29Z</time>
      </trkpt>
      <trkpt lat="44.57879" lon="5.97777">
        <ele>1184.2</ele>
        <time>2023-05-19T12:52:30Z</time>
      </trkpt>
      <trkpt lat="44.57878" lon="5.97776">
        <ele>1184.2</ele>
        <time>2023-05-19T12:52:31Z</time>
      </trkpt>
      <trkpt lat="44.57877" lon="5.97776">
        <ele>1184</ele>
        <time>2023-05-19T12:52:32Z</time>
      </trkpt>
      <trkpt lat="44.57875" lon="5.97775">
        <ele>1183.8</ele>
        <time>2023-05-19T12:52:33Z</time>
      </trkpt>
      <trkpt lat="44.57874" lon="5.97774">
        <ele>1183.6</ele>
        <time>2023-05-19T12:52:34Z</time>
      </trkpt>
      <trkpt lat="44.57873" lon="5.97773">
        <ele>1183.6</ele>
        <time>2023-05-19T12:52:35Z</time>
      </trkpt>
      <trkpt lat="44.57871" lon="5.97773">
        <ele>1183.4</ele>
        <time>2023-05-19T12:52:36Z</time>
      </trkpt>
      <trkpt lat="44.57864" lon="5.97767">
        <ele>1183</ele>
        <time>2023-05-19T12:52:40Z</time>
      </trkpt>
      <trkpt lat="44.5786" lon="5.97763">
        <ele>1182.8</ele>
        <time>2023-05-19T12:52:42Z</time>
      </trkpt>
      <trkpt lat="44.57854" lon="5.97757">
        <ele>1182.6</ele>
        <time>2023-05-19T12:52:46Z</time>
      </trkpt>
      <trkpt lat="44.57849" lon="5.97751">
        <ele>1182.6</ele>
        <time>2023-05-19T12:52:49Z</time>
      </trkpt>
      <trkpt lat="44.57841" lon="5.97741">
        <ele>1182.4</ele>
        <time>2023-05-19T12:52:53Z</time>
      </trkpt>
      <trkpt lat="44.57838" lon="5.97736">
        <ele>1182.4</ele>
        <time>2023-05-19T12:52:55Z</time>
      </trkpt>
      <trkpt lat="44.57837" lon="5.97732">
        <ele>1182.4</ele>
        <time>2023-05-19T12:52:56Z</time>
      </trkpt>
      <trkpt lat="44.57835" lon="5.97728">
        <ele>1182.4</ele>
        <time>2023-05-19T12:52:57Z</time>
      </trkpt>
      <trkpt lat="44.57833" lon="5.97724">
        <ele>1182.4</ele>
        <time>2023-05-19T12:52:58Z</time>
      </trkpt>
      <trkpt lat="44.57823" lon="5.97694">
        <ele>1182.2</ele>
        <time>2023-05-19T12:53:05Z</time>
      </trkpt>
      <trkpt lat="44.57813" lon="5.97659">
        <ele>1182.2</ele>
        <time>2023-05-19T12:53:13Z</time>
      </trkpt>
      <trkpt lat="44.57811" lon="5.9765">
        <ele>1182.4</ele>
        <time>2023-05-19T12:53:16Z</time>
      </trkpt>
      <trkpt lat="44.5781" lon="5.97647">
        <ele>1182.4</ele>
        <time>2023-05-19T12:53:17Z</time>
      </trkpt>
      <trkpt lat="44.5781" lon="5.97644">
        <ele>1182.6</ele>
        <time>2023-05-19T12:53:18Z</time>
      </trkpt>
      <trkpt lat="44.57808" lon="5.97641">
        <ele>1182.4</ele>
        <time>2023-05-19T12:53:19Z</time>
      </trkpt>
      <trkpt lat="44.57803" lon="5.97622">
        <ele>1182.8</ele>
        <time>2023-05-19T12:53:24Z</time>
      </trkpt>
      <trkpt lat="44.57796" lon="5.97612">
        <ele>1183</ele>
        <time>2023-05-19T12:53:27Z</time>
      </trkpt>
      <trkpt lat="44.57794" lon="5.97609">
        <ele>1183</ele>
        <time>2023-05-19T12:53:28Z</time>
      </trkpt>
      <trkpt lat="44.5779" lon="5.97602">
        <ele>1183</ele>
        <time>2023-05-19T12:53:30Z</time>
      </trkpt>
      <trkpt lat="44.57782" lon="5.97584">
        <ele>1183.2</ele>
        <time>2023-05-19T12:53:35Z</time>
      </trkpt>
      <trkpt lat="44.57781" lon="5.9758">
        <ele>1183.2</ele>
        <time>2023-05-19T12:53:36Z</time>
      </trkpt>
      <trkpt lat="44.57779" lon="5.97576">
        <ele>1183.2</ele>
        <time>2023-05-19T12:53:37Z</time>
      </trkpt>
      <trkpt lat="44.57778" lon="5.97571">
        <ele>1183.4</ele>
        <time>2023-05-19T12:53:38Z</time>
      </trkpt>
      <trkpt lat="44.57769" lon="5.97549">
        <ele>1183.4</ele>
        <time>2023-05-19T12:53:42Z</time>
      </trkpt>
      <trkpt lat="44.57764" lon="5.97534">
        <ele>1183.6</ele>
        <time>2023-05-19T12:53:45Z</time>
      </trkpt>
      <trkpt lat="44.57762" lon="5.97529">
        <ele>1183.6</ele>
        <time>2023-05-19T12:53:46Z</time>
      </trkpt>
      <trkpt lat="44.57758" lon="5.97519">
        <ele>1183.4</ele>
        <time>2023-05-19T12:53:48Z</time>
      </trkpt>
      <trkpt lat="44.57753" lon="5.97501">
        <ele>1183</ele>
        <time>2023-05-19T12:53:52Z</time>
      </trkpt>
      <trkpt lat="44.57752" lon="5.97496">
        <ele>1183</ele>
        <time>2023-05-19T12:53:53Z</time>
      </trkpt>
      <trkpt lat="44.5775" lon="5.97492">
        <ele>1183</ele>
        <time>2023-05-19T12:53:54Z</time>
      </trkpt>
      <trkpt lat="44.57748" lon="5.97487">
        <ele>1182.8</ele>
        <time>2023-05-19T12:53:55Z</time>
      </trkpt>
      <trkpt lat="44.57746" lon="5.97483">
        <ele>1182.8</ele>
        <time>2023-05-19T12:53:56Z</time>
      </trkpt>
      <trkpt lat="44.57744" lon="5.97474">
        <ele>1182.8</ele>
        <time>2023-05-19T12:53:58Z</time>
      </trkpt>
      <trkpt lat="44.57743" lon="5.9747">
        <ele>1182.8</ele>
        <time>2023-05-19T12:53:59Z</time>
      </trkpt>
      <trkpt lat="44.57742" lon="5.97466">
        <ele>1182.8</ele>
        <time>2023-05-19T12:54:00Z</time>
      </trkpt>
      <trkpt lat="44.57742" lon="5.97462">
        <ele>1182.8</ele>
        <time>2023-05-19T12:54:01Z</time>
      </trkpt>
      <trkpt lat="44.57741" lon="5.97457">
        <ele>1182.8</ele>
        <time>2023-05-19T12:54:02Z</time>
      </trkpt>
      <trkpt lat="44.5774" lon="5.97453">
        <ele>1183</ele>
        <time>2023-05-19T12:54:03Z</time>
      </trkpt>
      <trkpt lat="44.5774" lon="5.97449">
        <ele>1183</ele>
        <time>2023-05-19T12:54:04Z</time>
      </trkpt>
      <trkpt lat="44.57739" lon="5.97445">
        <ele>1183</ele>
        <time>2023-05-19T12:54:05Z</time>
      </trkpt>
      <trkpt lat="44.57739" lon="5.9744">
        <ele>1183</ele>
        <time>2023-05-19T12:54:06Z</time>
      </trkpt>
      <trkpt lat="44.57738" lon="5.97436">
        <ele>1183</ele>
        <time>2023-05-19T12:54:07Z</time>
      </trkpt>
      <trkpt lat="44.57738" lon="5.97432">
        <ele>1183</ele>
        <time>2023-05-19T12:54:08Z</time>
      </trkpt>
      <trkpt lat="44.57737" lon="5.97427">
        <ele>1183</ele>
        <time>2023-05-19T12:54:09Z</time>
      </trkpt>
      <trkpt lat="44.57737" lon="5.97423">
        <ele>1183</ele>
        <time>2023-05-19T12:54:10Z</time>
      </trkpt>
      <trkpt lat="44.57736" lon="5.97419">
        <ele>1183</ele>
        <time>2023-05-19T12:54:11Z</time>
      </trkpt>
      <trkpt lat="44.57736" lon="5.97414">
        <ele>1183</ele>
        <time>2023-05-19T12:54:12Z</time>
      </trkpt>
      <trkpt lat="44.57735" lon="5.97411">
        <ele>1183</ele>
        <time>2023-05-19T12:54:13Z</time>
      </trkpt>
      <trkpt lat="44.57735" lon="5.97407">
        <ele>1183</ele>
        <time>2023-05-19T12:54:14Z</time>
      </trkpt>
      <trkpt lat="44.57734" lon="5.97403">
        <ele>1183</ele>
        <time>2023-05-19T12:54:15Z</time>
      </trkpt>
      <trkpt lat="44.57732" lon="5.97396">
        <ele>1183.2</ele>
        <time>2023-05-19T12:54:17Z</time>
      </trkpt>
      <trkpt lat="44.57731" lon="5.97392">
        <ele>1183.2</ele>
        <time>2023-05-19T12:54:18Z</time>
      </trkpt>
      <trkpt lat="44.57729" lon="5.97377">
        <ele>1183.2</ele>
        <time>2023-05-19T12:54:22Z</time>
      </trkpt>
      <trkpt lat="44.57728" lon="5.97373">
        <ele>1183.2</ele>
        <time>2023-05-19T12:54:23Z</time>
      </trkpt>
      <trkpt lat="44.57728" lon="5.97369">
        <ele>1183.4</ele>
        <time>2023-05-19T12:54:24Z</time>
      </trkpt>
      <trkpt lat="44.57726" lon="5.97348">
        <ele>1183.4</ele>
        <time>2023-05-19T12:54:29Z</time>
      </trkpt>
      <trkpt lat="44.57726" lon="5.97344">
        <ele>1183.6</ele>
        <time>2023-05-19T12:54:30Z</time>
      </trkpt>
      <trkpt lat="44.57726" lon="5.9734">
        <ele>1183.6</ele>
        <time>2023-05-19T12:54:31Z</time>
      </trkpt>
      <trkpt lat="44.57726" lon="5.97337">
        <ele>1183.6</ele>
        <time>2023-05-19T12:54:32Z</time>
      </trkpt>
      <trkpt lat="44.57726" lon="5.97333">
        <ele>1183.8</ele>
        <time>2023-05-19T12:54:33Z</time>
      </trkpt>
      <trkpt lat="44.57726" lon="5.97327">
        <ele>1183.8</ele>
        <time>2023-05-19T12:54:35Z</time>
      </trkpt>
      <trkpt lat="44.57726" lon="5.97323">
        <ele>1183.8</ele>
        <time>2023-05-19T12:54:36Z</time>
      </trkpt>
      <trkpt lat="44.57726" lon="5.97319">
        <ele>1183.8</ele>
        <time>2023-05-19T12:54:37Z</time>
      </trkpt>
      <trkpt lat="44.57726" lon="5.97316">
        <ele>1184.2</ele>
        <time>2023-05-19T12:54:38Z</time>
      </trkpt>
      <trkpt lat="44.57726" lon="5.97313">
        <ele>1184.2</ele>
        <time>2023-05-19T12:54:39Z</time>
      </trkpt>
      <trkpt lat="44.57725" lon="5.97311">
        <ele>1184.4</ele>
        <time>2023-05-19T12:54:40Z</time>
      </trkpt>
      <trkpt lat="44.57725" lon="5.97308">
        <ele>1184.4</ele>
        <time>2023-05-19T12:54:41Z</time>
      </trkpt>
      <trkpt lat="44.57725" lon="5.97305">
        <ele>1184.6</ele>
        <time>2023-05-19T12:54:42Z</time>
      </trkpt>
      <trkpt lat="44.57725" lon="5.97302">
        <ele>1184.6</ele>
        <time>2023-05-19T12:54:43Z</time>
      </trkpt>
      <trkpt lat="44.57725" lon="5.97298">
        <ele>1184.6</ele>
        <time>2023-05-19T12:54:44Z</time>
      </trkpt>
      <trkpt lat="44.57725" lon="5.97295">
        <ele>1184.6</ele>
        <time>2023-05-19T12:54:45Z</time>
      </trkpt>
      <trkpt lat="44.57724" lon="5.97292">
        <ele>1184.6</ele>
        <time>2023-05-19T12:54:46Z</time>
      </trkpt>
      <trkpt lat="44.57724" lon="5.97288">
        <ele>1184.8</ele>
        <time>2023-05-19T12:54:47Z</time>
      </trkpt>
      <trkpt lat="44.57723" lon="5.97281">
        <ele>1185</ele>
        <time>2023-05-19T12:54:49Z</time>
      </trkpt>
      <trkpt lat="44.57721" lon="5.9726">
        <ele>1185.6</ele>
        <time>2023-05-19T12:54:56Z</time>
      </trkpt>
      <trkpt lat="44.5772" lon="5.97254">
        <ele>1186</ele>
        <time>2023-05-19T12:54:58Z</time>
      </trkpt>
      <trkpt lat="44.57719" lon="5.97252">
        <ele>1186.2</ele>
        <time>2023-05-19T12:54:59Z</time>
      </trkpt>
      <trkpt lat="44.57719" lon="5.9725">
        <ele>1186.4</ele>
        <time>2023-05-19T12:55:00Z</time>
      </trkpt>
      <trkpt lat="44.57719" lon="5.97248">
        <ele>1186.4</ele>
        <time>2023-05-19T12:55:01Z</time>
      </trkpt>
      <trkpt lat="44.57718" lon="5.97245">
        <ele>1186.6</ele>
        <time>2023-05-19T12:55:02Z</time>
      </trkpt>
      <trkpt lat="44.57718" lon="5.97243">
        <ele>1186.8</ele>
        <time>2023-05-19T12:55:03Z</time>
      </trkpt>
      <trkpt lat="44.57717" lon="5.97241">
        <ele>1187</ele>
        <time>2023-05-19T12:55:04Z</time>
      </trkpt>
      <trkpt lat="44.57716" lon="5.97238">
        <ele>1187.2</ele>
        <time>2023-05-19T12:55:05Z</time>
      </trkpt>
      <trkpt lat="44.57715" lon="5.97236">
        <ele>1187.2</ele>
        <time>2023-05-19T12:55:06Z</time>
      </trkpt>
      <trkpt lat="44.57714" lon="5.97233">
        <ele>1187.4</ele>
        <time>2023-05-19T12:55:07Z</time>
      </trkpt>
      <trkpt lat="44.57713" lon="5.97231">
        <ele>1187.4</ele>
        <time>2023-05-19T12:55:08Z</time>
      </trkpt>
      <trkpt lat="44.57712" lon="5.97229">
        <ele>1187.8</ele>
        <time>2023-05-19T12:55:09Z</time>
      </trkpt>
      <trkpt lat="44.57711" lon="5.97226">
        <ele>1187.8</ele>
        <time>2023-05-19T12:55:10Z</time>
      </trkpt>
      <trkpt lat="44.57711" lon="5.97223">
        <ele>1188</ele>
        <time>2023-05-19T12:55:11Z</time>
      </trkpt>
      <trkpt lat="44.5771" lon="5.97221">
        <ele>1188.2</ele>
        <time>2023-05-19T12:55:12Z</time>
      </trkpt>
      <trkpt lat="44.57709" lon="5.97219">
        <ele>1188.2</ele>
        <time>2023-05-19T12:55:13Z</time>
      </trkpt>
      <trkpt lat="44.57709" lon="5.97217">
        <ele>1188.4</ele>
        <time>2023-05-19T12:55:14Z</time>
      </trkpt>
      <trkpt lat="44.57708" lon="5.97215">
        <ele>1188.6</ele>
        <time>2023-05-19T12:55:15Z</time>
      </trkpt>
      <trkpt lat="44.57708" lon="5.97212">
        <ele>1188.8</ele>
        <time>2023-05-19T12:55:16Z</time>
      </trkpt>
      <trkpt lat="44.57707" lon="5.9721">
        <ele>1188.8</ele>
        <time>2023-05-19T12:55:17Z</time>
      </trkpt>
      <trkpt lat="44.57707" lon="5.97208">
        <ele>1189</ele>
        <time>2023-05-19T12:55:18Z</time>
      </trkpt>
      <trkpt lat="44.57707" lon="5.97205">
        <ele>1189</ele>
        <time>2023-05-19T12:55:19Z</time>
      </trkpt>
      <trkpt lat="44.57706" lon="5.97203">
        <ele>1189.2</ele>
        <time>2023-05-19T12:55:20Z</time>
      </trkpt>
      <trkpt lat="44.57706" lon="5.972">
        <ele>1189.4</ele>
        <time>2023-05-19T12:55:21Z</time>
      </trkpt>
      <trkpt lat="44.57705" lon="5.97198">
        <ele>1189.4</ele>
        <time>2023-05-19T12:55:22Z</time>
      </trkpt>
      <trkpt lat="44.57704" lon="5.97196">
        <ele>1189.6</ele>
        <time>2023-05-19T12:55:23Z</time>
      </trkpt>
      <trkpt lat="44.57704" lon="5.97193">
        <ele>1189.8</ele>
        <time>2023-05-19T12:55:24Z</time>
      </trkpt>
      <trkpt lat="44.57704" lon="5.97191">
        <ele>1190</ele>
        <time>2023-05-19T12:55:25Z</time>
      </trkpt>
      <trkpt lat="44.57703" lon="5.97188">
        <ele>1190</ele>
        <time>2023-05-19T12:55:26Z</time>
      </trkpt>
      <trkpt lat="44.57702" lon="5.97185">
        <ele>1190.2</ele>
        <time>2023-05-19T12:55:27Z</time>
      </trkpt>
      <trkpt lat="44.57702" lon="5.97182">
        <ele>1190.2</ele>
        <time>2023-05-19T12:55:28Z</time>
      </trkpt>
      <trkpt lat="44.57701" lon="5.97178">
        <ele>1190.2</ele>
        <time>2023-05-19T12:55:29Z</time>
      </trkpt>
      <trkpt lat="44.577" lon="5.97175">
        <ele>1190.4</ele>
        <time>2023-05-19T12:55:30Z</time>
      </trkpt>
      <trkpt lat="44.57699" lon="5.97172">
        <ele>1190.4</ele>
        <time>2023-05-19T12:55:31Z</time>
      </trkpt>
      <trkpt lat="44.57699" lon="5.97169">
        <ele>1190.8</ele>
        <time>2023-05-19T12:55:32Z</time>
      </trkpt>
      <trkpt lat="44.57698" lon="5.97166">
        <ele>1191</ele>
        <time>2023-05-19T12:55:33Z</time>
      </trkpt>
      <trkpt lat="44.57697" lon="5.97162">
        <ele>1191</ele>
        <time>2023-05-19T12:55:34Z</time>
      </trkpt>
      <trkpt lat="44.57696" lon="5.97159">
        <ele>1191.2</ele>
        <time>2023-05-19T12:55:35Z</time>
      </trkpt>
      <trkpt lat="44.57695" lon="5.97155">
        <ele>1191.4</ele>
        <time>2023-05-19T12:55:36Z</time>
      </trkpt>
      <trkpt lat="44.57695" lon="5.97152">
        <ele>1191.4</ele>
        <time>2023-05-19T12:55:37Z</time>
      </trkpt>
      <trkpt lat="44.57694" lon="5.97148">
        <ele>1191.6</ele>
        <time>2023-05-19T12:55:38Z</time>
      </trkpt>
      <trkpt lat="44.57693" lon="5.97144">
        <ele>1191.6</ele>
        <time>2023-05-19T12:55:39Z</time>
      </trkpt>
      <trkpt lat="44.57692" lon="5.9714">
        <ele>1191.6</ele>
        <time>2023-05-19T12:55:40Z</time>
      </trkpt>
      <trkpt lat="44.57691" lon="5.97137">
        <ele>1191.6</ele>
        <time>2023-05-19T12:55:41Z</time>
      </trkpt>
      <trkpt lat="44.57691" lon="5.97134">
        <ele>1191.8</ele>
        <time>2023-05-19T12:55:42Z</time>
      </trkpt>
      <trkpt lat="44.5769" lon="5.97131">
        <ele>1191.8</ele>
        <time>2023-05-19T12:55:43Z</time>
      </trkpt>
      <trkpt lat="44.57689" lon="5.97128">
        <ele>1191.8</ele>
        <time>2023-05-19T12:55:44Z</time>
      </trkpt>
      <trkpt lat="44.57688" lon="5.97125">
        <ele>1191.8</ele>
        <time>2023-05-19T12:55:45Z</time>
      </trkpt>
      <trkpt lat="44.57687" lon="5.97122">
        <ele>1191.8</ele>
        <time>2023-05-19T12:55:46Z</time>
      </trkpt>
      <trkpt lat="44.57686" lon="5.97119">
        <ele>1191.8</ele>
        <time>2023-05-19T12:55:47Z</time>
      </trkpt>
      <trkpt lat="44.57685" lon="5.97115">
        <ele>1192</ele>
        <time>2023-05-19T12:55:48Z</time>
      </trkpt>
      <trkpt lat="44.57684" lon="5.97111">
        <ele>1192</ele>
        <time>2023-05-19T12:55:49Z</time>
      </trkpt>
      <trkpt lat="44.57679" lon="5.97092">
        <ele>1192.2</ele>
        <time>2023-05-19T12:55:53Z</time>
      </trkpt>
      <trkpt lat="44.57673" lon="5.97071">
        <ele>1192</ele>
        <time>2023-05-19T12:55:57Z</time>
      </trkpt>
      <trkpt lat="44.57671" lon="5.9706">
        <ele>1192</ele>
        <time>2023-05-19T12:55:59Z</time>
      </trkpt>
      <trkpt lat="44.57661" lon="5.97026">
        <ele>1191.6</ele>
        <time>2023-05-19T12:56:05Z</time>
      </trkpt>
      <trkpt lat="44.57656" lon="5.97016">
        <ele>1191.4</ele>
        <time>2023-05-19T12:56:07Z</time>
      </trkpt>
      <trkpt lat="44.57645" lon="5.96993">
        <ele>1190.8</ele>
        <time>2023-05-19T12:56:12Z</time>
      </trkpt>
      <trkpt lat="44.57643" lon="5.96988">
        <ele>1190.6</ele>
        <time>2023-05-19T12:56:13Z</time>
      </trkpt>
      <trkpt lat="44.57641" lon="5.96984">
        <ele>1190.6</ele>
        <time>2023-05-19T12:56:14Z</time>
      </trkpt>
      <trkpt lat="44.57638" lon="5.96979">
        <ele>1190.4</ele>
        <time>2023-05-19T12:56:15Z</time>
      </trkpt>
      <trkpt lat="44.57636" lon="5.96975">
        <ele>1190.2</ele>
        <time>2023-05-19T12:56:16Z</time>
      </trkpt>
      <trkpt lat="44.57631" lon="5.96966">
        <ele>1190.2</ele>
        <time>2023-05-19T12:56:18Z</time>
      </trkpt>
      <trkpt lat="44.57629" lon="5.96962">
        <ele>1190</ele>
        <time>2023-05-19T12:56:19Z</time>
      </trkpt>
      <trkpt lat="44.57627" lon="5.96958">
        <ele>1190</ele>
        <time>2023-05-19T12:56:20Z</time>
      </trkpt>
      <trkpt lat="44.57624" lon="5.96955">
        <ele>1189.8</ele>
        <time>2023-05-19T12:56:21Z</time>
      </trkpt>
      <trkpt lat="44.57622" lon="5.96951">
        <ele>1189.6</ele>
        <time>2023-05-19T12:56:22Z</time>
      </trkpt>
      <trkpt lat="44.57615" lon="5.96944">
        <ele>1189.6</ele>
        <time>2023-05-19T12:56:24Z</time>
      </trkpt>
      <trkpt lat="44.57612" lon="5.96941">
        <ele>1189.6</ele>
        <time>2023-05-19T12:56:25Z</time>
      </trkpt>
      <trkpt lat="44.57609" lon="5.96938">
        <ele>1189.6</ele>
        <time>2023-05-19T12:56:26Z</time>
      </trkpt>
      <trkpt lat="44.57607" lon="5.96935">
        <ele>1189.6</ele>
        <time>2023-05-19T12:56:27Z</time>
      </trkpt>
      <trkpt lat="44.57605" lon="5.96931">
        <ele>1189.6</ele>
        <time>2023-05-19T12:56:28Z</time>
      </trkpt>
      <trkpt lat="44.57602" lon="5.96927">
        <ele>1189.6</ele>
        <time>2023-05-19T12:56:29Z</time>
      </trkpt>
      <trkpt lat="44.57599" lon="5.96923">
        <ele>1189.6</ele>
        <time>2023-05-19T12:56:30Z</time>
      </trkpt>
      <trkpt lat="44.57571" lon="5.9689">
        <ele>1188.8</ele>
        <time>2023-05-19T12:56:39Z</time>
      </trkpt>
      <trkpt lat="44.57567" lon="5.96887">
        <ele>1188.6</ele>
        <time>2023-05-19T12:56:40Z</time>
      </trkpt>
      <trkpt lat="44.57564" lon="5.96884">
        <ele>1188.4</ele>
        <time>2023-05-19T12:56:41Z</time>
      </trkpt>
      <trkpt lat="44.57557" lon="5.96879">
        <ele>1188.2</ele>
        <time>2023-05-19T12:56:43Z</time>
      </trkpt>
      <trkpt lat="44.57553" lon="5.96876">
        <ele>1188.2</ele>
        <time>2023-05-19T12:56:44Z</time>
      </trkpt>
      <trkpt lat="44.5755" lon="5.96874">
        <ele>1188.2</ele>
        <time>2023-05-19T12:56:45Z</time>
      </trkpt>
      <trkpt lat="44.57536" lon="5.9686">
        <ele>1187.8</ele>
        <time>2023-05-19T12:56:49Z</time>
      </trkpt>
      <trkpt lat="44.57529" lon="5.96849">
        <ele>1187.6</ele>
        <time>2023-05-19T12:56:51Z</time>
      </trkpt>
      <trkpt lat="44.57516" lon="5.96831">
        <ele>1186.4</ele>
        <time>2023-05-19T12:56:54Z</time>
      </trkpt>
      <trkpt lat="44.57507" lon="5.9682">
        <ele>1185.8</ele>
        <time>2023-05-19T12:56:56Z</time>
      </trkpt>
      <trkpt lat="44.575" lon="5.96809">
        <ele>1185.2</ele>
        <time>2023-05-19T12:56:58Z</time>
      </trkpt>
      <trkpt lat="44.57496" lon="5.96803">
        <ele>1184.8</ele>
        <time>2023-05-19T12:56:59Z</time>
      </trkpt>
      <trkpt lat="44.57492" lon="5.96797">
        <ele>1184.4</ele>
        <time>2023-05-19T12:57:00Z</time>
      </trkpt>
      <trkpt lat="44.57486" lon="5.96791">
        <ele>1183.8</ele>
        <time>2023-05-19T12:57:01Z</time>
      </trkpt>
      <trkpt lat="44.5748" lon="5.96785">
        <ele>1183.4</ele>
        <time>2023-05-19T12:57:02Z</time>
      </trkpt>
      <trkpt lat="44.57474" lon="5.9678">
        <ele>1182.6</ele>
        <time>2023-05-19T12:57:03Z</time>
      </trkpt>
      <trkpt lat="44.57451" lon="5.96762">
        <ele>1181.2</ele>
        <time>2023-05-19T12:57:06Z</time>
      </trkpt>
      <trkpt lat="44.57445" lon="5.96755">
        <ele>1180.8</ele>
        <time>2023-05-19T12:57:07Z</time>
      </trkpt>
      <trkpt lat="44.57439" lon="5.96749">
        <ele>1179.4</ele>
        <time>2023-05-19T12:57:08Z</time>
      </trkpt>
      <trkpt lat="44.57433" lon="5.96742">
        <ele>1178.6</ele>
        <time>2023-05-19T12:57:09Z</time>
      </trkpt>
      <trkpt lat="44.57428" lon="5.96736">
        <ele>1177</ele>
        <time>2023-05-19T12:57:10Z</time>
      </trkpt>
      <trkpt lat="44.57424" lon="5.9673">
        <ele>1176.4</ele>
        <time>2023-05-19T12:57:11Z</time>
      </trkpt>
      <trkpt lat="44.57419" lon="5.96725">
        <ele>1175</ele>
        <time>2023-05-19T12:57:12Z</time>
      </trkpt>
      <trkpt lat="44.57413" lon="5.9672">
        <ele>1173.8</ele>
        <time>2023-05-19T12:57:13Z</time>
      </trkpt>
      <trkpt lat="44.57407" lon="5.96715">
        <ele>1172.4</ele>
        <time>2023-05-19T12:57:14Z</time>
      </trkpt>
      <trkpt lat="44.57401" lon="5.96711">
        <ele>1171.4</ele>
        <time>2023-05-19T12:57:15Z</time>
      </trkpt>
      <trkpt lat="44.57394" lon="5.96706">
        <ele>1171</ele>
        <time>2023-05-19T12:57:16Z</time>
      </trkpt>
      <trkpt lat="44.57388" lon="5.96701">
        <ele>1169.6</ele>
        <time>2023-05-19T12:57:17Z</time>
      </trkpt>
      <trkpt lat="44.57375" lon="5.96692">
        <ele>1168.2</ele>
        <time>2023-05-19T12:57:19Z</time>
      </trkpt>
      <trkpt lat="44.57371" lon="5.96687">
        <ele>1167.6</ele>
        <time>2023-05-19T12:57:20Z</time>
      </trkpt>
      <trkpt lat="44.57368" lon="5.96682">
        <ele>1165.8</ele>
        <time>2023-05-19T12:57:21Z</time>
      </trkpt>
      <trkpt lat="44.57366" lon="5.96679">
        <ele>1164.8</ele>
        <time>2023-05-19T12:57:22Z</time>
      </trkpt>
      <trkpt lat="44.57364" lon="5.96677">
        <ele>1162.6</ele>
        <time>2023-05-19T12:57:23Z</time>
      </trkpt>
      <trkpt lat="44.57362" lon="5.96677">
        <ele>1160.2</ele>
        <time>2023-05-19T12:57:24Z</time>
      </trkpt>
      <trkpt lat="44.57361" lon="5.96678">
        <ele>1159.4</ele>
        <time>2023-05-19T12:57:25Z</time>
      </trkpt>
      <trkpt lat="44.57359" lon="5.96678">
        <ele>1157.6</ele>
        <time>2023-05-19T12:57:26Z</time>
      </trkpt>
      <trkpt lat="44.57356" lon="5.96678">
        <ele>1156.8</ele>
        <time>2023-05-19T12:57:27Z</time>
      </trkpt>
      <trkpt lat="44.57353" lon="5.96676">
        <ele>1155.8</ele>
        <time>2023-05-19T12:57:28Z</time>
      </trkpt>
      <trkpt lat="44.57351" lon="5.96674">
        <ele>1155.2</ele>
        <time>2023-05-19T12:57:29Z</time>
      </trkpt>
      <trkpt lat="44.57348" lon="5.96671">
        <ele>1154.4</ele>
        <time>2023-05-19T12:57:30Z</time>
      </trkpt>
      <trkpt lat="44.57345" lon="5.96668">
        <ele>1153.8</ele>
        <time>2023-05-19T12:57:31Z</time>
      </trkpt>
      <trkpt lat="44.57341" lon="5.96665">
        <ele>1152.8</ele>
        <time>2023-05-19T12:57:32Z</time>
      </trkpt>
      <trkpt lat="44.57337" lon="5.96662">
        <ele>1151.8</ele>
        <time>2023-05-19T12:57:33Z</time>
      </trkpt>
      <trkpt lat="44.57332" lon="5.96656">
        <ele>1150.8</ele>
        <time>2023-05-19T12:57:35Z</time>
      </trkpt>
      <trkpt lat="44.57329" lon="5.96654">
        <ele>1150.6</ele>
        <time>2023-05-19T12:57:36Z</time>
      </trkpt>
      <trkpt lat="44.57327" lon="5.96652">
        <ele>1149.8</ele>
        <time>2023-05-19T12:57:37Z</time>
      </trkpt>
      <trkpt lat="44.57326" lon="5.96651">
        <ele>1149.2</ele>
        <time>2023-05-19T12:57:38Z</time>
      </trkpt>
      <trkpt lat="44.57324" lon="5.9665">
        <ele>1147.8</ele>
        <time>2023-05-19T12:57:39Z</time>
      </trkpt>
      <trkpt lat="44.57323" lon="5.96649">
        <ele>1146.8</ele>
        <time>2023-05-19T12:57:40Z</time>
      </trkpt>
      <trkpt lat="44.57321" lon="5.96648">
        <ele>1146.2</ele>
        <time>2023-05-19T12:57:41Z</time>
      </trkpt>
      <trkpt lat="44.57319" lon="5.96647">
        <ele>1145.2</ele>
        <time>2023-05-19T12:57:42Z</time>
      </trkpt>
      <trkpt lat="44.57315" lon="5.96644">
        <ele>1144</ele>
        <time>2023-05-19T12:57:44Z</time>
      </trkpt>
      <trkpt lat="44.57313" lon="5.96642">
        <ele>1143.8</ele>
        <time>2023-05-19T12:57:45Z</time>
      </trkpt>
      <trkpt lat="44.57308" lon="5.9664">
        <ele>1143</ele>
        <time>2023-05-19T12:57:47Z</time>
      </trkpt>
      <trkpt lat="44.57306" lon="5.96638">
        <ele>1142.2</ele>
        <time>2023-05-19T12:57:48Z</time>
      </trkpt>
      <trkpt lat="44.57303" lon="5.96637">
        <ele>1141.4</ele>
        <time>2023-05-19T12:57:49Z</time>
      </trkpt>
      <trkpt lat="44.57298" lon="5.96636">
        <ele>1140.4</ele>
        <time>2023-05-19T12:57:51Z</time>
      </trkpt>
      <trkpt lat="44.57298" lon="5.96636">
        <ele>1139.6</ele>
        <time>2023-05-19T12:57:53Z</time>
      </trkpt>
      <trkpt lat="44.57298" lon="5.96636">
        <ele>1139.4</ele>
        <time>2023-05-19T12:57:54Z</time>
      </trkpt>
      <trkpt lat="44.57298" lon="5.96636">
        <ele>1138</ele>
        <time>2023-05-19T12:57:56Z</time>
      </trkpt>
      <trkpt lat="44.57298" lon="5.96636">
        <ele>1136.8</ele>
        <time>2023-05-19T12:57:58Z</time>
      </trkpt>
      <trkpt lat="44.57298" lon="5.96636">
        <ele>1135.6</ele>
        <time>2023-05-19T12:58:02Z</time>
      </trkpt>
      <trkpt lat="44.57295" lon="5.96634">
        <ele>1134.6</ele>
        <time>2023-05-19T12:58:10Z</time>
      </trkpt>
      <trkpt lat="44.57292" lon="5.96631">
        <ele>1134.6</ele>
        <time>2023-05-19T12:58:12Z</time>
      </trkpt>
      <trkpt lat="44.57289" lon="5.96629">
        <ele>1134.6</ele>
        <time>2023-05-19T12:58:13Z</time>
      </trkpt>
      <trkpt lat="44.57283" lon="5.96624">
        <ele>1134.2</ele>
        <time>2023-05-19T12:58:16Z</time>
      </trkpt>
      <trkpt lat="44.57281" lon="5.96623">
        <ele>1134.2</ele>
        <time>2023-05-19T12:58:17Z</time>
      </trkpt>
      <trkpt lat="44.57275" lon="5.96619">
        <ele>1133.6</ele>
        <time>2023-05-19T12:58:19Z</time>
      </trkpt>
      <trkpt lat="44.57271" lon="5.96616">
        <ele>1133.2</ele>
        <time>2023-05-19T12:58:20Z</time>
      </trkpt>
      <trkpt lat="44.57266" lon="5.96614">
        <ele>1132.6</ele>
        <time>2023-05-19T12:58:21Z</time>
      </trkpt>
      <trkpt lat="44.57261" lon="5.96612">
        <ele>1132.4</ele>
        <time>2023-05-19T12:58:22Z</time>
      </trkpt>
      <trkpt lat="44.57251" lon="5.96609">
        <ele>1131.6</ele>
        <time>2023-05-19T12:58:24Z</time>
      </trkpt>
      <trkpt lat="44.57236" lon="5.96601">
        <ele>1130.4</ele>
        <time>2023-05-19T12:58:27Z</time>
      </trkpt>
      <trkpt lat="44.5723" lon="5.96597">
        <ele>1130</ele>
        <time>2023-05-19T12:58:28Z</time>
      </trkpt>
      <trkpt lat="44.57224" lon="5.96594">
        <ele>1128.6</ele>
        <time>2023-05-19T12:58:29Z</time>
      </trkpt>
      <trkpt lat="44.57219" lon="5.96592">
        <ele>1127.6</ele>
        <time>2023-05-19T12:58:30Z</time>
      </trkpt>
      <trkpt lat="44.57215" lon="5.96591">
        <ele>1126.8</ele>
        <time>2023-05-19T12:58:31Z</time>
      </trkpt>
      <trkpt lat="44.5721" lon="5.96589">
        <ele>1125.4</ele>
        <time>2023-05-19T12:58:32Z</time>
      </trkpt>
      <trkpt lat="44.57206" lon="5.96587">
        <ele>1124.8</ele>
        <time>2023-05-19T12:58:33Z</time>
      </trkpt>
      <trkpt lat="44.57203" lon="5.96585">
        <ele>1123.8</ele>
        <time>2023-05-19T12:58:34Z</time>
      </trkpt>
      <trkpt lat="44.572" lon="5.96583">
        <ele>1123.4</ele>
        <time>2023-05-19T12:58:35Z</time>
      </trkpt>
      <trkpt lat="44.57198" lon="5.96581">
        <ele>1122.2</ele>
        <time>2023-05-19T12:58:36Z</time>
      </trkpt>
      <trkpt lat="44.57195" lon="5.9658">
        <ele>1121.4</ele>
        <time>2023-05-19T12:58:37Z</time>
      </trkpt>
      <trkpt lat="44.57193" lon="5.96579">
        <ele>1121</ele>
        <time>2023-05-19T12:58:38Z</time>
      </trkpt>
      <trkpt lat="44.57189" lon="5.96577">
        <ele>1119.8</ele>
        <time>2023-05-19T12:58:39Z</time>
      </trkpt>
      <trkpt lat="44.57178" lon="5.96576">
        <ele>1118.4</ele>
        <time>2023-05-19T12:58:42Z</time>
      </trkpt>
      <trkpt lat="44.57169" lon="5.96577">
        <ele>1117.4</ele>
        <time>2023-05-19T12:58:44Z</time>
      </trkpt>
      <trkpt lat="44.57156" lon="5.9658">
        <ele>1116.2</ele>
        <time>2023-05-19T12:58:47Z</time>
      </trkpt>
      <trkpt lat="44.57152" lon="5.96582">
        <ele>1115.8</ele>
        <time>2023-05-19T12:58:48Z</time>
      </trkpt>
      <trkpt lat="44.57145" lon="5.96586">
        <ele>1115.2</ele>
        <time>2023-05-19T12:58:50Z</time>
      </trkpt>
      <trkpt lat="44.57136" lon="5.96589">
        <ele>1114.8</ele>
        <time>2023-05-19T12:58:52Z</time>
      </trkpt>
      <trkpt lat="44.57123" lon="5.9659">
        <ele>1114.4</ele>
        <time>2023-05-19T12:58:55Z</time>
      </trkpt>
      <trkpt lat="44.57118" lon="5.9659">
        <ele>1114.2</ele>
        <time>2023-05-19T12:58:56Z</time>
      </trkpt>
      <trkpt lat="44.57114" lon="5.96589">
        <ele>1113.8</ele>
        <time>2023-05-19T12:58:57Z</time>
      </trkpt>
      <trkpt lat="44.57101" lon="5.96583">
        <ele>1113.4</ele>
        <time>2023-05-19T12:59:00Z</time>
      </trkpt>
      <trkpt lat="44.57093" lon="5.9658">
        <ele>1113</ele>
        <time>2023-05-19T12:59:02Z</time>
      </trkpt>
      <trkpt lat="44.57089" lon="5.96578">
        <ele>1113</ele>
        <time>2023-05-19T12:59:03Z</time>
      </trkpt>
      <trkpt lat="44.57073" lon="5.96577">
        <ele>1112.8</ele>
        <time>2023-05-19T12:59:06Z</time>
      </trkpt>
      <trkpt lat="44.57067" lon="5.96576">
        <ele>1112.6</ele>
        <time>2023-05-19T12:59:07Z</time>
      </trkpt>
      <trkpt lat="44.57043" lon="5.96574">
        <ele>1111.4</ele>
        <time>2023-05-19T12:59:11Z</time>
      </trkpt>
      <trkpt lat="44.57037" lon="5.96573">
        <ele>1111.4</ele>
        <time>2023-05-19T12:59:12Z</time>
      </trkpt>
      <trkpt lat="44.57031" lon="5.96571">
        <ele>1110.8</ele>
        <time>2023-05-19T12:59:13Z</time>
      </trkpt>
      <trkpt lat="44.57025" lon="5.96569">
        <ele>1110.4</ele>
        <time>2023-05-19T12:59:14Z</time>
      </trkpt>
      <trkpt lat="44.57019" lon="5.96567">
        <ele>1110</ele>
        <time>2023-05-19T12:59:15Z</time>
      </trkpt>
      <trkpt lat="44.56999" lon="5.96558">
        <ele>1108.6</ele>
        <time>2023-05-19T12:59:18Z</time>
      </trkpt>
      <trkpt lat="44.56984" lon="5.96552">
        <ele>1107</ele>
        <time>2023-05-19T12:59:20Z</time>
      </trkpt>
      <trkpt lat="44.5697" lon="5.96549">
        <ele>1105.8</ele>
        <time>2023-05-19T12:59:22Z</time>
      </trkpt>
      <trkpt lat="44.56963" lon="5.96549">
        <ele>1105.2</ele>
        <time>2023-05-19T12:59:23Z</time>
      </trkpt>
      <trkpt lat="44.56956" lon="5.96548">
        <ele>1103.8</ele>
        <time>2023-05-19T12:59:24Z</time>
      </trkpt>
      <trkpt lat="44.56943" lon="5.96542">
        <ele>1102.6</ele>
        <time>2023-05-19T12:59:26Z</time>
      </trkpt>
      <trkpt lat="44.56937" lon="5.96537">
        <ele>1101</ele>
        <time>2023-05-19T12:59:27Z</time>
      </trkpt>
      <trkpt lat="44.56933" lon="5.96531">
        <ele>1100.4</ele>
        <time>2023-05-19T12:59:28Z</time>
      </trkpt>
      <trkpt lat="44.56928" lon="5.96525">
        <ele>1099.6</ele>
        <time>2023-05-19T12:59:29Z</time>
      </trkpt>
      <trkpt lat="44.56924" lon="5.96519">
        <ele>1099.4</ele>
        <time>2023-05-19T12:59:30Z</time>
      </trkpt>
      <trkpt lat="44.5692" lon="5.96512">
        <ele>1098.8</ele>
        <time>2023-05-19T12:59:31Z</time>
      </trkpt>
      <trkpt lat="44.56916" lon="5.96505">
        <ele>1098.4</ele>
        <time>2023-05-19T12:59:32Z</time>
      </trkpt>
      <trkpt lat="44.56912" lon="5.96498">
        <ele>1097.2</ele>
        <time>2023-05-19T12:59:33Z</time>
      </trkpt>
      <trkpt lat="44.56907" lon="5.96491">
        <ele>1095.6</ele>
        <time>2023-05-19T12:59:34Z</time>
      </trkpt>
      <trkpt lat="44.56902" lon="5.96485">
        <ele>1095.2</ele>
        <time>2023-05-19T12:59:35Z</time>
      </trkpt>
      <trkpt lat="44.56897" lon="5.96478">
        <ele>1093.8</ele>
        <time>2023-05-19T12:59:36Z</time>
      </trkpt>
      <trkpt lat="44.56891" lon="5.96471">
        <ele>1093.2</ele>
        <time>2023-05-19T12:59:37Z</time>
      </trkpt>
      <trkpt lat="44.56887" lon="5.96463">
        <ele>1091.8</ele>
        <time>2023-05-19T12:59:38Z</time>
      </trkpt>
      <trkpt lat="44.56883" lon="5.96454">
        <ele>1091.2</ele>
        <time>2023-05-19T12:59:39Z</time>
      </trkpt>
      <trkpt lat="44.56879" lon="5.96445">
        <ele>1090.2</ele>
        <time>2023-05-19T12:59:40Z</time>
      </trkpt>
      <trkpt lat="44.56869" lon="5.96429">
        <ele>1087.8</ele>
        <time>2023-05-19T12:59:42Z</time>
      </trkpt>
      <trkpt lat="44.56863" lon="5.96421">
        <ele>1085.8</ele>
        <time>2023-05-19T12:59:43Z</time>
      </trkpt>
      <trkpt lat="44.5685" lon="5.96406">
        <ele>1084</ele>
        <time>2023-05-19T12:59:45Z</time>
      </trkpt>
      <trkpt lat="44.56843" lon="5.964">
        <ele>1082.6</ele>
        <time>2023-05-19T12:59:46Z</time>
      </trkpt>
      <trkpt lat="44.56836" lon="5.96394">
        <ele>1080.6</ele>
        <time>2023-05-19T12:59:47Z</time>
      </trkpt>
      <trkpt lat="44.56829" lon="5.96388">
        <ele>1079.8</ele>
        <time>2023-05-19T12:59:48Z</time>
      </trkpt>
      <trkpt lat="44.56823" lon="5.96381">
        <ele>1077.6</ele>
        <time>2023-05-19T12:59:49Z</time>
      </trkpt>
      <trkpt lat="44.56816" lon="5.96375">
        <ele>1076.4</ele>
        <time>2023-05-19T12:59:50Z</time>
      </trkpt>
      <trkpt lat="44.5681" lon="5.96369">
        <ele>1074.2</ele>
        <time>2023-05-19T12:59:51Z</time>
      </trkpt>
      <trkpt lat="44.56805" lon="5.96363">
        <ele>1072.4</ele>
        <time>2023-05-19T12:59:52Z</time>
      </trkpt>
      <trkpt lat="44.56802" lon="5.96357">
        <ele>1071.6</ele>
        <time>2023-05-19T12:59:53Z</time>
      </trkpt>
      <trkpt lat="44.568" lon="5.96352">
        <ele>1069</ele>
        <time>2023-05-19T12:59:54Z</time>
      </trkpt>
      <trkpt lat="44.56801" lon="5.96347">
        <ele>1068</ele>
        <time>2023-05-19T12:59:55Z</time>
      </trkpt>
      <trkpt lat="44.56801" lon="5.96342">
        <ele>1066.4</ele>
        <time>2023-05-19T12:59:56Z</time>
      </trkpt>
      <trkpt lat="44.568" lon="5.96337">
        <ele>1065.2</ele>
        <time>2023-05-19T12:59:57Z</time>
      </trkpt>
      <trkpt lat="44.56796" lon="5.96334">
        <ele>1063.2</ele>
        <time>2023-05-19T12:59:58Z</time>
      </trkpt>
      <trkpt lat="44.56791" lon="5.96332">
        <ele>1061.8</ele>
        <time>2023-05-19T12:59:59Z</time>
      </trkpt>
      <trkpt lat="44.56786" lon="5.96328">
        <ele>1061</ele>
        <time>2023-05-19T13:00:00Z</time>
      </trkpt>
      <trkpt lat="44.56781" lon="5.96323">
        <ele>1059.6</ele>
        <time>2023-05-19T13:00:01Z</time>
      </trkpt>
      <trkpt lat="44.56776" lon="5.96319">
        <ele>1059</ele>
        <time>2023-05-19T13:00:02Z</time>
      </trkpt>
      <trkpt lat="44.56769" lon="5.96316">
        <ele>1057.4</ele>
        <time>2023-05-19T13:00:03Z</time>
      </trkpt>
      <trkpt lat="44.56762" lon="5.96312">
        <ele>1056.2</ele>
        <time>2023-05-19T13:00:04Z</time>
      </trkpt>
      <trkpt lat="44.56757" lon="5.96307">
        <ele>1054.6</ele>
        <time>2023-05-19T13:00:05Z</time>
      </trkpt>
      <trkpt lat="44.56755" lon="5.96302">
        <ele>1054.2</ele>
        <time>2023-05-19T13:00:06Z</time>
      </trkpt>
      <trkpt lat="44.56752" lon="5.96297">
        <ele>1053.6</ele>
        <time>2023-05-19T13:00:07Z</time>
      </trkpt>
      <trkpt lat="44.5675" lon="5.96293">
        <ele>1053</ele>
        <time>2023-05-19T13:00:08Z</time>
      </trkpt>
      <trkpt lat="44.56746" lon="5.96288">
        <ele>1052</ele>
        <time>2023-05-19T13:00:09Z</time>
      </trkpt>
      <trkpt lat="44.56743" lon="5.96284">
        <ele>1050.8</ele>
        <time>2023-05-19T13:00:10Z</time>
      </trkpt>
      <trkpt lat="44.56739" lon="5.96279">
        <ele>1050.2</ele>
        <time>2023-05-19T13:00:11Z</time>
      </trkpt>
      <trkpt lat="44.56736" lon="5.96275">
        <ele>1049.4</ele>
        <time>2023-05-19T13:00:12Z</time>
      </trkpt>
      <trkpt lat="44.56733" lon="5.9627">
        <ele>1049</ele>
        <time>2023-05-19T13:00:13Z</time>
      </trkpt>
      <trkpt lat="44.56726" lon="5.9626">
        <ele>1048</ele>
        <time>2023-05-19T13:00:15Z</time>
      </trkpt>
      <trkpt lat="44.56722" lon="5.96255">
        <ele>1048</ele>
        <time>2023-05-19T13:00:16Z</time>
      </trkpt>
      <trkpt lat="44.56718" lon="5.9625">
        <ele>1047.6</ele>
        <time>2023-05-19T13:00:17Z</time>
      </trkpt>
      <trkpt lat="44.56709" lon="5.96242">
        <ele>1047</ele>
        <time>2023-05-19T13:00:19Z</time>
      </trkpt>
      <trkpt lat="44.56703" lon="5.96238">
        <ele>1047</ele>
        <time>2023-05-19T13:00:20Z</time>
      </trkpt>
      <trkpt lat="44.56696" lon="5.96235">
        <ele>1046.6</ele>
        <time>2023-05-19T13:00:21Z</time>
      </trkpt>
      <trkpt lat="44.56685" lon="5.96228">
        <ele>1045.6</ele>
        <time>2023-05-19T13:00:23Z</time>
      </trkpt>
      <trkpt lat="44.56681" lon="5.96225">
        <ele>1045.2</ele>
        <time>2023-05-19T13:00:24Z</time>
      </trkpt>
      <trkpt lat="44.56677" lon="5.96222">
        <ele>1044.8</ele>
        <time>2023-05-19T13:00:25Z</time>
      </trkpt>
      <trkpt lat="44.56673" lon="5.96219">
        <ele>1044.4</ele>
        <time>2023-05-19T13:00:26Z</time>
      </trkpt>
      <trkpt lat="44.56669" lon="5.96217">
        <ele>1044.2</ele>
        <time>2023-05-19T13:00:27Z</time>
      </trkpt>
      <trkpt lat="44.56665" lon="5.96213">
        <ele>1044</ele>
        <time>2023-05-19T13:00:28Z</time>
      </trkpt>
      <trkpt lat="44.56662" lon="5.9621">
        <ele>1043.8</ele>
        <time>2023-05-19T13:00:29Z</time>
      </trkpt>
      <trkpt lat="44.56658" lon="5.96205">
        <ele>1043.6</ele>
        <time>2023-05-19T13:00:30Z</time>
      </trkpt>
      <trkpt lat="44.56654" lon="5.96199">
        <ele>1043.4</ele>
        <time>2023-05-19T13:00:31Z</time>
      </trkpt>
      <trkpt lat="44.56638" lon="5.96179">
        <ele>1043</ele>
        <time>2023-05-19T13:00:34Z</time>
      </trkpt>
      <trkpt lat="44.56626" lon="5.96163">
        <ele>1042.6</ele>
        <time>2023-05-19T13:00:36Z</time>
      </trkpt>
      <trkpt lat="44.5661" lon="5.96146">
        <ele>1042.2</ele>
        <time>2023-05-19T13:00:38Z</time>
      </trkpt>
      <trkpt lat="44.56603" lon="5.96136">
        <ele>1041.2</ele>
        <time>2023-05-19T13:00:39Z</time>
      </trkpt>
      <trkpt lat="44.56597" lon="5.96126">
        <ele>1040</ele>
        <time>2023-05-19T13:00:40Z</time>
      </trkpt>
      <trkpt lat="44.56591" lon="5.96117">
        <ele>1039.2</ele>
        <time>2023-05-19T13:00:41Z</time>
      </trkpt>
      <trkpt lat="44.56585" lon="5.96107">
        <ele>1038.2</ele>
        <time>2023-05-19T13:00:42Z</time>
      </trkpt>
      <trkpt lat="44.56579" lon="5.96098">
        <ele>1037.8</ele>
        <time>2023-05-19T13:00:43Z</time>
      </trkpt>
      <trkpt lat="44.56574" lon="5.9609">
        <ele>1036.6</ele>
        <time>2023-05-19T13:00:44Z</time>
      </trkpt>
      <trkpt lat="44.56567" lon="5.96074">
        <ele>1035.4</ele>
        <time>2023-05-19T13:00:46Z</time>
      </trkpt>
      <trkpt lat="44.56565" lon="5.96067">
        <ele>1035</ele>
        <time>2023-05-19T13:00:47Z</time>
      </trkpt>
      <trkpt lat="44.56564" lon="5.96061">
        <ele>1033.6</ele>
        <time>2023-05-19T13:00:48Z</time>
      </trkpt>
      <trkpt lat="44.56562" lon="5.96055">
        <ele>1032.4</ele>
        <time>2023-05-19T13:00:49Z</time>
      </trkpt>
      <trkpt lat="44.5656" lon="5.96049">
        <ele>1032</ele>
        <time>2023-05-19T13:00:50Z</time>
      </trkpt>
      <trkpt lat="44.56557" lon="5.96044">
        <ele>1031.6</ele>
        <time>2023-05-19T13:00:51Z</time>
      </trkpt>
      <trkpt lat="44.56554" lon="5.96038">
        <ele>1031</ele>
        <time>2023-05-19T13:00:52Z</time>
      </trkpt>
      <trkpt lat="44.56551" lon="5.96033">
        <ele>1029.6</ele>
        <time>2023-05-19T13:00:53Z</time>
      </trkpt>
      <trkpt lat="44.56548" lon="5.9603">
        <ele>1029</ele>
        <time>2023-05-19T13:00:54Z</time>
      </trkpt>
      <trkpt lat="44.56546" lon="5.96027">
        <ele>1028</ele>
        <time>2023-05-19T13:00:55Z</time>
      </trkpt>
      <trkpt lat="44.56545" lon="5.96024">
        <ele>1027.4</ele>
        <time>2023-05-19T13:00:56Z</time>
      </trkpt>
      <trkpt lat="44.56545" lon="5.96021">
        <ele>1027.2</ele>
        <time>2023-05-19T13:00:57Z</time>
      </trkpt>
      <trkpt lat="44.56544" lon="5.96018">
        <ele>1026.6</ele>
        <time>2023-05-19T13:00:58Z</time>
      </trkpt>
      <trkpt lat="44.56543" lon="5.96013">
        <ele>1026.2</ele>
        <time>2023-05-19T13:00:59Z</time>
      </trkpt>
      <trkpt lat="44.5654" lon="5.96007">
        <ele>1025.6</ele>
        <time>2023-05-19T13:01:00Z</time>
      </trkpt>
      <trkpt lat="44.56536" lon="5.96">
        <ele>1025.4</ele>
        <time>2023-05-19T13:01:01Z</time>
      </trkpt>
      <trkpt lat="44.56533" lon="5.95993">
        <ele>1024.6</ele>
        <time>2023-05-19T13:01:02Z</time>
      </trkpt>
      <trkpt lat="44.5653" lon="5.95985">
        <ele>1024</ele>
        <time>2023-05-19T13:01:03Z</time>
      </trkpt>
      <trkpt lat="44.56527" lon="5.95977">
        <ele>1023.2</ele>
        <time>2023-05-19T13:01:04Z</time>
      </trkpt>
      <trkpt lat="44.5652" lon="5.95961">
        <ele>1022</ele>
        <time>2023-05-19T13:01:06Z</time>
      </trkpt>
      <trkpt lat="44.56519" lon="5.95956">
        <ele>1021.2</ele>
        <time>2023-05-19T13:01:07Z</time>
      </trkpt>
      <trkpt lat="44.56517" lon="5.95952">
        <ele>1020.6</ele>
        <time>2023-05-19T13:01:08Z</time>
      </trkpt>
      <trkpt lat="44.56515" lon="5.95947">
        <ele>1019.2</ele>
        <time>2023-05-19T13:01:09Z</time>
      </trkpt>
      <trkpt lat="44.56514" lon="5.95943">
        <ele>1018.8</ele>
        <time>2023-05-19T13:01:10Z</time>
      </trkpt>
      <trkpt lat="44.56514" lon="5.95938">
        <ele>1017.8</ele>
        <time>2023-05-19T13:01:11Z</time>
      </trkpt>
      <trkpt lat="44.56513" lon="5.95933">
        <ele>1016.6</ele>
        <time>2023-05-19T13:01:12Z</time>
      </trkpt>
      <trkpt lat="44.56512" lon="5.95928">
        <ele>1016.2</ele>
        <time>2023-05-19T13:01:13Z</time>
      </trkpt>
      <trkpt lat="44.56509" lon="5.95924">
        <ele>1015</ele>
        <time>2023-05-19T13:01:14Z</time>
      </trkpt>
      <trkpt lat="44.56505" lon="5.95918">
        <ele>1012.8</ele>
        <time>2023-05-19T13:01:16Z</time>
      </trkpt>
      <trkpt lat="44.56504" lon="5.95916">
        <ele>1012</ele>
        <time>2023-05-19T13:01:17Z</time>
      </trkpt>
      <trkpt lat="44.56505" lon="5.95914">
        <ele>1010.8</ele>
        <time>2023-05-19T13:01:18Z</time>
      </trkpt>
      <trkpt lat="44.56505" lon="5.95914">
        <ele>1010.4</ele>
        <time>2023-05-19T13:01:19Z</time>
      </trkpt>
      <trkpt lat="44.56505" lon="5.95914">
        <ele>1009.4</ele>
        <time>2023-05-19T13:01:21Z</time>
      </trkpt>
      <trkpt lat="44.56505" lon="5.95914">
        <ele>1008.2</ele>
        <time>2023-05-19T13:01:23Z</time>
      </trkpt>
      <trkpt lat="44.56505" lon="5.95914">
        <ele>1007.2</ele>
        <time>2023-05-19T13:01:28Z</time>
      </trkpt>
      <trkpt lat="44.56505" lon="5.95914">
        <ele>1007</ele>
        <time>2023-05-19T13:01:31Z</time>
      </trkpt>
      <trkpt lat="44.56505" lon="5.95914">
        <ele>1007</ele>
        <time>2023-05-19T13:01:34Z</time>
      </trkpt>
      <trkpt lat="44.56505" lon="5.95914">
        <ele>1007.2</ele>
        <time>2023-05-19T13:01:38Z</time>
      </trkpt>
      <trkpt lat="44.56505" lon="5.95916">
        <ele>1007.6</ele>
        <time>2023-05-19T13:01:46Z</time>
      </trkpt>
      <trkpt lat="44.56506" lon="5.95917">
        <ele>1007.8</ele>
        <time>2023-05-19T13:01:47Z</time>
      </trkpt>
      <trkpt lat="44.56509" lon="5.95922">
        <ele>1007.8</ele>
        <time>2023-05-19T13:01:50Z</time>
      </trkpt>
      <trkpt lat="44.5651" lon="5.95924">
        <ele>1007.8</ele>
        <time>2023-05-19T13:01:51Z</time>
      </trkpt>
      <trkpt lat="44.5651" lon="5.95926">
        <ele>1007.8</ele>
        <time>2023-05-19T13:01:52Z</time>
      </trkpt>
      <trkpt lat="44.5651" lon="5.95926">
        <ele>1007.8</ele>
        <time>2023-05-19T13:01:53Z</time>
      </trkpt>
      <trkpt lat="44.5651" lon="5.95926">
        <ele>1008.2</ele>
        <time>2023-05-19T13:01:55Z</time>
      </trkpt>
      <trkpt lat="44.5651" lon="5.95928">
        <ele>1008.2</ele>
        <time>2023-05-19T13:01:57Z</time>
      </trkpt>
      <trkpt lat="44.56511" lon="5.95929">
        <ele>1008.6</ele>
        <time>2023-05-19T13:02:01Z</time>
      </trkpt>
      <trkpt lat="44.56511" lon="5.9593">
        <ele>1008.6</ele>
        <time>2023-05-19T13:02:02Z</time>
      </trkpt>
      <trkpt lat="44.56512" lon="5.95931">
        <ele>1008.8</ele>
        <time>2023-05-19T13:02:04Z</time>
      </trkpt>
      <trkpt lat="44.56512" lon="5.95931">
        <ele>1009</ele>
        <time>2023-05-19T13:02:05Z</time>
      </trkpt>
      <trkpt lat="44.56512" lon="5.95932">
        <ele>1009.2</ele>
        <time>2023-05-19T13:02:06Z</time>
      </trkpt>
      <trkpt lat="44.56512" lon="5.95932">
        <ele>1009.4</ele>
        <time>2023-05-19T13:02:07Z</time>
      </trkpt>
      <trkpt lat="44.56512" lon="5.95932">
        <ele>1009.6</ele>
        <time>2023-05-19T13:02:08Z</time>
      </trkpt>
      <trkpt lat="44.56514" lon="5.95935">
        <ele>1009.8</ele>
        <time>2023-05-19T13:02:10Z</time>
      </trkpt>
      <trkpt lat="44.56514" lon="5.95936">
        <ele>1010.2</ele>
        <time>2023-05-19T13:02:11Z</time>
      </trkpt>
      <trkpt lat="44.56516" lon="5.95938">
        <ele>1011</ele>
        <time>2023-05-19T13:02:16Z</time>
      </trkpt>
      <trkpt lat="44.56516" lon="5.95938">
        <ele>1011.2</ele>
        <time>2023-05-19T13:02:17Z</time>
      </trkpt>
      <trkpt lat="44.56516" lon="5.95939">
        <ele>1011.4</ele>
        <time>2023-05-19T13:02:18Z</time>
      </trkpt>
      <trkpt lat="44.56516" lon="5.95941">
        <ele>1011.6</ele>
        <time>2023-05-19T13:02:20Z</time>
      </trkpt>
      <trkpt lat="44.56517" lon="5.95942">
        <ele>1011.6</ele>
        <time>2023-05-19T13:02:21Z</time>
      </trkpt>
      <trkpt lat="44.56518" lon="5.95943">
        <ele>1011.8</ele>
        <time>2023-05-19T13:02:22Z</time>
      </trkpt>
      <trkpt lat="44.56518" lon="5.95945">
        <ele>1011.8</ele>
        <time>2023-05-19T13:02:23Z</time>
      </trkpt>
      <trkpt lat="44.56519" lon="5.95946">
        <ele>1011.8</ele>
        <time>2023-05-19T13:02:24Z</time>
      </trkpt>
      <trkpt lat="44.56519" lon="5.95946">
        <ele>1012.2</ele>
        <time>2023-05-19T13:02:25Z</time>
      </trkpt>
      <trkpt lat="44.56519" lon="5.95947">
        <ele>1012.2</ele>
        <time>2023-05-19T13:02:26Z</time>
      </trkpt>
      <trkpt lat="44.56519" lon="5.95947">
        <ele>1012.4</ele>
        <time>2023-05-19T13:02:27Z</time>
      </trkpt>
      <trkpt lat="44.56519" lon="5.95947">
        <ele>1012.4</ele>
        <time>2023-05-19T13:02:28Z</time>
      </trkpt>
      <trkpt lat="44.56519" lon="5.95947">
        <ele>1012.4</ele>
        <time>2023-05-19T13:02:29Z</time>
      </trkpt>
      <trkpt lat="44.56519" lon="5.95947">
        <ele>1012.6</ele>
        <time>2023-05-19T13:02:31Z</time>
      </trkpt>
      <trkpt lat="44.56519" lon="5.95948">
        <ele>1012.6</ele>
        <time>2023-05-19T13:02:32Z</time>
      </trkpt>
      <trkpt lat="44.56521" lon="5.95949">
        <ele>1012.6</ele>
        <time>2023-05-19T13:02:33Z</time>
      </trkpt>
      <trkpt lat="44.56523" lon="5.95951">
        <ele>1012.6</ele>
        <time>2023-05-19T13:02:34Z</time>
      </trkpt>
      <trkpt lat="44.56526" lon="5.95955">
        <ele>1012.6</ele>
        <time>2023-05-19T13:02:35Z</time>
      </trkpt>
      <trkpt lat="44.56529" lon="5.95958">
        <ele>1012.6</ele>
        <time>2023-05-19T13:02:36Z</time>
      </trkpt>
      <trkpt lat="44.56532" lon="5.95962">
        <ele>1012.6</ele>
        <time>2023-05-19T13:02:37Z</time>
      </trkpt>
      <trkpt lat="44.56536" lon="5.95966">
        <ele>1012.6</ele>
        <time>2023-05-19T13:02:38Z</time>
      </trkpt>
      <trkpt lat="44.56546" lon="5.95977">
        <ele>1012.4</ele>
        <time>2023-05-19T13:02:40Z</time>
      </trkpt>
      <trkpt lat="44.56551" lon="5.95982">
        <ele>1012.4</ele>
        <time>2023-05-19T13:02:41Z</time>
      </trkpt>
      <trkpt lat="44.56558" lon="5.95992">
        <ele>1012.2</ele>
        <time>2023-05-19T13:02:43Z</time>
      </trkpt>
      <trkpt lat="44.56561" lon="5.95996">
        <ele>1012</ele>
        <time>2023-05-19T13:02:44Z</time>
      </trkpt>
      <trkpt lat="44.56563" lon="5.96">
        <ele>1011.2</ele>
        <time>2023-05-19T13:02:45Z</time>
      </trkpt>
      <trkpt lat="44.56565" lon="5.96002">
        <ele>1011</ele>
        <time>2023-05-19T13:02:46Z</time>
      </trkpt>
      <trkpt lat="44.56568" lon="5.96003">
        <ele>1010.4</ele>
        <time>2023-05-19T13:02:47Z</time>
      </trkpt>
      <trkpt lat="44.5657" lon="5.96001">
        <ele>1010.2</ele>
        <time>2023-05-19T13:02:48Z</time>
      </trkpt>
      <trkpt lat="44.56571" lon="5.95999">
        <ele>1009.8</ele>
        <time>2023-05-19T13:02:49Z</time>
      </trkpt>
      <trkpt lat="44.56572" lon="5.95995">
        <ele>1009.4</ele>
        <time>2023-05-19T13:02:50Z</time>
      </trkpt>
      <trkpt lat="44.56571" lon="5.95991">
        <ele>1009.2</ele>
        <time>2023-05-19T13:02:51Z</time>
      </trkpt>
      <trkpt lat="44.56569" lon="5.95983">
        <ele>1007.6</ele>
        <time>2023-05-19T13:02:53Z</time>
      </trkpt>
      <trkpt lat="44.56566" lon="5.95974">
        <ele>1006.4</ele>
        <time>2023-05-19T13:02:55Z</time>
      </trkpt>
      <trkpt lat="44.56564" lon="5.95968">
        <ele>1005.8</ele>
        <time>2023-05-19T13:02:56Z</time>
      </trkpt>
      <trkpt lat="44.5656" lon="5.95963">
        <ele>1005.2</ele>
        <time>2023-05-19T13:02:57Z</time>
      </trkpt>
      <trkpt lat="44.56557" lon="5.95956">
        <ele>1004</ele>
        <time>2023-05-19T13:02:58Z</time>
      </trkpt>
      <trkpt lat="44.56555" lon="5.9595">
        <ele>1002.2</ele>
        <time>2023-05-19T13:02:59Z</time>
      </trkpt>
      <trkpt lat="44.56552" lon="5.9594">
        <ele>1000</ele>
        <time>2023-05-19T13:03:01Z</time>
      </trkpt>
      <trkpt lat="44.56551" lon="5.95937">
        <ele>999.2</ele>
        <time>2023-05-19T13:03:02Z</time>
      </trkpt>
      <trkpt lat="44.5655" lon="5.95933">
        <ele>997.6</ele>
        <time>2023-05-19T13:03:03Z</time>
      </trkpt>
      <trkpt lat="44.56549" lon="5.95928">
        <ele>996.6</ele>
        <time>2023-05-19T13:03:04Z</time>
      </trkpt>
      <trkpt lat="44.56546" lon="5.95922">
        <ele>995.4</ele>
        <time>2023-05-19T13:03:05Z</time>
      </trkpt>
      <trkpt lat="44.56544" lon="5.95915">
        <ele>994</ele>
        <time>2023-05-19T13:03:06Z</time>
      </trkpt>
      <trkpt lat="44.56543" lon="5.95908">
        <ele>993.6</ele>
        <time>2023-05-19T13:03:07Z</time>
      </trkpt>
      <trkpt lat="44.56542" lon="5.959">
        <ele>992.4</ele>
        <time>2023-05-19T13:03:08Z</time>
      </trkpt>
      <trkpt lat="44.5654" lon="5.95891">
        <ele>991.6</ele>
        <time>2023-05-19T13:03:09Z</time>
      </trkpt>
      <trkpt lat="44.56537" lon="5.95883">
        <ele>990.8</ele>
        <time>2023-05-19T13:03:10Z</time>
      </trkpt>
      <trkpt lat="44.56532" lon="5.95873">
        <ele>989.6</ele>
        <time>2023-05-19T13:03:11Z</time>
      </trkpt>
      <trkpt lat="44.56529" lon="5.95864">
        <ele>988.2</ele>
        <time>2023-05-19T13:03:12Z</time>
      </trkpt>
      <trkpt lat="44.56523" lon="5.95855">
        <ele>987.8</ele>
        <time>2023-05-19T13:03:13Z</time>
      </trkpt>
      <trkpt lat="44.56518" lon="5.95844">
        <ele>986.2</ele>
        <time>2023-05-19T13:03:14Z</time>
      </trkpt>
      <trkpt lat="44.56514" lon="5.95836">
        <ele>985</ele>
        <time>2023-05-19T13:03:15Z</time>
      </trkpt>
      <trkpt lat="44.56511" lon="5.95831">
        <ele>984.4</ele>
        <time>2023-05-19T13:03:16Z</time>
      </trkpt>
      <trkpt lat="44.56511" lon="5.95828">
        <ele>983.8</ele>
        <time>2023-05-19T13:03:17Z</time>
      </trkpt>
      <trkpt lat="44.56511" lon="5.95826">
        <ele>983.4</ele>
        <time>2023-05-19T13:03:18Z</time>
      </trkpt>
      <trkpt lat="44.5651" lon="5.95823">
        <ele>982.6</ele>
        <time>2023-05-19T13:03:19Z</time>
      </trkpt>
      <trkpt lat="44.56509" lon="5.9582">
        <ele>982.2</ele>
        <time>2023-05-19T13:03:20Z</time>
      </trkpt>
      <trkpt lat="44.56509" lon="5.95818">
        <ele>981.4</ele>
        <time>2023-05-19T13:03:21Z</time>
      </trkpt>
      <trkpt lat="44.56509" lon="5.95816">
        <ele>981</ele>
        <time>2023-05-19T13:03:22Z</time>
      </trkpt>
      <trkpt lat="44.56509" lon="5.95813">
        <ele>980.6</ele>
        <time>2023-05-19T13:03:23Z</time>
      </trkpt>
      <trkpt lat="44.56509" lon="5.95811">
        <ele>980</ele>
        <time>2023-05-19T13:03:24Z</time>
      </trkpt>
      <trkpt lat="44.56509" lon="5.95808">
        <ele>979.8</ele>
        <time>2023-05-19T13:03:25Z</time>
      </trkpt>
      <trkpt lat="44.56509" lon="5.95806">
        <ele>979.4</ele>
        <time>2023-05-19T13:03:26Z</time>
      </trkpt>
      <trkpt lat="44.56509" lon="5.95805">
        <ele>979.4</ele>
        <time>2023-05-19T13:03:27Z</time>
      </trkpt>
      <trkpt lat="44.56509" lon="5.95805">
        <ele>979.2</ele>
        <time>2023-05-19T13:03:28Z</time>
      </trkpt>
      <trkpt lat="44.56509" lon="5.95805">
        <ele>979</ele>
        <time>2023-05-19T13:03:29Z</time>
      </trkpt>
      <trkpt lat="44.56509" lon="5.95805">
        <ele>979</ele>
        <time>2023-05-19T13:03:30Z</time>
      </trkpt>
      <trkpt lat="44.56509" lon="5.95805">
        <ele>978</ele>
        <time>2023-05-19T13:03:41Z</time>
      </trkpt>
      <trkpt lat="44.56507" lon="5.95803">
        <ele>978</ele>
        <time>2023-05-19T13:03:44Z</time>
      </trkpt>
      <trkpt lat="44.56502" lon="5.958">
        <ele>978</ele>
        <time>2023-05-19T13:03:47Z</time>
      </trkpt>
      <trkpt lat="44.56496" lon="5.95799">
        <ele>978</ele>
        <time>2023-05-19T13:03:49Z</time>
      </trkpt>
      <trkpt lat="44.56492" lon="5.95798">
        <ele>978</ele>
        <time>2023-05-19T13:03:50Z</time>
      </trkpt>
      <trkpt lat="44.56484" lon="5.95796">
        <ele>978</ele>
        <time>2023-05-19T13:03:52Z</time>
      </trkpt>
      <trkpt lat="44.56479" lon="5.95795">
        <ele>977.8</ele>
        <time>2023-05-19T13:03:53Z</time>
      </trkpt>
      <trkpt lat="44.5646" lon="5.95792">
        <ele>977.6</ele>
        <time>2023-05-19T13:03:57Z</time>
      </trkpt>
      <trkpt lat="44.56455" lon="5.9579">
        <ele>977.4</ele>
        <time>2023-05-19T13:03:58Z</time>
      </trkpt>
      <trkpt lat="44.5645" lon="5.95789">
        <ele>977.2</ele>
        <time>2023-05-19T13:03:59Z</time>
      </trkpt>
      <trkpt lat="44.56439" lon="5.95787">
        <ele>976.8</ele>
        <time>2023-05-19T13:04:01Z</time>
      </trkpt>
      <trkpt lat="44.56418" lon="5.95784">
        <ele>975.6</ele>
        <time>2023-05-19T13:04:05Z</time>
      </trkpt>
      <trkpt lat="44.56405" lon="5.95782">
        <ele>975</ele>
        <time>2023-05-19T13:04:08Z</time>
      </trkpt>
      <trkpt lat="44.56403" lon="5.95783">
        <ele>974.6</ele>
        <time>2023-05-19T13:04:09Z</time>
      </trkpt>
      <trkpt lat="44.56401" lon="5.95784">
        <ele>974.4</ele>
        <time>2023-05-19T13:04:10Z</time>
      </trkpt>
      <trkpt lat="44.56401" lon="5.95785">
        <ele>974.4</ele>
        <time>2023-05-19T13:04:11Z</time>
      </trkpt>
      <trkpt lat="44.56401" lon="5.95786">
        <ele>973.8</ele>
        <time>2023-05-19T13:04:12Z</time>
      </trkpt>
      <trkpt lat="44.56401" lon="5.95786">
        <ele>973.8</ele>
        <time>2023-05-19T13:04:13Z</time>
      </trkpt>
      <trkpt lat="44.56401" lon="5.95786">
        <ele>973.4</ele>
        <time>2023-05-19T13:04:14Z</time>
      </trkpt>
      <trkpt lat="44.56401" lon="5.95786">
        <ele>972.4</ele>
        <time>2023-05-19T13:04:24Z</time>
      </trkpt>
      <trkpt lat="44.564" lon="5.95787">
        <ele>972.2</ele>
        <time>2023-05-19T13:04:27Z</time>
      </trkpt>
      <trkpt lat="44.56399" lon="5.95789">
        <ele>972.2</ele>
        <time>2023-05-19T13:04:28Z</time>
      </trkpt>
      <trkpt lat="44.564" lon="5.95793">
        <ele>972.2</ele>
        <time>2023-05-19T13:04:30Z</time>
      </trkpt>
      <trkpt lat="44.56401" lon="5.95793">
        <ele>972.2</ele>
        <time>2023-05-19T13:04:31Z</time>
      </trkpt>
      <trkpt lat="44.56402" lon="5.95792">
        <ele>972.2</ele>
        <time>2023-05-19T13:04:32Z</time>
      </trkpt>
      <trkpt lat="44.56402" lon="5.9579">
        <ele>972.2</ele>
        <time>2023-05-19T13:04:33Z</time>
      </trkpt>
      <trkpt lat="44.56403" lon="5.95788">
        <ele>972.2</ele>
        <time>2023-05-19T13:04:34Z</time>
      </trkpt>
      <trkpt lat="44.56403" lon="5.95785">
        <ele>972.2</ele>
        <time>2023-05-19T13:04:36Z</time>
      </trkpt>
      <trkpt lat="44.564" lon="5.95784">
        <ele>972.6</ele>
        <time>2023-05-19T13:04:39Z</time>
      </trkpt>
      <trkpt lat="44.5639" lon="5.95785">
        <ele>972.6</ele>
        <time>2023-05-19T13:04:44Z</time>
      </trkpt>
      <trkpt lat="44.5638" lon="5.95785">
        <ele>972.6</ele>
        <time>2023-05-19T13:04:47Z</time>
      </trkpt>
      <trkpt lat="44.56367" lon="5.95787">
        <ele>972.4</ele>
        <time>2023-05-19T13:04:51Z</time>
      </trkpt>
      <trkpt lat="44.56365" lon="5.95787">
        <ele>972.4</ele>
        <time>2023-05-19T13:04:52Z</time>
      </trkpt>
      <trkpt lat="44.56338" lon="5.95794">
        <ele>972</ele>
        <time>2023-05-19T13:05:00Z</time>
      </trkpt>
      <trkpt lat="44.56307" lon="5.95803">
        <ele>971.8</ele>
        <time>2023-05-19T13:05:08Z</time>
      </trkpt>
      <trkpt lat="44.5629" lon="5.95808">
        <ele>971.4</ele>
        <time>2023-05-19T13:05:13Z</time>
      </trkpt>
      <trkpt lat="44.56287" lon="5.95808">
        <ele>971.4</ele>
        <time>2023-05-19T13:05:14Z</time>
      </trkpt>
      <trkpt lat="44.56284" lon="5.95809">
        <ele>971.2</ele>
        <time>2023-05-19T13:05:15Z</time>
      </trkpt>
      <trkpt lat="44.56284" lon="5.95811">
        <ele>971.2</ele>
        <time>2023-05-19T13:05:16Z</time>
      </trkpt>
      <trkpt lat="44.56286" lon="5.95813">
        <ele>971</ele>
        <time>2023-05-19T13:05:17Z</time>
      </trkpt>
      <trkpt lat="44.56287" lon="5.95814">
        <ele>971</ele>
        <time>2023-05-19T13:05:18Z</time>
      </trkpt>
      <trkpt lat="44.56289" lon="5.95815">
        <ele>970.8</ele>
        <time>2023-05-19T13:05:19Z</time>
      </trkpt>
      <trkpt lat="44.56293" lon="5.95817">
        <ele>970.4</ele>
        <time>2023-05-19T13:05:21Z</time>
      </trkpt>
      <trkpt lat="44.56298" lon="5.95817">
        <ele>970</ele>
        <time>2023-05-19T13:05:23Z</time>
      </trkpt>
      <trkpt lat="44.56311" lon="5.95821">
        <ele>969.6</ele>
        <time>2023-05-19T13:05:29Z</time>
      </trkpt>
      <trkpt lat="44.56314" lon="5.95824">
        <ele>969.6</ele>
        <time>2023-05-19T13:05:31Z</time>
      </trkpt>
      <trkpt lat="44.56315" lon="5.95825">
        <ele>969.6</ele>
        <time>2023-05-19T13:05:32Z</time>
      </trkpt>
      <trkpt lat="44.56316" lon="5.95826">
        <ele>969.6</ele>
        <time>2023-05-19T13:05:33Z</time>
      </trkpt>
      <trkpt lat="44.56317" lon="5.95827">
        <ele>969.6</ele>
        <time>2023-05-19T13:05:34Z</time>
      </trkpt>
      <trkpt lat="44.56318" lon="5.95828">
        <ele>969.6</ele>
        <time>2023-05-19T13:05:35Z</time>
      </trkpt>
      <trkpt lat="44.56319" lon="5.95829">
        <ele>969.6</ele>
        <time>2023-05-19T13:05:36Z</time>
      </trkpt>
      <trkpt lat="44.56321" lon="5.95831">
        <ele>969.6</ele>
        <time>2023-05-19T13:05:37Z</time>
      </trkpt>
      <trkpt lat="44.56322" lon="5.95832">
        <ele>969.6</ele>
        <time>2023-05-19T13:05:38Z</time>
      </trkpt>
      <trkpt lat="44.56323" lon="5.95834">
        <ele>969.6</ele>
        <time>2023-05-19T13:05:39Z</time>
      </trkpt>
      <trkpt lat="44.56325" lon="5.95835">
        <ele>969.8</ele>
        <time>2023-05-19T13:05:40Z</time>
      </trkpt>
      <trkpt lat="44.56329" lon="5.95841">
        <ele>969.8</ele>
        <time>2023-05-19T13:05:43Z</time>
      </trkpt>
      <trkpt lat="44.56335" lon="5.95851">
        <ele>969.8</ele>
        <time>2023-05-19T13:05:47Z</time>
      </trkpt>
      <trkpt lat="44.56342" lon="5.95864">
        <ele>970</ele>
        <time>2023-05-19T13:05:52Z</time>
      </trkpt>
      <trkpt lat="44.56344" lon="5.95868">
        <ele>970</ele>
        <time>2023-05-19T13:05:54Z</time>
      </trkpt>
      <trkpt lat="44.56346" lon="5.9587">
        <ele>970</ele>
        <time>2023-05-19T13:05:55Z</time>
      </trkpt>
      <trkpt lat="44.56347" lon="5.95872">
        <ele>970</ele>
        <time>2023-05-19T13:05:56Z</time>
      </trkpt>
      <trkpt lat="44.56348" lon="5.95873">
        <ele>970</ele>
        <time>2023-05-19T13:05:57Z</time>
      </trkpt>
      <trkpt lat="44.56349" lon="5.95875">
        <ele>970</ele>
        <time>2023-05-19T13:05:58Z</time>
      </trkpt>
      <trkpt lat="44.5635" lon="5.95877">
        <ele>970</ele>
        <time>2023-05-19T13:05:59Z</time>
      </trkpt>
      <trkpt lat="44.56351" lon="5.95879">
        <ele>970</ele>
        <time>2023-05-19T13:06:00Z</time>
      </trkpt>
      <trkpt lat="44.56352" lon="5.95882">
        <ele>970</ele>
        <time>2023-05-19T13:06:01Z</time>
      </trkpt>
      <trkpt lat="44.56352" lon="5.95884">
        <ele>970</ele>
        <time>2023-05-19T13:06:02Z</time>
      </trkpt>
      <trkpt lat="44.56352" lon="5.95886">
        <ele>970</ele>
        <time>2023-05-19T13:06:03Z</time>
      </trkpt>
      <trkpt lat="44.56353" lon="5.95888">
        <ele>969.8</ele>
        <time>2023-05-19T13:06:04Z</time>
      </trkpt>
      <trkpt lat="44.56354" lon="5.95889">
        <ele>969.8</ele>
        <time>2023-05-19T13:06:05Z</time>
      </trkpt>
      <trkpt lat="44.56355" lon="5.95882">
        <ele>969.8</ele>
        <time>2023-05-19T13:06:08Z</time>
      </trkpt>
      <trkpt lat="44.56348" lon="5.95863">
        <ele>969.8</ele>
        <time>2023-05-19T13:06:13Z</time>
      </trkpt>
      <trkpt lat="44.56344" lon="5.95857">
        <ele>969.8</ele>
        <time>2023-05-19T13:06:15Z</time>
      </trkpt>
      <trkpt lat="44.56331" lon="5.95837">
        <ele>969.8</ele>
        <time>2023-05-19T13:06:21Z</time>
      </trkpt>
      <trkpt lat="44.56308" lon="5.95817">
        <ele>969.8</ele>
        <time>2023-05-19T13:06:29Z</time>
      </trkpt>
      <trkpt lat="44.56287" lon="5.95812">
        <ele>970</ele>
        <time>2023-05-19T13:06:36Z</time>
      </trkpt>
      <trkpt lat="44.56284" lon="5.9581">
        <ele>970</ele>
        <time>2023-05-19T13:06:37Z</time>
      </trkpt>
      <trkpt lat="44.56282" lon="5.95808">
        <ele>970</ele>
        <time>2023-05-19T13:06:38Z</time>
      </trkpt>
      <trkpt lat="44.5628" lon="5.95804">
        <ele>970</ele>
        <time>2023-05-19T13:06:39Z</time>
      </trkpt>
      <trkpt lat="44.56279" lon="5.958">
        <ele>970</ele>
        <time>2023-05-19T13:06:40Z</time>
      </trkpt>
      <trkpt lat="44.56278" lon="5.95796">
        <ele>970</ele>
        <time>2023-05-19T13:06:41Z</time>
      </trkpt>
      <trkpt lat="44.56275" lon="5.9579">
        <ele>969.8</ele>
        <time>2023-05-19T13:06:42Z</time>
      </trkpt>
      <trkpt lat="44.56272" lon="5.95785">
        <ele>969.8</ele>
        <time>2023-05-19T13:06:43Z</time>
      </trkpt>
      <trkpt lat="44.56266" lon="5.95773">
        <ele>969.8</ele>
        <time>2023-05-19T13:06:45Z</time>
      </trkpt>
      <trkpt lat="44.56261" lon="5.95762">
        <ele>969.4</ele>
        <time>2023-05-19T13:06:47Z</time>
      </trkpt>
      <trkpt lat="44.56258" lon="5.95756">
        <ele>969.4</ele>
        <time>2023-05-19T13:06:48Z</time>
      </trkpt>
      <trkpt lat="44.56256" lon="5.95751">
        <ele>969.2</ele>
        <time>2023-05-19T13:06:49Z</time>
      </trkpt>
      <trkpt lat="44.56253" lon="5.95747">
        <ele>969.2</ele>
        <time>2023-05-19T13:06:50Z</time>
      </trkpt>
      <trkpt lat="44.56251" lon="5.95742">
        <ele>968.8</ele>
        <time>2023-05-19T13:06:51Z</time>
      </trkpt>
      <trkpt lat="44.56249" lon="5.95737">
        <ele>968.8</ele>
        <time>2023-05-19T13:06:52Z</time>
      </trkpt>
      <trkpt lat="44.56247" lon="5.95732">
        <ele>968.4</ele>
        <time>2023-05-19T13:06:53Z</time>
      </trkpt>
      <trkpt lat="44.56237" lon="5.95711">
        <ele>967.8</ele>
        <time>2023-05-19T13:06:57Z</time>
      </trkpt>
      <trkpt lat="44.56228" lon="5.95693">
        <ele>967.2</ele>
        <time>2023-05-19T13:07:00Z</time>
      </trkpt>
      <trkpt lat="44.56219" lon="5.95674">
        <ele>966.6</ele>
        <time>2023-05-19T13:07:03Z</time>
      </trkpt>
      <trkpt lat="44.56213" lon="5.9566">
        <ele>966</ele>
        <time>2023-05-19T13:07:05Z</time>
      </trkpt>
      <trkpt lat="44.56199" lon="5.95625">
        <ele>965.2</ele>
        <time>2023-05-19T13:07:10Z</time>
      </trkpt>
      <trkpt lat="44.56196" lon="5.95619">
        <ele>965.2</ele>
        <time>2023-05-19T13:07:11Z</time>
      </trkpt>
      <trkpt lat="44.56189" lon="5.95601">
        <ele>964.2</ele>
        <time>2023-05-19T13:07:14Z</time>
      </trkpt>
      <trkpt lat="44.56185" lon="5.9559">
        <ele>964</ele>
        <time>2023-05-19T13:07:16Z</time>
      </trkpt>
      <trkpt lat="44.56183" lon="5.95585">
        <ele>963.8</ele>
        <time>2023-05-19T13:07:17Z</time>
      </trkpt>
      <trkpt lat="44.56181" lon="5.9558">
        <ele>963.8</ele>
        <time>2023-05-19T13:07:18Z</time>
      </trkpt>
      <trkpt lat="44.56179" lon="5.95577">
        <ele>963.6</ele>
        <time>2023-05-19T13:07:19Z</time>
      </trkpt>
      <trkpt lat="44.56179" lon="5.95575">
        <ele>963.4</ele>
        <time>2023-05-19T13:07:20Z</time>
      </trkpt>
      <trkpt lat="44.56179" lon="5.95573">
        <ele>963.2</ele>
        <time>2023-05-19T13:07:21Z</time>
      </trkpt>
      <trkpt lat="44.56179" lon="5.95572">
        <ele>963.2</ele>
        <time>2023-05-19T13:07:22Z</time>
      </trkpt>
      <trkpt lat="44.56179" lon="5.9557">
        <ele>963</ele>
        <time>2023-05-19T13:07:23Z</time>
      </trkpt>
      <trkpt lat="44.56179" lon="5.95569">
        <ele>963</ele>
        <time>2023-05-19T13:07:24Z</time>
      </trkpt>
      <trkpt lat="44.56178" lon="5.95567">
        <ele>963</ele>
        <time>2023-05-19T13:07:25Z</time>
      </trkpt>
      <trkpt lat="44.56173" lon="5.95567">
        <ele>962.8</ele>
        <time>2023-05-19T13:07:27Z</time>
      </trkpt>
      <trkpt lat="44.56171" lon="5.95569">
        <ele>962.8</ele>
        <time>2023-05-19T13:07:28Z</time>
      </trkpt>
      <trkpt lat="44.56164" lon="5.95577">
        <ele>962.6</ele>
        <time>2023-05-19T13:07:31Z</time>
      </trkpt>
      <trkpt lat="44.56162" lon="5.9558">
        <ele>962.6</ele>
        <time>2023-05-19T13:07:32Z</time>
      </trkpt>
      <trkpt lat="44.56156" lon="5.95584">
        <ele>962.6</ele>
        <time>2023-05-19T13:07:34Z</time>
      </trkpt>
      <trkpt lat="44.5614" lon="5.95593">
        <ele>962.6</ele>
        <time>2023-05-19T13:07:41Z</time>
      </trkpt>
      <trkpt lat="44.56138" lon="5.95595">
        <ele>962.6</ele>
        <time>2023-05-19T13:07:42Z</time>
      </trkpt>
      <trkpt lat="44.56137" lon="5.95596">
        <ele>962.8</ele>
        <time>2023-05-19T13:07:43Z</time>
      </trkpt>
      <trkpt lat="44.56136" lon="5.95596">
        <ele>963</ele>
        <time>2023-05-19T13:07:44Z</time>
      </trkpt>
      <trkpt lat="44.56135" lon="5.95597">
        <ele>963.2</ele>
        <time>2023-05-19T13:07:45Z</time>
      </trkpt>
      <trkpt lat="44.56134" lon="5.95597">
        <ele>963.2</ele>
        <time>2023-05-19T13:07:46Z</time>
      </trkpt>
      <trkpt lat="44.56134" lon="5.95597">
        <ele>963.2</ele>
        <time>2023-05-19T13:07:47Z</time>
      </trkpt>
      <trkpt lat="44.56134" lon="5.95597">
        <ele>963.4</ele>
        <time>2023-05-19T13:07:48Z</time>
      </trkpt>
      <trkpt lat="44.56134" lon="5.95597">
        <ele>963.4</ele>
        <time>2023-05-19T13:07:49Z</time>
      </trkpt>
      <trkpt lat="44.56135" lon="5.95599">
        <ele>963.8</ele>
        <time>2023-05-19T13:07:52Z</time>
      </trkpt>
      <trkpt lat="44.56136" lon="5.956">
        <ele>964</ele>
        <time>2023-05-19T13:07:53Z</time>
      </trkpt>
      <trkpt lat="44.56143" lon="5.956">
        <ele>964</ele>
        <time>2023-05-19T13:07:56Z</time>
      </trkpt>
      <trkpt lat="44.5615" lon="5.95597">
        <ele>964</ele>
        <time>2023-05-19T13:07:58Z</time>
      </trkpt>
      <trkpt lat="44.56153" lon="5.95596">
        <ele>964</ele>
        <time>2023-05-19T13:07:59Z</time>
      </trkpt>
      <trkpt lat="44.56161" lon="5.95594">
        <ele>963.8</ele>
        <time>2023-05-19T13:08:02Z</time>
      </trkpt>
      <trkpt lat="44.56162" lon="5.95593">
        <ele>963.8</ele>
        <time>2023-05-19T13:08:03Z</time>
      </trkpt>
      <trkpt lat="44.56162" lon="5.95593">
        <ele>963.8</ele>
        <time>2023-05-19T13:08:04Z</time>
      </trkpt>
      <trkpt lat="44.56162" lon="5.95593">
        <ele>963.8</ele>
        <time>2023-05-19T13:08:05Z</time>
      </trkpt>
      <trkpt lat="44.56162" lon="5.95593">
        <ele>963.6</ele>
        <time>2023-05-19T13:08:06Z</time>
      </trkpt>
      <trkpt lat="44.56162" lon="5.95593">
        <ele>963</ele>
        <time>2023-05-19T13:08:14Z</time>
      </trkpt>
      <trkpt lat="44.56162" lon="5.95593">
        <ele>963</ele>
        <time>2023-05-19T13:08:21Z</time>
      </trkpt>
      <trkpt lat="44.56162" lon="5.95593">
        <ele>962.6</ele>
        <time>2023-05-19T13:08:54Z</time>
      </trkpt>
      <trkpt lat="44.56162" lon="5.95593">
        <ele>962.4</ele>
        <time>2023-05-19T13:09:16Z</time>
      </trkpt>
      <trkpt lat="44.56162" lon="5.95593">
        <ele>962.8</ele>
        <time>2023-05-19T13:10:05Z</time>
      </trkpt>
      <trkpt lat="44.56159" lon="5.95593">
        <ele>963.4</ele>
        <time>2023-05-19T13:10:44Z</time>
      </trkpt>
      <trkpt lat="44.56156" lon="5.95596">
        <ele>963.4</ele>
        <time>2023-05-19T13:10:47Z</time>
      </trkpt>
      <trkpt lat="44.56155" lon="5.95597">
        <ele>963.4</ele>
        <time>2023-05-19T13:10:48Z</time>
      </trkpt>
      <trkpt lat="44.56155" lon="5.95599">
        <ele>963.4</ele>
        <time>2023-05-19T13:10:49Z</time>
      </trkpt>
      <trkpt lat="44.56154" lon="5.956">
        <ele>963.4</ele>
        <time>2023-05-19T13:10:50Z</time>
      </trkpt>
      <trkpt lat="44.56153" lon="5.95602">
        <ele>963.4</ele>
        <time>2023-05-19T13:10:52Z</time>
      </trkpt>
      <trkpt lat="44.56152" lon="5.95604">
        <ele>963.2</ele>
        <time>2023-05-19T13:10:54Z</time>
      </trkpt>
      <trkpt lat="44.5615" lon="5.95607">
        <ele>963.2</ele>
        <time>2023-05-19T13:10:56Z</time>
      </trkpt>
      <trkpt lat="44.5615" lon="5.95607">
        <ele>963.2</ele>
        <time>2023-05-19T13:10:57Z</time>
      </trkpt>
      <trkpt lat="44.56149" lon="5.95608">
        <ele>963.2</ele>
        <time>2023-05-19T13:10:58Z</time>
      </trkpt>
      <trkpt lat="44.56149" lon="5.95608">
        <ele>963.4</ele>
        <time>2023-05-19T13:10:59Z</time>
      </trkpt>
      <trkpt lat="44.56149" lon="5.95608">
        <ele>963.4</ele>
        <time>2023-05-19T13:11:38Z</time>
      </trkpt>
      <trkpt lat="44.56149" lon="5.95608">
        <ele>963.2</ele>
        <time>2023-05-19T13:12:01Z</time>
      </trkpt>
      <trkpt lat="44.56149" lon="5.95608">
        <ele>963.2</ele>
        <time>2023-05-19T13:12:29Z</time>
      </trkpt>
      <trkpt lat="44.56149" lon="5.95608">
        <ele>963.2</ele>
        <time>2023-05-19T13:12:36Z</time>
      </trkpt>
      <trkpt lat="44.56149" lon="5.95608">
        <ele>963.4</ele>
        <time>2023-05-19T13:13:31Z</time>
      </trkpt>
      <trkpt lat="44.56149" lon="5.95608">
        <ele>963.6</ele>
        <time>2023-05-19T13:13:46Z</time>
      </trkpt>
      <trkpt lat="44.56149" lon="5.95608">
        <ele>964</ele>
        <time>2023-05-19T13:14:56Z</time>
      </trkpt>
      <trkpt lat="44.56149" lon="5.95608">
        <ele>964.2</ele>
        <time>2023-05-19T13:17:35Z</time>
      </trkpt>
      <trkpt lat="44.56149" lon="5.95608">
        <ele>964.2</ele>
        <time>2023-05-19T13:19:14Z</time>
      </trkpt>
      <trkpt lat="44.56149" lon="5.9561">
        <ele>964.2</ele>
        <time>2023-05-19T13:19:34Z</time>
      </trkpt>
      <trkpt lat="44.5615" lon="5.95614">
        <ele>964.2</ele>
        <time>2023-05-19T13:19:36Z</time>
      </trkpt>
      <trkpt lat="44.56152" lon="5.95612">
        <ele>964.2</ele>
        <time>2023-05-19T13:19:38Z</time>
      </trkpt>
      <trkpt lat="44.56153" lon="5.9561">
        <ele>964.2</ele>
        <time>2023-05-19T13:19:39Z</time>
      </trkpt>
      <trkpt lat="44.56155" lon="5.95606">
        <ele>964</ele>
        <time>2023-05-19T13:19:44Z</time>
      </trkpt>
      <trkpt lat="44.56155" lon="5.95604">
        <ele>964.2</ele>
        <time>2023-05-19T13:20:43Z</time>
      </trkpt>
      <trkpt lat="44.56156" lon="5.95598">
        <ele>964</ele>
        <time>2023-05-19T13:20:47Z</time>
      </trkpt>
      <trkpt lat="44.56156" lon="5.95597">
        <ele>964</ele>
        <time>2023-05-19T13:20:48Z</time>
      </trkpt>
      <trkpt lat="44.56156" lon="5.95597">
        <ele>964</ele>
        <time>2023-05-19T13:20:50Z</time>
      </trkpt>
      <trkpt lat="44.56158" lon="5.95597">
        <ele>964.2</ele>
        <time>2023-05-19T13:21:18Z</time>
      </trkpt>
      <trkpt lat="44.56162" lon="5.95595">
        <ele>964.2</ele>
        <time>2023-05-19T13:21:20Z</time>
      </trkpt>
      <trkpt lat="44.56164" lon="5.95592">
        <ele>964.2</ele>
        <time>2023-05-19T13:21:22Z</time>
      </trkpt>
      <trkpt lat="44.56165" lon="5.95592">
        <ele>964.2</ele>
        <time>2023-05-19T13:21:23Z</time>
      </trkpt>
      <trkpt lat="44.56165" lon="5.95592">
        <ele>964.2</ele>
        <time>2023-05-19T13:21:24Z</time>
      </trkpt>
      <trkpt lat="44.56165" lon="5.95592">
        <ele>964.2</ele>
        <time>2023-05-19T13:21:25Z</time>
      </trkpt>
      <trkpt lat="44.56165" lon="5.95592">
        <ele>964</ele>
        <time>2023-05-19T13:21:28Z</time>
      </trkpt>
      <trkpt lat="44.56163" lon="5.95593">
        <ele>964</ele>
        <time>2023-05-19T13:21:34Z</time>
      </trkpt>
      <trkpt lat="44.56157" lon="5.95597">
        <ele>963.8</ele>
        <time>2023-05-19T13:21:37Z</time>
      </trkpt>
      <trkpt lat="44.56155" lon="5.95599">
        <ele>963.8</ele>
        <time>2023-05-19T13:21:38Z</time>
      </trkpt>
      <trkpt lat="44.56154" lon="5.956">
        <ele>963.8</ele>
        <time>2023-05-19T13:21:39Z</time>
      </trkpt>
      <trkpt lat="44.56153" lon="5.95601">
        <ele>963.6</ele>
        <time>2023-05-19T13:21:40Z</time>
      </trkpt>
      <trkpt lat="44.56151" lon="5.95602">
        <ele>963.8</ele>
        <time>2023-05-19T13:21:41Z</time>
      </trkpt>
      <trkpt lat="44.5615" lon="5.95602">
        <ele>963.8</ele>
        <time>2023-05-19T13:21:42Z</time>
      </trkpt>
      <trkpt lat="44.56148" lon="5.95603">
        <ele>963.8</ele>
        <time>2023-05-19T13:21:43Z</time>
      </trkpt>
      <trkpt lat="44.56139" lon="5.95607">
        <ele>964.2</ele>
        <time>2023-05-19T13:21:48Z</time>
      </trkpt>
      <trkpt lat="44.56138" lon="5.95607">
        <ele>964.2</ele>
        <time>2023-05-19T13:21:49Z</time>
      </trkpt>
      <trkpt lat="44.56137" lon="5.95607">
        <ele>964.2</ele>
        <time>2023-05-19T13:21:50Z</time>
      </trkpt>
      <trkpt lat="44.56136" lon="5.95606">
        <ele>964.2</ele>
        <time>2023-05-19T13:21:51Z</time>
      </trkpt>
      <trkpt lat="44.56134" lon="5.95605">
        <ele>964.2</ele>
        <time>2023-05-19T13:21:52Z</time>
      </trkpt>
      <trkpt lat="44.56133" lon="5.95604">
        <ele>964.4</ele>
        <time>2023-05-19T13:21:53Z</time>
      </trkpt>
      <trkpt lat="44.56132" lon="5.95603">
        <ele>964.4</ele>
        <time>2023-05-19T13:21:54Z</time>
      </trkpt>
      <trkpt lat="44.5613" lon="5.95601">
        <ele>964.6</ele>
        <time>2023-05-19T13:21:55Z</time>
      </trkpt>
      <trkpt lat="44.56128" lon="5.956">
        <ele>964.6</ele>
        <time>2023-05-19T13:21:56Z</time>
      </trkpt>
      <trkpt lat="44.56127" lon="5.956">
        <ele>964.6</ele>
        <time>2023-05-19T13:21:57Z</time>
      </trkpt>
      <trkpt lat="44.56126" lon="5.956">
        <ele>964.8</ele>
        <time>2023-05-19T13:21:58Z</time>
      </trkpt>
      <trkpt lat="44.56124" lon="5.95601">
        <ele>964.8</ele>
        <time>2023-05-19T13:21:59Z</time>
      </trkpt>
      <trkpt lat="44.56123" lon="5.95602">
        <ele>965</ele>
        <time>2023-05-19T13:22:00Z</time>
      </trkpt>
      <trkpt lat="44.56121" lon="5.95604">
        <ele>965</ele>
        <time>2023-05-19T13:22:01Z</time>
      </trkpt>
      <trkpt lat="44.5612" lon="5.95605">
        <ele>965</ele>
        <time>2023-05-19T13:22:02Z</time>
      </trkpt>
      <trkpt lat="44.56118" lon="5.95606">
        <ele>965.2</ele>
        <time>2023-05-19T13:22:03Z</time>
      </trkpt>
      <trkpt lat="44.56116" lon="5.95607">
        <ele>965.2</ele>
        <time>2023-05-19T13:22:04Z</time>
      </trkpt>
      <trkpt lat="44.56106" lon="5.95611">
        <ele>965.2</ele>
        <time>2023-05-19T13:22:09Z</time>
      </trkpt>
      <trkpt lat="44.56094" lon="5.95617">
        <ele>965.6</ele>
        <time>2023-05-19T13:22:16Z</time>
      </trkpt>
      <trkpt lat="44.56093" lon="5.95618">
        <ele>965.8</ele>
        <time>2023-05-19T13:22:17Z</time>
      </trkpt>
      <trkpt lat="44.56091" lon="5.95619">
        <ele>965.8</ele>
        <time>2023-05-19T13:22:18Z</time>
      </trkpt>
      <trkpt lat="44.56088" lon="5.95621">
        <ele>965.8</ele>
        <time>2023-05-19T13:22:21Z</time>
      </trkpt>
      <trkpt lat="44.56088" lon="5.95621">
        <ele>965.8</ele>
        <time>2023-05-19T13:22:22Z</time>
      </trkpt>
      <trkpt lat="44.56087" lon="5.95622">
        <ele>965.8</ele>
        <time>2023-05-19T13:22:23Z</time>
      </trkpt>
      <trkpt lat="44.56085" lon="5.95622">
        <ele>965.8</ele>
        <time>2023-05-19T13:22:24Z</time>
      </trkpt>
      <trkpt lat="44.56084" lon="5.95623">
        <ele>965.4</ele>
        <time>2023-05-19T13:22:25Z</time>
      </trkpt>
      <trkpt lat="44.56082" lon="5.95627">
        <ele>965.6</ele>
        <time>2023-05-19T13:22:27Z</time>
      </trkpt>
      <trkpt lat="44.56083" lon="5.95629">
        <ele>965.6</ele>
        <time>2023-05-19T13:22:28Z</time>
      </trkpt>
      <trkpt lat="44.56084" lon="5.95631">
        <ele>965.6</ele>
        <time>2023-05-19T13:22:29Z</time>
      </trkpt>
      <trkpt lat="44.56089" lon="5.95631">
        <ele>965.4</ele>
        <time>2023-05-19T13:22:31Z</time>
      </trkpt>
      <trkpt lat="44.56091" lon="5.95632">
        <ele>965.4</ele>
        <time>2023-05-19T13:22:32Z</time>
      </trkpt>
      <trkpt lat="44.56092" lon="5.95634">
        <ele>965.4</ele>
        <time>2023-05-19T13:22:33Z</time>
      </trkpt>
      <trkpt lat="44.56093" lon="5.95637">
        <ele>965.4</ele>
        <time>2023-05-19T13:22:34Z</time>
      </trkpt>
      <trkpt lat="44.56094" lon="5.9564">
        <ele>965.4</ele>
        <time>2023-05-19T13:22:35Z</time>
      </trkpt>
      <trkpt lat="44.56093" lon="5.95651">
        <ele>965.4</ele>
        <time>2023-05-19T13:22:38Z</time>
      </trkpt>
      <trkpt lat="44.56093" lon="5.95654">
        <ele>965.4</ele>
        <time>2023-05-19T13:22:39Z</time>
      </trkpt>
      <trkpt lat="44.56092" lon="5.95658">
        <ele>965.4</ele>
        <time>2023-05-19T13:22:40Z</time>
      </trkpt>
      <trkpt lat="44.56086" lon="5.95682">
        <ele>965.8</ele>
        <time>2023-05-19T13:22:48Z</time>
      </trkpt>
      <trkpt lat="44.56085" lon="5.95684">
        <ele>966</ele>
        <time>2023-05-19T13:22:49Z</time>
      </trkpt>
      <trkpt lat="44.56085" lon="5.95686">
        <ele>966</ele>
        <time>2023-05-19T13:22:50Z</time>
      </trkpt>
      <trkpt lat="44.56084" lon="5.95689">
        <ele>966</ele>
        <time>2023-05-19T13:22:51Z</time>
      </trkpt>
      <trkpt lat="44.56083" lon="5.95691">
        <ele>966.2</ele>
        <time>2023-05-19T13:22:52Z</time>
      </trkpt>
      <trkpt lat="44.56081" lon="5.95694">
        <ele>966.2</ele>
        <time>2023-05-19T13:22:53Z</time>
      </trkpt>
      <trkpt lat="44.56081" lon="5.95696">
        <ele>966.2</ele>
        <time>2023-05-19T13:22:54Z</time>
      </trkpt>
      <trkpt lat="44.5608" lon="5.95699">
        <ele>966.6</ele>
        <time>2023-05-19T13:22:55Z</time>
      </trkpt>
      <trkpt lat="44.56079" lon="5.95701">
        <ele>966.6</ele>
        <time>2023-05-19T13:22:56Z</time>
      </trkpt>
      <trkpt lat="44.56079" lon="5.95704">
        <ele>966.6</ele>
        <time>2023-05-19T13:22:57Z</time>
      </trkpt>
      <trkpt lat="44.56079" lon="5.95707">
        <ele>966.6</ele>
        <time>2023-05-19T13:22:58Z</time>
      </trkpt>
      <trkpt lat="44.56078" lon="5.9571">
        <ele>966.8</ele>
        <time>2023-05-19T13:22:59Z</time>
      </trkpt>
      <trkpt lat="44.56077" lon="5.95712">
        <ele>966.8</ele>
        <time>2023-05-19T13:23:00Z</time>
      </trkpt>
      <trkpt lat="44.56077" lon="5.95714">
        <ele>967</ele>
        <time>2023-05-19T13:23:01Z</time>
      </trkpt>
      <trkpt lat="44.56076" lon="5.95718">
        <ele>967.2</ele>
        <time>2023-05-19T13:23:03Z</time>
      </trkpt>
      <trkpt lat="44.56075" lon="5.9572">
        <ele>967.4</ele>
        <time>2023-05-19T13:23:04Z</time>
      </trkpt>
      <trkpt lat="44.56075" lon="5.95723">
        <ele>967.4</ele>
        <time>2023-05-19T13:23:05Z</time>
      </trkpt>
      <trkpt lat="44.56075" lon="5.95725">
        <ele>967.6</ele>
        <time>2023-05-19T13:23:06Z</time>
      </trkpt>
      <trkpt lat="44.56075" lon="5.95727">
        <ele>967.6</ele>
        <time>2023-05-19T13:23:07Z</time>
      </trkpt>
      <trkpt lat="44.56074" lon="5.9573">
        <ele>968</ele>
        <time>2023-05-19T13:23:08Z</time>
      </trkpt>
      <trkpt lat="44.56074" lon="5.95732">
        <ele>968.2</ele>
        <time>2023-05-19T13:23:09Z</time>
      </trkpt>
      <trkpt lat="44.56074" lon="5.95734">
        <ele>968.2</ele>
        <time>2023-05-19T13:23:10Z</time>
      </trkpt>
      <trkpt lat="44.56074" lon="5.95736">
        <ele>968.2</ele>
        <time>2023-05-19T13:23:11Z</time>
      </trkpt>
      <trkpt lat="44.56074" lon="5.95738">
        <ele>968.4</ele>
        <time>2023-05-19T13:23:12Z</time>
      </trkpt>
      <trkpt lat="44.56071" lon="5.95749">
        <ele>969</ele>
        <time>2023-05-19T13:23:17Z</time>
      </trkpt>
      <trkpt lat="44.5607" lon="5.9575">
        <ele>969</ele>
        <time>2023-05-19T13:23:18Z</time>
      </trkpt>
      <trkpt lat="44.5607" lon="5.95752">
        <ele>969.2</ele>
        <time>2023-05-19T13:23:19Z</time>
      </trkpt>
      <trkpt lat="44.56069" lon="5.95753">
        <ele>969.4</ele>
        <time>2023-05-19T13:23:20Z</time>
      </trkpt>
      <trkpt lat="44.56069" lon="5.95755">
        <ele>969.4</ele>
        <time>2023-05-19T13:23:21Z</time>
      </trkpt>
      <trkpt lat="44.56069" lon="5.95757">
        <ele>969.8</ele>
        <time>2023-05-19T13:23:22Z</time>
      </trkpt>
      <trkpt lat="44.56068" lon="5.95759">
        <ele>969.6</ele>
        <time>2023-05-19T13:23:23Z</time>
      </trkpt>
      <trkpt lat="44.56068" lon="5.95761">
        <ele>970</ele>
        <time>2023-05-19T13:23:24Z</time>
      </trkpt>
      <trkpt lat="44.56068" lon="5.95763">
        <ele>970.2</ele>
        <time>2023-05-19T13:23:25Z</time>
      </trkpt>
      <trkpt lat="44.56068" lon="5.95765">
        <ele>970.4</ele>
        <time>2023-05-19T13:23:26Z</time>
      </trkpt>
      <trkpt lat="44.56067" lon="5.95767">
        <ele>970.6</ele>
        <time>2023-05-19T13:23:27Z</time>
      </trkpt>
      <trkpt lat="44.56067" lon="5.95769">
        <ele>970.8</ele>
        <time>2023-05-19T13:23:28Z</time>
      </trkpt>
      <trkpt lat="44.56067" lon="5.95771">
        <ele>971</ele>
        <time>2023-05-19T13:23:29Z</time>
      </trkpt>
      <trkpt lat="44.56066" lon="5.95773">
        <ele>971</ele>
        <time>2023-05-19T13:23:30Z</time>
      </trkpt>
      <trkpt lat="44.56066" lon="5.95775">
        <ele>971.2</ele>
        <time>2023-05-19T13:23:31Z</time>
      </trkpt>
      <trkpt lat="44.56066" lon="5.95777">
        <ele>971.4</ele>
        <time>2023-05-19T13:23:32Z</time>
      </trkpt>
      <trkpt lat="44.56065" lon="5.95778">
        <ele>971.6</ele>
        <time>2023-05-19T13:23:33Z</time>
      </trkpt>
      <trkpt lat="44.56065" lon="5.9578">
        <ele>971.8</ele>
        <time>2023-05-19T13:23:34Z</time>
      </trkpt>
      <trkpt lat="44.56065" lon="5.95781">
        <ele>972</ele>
        <time>2023-05-19T13:23:35Z</time>
      </trkpt>
      <trkpt lat="44.56065" lon="5.95783">
        <ele>972.2</ele>
        <time>2023-05-19T13:23:36Z</time>
      </trkpt>
      <trkpt lat="44.56065" lon="5.95785">
        <ele>972.2</ele>
        <time>2023-05-19T13:23:37Z</time>
      </trkpt>
      <trkpt lat="44.56065" lon="5.95787">
        <ele>972.4</ele>
        <time>2023-05-19T13:23:38Z</time>
      </trkpt>
      <trkpt lat="44.56065" lon="5.95789">
        <ele>972.6</ele>
        <time>2023-05-19T13:23:39Z</time>
      </trkpt>
      <trkpt lat="44.56064" lon="5.9579">
        <ele>972.6</ele>
        <time>2023-05-19T13:23:40Z</time>
      </trkpt>
      <trkpt lat="44.56064" lon="5.95792">
        <ele>973</ele>
        <time>2023-05-19T13:23:41Z</time>
      </trkpt>
      <trkpt lat="44.56063" lon="5.95794">
        <ele>973</ele>
        <time>2023-05-19T13:23:42Z</time>
      </trkpt>
      <trkpt lat="44.56063" lon="5.95796">
        <ele>973.2</ele>
        <time>2023-05-19T13:23:43Z</time>
      </trkpt>
      <trkpt lat="44.56062" lon="5.95798">
        <ele>973.4</ele>
        <time>2023-05-19T13:23:44Z</time>
      </trkpt>
      <trkpt lat="44.56062" lon="5.958">
        <ele>973.4</ele>
        <time>2023-05-19T13:23:45Z</time>
      </trkpt>
      <trkpt lat="44.56062" lon="5.95802">
        <ele>973.4</ele>
        <time>2023-05-19T13:23:46Z</time>
      </trkpt>
      <trkpt lat="44.56061" lon="5.95804">
        <ele>973.6</ele>
        <time>2023-05-19T13:23:47Z</time>
      </trkpt>
      <trkpt lat="44.56061" lon="5.95805">
        <ele>973.6</ele>
        <time>2023-05-19T13:23:48Z</time>
      </trkpt>
      <trkpt lat="44.56061" lon="5.95807">
        <ele>973.8</ele>
        <time>2023-05-19T13:23:49Z</time>
      </trkpt>
      <trkpt lat="44.56061" lon="5.95809">
        <ele>974</ele>
        <time>2023-05-19T13:23:50Z</time>
      </trkpt>
      <trkpt lat="44.56061" lon="5.95811">
        <ele>974</ele>
        <time>2023-05-19T13:23:51Z</time>
      </trkpt>
      <trkpt lat="44.56061" lon="5.95813">
        <ele>974.2</ele>
        <time>2023-05-19T13:23:52Z</time>
      </trkpt>
      <trkpt lat="44.56062" lon="5.95815">
        <ele>974.4</ele>
        <time>2023-05-19T13:23:53Z</time>
      </trkpt>
      <trkpt lat="44.56062" lon="5.95816">
        <ele>974.4</ele>
        <time>2023-05-19T13:23:54Z</time>
      </trkpt>
      <trkpt lat="44.56062" lon="5.95818">
        <ele>974.6</ele>
        <time>2023-05-19T13:23:55Z</time>
      </trkpt>
      <trkpt lat="44.56062" lon="5.9582">
        <ele>974.6</ele>
        <time>2023-05-19T13:23:56Z</time>
      </trkpt>
      <trkpt lat="44.56062" lon="5.95822">
        <ele>974.8</ele>
        <time>2023-05-19T13:23:57Z</time>
      </trkpt>
      <trkpt lat="44.56061" lon="5.95824">
        <ele>975</ele>
        <time>2023-05-19T13:23:58Z</time>
      </trkpt>
      <trkpt lat="44.56061" lon="5.95825">
        <ele>975.2</ele>
        <time>2023-05-19T13:23:59Z</time>
      </trkpt>
      <trkpt lat="44.5606" lon="5.95826">
        <ele>975.2</ele>
        <time>2023-05-19T13:24:00Z</time>
      </trkpt>
      <trkpt lat="44.5606" lon="5.95828">
        <ele>975.6</ele>
        <time>2023-05-19T13:24:01Z</time>
      </trkpt>
      <trkpt lat="44.5606" lon="5.95829">
        <ele>975.6</ele>
        <time>2023-05-19T13:24:02Z</time>
      </trkpt>
      <trkpt lat="44.56059" lon="5.95831">
        <ele>975.8</ele>
        <time>2023-05-19T13:24:03Z</time>
      </trkpt>
      <trkpt lat="44.56059" lon="5.95833">
        <ele>976</ele>
        <time>2023-05-19T13:24:04Z</time>
      </trkpt>
      <trkpt lat="44.56058" lon="5.95834">
        <ele>976.2</ele>
        <time>2023-05-19T13:24:05Z</time>
      </trkpt>
      <trkpt lat="44.56058" lon="5.95836">
        <ele>976.4</ele>
        <time>2023-05-19T13:24:06Z</time>
      </trkpt>
      <trkpt lat="44.56059" lon="5.95838">
        <ele>976.6</ele>
        <time>2023-05-19T13:24:07Z</time>
      </trkpt>
      <trkpt lat="44.56058" lon="5.95839">
        <ele>976.8</ele>
        <time>2023-05-19T13:24:08Z</time>
      </trkpt>
      <trkpt lat="44.56058" lon="5.95841">
        <ele>976.8</ele>
        <time>2023-05-19T13:24:09Z</time>
      </trkpt>
      <trkpt lat="44.56057" lon="5.95842">
        <ele>977</ele>
        <time>2023-05-19T13:24:10Z</time>
      </trkpt>
      <trkpt lat="44.56057" lon="5.95844">
        <ele>977</ele>
        <time>2023-05-19T13:24:11Z</time>
      </trkpt>
      <trkpt lat="44.56057" lon="5.95845">
        <ele>977.2</ele>
        <time>2023-05-19T13:24:12Z</time>
      </trkpt>
      <trkpt lat="44.56056" lon="5.95847">
        <ele>977.2</ele>
        <time>2023-05-19T13:24:13Z</time>
      </trkpt>
      <trkpt lat="44.56056" lon="5.95848">
        <ele>977.6</ele>
        <time>2023-05-19T13:24:14Z</time>
      </trkpt>
      <trkpt lat="44.56055" lon="5.9585">
        <ele>977.8</ele>
        <time>2023-05-19T13:24:15Z</time>
      </trkpt>
      <trkpt lat="44.56055" lon="5.95851">
        <ele>977.8</ele>
        <time>2023-05-19T13:24:16Z</time>
      </trkpt>
      <trkpt lat="44.56054" lon="5.95853">
        <ele>978</ele>
        <time>2023-05-19T13:24:17Z</time>
      </trkpt>
      <trkpt lat="44.56054" lon="5.95854">
        <ele>978</ele>
        <time>2023-05-19T13:24:18Z</time>
      </trkpt>
      <trkpt lat="44.56053" lon="5.95856">
        <ele>978.2</ele>
        <time>2023-05-19T13:24:19Z</time>
      </trkpt>
      <trkpt lat="44.56052" lon="5.95858">
        <ele>978.2</ele>
        <time>2023-05-19T13:24:20Z</time>
      </trkpt>
      <trkpt lat="44.56051" lon="5.95859">
        <ele>978.4</ele>
        <time>2023-05-19T13:24:21Z</time>
      </trkpt>
      <trkpt lat="44.56051" lon="5.95861">
        <ele>978.6</ele>
        <time>2023-05-19T13:24:22Z</time>
      </trkpt>
      <trkpt lat="44.5605" lon="5.95863">
        <ele>978.6</ele>
        <time>2023-05-19T13:24:23Z</time>
      </trkpt>
      <trkpt lat="44.56049" lon="5.95865">
        <ele>979</ele>
        <time>2023-05-19T13:24:24Z</time>
      </trkpt>
      <trkpt lat="44.56049" lon="5.95867">
        <ele>979</ele>
        <time>2023-05-19T13:24:25Z</time>
      </trkpt>
      <trkpt lat="44.56049" lon="5.95868">
        <ele>979.2</ele>
        <time>2023-05-19T13:24:26Z</time>
      </trkpt>
      <trkpt lat="44.56048" lon="5.9587">
        <ele>979.4</ele>
        <time>2023-05-19T13:24:27Z</time>
      </trkpt>
      <trkpt lat="44.56048" lon="5.95871">
        <ele>979.6</ele>
        <time>2023-05-19T13:24:28Z</time>
      </trkpt>
      <trkpt lat="44.56047" lon="5.95873">
        <ele>980</ele>
        <time>2023-05-19T13:24:29Z</time>
      </trkpt>
      <trkpt lat="44.56047" lon="5.95874">
        <ele>980</ele>
        <time>2023-05-19T13:24:30Z</time>
      </trkpt>
      <trkpt lat="44.56045" lon="5.95876">
        <ele>980.2</ele>
        <time>2023-05-19T13:24:31Z</time>
      </trkpt>
      <trkpt lat="44.56045" lon="5.95877">
        <ele>980.2</ele>
        <time>2023-05-19T13:24:32Z</time>
      </trkpt>
      <trkpt lat="44.56044" lon="5.95878">
        <ele>980.4</ele>
        <time>2023-05-19T13:24:33Z</time>
      </trkpt>
      <trkpt lat="44.56043" lon="5.9588">
        <ele>980.6</ele>
        <time>2023-05-19T13:24:34Z</time>
      </trkpt>
      <trkpt lat="44.56042" lon="5.95881">
        <ele>980.8</ele>
        <time>2023-05-19T13:24:35Z</time>
      </trkpt>
      <trkpt lat="44.56042" lon="5.95882">
        <ele>980.8</ele>
        <time>2023-05-19T13:24:36Z</time>
      </trkpt>
      <trkpt lat="44.56042" lon="5.95884">
        <ele>981</ele>
        <time>2023-05-19T13:24:37Z</time>
      </trkpt>
      <trkpt lat="44.5604" lon="5.95884">
        <ele>981</ele>
        <time>2023-05-19T13:24:38Z</time>
      </trkpt>
      <trkpt lat="44.56039" lon="5.95884">
        <ele>981.2</ele>
        <time>2023-05-19T13:24:39Z</time>
      </trkpt>
      <trkpt lat="44.56038" lon="5.95884">
        <ele>981.4</ele>
        <time>2023-05-19T13:24:40Z</time>
      </trkpt>
      <trkpt lat="44.56038" lon="5.95883">
        <ele>981.4</ele>
        <time>2023-05-19T13:24:41Z</time>
      </trkpt>
      <trkpt lat="44.56038" lon="5.95881">
        <ele>981.6</ele>
        <time>2023-05-19T13:24:42Z</time>
      </trkpt>
      <trkpt lat="44.56038" lon="5.9588">
        <ele>981.6</ele>
        <time>2023-05-19T13:24:43Z</time>
      </trkpt>
      <trkpt lat="44.56038" lon="5.95878">
        <ele>981.8</ele>
        <time>2023-05-19T13:24:44Z</time>
      </trkpt>
      <trkpt lat="44.56038" lon="5.95877">
        <ele>981.8</ele>
        <time>2023-05-19T13:24:45Z</time>
      </trkpt>
      <trkpt lat="44.56039" lon="5.95877">
        <ele>982</ele>
        <time>2023-05-19T13:24:46Z</time>
      </trkpt>
      <trkpt lat="44.56039" lon="5.95877">
        <ele>982</ele>
        <time>2023-05-19T13:24:47Z</time>
      </trkpt>
      <trkpt lat="44.56039" lon="5.95877">
        <ele>982.4</ele>
        <time>2023-05-19T13:24:50Z</time>
      </trkpt>
      <trkpt lat="44.56039" lon="5.95877">
        <ele>982.4</ele>
        <time>2023-05-19T13:24:54Z</time>
      </trkpt>
    </trkseg>
  </trk>
</gpx>